<?xml version='1.0' encoding='UTF-8'?><gpx version="1.1" creator="JPX - https://github.com/jenetics/jpx" xmlns="http://www.topografix.com/GPX/1/1"><trk><trkseg><trkpt lat="43.1051033" lon="13.4540758"><ele>362.0</ele><time>2026-04-12T07:03:03.582Z</time></trkpt><trkpt lat="43.1051224" lon="13.4538675"><ele>362.0</ele><time>2026-04-12T07:03:04.595Z</time></trkpt><trkpt lat="43.105108" lon="13.4536596"><ele>362.0</ele><time>2026-04-12T07:03:05.586Z</time></trkpt><trkpt lat="43.105014" lon="13.4532144"><ele>362.0</ele><time>2026-04-12T07:03:07.59Z</time></trkpt><trkpt lat="43.1049638" lon="13.4529965"><ele>362.0</ele><time>2026-04-12T07:03:08.579Z</time></trkpt><trkpt lat="43.1049116" lon="13.4527881"><ele>362.0</ele><time>2026-04-12T07:03:09.591Z</time></trkpt><trkpt lat="43.1048617" lon="13.4525782"><ele>361.0</ele><time>2026-04-12T07:03:10.58Z</time></trkpt><trkpt lat="43.1048119" lon="13.452361"><ele>360.0</ele><time>2026-04-12T07:03:11.584Z</time></trkpt><trkpt lat="43.10476" lon="13.4521389"><ele>359.0</ele><time>2026-04-12T07:03:12.584Z</time></trkpt><trkpt lat="43.1047107" lon="13.4519306"><ele>359.0</ele><time>2026-04-12T07:03:13.585Z</time></trkpt><trkpt lat="43.1046628" lon="13.4517365"><ele>359.0</ele><time>2026-04-12T07:03:14.604Z</time></trkpt><trkpt lat="43.1046166" lon="13.4515516"><ele>359.0</ele><time>2026-04-12T07:03:15.588Z</time></trkpt><trkpt lat="43.1045716" lon="13.4513604"><ele>359.0</ele><time>2026-04-12T07:03:16.577Z</time></trkpt><trkpt lat="43.1045271" lon="13.4511553"><ele>360.6666666666667</ele><time>2026-04-12T07:03:17.59Z</time></trkpt><trkpt lat="43.1044781" lon="13.4509426"><ele>362.3333333333333</ele><time>2026-04-12T07:03:18.583Z</time></trkpt><trkpt lat="43.1044256" lon="13.4507328"><ele>364.0</ele><time>2026-04-12T07:03:19.591Z</time></trkpt><trkpt lat="43.1043654" lon="13.4505396"><ele>364.0</ele><time>2026-04-12T07:03:20.582Z</time></trkpt><trkpt lat="43.1042958" lon="13.4503562"><ele>364.0</ele><time>2026-04-12T07:03:21.585Z</time></trkpt><trkpt lat="43.1042159" lon="13.4501708"><ele>364.0</ele><time>2026-04-12T07:03:22.583Z</time></trkpt><trkpt lat="43.10413" lon="13.4499809"><ele>362.3333333333333</ele><time>2026-04-12T07:03:23.583Z</time></trkpt><trkpt lat="43.1040409" lon="13.4497852"><ele>360.6666666666667</ele><time>2026-04-12T07:03:24.579Z</time></trkpt><trkpt lat="43.103952" lon="13.4495816"><ele>359.0</ele><time>2026-04-12T07:03:25.593Z</time></trkpt><trkpt lat="43.1038664" lon="13.4493859"><ele>359.0</ele><time>2026-04-12T07:03:26.581Z</time></trkpt><trkpt lat="43.1037852" lon="13.4492008"><ele>359.0</ele><time>2026-04-12T07:03:27.586Z</time></trkpt><trkpt lat="43.1037047" lon="13.4490205"><ele>359.0</ele><time>2026-04-12T07:03:28.58Z</time></trkpt><trkpt lat="43.1036232" lon="13.4488409"><ele>359.6666666666667</ele><time>2026-04-12T07:03:29.587Z</time></trkpt><trkpt lat="43.1035408" lon="13.4486588"><ele>360.3333333333333</ele><time>2026-04-12T07:03:30.574Z</time></trkpt><trkpt lat="43.1034571" lon="13.4484716"><ele>361.0</ele><time>2026-04-12T07:03:31.577Z</time></trkpt><trkpt lat="43.103371" lon="13.4482788"><ele>361.0</ele><time>2026-04-12T07:03:32.583Z</time></trkpt><trkpt lat="43.1032845" lon="13.4480802"><ele>361.0</ele><time>2026-04-12T07:03:33.58Z</time></trkpt><trkpt lat="43.1031983" lon="13.4478854"><ele>361.0</ele><time>2026-04-12T07:03:34.583Z</time></trkpt><trkpt lat="43.1031153" lon="13.4477012"><ele>360.0</ele><time>2026-04-12T07:03:35.586Z</time></trkpt><trkpt lat="43.1030353" lon="13.4475228"><ele>359.0</ele><time>2026-04-12T07:03:36.577Z</time></trkpt><trkpt lat="43.1029556" lon="13.4473438"><ele>358.0</ele><time>2026-04-12T07:03:37.606Z</time></trkpt><trkpt lat="43.1028767" lon="13.4471622"><ele>357.66666666666663</ele><time>2026-04-12T07:03:38.577Z</time></trkpt><trkpt lat="43.1027968" lon="13.4469788"><ele>357.3333333333333</ele><time>2026-04-12T07:03:39.58Z</time></trkpt><trkpt lat="43.102717" lon="13.4467979"><ele>357.0</ele><time>2026-04-12T07:03:40.578Z</time></trkpt><trkpt lat="43.1026421" lon="13.4466281"><ele>357.0</ele><time>2026-04-12T07:03:41.591Z</time></trkpt><trkpt lat="43.1025674" lon="13.4464616"><ele>357.0</ele><time>2026-04-12T07:03:42.573Z</time></trkpt><trkpt lat="43.102491" lon="13.4462913"><ele>357.0</ele><time>2026-04-12T07:03:43.588Z</time></trkpt><trkpt lat="43.1024124" lon="13.4461121"><ele>357.0</ele><time>2026-04-12T07:03:44.582Z</time></trkpt><trkpt lat="43.102331" lon="13.4459241"><ele>356.6666666666667</ele><time>2026-04-12T07:03:45.586Z</time></trkpt><trkpt lat="43.10224" lon="13.4457365"><ele>356.33333333333337</ele><time>2026-04-12T07:03:46.577Z</time></trkpt><trkpt lat="43.1021352" lon="13.4455632"><ele>356.0</ele><time>2026-04-12T07:03:47.586Z</time></trkpt><trkpt lat="43.1020152" lon="13.4454072"><ele>356.0</ele><time>2026-04-12T07:03:48.578Z</time></trkpt><trkpt lat="43.101879" lon="13.4452741"><ele>356.0</ele><time>2026-04-12T07:03:49.588Z</time></trkpt><trkpt lat="43.10173" lon="13.4451626"><ele>356.0</ele><time>2026-04-12T07:03:50.585Z</time></trkpt><trkpt lat="43.101566" lon="13.4450666"><ele>356.33333333333337</ele><time>2026-04-12T07:03:51.582Z</time></trkpt><trkpt lat="43.10139" lon="13.4449783"><ele>356.6666666666667</ele><time>2026-04-12T07:03:52.578Z</time></trkpt><trkpt lat="43.1012054" lon="13.4448916"><ele>357.0</ele><time>2026-04-12T07:03:53.59Z</time></trkpt><trkpt lat="43.1010176" lon="13.4447993"><ele>357.0</ele><time>2026-04-12T07:03:54.583Z</time></trkpt><trkpt lat="43.1008345" lon="13.4446932"><ele>357.0</ele><time>2026-04-12T07:03:55.593Z</time></trkpt><trkpt lat="43.1006532" lon="13.4445699"><ele>357.0</ele><time>2026-04-12T07:03:56.582Z</time></trkpt><trkpt lat="43.1004707" lon="13.4444352"><ele>358.0</ele><time>2026-04-12T07:03:57.592Z</time></trkpt><trkpt lat="43.1002926" lon="13.4442822"><ele>359.0</ele><time>2026-04-12T07:03:58.584Z</time></trkpt><trkpt lat="43.1001216" lon="13.444109"><ele>360.0</ele><time>2026-04-12T07:03:59.586Z</time></trkpt><trkpt lat="43.0999529" lon="13.4439274"><ele>361.3333333333333</ele><time>2026-04-12T07:04:00.584Z</time></trkpt><trkpt lat="43.0997848" lon="13.4437423"><ele>362.66666666666663</ele><time>2026-04-12T07:04:01.592Z</time></trkpt><trkpt lat="43.099619" lon="13.4435564"><ele>364.0</ele><time>2026-04-12T07:04:02.585Z</time></trkpt><trkpt lat="43.0994559" lon="13.4433708"><ele>364.0</ele><time>2026-04-12T07:04:03.591Z</time></trkpt><trkpt lat="43.0992934" lon="13.4431869"><ele>364.0</ele><time>2026-04-12T07:04:04.583Z</time></trkpt><trkpt lat="43.0991337" lon="13.4430019"><ele>364.0</ele><time>2026-04-12T07:04:05.585Z</time></trkpt><trkpt lat="43.0989756" lon="13.4428168"><ele>366.0</ele><time>2026-04-12T07:04:06.585Z</time></trkpt><trkpt lat="43.0988182" lon="13.4426298"><ele>368.0</ele><time>2026-04-12T07:04:07.587Z</time></trkpt><trkpt lat="43.0986568" lon="13.4424352"><ele>370.0</ele><time>2026-04-12T07:04:08.578Z</time></trkpt><trkpt lat="43.0984918" lon="13.4422369"><ele>372.66666666666663</ele><time>2026-04-12T07:04:09.587Z</time></trkpt><trkpt lat="43.098324" lon="13.4420399"><ele>375.3333333333333</ele><time>2026-04-12T07:04:10.577Z</time></trkpt><trkpt lat="43.0981532" lon="13.4418556"><ele>378.0</ele><time>2026-04-12T07:04:11.578Z</time></trkpt><trkpt lat="43.0979761" lon="13.4416919"><ele>379.3333333333333</ele><time>2026-04-12T07:04:12.584Z</time></trkpt><trkpt lat="43.0977938" lon="13.4415462"><ele>380.66666666666663</ele><time>2026-04-12T07:04:13.583Z</time></trkpt><trkpt lat="43.0976089" lon="13.4414128"><ele>382.0</ele><time>2026-04-12T07:04:14.575Z</time></trkpt><trkpt lat="43.0974245" lon="13.4412878"><ele>386.0</ele><time>2026-04-12T07:04:15.588Z</time></trkpt><trkpt lat="43.097251" lon="13.4411692"><ele>390.0</ele><time>2026-04-12T07:04:16.573Z</time></trkpt><trkpt lat="43.0970932" lon="13.4410425"><ele>394.0</ele><time>2026-04-12T07:04:17.589Z</time></trkpt><trkpt lat="43.0969556" lon="13.440891"><ele>394.0</ele><time>2026-04-12T07:04:18.581Z</time></trkpt><trkpt lat="43.0968421" lon="13.4407132"><ele>394.0</ele><time>2026-04-12T07:04:19.587Z</time></trkpt><trkpt lat="43.0967398" lon="13.4405468"><ele>394.0</ele><time>2026-04-12T07:04:20.572Z</time></trkpt><trkpt lat="43.0966662" lon="13.4403301"><ele>394.33333333333337</ele><time>2026-04-12T07:04:21.582Z</time></trkpt><trkpt lat="43.0965962" lon="13.4401089"><ele>394.66666666666663</ele><time>2026-04-12T07:04:22.582Z</time></trkpt><trkpt lat="43.0965236" lon="13.4398776"><ele>395.0</ele><time>2026-04-12T07:04:23.588Z</time></trkpt><trkpt lat="43.0964516" lon="13.4396397"><ele>397.3333333333333</ele><time>2026-04-12T07:04:24.579Z</time></trkpt><trkpt lat="43.0963728" lon="13.4393965"><ele>399.66666666666663</ele><time>2026-04-12T07:04:25.587Z</time></trkpt><trkpt lat="43.0962962" lon="13.4391558"><ele>402.0</ele><time>2026-04-12T07:04:26.581Z</time></trkpt><trkpt lat="43.0962091" lon="13.438931"><ele>402.33333333333337</ele><time>2026-04-12T07:04:27.573Z</time></trkpt><trkpt lat="43.0961078" lon="13.4387196"><ele>402.6666666666667</ele><time>2026-04-12T07:04:28.58Z</time></trkpt><trkpt lat="43.0959909" lon="13.4385103"><ele>403.0</ele><time>2026-04-12T07:04:29.588Z</time></trkpt><trkpt lat="43.0958676" lon="13.4383014"><ele>404.0</ele><time>2026-04-12T07:04:30.582Z</time></trkpt><trkpt lat="43.0957433" lon="13.438094"><ele>405.0</ele><time>2026-04-12T07:04:31.587Z</time></trkpt><trkpt lat="43.0956228" lon="13.4378939"><ele>406.0</ele><time>2026-04-12T07:04:32.575Z</time></trkpt><trkpt lat="43.0955027" lon="13.4376999"><ele>406.0</ele><time>2026-04-12T07:04:33.585Z</time></trkpt><trkpt lat="43.0953881" lon="13.4374991"><ele>406.0</ele><time>2026-04-12T07:04:34.577Z</time></trkpt><trkpt lat="43.0952902" lon="13.4372807"><ele>406.0</ele><time>2026-04-12T07:04:35.585Z</time></trkpt><trkpt lat="43.095215" lon="13.4370503"><ele>407.6666666666667</ele><time>2026-04-12T07:04:36.577Z</time></trkpt><trkpt lat="43.0951544" lon="13.436811"><ele>409.33333333333337</ele><time>2026-04-12T07:04:37.585Z</time></trkpt><trkpt lat="43.0950988" lon="13.4365636"><ele>411.0</ele><time>2026-04-12T07:04:38.58Z</time></trkpt><trkpt lat="43.0950271" lon="13.436313"><ele>412.33333333333337</ele><time>2026-04-12T07:04:39.585Z</time></trkpt><trkpt lat="43.0949559" lon="13.4360626"><ele>413.6666666666667</ele><time>2026-04-12T07:04:40.578Z</time></trkpt><trkpt lat="43.0948541" lon="13.4358203"><ele>415.0</ele><time>2026-04-12T07:04:41.584Z</time></trkpt><trkpt lat="43.0947379" lon="13.4355965"><ele>417.0</ele><time>2026-04-12T07:04:42.582Z</time></trkpt><trkpt lat="43.094617" lon="13.4353759"><ele>419.0</ele><time>2026-04-12T07:04:43.59Z</time></trkpt><trkpt lat="43.0944911" lon="13.4351629"><ele>421.0</ele><time>2026-04-12T07:04:44.578Z</time></trkpt><trkpt lat="43.094368" lon="13.4349419"><ele>421.0</ele><time>2026-04-12T07:04:45.6Z</time></trkpt><trkpt lat="43.0942514" lon="13.4347188"><ele>421.0</ele><time>2026-04-12T07:04:46.574Z</time></trkpt><trkpt lat="43.094117" lon="13.4344968"><ele>421.0</ele><time>2026-04-12T07:04:47.58Z</time></trkpt><trkpt lat="43.0939788" lon="13.4342637"><ele>422.6666666666667</ele><time>2026-04-12T07:04:48.578Z</time></trkpt><trkpt lat="43.0938412" lon="13.4340363"><ele>424.33333333333337</ele><time>2026-04-12T07:04:49.588Z</time></trkpt><trkpt lat="43.0937177" lon="13.4338033"><ele>426.0</ele><time>2026-04-12T07:04:50.574Z</time></trkpt><trkpt lat="43.0936149" lon="13.4335557"><ele>427.33333333333337</ele><time>2026-04-12T07:04:51.576Z</time></trkpt><trkpt lat="43.0935393" lon="13.4332833"><ele>428.6666666666667</ele><time>2026-04-12T07:04:52.58Z</time></trkpt><trkpt lat="43.0934906" lon="13.4329975"><ele>430.0</ele><time>2026-04-12T07:04:53.585Z</time></trkpt><trkpt lat="43.0934699" lon="13.4327051"><ele>432.0</ele><time>2026-04-12T07:04:54.577Z</time></trkpt><trkpt lat="43.093465" lon="13.4324127"><ele>434.0</ele><time>2026-04-12T07:04:55.603Z</time></trkpt><trkpt lat="43.0934645" lon="13.4321239"><ele>436.0</ele><time>2026-04-12T07:04:56.583Z</time></trkpt><trkpt lat="43.0934643" lon="13.4318352"><ele>437.33333333333337</ele><time>2026-04-12T07:04:57.58Z</time></trkpt><trkpt lat="43.0934673" lon="13.4315484"><ele>438.66666666666663</ele><time>2026-04-12T07:04:58.584Z</time></trkpt><trkpt lat="43.0934824" lon="13.4312659"><ele>440.0</ele><time>2026-04-12T07:04:59.579Z</time></trkpt><trkpt lat="43.0935255" lon="13.4309929"><ele>441.66666666666663</ele><time>2026-04-12T07:05:00.582Z</time></trkpt><trkpt lat="43.0935901" lon="13.4307257"><ele>443.33333333333337</ele><time>2026-04-12T07:05:01.574Z</time></trkpt><trkpt lat="43.0936598" lon="13.4304532"><ele>445.0</ele><time>2026-04-12T07:05:02.586Z</time></trkpt><trkpt lat="43.0937301" lon="13.4301749"><ele>446.33333333333337</ele><time>2026-04-12T07:05:03.58Z</time></trkpt><trkpt lat="43.0938006" lon="13.4298925"><ele>447.66666666666663</ele><time>2026-04-12T07:05:04.59Z</time></trkpt><trkpt lat="43.0938694" lon="13.4296241"><ele>449.0</ele><time>2026-04-12T07:05:05.577Z</time></trkpt><trkpt lat="43.0939349" lon="13.4293741"><ele>448.0</ele><time>2026-04-12T07:05:06.589Z</time></trkpt><trkpt lat="43.0940014" lon="13.4291299"><ele>447.0</ele><time>2026-04-12T07:05:07.582Z</time></trkpt><trkpt lat="43.09407" lon="13.4288735"><ele>446.0</ele><time>2026-04-12T07:05:08.575Z</time></trkpt><trkpt lat="43.0941391" lon="13.4286081"><ele>446.0</ele><time>2026-04-12T07:05:09.581Z</time></trkpt><trkpt lat="43.0942047" lon="13.4283551"><ele>446.0</ele><time>2026-04-12T07:05:10.584Z</time></trkpt><trkpt lat="43.0942686" lon="13.4281124"><ele>446.0</ele><time>2026-04-12T07:05:11.589Z</time></trkpt><trkpt lat="43.0943319" lon="13.42787"><ele>449.3333333333333</ele><time>2026-04-12T07:05:12.584Z</time></trkpt><trkpt lat="43.0943961" lon="13.4276294"><ele>452.66666666666663</ele><time>2026-04-12T07:05:13.579Z</time></trkpt><trkpt lat="43.0944567" lon="13.4274086"><ele>456.0</ele><time>2026-04-12T07:05:14.578Z</time></trkpt><trkpt lat="43.0945079" lon="13.4272099"><ele>456.33333333333337</ele><time>2026-04-12T07:05:15.574Z</time></trkpt><trkpt lat="43.0945355" lon="13.4270139"><ele>456.6666666666667</ele><time>2026-04-12T07:05:16.579Z</time></trkpt><trkpt lat="43.0945619" lon="13.4268195"><ele>457.0</ele><time>2026-04-12T07:05:17.586Z</time></trkpt><trkpt lat="43.0945015" lon="13.4266007"><ele>457.0</ele><time>2026-04-12T07:05:18.586Z</time></trkpt><trkpt lat="43.0944356" lon="13.4263759"><ele>457.0</ele><time>2026-04-12T07:05:19.601Z</time></trkpt><trkpt lat="43.094383" lon="13.426135"><ele>457.0</ele><time>2026-04-12T07:05:20.581Z</time></trkpt><trkpt lat="43.0943134" lon="13.4258857"><ele>454.6666666666667</ele><time>2026-04-12T07:05:21.58Z</time></trkpt><trkpt lat="43.0942488" lon="13.4256419"><ele>452.33333333333337</ele><time>2026-04-12T07:05:22.583Z</time></trkpt><trkpt lat="43.0941806" lon="13.4254103"><ele>450.0</ele><time>2026-04-12T07:05:23.578Z</time></trkpt><trkpt lat="43.0941156" lon="13.4251778"><ele>449.0</ele><time>2026-04-12T07:05:24.589Z</time></trkpt><trkpt lat="43.0940569" lon="13.4249545"><ele>448.0</ele><time>2026-04-12T07:05:25.58Z</time></trkpt><trkpt lat="43.0939923" lon="13.4247281"><ele>447.0</ele><time>2026-04-12T07:05:26.588Z</time></trkpt><trkpt lat="43.093911" lon="13.4245052"><ele>446.0</ele><time>2026-04-12T07:05:27.581Z</time></trkpt><trkpt lat="43.0938107" lon="13.4242902"><ele>445.0</ele><time>2026-04-12T07:05:28.583Z</time></trkpt><trkpt lat="43.0936993" lon="13.4240796"><ele>444.0</ele><time>2026-04-12T07:05:29.581Z</time></trkpt><trkpt lat="43.0935942" lon="13.4238732"><ele>442.66666666666663</ele><time>2026-04-12T07:05:30.582Z</time></trkpt><trkpt lat="43.0934887" lon="13.4236664"><ele>441.3333333333333</ele><time>2026-04-12T07:05:31.584Z</time></trkpt><trkpt lat="43.0933764" lon="13.4234577"><ele>440.0</ele><time>2026-04-12T07:05:32.589Z</time></trkpt><trkpt lat="43.0932648" lon="13.4232463"><ele>437.66666666666663</ele><time>2026-04-12T07:05:33.578Z</time></trkpt><trkpt lat="43.0931584" lon="13.4230296"><ele>435.33333333333337</ele><time>2026-04-12T07:05:34.591Z</time></trkpt><trkpt lat="43.0930638" lon="13.422802"><ele>433.0</ele><time>2026-04-12T07:05:35.58Z</time></trkpt><trkpt lat="43.0929966" lon="13.4225573"><ele>432.6666666666667</ele><time>2026-04-12T07:05:36.588Z</time></trkpt><trkpt lat="43.0929476" lon="13.4223084"><ele>432.33333333333337</ele><time>2026-04-12T07:05:37.578Z</time></trkpt><trkpt lat="43.092911" lon="13.4220665"><ele>432.0</ele><time>2026-04-12T07:05:38.583Z</time></trkpt><trkpt lat="43.092879" lon="13.4218331"><ele>432.33333333333337</ele><time>2026-04-12T07:05:39.579Z</time></trkpt><trkpt lat="43.0928502" lon="13.4216128"><ele>432.6666666666667</ele><time>2026-04-12T07:05:40.581Z</time></trkpt><trkpt lat="43.0928159" lon="13.4214133"><ele>433.0</ele><time>2026-04-12T07:05:41.578Z</time></trkpt><trkpt lat="43.0927613" lon="13.4212371"><ele>433.0</ele><time>2026-04-12T07:05:42.583Z</time></trkpt><trkpt lat="43.0926704" lon="13.4210916"><ele>433.0</ele><time>2026-04-12T07:05:43.571Z</time></trkpt><trkpt lat="43.0925442" lon="13.4209906"><ele>433.0</ele><time>2026-04-12T07:05:44.579Z</time></trkpt><trkpt lat="43.0923991" lon="13.4209308"><ele>433.0</ele><time>2026-04-12T07:05:45.576Z</time></trkpt><trkpt lat="43.0922665" lon="13.4208739"><ele>433.0</ele><time>2026-04-12T07:05:46.584Z</time></trkpt><trkpt lat="43.0921401" lon="13.4208044"><ele>433.0</ele><time>2026-04-12T07:05:47.574Z</time></trkpt><trkpt lat="43.0920214" lon="13.420681"><ele>433.0</ele><time>2026-04-12T07:05:48.581Z</time></trkpt><trkpt lat="43.0919201" lon="13.4205209"><ele>433.0</ele><time>2026-04-12T07:05:49.571Z</time></trkpt><trkpt lat="43.0918447" lon="13.4203381"><ele>432.33333333333337</ele><time>2026-04-12T07:05:50.572Z</time></trkpt><trkpt lat="43.0917955" lon="13.420132"><ele>431.66666666666663</ele><time>2026-04-12T07:05:51.583Z</time></trkpt><trkpt lat="43.0917767" lon="13.4199145"><ele>431.0</ele><time>2026-04-12T07:05:52.581Z</time></trkpt><trkpt lat="43.0917881" lon="13.4196853"><ele>430.66666666666663</ele><time>2026-04-12T07:05:53.585Z</time></trkpt><trkpt lat="43.0918149" lon="13.4194367"><ele>430.33333333333337</ele><time>2026-04-12T07:05:54.575Z</time></trkpt><trkpt lat="43.0918733" lon="13.4191839"><ele>430.0</ele><time>2026-04-12T07:05:55.58Z</time></trkpt><trkpt lat="43.0919592" lon="13.4189496"><ele>431.6666666666667</ele><time>2026-04-12T07:05:56.579Z</time></trkpt><trkpt lat="43.0920497" lon="13.4187459"><ele>433.33333333333337</ele><time>2026-04-12T07:05:57.58Z</time></trkpt><trkpt lat="43.0921295" lon="13.4185638"><ele>435.0</ele><time>2026-04-12T07:05:58.572Z</time></trkpt><trkpt lat="43.0921946" lon="13.4183937"><ele>435.0</ele><time>2026-04-12T07:05:59.577Z</time></trkpt><trkpt lat="43.0922436" lon="13.418231"><ele>435.0</ele><time>2026-04-12T07:06:00.582Z</time></trkpt><trkpt lat="43.0922759" lon="13.418078"><ele>435.0</ele><time>2026-04-12T07:06:01.582Z</time></trkpt><trkpt lat="43.0922806" lon="13.4179331"><ele>435.0</ele><time>2026-04-12T07:06:02.577Z</time></trkpt><trkpt lat="43.0922498" lon="13.4177853"><ele>434.5</ele><time>2026-04-12T07:06:03.591Z</time></trkpt><trkpt lat="43.0921765" lon="13.4176436"><ele>434.0</ele><time>2026-04-12T07:06:04.582Z</time></trkpt><trkpt lat="43.0920668" lon="13.4175213"><ele>433.5</ele><time>2026-04-12T07:06:05.583Z</time></trkpt><trkpt lat="43.0919358" lon="13.4174061"><ele>433.0</ele><time>2026-04-12T07:06:06.578Z</time></trkpt><trkpt lat="43.0917999" lon="13.4172785"><ele>434.6666666666667</ele><time>2026-04-12T07:06:07.584Z</time></trkpt><trkpt lat="43.0916695" lon="13.4171513"><ele>436.33333333333337</ele><time>2026-04-12T07:06:08.586Z</time></trkpt><trkpt lat="43.0915503" lon="13.4170108"><ele>438.0</ele><time>2026-04-12T07:06:09.576Z</time></trkpt><trkpt lat="43.0914505" lon="13.4168404"><ele>438.0</ele><time>2026-04-12T07:06:10.586Z</time></trkpt><trkpt lat="43.0913796" lon="13.4166393"><ele>438.0</ele><time>2026-04-12T07:06:11.574Z</time></trkpt><trkpt lat="43.091345" lon="13.4164143"><ele>438.0</ele><time>2026-04-12T07:06:12.58Z</time></trkpt><trkpt lat="43.0913456" lon="13.4161698"><ele>438.0</ele><time>2026-04-12T07:06:13.583Z</time></trkpt><trkpt lat="43.0913731" lon="13.4159127"><ele>438.0</ele><time>2026-04-12T07:06:14.578Z</time></trkpt><trkpt lat="43.09142" lon="13.4156522"><ele>438.0</ele><time>2026-04-12T07:06:15.595Z</time></trkpt><trkpt lat="43.0914793" lon="13.4154087"><ele>438.0</ele><time>2026-04-12T07:06:16.574Z</time></trkpt><trkpt lat="43.0915562" lon="13.4151847"><ele>438.0</ele><time>2026-04-12T07:06:17.578Z</time></trkpt><trkpt lat="43.0916483" lon="13.4149858"><ele>438.0</ele><time>2026-04-12T07:06:18.58Z</time></trkpt><trkpt lat="43.0917393" lon="13.4148111"><ele>434.75</ele><time>2026-04-12T07:06:19.59Z</time></trkpt><trkpt lat="43.0918206" lon="13.4146508"><ele>431.5</ele><time>2026-04-12T07:06:20.575Z</time></trkpt><trkpt lat="43.0918678" lon="13.4144911"><ele>428.25</ele><time>2026-04-12T07:06:21.585Z</time></trkpt><trkpt lat="43.0918611" lon="13.4143212"><ele>425.0</ele><time>2026-04-12T07:06:22.581Z</time></trkpt><trkpt lat="43.0918" lon="13.4141514"><ele>425.0</ele><time>2026-04-12T07:06:23.588Z</time></trkpt><trkpt lat="43.0917078" lon="13.4140018"><ele>425.0</ele><time>2026-04-12T07:06:24.581Z</time></trkpt><trkpt lat="43.0915983" lon="13.4138564"><ele>425.0</ele><time>2026-04-12T07:06:25.581Z</time></trkpt><trkpt lat="43.0915166" lon="13.413663"><ele>429.0</ele><time>2026-04-12T07:06:26.587Z</time></trkpt><trkpt lat="43.0914757" lon="13.413451"><ele>433.0</ele><time>2026-04-12T07:06:27.579Z</time></trkpt><trkpt lat="43.0914768" lon="13.4132457"><ele>437.0</ele><time>2026-04-12T07:06:28.584Z</time></trkpt><trkpt lat="43.0915149" lon="13.4130569"><ele>437.0</ele><time>2026-04-12T07:06:29.582Z</time></trkpt><trkpt lat="43.0915622" lon="13.4128632"><ele>437.0</ele><time>2026-04-12T07:06:30.582Z</time></trkpt><trkpt lat="43.0915911" lon="13.4126522"><ele>437.0</ele><time>2026-04-12T07:06:31.582Z</time></trkpt><trkpt lat="43.0915852" lon="13.4124256"><ele>437.0</ele><time>2026-04-12T07:06:32.582Z</time></trkpt><trkpt lat="43.0915471" lon="13.4121916"><ele>437.0</ele><time>2026-04-12T07:06:33.595Z</time></trkpt><trkpt lat="43.0914934" lon="13.4119473"><ele>437.0</ele><time>2026-04-12T07:06:34.581Z</time></trkpt><trkpt lat="43.0914438" lon="13.4116931"><ele>436.0</ele><time>2026-04-12T07:06:35.578Z</time></trkpt><trkpt lat="43.0914008" lon="13.4114222"><ele>435.0</ele><time>2026-04-12T07:06:36.582Z</time></trkpt><trkpt lat="43.0913637" lon="13.411146"><ele>434.0</ele><time>2026-04-12T07:06:37.578Z</time></trkpt><trkpt lat="43.0913402" lon="13.410878"><ele>432.66666666666663</ele><time>2026-04-12T07:06:38.587Z</time></trkpt><trkpt lat="43.091334" lon="13.4106158"><ele>431.33333333333337</ele><time>2026-04-12T07:06:39.581Z</time></trkpt><trkpt lat="43.0913413" lon="13.41035"><ele>430.0</ele><time>2026-04-12T07:06:40.584Z</time></trkpt><trkpt lat="43.0913589" lon="13.4100797"><ele>429.33333333333337</ele><time>2026-04-12T07:06:41.587Z</time></trkpt><trkpt lat="43.0913903" lon="13.4098045"><ele>428.66666666666663</ele><time>2026-04-12T07:06:42.578Z</time></trkpt><trkpt lat="43.0914439" lon="13.4095287"><ele>428.0</ele><time>2026-04-12T07:06:43.581Z</time></trkpt><trkpt lat="43.091523" lon="13.40926"><ele>424.66666666666663</ele><time>2026-04-12T07:06:44.584Z</time></trkpt><trkpt lat="43.0916267" lon="13.4090009"><ele>421.33333333333337</ele><time>2026-04-12T07:06:45.579Z</time></trkpt><trkpt lat="43.0917431" lon="13.4087427"><ele>418.0</ele><time>2026-04-12T07:06:46.586Z</time></trkpt><trkpt lat="43.0918628" lon="13.4084767"><ele>416.5</ele><time>2026-04-12T07:06:47.583Z</time></trkpt><trkpt lat="43.0919845" lon="13.4082022"><ele>415.0</ele><time>2026-04-12T07:06:48.585Z</time></trkpt><trkpt lat="43.0921094" lon="13.4079196"><ele>415.0</ele><time>2026-04-12T07:06:49.575Z</time></trkpt><trkpt lat="43.092239" lon="13.4076308"><ele>415.0</ele><time>2026-04-12T07:06:50.586Z</time></trkpt><trkpt lat="43.0923693" lon="13.4073396"><ele>418.0</ele><time>2026-04-12T07:06:51.583Z</time></trkpt><trkpt lat="43.0924999" lon="13.4070482"><ele>421.0</ele><time>2026-04-12T07:06:52.58Z</time></trkpt><trkpt lat="43.0926294" lon="13.4067582"><ele>421.0</ele><time>2026-04-12T07:06:53.579Z</time></trkpt><trkpt lat="43.0927563" lon="13.4064702"><ele>421.0</ele><time>2026-04-12T07:06:54.585Z</time></trkpt><trkpt lat="43.0928811" lon="13.4061842"><ele>422.0</ele><time>2026-04-12T07:06:55.583Z</time></trkpt><trkpt lat="43.0930043" lon="13.4059005"><ele>423.0</ele><time>2026-04-12T07:06:56.578Z</time></trkpt><trkpt lat="43.0931262" lon="13.40562"><ele>424.0</ele><time>2026-04-12T07:06:57.574Z</time></trkpt><trkpt lat="43.0932512" lon="13.405346"><ele>425.0</ele><time>2026-04-12T07:06:58.582Z</time></trkpt><trkpt lat="43.0933889" lon="13.4050912"><ele>427.0</ele><time>2026-04-12T07:06:59.581Z</time></trkpt><trkpt lat="43.0935443" lon="13.4048673"><ele>429.0</ele><time>2026-04-12T07:07:00.583Z</time></trkpt><trkpt lat="43.0937109" lon="13.4046884"><ele>431.0</ele><time>2026-04-12T07:07:01.581Z</time></trkpt><trkpt lat="43.093883" lon="13.4045368"><ele>432.3333333333333</ele><time>2026-04-12T07:07:02.577Z</time></trkpt><trkpt lat="43.0940524" lon="13.4043707"><ele>433.66666666666663</ele><time>2026-04-12T07:07:03.583Z</time></trkpt><trkpt lat="43.0942102" lon="13.4041698"><ele>435.0</ele><time>2026-04-12T07:07:04.58Z</time></trkpt><trkpt lat="43.0943561" lon="13.4039463"><ele>438.66666666666663</ele><time>2026-04-12T07:07:05.594Z</time></trkpt><trkpt lat="43.0944934" lon="13.4037122"><ele>442.3333333333333</ele><time>2026-04-12T07:07:06.581Z</time></trkpt><trkpt lat="43.0946176" lon="13.4034664"><ele>446.0</ele><time>2026-04-12T07:07:07.573Z</time></trkpt><trkpt lat="43.0947223" lon="13.4032102"><ele>447.0</ele><time>2026-04-12T07:07:08.583Z</time></trkpt><trkpt lat="43.0948094" lon="13.4029587"><ele>448.0</ele><time>2026-04-12T07:07:09.578Z</time></trkpt><trkpt lat="43.0948901" lon="13.402726"><ele>449.0</ele><time>2026-04-12T07:07:10.583Z</time></trkpt><trkpt lat="43.0949737" lon="13.4025054"><ele>447.66666666666663</ele><time>2026-04-12T07:07:11.584Z</time></trkpt><trkpt lat="43.0950697" lon="13.4022857"><ele>446.33333333333337</ele><time>2026-04-12T07:07:12.572Z</time></trkpt><trkpt lat="43.0951891" lon="13.4020768"><ele>445.0</ele><time>2026-04-12T07:07:13.579Z</time></trkpt><trkpt lat="43.0953374" lon="13.4018955"><ele>445.0</ele><time>2026-04-12T07:07:14.58Z</time></trkpt><trkpt lat="43.0955115" lon="13.401755"><ele>445.0</ele><time>2026-04-12T07:07:15.577Z</time></trkpt><trkpt lat="43.0956991" lon="13.4016542"><ele>445.0</ele><time>2026-04-12T07:07:16.595Z</time></trkpt><trkpt lat="43.0958893" lon="13.4015741"><ele>444.6666666666667</ele><time>2026-04-12T07:07:17.581Z</time></trkpt><trkpt lat="43.0960708" lon="13.4014918"><ele>444.33333333333337</ele><time>2026-04-12T07:07:18.577Z</time></trkpt><trkpt lat="43.0962313" lon="13.4013769"><ele>444.0</ele><time>2026-04-12T07:07:19.578Z</time></trkpt><trkpt lat="43.0963681" lon="13.4012175"><ele>444.0</ele><time>2026-04-12T07:07:20.582Z</time></trkpt><trkpt lat="43.0964888" lon="13.4010303"><ele>444.0</ele><time>2026-04-12T07:07:21.58Z</time></trkpt><trkpt lat="43.0966145" lon="13.4008506"><ele>444.0</ele><time>2026-04-12T07:07:22.581Z</time></trkpt><trkpt lat="43.096751" lon="13.4006582"><ele>449.0</ele><time>2026-04-12T07:07:23.576Z</time></trkpt><trkpt lat="43.0968943" lon="13.4004695"><ele>454.0</ele><time>2026-04-12T07:07:24.581Z</time></trkpt><trkpt lat="43.097047" lon="13.4002838"><ele>459.0</ele><time>2026-04-12T07:07:25.582Z</time></trkpt><trkpt lat="43.0972163" lon="13.4001215"><ele>459.0</ele><time>2026-04-12T07:07:26.582Z</time></trkpt><trkpt lat="43.0974073" lon="13.3999938"><ele>459.0</ele><time>2026-04-12T07:07:27.575Z</time></trkpt><trkpt lat="43.0976022" lon="13.3998884"><ele>459.0</ele><time>2026-04-12T07:07:28.586Z</time></trkpt><trkpt lat="43.0977968" lon="13.3997651"><ele>462.66666666666663</ele><time>2026-04-12T07:07:29.574Z</time></trkpt><trkpt lat="43.0979803" lon="13.3996099"><ele>466.3333333333333</ele><time>2026-04-12T07:07:30.582Z</time></trkpt><trkpt lat="43.0981493" lon="13.3994294"><ele>470.0</ele><time>2026-04-12T07:07:31.582Z</time></trkpt><trkpt lat="43.0983101" lon="13.3992428"><ele>470.0</ele><time>2026-04-12T07:07:32.574Z</time></trkpt><trkpt lat="43.0984562" lon="13.3990635"><ele>470.0</ele><time>2026-04-12T07:07:33.594Z</time></trkpt><trkpt lat="43.0985832" lon="13.398888"><ele>470.0</ele><time>2026-04-12T07:07:34.582Z</time></trkpt><trkpt lat="43.0986879" lon="13.3987113"><ele>473.75</ele><time>2026-04-12T07:07:35.589Z</time></trkpt><trkpt lat="43.0987896" lon="13.3985431"><ele>477.5</ele><time>2026-04-12T07:07:36.58Z</time></trkpt><trkpt lat="43.0988625" lon="13.3983762"><ele>481.25</ele><time>2026-04-12T07:07:37.577Z</time></trkpt><trkpt lat="43.0989283" lon="13.3982236"><ele>485.0</ele><time>2026-04-12T07:07:38.584Z</time></trkpt><trkpt lat="43.0989833" lon="13.3980648"><ele>483.0</ele><time>2026-04-12T07:07:39.582Z</time></trkpt><trkpt lat="43.0990248" lon="13.397898"><ele>481.0</ele><time>2026-04-12T07:07:40.583Z</time></trkpt><trkpt lat="43.0990645" lon="13.3977395"><ele>479.0</ele><time>2026-04-12T07:07:41.584Z</time></trkpt><trkpt lat="43.099105" lon="13.3975826"><ele>477.0</ele><time>2026-04-12T07:07:42.584Z</time></trkpt><trkpt lat="43.0991434" lon="13.3974156"><ele>476.75</ele><time>2026-04-12T07:07:43.58Z</time></trkpt><trkpt lat="43.0991985" lon="13.397241"><ele>476.5</ele><time>2026-04-12T07:07:44.575Z</time></trkpt><trkpt lat="43.0992418" lon="13.3970344"><ele>476.25</ele><time>2026-04-12T07:07:45.585Z</time></trkpt><trkpt lat="43.0992664" lon="13.3968532"><ele>476.0</ele><time>2026-04-12T07:07:46.578Z</time></trkpt><trkpt lat="43.0992637" lon="13.3966565"><ele>476.0</ele><time>2026-04-12T07:07:47.606Z</time></trkpt><trkpt lat="43.0992432" lon="13.3964559"><ele>476.0</ele><time>2026-04-12T07:07:48.58Z</time></trkpt><trkpt lat="43.0992179" lon="13.3962517"><ele>476.0</ele><time>2026-04-12T07:07:49.575Z</time></trkpt><trkpt lat="43.0991752" lon="13.396045"><ele>477.0</ele><time>2026-04-12T07:07:50.579Z</time></trkpt><trkpt lat="43.0991303" lon="13.3958251"><ele>478.0</ele><time>2026-04-12T07:07:51.579Z</time></trkpt><trkpt lat="43.0990833" lon="13.3956059"><ele>479.0</ele><time>2026-04-12T07:07:52.582Z</time></trkpt><trkpt lat="43.0990446" lon="13.3953848"><ele>474.3333333333333</ele><time>2026-04-12T07:07:53.576Z</time></trkpt><trkpt lat="43.0989972" lon="13.3951813"><ele>469.66666666666663</ele><time>2026-04-12T07:07:54.572Z</time></trkpt><trkpt lat="43.0989415" lon="13.3949861"><ele>465.0</ele><time>2026-04-12T07:07:55.58Z</time></trkpt><trkpt lat="43.098866" lon="13.3948126"><ele>465.0</ele><time>2026-04-12T07:07:56.583Z</time></trkpt><trkpt lat="43.0987433" lon="13.3946743"><ele>465.0</ele><time>2026-04-12T07:07:57.584Z</time></trkpt><trkpt lat="43.0985993" lon="13.3945521"><ele>465.0</ele><time>2026-04-12T07:07:58.581Z</time></trkpt><trkpt lat="43.098425" lon="13.3944694"><ele>466.66666666666663</ele><time>2026-04-12T07:07:59.579Z</time></trkpt><trkpt lat="43.0982369" lon="13.394413"><ele>468.3333333333333</ele><time>2026-04-12T07:08:00.579Z</time></trkpt><trkpt lat="43.0980563" lon="13.3943504"><ele>470.0</ele><time>2026-04-12T07:08:01.581Z</time></trkpt><trkpt lat="43.0978736" lon="13.3942729"><ele>470.0</ele><time>2026-04-12T07:08:02.581Z</time></trkpt><trkpt lat="43.0977007" lon="13.3941849"><ele>470.0</ele><time>2026-04-12T07:08:03.577Z</time></trkpt><trkpt lat="43.0975418" lon="13.3940823"><ele>470.0</ele><time>2026-04-12T07:08:04.579Z</time></trkpt><trkpt lat="43.0973982" lon="13.3939886"><ele>467.75</ele><time>2026-04-12T07:08:05.584Z</time></trkpt><trkpt lat="43.0972853" lon="13.393862"><ele>465.5</ele><time>2026-04-12T07:08:06.584Z</time></trkpt><trkpt lat="43.0972159" lon="13.3937143"><ele>463.25</ele><time>2026-04-12T07:08:07.589Z</time></trkpt><trkpt lat="43.0971864" lon="13.3935454"><ele>461.0</ele><time>2026-04-12T07:08:08.577Z</time></trkpt><trkpt lat="43.097205" lon="13.3933709"><ele>461.0</ele><time>2026-04-12T07:08:09.581Z</time></trkpt><trkpt lat="43.0972673" lon="13.3932239"><ele>461.0</ele><time>2026-04-12T07:08:10.584Z</time></trkpt><trkpt lat="43.0973595" lon="13.3930948"><ele>461.0</ele><time>2026-04-12T07:08:11.582Z</time></trkpt><trkpt lat="43.097474" lon="13.3929665"><ele>461.0</ele><time>2026-04-12T07:08:12.581Z</time></trkpt><trkpt lat="43.0976091" lon="13.3928444"><ele>464.3333333333333</ele><time>2026-04-12T07:08:13.583Z</time></trkpt><trkpt lat="43.0977397" lon="13.3927278"><ele>467.66666666666663</ele><time>2026-04-12T07:08:14.583Z</time></trkpt><trkpt lat="43.0978767" lon="13.3926605"><ele>471.0</ele><time>2026-04-12T07:08:15.577Z</time></trkpt><trkpt lat="43.0980024" lon="13.3925462"><ele>471.0</ele><time>2026-04-12T07:08:16.58Z</time></trkpt><trkpt lat="43.0981009" lon="13.3923784"><ele>471.0</ele><time>2026-04-12T07:08:17.576Z</time></trkpt><trkpt lat="43.0981653" lon="13.3921857"><ele>471.0</ele><time>2026-04-12T07:08:18.574Z</time></trkpt><trkpt lat="43.0981776" lon="13.3919805"><ele>471.75</ele><time>2026-04-12T07:08:19.577Z</time></trkpt><trkpt lat="43.0981433" lon="13.3917873"><ele>472.5</ele><time>2026-04-12T07:08:20.584Z</time></trkpt><trkpt lat="43.0980666" lon="13.3916268"><ele>473.25</ele><time>2026-04-12T07:08:21.578Z</time></trkpt><trkpt lat="43.0979593" lon="13.3915086"><ele>474.0</ele><time>2026-04-12T07:08:22.584Z</time></trkpt><trkpt lat="43.0978205" lon="13.3914392"><ele>474.0</ele><time>2026-04-12T07:08:23.576Z</time></trkpt><trkpt lat="43.0976649" lon="13.3914105"><ele>474.0</ele><time>2026-04-12T07:08:24.58Z</time></trkpt><trkpt lat="43.0975043" lon="13.3913795"><ele>474.0</ele><time>2026-04-12T07:08:25.582Z</time></trkpt><trkpt lat="43.0973563" lon="13.3913114"><ele>471.75</ele><time>2026-04-12T07:08:26.579Z</time></trkpt><trkpt lat="43.0972343" lon="13.3911991"><ele>469.5</ele><time>2026-04-12T07:08:27.583Z</time></trkpt><trkpt lat="43.0971394" lon="13.3910463"><ele>467.25</ele><time>2026-04-12T07:08:28.581Z</time></trkpt><trkpt lat="43.097064" lon="13.3908619"><ele>465.0</ele><time>2026-04-12T07:08:29.575Z</time></trkpt><trkpt lat="43.0969981" lon="13.3906837"><ele>464.66666666666663</ele><time>2026-04-12T07:08:30.576Z</time></trkpt><trkpt lat="43.0969729" lon="13.3904975"><ele>464.3333333333333</ele><time>2026-04-12T07:08:31.578Z</time></trkpt><trkpt lat="43.0970588" lon="13.3902967"><ele>464.0</ele><time>2026-04-12T07:08:32.578Z</time></trkpt><trkpt lat="43.097171" lon="13.3901043"><ele>464.0</ele><time>2026-04-12T07:08:33.578Z</time></trkpt><trkpt lat="43.0973165" lon="13.3899466"><ele>464.0</ele><time>2026-04-12T07:08:34.586Z</time></trkpt><trkpt lat="43.0974887" lon="13.389832"><ele>464.0</ele><time>2026-04-12T07:08:35.579Z</time></trkpt><trkpt lat="43.0976461" lon="13.3897339"><ele>469.3333333333333</ele><time>2026-04-12T07:08:36.578Z</time></trkpt><trkpt lat="43.0978262" lon="13.3897515"><ele>474.66666666666663</ele><time>2026-04-12T07:08:37.584Z</time></trkpt><trkpt lat="43.0979984" lon="13.3897518"><ele>480.0</ele><time>2026-04-12T07:08:38.58Z</time></trkpt><trkpt lat="43.0981601" lon="13.3897406"><ele>479.33333333333337</ele><time>2026-04-12T07:08:39.594Z</time></trkpt><trkpt lat="43.0983194" lon="13.3896628"><ele>478.6666666666667</ele><time>2026-04-12T07:08:40.579Z</time></trkpt><trkpt lat="43.0984514" lon="13.3895328"><ele>478.0</ele><time>2026-04-12T07:08:41.576Z</time></trkpt><trkpt lat="43.0985597" lon="13.3893463"><ele>478.0</ele><time>2026-04-12T07:08:42.577Z</time></trkpt><trkpt lat="43.0986284" lon="13.3891338"><ele>478.0</ele><time>2026-04-12T07:08:43.589Z</time></trkpt><trkpt lat="43.0986752" lon="13.3888982"><ele>478.0</ele><time>2026-04-12T07:08:44.578Z</time></trkpt><trkpt lat="43.0986942" lon="13.3886607"><ele>477.6666666666667</ele><time>2026-04-12T07:08:45.61Z</time></trkpt><trkpt lat="43.0986981" lon="13.3884353"><ele>477.33333333333337</ele><time>2026-04-12T07:08:46.591Z</time></trkpt><trkpt lat="43.0986691" lon="13.3882284"><ele>477.0</ele><time>2026-04-12T07:08:47.584Z</time></trkpt><trkpt lat="43.0986481" lon="13.3880358"><ele>479.0</ele><time>2026-04-12T07:08:48.587Z</time></trkpt><trkpt lat="43.0986215" lon="13.3878493"><ele>481.0</ele><time>2026-04-12T07:08:49.578Z</time></trkpt><trkpt lat="43.0985907" lon="13.3876672"><ele>483.0</ele><time>2026-04-12T07:08:50.583Z</time></trkpt><trkpt lat="43.0985633" lon="13.3874987"><ele>485.0</ele><time>2026-04-12T07:08:51.585Z</time></trkpt><trkpt lat="43.0985376" lon="13.3873345"><ele>486.5</ele><time>2026-04-12T07:08:52.579Z</time></trkpt><trkpt lat="43.0985369" lon="13.3871634"><ele>488.0</ele><time>2026-04-12T07:08:53.585Z</time></trkpt><trkpt lat="43.098559" lon="13.3869984"><ele>489.5</ele><time>2026-04-12T07:08:54.576Z</time></trkpt><trkpt lat="43.0985959" lon="13.3868512"><ele>491.0</ele><time>2026-04-12T07:08:55.588Z</time></trkpt><trkpt lat="43.0986347" lon="13.3867104"><ele>491.0</ele><time>2026-04-12T07:08:56.578Z</time></trkpt><trkpt lat="43.0986642" lon="13.3865699"><ele>491.0</ele><time>2026-04-12T07:08:57.586Z</time></trkpt><trkpt lat="43.0986786" lon="13.3864317"><ele>491.0</ele><time>2026-04-12T07:08:58.577Z</time></trkpt><trkpt lat="43.0986817" lon="13.3862953"><ele>491.0</ele><time>2026-04-12T07:08:59.584Z</time></trkpt><trkpt lat="43.0986809" lon="13.3861617"><ele>491.0</ele><time>2026-04-12T07:09:00.577Z</time></trkpt><trkpt lat="43.0986803" lon="13.3860347"><ele>490.6</ele><time>2026-04-12T07:09:01.582Z</time></trkpt><trkpt lat="43.0986825" lon="13.3859134"><ele>490.20000000000005</ele><time>2026-04-12T07:09:02.582Z</time></trkpt><trkpt lat="43.0987091" lon="13.3858027"><ele>489.79999999999995</ele><time>2026-04-12T07:09:03.579Z</time></trkpt><trkpt lat="43.098774" lon="13.3857242"><ele>489.4</ele><time>2026-04-12T07:09:04.582Z</time></trkpt><trkpt lat="43.0988461" lon="13.3856712"><ele>489.0</ele><time>2026-04-12T07:09:05.576Z</time></trkpt><trkpt lat="43.0989736" lon="13.3857265"><ele>481.66666666666663</ele><time>2026-04-12T07:09:06.579Z</time></trkpt><trkpt lat="43.099122" lon="13.3858128"><ele>474.3333333333333</ele><time>2026-04-12T07:09:07.578Z</time></trkpt><trkpt lat="43.0992876" lon="13.3859033"><ele>467.0</ele><time>2026-04-12T07:09:08.583Z</time></trkpt><trkpt lat="43.0994684" lon="13.3860055"><ele>467.0</ele><time>2026-04-12T07:09:09.578Z</time></trkpt><trkpt lat="43.099643" lon="13.3860982"><ele>467.0</ele><time>2026-04-12T07:09:10.588Z</time></trkpt><trkpt lat="43.0998021" lon="13.3861722"><ele>467.0</ele><time>2026-04-12T07:09:11.58Z</time></trkpt><trkpt lat="43.0999648" lon="13.3862508"><ele>463.66666666666663</ele><time>2026-04-12T07:09:12.578Z</time></trkpt><trkpt lat="43.1001042" lon="13.3863658"><ele>460.33333333333337</ele><time>2026-04-12T07:09:13.576Z</time></trkpt><trkpt lat="43.1002298" lon="13.3865065"><ele>457.0</ele><time>2026-04-12T07:09:14.578Z</time></trkpt><trkpt lat="43.1003381" lon="13.3866641"><ele>457.0</ele><time>2026-04-12T07:09:15.585Z</time></trkpt><trkpt lat="43.1004434" lon="13.386807"><ele>457.0</ele><time>2026-04-12T07:09:16.577Z</time></trkpt><trkpt lat="43.1005589" lon="13.3869328"><ele>457.0</ele><time>2026-04-12T07:09:17.601Z</time></trkpt><trkpt lat="43.100686" lon="13.3870211"><ele>457.0</ele><time>2026-04-12T07:09:18.582Z</time></trkpt><trkpt lat="43.1008215" lon="13.3870566"><ele>457.25</ele><time>2026-04-12T07:09:19.572Z</time></trkpt><trkpt lat="43.1009553" lon="13.3870296"><ele>457.5</ele><time>2026-04-12T07:09:20.583Z</time></trkpt><trkpt lat="43.101085" lon="13.3869379"><ele>457.75</ele><time>2026-04-12T07:09:21.581Z</time></trkpt><trkpt lat="43.1011967" lon="13.3867978"><ele>458.0</ele><time>2026-04-12T07:09:22.589Z</time></trkpt><trkpt lat="43.1013089" lon="13.3866553"><ele>458.0</ele><time>2026-04-12T07:09:23.575Z</time></trkpt><trkpt lat="43.1014529" lon="13.3865562"><ele>458.0</ele><time>2026-04-12T07:09:24.581Z</time></trkpt><trkpt lat="43.1016" lon="13.386457"><ele>458.0</ele><time>2026-04-12T07:09:25.578Z</time></trkpt><trkpt lat="43.1017861" lon="13.386442"><ele>453.66666666666663</ele><time>2026-04-12T07:09:26.582Z</time></trkpt><trkpt lat="43.1019899" lon="13.3864728"><ele>449.33333333333337</ele><time>2026-04-12T07:09:27.578Z</time></trkpt><trkpt lat="43.1021753" lon="13.3865034"><ele>445.0</ele><time>2026-04-12T07:09:28.588Z</time></trkpt><trkpt lat="43.1023419" lon="13.3865276"><ele>442.5</ele><time>2026-04-12T07:09:29.579Z</time></trkpt><trkpt lat="43.1024925" lon="13.3865531"><ele>440.0</ele><time>2026-04-12T07:09:30.577Z</time></trkpt><trkpt lat="43.1026309" lon="13.3865717"><ele>437.5</ele><time>2026-04-12T07:09:31.585Z</time></trkpt><trkpt lat="43.1027634" lon="13.3865768"><ele>435.0</ele><time>2026-04-12T07:09:32.582Z</time></trkpt><trkpt lat="43.1028801" lon="13.386536"><ele>435.0</ele><time>2026-04-12T07:09:33.583Z</time></trkpt><trkpt lat="43.1029721" lon="13.3864322"><ele>435.0</ele><time>2026-04-12T07:09:34.577Z</time></trkpt><trkpt lat="43.103027" lon="13.386278"><ele>435.0</ele><time>2026-04-12T07:09:35.579Z</time></trkpt><trkpt lat="43.1030371" lon="13.3860958"><ele>435.0</ele><time>2026-04-12T07:09:36.573Z</time></trkpt><trkpt lat="43.1030196" lon="13.3859043"><ele>434.75</ele><time>2026-04-12T07:09:37.586Z</time></trkpt><trkpt lat="43.1030058" lon="13.3857188"><ele>434.5</ele><time>2026-04-12T07:09:38.581Z</time></trkpt><trkpt lat="43.1029963" lon="13.3855395"><ele>434.25</ele><time>2026-04-12T07:09:39.576Z</time></trkpt><trkpt lat="43.103004" lon="13.3853686"><ele>434.0</ele><time>2026-04-12T07:09:40.574Z</time></trkpt><trkpt lat="43.1030455" lon="13.3852138"><ele>432.5</ele><time>2026-04-12T07:09:41.571Z</time></trkpt><trkpt lat="43.103125" lon="13.3850716"><ele>431.0</ele><time>2026-04-12T07:09:42.581Z</time></trkpt><trkpt lat="43.1032369" lon="13.3849514"><ele>429.5</ele><time>2026-04-12T07:09:43.577Z</time></trkpt><trkpt lat="43.103353" lon="13.3848403"><ele>428.0</ele><time>2026-04-12T07:09:44.596Z</time></trkpt><trkpt lat="43.1034351" lon="13.3846899"><ele>425.25</ele><time>2026-04-12T07:09:45.576Z</time></trkpt><trkpt lat="43.1034818" lon="13.3844986"><ele>422.5</ele><time>2026-04-12T07:09:46.581Z</time></trkpt><trkpt lat="43.1035271" lon="13.3843199"><ele>419.75</ele><time>2026-04-12T07:09:47.578Z</time></trkpt><trkpt lat="43.1035257" lon="13.3841481"><ele>417.0</ele><time>2026-04-12T07:09:48.58Z</time></trkpt><trkpt lat="43.1035339" lon="13.3839847"><ele>413.75</ele><time>2026-04-12T07:09:49.578Z</time></trkpt><trkpt lat="43.1035726" lon="13.3838432"><ele>410.5</ele><time>2026-04-12T07:09:50.581Z</time></trkpt><trkpt lat="43.1036602" lon="13.3837431"><ele>407.25</ele><time>2026-04-12T07:09:51.573Z</time></trkpt><trkpt lat="43.1037875" lon="13.3836834"><ele>404.0</ele><time>2026-04-12T07:09:52.571Z</time></trkpt><trkpt lat="43.1039338" lon="13.38365"><ele>404.3333333333333</ele><time>2026-04-12T07:09:53.575Z</time></trkpt><trkpt lat="43.1040862" lon="13.3836147"><ele>404.66666666666663</ele><time>2026-04-12T07:09:54.578Z</time></trkpt><trkpt lat="43.1042518" lon="13.3836047"><ele>405.0</ele><time>2026-04-12T07:09:55.579Z</time></trkpt><trkpt lat="43.1044251" lon="13.3836096"><ele>405.0</ele><time>2026-04-12T07:09:56.604Z</time></trkpt><trkpt lat="43.1045996" lon="13.3835858"><ele>405.0</ele><time>2026-04-12T07:09:57.581Z</time></trkpt><trkpt lat="43.1047774" lon="13.3835129"><ele>405.0</ele><time>2026-04-12T07:09:58.581Z</time></trkpt><trkpt lat="43.1049515" lon="13.3834238"><ele>405.66666666666663</ele><time>2026-04-12T07:09:59.582Z</time></trkpt><trkpt lat="43.1051189" lon="13.3833355"><ele>406.3333333333333</ele><time>2026-04-12T07:10:00.58Z</time></trkpt><trkpt lat="43.1052833" lon="13.3832418"><ele>407.0</ele><time>2026-04-12T07:10:01.603Z</time></trkpt><trkpt lat="43.1054367" lon="13.3831354"><ele>407.0</ele><time>2026-04-12T07:10:02.579Z</time></trkpt><trkpt lat="43.1055822" lon="13.3830298"><ele>407.0</ele><time>2026-04-12T07:10:03.59Z</time></trkpt><trkpt lat="43.1057282" lon="13.3829431"><ele>407.0</ele><time>2026-04-12T07:10:04.576Z</time></trkpt><trkpt lat="43.1058727" lon="13.3828683"><ele>404.5</ele><time>2026-04-12T07:10:05.579Z</time></trkpt><trkpt lat="43.1060102" lon="13.3827768"><ele>402.0</ele><time>2026-04-12T07:10:06.578Z</time></trkpt><trkpt lat="43.1061262" lon="13.3826536"><ele>399.5</ele><time>2026-04-12T07:10:07.581Z</time></trkpt><trkpt lat="43.1062146" lon="13.3825074"><ele>397.0</ele><time>2026-04-12T07:10:08.581Z</time></trkpt><trkpt lat="43.1062864" lon="13.3823558"><ele>397.0</ele><time>2026-04-12T07:10:09.586Z</time></trkpt><trkpt lat="43.1063739" lon="13.3822389"><ele>397.0</ele><time>2026-04-12T07:10:10.575Z</time></trkpt><trkpt lat="43.1064847" lon="13.3821802"><ele>397.0</ele><time>2026-04-12T07:10:11.581Z</time></trkpt><trkpt lat="43.1066046" lon="13.3821922"><ele>397.0</ele><time>2026-04-12T07:10:12.578Z</time></trkpt><trkpt lat="43.1067158" lon="13.3822473"><ele>398.0</ele><time>2026-04-12T07:10:13.574Z</time></trkpt><trkpt lat="43.106825" lon="13.3822966"><ele>399.0</ele><time>2026-04-12T07:10:14.586Z</time></trkpt><trkpt lat="43.1069333" lon="13.3823301"><ele>400.0</ele><time>2026-04-12T07:10:15.579Z</time></trkpt><trkpt lat="43.1070551" lon="13.3822772"><ele>401.0</ele><time>2026-04-12T07:10:16.58Z</time></trkpt><trkpt lat="43.1071643" lon="13.3821685"><ele>398.25</ele><time>2026-04-12T07:10:17.581Z</time></trkpt><trkpt lat="43.1072483" lon="13.3820128"><ele>395.5</ele><time>2026-04-12T07:10:18.582Z</time></trkpt><trkpt lat="43.1073115" lon="13.3818338"><ele>392.75</ele><time>2026-04-12T07:10:19.574Z</time></trkpt><trkpt lat="43.107378" lon="13.3816502"><ele>390.0</ele><time>2026-04-12T07:10:20.58Z</time></trkpt><trkpt lat="43.1074486" lon="13.3814642"><ele>387.0</ele><time>2026-04-12T07:10:21.576Z</time></trkpt><trkpt lat="43.1075184" lon="13.3812847"><ele>384.0</ele><time>2026-04-12T07:10:22.576Z</time></trkpt><trkpt lat="43.1075825" lon="13.3811154"><ele>381.0</ele><time>2026-04-12T07:10:23.577Z</time></trkpt><trkpt lat="43.1076463" lon="13.3809666"><ele>378.0</ele><time>2026-04-12T07:10:24.582Z</time></trkpt><trkpt lat="43.1077116" lon="13.3808377"><ele>378.0</ele><time>2026-04-12T07:10:25.589Z</time></trkpt><trkpt lat="43.1077894" lon="13.3807374"><ele>378.0</ele><time>2026-04-12T07:10:26.576Z</time></trkpt><trkpt lat="43.1078821" lon="13.3806894"><ele>378.0</ele><time>2026-04-12T07:10:27.584Z</time></trkpt><trkpt lat="43.1079681" lon="13.3806675"><ele>378.0</ele><time>2026-04-12T07:10:28.58Z</time></trkpt><trkpt lat="43.1080448" lon="13.3807591"><ele>378.0</ele><time>2026-04-12T07:10:29.575Z</time></trkpt><trkpt lat="43.1081205" lon="13.3808595"><ele>378.0</ele><time>2026-04-12T07:10:30.577Z</time></trkpt><trkpt lat="43.108192" lon="13.380972"><ele>378.0</ele><time>2026-04-12T07:10:31.577Z</time></trkpt><trkpt lat="43.1082628" lon="13.381072"><ele>378.0</ele><time>2026-04-12T07:10:32.576Z</time></trkpt><trkpt lat="43.1083344" lon="13.3811515"><ele>378.0</ele><time>2026-04-12T07:10:33.586Z</time></trkpt><trkpt lat="43.1084411" lon="13.3811875"><ele>378.0</ele><time>2026-04-12T07:10:34.581Z</time></trkpt><trkpt lat="43.1085297" lon="13.3811107"><ele>378.25</ele><time>2026-04-12T07:10:35.585Z</time></trkpt><trkpt lat="43.1085884" lon="13.380973"><ele>378.5</ele><time>2026-04-12T07:10:36.575Z</time></trkpt><trkpt lat="43.1086219" lon="13.380803"><ele>378.75</ele><time>2026-04-12T07:10:37.582Z</time></trkpt><trkpt lat="43.1086322" lon="13.3806065"><ele>379.0</ele><time>2026-04-12T07:10:38.579Z</time></trkpt><trkpt lat="43.1086417" lon="13.3804105"><ele>376.0</ele><time>2026-04-12T07:10:39.574Z</time></trkpt><trkpt lat="43.1086529" lon="13.3802122"><ele>373.0</ele><time>2026-04-12T07:10:40.581Z</time></trkpt><trkpt lat="43.1086651" lon="13.3800032"><ele>370.0</ele><time>2026-04-12T07:10:41.577Z</time></trkpt><trkpt lat="43.1086785" lon="13.3797863"><ele>367.0</ele><time>2026-04-12T07:10:42.575Z</time></trkpt><trkpt lat="43.1087179" lon="13.3795492"><ele>364.0</ele><time>2026-04-12T07:10:43.582Z</time></trkpt><trkpt lat="43.1087755" lon="13.3793068"><ele>361.0</ele><time>2026-04-12T07:10:44.574Z</time></trkpt><trkpt lat="43.1088302" lon="13.3790587"><ele>359.3333333333333</ele><time>2026-04-12T07:10:45.6Z</time></trkpt><trkpt lat="43.1088858" lon="13.3788247"><ele>357.6666666666667</ele><time>2026-04-12T07:10:46.574Z</time></trkpt><trkpt lat="43.1089355" lon="13.3785985"><ele>356.0</ele><time>2026-04-12T07:10:47.581Z</time></trkpt><trkpt lat="43.1089923" lon="13.3783809"><ele>356.0</ele><time>2026-04-12T07:10:48.587Z</time></trkpt><trkpt lat="43.1090696" lon="13.3781728"><ele>356.0</ele><time>2026-04-12T07:10:49.575Z</time></trkpt><trkpt lat="43.1091762" lon="13.3779835"><ele>356.0</ele><time>2026-04-12T07:10:50.588Z</time></trkpt><trkpt lat="43.1092941" lon="13.3778212"><ele>355.6666666666667</ele><time>2026-04-12T07:10:51.583Z</time></trkpt><trkpt lat="43.1094191" lon="13.3776834"><ele>355.3333333333333</ele><time>2026-04-12T07:10:52.577Z</time></trkpt><trkpt lat="43.1095494" lon="13.3775724"><ele>355.0</ele><time>2026-04-12T07:10:53.58Z</time></trkpt><trkpt lat="43.1096777" lon="13.3774857"><ele>355.0</ele><time>2026-04-12T07:10:54.582Z</time></trkpt><trkpt lat="43.1098127" lon="13.3774281"><ele>355.0</ele><time>2026-04-12T07:10:55.584Z</time></trkpt><trkpt lat="43.1099525" lon="13.3773867"><ele>355.0</ele><time>2026-04-12T07:10:56.576Z</time></trkpt><trkpt lat="43.1100951" lon="13.3773964"><ele>355.0</ele><time>2026-04-12T07:10:57.606Z</time></trkpt><trkpt lat="43.1102194" lon="13.3774598"><ele>354.66666666666663</ele><time>2026-04-12T07:10:58.583Z</time></trkpt><trkpt lat="43.1103395" lon="13.3775595"><ele>354.3333333333333</ele><time>2026-04-12T07:10:59.574Z</time></trkpt><trkpt lat="43.1104682" lon="13.3776759"><ele>354.0</ele><time>2026-04-12T07:11:00.58Z</time></trkpt><trkpt lat="43.1106086" lon="13.3777961"><ele>353.5</ele><time>2026-04-12T07:11:01.576Z</time></trkpt><trkpt lat="43.1107445" lon="13.377914"><ele>353.0</ele><time>2026-04-12T07:11:02.587Z</time></trkpt><trkpt lat="43.1108673" lon="13.3780219"><ele>352.5</ele><time>2026-04-12T07:11:03.584Z</time></trkpt><trkpt lat="43.110985" lon="13.3781208"><ele>352.0</ele><time>2026-04-12T07:11:04.581Z</time></trkpt><trkpt lat="43.1111033" lon="13.3781928"><ele>352.0</ele><time>2026-04-12T07:11:05.577Z</time></trkpt><trkpt lat="43.1112246" lon="13.3782162"><ele>352.0</ele><time>2026-04-12T07:11:06.578Z</time></trkpt><trkpt lat="43.111347" lon="13.3781763"><ele>352.0</ele><time>2026-04-12T07:11:07.586Z</time></trkpt><trkpt lat="43.1114595" lon="13.3780676"><ele>352.0</ele><time>2026-04-12T07:11:08.58Z</time></trkpt><trkpt lat="43.1115561" lon="13.377918"><ele>348.66666666666663</ele><time>2026-04-12T07:11:09.583Z</time></trkpt><trkpt lat="43.1116529" lon="13.3777448"><ele>345.3333333333333</ele><time>2026-04-12T07:11:10.582Z</time></trkpt><trkpt lat="43.1117563" lon="13.3775599"><ele>342.0</ele><time>2026-04-12T07:11:11.58Z</time></trkpt><trkpt lat="43.1118673" lon="13.3773625"><ele>341.6666666666667</ele><time>2026-04-12T07:11:12.611Z</time></trkpt><trkpt lat="43.111984" lon="13.3771544"><ele>341.33333333333337</ele><time>2026-04-12T07:11:13.583Z</time></trkpt><trkpt lat="43.1121035" lon="13.3769378"><ele>341.0</ele><time>2026-04-12T07:11:14.583Z</time></trkpt><trkpt lat="43.1122262" lon="13.376715"><ele>341.0</ele><time>2026-04-12T07:11:15.58Z</time></trkpt><trkpt lat="43.1123521" lon="13.3764906"><ele>341.0</ele><time>2026-04-12T07:11:16.582Z</time></trkpt><trkpt lat="43.1124801" lon="13.3762622"><ele>341.0</ele><time>2026-04-12T07:11:17.582Z</time></trkpt><trkpt lat="43.1126102" lon="13.3760287"><ele>338.33333333333337</ele><time>2026-04-12T07:11:18.583Z</time></trkpt><trkpt lat="43.112742" lon="13.3757906"><ele>335.6666666666667</ele><time>2026-04-12T07:11:19.604Z</time></trkpt><trkpt lat="43.112877" lon="13.3755497"><ele>333.0</ele><time>2026-04-12T07:11:20.587Z</time></trkpt><trkpt lat="43.1130154" lon="13.3753052"><ele>331.5</ele><time>2026-04-12T07:11:21.584Z</time></trkpt><trkpt lat="43.1131556" lon="13.3750569"><ele>330.0</ele><time>2026-04-12T07:11:22.578Z</time></trkpt><trkpt lat="43.113295" lon="13.3748086"><ele>329.0</ele><time>2026-04-12T07:11:23.586Z</time></trkpt><trkpt lat="43.1134311" lon="13.3745757"><ele>328.0</ele><time>2026-04-12T07:11:24.582Z</time></trkpt><trkpt lat="43.1135578" lon="13.3743492"><ele>327.0</ele><time>2026-04-12T07:11:25.581Z</time></trkpt><trkpt lat="43.1136847" lon="13.3741294"><ele>327.0</ele><time>2026-04-12T07:11:26.583Z</time></trkpt><trkpt lat="43.1138143" lon="13.3739031"><ele>327.0</ele><time>2026-04-12T07:11:27.584Z</time></trkpt><trkpt lat="43.1139393" lon="13.3736756"><ele>327.0</ele><time>2026-04-12T07:11:28.589Z</time></trkpt><trkpt lat="43.1140647" lon="13.3734497"><ele>327.0</ele><time>2026-04-12T07:11:29.583Z</time></trkpt><trkpt lat="43.1141914" lon="13.3732293"><ele>327.0</ele><time>2026-04-12T07:11:30.586Z</time></trkpt><trkpt lat="43.1143173" lon="13.3730148"><ele>327.0</ele><time>2026-04-12T07:11:31.584Z</time></trkpt><trkpt lat="43.1144257" lon="13.3728208"><ele>328.6666666666667</ele><time>2026-04-12T07:11:32.581Z</time></trkpt><trkpt lat="43.1145248" lon="13.3726428"><ele>330.33333333333337</ele><time>2026-04-12T07:11:33.582Z</time></trkpt><trkpt lat="43.1146209" lon="13.3724732"><ele>332.0</ele><time>2026-04-12T07:11:34.587Z</time></trkpt><trkpt lat="43.1147036" lon="13.3723367"><ele>332.0</ele><time>2026-04-12T07:11:35.58Z</time></trkpt><trkpt lat="43.1147737" lon="13.372214"><ele>332.0</ele><time>2026-04-12T07:11:36.587Z</time></trkpt><trkpt lat="43.1148388" lon="13.3721062"><ele>332.0</ele><time>2026-04-12T07:11:37.578Z</time></trkpt><trkpt lat="43.114888" lon="13.372015"><ele>332.0</ele><time>2026-04-12T07:11:38.585Z</time></trkpt><trkpt lat="43.1149317" lon="13.371943"><ele>332.0</ele><time>2026-04-12T07:11:39.581Z</time></trkpt><trkpt lat="43.1149942" lon="13.3718307"><ele>334.0</ele><time>2026-04-12T07:11:41.58Z</time></trkpt><trkpt lat="43.1150656" lon="13.3716959"><ele>336.0</ele><time>2026-04-12T07:12:02.585Z</time></trkpt><trkpt lat="43.1151208" lon="13.371599"><ele>338.0</ele><time>2026-04-12T07:12:04.578Z</time></trkpt><trkpt lat="43.1151778" lon="13.3714626"><ele>340.0</ele><time>2026-04-12T07:12:06.582Z</time></trkpt><trkpt lat="43.1150969" lon="13.3713313"><ele>340.75</ele><time>2026-04-12T07:12:08.577Z</time></trkpt><trkpt lat="43.115002" lon="13.3712631"><ele>341.5</ele><time>2026-04-12T07:12:09.577Z</time></trkpt><trkpt lat="43.1148938" lon="13.3711818"><ele>342.25</ele><time>2026-04-12T07:12:10.588Z</time></trkpt><trkpt lat="43.1147717" lon="13.3710803"><ele>343.0</ele><time>2026-04-12T07:12:11.581Z</time></trkpt><trkpt lat="43.1146366" lon="13.3709747"><ele>343.0</ele><time>2026-04-12T07:12:12.581Z</time></trkpt><trkpt lat="43.1144878" lon="13.3708562"><ele>343.0</ele><time>2026-04-12T07:12:13.582Z</time></trkpt><trkpt lat="43.1143328" lon="13.3707339"><ele>343.0</ele><time>2026-04-12T07:12:14.582Z</time></trkpt><trkpt lat="43.1141676" lon="13.3706085"><ele>343.3333333333333</ele><time>2026-04-12T07:12:15.581Z</time></trkpt><trkpt lat="43.1140001" lon="13.3704808"><ele>343.6666666666667</ele><time>2026-04-12T07:12:16.584Z</time></trkpt><trkpt lat="43.1138295" lon="13.3703463"><ele>344.0</ele><time>2026-04-12T07:12:17.581Z</time></trkpt><trkpt lat="43.1136577" lon="13.3702037"><ele>344.0</ele><time>2026-04-12T07:12:18.587Z</time></trkpt><trkpt lat="43.1134843" lon="13.3700529"><ele>344.0</ele><time>2026-04-12T07:12:19.58Z</time></trkpt><trkpt lat="43.113311" lon="13.3698867"><ele>344.0</ele><time>2026-04-12T07:12:20.581Z</time></trkpt><trkpt lat="43.1131417" lon="13.369707"><ele>344.33333333333337</ele><time>2026-04-12T07:12:21.578Z</time></trkpt><trkpt lat="43.1129748" lon="13.3695146"><ele>344.6666666666667</ele><time>2026-04-12T07:12:22.588Z</time></trkpt><trkpt lat="43.1128163" lon="13.3693084"><ele>345.0</ele><time>2026-04-12T07:12:23.581Z</time></trkpt><trkpt lat="43.1126528" lon="13.3691014"><ele>345.0</ele><time>2026-04-12T07:12:24.577Z</time></trkpt><trkpt lat="43.1124879" lon="13.3688925"><ele>345.0</ele><time>2026-04-12T07:12:25.581Z</time></trkpt><trkpt lat="43.1123159" lon="13.3686861"><ele>345.5</ele><time>2026-04-12T07:12:26.578Z</time></trkpt><trkpt lat="43.112145" lon="13.3684672"><ele>346.0</ele><time>2026-04-12T07:12:27.588Z</time></trkpt><trkpt lat="43.11197" lon="13.3682495"><ele>346.5</ele><time>2026-04-12T07:12:28.586Z</time></trkpt><trkpt lat="43.1117901" lon="13.3680225"><ele>347.0</ele><time>2026-04-12T07:12:29.586Z</time></trkpt><trkpt lat="43.1116083" lon="13.3677851"><ele>346.5</ele><time>2026-04-12T07:12:30.583Z</time></trkpt><trkpt lat="43.1114184" lon="13.367544"><ele>346.0</ele><time>2026-04-12T07:12:31.588Z</time></trkpt><trkpt lat="43.1112296" lon="13.3673005"><ele>347.5</ele><time>2026-04-12T07:12:32.584Z</time></trkpt><trkpt lat="43.1110417" lon="13.3670649"><ele>349.0</ele><time>2026-04-12T07:12:33.583Z</time></trkpt><trkpt lat="43.1108639" lon="13.3668413"><ele>348.0</ele><time>2026-04-12T07:12:34.586Z</time></trkpt><trkpt lat="43.1106896" lon="13.3666183"><ele>347.0</ele><time>2026-04-12T07:12:35.601Z</time></trkpt><trkpt lat="43.110512" lon="13.3663906"><ele>348.5</ele><time>2026-04-12T07:12:36.584Z</time></trkpt><trkpt lat="43.1103301" lon="13.3661586"><ele>350.0</ele><time>2026-04-12T07:12:37.588Z</time></trkpt><trkpt lat="43.1101442" lon="13.365923"><ele>350.0</ele><time>2026-04-12T07:12:38.576Z</time></trkpt><trkpt lat="43.1099559" lon="13.3656853"><ele>350.0</ele><time>2026-04-12T07:12:39.585Z</time></trkpt><trkpt lat="43.1097633" lon="13.3654505"><ele>350.5</ele><time>2026-04-12T07:12:40.585Z</time></trkpt><trkpt lat="43.1095705" lon="13.3652114"><ele>351.0</ele><time>2026-04-12T07:12:41.579Z</time></trkpt><trkpt lat="43.1093801" lon="13.3649801"><ele>351.0</ele><time>2026-04-12T07:12:42.602Z</time></trkpt><trkpt lat="43.1091866" lon="13.3647313"><ele>351.0</ele><time>2026-04-12T07:12:43.577Z</time></trkpt><trkpt lat="43.1090028" lon="13.3644833"><ele>351.5</ele><time>2026-04-12T07:12:44.582Z</time></trkpt><trkpt lat="43.1088125" lon="13.3642425"><ele>352.0</ele><time>2026-04-12T07:12:45.578Z</time></trkpt><trkpt lat="43.108622" lon="13.3639966"><ele>352.5</ele><time>2026-04-12T07:12:46.58Z</time></trkpt><trkpt lat="43.1084333" lon="13.3637514"><ele>353.0</ele><time>2026-04-12T07:12:47.586Z</time></trkpt><trkpt lat="43.1082409" lon="13.3635055"><ele>353.0</ele><time>2026-04-12T07:12:48.582Z</time></trkpt><trkpt lat="43.1080483" lon="13.3632589"><ele>353.0</ele><time>2026-04-12T07:12:49.601Z</time></trkpt><trkpt lat="43.1078532" lon="13.3630113"><ele>353.5</ele><time>2026-04-12T07:12:50.582Z</time></trkpt><trkpt lat="43.1076585" lon="13.3627635"><ele>354.0</ele><time>2026-04-12T07:12:51.579Z</time></trkpt><trkpt lat="43.1074614" lon="13.3625163"><ele>354.5</ele><time>2026-04-12T07:12:52.586Z</time></trkpt><trkpt lat="43.1072662" lon="13.362269"><ele>355.0</ele><time>2026-04-12T07:12:53.585Z</time></trkpt><trkpt lat="43.1070702" lon="13.3620205"><ele>356.5</ele><time>2026-04-12T07:12:54.591Z</time></trkpt><trkpt lat="43.106876" lon="13.3617697"><ele>358.0</ele><time>2026-04-12T07:12:55.584Z</time></trkpt><trkpt lat="43.106682" lon="13.3615171"><ele>358.0</ele><time>2026-04-12T07:12:56.585Z</time></trkpt><trkpt lat="43.1064857" lon="13.3612699"><ele>358.0</ele><time>2026-04-12T07:12:57.594Z</time></trkpt><trkpt lat="43.1062885" lon="13.3610262"><ele>358.0</ele><time>2026-04-12T07:12:58.585Z</time></trkpt><trkpt lat="43.1060938" lon="13.3607852"><ele>358.0</ele><time>2026-04-12T07:12:59.587Z</time></trkpt><trkpt lat="43.105908" lon="13.3605387"><ele>358.5</ele><time>2026-04-12T07:13:00.583Z</time></trkpt><trkpt lat="43.105739" lon="13.3602769"><ele>359.0</ele><time>2026-04-12T07:13:01.58Z</time></trkpt><trkpt lat="43.1055886" lon="13.3599943"><ele>360.5</ele><time>2026-04-12T07:13:02.584Z</time></trkpt><trkpt lat="43.105459" lon="13.3596919"><ele>362.0</ele><time>2026-04-12T07:13:03.584Z</time></trkpt><trkpt lat="43.1053414" lon="13.3593789"><ele>362.0</ele><time>2026-04-12T07:13:04.581Z</time></trkpt><trkpt lat="43.105226" lon="13.359065"><ele>362.0</ele><time>2026-04-12T07:13:05.588Z</time></trkpt><trkpt lat="43.1051058" lon="13.358755"><ele>363.5</ele><time>2026-04-12T07:13:06.583Z</time></trkpt><trkpt lat="43.1049835" lon="13.3584498"><ele>365.0</ele><time>2026-04-12T07:13:07.585Z</time></trkpt><trkpt lat="43.1048736" lon="13.3581373"><ele>363.0</ele><time>2026-04-12T07:13:08.587Z</time></trkpt><trkpt lat="43.1047892" lon="13.3578129"><ele>361.0</ele><time>2026-04-12T07:13:09.575Z</time></trkpt><trkpt lat="43.1047378" lon="13.3574756"><ele>361.0</ele><time>2026-04-12T07:13:10.587Z</time></trkpt><trkpt lat="43.1046926" lon="13.3571491"><ele>361.0</ele><time>2026-04-12T07:13:11.58Z</time></trkpt><trkpt lat="43.1046875" lon="13.3568003"><ele>361.0</ele><time>2026-04-12T07:13:12.583Z</time></trkpt><trkpt lat="43.1046692" lon="13.3564616"><ele>361.0</ele><time>2026-04-12T07:13:13.585Z</time></trkpt><trkpt lat="43.1046307" lon="13.3561218"><ele>362.0</ele><time>2026-04-12T07:13:14.585Z</time></trkpt><trkpt lat="43.1045689" lon="13.3557843"><ele>363.0</ele><time>2026-04-12T07:13:15.582Z</time></trkpt><trkpt lat="43.104495" lon="13.3554522"><ele>365.0</ele><time>2026-04-12T07:13:16.585Z</time></trkpt><trkpt lat="43.1044046" lon="13.3551207"><ele>367.0</ele><time>2026-04-12T07:13:17.584Z</time></trkpt><trkpt lat="43.104315" lon="13.3547931"><ele>370.0</ele><time>2026-04-12T07:13:18.578Z</time></trkpt><trkpt lat="43.1042245" lon="13.3544658"><ele>373.0</ele><time>2026-04-12T07:13:19.583Z</time></trkpt><trkpt lat="43.1041338" lon="13.3541388"><ele>371.5</ele><time>2026-04-12T07:13:20.579Z</time></trkpt><trkpt lat="43.1040415" lon="13.3538118"><ele>370.0</ele><time>2026-04-12T07:13:21.585Z</time></trkpt><trkpt lat="43.103944" lon="13.3534879"><ele>370.0</ele><time>2026-04-12T07:13:22.58Z</time></trkpt><trkpt lat="43.1038359" lon="13.3531703"><ele>370.0</ele><time>2026-04-12T07:13:23.58Z</time></trkpt><trkpt lat="43.1037101" lon="13.3528635"><ele>371.5</ele><time>2026-04-12T07:13:24.582Z</time></trkpt><trkpt lat="43.1035722" lon="13.3525624"><ele>373.0</ele><time>2026-04-12T07:13:25.584Z</time></trkpt><trkpt lat="43.1034314" lon="13.3522615"><ele>374.0</ele><time>2026-04-12T07:13:26.587Z</time></trkpt><trkpt lat="43.1032985" lon="13.3519554"><ele>375.0</ele><time>2026-04-12T07:13:27.585Z</time></trkpt><trkpt lat="43.1031787" lon="13.3516361"><ele>373.5</ele><time>2026-04-12T07:13:28.607Z</time></trkpt><trkpt lat="43.1030684" lon="13.3513075"><ele>372.0</ele><time>2026-04-12T07:13:29.585Z</time></trkpt><trkpt lat="43.102961" lon="13.3509726"><ele>372.0</ele><time>2026-04-12T07:13:30.585Z</time></trkpt><trkpt lat="43.1028544" lon="13.350638"><ele>372.0</ele><time>2026-04-12T07:13:31.581Z</time></trkpt><trkpt lat="43.1027485" lon="13.3503002"><ele>372.5</ele><time>2026-04-12T07:13:32.585Z</time></trkpt><trkpt lat="43.1026422" lon="13.3499634"><ele>373.0</ele><time>2026-04-12T07:13:33.581Z</time></trkpt><trkpt lat="43.1025329" lon="13.3496267"><ele>372.0</ele><time>2026-04-12T07:13:34.581Z</time></trkpt><trkpt lat="43.1024226" lon="13.3492892"><ele>371.0</ele><time>2026-04-12T07:13:35.583Z</time></trkpt><trkpt lat="43.1023118" lon="13.3489533"><ele>371.0</ele><time>2026-04-12T07:13:36.585Z</time></trkpt><trkpt lat="43.1021978" lon="13.3486202"><ele>371.0</ele><time>2026-04-12T07:13:37.585Z</time></trkpt><trkpt lat="43.1020762" lon="13.3482944"><ele>375.0</ele><time>2026-04-12T07:13:38.584Z</time></trkpt><trkpt lat="43.1019458" lon="13.3479806"><ele>379.0</ele><time>2026-04-12T07:13:39.577Z</time></trkpt><trkpt lat="43.1018072" lon="13.3476777"><ele>379.0</ele><time>2026-04-12T07:13:40.584Z</time></trkpt><trkpt lat="43.1016646" lon="13.3473829"><ele>379.0</ele><time>2026-04-12T07:13:41.586Z</time></trkpt><trkpt lat="43.1015229" lon="13.3470933"><ele>375.5</ele><time>2026-04-12T07:13:42.579Z</time></trkpt><trkpt lat="43.101389" lon="13.3468143"><ele>372.0</ele><time>2026-04-12T07:13:43.585Z</time></trkpt><trkpt lat="43.1012626" lon="13.3465477"><ele>376.0</ele><time>2026-04-12T07:13:44.579Z</time></trkpt><trkpt lat="43.1011389" lon="13.3462853"><ele>380.0</ele><time>2026-04-12T07:13:45.581Z</time></trkpt><trkpt lat="43.1010233" lon="13.3460209"><ele>380.0</ele><time>2026-04-12T07:13:46.578Z</time></trkpt><trkpt lat="43.1009209" lon="13.3457492"><ele>380.0</ele><time>2026-04-12T07:13:47.585Z</time></trkpt><trkpt lat="43.1008324" lon="13.3454697"><ele>380.0</ele><time>2026-04-12T07:13:48.584Z</time></trkpt><trkpt lat="43.100747" lon="13.3451826"><ele>380.6666666666667</ele><time>2026-04-12T07:13:49.585Z</time></trkpt><trkpt lat="43.1006604" lon="13.3448951"><ele>381.3333333333333</ele><time>2026-04-12T07:13:50.578Z</time></trkpt><trkpt lat="43.1005793" lon="13.3446212"><ele>382.0</ele><time>2026-04-12T07:13:51.583Z</time></trkpt><trkpt lat="43.1004993" lon="13.3443665"><ele>382.0</ele><time>2026-04-12T07:13:52.58Z</time></trkpt><trkpt lat="43.1004" lon="13.3441392"><ele>382.0</ele><time>2026-04-12T07:13:53.58Z</time></trkpt><trkpt lat="43.1002705" lon="13.3439471"><ele>382.0</ele><time>2026-04-12T07:13:54.587Z</time></trkpt><trkpt lat="43.1001129" lon="13.3437962"><ele>382.0</ele><time>2026-04-12T07:13:55.586Z</time></trkpt><trkpt lat="43.0999408" lon="13.3436748"><ele>382.0</ele><time>2026-04-12T07:13:56.588Z</time></trkpt><trkpt lat="43.0997666" lon="13.3435562"><ele>382.0</ele><time>2026-04-12T07:13:57.581Z</time></trkpt><trkpt lat="43.0995926" lon="13.343435"><ele>382.0</ele><time>2026-04-12T07:13:58.586Z</time></trkpt><trkpt lat="43.0994312" lon="13.3433097"><ele>382.0</ele><time>2026-04-12T07:13:59.581Z</time></trkpt><trkpt lat="43.0992956" lon="13.3431506"><ele>382.0</ele><time>2026-04-12T07:14:00.582Z</time></trkpt><trkpt lat="43.0991887" lon="13.3429411"><ele>382.66666666666663</ele><time>2026-04-12T07:14:01.576Z</time></trkpt><trkpt lat="43.0991112" lon="13.3426908"><ele>383.3333333333333</ele><time>2026-04-12T07:14:02.581Z</time></trkpt><trkpt lat="43.0990498" lon="13.3424179"><ele>384.0</ele><time>2026-04-12T07:14:03.577Z</time></trkpt><trkpt lat="43.0989896" lon="13.3421358"><ele>381.5</ele><time>2026-04-12T07:14:04.581Z</time></trkpt><trkpt lat="43.0989256" lon="13.341845"><ele>379.0</ele><time>2026-04-12T07:14:05.579Z</time></trkpt><trkpt lat="43.0988607" lon="13.3415415"><ele>381.0</ele><time>2026-04-12T07:14:06.577Z</time></trkpt><trkpt lat="43.0987945" lon="13.3412315"><ele>383.0</ele><time>2026-04-12T07:14:07.581Z</time></trkpt><trkpt lat="43.0987313" lon="13.3409183"><ele>383.0</ele><time>2026-04-12T07:14:08.575Z</time></trkpt><trkpt lat="43.0986811" lon="13.340602"><ele>383.0</ele><time>2026-04-12T07:14:09.589Z</time></trkpt><trkpt lat="43.0986583" lon="13.3402812"><ele>383.5</ele><time>2026-04-12T07:14:10.586Z</time></trkpt><trkpt lat="43.0986575" lon="13.3399598"><ele>384.0</ele><time>2026-04-12T07:14:11.588Z</time></trkpt><trkpt lat="43.0986632" lon="13.339636"><ele>384.0</ele><time>2026-04-12T07:14:12.58Z</time></trkpt><trkpt lat="43.0986681" lon="13.3393126"><ele>384.0</ele><time>2026-04-12T07:14:13.582Z</time></trkpt><trkpt lat="43.0986654" lon="13.3389902"><ele>385.5</ele><time>2026-04-12T07:14:14.579Z</time></trkpt><trkpt lat="43.0986445" lon="13.3386703"><ele>387.0</ele><time>2026-04-12T07:14:15.58Z</time></trkpt><trkpt lat="43.0986009" lon="13.338354"><ele>388.5</ele><time>2026-04-12T07:14:16.584Z</time></trkpt><trkpt lat="43.0985297" lon="13.3380434"><ele>390.0</ele><time>2026-04-12T07:14:17.579Z</time></trkpt><trkpt lat="43.0984309" lon="13.3377427"><ele>390.0</ele><time>2026-04-12T07:14:18.6Z</time></trkpt><trkpt lat="43.0983104" lon="13.3374528"><ele>390.0</ele><time>2026-04-12T07:14:19.577Z</time></trkpt><trkpt lat="43.0981781" lon="13.3371794"><ele>389.33333333333337</ele><time>2026-04-12T07:14:20.579Z</time></trkpt><trkpt lat="43.0980511" lon="13.3369239"><ele>388.6666666666667</ele><time>2026-04-12T07:14:21.583Z</time></trkpt><trkpt lat="43.0979452" lon="13.3366585"><ele>388.0</ele><time>2026-04-12T07:14:22.579Z</time></trkpt><trkpt lat="43.0978679" lon="13.3363708"><ele>388.0</ele><time>2026-04-12T07:14:23.578Z</time></trkpt><trkpt lat="43.0978201" lon="13.3360695"><ele>388.0</ele><time>2026-04-12T07:14:24.579Z</time></trkpt><trkpt lat="43.0978031" lon="13.335756"><ele>388.0</ele><time>2026-04-12T07:14:25.58Z</time></trkpt><trkpt lat="43.0978084" lon="13.3354382"><ele>388.0</ele><time>2026-04-12T07:14:26.581Z</time></trkpt><trkpt lat="43.0978163" lon="13.3351306"><ele>388.0</ele><time>2026-04-12T07:14:27.585Z</time></trkpt><trkpt lat="43.097812" lon="13.3348411"><ele>388.0</ele><time>2026-04-12T07:14:28.578Z</time></trkpt><trkpt lat="43.0977893" lon="13.3345661"><ele>388.0</ele><time>2026-04-12T07:14:29.581Z</time></trkpt><trkpt lat="43.0977643" lon="13.3343166"><ele>388.0</ele><time>2026-04-12T07:14:30.578Z</time></trkpt><trkpt lat="43.0976643" lon="13.3340745"><ele>388.0</ele><time>2026-04-12T07:14:31.579Z</time></trkpt><trkpt lat="43.0975385" lon="13.3338593"><ele>388.0</ele><time>2026-04-12T07:14:32.579Z</time></trkpt><trkpt lat="43.097396" lon="13.3336553"><ele>388.0</ele><time>2026-04-12T07:14:33.579Z</time></trkpt><trkpt lat="43.0972556" lon="13.3334315"><ele>388.0</ele><time>2026-04-12T07:14:34.578Z</time></trkpt><trkpt lat="43.0971343" lon="13.3331739"><ele>388.0</ele><time>2026-04-12T07:14:35.578Z</time></trkpt><trkpt lat="43.0970116" lon="13.3329073"><ele>389.0</ele><time>2026-04-12T07:14:36.58Z</time></trkpt><trkpt lat="43.0969286" lon="13.3325987"><ele>390.0</ele><time>2026-04-12T07:14:37.579Z</time></trkpt><trkpt lat="43.0968565" lon="13.3322773"><ele>391.0</ele><time>2026-04-12T07:14:38.577Z</time></trkpt><trkpt lat="43.0967855" lon="13.3319558"><ele>392.0</ele><time>2026-04-12T07:14:39.593Z</time></trkpt><trkpt lat="43.0967104" lon="13.3316343"><ele>392.5</ele><time>2026-04-12T07:14:40.578Z</time></trkpt><trkpt lat="43.0966338" lon="13.3313093"><ele>393.0</ele><time>2026-04-12T07:14:41.577Z</time></trkpt><trkpt lat="43.0965568" lon="13.3309787"><ele>393.0</ele><time>2026-04-12T07:14:42.578Z</time></trkpt><trkpt lat="43.0964782" lon="13.3306458"><ele>393.0</ele><time>2026-04-12T07:14:43.583Z</time></trkpt><trkpt lat="43.0964012" lon="13.3303099"><ele>393.0</ele><time>2026-04-12T07:14:44.579Z</time></trkpt><trkpt lat="43.0963245" lon="13.3299721"><ele>393.0</ele><time>2026-04-12T07:14:45.582Z</time></trkpt><trkpt lat="43.0962477" lon="13.3296334"><ele>393.0</ele><time>2026-04-12T07:14:46.575Z</time></trkpt><trkpt lat="43.096169" lon="13.3292915"><ele>393.0</ele><time>2026-04-12T07:14:47.574Z</time></trkpt><trkpt lat="43.0960922" lon="13.3289506"><ele>394.0</ele><time>2026-04-12T07:14:48.578Z</time></trkpt><trkpt lat="43.0960125" lon="13.328609"><ele>395.0</ele><time>2026-04-12T07:14:49.58Z</time></trkpt><trkpt lat="43.0959339" lon="13.3282674"><ele>397.5</ele><time>2026-04-12T07:14:50.578Z</time></trkpt><trkpt lat="43.0958555" lon="13.3279268"><ele>400.0</ele><time>2026-04-12T07:14:51.582Z</time></trkpt><trkpt lat="43.0957756" lon="13.3275853"><ele>399.5</ele><time>2026-04-12T07:14:52.582Z</time></trkpt><trkpt lat="43.095697" lon="13.3272424"><ele>399.0</ele><time>2026-04-12T07:14:53.58Z</time></trkpt><trkpt lat="43.0956153" lon="13.3268994"><ele>399.0</ele><time>2026-04-12T07:14:54.582Z</time></trkpt><trkpt lat="43.095534" lon="13.3265575"><ele>399.0</ele><time>2026-04-12T07:14:55.583Z</time></trkpt><trkpt lat="43.0954526" lon="13.3262145"><ele>399.0</ele><time>2026-04-12T07:14:56.575Z</time></trkpt><trkpt lat="43.0953722" lon="13.3258696"><ele>399.0</ele><time>2026-04-12T07:14:57.581Z</time></trkpt><trkpt lat="43.0952942" lon="13.3255276"><ele>399.5</ele><time>2026-04-12T07:14:58.579Z</time></trkpt><trkpt lat="43.0952063" lon="13.3251924"><ele>400.0</ele><time>2026-04-12T07:14:59.583Z</time></trkpt><trkpt lat="43.0951002" lon="13.3248658"><ele>399.5</ele><time>2026-04-12T07:15:00.582Z</time></trkpt><trkpt lat="43.0949771" lon="13.3245492"><ele>399.0</ele><time>2026-04-12T07:15:01.575Z</time></trkpt><trkpt lat="43.0948429" lon="13.3242378"><ele>399.0</ele><time>2026-04-12T07:15:02.575Z</time></trkpt><trkpt lat="43.0947047" lon="13.3239279"><ele>399.0</ele><time>2026-04-12T07:15:03.581Z</time></trkpt><trkpt lat="43.0945658" lon="13.3236165"><ele>399.5</ele><time>2026-04-12T07:15:04.583Z</time></trkpt><trkpt lat="43.0944276" lon="13.3233052"><ele>400.0</ele><time>2026-04-12T07:15:05.583Z</time></trkpt><trkpt lat="43.0942903" lon="13.3229944"><ele>401.0</ele><time>2026-04-12T07:15:06.601Z</time></trkpt><trkpt lat="43.0941534" lon="13.3226839"><ele>402.0</ele><time>2026-04-12T07:15:07.578Z</time></trkpt><trkpt lat="43.0940167" lon="13.3223746"><ele>401.5</ele><time>2026-04-12T07:15:08.581Z</time></trkpt><trkpt lat="43.093877" lon="13.3220658"><ele>401.0</ele><time>2026-04-12T07:15:09.579Z</time></trkpt><trkpt lat="43.0937344" lon="13.3217537"><ele>401.0</ele><time>2026-04-12T07:15:10.576Z</time></trkpt><trkpt lat="43.0935905" lon="13.3214367"><ele>401.0</ele><time>2026-04-12T07:15:11.584Z</time></trkpt><trkpt lat="43.0934568" lon="13.3211302"><ele>401.5</ele><time>2026-04-12T07:15:12.58Z</time></trkpt><trkpt lat="43.0933364" lon="13.3208419"><ele>402.0</ele><time>2026-04-12T07:15:13.582Z</time></trkpt><trkpt lat="43.0932155" lon="13.3205529"><ele>404.5</ele><time>2026-04-12T07:15:14.582Z</time></trkpt><trkpt lat="43.0930886" lon="13.3202535"><ele>407.0</ele><time>2026-04-12T07:15:15.582Z</time></trkpt><trkpt lat="43.0929621" lon="13.3199435"><ele>408.5</ele><time>2026-04-12T07:15:16.579Z</time></trkpt><trkpt lat="43.0928381" lon="13.3196252"><ele>410.0</ele><time>2026-04-12T07:15:17.579Z</time></trkpt><trkpt lat="43.0927153" lon="13.3192996"><ele>410.0</ele><time>2026-04-12T07:15:18.578Z</time></trkpt><trkpt lat="43.0925898" lon="13.3189715"><ele>410.0</ele><time>2026-04-12T07:15:19.58Z</time></trkpt><trkpt lat="43.0924634" lon="13.3186416"><ele>410.5</ele><time>2026-04-12T07:15:20.578Z</time></trkpt><trkpt lat="43.092335" lon="13.3183108"><ele>411.0</ele><time>2026-04-12T07:15:21.582Z</time></trkpt><trkpt lat="43.0922049" lon="13.3179808"><ele>411.5</ele><time>2026-04-12T07:15:22.578Z</time></trkpt><trkpt lat="43.0920709" lon="13.3176499"><ele>412.0</ele><time>2026-04-12T07:15:23.578Z</time></trkpt><trkpt lat="43.0919344" lon="13.3173191"><ele>413.0</ele><time>2026-04-12T07:15:24.584Z</time></trkpt><trkpt lat="43.091796" lon="13.3169868"><ele>414.0</ele><time>2026-04-12T07:15:25.577Z</time></trkpt><trkpt lat="43.0916573" lon="13.3166524"><ele>413.0</ele><time>2026-04-12T07:15:26.581Z</time></trkpt><trkpt lat="43.0915199" lon="13.3163163"><ele>412.0</ele><time>2026-04-12T07:15:27.581Z</time></trkpt><trkpt lat="43.0913827" lon="13.3159794"><ele>412.0</ele><time>2026-04-12T07:15:28.583Z</time></trkpt><trkpt lat="43.0912458" lon="13.3156429"><ele>412.0</ele><time>2026-04-12T07:15:29.583Z</time></trkpt><trkpt lat="43.0911084" lon="13.3153066"><ele>413.0</ele><time>2026-04-12T07:15:30.579Z</time></trkpt><trkpt lat="43.0909696" lon="13.3149689"><ele>414.0</ele><time>2026-04-12T07:15:31.58Z</time></trkpt><trkpt lat="43.0908302" lon="13.3146284"><ele>413.5</ele><time>2026-04-12T07:15:32.578Z</time></trkpt><trkpt lat="43.0906889" lon="13.314285"><ele>413.0</ele><time>2026-04-12T07:15:33.577Z</time></trkpt><trkpt lat="43.0905464" lon="13.3139388"><ele>414.0</ele><time>2026-04-12T07:15:34.583Z</time></trkpt><trkpt lat="43.0904033" lon="13.3135928"><ele>415.0</ele><time>2026-04-12T07:15:35.579Z</time></trkpt><trkpt lat="43.0902599" lon="13.3132479"><ele>415.5</ele><time>2026-04-12T07:15:36.572Z</time></trkpt><trkpt lat="43.0901169" lon="13.3129032"><ele>416.0</ele><time>2026-04-12T07:15:37.577Z</time></trkpt><trkpt lat="43.089975" lon="13.3125599"><ele>416.5</ele><time>2026-04-12T07:15:38.578Z</time></trkpt><trkpt lat="43.0898337" lon="13.3122184"><ele>417.0</ele><time>2026-04-12T07:15:39.577Z</time></trkpt><trkpt lat="43.0896937" lon="13.3118786"><ele>417.0</ele><time>2026-04-12T07:15:40.574Z</time></trkpt><trkpt lat="43.0895549" lon="13.3115428"><ele>417.0</ele><time>2026-04-12T07:15:41.587Z</time></trkpt><trkpt lat="43.0894187" lon="13.3112124"><ele>417.5</ele><time>2026-04-12T07:15:42.579Z</time></trkpt><trkpt lat="43.0892909" lon="13.310902"><ele>418.0</ele><time>2026-04-12T07:15:43.583Z</time></trkpt><trkpt lat="43.089171" lon="13.3106118"><ele>419.0</ele><time>2026-04-12T07:15:44.579Z</time></trkpt><trkpt lat="43.0890588" lon="13.310342"><ele>420.0</ele><time>2026-04-12T07:15:45.582Z</time></trkpt><trkpt lat="43.0889535" lon="13.3100887"><ele>421.0</ele><time>2026-04-12T07:15:46.579Z</time></trkpt><trkpt lat="43.0888581" lon="13.3098583"><ele>421.5</ele><time>2026-04-12T07:15:47.58Z</time></trkpt><trkpt lat="43.0887734" lon="13.3096548"><ele>422.0</ele><time>2026-04-12T07:15:48.577Z</time></trkpt><trkpt lat="43.0887007" lon="13.3094803"><ele>422.5</ele><time>2026-04-12T07:15:49.581Z</time></trkpt><trkpt lat="43.0886408" lon="13.3093274"><ele>423.0</ele><time>2026-04-12T07:15:50.583Z</time></trkpt><trkpt lat="43.0886001" lon="13.3091895"><ele>423.0</ele><time>2026-04-12T07:15:51.58Z</time></trkpt><trkpt lat="43.0885826" lon="13.3090606"><ele>423.0</ele><time>2026-04-12T07:15:52.583Z</time></trkpt><trkpt lat="43.0885845" lon="13.3089494"><ele>423.0</ele><time>2026-04-12T07:15:53.581Z</time></trkpt><trkpt lat="43.0886034" lon="13.3088502"><ele>423.0</ele><time>2026-04-12T07:15:54.588Z</time></trkpt><trkpt lat="43.0886269" lon="13.3087699"><ele>423.0</ele><time>2026-04-12T07:15:55.579Z</time></trkpt><trkpt lat="43.0886494" lon="13.3086588"><ele>423.0</ele><time>2026-04-12T07:15:57.578Z</time></trkpt><trkpt lat="43.0886219" lon="13.3085701"><ele>423.2</ele><time>2026-04-12T07:15:59.585Z</time></trkpt><trkpt lat="43.0885337" lon="13.3085596"><ele>423.4</ele><time>2026-04-12T07:20:46.576Z</time></trkpt><trkpt lat="43.0884386" lon="13.3085401"><ele>423.59999999999997</ele><time>2026-04-12T07:20:48.577Z</time></trkpt><trkpt lat="43.088349" lon="13.3085136"><ele>423.79999999999995</ele><time>2026-04-12T07:20:50.596Z</time></trkpt><trkpt lat="43.0882851" lon="13.3084685"><ele>424.0</ele><time>2026-04-12T07:20:52.576Z</time></trkpt><trkpt lat="43.0882031" lon="13.3083168"><ele>424.0</ele><time>2026-04-12T07:20:54.578Z</time></trkpt><trkpt lat="43.0881596" lon="13.308206"><ele>424.0</ele><time>2026-04-12T07:20:55.609Z</time></trkpt><trkpt lat="43.0881132" lon="13.3080903"><ele>424.0</ele><time>2026-04-12T07:20:56.573Z</time></trkpt><trkpt lat="43.0880641" lon="13.3079683"><ele>424.0</ele><time>2026-04-12T07:20:57.576Z</time></trkpt><trkpt lat="43.0880131" lon="13.307842"><ele>424.0</ele><time>2026-04-12T07:20:58.584Z</time></trkpt><trkpt lat="43.0879628" lon="13.3077178"><ele>424.00000000000006</ele><time>2026-04-12T07:20:59.58Z</time></trkpt><trkpt lat="43.0879177" lon="13.3076057"><ele>424.0</ele><time>2026-04-12T07:21:00.58Z</time></trkpt><trkpt lat="43.0878786" lon="13.3075065"><ele>424.0</ele><time>2026-04-12T07:21:01.577Z</time></trkpt><trkpt lat="43.0878443" lon="13.3074198"><ele>424.0</ele><time>2026-04-12T07:21:02.577Z</time></trkpt><trkpt lat="43.0878117" lon="13.3073394"><ele>424.00000000000006</ele><time>2026-04-12T07:21:03.577Z</time></trkpt><trkpt lat="43.0877802" lon="13.3072641"><ele>424.0</ele><time>2026-04-12T07:21:04.574Z</time></trkpt><trkpt lat="43.0877413" lon="13.30717"><ele>424.25</ele><time>2026-04-12T07:21:05.583Z</time></trkpt><trkpt lat="43.0876913" lon="13.3070511"><ele>424.5</ele><time>2026-04-12T07:21:06.577Z</time></trkpt><trkpt lat="43.0876356" lon="13.3069187"><ele>424.75</ele><time>2026-04-12T07:21:07.606Z</time></trkpt><trkpt lat="43.0875738" lon="13.3067703"><ele>425.0</ele><time>2026-04-12T07:21:08.575Z</time></trkpt><trkpt lat="43.0875047" lon="13.3066044"><ele>425.0</ele><time>2026-04-12T07:21:09.58Z</time></trkpt><trkpt lat="43.0874293" lon="13.3064241"><ele>425.0</ele><time>2026-04-12T07:21:10.582Z</time></trkpt><trkpt lat="43.0873465" lon="13.3062225"><ele>425.0</ele><time>2026-04-12T07:21:11.582Z</time></trkpt><trkpt lat="43.0872577" lon="13.3060074"><ele>424.3333333333333</ele><time>2026-04-12T07:21:12.578Z</time></trkpt><trkpt lat="43.0871637" lon="13.3057772"><ele>423.66666666666663</ele><time>2026-04-12T07:21:13.578Z</time></trkpt><trkpt lat="43.0870641" lon="13.3055355"><ele>423.0</ele><time>2026-04-12T07:21:14.581Z</time></trkpt><trkpt lat="43.0869606" lon="13.3052832"><ele>424.33333333333337</ele><time>2026-04-12T07:21:15.581Z</time></trkpt><trkpt lat="43.0868546" lon="13.3050242"><ele>425.6666666666667</ele><time>2026-04-12T07:21:16.581Z</time></trkpt><trkpt lat="43.0867461" lon="13.3047597"><ele>427.0</ele><time>2026-04-12T07:21:17.578Z</time></trkpt><trkpt lat="43.0866348" lon="13.3044906"><ele>426.0</ele><time>2026-04-12T07:21:18.576Z</time></trkpt><trkpt lat="43.0865224" lon="13.304218"><ele>425.0</ele><time>2026-04-12T07:21:19.575Z</time></trkpt><trkpt lat="43.0864092" lon="13.303942"><ele>426.5</ele><time>2026-04-12T07:21:20.584Z</time></trkpt><trkpt lat="43.0862945" lon="13.3036634"><ele>428.0</ele><time>2026-04-12T07:21:21.576Z</time></trkpt><trkpt lat="43.0861772" lon="13.3033829"><ele>428.0</ele><time>2026-04-12T07:21:22.574Z</time></trkpt><trkpt lat="43.0860589" lon="13.3031001"><ele>428.0</ele><time>2026-04-12T07:21:23.576Z</time></trkpt><trkpt lat="43.0859404" lon="13.3028139"><ele>430.0</ele><time>2026-04-12T07:21:24.583Z</time></trkpt><trkpt lat="43.0858222" lon="13.3025252"><ele>432.0</ele><time>2026-04-12T07:21:25.581Z</time></trkpt><trkpt lat="43.0857045" lon="13.3022337"><ele>432.0</ele><time>2026-04-12T07:21:26.602Z</time></trkpt><trkpt lat="43.085587" lon="13.3019401"><ele>432.0</ele><time>2026-04-12T07:21:27.579Z</time></trkpt><trkpt lat="43.0854665" lon="13.3016471"><ele>433.5</ele><time>2026-04-12T07:21:28.577Z</time></trkpt><trkpt lat="43.0853493" lon="13.3013673"><ele>435.0</ele><time>2026-04-12T07:21:29.574Z</time></trkpt><trkpt lat="43.0852278" lon="13.3010763"><ele>435.0</ele><time>2026-04-12T07:21:30.578Z</time></trkpt><trkpt lat="43.0851081" lon="13.3007828"><ele>435.0</ele><time>2026-04-12T07:21:31.578Z</time></trkpt><trkpt lat="43.0849889" lon="13.3004872"><ele>433.5</ele><time>2026-04-12T07:21:32.579Z</time></trkpt><trkpt lat="43.0848686" lon="13.3001919"><ele>432.0</ele><time>2026-04-12T07:21:33.576Z</time></trkpt><trkpt lat="43.0847495" lon="13.2998955"><ele>434.0</ele><time>2026-04-12T07:21:34.575Z</time></trkpt><trkpt lat="43.0846298" lon="13.2995991"><ele>436.0</ele><time>2026-04-12T07:21:35.577Z</time></trkpt><trkpt lat="43.0845052" lon="13.2993015"><ele>436.0</ele><time>2026-04-12T07:21:36.578Z</time></trkpt><trkpt lat="43.0843806" lon="13.299001"><ele>436.0</ele><time>2026-04-12T07:21:37.579Z</time></trkpt><trkpt lat="43.0842537" lon="13.2986969"><ele>436.5</ele><time>2026-04-12T07:21:38.581Z</time></trkpt><trkpt lat="43.0841262" lon="13.2983911"><ele>437.0</ele><time>2026-04-12T07:21:39.581Z</time></trkpt><trkpt lat="43.0839986" lon="13.2980817"><ele>437.0</ele><time>2026-04-12T07:21:40.579Z</time></trkpt><trkpt lat="43.0838723" lon="13.2977709"><ele>437.0</ele><time>2026-04-12T07:21:41.578Z</time></trkpt><trkpt lat="43.0837449" lon="13.2974597"><ele>437.0</ele><time>2026-04-12T07:21:42.577Z</time></trkpt><trkpt lat="43.0836169" lon="13.2971482"><ele>437.0</ele><time>2026-04-12T07:21:43.574Z</time></trkpt><trkpt lat="43.0834888" lon="13.2968379"><ele>437.0</ele><time>2026-04-12T07:21:44.585Z</time></trkpt><trkpt lat="43.083361" lon="13.2965281"><ele>437.0</ele><time>2026-04-12T07:21:45.578Z</time></trkpt><trkpt lat="43.0832331" lon="13.2962187"><ele>439.5</ele><time>2026-04-12T07:21:46.576Z</time></trkpt><trkpt lat="43.0831057" lon="13.2959114"><ele>442.0</ele><time>2026-04-12T07:21:47.576Z</time></trkpt><trkpt lat="43.0829777" lon="13.2956038"><ele>443.5</ele><time>2026-04-12T07:21:48.582Z</time></trkpt><trkpt lat="43.0828506" lon="13.2952977"><ele>445.0</ele><time>2026-04-12T07:21:49.577Z</time></trkpt><trkpt lat="43.0827242" lon="13.29499"><ele>446.0</ele><time>2026-04-12T07:21:50.581Z</time></trkpt><trkpt lat="43.0825996" lon="13.2946819"><ele>447.0</ele><time>2026-04-12T07:21:51.579Z</time></trkpt><trkpt lat="43.0824728" lon="13.2943722"><ele>445.5</ele><time>2026-04-12T07:21:52.575Z</time></trkpt><trkpt lat="43.0823446" lon="13.2940588"><ele>444.0</ele><time>2026-04-12T07:21:53.577Z</time></trkpt><trkpt lat="43.0822143" lon="13.2937424"><ele>444.0</ele><time>2026-04-12T07:21:54.574Z</time></trkpt><trkpt lat="43.0820825" lon="13.2934251"><ele>444.0</ele><time>2026-04-12T07:21:55.581Z</time></trkpt><trkpt lat="43.0819495" lon="13.2931066"><ele>445.0</ele><time>2026-04-12T07:21:56.576Z</time></trkpt><trkpt lat="43.0818167" lon="13.2927866"><ele>446.0</ele><time>2026-04-12T07:21:57.575Z</time></trkpt><trkpt lat="43.0816827" lon="13.2924646"><ele>446.5</ele><time>2026-04-12T07:21:58.574Z</time></trkpt><trkpt lat="43.081551" lon="13.292143"><ele>447.0</ele><time>2026-04-12T07:21:59.58Z</time></trkpt><trkpt lat="43.0814203" lon="13.2918223"><ele>447.0</ele><time>2026-04-12T07:22:00.574Z</time></trkpt><trkpt lat="43.0812891" lon="13.2915025"><ele>447.0</ele><time>2026-04-12T07:22:01.577Z</time></trkpt><trkpt lat="43.0811577" lon="13.291184"><ele>447.5</ele><time>2026-04-12T07:22:02.582Z</time></trkpt><trkpt lat="43.0810262" lon="13.2908648"><ele>448.0</ele><time>2026-04-12T07:22:03.576Z</time></trkpt><trkpt lat="43.0808948" lon="13.2905446"><ele>447.0</ele><time>2026-04-12T07:22:04.587Z</time></trkpt><trkpt lat="43.0807622" lon="13.2902228"><ele>446.0</ele><time>2026-04-12T07:22:05.576Z</time></trkpt><trkpt lat="43.0806287" lon="13.2898985"><ele>447.5</ele><time>2026-04-12T07:22:06.58Z</time></trkpt><trkpt lat="43.0804928" lon="13.2895692"><ele>449.0</ele><time>2026-04-12T07:22:07.58Z</time></trkpt><trkpt lat="43.0803555" lon="13.289237"><ele>450.0</ele><time>2026-04-12T07:22:08.583Z</time></trkpt><trkpt lat="43.080216" lon="13.2889028"><ele>451.0</ele><time>2026-04-12T07:22:09.577Z</time></trkpt><trkpt lat="43.0800761" lon="13.2885667"><ele>451.0</ele><time>2026-04-12T07:22:10.579Z</time></trkpt><trkpt lat="43.0799375" lon="13.2882294"><ele>451.0</ele><time>2026-04-12T07:22:11.58Z</time></trkpt><trkpt lat="43.0797996" lon="13.2878919"><ele>451.5</ele><time>2026-04-12T07:22:12.578Z</time></trkpt><trkpt lat="43.0796619" lon="13.2875538"><ele>452.0</ele><time>2026-04-12T07:22:13.586Z</time></trkpt><trkpt lat="43.0795227" lon="13.2872158"><ele>454.0</ele><time>2026-04-12T07:22:14.578Z</time></trkpt><trkpt lat="43.0793829" lon="13.2868788"><ele>456.0</ele><time>2026-04-12T07:22:15.581Z</time></trkpt><trkpt lat="43.0792436" lon="13.2865414"><ele>456.5</ele><time>2026-04-12T07:22:16.576Z</time></trkpt><trkpt lat="43.0791057" lon="13.2862032"><ele>457.0</ele><time>2026-04-12T07:22:17.579Z</time></trkpt><trkpt lat="43.0789674" lon="13.2858662"><ele>457.5</ele><time>2026-04-12T07:22:18.579Z</time></trkpt><trkpt lat="43.0788286" lon="13.2855307"><ele>458.0</ele><time>2026-04-12T07:22:19.581Z</time></trkpt><trkpt lat="43.0786907" lon="13.2851966"><ele>458.0</ele><time>2026-04-12T07:22:20.575Z</time></trkpt><trkpt lat="43.0785532" lon="13.2848642"><ele>458.0</ele><time>2026-04-12T07:22:21.58Z</time></trkpt><trkpt lat="43.0784168" lon="13.2845338"><ele>458.0</ele><time>2026-04-12T07:22:22.577Z</time></trkpt><trkpt lat="43.0782812" lon="13.2842061"><ele>458.0</ele><time>2026-04-12T07:22:23.58Z</time></trkpt><trkpt lat="43.0781467" lon="13.2838821"><ele>460.5</ele><time>2026-04-12T07:22:24.582Z</time></trkpt><trkpt lat="43.078014" lon="13.2835612"><ele>463.0</ele><time>2026-04-12T07:22:25.579Z</time></trkpt><trkpt lat="43.0778826" lon="13.2832414"><ele>462.0</ele><time>2026-04-12T07:22:26.579Z</time></trkpt><trkpt lat="43.0777513" lon="13.2829225"><ele>461.0</ele><time>2026-04-12T07:22:27.586Z</time></trkpt><trkpt lat="43.077621" lon="13.2826038"><ele>461.0</ele><time>2026-04-12T07:22:28.581Z</time></trkpt><trkpt lat="43.07749" lon="13.2822868"><ele>461.0</ele><time>2026-04-12T07:22:29.575Z</time></trkpt><trkpt lat="43.0773593" lon="13.2819736"><ele>462.5</ele><time>2026-04-12T07:22:30.577Z</time></trkpt><trkpt lat="43.0772337" lon="13.2816723"><ele>464.0</ele><time>2026-04-12T07:22:31.583Z</time></trkpt><trkpt lat="43.0771151" lon="13.2813854"><ele>464.3333333333333</ele><time>2026-04-12T07:22:32.582Z</time></trkpt><trkpt lat="43.0770045" lon="13.2811157"><ele>464.66666666666663</ele><time>2026-04-12T07:22:33.581Z</time></trkpt><trkpt lat="43.0769005" lon="13.2808635"><ele>465.0</ele><time>2026-04-12T07:22:34.582Z</time></trkpt><trkpt lat="43.0768035" lon="13.2806338"><ele>465.33333333333337</ele><time>2026-04-12T07:22:35.578Z</time></trkpt><trkpt lat="43.0767131" lon="13.2804279"><ele>465.6666666666667</ele><time>2026-04-12T07:22:36.581Z</time></trkpt><trkpt lat="43.0766294" lon="13.280247"><ele>466.0</ele><time>2026-04-12T07:22:37.579Z</time></trkpt><trkpt lat="43.0765521" lon="13.2800861"><ele>466.0</ele><time>2026-04-12T07:22:38.584Z</time></trkpt><trkpt lat="43.0764879" lon="13.2799356"><ele>466.0</ele><time>2026-04-12T07:22:39.577Z</time></trkpt><trkpt lat="43.0764464" lon="13.27978"><ele>466.0</ele><time>2026-04-12T07:22:40.579Z</time></trkpt><trkpt lat="43.0764429" lon="13.2796272"><ele>466.0</ele><time>2026-04-12T07:22:41.577Z</time></trkpt><trkpt lat="43.0764828" lon="13.2794911"><ele>466.0</ele><time>2026-04-12T07:22:42.577Z</time></trkpt><trkpt lat="43.0765586" lon="13.2793635"><ele>466.0</ele><time>2026-04-12T07:22:43.575Z</time></trkpt><trkpt lat="43.076653" lon="13.2792238"><ele>466.0</ele><time>2026-04-12T07:22:44.58Z</time></trkpt><trkpt lat="43.0767565" lon="13.2790696"><ele>466.0</ele><time>2026-04-12T07:22:45.581Z</time></trkpt><trkpt lat="43.0768699" lon="13.2788996"><ele>467.33333333333337</ele><time>2026-04-12T07:22:46.578Z</time></trkpt><trkpt lat="43.0769911" lon="13.2787171"><ele>468.66666666666663</ele><time>2026-04-12T07:22:47.584Z</time></trkpt><trkpt lat="43.0771212" lon="13.2785223"><ele>470.0</ele><time>2026-04-12T07:22:48.574Z</time></trkpt><trkpt lat="43.077259" lon="13.2783163"><ele>470.3333333333333</ele><time>2026-04-12T07:22:49.6Z</time></trkpt><trkpt lat="43.0774034" lon="13.2781007"><ele>470.66666666666663</ele><time>2026-04-12T07:22:50.576Z</time></trkpt><trkpt lat="43.0775525" lon="13.277877"><ele>471.0</ele><time>2026-04-12T07:22:51.579Z</time></trkpt><trkpt lat="43.0777058" lon="13.2776454"><ele>469.5</ele><time>2026-04-12T07:22:52.576Z</time></trkpt><trkpt lat="43.0778625" lon="13.2774077"><ele>468.0</ele><time>2026-04-12T07:22:53.581Z</time></trkpt><trkpt lat="43.0780202" lon="13.277172"><ele>468.0</ele><time>2026-04-12T07:22:54.575Z</time></trkpt><trkpt lat="43.0781695" lon="13.2769493"><ele>468.0</ele><time>2026-04-12T07:22:55.578Z</time></trkpt><trkpt lat="43.0783142" lon="13.2767331"><ele>468.0</ele><time>2026-04-12T07:22:56.582Z</time></trkpt><trkpt lat="43.0784597" lon="13.2765168"><ele>468.0</ele><time>2026-04-12T07:22:57.582Z</time></trkpt><trkpt lat="43.0786092" lon="13.2762927"><ele>468.0</ele><time>2026-04-12T07:22:58.578Z</time></trkpt><trkpt lat="43.0787638" lon="13.2760611"><ele>468.0</ele><time>2026-04-12T07:22:59.579Z</time></trkpt><trkpt lat="43.0789247" lon="13.2758215"><ele>468.0</ele><time>2026-04-12T07:23:00.58Z</time></trkpt><trkpt lat="43.0790902" lon="13.2755747"><ele>470.5</ele><time>2026-04-12T07:23:01.579Z</time></trkpt><trkpt lat="43.0792572" lon="13.2753247"><ele>473.0</ele><time>2026-04-12T07:23:02.579Z</time></trkpt><trkpt lat="43.0794249" lon="13.2750721"><ele>473.0</ele><time>2026-04-12T07:23:03.577Z</time></trkpt><trkpt lat="43.0795935" lon="13.2748187"><ele>473.0</ele><time>2026-04-12T07:23:04.601Z</time></trkpt><trkpt lat="43.0797636" lon="13.2745646"><ele>474.5</ele><time>2026-04-12T07:23:05.577Z</time></trkpt><trkpt lat="43.0799341" lon="13.2743097"><ele>476.0</ele><time>2026-04-12T07:23:06.58Z</time></trkpt><trkpt lat="43.0801051" lon="13.2740519"><ele>476.5</ele><time>2026-04-12T07:23:07.575Z</time></trkpt><trkpt lat="43.0802761" lon="13.2737931"><ele>477.0</ele><time>2026-04-12T07:23:08.577Z</time></trkpt><trkpt lat="43.0804426" lon="13.2735436"><ele>477.0</ele><time>2026-04-12T07:23:09.578Z</time></trkpt><trkpt lat="43.0806032" lon="13.2733184"><ele>477.0</ele><time>2026-04-12T07:23:10.577Z</time></trkpt><trkpt lat="43.0807698" lon="13.2731326"><ele>477.0</ele><time>2026-04-12T07:23:11.583Z</time></trkpt><trkpt lat="43.0809567" lon="13.2729999"><ele>477.33333333333337</ele><time>2026-04-12T07:23:12.583Z</time></trkpt><trkpt lat="43.0811626" lon="13.2729233"><ele>477.6666666666667</ele><time>2026-04-12T07:23:13.574Z</time></trkpt><trkpt lat="43.0813778" lon="13.2729042"><ele>478.0</ele><time>2026-04-12T07:23:14.577Z</time></trkpt><trkpt lat="43.0815923" lon="13.2729441"><ele>478.6666666666667</ele><time>2026-04-12T07:23:15.576Z</time></trkpt><trkpt lat="43.0817983" lon="13.2730442"><ele>479.33333333333337</ele><time>2026-04-12T07:23:16.587Z</time></trkpt><trkpt lat="43.0819951" lon="13.2731764"><ele>480.0</ele><time>2026-04-12T07:23:17.574Z</time></trkpt><trkpt lat="43.0821725" lon="13.2733045"><ele>480.33333333333337</ele><time>2026-04-12T07:23:18.575Z</time></trkpt><trkpt lat="43.0823544" lon="13.2734185"><ele>480.6666666666667</ele><time>2026-04-12T07:23:19.575Z</time></trkpt><trkpt lat="43.0825353" lon="13.2735341"><ele>481.0</ele><time>2026-04-12T07:23:20.577Z</time></trkpt><trkpt lat="43.0827159" lon="13.2736464"><ele>482.0</ele><time>2026-04-12T07:23:21.585Z</time></trkpt><trkpt lat="43.0828928" lon="13.2737588"><ele>483.0</ele><time>2026-04-12T07:23:22.579Z</time></trkpt><trkpt lat="43.0830689" lon="13.2738688"><ele>484.0</ele><time>2026-04-12T07:23:23.573Z</time></trkpt><trkpt lat="43.0832492" lon="13.2739646"><ele>483.33333333333337</ele><time>2026-04-12T07:23:24.595Z</time></trkpt><trkpt lat="43.0834411" lon="13.2740203"><ele>482.66666666666663</ele><time>2026-04-12T07:23:25.577Z</time></trkpt><trkpt lat="43.0836353" lon="13.274033"><ele>482.0</ele><time>2026-04-12T07:23:26.575Z</time></trkpt><trkpt lat="43.083825" lon="13.2739914"><ele>475.66666666666663</ele><time>2026-04-12T07:23:27.58Z</time></trkpt><trkpt lat="43.0839965" lon="13.2739067"><ele>469.33333333333337</ele><time>2026-04-12T07:23:28.579Z</time></trkpt><trkpt lat="43.0841554" lon="13.2738092"><ele>463.0</ele><time>2026-04-12T07:23:29.578Z</time></trkpt><trkpt lat="43.0843217" lon="13.2737368"><ele>461.0</ele><time>2026-04-12T07:23:30.573Z</time></trkpt><trkpt lat="43.0845008" lon="13.2737036"><ele>459.0</ele><time>2026-04-12T07:23:31.578Z</time></trkpt><trkpt lat="43.0846853" lon="13.2737216"><ele>457.0</ele><time>2026-04-12T07:23:32.577Z</time></trkpt><trkpt lat="43.0848695" lon="13.2737804"><ele>455.33333333333337</ele><time>2026-04-12T07:23:33.575Z</time></trkpt><trkpt lat="43.0850527" lon="13.2738602"><ele>453.66666666666663</ele><time>2026-04-12T07:23:34.579Z</time></trkpt><trkpt lat="43.0852357" lon="13.2739439"><ele>452.0</ele><time>2026-04-12T07:23:35.577Z</time></trkpt><trkpt lat="43.0854146" lon="13.2740275"><ele>454.3333333333333</ele><time>2026-04-12T07:23:36.578Z</time></trkpt><trkpt lat="43.0855936" lon="13.274112"><ele>456.66666666666663</ele><time>2026-04-12T07:23:37.58Z</time></trkpt><trkpt lat="43.085771" lon="13.2741961"><ele>459.0</ele><time>2026-04-12T07:23:38.574Z</time></trkpt><trkpt lat="43.0859391" lon="13.2742673"><ele>459.0</ele><time>2026-04-12T07:23:39.577Z</time></trkpt><trkpt lat="43.0861096" lon="13.2743269"><ele>459.0</ele><time>2026-04-12T07:23:40.582Z</time></trkpt><trkpt lat="43.0862821" lon="13.2743532"><ele>459.0</ele><time>2026-04-12T07:23:41.571Z</time></trkpt><trkpt lat="43.0864484" lon="13.2743362"><ele>457.33333333333337</ele><time>2026-04-12T07:23:42.574Z</time></trkpt><trkpt lat="43.0866063" lon="13.2743038"><ele>455.6666666666667</ele><time>2026-04-12T07:23:43.571Z</time></trkpt><trkpt lat="43.0867638" lon="13.2743132"><ele>454.0</ele><time>2026-04-12T07:23:44.578Z</time></trkpt><trkpt lat="43.0869137" lon="13.2743334"><ele>454.0</ele><time>2026-04-12T07:23:45.58Z</time></trkpt><trkpt lat="43.087056" lon="13.2744489"><ele>454.0</ele><time>2026-04-12T07:23:46.577Z</time></trkpt><trkpt lat="43.0871761" lon="13.2745827"><ele>454.0</ele><time>2026-04-12T07:23:47.578Z</time></trkpt><trkpt lat="43.0873023" lon="13.2747057"><ele>457.5</ele><time>2026-04-12T07:23:48.574Z</time></trkpt><trkpt lat="43.0874069" lon="13.2748271"><ele>461.0</ele><time>2026-04-12T07:23:49.571Z</time></trkpt><trkpt lat="43.087519" lon="13.2749376"><ele>464.5</ele><time>2026-04-12T07:23:50.585Z</time></trkpt><trkpt lat="43.0876319" lon="13.2750414"><ele>468.0</ele><time>2026-04-12T07:23:51.577Z</time></trkpt><trkpt lat="43.087786" lon="13.2751029"><ele>468.0</ele><time>2026-04-12T07:23:52.579Z</time></trkpt><trkpt lat="43.0879561" lon="13.2751025"><ele>468.0</ele><time>2026-04-12T07:23:53.575Z</time></trkpt><trkpt lat="43.0881244" lon="13.2750649"><ele>468.0</ele><time>2026-04-12T07:23:54.577Z</time></trkpt><trkpt lat="43.0882802" lon="13.2749724"><ele>466.33333333333337</ele><time>2026-04-12T07:23:55.576Z</time></trkpt><trkpt lat="43.0884209" lon="13.2748238"><ele>464.6666666666667</ele><time>2026-04-12T07:23:56.579Z</time></trkpt><trkpt lat="43.0885207" lon="13.274642"><ele>463.0</ele><time>2026-04-12T07:23:57.587Z</time></trkpt><trkpt lat="43.0886362" lon="13.27448"><ele>458.0</ele><time>2026-04-12T07:23:58.575Z</time></trkpt><trkpt lat="43.0887533" lon="13.2743525"><ele>453.0</ele><time>2026-04-12T07:23:59.575Z</time></trkpt><trkpt lat="43.0888631" lon="13.2742309"><ele>448.0</ele><time>2026-04-12T07:24:00.571Z</time></trkpt><trkpt lat="43.0890019" lon="13.2741879"><ele>443.0</ele><time>2026-04-12T07:24:01.577Z</time></trkpt><trkpt lat="43.0891349" lon="13.2742041"><ele>443.0</ele><time>2026-04-12T07:24:02.575Z</time></trkpt><trkpt lat="43.0892648" lon="13.2742711"><ele>443.0</ele><time>2026-04-12T07:24:03.576Z</time></trkpt><trkpt lat="43.0893804" lon="13.2743474"><ele>443.0</ele><time>2026-04-12T07:24:04.583Z</time></trkpt><trkpt lat="43.0894945" lon="13.2744183"><ele>443.0</ele><time>2026-04-12T07:24:05.574Z</time></trkpt><trkpt lat="43.0896084" lon="13.2744655"><ele>443.0</ele><time>2026-04-12T07:24:06.586Z</time></trkpt><trkpt lat="43.089738" lon="13.2744307"><ele>443.0</ele><time>2026-04-12T07:24:07.575Z</time></trkpt><trkpt lat="43.0898619" lon="13.2743718"><ele>443.0</ele><time>2026-04-12T07:24:08.581Z</time></trkpt><trkpt lat="43.0899595" lon="13.2742313"><ele>443.0</ele><time>2026-04-12T07:24:09.574Z</time></trkpt><trkpt lat="43.0900517" lon="13.2740852"><ele>442.66666666666663</ele><time>2026-04-12T07:24:10.577Z</time></trkpt><trkpt lat="43.0901721" lon="13.2739549"><ele>442.33333333333337</ele><time>2026-04-12T07:24:11.574Z</time></trkpt><trkpt lat="43.0903209" lon="13.2738493"><ele>442.0</ele><time>2026-04-12T07:24:12.587Z</time></trkpt><trkpt lat="43.0904908" lon="13.2737761"><ele>437.33333333333337</ele><time>2026-04-12T07:24:13.575Z</time></trkpt><trkpt lat="43.0906633" lon="13.2737352"><ele>432.66666666666663</ele><time>2026-04-12T07:24:14.58Z</time></trkpt><trkpt lat="43.0908238" lon="13.2737154"><ele>428.0</ele><time>2026-04-12T07:24:15.576Z</time></trkpt><trkpt lat="43.090984" lon="13.2737212"><ele>428.0</ele><time>2026-04-12T07:24:16.583Z</time></trkpt><trkpt lat="43.0911342" lon="13.2737364"><ele>428.0</ele><time>2026-04-12T07:24:17.574Z</time></trkpt><trkpt lat="43.0912779" lon="13.2737589"><ele>428.0</ele><time>2026-04-12T07:24:18.577Z</time></trkpt><trkpt lat="43.0914119" lon="13.2737726"><ele>428.0</ele><time>2026-04-12T07:24:19.578Z</time></trkpt><trkpt lat="43.0915384" lon="13.2737889"><ele>427.5</ele><time>2026-04-12T07:24:20.586Z</time></trkpt><trkpt lat="43.0916597" lon="13.2738006"><ele>427.0</ele><time>2026-04-12T07:24:21.587Z</time></trkpt><trkpt lat="43.0917801" lon="13.2737904"><ele>426.5</ele><time>2026-04-12T07:24:22.576Z</time></trkpt><trkpt lat="43.0919115" lon="13.2737642"><ele>426.0</ele><time>2026-04-12T07:24:23.581Z</time></trkpt><trkpt lat="43.0920341" lon="13.2736497"><ele>426.0</ele><time>2026-04-12T07:24:24.58Z</time></trkpt><trkpt lat="43.0921213" lon="13.2734782"><ele>426.0</ele><time>2026-04-12T07:24:25.572Z</time></trkpt><trkpt lat="43.0922088" lon="13.2732918"><ele>426.0</ele><time>2026-04-12T07:24:26.584Z</time></trkpt><trkpt lat="43.0923062" lon="13.2731059"><ele>424.0</ele><time>2026-04-12T07:24:27.572Z</time></trkpt><trkpt lat="43.0924208" lon="13.2729536"><ele>422.0</ele><time>2026-04-12T07:24:28.601Z</time></trkpt><trkpt lat="43.0925503" lon="13.2728541"><ele>420.0</ele><time>2026-04-12T07:24:29.578Z</time></trkpt><trkpt lat="43.0926743" lon="13.2727637"><ele>418.0</ele><time>2026-04-12T07:24:30.574Z</time></trkpt><trkpt lat="43.0928475" lon="13.2727721"><ele>418.0</ele><time>2026-04-12T07:24:31.575Z</time></trkpt><trkpt lat="43.0930335" lon="13.2727847"><ele>418.0</ele><time>2026-04-12T07:24:32.577Z</time></trkpt><trkpt lat="43.0932238" lon="13.2727904"><ele>418.0</ele><time>2026-04-12T07:24:33.573Z</time></trkpt><trkpt lat="43.0934201" lon="13.2728134"><ele>417.6666666666667</ele><time>2026-04-12T07:24:34.577Z</time></trkpt><trkpt lat="43.0936207" lon="13.2728223"><ele>417.33333333333337</ele><time>2026-04-12T07:24:35.582Z</time></trkpt><trkpt lat="43.0938196" lon="13.2728118"><ele>417.0</ele><time>2026-04-12T07:24:36.576Z</time></trkpt><trkpt lat="43.0940168" lon="13.272786"><ele>415.66666666666663</ele><time>2026-04-12T07:24:37.582Z</time></trkpt><trkpt lat="43.0942083" lon="13.2727421"><ele>414.3333333333333</ele><time>2026-04-12T07:24:38.576Z</time></trkpt><trkpt lat="43.0943903" lon="13.2726969"><ele>413.0</ele><time>2026-04-12T07:24:39.578Z</time></trkpt><trkpt lat="43.0945705" lon="13.2726695"><ele>413.0</ele><time>2026-04-12T07:24:40.579Z</time></trkpt><trkpt lat="43.0947513" lon="13.2726622"><ele>413.0</ele><time>2026-04-12T07:24:41.577Z</time></trkpt><trkpt lat="43.0949275" lon="13.2726756"><ele>413.0</ele><time>2026-04-12T07:24:42.577Z</time></trkpt><trkpt lat="43.0950934" lon="13.2726912"><ele>413.3333333333333</ele><time>2026-04-12T07:24:43.58Z</time></trkpt><trkpt lat="43.0952567" lon="13.2726976"><ele>413.66666666666663</ele><time>2026-04-12T07:24:44.581Z</time></trkpt><trkpt lat="43.0954165" lon="13.2726897"><ele>414.0</ele><time>2026-04-12T07:24:45.575Z</time></trkpt><trkpt lat="43.0955801" lon="13.2726161"><ele>414.0</ele><time>2026-04-12T07:24:46.581Z</time></trkpt><trkpt lat="43.0957397" lon="13.27248"><ele>414.0</ele><time>2026-04-12T07:24:47.575Z</time></trkpt><trkpt lat="43.0958885" lon="13.2723619"><ele>414.0</ele><time>2026-04-12T07:24:48.583Z</time></trkpt><trkpt lat="43.0960443" lon="13.272253"><ele>409.66666666666663</ele><time>2026-04-12T07:24:49.57Z</time></trkpt><trkpt lat="43.0962188" lon="13.2721739"><ele>405.3333333333333</ele><time>2026-04-12T07:24:50.577Z</time></trkpt><trkpt lat="43.0963945" lon="13.2721302"><ele>401.0</ele><time>2026-04-12T07:24:51.574Z</time></trkpt><trkpt lat="43.0965647" lon="13.2721025"><ele>401.3333333333333</ele><time>2026-04-12T07:24:52.574Z</time></trkpt><trkpt lat="43.0967265" lon="13.272074"><ele>401.66666666666663</ele><time>2026-04-12T07:24:53.609Z</time></trkpt><trkpt lat="43.0968791" lon="13.2720334"><ele>402.0</ele><time>2026-04-12T07:24:54.579Z</time></trkpt><trkpt lat="43.0970126" lon="13.271951"><ele>402.0</ele><time>2026-04-12T07:24:55.575Z</time></trkpt><trkpt lat="43.097128" lon="13.2718321"><ele>402.0</ele><time>2026-04-12T07:24:56.581Z</time></trkpt><trkpt lat="43.0972259" lon="13.2717103"><ele>402.0</ele><time>2026-04-12T07:24:57.592Z</time></trkpt><trkpt lat="43.0973136" lon="13.2715944"><ele>402.0</ele><time>2026-04-12T07:24:58.576Z</time></trkpt><trkpt lat="43.0973929" lon="13.2714657"><ele>401.0</ele><time>2026-04-12T07:24:59.593Z</time></trkpt><trkpt lat="43.0974832" lon="13.2713533"><ele>400.0</ele><time>2026-04-12T07:25:00.575Z</time></trkpt><trkpt lat="43.0976116" lon="13.2712734"><ele>399.0</ele><time>2026-04-12T07:25:01.583Z</time></trkpt><trkpt lat="43.0977676" lon="13.2712581"><ele>398.0</ele><time>2026-04-12T07:25:02.578Z</time></trkpt><trkpt lat="43.0979426" lon="13.27129"><ele>398.0</ele><time>2026-04-12T07:25:03.587Z</time></trkpt><trkpt lat="43.0981125" lon="13.2713333"><ele>398.0</ele><time>2026-04-12T07:25:04.577Z</time></trkpt><trkpt lat="43.0982756" lon="13.2713816"><ele>398.0</ele><time>2026-04-12T07:25:05.597Z</time></trkpt><trkpt lat="43.098435" lon="13.2714312"><ele>398.66666666666663</ele><time>2026-04-12T07:25:06.577Z</time></trkpt><trkpt lat="43.0986012" lon="13.2714618"><ele>399.33333333333337</ele><time>2026-04-12T07:25:07.58Z</time></trkpt><trkpt lat="43.0987759" lon="13.2714444"><ele>400.0</ele><time>2026-04-12T07:25:08.578Z</time></trkpt><trkpt lat="43.0989666" lon="13.271378"><ele>398.0</ele><time>2026-04-12T07:25:09.587Z</time></trkpt><trkpt lat="43.0991626" lon="13.2712738"><ele>396.0</ele><time>2026-04-12T07:25:10.576Z</time></trkpt><trkpt lat="43.0993459" lon="13.271162"><ele>394.0</ele><time>2026-04-12T07:25:11.581Z</time></trkpt><trkpt lat="43.0995207" lon="13.2710565"><ele>394.0</ele><time>2026-04-12T07:25:12.586Z</time></trkpt><trkpt lat="43.0996893" lon="13.2709532"><ele>394.0</ele><time>2026-04-12T07:25:13.576Z</time></trkpt><trkpt lat="43.0998581" lon="13.2708507"><ele>394.0</ele><time>2026-04-12T07:25:14.583Z</time></trkpt><trkpt lat="43.100036" lon="13.2707425"><ele>395.6666666666667</ele><time>2026-04-12T07:25:15.579Z</time></trkpt><trkpt lat="43.1002187" lon="13.2706329"><ele>397.33333333333337</ele><time>2026-04-12T07:25:16.592Z</time></trkpt><trkpt lat="43.1004047" lon="13.2705177"><ele>399.0</ele><time>2026-04-12T07:25:17.578Z</time></trkpt><trkpt lat="43.1005943" lon="13.2704013"><ele>396.0</ele><time>2026-04-12T07:25:18.585Z</time></trkpt><trkpt lat="43.100787" lon="13.2702851"><ele>393.0</ele><time>2026-04-12T07:25:19.584Z</time></trkpt><trkpt lat="43.1009785" lon="13.2701702"><ele>390.0</ele><time>2026-04-12T07:25:20.591Z</time></trkpt><trkpt lat="43.1011651" lon="13.2700552"><ele>390.0</ele><time>2026-04-12T07:25:21.576Z</time></trkpt><trkpt lat="43.1013627" lon="13.2699248"><ele>390.0</ele><time>2026-04-12T07:25:22.574Z</time></trkpt><trkpt lat="43.1015771" lon="13.2697853"><ele>388.5</ele><time>2026-04-12T07:25:23.579Z</time></trkpt><trkpt lat="43.1018073" lon="13.2696454"><ele>387.0</ele><time>2026-04-12T07:25:24.582Z</time></trkpt><trkpt lat="43.1020298" lon="13.2695148"><ele>387.0</ele><time>2026-04-12T07:25:25.579Z</time></trkpt><trkpt lat="43.1022416" lon="13.2693984"><ele>387.0</ele><time>2026-04-12T07:25:26.587Z</time></trkpt><trkpt lat="43.1024484" lon="13.2693055"><ele>387.0</ele><time>2026-04-12T07:25:27.58Z</time></trkpt><trkpt lat="43.1026517" lon="13.2692572"><ele>386.0</ele><time>2026-04-12T07:25:28.58Z</time></trkpt><trkpt lat="43.1028541" lon="13.2692572"><ele>385.0</ele><time>2026-04-12T07:25:29.576Z</time></trkpt><trkpt lat="43.1030514" lon="13.2692745"><ele>384.0</ele><time>2026-04-12T07:25:30.577Z</time></trkpt><trkpt lat="43.1032508" lon="13.2693195"><ele>383.0</ele><time>2026-04-12T07:25:31.575Z</time></trkpt><trkpt lat="43.1034411" lon="13.2693652"><ele>382.0</ele><time>2026-04-12T07:25:32.587Z</time></trkpt><trkpt lat="43.1036249" lon="13.2693793"><ele>381.0</ele><time>2026-04-12T07:25:33.577Z</time></trkpt><trkpt lat="43.103804" lon="13.2693731"><ele>381.0</ele><time>2026-04-12T07:25:34.588Z</time></trkpt><trkpt lat="43.1039802" lon="13.2692635"><ele>381.0</ele><time>2026-04-12T07:25:35.576Z</time></trkpt><trkpt lat="43.1041514" lon="13.2691314"><ele>381.0</ele><time>2026-04-12T07:25:36.584Z</time></trkpt><trkpt lat="43.1043107" lon="13.2690034"><ele>376.0</ele><time>2026-04-12T07:25:37.577Z</time></trkpt><trkpt lat="43.1044683" lon="13.2688871"><ele>371.0</ele><time>2026-04-12T07:25:38.582Z</time></trkpt><trkpt lat="43.1046169" lon="13.2687752"><ele>366.0</ele><time>2026-04-12T07:25:39.572Z</time></trkpt><trkpt lat="43.1047632" lon="13.2686827"><ele>366.0</ele><time>2026-04-12T07:25:40.58Z</time></trkpt><trkpt lat="43.104912" lon="13.2686364"><ele>366.0</ele><time>2026-04-12T07:25:41.578Z</time></trkpt><trkpt lat="43.1050533" lon="13.2686465"><ele>366.0</ele><time>2026-04-12T07:25:42.583Z</time></trkpt><trkpt lat="43.1051731" lon="13.2687127"><ele>366.0</ele><time>2026-04-12T07:25:43.573Z</time></trkpt><trkpt lat="43.105263" lon="13.2688296"><ele>368.25</ele><time>2026-04-12T07:25:44.604Z</time></trkpt><trkpt lat="43.1053198" lon="13.2689865"><ele>370.5</ele><time>2026-04-12T07:25:45.58Z</time></trkpt><trkpt lat="43.1053576" lon="13.2691688"><ele>372.75</ele><time>2026-04-12T07:25:46.586Z</time></trkpt><trkpt lat="43.1053915" lon="13.2693784"><ele>375.0</ele><time>2026-04-12T07:25:47.578Z</time></trkpt><trkpt lat="43.1054252" lon="13.2696"><ele>376.0</ele><time>2026-04-12T07:25:48.58Z</time></trkpt><trkpt lat="43.1054593" lon="13.2698261"><ele>377.0</ele><time>2026-04-12T07:25:49.576Z</time></trkpt><trkpt lat="43.1055018" lon="13.2700414"><ele>378.0</ele><time>2026-04-12T07:25:50.582Z</time></trkpt><trkpt lat="43.1055344" lon="13.2702619"><ele>378.0</ele><time>2026-04-12T07:25:51.574Z</time></trkpt><trkpt lat="43.1055595" lon="13.2704596"><ele>378.0</ele><time>2026-04-12T07:25:52.585Z</time></trkpt><trkpt lat="43.1055906" lon="13.2706306"><ele>378.0</ele><time>2026-04-12T07:25:53.577Z</time></trkpt><trkpt lat="43.1056383" lon="13.2707667"><ele>378.0</ele><time>2026-04-12T07:25:54.586Z</time></trkpt><trkpt lat="43.1056892" lon="13.2708771"><ele>376.0</ele><time>2026-04-12T07:25:55.573Z</time></trkpt><trkpt lat="43.1057832" lon="13.2709262"><ele>374.0</ele><time>2026-04-12T07:25:56.579Z</time></trkpt><trkpt lat="43.1058759" lon="13.2709134"><ele>372.0</ele><time>2026-04-12T07:25:57.581Z</time></trkpt><trkpt lat="43.1059814" lon="13.2708976"><ele>370.0</ele><time>2026-04-12T07:25:58.581Z</time></trkpt><trkpt lat="43.1060795" lon="13.2708886"><ele>368.0</ele><time>2026-04-12T07:25:59.579Z</time></trkpt><trkpt lat="43.1061842" lon="13.2708635"><ele>368.0</ele><time>2026-04-12T07:26:00.584Z</time></trkpt><trkpt lat="43.1062786" lon="13.270783"><ele>368.0</ele><time>2026-04-12T07:26:01.577Z</time></trkpt><trkpt lat="43.1063672" lon="13.2706445"><ele>368.0</ele><time>2026-04-12T07:26:02.579Z</time></trkpt><trkpt lat="43.1064546" lon="13.2704728"><ele>368.0</ele><time>2026-04-12T07:26:03.575Z</time></trkpt><trkpt lat="43.1065536" lon="13.2702902"><ele>366.33333333333337</ele><time>2026-04-12T07:26:04.585Z</time></trkpt><trkpt lat="43.1066548" lon="13.2701076"><ele>364.6666666666667</ele><time>2026-04-12T07:26:05.576Z</time></trkpt><trkpt lat="43.1067499" lon="13.2699257"><ele>363.0</ele><time>2026-04-12T07:26:06.573Z</time></trkpt><trkpt lat="43.1068412" lon="13.2697446"><ele>360.6666666666667</ele><time>2026-04-12T07:26:07.577Z</time></trkpt><trkpt lat="43.106929" lon="13.2695591"><ele>358.33333333333337</ele><time>2026-04-12T07:26:08.572Z</time></trkpt><trkpt lat="43.1070274" lon="13.2693815"><ele>356.0</ele><time>2026-04-12T07:26:09.576Z</time></trkpt><trkpt lat="43.1071268" lon="13.2691899"><ele>356.0</ele><time>2026-04-12T07:26:10.574Z</time></trkpt><trkpt lat="43.1072414" lon="13.2689924"><ele>356.0</ele><time>2026-04-12T07:26:11.586Z</time></trkpt><trkpt lat="43.1073668" lon="13.2688134"><ele>356.0</ele><time>2026-04-12T07:26:12.579Z</time></trkpt><trkpt lat="43.1075061" lon="13.2686498"><ele>359.33333333333337</ele><time>2026-04-12T07:26:13.58Z</time></trkpt><trkpt lat="43.1076601" lon="13.2684911"><ele>362.6666666666667</ele><time>2026-04-12T07:26:14.575Z</time></trkpt><trkpt lat="43.1078242" lon="13.2683397"><ele>366.0</ele><time>2026-04-12T07:26:15.58Z</time></trkpt><trkpt lat="43.1079812" lon="13.2681958"><ele>367.6666666666667</ele><time>2026-04-12T07:26:16.576Z</time></trkpt><trkpt lat="43.1081299" lon="13.2680717"><ele>369.33333333333337</ele><time>2026-04-12T07:26:17.578Z</time></trkpt><trkpt lat="43.1082626" lon="13.2679503"><ele>371.0</ele><time>2026-04-12T07:26:18.578Z</time></trkpt><trkpt lat="43.1083867" lon="13.2678311"><ele>371.0</ele><time>2026-04-12T07:26:19.574Z</time></trkpt><trkpt lat="43.1085142" lon="13.2677126"><ele>371.0</ele><time>2026-04-12T07:26:20.584Z</time></trkpt><trkpt lat="43.1086481" lon="13.2675919"><ele>371.0</ele><time>2026-04-12T07:26:21.58Z</time></trkpt><trkpt lat="43.1087881" lon="13.267467"><ele>371.0</ele><time>2026-04-12T07:26:22.582Z</time></trkpt><trkpt lat="43.1089371" lon="13.267349"><ele>371.0</ele><time>2026-04-12T07:26:23.578Z</time></trkpt><trkpt lat="43.1091001" lon="13.2672567"><ele>371.0</ele><time>2026-04-12T07:26:24.585Z</time></trkpt><trkpt lat="43.1092785" lon="13.267212"><ele>371.6666666666667</ele><time>2026-04-12T07:26:25.575Z</time></trkpt><trkpt lat="43.1094671" lon="13.2672083"><ele>372.3333333333333</ele><time>2026-04-12T07:26:26.574Z</time></trkpt><trkpt lat="43.1096611" lon="13.2672212"><ele>373.0</ele><time>2026-04-12T07:26:27.577Z</time></trkpt><trkpt lat="43.1098634" lon="13.2672339"><ele>374.0</ele><time>2026-04-12T07:26:28.575Z</time></trkpt><trkpt lat="43.1100699" lon="13.2672437"><ele>375.0</ele><time>2026-04-12T07:26:29.602Z</time></trkpt><trkpt lat="43.1102816" lon="13.2672549"><ele>376.0</ele><time>2026-04-12T07:26:30.579Z</time></trkpt><trkpt lat="43.1105248" lon="13.2672482"><ele>375.5</ele><time>2026-04-12T07:26:31.581Z</time></trkpt><trkpt lat="43.1107611" lon="13.2672292"><ele>375.0</ele><time>2026-04-12T07:26:32.582Z</time></trkpt><trkpt lat="43.1110145" lon="13.2672011"><ele>375.0</ele><time>2026-04-12T07:26:33.588Z</time></trkpt><trkpt lat="43.1112771" lon="13.2671662"><ele>375.0</ele><time>2026-04-12T07:26:34.577Z</time></trkpt><trkpt lat="43.1115422" lon="13.2671319"><ele>375.0</ele><time>2026-04-12T07:26:35.582Z</time></trkpt><trkpt lat="43.1118068" lon="13.2670951"><ele>375.0</ele><time>2026-04-12T07:26:36.586Z</time></trkpt><trkpt lat="43.1120679" lon="13.2670585"><ele>375.0</ele><time>2026-04-12T07:26:37.58Z</time></trkpt><trkpt lat="43.1123203" lon="13.2670214"><ele>375.0</ele><time>2026-04-12T07:26:38.582Z</time></trkpt><trkpt lat="43.1125673" lon="13.2669949"><ele>376.0</ele><time>2026-04-12T07:26:39.576Z</time></trkpt><trkpt lat="43.1128032" lon="13.2669704"><ele>377.0</ele><time>2026-04-12T07:26:40.578Z</time></trkpt><trkpt lat="43.1130296" lon="13.2669416"><ele>377.33333333333337</ele><time>2026-04-12T07:26:41.577Z</time></trkpt><trkpt lat="43.1132498" lon="13.2669082"><ele>377.6666666666667</ele><time>2026-04-12T07:26:42.575Z</time></trkpt><trkpt lat="43.1134575" lon="13.2668734"><ele>378.0</ele><time>2026-04-12T07:26:43.578Z</time></trkpt><trkpt lat="43.1136537" lon="13.2668374"><ele>378.0</ele><time>2026-04-12T07:26:44.578Z</time></trkpt><trkpt lat="43.1138417" lon="13.2668007"><ele>378.0</ele><time>2026-04-12T07:26:45.578Z</time></trkpt><trkpt lat="43.1140242" lon="13.2667662"><ele>378.0</ele><time>2026-04-12T07:26:46.578Z</time></trkpt><trkpt lat="43.1142052" lon="13.2667328"><ele>378.3333333333333</ele><time>2026-04-12T07:26:47.584Z</time></trkpt><trkpt lat="43.1143798" lon="13.2667114"><ele>378.66666666666663</ele><time>2026-04-12T07:26:48.577Z</time></trkpt><trkpt lat="43.1145467" lon="13.2667293"><ele>379.0</ele><time>2026-04-12T07:26:49.583Z</time></trkpt><trkpt lat="43.1147185" lon="13.2667709"><ele>379.0</ele><time>2026-04-12T07:26:50.576Z</time></trkpt><trkpt lat="43.1148731" lon="13.2668983"><ele>379.0</ele><time>2026-04-12T07:26:51.586Z</time></trkpt><trkpt lat="43.1150331" lon="13.2670328"><ele>379.0</ele><time>2026-04-12T07:26:52.577Z</time></trkpt><trkpt lat="43.1152079" lon="13.2671671"><ele>380.0</ele><time>2026-04-12T07:26:53.581Z</time></trkpt><trkpt lat="43.1153849" lon="13.2673025"><ele>381.0</ele><time>2026-04-12T07:26:54.584Z</time></trkpt><trkpt lat="43.1155555" lon="13.2674321"><ele>382.0</ele><time>2026-04-12T07:26:55.576Z</time></trkpt><trkpt lat="43.115722" lon="13.2675581"><ele>377.66666666666663</ele><time>2026-04-12T07:26:56.577Z</time></trkpt><trkpt lat="43.1158759" lon="13.2676774"><ele>373.3333333333333</ele><time>2026-04-12T07:26:57.586Z</time></trkpt><trkpt lat="43.1160164" lon="13.2677987"><ele>369.0</ele><time>2026-04-12T07:26:58.578Z</time></trkpt><trkpt lat="43.1161354" lon="13.2679388"><ele>369.0</ele><time>2026-04-12T07:26:59.576Z</time></trkpt><trkpt lat="43.1162301" lon="13.2680852"><ele>369.0</ele><time>2026-04-12T07:27:00.579Z</time></trkpt><trkpt lat="43.1163074" lon="13.2682247"><ele>369.0</ele><time>2026-04-12T07:27:01.589Z</time></trkpt><trkpt lat="43.1163805" lon="13.2683487"><ele>369.0</ele><time>2026-04-12T07:27:02.583Z</time></trkpt><trkpt lat="43.116453" lon="13.2684432"><ele>370.2</ele><time>2026-04-12T07:27:03.583Z</time></trkpt><trkpt lat="43.1165379" lon="13.2684957"><ele>371.4</ele><time>2026-04-12T07:27:04.585Z</time></trkpt><trkpt lat="43.1166321" lon="13.2684833"><ele>372.6</ele><time>2026-04-12T07:27:05.584Z</time></trkpt><trkpt lat="43.1167134" lon="13.2684141"><ele>373.8</ele><time>2026-04-12T07:27:06.582Z</time></trkpt><trkpt lat="43.1167572" lon="13.2682909"><ele>375.0</ele><time>2026-04-12T07:27:07.589Z</time></trkpt><trkpt lat="43.1167603" lon="13.2681319"><ele>371.75</ele><time>2026-04-12T07:27:08.583Z</time></trkpt><trkpt lat="43.1167399" lon="13.267951"><ele>368.5</ele><time>2026-04-12T07:27:09.611Z</time></trkpt><trkpt lat="43.116716" lon="13.2677545"><ele>365.25</ele><time>2026-04-12T07:27:10.576Z</time></trkpt><trkpt lat="43.1166876" lon="13.2675541"><ele>362.0</ele><time>2026-04-12T07:27:11.582Z</time></trkpt><trkpt lat="43.1166595" lon="13.2673621"><ele>361.25</ele><time>2026-04-12T07:27:12.58Z</time></trkpt><trkpt lat="43.1166475" lon="13.267185"><ele>360.5</ele><time>2026-04-12T07:27:13.588Z</time></trkpt><trkpt lat="43.116675" lon="13.2670224"><ele>359.75</ele><time>2026-04-12T07:27:14.58Z</time></trkpt><trkpt lat="43.116745" lon="13.2668852"><ele>359.0</ele><time>2026-04-12T07:27:15.586Z</time></trkpt><trkpt lat="43.1168477" lon="13.2667714"><ele>359.0</ele><time>2026-04-12T07:27:16.579Z</time></trkpt><trkpt lat="43.1169679" lon="13.2666685"><ele>359.0</ele><time>2026-04-12T07:27:17.577Z</time></trkpt><trkpt lat="43.1170966" lon="13.2665633"><ele>359.0</ele><time>2026-04-12T07:27:18.58Z</time></trkpt><trkpt lat="43.1172285" lon="13.2664388"><ele>359.0</ele><time>2026-04-12T07:27:19.577Z</time></trkpt><trkpt lat="43.1173591" lon="13.2662824"><ele>359.0</ele><time>2026-04-12T07:27:20.589Z</time></trkpt><trkpt lat="43.1174823" lon="13.2660921"><ele>359.0</ele><time>2026-04-12T07:27:21.576Z</time></trkpt><trkpt lat="43.1175948" lon="13.2658719"><ele>359.0</ele><time>2026-04-12T07:27:22.582Z</time></trkpt><trkpt lat="43.1176969" lon="13.2656462"><ele>359.0</ele><time>2026-04-12T07:27:23.588Z</time></trkpt><trkpt lat="43.1177945" lon="13.2654186"><ele>359.0</ele><time>2026-04-12T07:27:24.585Z</time></trkpt><trkpt lat="43.1178985" lon="13.2651848"><ele>357.6666666666667</ele><time>2026-04-12T07:27:25.583Z</time></trkpt><trkpt lat="43.1179972" lon="13.2649331"><ele>356.3333333333333</ele><time>2026-04-12T07:27:26.587Z</time></trkpt><trkpt lat="43.1180803" lon="13.2646605"><ele>355.0</ele><time>2026-04-12T07:27:27.588Z</time></trkpt><trkpt lat="43.1181543" lon="13.2643747"><ele>352.5</ele><time>2026-04-12T07:27:28.583Z</time></trkpt><trkpt lat="43.1182254" lon="13.2640812"><ele>350.0</ele><time>2026-04-12T07:27:29.585Z</time></trkpt><trkpt lat="43.1182942" lon="13.2637836"><ele>350.0</ele><time>2026-04-12T07:27:30.59Z</time></trkpt><trkpt lat="43.1183527" lon="13.2634932"><ele>350.0</ele><time>2026-04-12T07:27:31.584Z</time></trkpt><trkpt lat="43.1184019" lon="13.2632122"><ele>350.0</ele><time>2026-04-12T07:27:32.606Z</time></trkpt><trkpt lat="43.1184474" lon="13.2629415"><ele>347.0</ele><time>2026-04-12T07:27:33.582Z</time></trkpt><trkpt lat="43.1184885" lon="13.2626818"><ele>344.0</ele><time>2026-04-12T07:27:34.584Z</time></trkpt><trkpt lat="43.1185248" lon="13.2624303"><ele>341.0</ele><time>2026-04-12T07:27:35.586Z</time></trkpt><trkpt lat="43.1185578" lon="13.2621979"><ele>338.75</ele><time>2026-04-12T07:27:36.577Z</time></trkpt><trkpt lat="43.1185883" lon="13.2619858"><ele>336.5</ele><time>2026-04-12T07:27:37.585Z</time></trkpt><trkpt lat="43.1186194" lon="13.2617969"><ele>334.25</ele><time>2026-04-12T07:27:38.589Z</time></trkpt><trkpt lat="43.1186649" lon="13.261632"><ele>332.0</ele><time>2026-04-12T07:27:39.581Z</time></trkpt><trkpt lat="43.1187416" lon="13.261503"><ele>330.5</ele><time>2026-04-12T07:27:40.592Z</time></trkpt><trkpt lat="43.1188552" lon="13.2614326"><ele>329.0</ele><time>2026-04-12T07:27:41.58Z</time></trkpt><trkpt lat="43.118997" lon="13.2614142"><ele>327.5</ele><time>2026-04-12T07:27:42.585Z</time></trkpt><trkpt lat="43.119156" lon="13.2614188"><ele>326.0</ele><time>2026-04-12T07:27:43.583Z</time></trkpt><trkpt lat="43.1193145" lon="13.2614191"><ele>326.0</ele><time>2026-04-12T07:27:44.582Z</time></trkpt><trkpt lat="43.1194696" lon="13.2614042"><ele>326.0</ele><time>2026-04-12T07:27:45.585Z</time></trkpt><trkpt lat="43.1196316" lon="13.2613504"><ele>326.0</ele><time>2026-04-12T07:27:46.578Z</time></trkpt><trkpt lat="43.1197951" lon="13.2612365"><ele>326.6666666666667</ele><time>2026-04-12T07:27:47.583Z</time></trkpt><trkpt lat="43.1199433" lon="13.2610749"><ele>327.3333333333333</ele><time>2026-04-12T07:27:48.581Z</time></trkpt><trkpt lat="43.1200682" lon="13.260893"><ele>328.0</ele><time>2026-04-12T07:27:49.579Z</time></trkpt><trkpt lat="43.120191" lon="13.2607226"><ele>323.66666666666663</ele><time>2026-04-12T07:27:50.581Z</time></trkpt><trkpt lat="43.1203238" lon="13.2605745"><ele>319.3333333333333</ele><time>2026-04-12T07:27:51.584Z</time></trkpt><trkpt lat="43.1204671" lon="13.2604487"><ele>315.0</ele><time>2026-04-12T07:27:52.583Z</time></trkpt><trkpt lat="43.1206273" lon="13.2603484"><ele>317.3333333333333</ele><time>2026-04-12T07:27:53.574Z</time></trkpt><trkpt lat="43.120804" lon="13.2602793"><ele>319.66666666666663</ele><time>2026-04-12T07:27:54.574Z</time></trkpt><trkpt lat="43.1209817" lon="13.2602302"><ele>322.0</ele><time>2026-04-12T07:27:55.58Z</time></trkpt><trkpt lat="43.1211477" lon="13.2601873"><ele>322.0</ele><time>2026-04-12T07:27:56.581Z</time></trkpt><trkpt lat="43.1213009" lon="13.2601486"><ele>322.0</ele><time>2026-04-12T07:27:57.581Z</time></trkpt><trkpt lat="43.1214461" lon="13.260113"><ele>322.0</ele><time>2026-04-12T07:27:58.578Z</time></trkpt><trkpt lat="43.1215813" lon="13.2600674"><ele>322.0</ele><time>2026-04-12T07:27:59.581Z</time></trkpt><trkpt lat="43.1217088" lon="13.2600201"><ele>321.25</ele><time>2026-04-12T07:28:00.58Z</time></trkpt><trkpt lat="43.121792" lon="13.2598947"><ele>320.5</ele><time>2026-04-12T07:28:01.582Z</time></trkpt><trkpt lat="43.121846" lon="13.2597463"><ele>319.75</ele><time>2026-04-12T07:28:02.576Z</time></trkpt><trkpt lat="43.1218994" lon="13.259593"><ele>319.0</ele><time>2026-04-12T07:28:03.582Z</time></trkpt><trkpt lat="43.1219688" lon="13.2594128"><ele>318.0</ele><time>2026-04-12T07:28:04.584Z</time></trkpt><trkpt lat="43.1220496" lon="13.2592055"><ele>317.0</ele><time>2026-04-12T07:28:05.575Z</time></trkpt><trkpt lat="43.1221285" lon="13.2589959"><ele>316.0</ele><time>2026-04-12T07:28:06.585Z</time></trkpt><trkpt lat="43.1222106" lon="13.2588077"><ele>316.0</ele><time>2026-04-12T07:28:07.58Z</time></trkpt><trkpt lat="43.1222931" lon="13.2586368"><ele>316.0</ele><time>2026-04-12T07:28:08.581Z</time></trkpt><trkpt lat="43.1224207" lon="13.2585252"><ele>316.0</ele><time>2026-04-12T07:28:09.58Z</time></trkpt><trkpt lat="43.1225701" lon="13.2584693"><ele>320.0</ele><time>2026-04-12T07:28:10.579Z</time></trkpt><trkpt lat="43.1227284" lon="13.2583844"><ele>324.0</ele><time>2026-04-12T07:28:11.581Z</time></trkpt><trkpt lat="43.1228465" lon="13.2581898"><ele>328.0</ele><time>2026-04-12T07:28:12.582Z</time></trkpt><trkpt lat="43.1229571" lon="13.257985"><ele>326.3333333333333</ele><time>2026-04-12T07:28:13.581Z</time></trkpt><trkpt lat="43.1230559" lon="13.2577555"><ele>324.6666666666667</ele><time>2026-04-12T07:28:14.58Z</time></trkpt><trkpt lat="43.1231487" lon="13.257554"><ele>323.0</ele><time>2026-04-12T07:28:15.582Z</time></trkpt><trkpt lat="43.1232645" lon="13.2573879"><ele>327.33333333333337</ele><time>2026-04-12T07:28:16.587Z</time></trkpt><trkpt lat="43.1234064" lon="13.2572434"><ele>331.6666666666667</ele><time>2026-04-12T07:28:17.579Z</time></trkpt><trkpt lat="43.123553" lon="13.2571444"><ele>336.0</ele><time>2026-04-12T07:28:18.599Z</time></trkpt><trkpt lat="43.1236896" lon="13.2570861"><ele>336.0</ele><time>2026-04-12T07:28:19.578Z</time></trkpt><trkpt lat="43.1238084" lon="13.257041"><ele>336.0</ele><time>2026-04-12T07:28:20.582Z</time></trkpt><trkpt lat="43.1238969" lon="13.2569822"><ele>336.0</ele><time>2026-04-12T07:28:21.575Z</time></trkpt><trkpt lat="43.1239532" lon="13.2568846"><ele>336.0</ele><time>2026-04-12T07:28:22.574Z</time></trkpt><trkpt lat="43.123978" lon="13.2567813"><ele>336.0</ele><time>2026-04-12T07:28:23.585Z</time></trkpt><trkpt lat="43.1239331" lon="13.2566779"><ele>336.0</ele><time>2026-04-12T07:28:24.573Z</time></trkpt><trkpt lat="43.1238404" lon="13.2566053"><ele>336.0</ele><time>2026-04-12T07:28:25.598Z</time></trkpt><trkpt lat="43.1237082" lon="13.2565812"><ele>336.0</ele><time>2026-04-12T07:28:26.582Z</time></trkpt><trkpt lat="43.1235607" lon="13.2565762"><ele>336.0</ele><time>2026-04-12T07:28:27.583Z</time></trkpt><trkpt lat="43.1234138" lon="13.2565803"><ele>336.0</ele><time>2026-04-12T07:28:28.586Z</time></trkpt><trkpt lat="43.1232525" lon="13.2565916"><ele>336.0</ele><time>2026-04-12T07:28:29.583Z</time></trkpt><trkpt lat="43.1230787" lon="13.2566234"><ele>336.0</ele><time>2026-04-12T07:28:30.595Z</time></trkpt><trkpt lat="43.1228976" lon="13.2566955"><ele>339.0</ele><time>2026-04-12T07:28:31.583Z</time></trkpt><trkpt lat="43.1227325" lon="13.2567988"><ele>342.0</ele><time>2026-04-12T07:28:32.583Z</time></trkpt><trkpt lat="43.122582" lon="13.2568873"><ele>345.0</ele><time>2026-04-12T07:28:33.577Z</time></trkpt><trkpt lat="43.122429" lon="13.2569249"><ele>347.0</ele><time>2026-04-12T07:28:34.584Z</time></trkpt><trkpt lat="43.1222653" lon="13.2569105"><ele>349.0</ele><time>2026-04-12T07:28:35.578Z</time></trkpt><trkpt lat="43.1220959" lon="13.2568671"><ele>351.0</ele><time>2026-04-12T07:28:36.578Z</time></trkpt><trkpt lat="43.1219264" lon="13.256823"><ele>351.0</ele><time>2026-04-12T07:28:37.577Z</time></trkpt><trkpt lat="43.1217622" lon="13.2567871"><ele>351.0</ele><time>2026-04-12T07:28:38.583Z</time></trkpt><trkpt lat="43.1215935" lon="13.2567529"><ele>351.0</ele><time>2026-04-12T07:28:39.579Z</time></trkpt><trkpt lat="43.1214178" lon="13.2567161"><ele>350.0</ele><time>2026-04-12T07:28:40.579Z</time></trkpt><trkpt lat="43.1212401" lon="13.2566637"><ele>349.0</ele><time>2026-04-12T07:28:41.577Z</time></trkpt><trkpt lat="43.1210744" lon="13.2565602"><ele>348.0</ele><time>2026-04-12T07:28:42.579Z</time></trkpt><trkpt lat="43.1209065" lon="13.2564561"><ele>347.0</ele><time>2026-04-12T07:28:43.58Z</time></trkpt><trkpt lat="43.1207867" lon="13.2562296"><ele>346.0</ele><time>2026-04-12T07:28:44.584Z</time></trkpt><trkpt lat="43.1206667" lon="13.255988"><ele>345.0</ele><time>2026-04-12T07:28:45.58Z</time></trkpt><trkpt lat="43.1205359" lon="13.2557351"><ele>346.0</ele><time>2026-04-12T07:28:46.575Z</time></trkpt><trkpt lat="43.1204076" lon="13.2554811"><ele>347.0</ele><time>2026-04-12T07:28:47.582Z</time></trkpt><trkpt lat="43.120294" lon="13.2552398"><ele>348.0</ele><time>2026-04-12T07:28:48.581Z</time></trkpt><trkpt lat="43.1202003" lon="13.254994"><ele>351.3333333333333</ele><time>2026-04-12T07:28:49.58Z</time></trkpt><trkpt lat="43.1201184" lon="13.254724"><ele>354.66666666666663</ele><time>2026-04-12T07:28:50.583Z</time></trkpt><trkpt lat="43.1200421" lon="13.2544429"><ele>358.0</ele><time>2026-04-12T07:28:51.577Z</time></trkpt><trkpt lat="43.1199663" lon="13.2541594"><ele>357.0</ele><time>2026-04-12T07:28:52.579Z</time></trkpt><trkpt lat="43.1198894" lon="13.2538776"><ele>356.0</ele><time>2026-04-12T07:28:53.585Z</time></trkpt><trkpt lat="43.1198136" lon="13.2535968"><ele>355.0</ele><time>2026-04-12T07:28:54.586Z</time></trkpt><trkpt lat="43.1197437" lon="13.2533227"><ele>357.0</ele><time>2026-04-12T07:28:55.583Z</time></trkpt><trkpt lat="43.1196982" lon="13.2530557"><ele>359.0</ele><time>2026-04-12T07:28:56.606Z</time></trkpt><trkpt lat="43.11969" lon="13.2527838"><ele>361.0</ele><time>2026-04-12T07:28:57.582Z</time></trkpt><trkpt lat="43.1197099" lon="13.2524982"><ele>360.66666666666663</ele><time>2026-04-12T07:28:58.575Z</time></trkpt><trkpt lat="43.1197541" lon="13.2522073"><ele>360.3333333333333</ele><time>2026-04-12T07:28:59.583Z</time></trkpt><trkpt lat="43.1198357" lon="13.2519324"><ele>360.0</ele><time>2026-04-12T07:29:00.578Z</time></trkpt><trkpt lat="43.1199595" lon="13.2516888"><ele>360.0</ele><time>2026-04-12T07:29:01.587Z</time></trkpt><trkpt lat="43.1200943" lon="13.2514625"><ele>360.0</ele><time>2026-04-12T07:29:02.585Z</time></trkpt><trkpt lat="43.1202227" lon="13.2512318"><ele>360.0</ele><time>2026-04-12T07:29:03.583Z</time></trkpt><trkpt lat="43.1203249" lon="13.2509689"><ele>359.6666666666667</ele><time>2026-04-12T07:29:04.581Z</time></trkpt><trkpt lat="43.1203873" lon="13.2506732"><ele>359.33333333333337</ele><time>2026-04-12T07:29:05.581Z</time></trkpt><trkpt lat="43.1204435" lon="13.2503867"><ele>359.0</ele><time>2026-04-12T07:29:06.582Z</time></trkpt><trkpt lat="43.1204617" lon="13.2500943"><ele>358.6666666666667</ele><time>2026-04-12T07:29:07.583Z</time></trkpt><trkpt lat="43.1204872" lon="13.2498057"><ele>358.3333333333333</ele><time>2026-04-12T07:29:08.575Z</time></trkpt><trkpt lat="43.1204764" lon="13.2495084"><ele>358.0</ele><time>2026-04-12T07:29:09.585Z</time></trkpt><trkpt lat="43.1204354" lon="13.2492312"><ele>358.66666666666663</ele><time>2026-04-12T07:29:10.575Z</time></trkpt><trkpt lat="43.120398" lon="13.2489776"><ele>359.3333333333333</ele><time>2026-04-12T07:29:11.586Z</time></trkpt><trkpt lat="43.1203972" lon="13.2487412"><ele>360.0</ele><time>2026-04-12T07:29:12.584Z</time></trkpt><trkpt lat="43.1204467" lon="13.2485064"><ele>361.0</ele><time>2026-04-12T07:29:13.572Z</time></trkpt><trkpt lat="43.1205326" lon="13.2482795"><ele>362.0</ele><time>2026-04-12T07:29:14.576Z</time></trkpt><trkpt lat="43.1206282" lon="13.2480496"><ele>363.0</ele><time>2026-04-12T07:29:15.581Z</time></trkpt><trkpt lat="43.1206931" lon="13.247805"><ele>364.3333333333333</ele><time>2026-04-12T07:29:16.574Z</time></trkpt><trkpt lat="43.1207028" lon="13.247548"><ele>365.66666666666663</ele><time>2026-04-12T07:29:17.583Z</time></trkpt><trkpt lat="43.1206671" lon="13.2472955"><ele>367.0</ele><time>2026-04-12T07:29:18.581Z</time></trkpt><trkpt lat="43.120627" lon="13.2470538"><ele>367.3333333333333</ele><time>2026-04-12T07:29:19.578Z</time></trkpt><trkpt lat="43.1205555" lon="13.2468024"><ele>367.6666666666667</ele><time>2026-04-12T07:29:20.582Z</time></trkpt><trkpt lat="43.1204885" lon="13.2465477"><ele>368.0</ele><time>2026-04-12T07:29:21.58Z</time></trkpt><trkpt lat="43.12041" lon="13.2462806"><ele>370.33333333333337</ele><time>2026-04-12T07:29:22.581Z</time></trkpt><trkpt lat="43.1203373" lon="13.2460151"><ele>372.6666666666667</ele><time>2026-04-12T07:29:23.581Z</time></trkpt><trkpt lat="43.12027" lon="13.2457411"><ele>375.0</ele><time>2026-04-12T07:29:24.585Z</time></trkpt><trkpt lat="43.1201974" lon="13.2454595"><ele>376.3333333333333</ele><time>2026-04-12T07:29:25.578Z</time></trkpt><trkpt lat="43.12012" lon="13.2451749"><ele>377.66666666666663</ele><time>2026-04-12T07:29:26.582Z</time></trkpt><trkpt lat="43.1200403" lon="13.2448907"><ele>379.0</ele><time>2026-04-12T07:29:27.584Z</time></trkpt><trkpt lat="43.1199664" lon="13.2446086"><ele>381.0</ele><time>2026-04-12T07:29:28.584Z</time></trkpt><trkpt lat="43.1199095" lon="13.2443272"><ele>383.0</ele><time>2026-04-12T07:29:29.583Z</time></trkpt><trkpt lat="43.1198853" lon="13.2440385"><ele>385.0</ele><time>2026-04-12T07:29:30.575Z</time></trkpt><trkpt lat="43.1198797" lon="13.2437408"><ele>386.0</ele><time>2026-04-12T07:29:31.578Z</time></trkpt><trkpt lat="43.1198739" lon="13.243432"><ele>387.0</ele><time>2026-04-12T07:29:32.586Z</time></trkpt><trkpt lat="43.1198625" lon="13.2431142"><ele>389.0</ele><time>2026-04-12T07:29:33.581Z</time></trkpt><trkpt lat="43.1198438" lon="13.242784"><ele>391.0</ele><time>2026-04-12T07:29:34.578Z</time></trkpt><trkpt lat="43.1198112" lon="13.2424446"><ele>392.5</ele><time>2026-04-12T07:29:35.583Z</time></trkpt><trkpt lat="43.1197662" lon="13.2421022"><ele>394.0</ele><time>2026-04-12T07:29:36.576Z</time></trkpt><trkpt lat="43.1197124" lon="13.2417589"><ele>395.0</ele><time>2026-04-12T07:29:37.58Z</time></trkpt><trkpt lat="43.1196549" lon="13.2414292"><ele>396.0</ele><time>2026-04-12T07:29:38.583Z</time></trkpt><trkpt lat="43.1196008" lon="13.2411242"><ele>396.0</ele><time>2026-04-12T07:29:39.582Z</time></trkpt><trkpt lat="43.1195516" lon="13.2408399"><ele>396.0</ele><time>2026-04-12T07:29:40.583Z</time></trkpt><trkpt lat="43.1195068" lon="13.2405784"><ele>396.0</ele><time>2026-04-12T07:29:41.577Z</time></trkpt><trkpt lat="43.1194708" lon="13.2403349"><ele>396.33333333333337</ele><time>2026-04-12T07:29:42.584Z</time></trkpt><trkpt lat="43.1194522" lon="13.2401051"><ele>396.6666666666667</ele><time>2026-04-12T07:29:43.584Z</time></trkpt><trkpt lat="43.1194646" lon="13.2398791"><ele>397.0</ele><time>2026-04-12T07:29:44.585Z</time></trkpt><trkpt lat="43.119522" lon="13.2396499"><ele>397.0</ele><time>2026-04-12T07:29:45.579Z</time></trkpt><trkpt lat="43.1196187" lon="13.2394231"><ele>397.0</ele><time>2026-04-12T07:29:46.582Z</time></trkpt><trkpt lat="43.1197372" lon="13.2391937"><ele>397.0</ele><time>2026-04-12T07:29:47.583Z</time></trkpt><trkpt lat="43.1198577" lon="13.2389512"><ele>398.0</ele><time>2026-04-12T07:29:48.577Z</time></trkpt><trkpt lat="43.11997" lon="13.2386897"><ele>399.0</ele><time>2026-04-12T07:29:49.581Z</time></trkpt><trkpt lat="43.120064" lon="13.2384196"><ele>400.0</ele><time>2026-04-12T07:29:50.577Z</time></trkpt><trkpt lat="43.1201423" lon="13.2381611"><ele>398.33333333333337</ele><time>2026-04-12T07:29:51.577Z</time></trkpt><trkpt lat="43.1202156" lon="13.2379262"><ele>396.66666666666663</ele><time>2026-04-12T07:29:52.576Z</time></trkpt><trkpt lat="43.1202867" lon="13.2377185"><ele>395.0</ele><time>2026-04-12T07:29:53.572Z</time></trkpt><trkpt lat="43.1203657" lon="13.2375398"><ele>395.0</ele><time>2026-04-12T07:29:54.578Z</time></trkpt><trkpt lat="43.1204711" lon="13.2373978"><ele>395.0</ele><time>2026-04-12T07:29:55.578Z</time></trkpt><trkpt lat="43.1206066" lon="13.2372998"><ele>395.0</ele><time>2026-04-12T07:29:56.583Z</time></trkpt><trkpt lat="43.120768" lon="13.2372413"><ele>390.66666666666663</ele><time>2026-04-12T07:29:57.597Z</time></trkpt><trkpt lat="43.120943" lon="13.2372228"><ele>386.3333333333333</ele><time>2026-04-12T07:29:58.583Z</time></trkpt><trkpt lat="43.1211211" lon="13.2372492"><ele>382.0</ele><time>2026-04-12T07:29:59.587Z</time></trkpt><trkpt lat="43.1212931" lon="13.2373014"><ele>386.66666666666663</ele><time>2026-04-12T07:30:00.582Z</time></trkpt><trkpt lat="43.1214617" lon="13.2373518"><ele>391.3333333333333</ele><time>2026-04-12T07:30:01.58Z</time></trkpt><trkpt lat="43.1216314" lon="13.2373754"><ele>396.0</ele><time>2026-04-12T07:30:02.576Z</time></trkpt><trkpt lat="43.1218125" lon="13.2373727"><ele>396.0</ele><time>2026-04-12T07:30:03.578Z</time></trkpt><trkpt lat="43.1220054" lon="13.2373476"><ele>396.0</ele><time>2026-04-12T07:30:04.609Z</time></trkpt><trkpt lat="43.1222086" lon="13.237295"><ele>396.0</ele><time>2026-04-12T07:30:05.58Z</time></trkpt><trkpt lat="43.1224163" lon="13.2372221"><ele>390.6666666666667</ele><time>2026-04-12T07:30:06.582Z</time></trkpt><trkpt lat="43.122617" lon="13.2371463"><ele>385.33333333333337</ele><time>2026-04-12T07:30:07.582Z</time></trkpt><trkpt lat="43.1228101" lon="13.2370712"><ele>380.0</ele><time>2026-04-12T07:30:08.583Z</time></trkpt><trkpt lat="43.1229961" lon="13.2369925"><ele>380.0</ele><time>2026-04-12T07:30:09.587Z</time></trkpt><trkpt lat="43.1231692" lon="13.2368918"><ele>380.0</ele><time>2026-04-12T07:30:10.575Z</time></trkpt><trkpt lat="43.1233251" lon="13.2367716"><ele>380.0</ele><time>2026-04-12T07:30:11.591Z</time></trkpt><trkpt lat="43.1234749" lon="13.2366672"><ele>380.0</ele><time>2026-04-12T07:30:12.58Z</time></trkpt><trkpt lat="43.1236216" lon="13.2365843"><ele>380.0</ele><time>2026-04-12T07:30:13.579Z</time></trkpt><trkpt lat="43.12378" lon="13.2365737"><ele>380.0</ele><time>2026-04-12T07:30:14.576Z</time></trkpt><trkpt lat="43.1239267" lon="13.2365596"><ele>382.0</ele><time>2026-04-12T07:30:15.586Z</time></trkpt><trkpt lat="43.1240853" lon="13.2364949"><ele>384.0</ele><time>2026-04-12T07:30:16.584Z</time></trkpt><trkpt lat="43.1242014" lon="13.2363257"><ele>386.0</ele><time>2026-04-12T07:30:17.582Z</time></trkpt><trkpt lat="43.1242839" lon="13.2361536"><ele>382.25</ele><time>2026-04-12T07:30:18.582Z</time></trkpt><trkpt lat="43.1243582" lon="13.2359807"><ele>378.5</ele><time>2026-04-12T07:30:19.576Z</time></trkpt><trkpt lat="43.1244301" lon="13.2358441"><ele>374.75</ele><time>2026-04-12T07:30:20.583Z</time></trkpt><trkpt lat="43.1245469" lon="13.2357876"><ele>371.0</ele><time>2026-04-12T07:30:21.577Z</time></trkpt><trkpt lat="43.1246726" lon="13.2357849"><ele>371.0</ele><time>2026-04-12T07:30:22.611Z</time></trkpt><trkpt lat="43.1248064" lon="13.2358035"><ele>371.0</ele><time>2026-04-12T07:30:23.581Z</time></trkpt><trkpt lat="43.1249318" lon="13.2358323"><ele>371.0</ele><time>2026-04-12T07:30:24.578Z</time></trkpt><trkpt lat="43.1250856" lon="13.2357914"><ele>371.0</ele><time>2026-04-12T07:30:25.584Z</time></trkpt><trkpt lat="43.1252279" lon="13.2356723"><ele>366.0</ele><time>2026-04-12T07:30:26.575Z</time></trkpt><trkpt lat="43.1253559" lon="13.2355081"><ele>361.0</ele><time>2026-04-12T07:30:27.581Z</time></trkpt><trkpt lat="43.1254924" lon="13.235345"><ele>356.0</ele><time>2026-04-12T07:30:28.58Z</time></trkpt><trkpt lat="43.1256558" lon="13.2351965"><ele>357.6666666666667</ele><time>2026-04-12T07:30:29.581Z</time></trkpt><trkpt lat="43.1258394" lon="13.2350563"><ele>359.3333333333333</ele><time>2026-04-12T07:30:30.579Z</time></trkpt><trkpt lat="43.1260341" lon="13.234918"><ele>361.0</ele><time>2026-04-12T07:30:31.575Z</time></trkpt><trkpt lat="43.1262307" lon="13.2347814"><ele>359.66666666666663</ele><time>2026-04-12T07:30:32.588Z</time></trkpt><trkpt lat="43.1264212" lon="13.2346301"><ele>358.3333333333333</ele><time>2026-04-12T07:30:33.583Z</time></trkpt><trkpt lat="43.1265998" lon="13.2344599"><ele>357.0</ele><time>2026-04-12T07:30:34.578Z</time></trkpt><trkpt lat="43.126773" lon="13.2342718"><ele>357.0</ele><time>2026-04-12T07:30:35.586Z</time></trkpt><trkpt lat="43.1268991" lon="13.2340513"><ele>357.0</ele><time>2026-04-12T07:30:36.579Z</time></trkpt><trkpt lat="43.1269941" lon="13.2338045"><ele>357.0</ele><time>2026-04-12T07:30:37.588Z</time></trkpt><trkpt lat="43.1270919" lon="13.233571"><ele>357.3333333333333</ele><time>2026-04-12T07:30:38.58Z</time></trkpt><trkpt lat="43.1272211" lon="13.2333816"><ele>357.66666666666663</ele><time>2026-04-12T07:30:39.582Z</time></trkpt><trkpt lat="43.1274062" lon="13.2332528"><ele>358.0</ele><time>2026-04-12T07:30:40.575Z</time></trkpt><trkpt lat="43.1275914" lon="13.2331378"><ele>353.66666666666663</ele><time>2026-04-12T07:30:41.583Z</time></trkpt><trkpt lat="43.1278014" lon="13.2330391"><ele>349.3333333333333</ele><time>2026-04-12T07:30:42.583Z</time></trkpt><trkpt lat="43.1279963" lon="13.2329293"><ele>345.0</ele><time>2026-04-12T07:30:43.583Z</time></trkpt><trkpt lat="43.1281982" lon="13.2328186"><ele>348.3333333333333</ele><time>2026-04-12T07:30:44.578Z</time></trkpt><trkpt lat="43.1284093" lon="13.2327154"><ele>351.66666666666663</ele><time>2026-04-12T07:30:45.582Z</time></trkpt><trkpt lat="43.128616" lon="13.2326068"><ele>355.0</ele><time>2026-04-12T07:30:46.581Z</time></trkpt><trkpt lat="43.1288195" lon="13.2324981"><ele>355.0</ele><time>2026-04-12T07:30:47.578Z</time></trkpt><trkpt lat="43.1290217" lon="13.2323858"><ele>355.0</ele><time>2026-04-12T07:30:48.598Z</time></trkpt><trkpt lat="43.1292159" lon="13.2322662"><ele>355.0</ele><time>2026-04-12T07:30:49.578Z</time></trkpt><trkpt lat="43.1294016" lon="13.2321471"><ele>354.0</ele><time>2026-04-12T07:30:50.582Z</time></trkpt><trkpt lat="43.1295774" lon="13.23203"><ele>353.0</ele><time>2026-04-12T07:30:51.583Z</time></trkpt><trkpt lat="43.1297518" lon="13.2319133"><ele>352.0</ele><time>2026-04-12T07:30:52.58Z</time></trkpt><trkpt lat="43.1299133" lon="13.2317637"><ele>352.0</ele><time>2026-04-12T07:30:53.58Z</time></trkpt><trkpt lat="43.1300703" lon="13.2315963"><ele>352.0</ele><time>2026-04-12T07:30:54.579Z</time></trkpt><trkpt lat="43.1302133" lon="13.2314052"><ele>352.0</ele><time>2026-04-12T07:30:55.581Z</time></trkpt><trkpt lat="43.130339" lon="13.2311987"><ele>350.3333333333333</ele><time>2026-04-12T07:30:56.582Z</time></trkpt><trkpt lat="43.1304617" lon="13.2309842"><ele>348.6666666666667</ele><time>2026-04-12T07:30:57.585Z</time></trkpt><trkpt lat="43.1305859" lon="13.2307648"><ele>347.0</ele><time>2026-04-12T07:30:58.584Z</time></trkpt><trkpt lat="43.1307186" lon="13.2305625"><ele>345.0</ele><time>2026-04-12T07:30:59.583Z</time></trkpt><trkpt lat="43.1308514" lon="13.2303736"><ele>343.0</ele><time>2026-04-12T07:31:00.585Z</time></trkpt><trkpt lat="43.1309828" lon="13.2301919"><ele>341.0</ele><time>2026-04-12T07:31:01.584Z</time></trkpt><trkpt lat="43.1311033" lon="13.2300211"><ele>341.0</ele><time>2026-04-12T07:31:02.578Z</time></trkpt><trkpt lat="43.1312175" lon="13.2298533"><ele>341.0</ele><time>2026-04-12T07:31:03.58Z</time></trkpt><trkpt lat="43.131317" lon="13.2296573"><ele>341.0</ele><time>2026-04-12T07:31:04.583Z</time></trkpt><trkpt lat="43.1314035" lon="13.2294428"><ele>340.33333333333337</ele><time>2026-04-12T07:31:05.581Z</time></trkpt><trkpt lat="43.1314784" lon="13.2292208"><ele>339.6666666666667</ele><time>2026-04-12T07:31:06.579Z</time></trkpt><trkpt lat="43.1315475" lon="13.2290079"><ele>339.0</ele><time>2026-04-12T07:31:07.574Z</time></trkpt><trkpt lat="43.1316165" lon="13.2288051"><ele>337.5</ele><time>2026-04-12T07:31:08.585Z</time></trkpt><trkpt lat="43.1316824" lon="13.2286235"><ele>336.0</ele><time>2026-04-12T07:31:09.584Z</time></trkpt><trkpt lat="43.131763" lon="13.2284704"><ele>334.5</ele><time>2026-04-12T07:31:10.578Z</time></trkpt><trkpt lat="43.1318715" lon="13.2283712"><ele>333.0</ele><time>2026-04-12T07:31:11.6Z</time></trkpt><trkpt lat="43.1319967" lon="13.228332"><ele>333.0</ele><time>2026-04-12T07:31:12.584Z</time></trkpt><trkpt lat="43.132127" lon="13.2283467"><ele>333.0</ele><time>2026-04-12T07:31:13.579Z</time></trkpt><trkpt lat="43.1322554" lon="13.2283905"><ele>333.0</ele><time>2026-04-12T07:31:14.572Z</time></trkpt><trkpt lat="43.1323764" lon="13.228437"><ele>333.0</ele><time>2026-04-12T07:31:15.577Z</time></trkpt><trkpt lat="43.1324932" lon="13.2284721"><ele>331.75</ele><time>2026-04-12T07:31:16.578Z</time></trkpt><trkpt lat="43.1326068" lon="13.2284934"><ele>330.5</ele><time>2026-04-12T07:31:17.576Z</time></trkpt><trkpt lat="43.1327082" lon="13.2284303"><ele>329.25</ele><time>2026-04-12T07:31:18.601Z</time></trkpt><trkpt lat="43.1328051" lon="13.2283375"><ele>328.0</ele><time>2026-04-12T07:31:19.581Z</time></trkpt><trkpt lat="43.1328344" lon="13.2281565"><ele>327.3333333333333</ele><time>2026-04-12T07:31:20.583Z</time></trkpt><trkpt lat="43.1328467" lon="13.2279566"><ele>326.6666666666667</ele><time>2026-04-12T07:31:21.579Z</time></trkpt><trkpt lat="43.132846" lon="13.2277335"><ele>326.0</ele><time>2026-04-12T07:31:22.576Z</time></trkpt><trkpt lat="43.1328446" lon="13.2275084"><ele>324.6666666666667</ele><time>2026-04-12T07:31:23.581Z</time></trkpt><trkpt lat="43.1328468" lon="13.2272981"><ele>323.3333333333333</ele><time>2026-04-12T07:31:24.584Z</time></trkpt><trkpt lat="43.1328585" lon="13.2270957"><ele>322.0</ele><time>2026-04-12T07:31:25.577Z</time></trkpt><trkpt lat="43.1328963" lon="13.2268932"><ele>322.0</ele><time>2026-04-12T07:31:26.586Z</time></trkpt><trkpt lat="43.1329467" lon="13.2266942"><ele>322.0</ele><time>2026-04-12T07:31:27.578Z</time></trkpt><trkpt lat="43.1330369" lon="13.2265177"><ele>322.0</ele><time>2026-04-12T07:31:28.582Z</time></trkpt><trkpt lat="43.1331234" lon="13.2263618"><ele>321.75</ele><time>2026-04-12T07:31:29.583Z</time></trkpt><trkpt lat="43.1332221" lon="13.226238"><ele>321.5</ele><time>2026-04-12T07:31:30.582Z</time></trkpt><trkpt lat="43.1333205" lon="13.2261292"><ele>321.25</ele><time>2026-04-12T07:31:31.583Z</time></trkpt><trkpt lat="43.1334501" lon="13.2261106"><ele>321.0</ele><time>2026-04-12T07:31:32.58Z</time></trkpt><trkpt lat="43.1335957" lon="13.2261303"><ele>321.0</ele><time>2026-04-12T07:31:33.574Z</time></trkpt><trkpt lat="43.1337466" lon="13.2261474"><ele>321.0</ele><time>2026-04-12T07:31:34.575Z</time></trkpt><trkpt lat="43.1339168" lon="13.2261629"><ele>321.0</ele><time>2026-04-12T07:31:35.582Z</time></trkpt><trkpt lat="43.1340967" lon="13.2261715"><ele>322.3333333333333</ele><time>2026-04-12T07:31:36.579Z</time></trkpt><trkpt lat="43.13429" lon="13.2261838"><ele>323.66666666666663</ele><time>2026-04-12T07:31:37.577Z</time></trkpt><trkpt lat="43.1344933" lon="13.2261878"><ele>325.0</ele><time>2026-04-12T07:31:38.582Z</time></trkpt><trkpt lat="43.1347034" lon="13.22619"><ele>324.3333333333333</ele><time>2026-04-12T07:31:39.575Z</time></trkpt><trkpt lat="43.1349128" lon="13.2261858"><ele>323.6666666666667</ele><time>2026-04-12T07:31:40.594Z</time></trkpt><trkpt lat="43.1351222" lon="13.2261539"><ele>323.0</ele><time>2026-04-12T07:31:41.579Z</time></trkpt><trkpt lat="43.1353317" lon="13.2261518"><ele>323.0</ele><time>2026-04-12T07:31:42.581Z</time></trkpt><trkpt lat="43.1355508" lon="13.226138"><ele>323.0</ele><time>2026-04-12T07:31:43.584Z</time></trkpt><trkpt lat="43.1357681" lon="13.2261242"><ele>323.0</ele><time>2026-04-12T07:31:44.582Z</time></trkpt><trkpt lat="43.1359863" lon="13.2261111"><ele>322.6666666666667</ele><time>2026-04-12T07:31:45.6Z</time></trkpt><trkpt lat="43.1361977" lon="13.2260972"><ele>322.3333333333333</ele><time>2026-04-12T07:31:46.583Z</time></trkpt><trkpt lat="43.1363934" lon="13.2260851"><ele>322.0</ele><time>2026-04-12T07:31:47.582Z</time></trkpt><trkpt lat="43.1365745" lon="13.2260709"><ele>322.0</ele><time>2026-04-12T07:31:48.578Z</time></trkpt><trkpt lat="43.1367434" lon="13.2260583"><ele>322.0</ele><time>2026-04-12T07:31:49.577Z</time></trkpt><trkpt lat="43.136893" lon="13.2260488"><ele>322.0</ele><time>2026-04-12T07:31:50.584Z</time></trkpt><trkpt lat="43.1370355" lon="13.2260398"><ele>322.0</ele><time>2026-04-12T07:31:51.588Z</time></trkpt><trkpt lat="43.1371651" lon="13.2260403"><ele>322.0</ele><time>2026-04-12T07:31:52.58Z</time></trkpt><trkpt lat="43.1372925" lon="13.2260557"><ele>322.0</ele><time>2026-04-12T07:31:53.582Z</time></trkpt><trkpt lat="43.1374231" lon="13.226095"><ele>322.0</ele><time>2026-04-12T07:31:54.586Z</time></trkpt><trkpt lat="43.137553" lon="13.2261497"><ele>322.0</ele><time>2026-04-12T07:31:55.583Z</time></trkpt><trkpt lat="43.1376757" lon="13.2262602"><ele>322.0</ele><time>2026-04-12T07:31:56.594Z</time></trkpt><trkpt lat="43.1378151" lon="13.2262826"><ele>322.0</ele><time>2026-04-12T07:31:57.581Z</time></trkpt><trkpt lat="43.1379446" lon="13.226251"><ele>322.0</ele><time>2026-04-12T07:31:58.584Z</time></trkpt><trkpt lat="43.1380906" lon="13.22619"><ele>322.0</ele><time>2026-04-12T07:31:59.59Z</time></trkpt><trkpt lat="43.1382089" lon="13.2261258"><ele>322.0</ele><time>2026-04-12T07:32:00.584Z</time></trkpt><trkpt lat="43.138324" lon="13.226064"><ele>322.0</ele><time>2026-04-12T07:32:01.577Z</time></trkpt><trkpt lat="43.138435" lon="13.2260002"><ele>322.0</ele><time>2026-04-12T07:32:02.582Z</time></trkpt><trkpt lat="43.1385421" lon="13.2259179"><ele>321.5</ele><time>2026-04-12T07:32:03.585Z</time></trkpt><trkpt lat="43.1386545" lon="13.2258338"><ele>321.0</ele><time>2026-04-12T07:32:04.575Z</time></trkpt><trkpt lat="43.1387744" lon="13.2257433"><ele>320.5</ele><time>2026-04-12T07:32:05.592Z</time></trkpt><trkpt lat="43.1388942" lon="13.2256452"><ele>320.0</ele><time>2026-04-12T07:32:06.581Z</time></trkpt><trkpt lat="43.139004" lon="13.2255501"><ele>318.75</ele><time>2026-04-12T07:32:07.583Z</time></trkpt><trkpt lat="43.1391268" lon="13.2254495"><ele>317.5</ele><time>2026-04-12T07:32:08.575Z</time></trkpt><trkpt lat="43.1392478" lon="13.225361"><ele>316.25</ele><time>2026-04-12T07:32:09.583Z</time></trkpt><trkpt lat="43.1393694" lon="13.2252463"><ele>315.0</ele><time>2026-04-12T07:32:10.575Z</time></trkpt><trkpt lat="43.1394995" lon="13.2251295"><ele>315.0</ele><time>2026-04-12T07:32:11.577Z</time></trkpt><trkpt lat="43.1396311" lon="13.2250112"><ele>315.0</ele><time>2026-04-12T07:32:12.573Z</time></trkpt><trkpt lat="43.1397602" lon="13.2248952"><ele>315.0</ele><time>2026-04-12T07:32:13.581Z</time></trkpt><trkpt lat="43.1399118" lon="13.2248142"><ele>312.3333333333333</ele><time>2026-04-12T07:32:14.581Z</time></trkpt><trkpt lat="43.1400508" lon="13.2246922"><ele>309.66666666666663</ele><time>2026-04-12T07:32:15.578Z</time></trkpt><trkpt lat="43.1401893" lon="13.2245672"><ele>307.0</ele><time>2026-04-12T07:32:16.586Z</time></trkpt><trkpt lat="43.140328" lon="13.2244473"><ele>307.0</ele><time>2026-04-12T07:32:17.58Z</time></trkpt><trkpt lat="43.1404705" lon="13.2243217"><ele>307.0</ele><time>2026-04-12T07:32:18.581Z</time></trkpt><trkpt lat="43.1406166" lon="13.2241993"><ele>307.0</ele><time>2026-04-12T07:32:19.577Z</time></trkpt><trkpt lat="43.1407677" lon="13.2240785"><ele>306.75</ele><time>2026-04-12T07:32:20.586Z</time></trkpt><trkpt lat="43.1409122" lon="13.22396"><ele>306.5</ele><time>2026-04-12T07:32:21.582Z</time></trkpt><trkpt lat="43.1410299" lon="13.2238582"><ele>306.25</ele><time>2026-04-12T07:32:22.59Z</time></trkpt><trkpt lat="43.1411354" lon="13.2237741"><ele>306.0</ele><time>2026-04-12T07:32:23.578Z</time></trkpt><trkpt lat="43.1412361" lon="13.2236958"><ele>306.0</ele><time>2026-04-12T07:32:24.579Z</time></trkpt><trkpt lat="43.1413456" lon="13.2236152"><ele>306.0</ele><time>2026-04-12T07:32:25.582Z</time></trkpt><trkpt lat="43.1414645" lon="13.2235258"><ele>306.0</ele><time>2026-04-12T07:32:26.579Z</time></trkpt><trkpt lat="43.1415867" lon="13.2234177"><ele>306.0</ele><time>2026-04-12T07:32:27.58Z</time></trkpt><trkpt lat="43.1417084" lon="13.2232852"><ele>305.3333333333333</ele><time>2026-04-12T07:32:28.587Z</time></trkpt><trkpt lat="43.141807" lon="13.2231118"><ele>304.66666666666663</ele><time>2026-04-12T07:32:29.578Z</time></trkpt><trkpt lat="43.1418731" lon="13.2229036"><ele>304.0</ele><time>2026-04-12T07:32:30.608Z</time></trkpt><trkpt lat="43.1419174" lon="13.2226766"><ele>304.0</ele><time>2026-04-12T07:32:31.588Z</time></trkpt><trkpt lat="43.1419534" lon="13.2224417"><ele>304.0</ele><time>2026-04-12T07:32:32.587Z</time></trkpt><trkpt lat="43.1419908" lon="13.2222025"><ele>304.0</ele><time>2026-04-12T07:32:33.58Z</time></trkpt><trkpt lat="43.142025" lon="13.221966"><ele>303.3333333333333</ele><time>2026-04-12T07:32:34.584Z</time></trkpt><trkpt lat="43.1420602" lon="13.2217331"><ele>302.6666666666667</ele><time>2026-04-12T07:32:35.582Z</time></trkpt><trkpt lat="43.142094" lon="13.2214965"><ele>302.0</ele><time>2026-04-12T07:32:36.578Z</time></trkpt><trkpt lat="43.1421284" lon="13.2212542"><ele>301.33333333333337</ele><time>2026-04-12T07:32:37.58Z</time></trkpt><trkpt lat="43.1421654" lon="13.2210071"><ele>300.6666666666667</ele><time>2026-04-12T07:32:38.583Z</time></trkpt><trkpt lat="43.1422025" lon="13.2207545"><ele>300.0</ele><time>2026-04-12T07:32:39.583Z</time></trkpt><trkpt lat="43.1422406" lon="13.2204967"><ele>299.0</ele><time>2026-04-12T07:32:40.582Z</time></trkpt><trkpt lat="43.1422815" lon="13.2202308"><ele>298.0</ele><time>2026-04-12T07:32:41.602Z</time></trkpt><trkpt lat="43.1423161" lon="13.2199649"><ele>297.0</ele><time>2026-04-12T07:32:42.581Z</time></trkpt><trkpt lat="43.1423599" lon="13.2196628"><ele>295.5</ele><time>2026-04-12T07:32:43.582Z</time></trkpt><trkpt lat="43.1424055" lon="13.2193467"><ele>294.0</ele><time>2026-04-12T07:32:44.583Z</time></trkpt><trkpt lat="43.1424585" lon="13.2190117"><ele>293.5</ele><time>2026-04-12T07:32:45.575Z</time></trkpt><trkpt lat="43.1425156" lon="13.2186827"><ele>293.0</ele><time>2026-04-12T07:32:46.609Z</time></trkpt><trkpt lat="43.1425728" lon="13.2183336"><ele>291.5</ele><time>2026-04-12T07:32:47.575Z</time></trkpt><trkpt lat="43.1426226" lon="13.2179864"><ele>290.0</ele><time>2026-04-12T07:32:48.58Z</time></trkpt><trkpt lat="43.1426713" lon="13.2176416"><ele>289.0</ele><time>2026-04-12T07:32:49.576Z</time></trkpt><trkpt lat="43.1427157" lon="13.2173017"><ele>288.0</ele><time>2026-04-12T07:32:50.579Z</time></trkpt><trkpt lat="43.1427601" lon="13.2169806"><ele>288.0</ele><time>2026-04-12T07:32:51.579Z</time></trkpt><trkpt lat="43.1428056" lon="13.2166692"><ele>288.0</ele><time>2026-04-12T07:32:52.584Z</time></trkpt><trkpt lat="43.1428472" lon="13.2163655"><ele>287.6666666666667</ele><time>2026-04-12T07:32:53.582Z</time></trkpt><trkpt lat="43.1428904" lon="13.2160706"><ele>287.33333333333337</ele><time>2026-04-12T07:32:54.575Z</time></trkpt><trkpt lat="43.142927" lon="13.2157955"><ele>287.0</ele><time>2026-04-12T07:32:55.581Z</time></trkpt><trkpt lat="43.1429688" lon="13.215526"><ele>287.6666666666667</ele><time>2026-04-12T07:32:56.574Z</time></trkpt><trkpt lat="43.1430078" lon="13.2152893"><ele>288.3333333333333</ele><time>2026-04-12T07:32:57.578Z</time></trkpt><trkpt lat="43.1430416" lon="13.2150728"><ele>289.0</ele><time>2026-04-12T07:32:58.611Z</time></trkpt><trkpt lat="43.1430702" lon="13.2148688"><ele>289.3333333333333</ele><time>2026-04-12T07:32:59.577Z</time></trkpt><trkpt lat="43.1430471" lon="13.2146737"><ele>289.6666666666667</ele><time>2026-04-12T07:33:00.581Z</time></trkpt><trkpt lat="43.1429681" lon="13.2144767"><ele>290.0</ele><time>2026-04-12T07:33:01.575Z</time></trkpt><trkpt lat="43.142837" lon="13.2142952"><ele>290.0</ele><time>2026-04-12T07:33:02.577Z</time></trkpt><trkpt lat="43.1426915" lon="13.2141128"><ele>290.0</ele><time>2026-04-12T07:33:03.585Z</time></trkpt><trkpt lat="43.1425407" lon="13.2139251"><ele>290.0</ele><time>2026-04-12T07:33:04.582Z</time></trkpt><trkpt lat="43.1423858" lon="13.2137404"><ele>291.0</ele><time>2026-04-12T07:33:05.601Z</time></trkpt><trkpt lat="43.1422384" lon="13.2135647"><ele>292.0</ele><time>2026-04-12T07:33:06.581Z</time></trkpt><trkpt lat="43.1420915" lon="13.2133871"><ele>293.0</ele><time>2026-04-12T07:33:07.581Z</time></trkpt><trkpt lat="43.1419361" lon="13.2132032"><ele>292.33333333333337</ele><time>2026-04-12T07:33:08.593Z</time></trkpt><trkpt lat="43.1417734" lon="13.2130116"><ele>291.6666666666667</ele><time>2026-04-12T07:33:09.588Z</time></trkpt><trkpt lat="43.1416162" lon="13.2128202"><ele>291.0</ele><time>2026-04-12T07:33:10.591Z</time></trkpt><trkpt lat="43.1414723" lon="13.2126447"><ele>290.6666666666667</ele><time>2026-04-12T07:33:11.583Z</time></trkpt><trkpt lat="43.1413427" lon="13.2124876"><ele>290.33333333333337</ele><time>2026-04-12T07:33:12.573Z</time></trkpt><trkpt lat="43.1412253" lon="13.2123446"><ele>290.0</ele><time>2026-04-12T07:33:13.578Z</time></trkpt><trkpt lat="43.1411138" lon="13.2122086"><ele>290.0</ele><time>2026-04-12T07:33:14.586Z</time></trkpt><trkpt lat="43.141016" lon="13.2120653"><ele>290.0</ele><time>2026-04-12T07:33:15.586Z</time></trkpt><trkpt lat="43.1409507" lon="13.211893"><ele>290.0</ele><time>2026-04-12T07:33:16.584Z</time></trkpt><trkpt lat="43.1409246" lon="13.2116898"><ele>290.0</ele><time>2026-04-12T07:33:17.574Z</time></trkpt><trkpt lat="43.1409257" lon="13.2114651"><ele>291.33333333333337</ele><time>2026-04-12T07:33:18.579Z</time></trkpt><trkpt lat="43.1409425" lon="13.2112242"><ele>292.6666666666667</ele><time>2026-04-12T07:33:19.574Z</time></trkpt><trkpt lat="43.1409681" lon="13.2109698"><ele>294.0</ele><time>2026-04-12T07:33:20.585Z</time></trkpt><trkpt lat="43.1409927" lon="13.2106949"><ele>295.0</ele><time>2026-04-12T07:33:21.576Z</time></trkpt><trkpt lat="43.141015" lon="13.210402"><ele>296.0</ele><time>2026-04-12T07:33:22.583Z</time></trkpt><trkpt lat="43.1410363" lon="13.2101"><ele>297.0</ele><time>2026-04-12T07:33:23.575Z</time></trkpt><trkpt lat="43.1410556" lon="13.2098023"><ele>297.6666666666667</ele><time>2026-04-12T07:33:24.583Z</time></trkpt><trkpt lat="43.141067" lon="13.209522"><ele>298.33333333333337</ele><time>2026-04-12T07:33:25.584Z</time></trkpt><trkpt lat="43.1410727" lon="13.2092574"><ele>299.0</ele><time>2026-04-12T07:33:26.574Z</time></trkpt><trkpt lat="43.1410744" lon="13.2090153"><ele>300.0</ele><time>2026-04-12T07:33:27.581Z</time></trkpt><trkpt lat="43.1410739" lon="13.2087961"><ele>301.0</ele><time>2026-04-12T07:33:28.576Z</time></trkpt><trkpt lat="43.1410791" lon="13.2085952"><ele>302.0</ele><time>2026-04-12T07:33:29.582Z</time></trkpt><trkpt lat="43.1411154" lon="13.2084191"><ele>303.0</ele><time>2026-04-12T07:33:30.575Z</time></trkpt><trkpt lat="43.1411903" lon="13.2082854"><ele>303.0</ele><time>2026-04-12T07:33:31.575Z</time></trkpt><trkpt lat="43.1412988" lon="13.2081961"><ele>303.0</ele><time>2026-04-12T07:33:32.587Z</time></trkpt><trkpt lat="43.141431" lon="13.2081504"><ele>303.0</ele><time>2026-04-12T07:33:33.579Z</time></trkpt><trkpt lat="43.1415811" lon="13.2081303"><ele>303.0</ele><time>2026-04-12T07:33:34.583Z</time></trkpt><trkpt lat="43.141745" lon="13.2081103"><ele>300.3333333333333</ele><time>2026-04-12T07:33:35.577Z</time></trkpt><trkpt lat="43.1419194" lon="13.2080835"><ele>297.66666666666663</ele><time>2026-04-12T07:33:36.585Z</time></trkpt><trkpt lat="43.142102" lon="13.2080561"><ele>295.0</ele><time>2026-04-12T07:33:37.578Z</time></trkpt><trkpt lat="43.1422942" lon="13.2080305"><ele>293.3333333333333</ele><time>2026-04-12T07:33:38.583Z</time></trkpt><trkpt lat="43.1424859" lon="13.2080048"><ele>291.6666666666667</ele><time>2026-04-12T07:33:39.582Z</time></trkpt><trkpt lat="43.1426733" lon="13.2079678"><ele>290.0</ele><time>2026-04-12T07:33:40.584Z</time></trkpt><trkpt lat="43.1428599" lon="13.2079002"><ele>290.0</ele><time>2026-04-12T07:33:41.579Z</time></trkpt><trkpt lat="43.1430441" lon="13.2077933"><ele>290.0</ele><time>2026-04-12T07:33:42.582Z</time></trkpt><trkpt lat="43.1432268" lon="13.2076655"><ele>290.0</ele><time>2026-04-12T07:33:43.577Z</time></trkpt><trkpt lat="43.1434106" lon="13.207534"><ele>289.6666666666667</ele><time>2026-04-12T07:33:44.589Z</time></trkpt><trkpt lat="43.1435941" lon="13.2074043"><ele>289.3333333333333</ele><time>2026-04-12T07:33:45.58Z</time></trkpt><trkpt lat="43.1437696" lon="13.2072783"><ele>289.0</ele><time>2026-04-12T07:33:46.583Z</time></trkpt><trkpt lat="43.1439327" lon="13.207156"><ele>288.3333333333333</ele><time>2026-04-12T07:33:47.582Z</time></trkpt><trkpt lat="43.1440786" lon="13.2070415"><ele>287.6666666666667</ele><time>2026-04-12T07:33:48.584Z</time></trkpt><trkpt lat="43.1442142" lon="13.2069406"><ele>287.0</ele><time>2026-04-12T07:33:49.581Z</time></trkpt><trkpt lat="43.1443416" lon="13.2068575"><ele>287.0</ele><time>2026-04-12T07:33:50.579Z</time></trkpt><trkpt lat="43.1444726" lon="13.2068227"><ele>287.0</ele><time>2026-04-12T07:33:51.587Z</time></trkpt><trkpt lat="43.1446058" lon="13.2068599"><ele>287.0</ele><time>2026-04-12T07:33:52.58Z</time></trkpt><trkpt lat="43.1447361" lon="13.2069579"><ele>287.0</ele><time>2026-04-12T07:33:53.591Z</time></trkpt><trkpt lat="43.1448747" lon="13.207064"><ele>285.6666666666667</ele><time>2026-04-12T07:33:54.58Z</time></trkpt><trkpt lat="43.1450238" lon="13.2071892"><ele>284.3333333333333</ele><time>2026-04-12T07:33:55.574Z</time></trkpt><trkpt lat="43.1451847" lon="13.2073296"><ele>283.0</ele><time>2026-04-12T07:33:56.584Z</time></trkpt><trkpt lat="43.1453528" lon="13.2074773"><ele>282.3333333333333</ele><time>2026-04-12T07:33:57.585Z</time></trkpt><trkpt lat="43.1455208" lon="13.2076277"><ele>281.6666666666667</ele><time>2026-04-12T07:33:58.61Z</time></trkpt><trkpt lat="43.1456809" lon="13.2077712"><ele>281.0</ele><time>2026-04-12T07:33:59.581Z</time></trkpt><trkpt lat="43.14583" lon="13.2079037"><ele>281.5</ele><time>2026-04-12T07:34:00.585Z</time></trkpt><trkpt lat="43.1459648" lon="13.2080281"><ele>282.0</ele><time>2026-04-12T07:34:01.577Z</time></trkpt><trkpt lat="43.1460912" lon="13.2081422"><ele>282.5</ele><time>2026-04-12T07:34:02.586Z</time></trkpt><trkpt lat="43.1462015" lon="13.2082237"><ele>283.0</ele><time>2026-04-12T07:34:03.582Z</time></trkpt><trkpt lat="43.1463116" lon="13.2082635"><ele>283.0</ele><time>2026-04-12T07:34:04.581Z</time></trkpt><trkpt lat="43.1464054" lon="13.2082624"><ele>283.0</ele><time>2026-04-12T07:34:05.583Z</time></trkpt><trkpt lat="43.1464758" lon="13.2082358"><ele>283.0</ele><time>2026-04-12T07:34:06.581Z</time></trkpt><trkpt lat="43.1465662" lon="13.2081887"><ele>283.0</ele><time>2026-04-12T07:34:08.584Z</time></trkpt><trkpt lat="43.1466067" lon="13.2080997"><ele>283.0</ele><time>2026-04-12T07:34:10.591Z</time></trkpt><trkpt lat="43.1465963" lon="13.208011"><ele>283.0</ele><time>2026-04-12T07:34:11.58Z</time></trkpt><trkpt lat="43.1465636" lon="13.2079334"><ele>284.16666666666663</ele><time>2026-04-12T07:34:12.589Z</time></trkpt><trkpt lat="43.1464882" lon="13.2078562"><ele>285.3333333333333</ele><time>2026-04-12T07:34:14.584Z</time></trkpt><trkpt lat="43.1464148" lon="13.2078027"><ele>286.5</ele><time>2026-04-12T07:34:17.592Z</time></trkpt><trkpt lat="43.1463642" lon="13.2076908"><ele>287.6666666666667</ele><time>2026-04-12T07:42:53.573Z</time></trkpt><trkpt lat="43.1463989" lon="13.2075837"><ele>288.83333333333337</ele><time>2026-04-12T07:43:07.587Z</time></trkpt><trkpt lat="43.1464012" lon="13.2074928"><ele>290.0</ele><time>2026-04-12T07:43:09.596Z</time></trkpt><trkpt lat="43.146362" lon="13.2073978"><ele>290.0</ele><time>2026-04-12T07:43:11.586Z</time></trkpt><trkpt lat="43.1463342" lon="13.207291"><ele>290.0</ele><time>2026-04-12T07:43:13.597Z</time></trkpt><trkpt lat="43.1463067" lon="13.2071661"><ele>290.0</ele><time>2026-04-12T07:43:15.592Z</time></trkpt><trkpt lat="43.1462882" lon="13.20699"><ele>290.0</ele><time>2026-04-12T07:43:17.59Z</time></trkpt><trkpt lat="43.1462858" lon="13.2068859"><ele>290.0</ele><time>2026-04-12T07:43:18.583Z</time></trkpt><trkpt lat="43.1462864" lon="13.2067788"><ele>290.0</ele><time>2026-04-12T07:43:19.588Z</time></trkpt><trkpt lat="43.1462918" lon="13.206664"><ele>290.0</ele><time>2026-04-12T07:43:20.587Z</time></trkpt><trkpt lat="43.1463041" lon="13.2065405"><ele>290.0</ele><time>2026-04-12T07:43:21.596Z</time></trkpt><trkpt lat="43.146324" lon="13.2064175"><ele>290.0</ele><time>2026-04-12T07:43:22.587Z</time></trkpt><trkpt lat="43.1463488" lon="13.2062966"><ele>290.0</ele><time>2026-04-12T07:43:23.593Z</time></trkpt><trkpt lat="43.1463804" lon="13.206185"><ele>290.0</ele><time>2026-04-12T07:43:24.596Z</time></trkpt><trkpt lat="43.1464132" lon="13.206071"><ele>289.33333333333337</ele><time>2026-04-12T07:43:25.597Z</time></trkpt><trkpt lat="43.1464566" lon="13.2059663"><ele>288.6666666666667</ele><time>2026-04-12T07:43:26.596Z</time></trkpt><trkpt lat="43.1465058" lon="13.2058683"><ele>288.0</ele><time>2026-04-12T07:43:27.597Z</time></trkpt><trkpt lat="43.1465542" lon="13.2057794"><ele>287.3333333333333</ele><time>2026-04-12T07:43:28.575Z</time></trkpt><trkpt lat="43.1466004" lon="13.2056947"><ele>286.66666666666663</ele><time>2026-04-12T07:43:29.595Z</time></trkpt><trkpt lat="43.1466403" lon="13.2056232"><ele>286.0</ele><time>2026-04-12T07:43:30.588Z</time></trkpt><trkpt lat="43.1467102" lon="13.2054899"><ele>288.2</ele><time>2026-04-12T07:43:32.582Z</time></trkpt><trkpt lat="43.1467641" lon="13.2053807"><ele>290.40000000000003</ele><time>2026-04-12T07:43:34.583Z</time></trkpt><trkpt lat="43.1468337" lon="13.205234"><ele>292.6</ele><time>2026-04-12T07:43:36.59Z</time></trkpt><trkpt lat="43.1468714" lon="13.2051217"><ele>294.8</ele><time>2026-04-12T07:43:37.595Z</time></trkpt><trkpt lat="43.1469001" lon="13.204996"><ele>297.0</ele><time>2026-04-12T07:43:38.584Z</time></trkpt><trkpt lat="43.1469226" lon="13.2048613"><ele>298.0</ele><time>2026-04-12T07:43:39.603Z</time></trkpt><trkpt lat="43.1469367" lon="13.2047087"><ele>299.0</ele><time>2026-04-12T07:43:40.579Z</time></trkpt><trkpt lat="43.1469389" lon="13.2045325"><ele>300.0</ele><time>2026-04-12T07:43:41.595Z</time></trkpt><trkpt lat="43.1469297" lon="13.2043364"><ele>301.0</ele><time>2026-04-12T07:43:42.584Z</time></trkpt><trkpt lat="43.146915" lon="13.2041098"><ele>300.66666666666663</ele><time>2026-04-12T07:43:43.589Z</time></trkpt><trkpt lat="43.1468985" lon="13.2038617"><ele>300.3333333333333</ele><time>2026-04-12T07:43:44.588Z</time></trkpt><trkpt lat="43.1468801" lon="13.2036075"><ele>300.0</ele><time>2026-04-12T07:43:45.591Z</time></trkpt><trkpt lat="43.1468689" lon="13.203368"><ele>300.6666666666667</ele><time>2026-04-12T07:43:46.588Z</time></trkpt><trkpt lat="43.1468628" lon="13.2031291"><ele>301.33333333333337</ele><time>2026-04-12T07:43:47.602Z</time></trkpt><trkpt lat="43.1468594" lon="13.2028781"><ele>302.0</ele><time>2026-04-12T07:43:48.583Z</time></trkpt><trkpt lat="43.1468581" lon="13.2026244"><ele>302.0</ele><time>2026-04-12T07:43:49.602Z</time></trkpt><trkpt lat="43.1468558" lon="13.2023808"><ele>302.0</ele><time>2026-04-12T07:43:50.586Z</time></trkpt><trkpt lat="43.1468521" lon="13.2021537"><ele>302.0</ele><time>2026-04-12T07:43:51.592Z</time></trkpt><trkpt lat="43.1468467" lon="13.2019418"><ele>303.0</ele><time>2026-04-12T07:43:52.584Z</time></trkpt><trkpt lat="43.1468377" lon="13.2017342"><ele>304.0</ele><time>2026-04-12T07:43:53.576Z</time></trkpt><trkpt lat="43.1468248" lon="13.2015264"><ele>305.0</ele><time>2026-04-12T07:43:54.586Z</time></trkpt><trkpt lat="43.1468055" lon="13.2013135"><ele>306.6666666666667</ele><time>2026-04-12T07:43:55.586Z</time></trkpt><trkpt lat="43.1467788" lon="13.2010964"><ele>308.3333333333333</ele><time>2026-04-12T07:43:56.611Z</time></trkpt><trkpt lat="43.1467407" lon="13.2008762"><ele>310.0</ele><time>2026-04-12T07:43:57.59Z</time></trkpt><trkpt lat="43.1466853" lon="13.2006575"><ele>307.66666666666663</ele><time>2026-04-12T07:43:58.584Z</time></trkpt><trkpt lat="43.1466147" lon="13.2004438"><ele>305.3333333333333</ele><time>2026-04-12T07:43:59.588Z</time></trkpt><trkpt lat="43.1465364" lon="13.2002378"><ele>303.0</ele><time>2026-04-12T07:44:00.591Z</time></trkpt><trkpt lat="43.1464547" lon="13.2000507"><ele>303.0</ele><time>2026-04-12T07:44:01.585Z</time></trkpt><trkpt lat="43.146365" lon="13.1998908"><ele>303.0</ele><time>2026-04-12T07:44:02.602Z</time></trkpt><trkpt lat="43.1462586" lon="13.1997557"><ele>303.0</ele><time>2026-04-12T07:44:03.585Z</time></trkpt><trkpt lat="43.1461482" lon="13.1996367"><ele>303.0</ele><time>2026-04-12T07:44:04.584Z</time></trkpt><trkpt lat="43.1460442" lon="13.1995221"><ele>303.25</ele><time>2026-04-12T07:44:05.59Z</time></trkpt><trkpt lat="43.1459464" lon="13.1994034"><ele>303.5</ele><time>2026-04-12T07:44:06.593Z</time></trkpt><trkpt lat="43.1458653" lon="13.1992811"><ele>303.75</ele><time>2026-04-12T07:44:07.587Z</time></trkpt><trkpt lat="43.1458137" lon="13.1991482"><ele>304.0</ele><time>2026-04-12T07:44:08.584Z</time></trkpt><trkpt lat="43.1457997" lon="13.1990131"><ele>304.8</ele><time>2026-04-12T07:44:09.591Z</time></trkpt><trkpt lat="43.145827" lon="13.1988848"><ele>305.59999999999997</ele><time>2026-04-12T07:44:10.584Z</time></trkpt><trkpt lat="43.1458874" lon="13.198773"><ele>306.4</ele><time>2026-04-12T07:44:11.615Z</time></trkpt><trkpt lat="43.1459492" lon="13.1986634"><ele>307.2</ele><time>2026-04-12T07:44:12.584Z</time></trkpt><trkpt lat="43.146022" lon="13.1985783"><ele>308.0</ele><time>2026-04-12T07:44:13.575Z</time></trkpt><trkpt lat="43.1460907" lon="13.1985356"><ele>308.0</ele><time>2026-04-12T07:44:14.581Z</time></trkpt><trkpt lat="43.1461543" lon="13.1984871"><ele>308.0</ele><time>2026-04-12T07:44:15.586Z</time></trkpt><trkpt lat="43.1462142" lon="13.1984092"><ele>308.0</ele><time>2026-04-12T07:44:16.578Z</time></trkpt><trkpt lat="43.1462147" lon="13.1983119"><ele>308.0</ele><time>2026-04-12T07:44:17.586Z</time></trkpt><trkpt lat="43.1461922" lon="13.1981872"><ele>308.0</ele><time>2026-04-12T07:44:18.588Z</time></trkpt><trkpt lat="43.1460976" lon="13.1980613"><ele>309.75</ele><time>2026-04-12T07:44:19.585Z</time></trkpt><trkpt lat="43.1459922" lon="13.1979456"><ele>311.5</ele><time>2026-04-12T07:44:20.587Z</time></trkpt><trkpt lat="43.1458849" lon="13.1978416"><ele>313.25</ele><time>2026-04-12T07:44:21.605Z</time></trkpt><trkpt lat="43.1457672" lon="13.197727"><ele>315.0</ele><time>2026-04-12T07:44:22.588Z</time></trkpt><trkpt lat="43.1456544" lon="13.1976032"><ele>311.25</ele><time>2026-04-12T07:44:23.587Z</time></trkpt><trkpt lat="43.1455644" lon="13.1974747"><ele>307.5</ele><time>2026-04-12T07:44:24.588Z</time></trkpt><trkpt lat="43.1455069" lon="13.1973077"><ele>303.75</ele><time>2026-04-12T07:44:25.584Z</time></trkpt><trkpt lat="43.1454502" lon="13.1971392"><ele>300.0</ele><time>2026-04-12T07:44:26.604Z</time></trkpt><trkpt lat="43.1453991" lon="13.1969656"><ele>300.0</ele><time>2026-04-12T07:44:27.59Z</time></trkpt><trkpt lat="43.1453512" lon="13.196775"><ele>300.0</ele><time>2026-04-12T07:44:28.587Z</time></trkpt><trkpt lat="43.1453081" lon="13.1965611"><ele>300.0</ele><time>2026-04-12T07:44:29.582Z</time></trkpt><trkpt lat="43.1452641" lon="13.1963335"><ele>301.3333333333333</ele><time>2026-04-12T07:44:30.584Z</time></trkpt><trkpt lat="43.145224" lon="13.1960905"><ele>302.66666666666663</ele><time>2026-04-12T07:44:31.592Z</time></trkpt><trkpt lat="43.1451918" lon="13.195837"><ele>304.0</ele><time>2026-04-12T07:44:32.591Z</time></trkpt><trkpt lat="43.1451597" lon="13.1955865"><ele>306.66666666666663</ele><time>2026-04-12T07:44:33.591Z</time></trkpt><trkpt lat="43.1451212" lon="13.1953418"><ele>309.3333333333333</ele><time>2026-04-12T07:44:34.599Z</time></trkpt><trkpt lat="43.1450771" lon="13.195099"><ele>312.0</ele><time>2026-04-12T07:44:35.584Z</time></trkpt><trkpt lat="43.1450338" lon="13.1948509"><ele>315.6666666666667</ele><time>2026-04-12T07:44:36.602Z</time></trkpt><trkpt lat="43.1449947" lon="13.1945945"><ele>319.33333333333337</ele><time>2026-04-12T07:44:37.587Z</time></trkpt><trkpt lat="43.1449566" lon="13.1943361"><ele>323.0</ele><time>2026-04-12T07:44:38.591Z</time></trkpt><trkpt lat="43.1449191" lon="13.1940821"><ele>327.0</ele><time>2026-04-12T07:44:39.589Z</time></trkpt><trkpt lat="43.1448899" lon="13.1938422"><ele>331.0</ele><time>2026-04-12T07:44:40.59Z</time></trkpt><trkpt lat="43.1448617" lon="13.1936105"><ele>335.0</ele><time>2026-04-12T07:44:41.578Z</time></trkpt><trkpt lat="43.1448389" lon="13.1933654"><ele>326.0</ele><time>2026-04-12T07:44:42.575Z</time></trkpt><trkpt lat="43.1448198" lon="13.1931051"><ele>317.0</ele><time>2026-04-12T07:44:43.579Z</time></trkpt><trkpt lat="43.1447924" lon="13.1928602"><ele>308.0</ele><time>2026-04-12T07:44:44.585Z</time></trkpt><trkpt lat="43.1447549" lon="13.1926123"><ele>308.0</ele><time>2026-04-12T07:44:45.587Z</time></trkpt><trkpt lat="43.1447432" lon="13.1923595"><ele>308.0</ele><time>2026-04-12T07:44:46.59Z</time></trkpt><trkpt lat="43.1446975" lon="13.192105"><ele>308.0</ele><time>2026-04-12T07:44:47.591Z</time></trkpt><trkpt lat="43.1446599" lon="13.1918562"><ele>308.0</ele><time>2026-04-12T07:44:48.592Z</time></trkpt><trkpt lat="43.1446182" lon="13.1915966"><ele>308.0</ele><time>2026-04-12T07:44:49.611Z</time></trkpt><trkpt lat="43.1445798" lon="13.1913361"><ele>308.0</ele><time>2026-04-12T07:44:50.585Z</time></trkpt><trkpt lat="43.1445371" lon="13.1910777"><ele>308.0</ele><time>2026-04-12T07:44:51.584Z</time></trkpt><trkpt lat="43.1444852" lon="13.1907996"><ele>308.0</ele><time>2026-04-12T07:44:52.585Z</time></trkpt><trkpt lat="43.1444353" lon="13.1905228"><ele>308.0</ele><time>2026-04-12T07:44:53.582Z</time></trkpt><trkpt lat="43.1443864" lon="13.1902705"><ele>308.6666666666667</ele><time>2026-04-12T07:44:54.587Z</time></trkpt><trkpt lat="43.1443431" lon="13.1900358"><ele>309.3333333333333</ele><time>2026-04-12T07:44:55.591Z</time></trkpt><trkpt lat="43.1442934" lon="13.1898036"><ele>310.0</ele><time>2026-04-12T07:44:56.589Z</time></trkpt><trkpt lat="43.1442408" lon="13.1895711"><ele>310.66666666666663</ele><time>2026-04-12T07:44:57.602Z</time></trkpt><trkpt lat="43.1441775" lon="13.1893349"><ele>311.3333333333333</ele><time>2026-04-12T07:44:58.591Z</time></trkpt><trkpt lat="43.1441019" lon="13.1890995"><ele>312.0</ele><time>2026-04-12T07:44:59.589Z</time></trkpt><trkpt lat="43.1440165" lon="13.188864"><ele>312.0</ele><time>2026-04-12T07:45:00.587Z</time></trkpt><trkpt lat="43.1439169" lon="13.1886293"><ele>312.0</ele><time>2026-04-12T07:45:01.587Z</time></trkpt><trkpt lat="43.1438043" lon="13.1883974"><ele>312.0</ele><time>2026-04-12T07:45:02.584Z</time></trkpt><trkpt lat="43.143683" lon="13.1881647"><ele>312.6666666666667</ele><time>2026-04-12T07:45:03.591Z</time></trkpt><trkpt lat="43.1435568" lon="13.1879343"><ele>313.33333333333337</ele><time>2026-04-12T07:45:04.575Z</time></trkpt><trkpt lat="43.1434258" lon="13.1877055"><ele>314.0</ele><time>2026-04-12T07:45:05.601Z</time></trkpt><trkpt lat="43.1432907" lon="13.1874774"><ele>311.0</ele><time>2026-04-12T07:45:06.578Z</time></trkpt><trkpt lat="43.1431554" lon="13.187256"><ele>308.0</ele><time>2026-04-12T07:45:07.571Z</time></trkpt><trkpt lat="43.1430276" lon="13.187044"><ele>305.0</ele><time>2026-04-12T07:45:08.578Z</time></trkpt><trkpt lat="43.1429007" lon="13.1868338"><ele>305.0</ele><time>2026-04-12T07:45:09.582Z</time></trkpt><trkpt lat="43.142774" lon="13.1866215"><ele>305.0</ele><time>2026-04-12T07:45:10.581Z</time></trkpt><trkpt lat="43.1426528" lon="13.1864057"><ele>305.0</ele><time>2026-04-12T07:45:11.582Z</time></trkpt><trkpt lat="43.1425321" lon="13.1861801"><ele>305.6666666666667</ele><time>2026-04-12T07:45:12.579Z</time></trkpt><trkpt lat="43.1424122" lon="13.1859458"><ele>306.3333333333333</ele><time>2026-04-12T07:45:13.579Z</time></trkpt><trkpt lat="43.1422938" lon="13.1857053"><ele>307.0</ele><time>2026-04-12T07:45:14.579Z</time></trkpt><trkpt lat="43.1421758" lon="13.1854603"><ele>307.0</ele><time>2026-04-12T07:45:15.584Z</time></trkpt><trkpt lat="43.1420619" lon="13.1852103"><ele>307.0</ele><time>2026-04-12T07:45:16.576Z</time></trkpt><trkpt lat="43.141952" lon="13.1849539"><ele>307.0</ele><time>2026-04-12T07:45:17.58Z</time></trkpt><trkpt lat="43.1418471" lon="13.1846928"><ele>311.3333333333333</ele><time>2026-04-12T07:45:18.574Z</time></trkpt><trkpt lat="43.1417528" lon="13.1844408"><ele>315.6666666666667</ele><time>2026-04-12T07:45:19.58Z</time></trkpt><trkpt lat="43.1416662" lon="13.1841976"><ele>320.0</ele><time>2026-04-12T07:45:20.578Z</time></trkpt><trkpt lat="43.1415856" lon="13.1839563"><ele>313.6666666666667</ele><time>2026-04-12T07:45:21.578Z</time></trkpt><trkpt lat="43.141509" lon="13.1837179"><ele>307.3333333333333</ele><time>2026-04-12T07:45:22.575Z</time></trkpt><trkpt lat="43.1414386" lon="13.1834812"><ele>301.0</ele><time>2026-04-12T07:45:23.577Z</time></trkpt><trkpt lat="43.1413741" lon="13.1832458"><ele>303.3333333333333</ele><time>2026-04-12T07:45:24.579Z</time></trkpt><trkpt lat="43.1413125" lon="13.1830098"><ele>305.6666666666667</ele><time>2026-04-12T07:45:25.579Z</time></trkpt><trkpt lat="43.1412518" lon="13.1827686"><ele>308.0</ele><time>2026-04-12T07:45:26.602Z</time></trkpt><trkpt lat="43.1411915" lon="13.1825199"><ele>311.33333333333337</ele><time>2026-04-12T07:45:27.579Z</time></trkpt><trkpt lat="43.1411355" lon="13.1822603"><ele>314.6666666666667</ele><time>2026-04-12T07:45:28.577Z</time></trkpt><trkpt lat="43.1410858" lon="13.1819916"><ele>318.0</ele><time>2026-04-12T07:45:29.582Z</time></trkpt><trkpt lat="43.1410377" lon="13.1817149"><ele>320.6666666666667</ele><time>2026-04-12T07:45:30.58Z</time></trkpt><trkpt lat="43.1409884" lon="13.181435"><ele>323.33333333333337</ele><time>2026-04-12T07:45:31.58Z</time></trkpt><trkpt lat="43.1409413" lon="13.1811672"><ele>326.0</ele><time>2026-04-12T07:45:32.586Z</time></trkpt><trkpt lat="43.1408947" lon="13.1809175"><ele>327.0</ele><time>2026-04-12T07:45:33.58Z</time></trkpt><trkpt lat="43.1408572" lon="13.1806612"><ele>328.0</ele><time>2026-04-12T07:45:34.607Z</time></trkpt><trkpt lat="43.1408183" lon="13.1804255"><ele>329.0</ele><time>2026-04-12T07:45:35.581Z</time></trkpt><trkpt lat="43.140776" lon="13.1801925"><ele>329.0</ele><time>2026-04-12T07:45:36.582Z</time></trkpt><trkpt lat="43.1407302" lon="13.1799582"><ele>329.0</ele><time>2026-04-12T07:45:37.574Z</time></trkpt><trkpt lat="43.1406879" lon="13.1797158"><ele>329.0</ele><time>2026-04-12T07:45:38.581Z</time></trkpt><trkpt lat="43.1406473" lon="13.1794716"><ele>324.0</ele><time>2026-04-12T07:45:39.582Z</time></trkpt><trkpt lat="43.1406023" lon="13.1792229"><ele>319.0</ele><time>2026-04-12T07:45:40.576Z</time></trkpt><trkpt lat="43.1405459" lon="13.1789813"><ele>314.0</ele><time>2026-04-12T07:45:41.588Z</time></trkpt><trkpt lat="43.1404739" lon="13.1787553"><ele>314.0</ele><time>2026-04-12T07:45:42.579Z</time></trkpt><trkpt lat="43.140386" lon="13.1785379"><ele>314.0</ele><time>2026-04-12T07:45:43.578Z</time></trkpt><trkpt lat="43.1403016" lon="13.1783225"><ele>314.0</ele><time>2026-04-12T07:45:44.58Z</time></trkpt><trkpt lat="43.1402011" lon="13.1781134"><ele>315.0</ele><time>2026-04-12T07:45:45.576Z</time></trkpt><trkpt lat="43.140065" lon="13.1779295"><ele>316.0</ele><time>2026-04-12T07:45:46.599Z</time></trkpt><trkpt lat="43.1399351" lon="13.1777401"><ele>317.0</ele><time>2026-04-12T07:45:47.581Z</time></trkpt><trkpt lat="43.139785" lon="13.1775543"><ele>312.6666666666667</ele><time>2026-04-12T07:45:48.58Z</time></trkpt><trkpt lat="43.1396765" lon="13.1773545"><ele>308.3333333333333</ele><time>2026-04-12T07:45:49.578Z</time></trkpt><trkpt lat="43.1395644" lon="13.1771312"><ele>304.0</ele><time>2026-04-12T07:45:50.579Z</time></trkpt><trkpt lat="43.1394832" lon="13.1768928"><ele>304.0</ele><time>2026-04-12T07:45:51.578Z</time></trkpt><trkpt lat="43.1394064" lon="13.1766533"><ele>304.0</ele><time>2026-04-12T07:45:52.581Z</time></trkpt><trkpt lat="43.1393387" lon="13.1764114"><ele>304.0</ele><time>2026-04-12T07:45:53.587Z</time></trkpt><trkpt lat="43.139268" lon="13.176168"><ele>304.0</ele><time>2026-04-12T07:45:54.578Z</time></trkpt><trkpt lat="43.1391865" lon="13.1759305"><ele>304.0</ele><time>2026-04-12T07:45:55.582Z</time></trkpt><trkpt lat="43.139073" lon="13.1757143"><ele>304.0</ele><time>2026-04-12T07:45:56.586Z</time></trkpt><trkpt lat="43.1389518" lon="13.1755169"><ele>304.0</ele><time>2026-04-12T07:45:57.578Z</time></trkpt><trkpt lat="43.1388334" lon="13.1753036"><ele>304.0</ele><time>2026-04-12T07:45:58.595Z</time></trkpt><trkpt lat="43.1387484" lon="13.1750696"><ele>304.0</ele><time>2026-04-12T07:45:59.582Z</time></trkpt><trkpt lat="43.1387082" lon="13.1748186"><ele>304.66666666666663</ele><time>2026-04-12T07:46:00.583Z</time></trkpt><trkpt lat="43.1386903" lon="13.1745744"><ele>305.3333333333333</ele><time>2026-04-12T07:46:01.587Z</time></trkpt><trkpt lat="43.1386844" lon="13.1743562"><ele>306.0</ele><time>2026-04-12T07:46:02.583Z</time></trkpt><trkpt lat="43.1386688" lon="13.1741438"><ele>305.8</ele><time>2026-04-12T07:46:03.58Z</time></trkpt><trkpt lat="43.1386562" lon="13.1739606"><ele>305.6</ele><time>2026-04-12T07:46:04.583Z</time></trkpt><trkpt lat="43.1386442" lon="13.1737984"><ele>305.4</ele><time>2026-04-12T07:46:05.583Z</time></trkpt><trkpt lat="43.1386362" lon="13.173662"><ele>305.2</ele><time>2026-04-12T07:46:06.58Z</time></trkpt><trkpt lat="43.1386327" lon="13.1735478"><ele>305.0</ele><time>2026-04-12T07:46:07.582Z</time></trkpt><trkpt lat="43.13863" lon="13.1734539"><ele>305.0</ele><time>2026-04-12T07:46:08.583Z</time></trkpt><trkpt lat="43.1386181" lon="13.1733194"><ele>305.0</ele><time>2026-04-12T07:46:10.582Z</time></trkpt><trkpt lat="43.1386204" lon="13.1732267"><ele>305.0</ele><time>2026-04-12T07:46:12.585Z</time></trkpt><trkpt lat="43.1385971" lon="13.1731182"><ele>305.0</ele><time>2026-04-12T07:47:08.581Z</time></trkpt><trkpt lat="43.138594" lon="13.1729758"><ele>305.0</ele><time>2026-04-12T07:47:10.586Z</time></trkpt><trkpt lat="43.1385923" lon="13.1728107"><ele>305.33333333333337</ele><time>2026-04-12T07:47:12.584Z</time></trkpt><trkpt lat="43.1385913" lon="13.1727155"><ele>305.6666666666667</ele><time>2026-04-12T07:47:13.575Z</time></trkpt><trkpt lat="43.1385906" lon="13.1726056"><ele>306.0</ele><time>2026-04-12T07:47:14.578Z</time></trkpt><trkpt lat="43.1385892" lon="13.1724843"><ele>306.3333333333333</ele><time>2026-04-12T07:47:15.579Z</time></trkpt><trkpt lat="43.138592" lon="13.1723526"><ele>306.66666666666663</ele><time>2026-04-12T07:47:16.583Z</time></trkpt><trkpt lat="43.1385967" lon="13.1722091"><ele>307.0</ele><time>2026-04-12T07:47:17.611Z</time></trkpt><trkpt lat="43.138602" lon="13.1720595"><ele>307.0</ele><time>2026-04-12T07:47:18.58Z</time></trkpt><trkpt lat="43.1386052" lon="13.1719178"><ele>307.0</ele><time>2026-04-12T07:47:19.583Z</time></trkpt><trkpt lat="43.138604" lon="13.1717758"><ele>307.0</ele><time>2026-04-12T07:47:20.572Z</time></trkpt><trkpt lat="43.1385995" lon="13.1716346"><ele>307.0</ele><time>2026-04-12T07:47:21.585Z</time></trkpt><trkpt lat="43.138592" lon="13.1714971"><ele>307.0</ele><time>2026-04-12T07:47:22.581Z</time></trkpt><trkpt lat="43.138579" lon="13.1713559"><ele>308.0</ele><time>2026-04-12T07:47:23.584Z</time></trkpt><trkpt lat="43.1385587" lon="13.1712092"><ele>309.0</ele><time>2026-04-12T07:47:24.569Z</time></trkpt><trkpt lat="43.1385358" lon="13.171057"><ele>310.0</ele><time>2026-04-12T07:47:25.582Z</time></trkpt><trkpt lat="43.1385079" lon="13.170899"><ele>311.0</ele><time>2026-04-12T07:47:26.581Z</time></trkpt><trkpt lat="43.1384773" lon="13.1707342"><ele>311.25</ele><time>2026-04-12T07:47:27.578Z</time></trkpt><trkpt lat="43.1384428" lon="13.1705632"><ele>311.5</ele><time>2026-04-12T07:47:28.607Z</time></trkpt><trkpt lat="43.1384092" lon="13.1703817"><ele>311.75</ele><time>2026-04-12T07:47:29.582Z</time></trkpt><trkpt lat="43.1383724" lon="13.1701885"><ele>312.0</ele><time>2026-04-12T07:47:30.583Z</time></trkpt><trkpt lat="43.1383336" lon="13.1699896"><ele>311.5</ele><time>2026-04-12T07:47:31.584Z</time></trkpt><trkpt lat="43.1382955" lon="13.1697995"><ele>311.0</ele><time>2026-04-12T07:47:32.583Z</time></trkpt><trkpt lat="43.138257" lon="13.1696123"><ele>310.5</ele><time>2026-04-12T07:47:33.581Z</time></trkpt><trkpt lat="43.1382173" lon="13.1694176"><ele>310.0</ele><time>2026-04-12T07:47:34.586Z</time></trkpt><trkpt lat="43.1381745" lon="13.1692048"><ele>309.66666666666663</ele><time>2026-04-12T07:47:35.579Z</time></trkpt><trkpt lat="43.1381318" lon="13.1689729"><ele>309.3333333333333</ele><time>2026-04-12T07:47:36.577Z</time></trkpt><trkpt lat="43.1380914" lon="13.1687233"><ele>309.0</ele><time>2026-04-12T07:47:37.578Z</time></trkpt><trkpt lat="43.1380602" lon="13.1684804"><ele>309.0</ele><time>2026-04-12T07:47:38.577Z</time></trkpt><trkpt lat="43.1380352" lon="13.1682434"><ele>309.0</ele><time>2026-04-12T07:47:39.582Z</time></trkpt><trkpt lat="43.1380099" lon="13.1680088"><ele>309.0</ele><time>2026-04-12T07:47:40.571Z</time></trkpt><trkpt lat="43.1379823" lon="13.167769"><ele>308.6666666666667</ele><time>2026-04-12T07:47:41.578Z</time></trkpt><trkpt lat="43.1379458" lon="13.1675213"><ele>308.33333333333337</ele><time>2026-04-12T07:47:42.584Z</time></trkpt><trkpt lat="43.1379019" lon="13.1672687"><ele>308.0</ele><time>2026-04-12T07:47:43.581Z</time></trkpt><trkpt lat="43.1378596" lon="13.167007"><ele>307.6666666666667</ele><time>2026-04-12T07:47:44.578Z</time></trkpt><trkpt lat="43.1378296" lon="13.1667364"><ele>307.3333333333333</ele><time>2026-04-12T07:47:45.584Z</time></trkpt><trkpt lat="43.1378168" lon="13.1664606"><ele>307.0</ele><time>2026-04-12T07:47:46.581Z</time></trkpt><trkpt lat="43.1378188" lon="13.166184"><ele>307.0</ele><time>2026-04-12T07:47:47.581Z</time></trkpt><trkpt lat="43.1378299" lon="13.1659171"><ele>307.0</ele><time>2026-04-12T07:47:48.577Z</time></trkpt><trkpt lat="43.1378383" lon="13.1656674"><ele>307.0</ele><time>2026-04-12T07:47:49.579Z</time></trkpt><trkpt lat="43.1378298" lon="13.1654192"><ele>308.66666666666663</ele><time>2026-04-12T07:47:50.578Z</time></trkpt><trkpt lat="43.137802" lon="13.1651661"><ele>310.3333333333333</ele><time>2026-04-12T07:47:51.581Z</time></trkpt><trkpt lat="43.1377659" lon="13.1649106"><ele>312.0</ele><time>2026-04-12T07:47:52.579Z</time></trkpt><trkpt lat="43.1377323" lon="13.1646668"><ele>314.0</ele><time>2026-04-12T07:47:53.596Z</time></trkpt><trkpt lat="43.1377012" lon="13.1644237"><ele>316.0</ele><time>2026-04-12T07:47:54.584Z</time></trkpt><trkpt lat="43.1376703" lon="13.1641817"><ele>318.0</ele><time>2026-04-12T07:47:55.585Z</time></trkpt><trkpt lat="43.1376395" lon="13.163936"><ele>318.0</ele><time>2026-04-12T07:47:56.581Z</time></trkpt><trkpt lat="43.1376127" lon="13.1636818"><ele>318.0</ele><time>2026-04-12T07:47:57.582Z</time></trkpt><trkpt lat="43.137602" lon="13.1634216"><ele>318.0</ele><time>2026-04-12T07:47:58.584Z</time></trkpt><trkpt lat="43.1375965" lon="13.1631792"><ele>318.0</ele><time>2026-04-12T07:47:59.575Z</time></trkpt><trkpt lat="43.1376276" lon="13.1629441"><ele>318.0</ele><time>2026-04-12T07:48:00.582Z</time></trkpt><trkpt lat="43.1376434" lon="13.1627084"><ele>318.0</ele><time>2026-04-12T07:48:01.579Z</time></trkpt><trkpt lat="43.1376343" lon="13.162468"><ele>320.0</ele><time>2026-04-12T07:48:02.577Z</time></trkpt><trkpt lat="43.1376032" lon="13.162224"><ele>322.0</ele><time>2026-04-12T07:48:03.58Z</time></trkpt><trkpt lat="43.1375475" lon="13.1619944"><ele>324.0</ele><time>2026-04-12T07:48:04.577Z</time></trkpt><trkpt lat="43.1374915" lon="13.1617691"><ele>319.0</ele><time>2026-04-12T07:48:05.583Z</time></trkpt><trkpt lat="43.1373692" lon="13.1616042"><ele>314.0</ele><time>2026-04-12T07:48:06.577Z</time></trkpt><trkpt lat="43.1372508" lon="13.1614647"><ele>309.0</ele><time>2026-04-12T07:48:07.582Z</time></trkpt><trkpt lat="43.137146" lon="13.1613288"><ele>309.0</ele><time>2026-04-12T07:48:08.578Z</time></trkpt><trkpt lat="43.1370616" lon="13.1611907"><ele>309.0</ele><time>2026-04-12T07:48:09.581Z</time></trkpt><trkpt lat="43.1370071" lon="13.1610348"><ele>309.0</ele><time>2026-04-12T07:48:10.582Z</time></trkpt><trkpt lat="43.1369823" lon="13.1608612"><ele>309.0</ele><time>2026-04-12T07:48:11.578Z</time></trkpt><trkpt lat="43.1369936" lon="13.1607075"><ele>308.8</ele><time>2026-04-12T07:48:12.58Z</time></trkpt><trkpt lat="43.1370473" lon="13.1605932"><ele>308.59999999999997</ele><time>2026-04-12T07:48:13.579Z</time></trkpt><trkpt lat="43.1371359" lon="13.160526"><ele>308.4</ele><time>2026-04-12T07:48:14.577Z</time></trkpt><trkpt lat="43.1372515" lon="13.1604925"><ele>308.2</ele><time>2026-04-12T07:48:15.58Z</time></trkpt><trkpt lat="43.1373763" lon="13.1604671"><ele>308.0</ele><time>2026-04-12T07:48:16.579Z</time></trkpt><trkpt lat="43.1375045" lon="13.1604355"><ele>308.0</ele><time>2026-04-12T07:48:17.586Z</time></trkpt><trkpt lat="43.1376384" lon="13.1603887"><ele>308.0</ele><time>2026-04-12T07:48:18.577Z</time></trkpt><trkpt lat="43.1377783" lon="13.1603325"><ele>308.0</ele><time>2026-04-12T07:48:19.591Z</time></trkpt><trkpt lat="43.1379294" lon="13.1602678"><ele>308.0</ele><time>2026-04-12T07:48:20.578Z</time></trkpt><trkpt lat="43.1380747" lon="13.1601898"><ele>308.0</ele><time>2026-04-12T07:48:21.584Z</time></trkpt><trkpt lat="43.1382072" lon="13.1601082"><ele>308.0</ele><time>2026-04-12T07:48:22.578Z</time></trkpt><trkpt lat="43.1383307" lon="13.1600266"><ele>308.0</ele><time>2026-04-12T07:48:23.577Z</time></trkpt><trkpt lat="43.1384465" lon="13.1599197"><ele>308.0</ele><time>2026-04-12T07:48:24.578Z</time></trkpt><trkpt lat="43.1385538" lon="13.1597711"><ele>308.6666666666667</ele><time>2026-04-12T07:48:25.574Z</time></trkpt><trkpt lat="43.1386487" lon="13.1595902"><ele>309.3333333333333</ele><time>2026-04-12T07:48:26.589Z</time></trkpt><trkpt lat="43.1387183" lon="13.1593771"><ele>310.0</ele><time>2026-04-12T07:48:27.579Z</time></trkpt><trkpt lat="43.1387434" lon="13.1591328"><ele>311.0</ele><time>2026-04-12T07:48:28.584Z</time></trkpt><trkpt lat="43.1387288" lon="13.1588732"><ele>312.0</ele><time>2026-04-12T07:48:29.583Z</time></trkpt><trkpt lat="43.1386907" lon="13.1586296"><ele>313.0</ele><time>2026-04-12T07:48:30.573Z</time></trkpt><trkpt lat="43.1386216" lon="13.1584067"><ele>313.0</ele><time>2026-04-12T07:48:31.583Z</time></trkpt><trkpt lat="43.1385134" lon="13.1582072"><ele>313.0</ele><time>2026-04-12T07:48:32.58Z</time></trkpt><trkpt lat="43.1383738" lon="13.1580271"><ele>313.0</ele><time>2026-04-12T07:48:33.572Z</time></trkpt><trkpt lat="43.138213" lon="13.1578626"><ele>313.66666666666663</ele><time>2026-04-12T07:48:34.576Z</time></trkpt><trkpt lat="43.1380463" lon="13.1577138"><ele>314.3333333333333</ele><time>2026-04-12T07:48:35.581Z</time></trkpt><trkpt lat="43.1378898" lon="13.1575783"><ele>315.0</ele><time>2026-04-12T07:48:36.571Z</time></trkpt><trkpt lat="43.1377512" lon="13.1574365"><ele>317.3333333333333</ele><time>2026-04-12T07:48:37.613Z</time></trkpt><trkpt lat="43.1376489" lon="13.1572601"><ele>319.66666666666663</ele><time>2026-04-12T07:48:38.576Z</time></trkpt><trkpt lat="43.1375823" lon="13.1570355"><ele>322.0</ele><time>2026-04-12T07:48:39.578Z</time></trkpt><trkpt lat="43.1375367" lon="13.1567803"><ele>324.0</ele><time>2026-04-12T07:48:40.578Z</time></trkpt><trkpt lat="43.1375016" lon="13.1565064"><ele>326.0</ele><time>2026-04-12T07:48:41.582Z</time></trkpt><trkpt lat="43.1374711" lon="13.1562211"><ele>328.0</ele><time>2026-04-12T07:48:42.58Z</time></trkpt><trkpt lat="43.1374416" lon="13.1559467"><ele>327.0</ele><time>2026-04-12T07:48:43.578Z</time></trkpt><trkpt lat="43.13741" lon="13.1556895"><ele>326.0</ele><time>2026-04-12T07:48:44.583Z</time></trkpt><trkpt lat="43.1373815" lon="13.1554486"><ele>325.0</ele><time>2026-04-12T07:48:45.574Z</time></trkpt><trkpt lat="43.1373531" lon="13.1552299"><ele>321.66666666666663</ele><time>2026-04-12T07:48:46.579Z</time></trkpt><trkpt lat="43.1373138" lon="13.1550343"><ele>318.3333333333333</ele><time>2026-04-12T07:48:47.585Z</time></trkpt><trkpt lat="43.137213" lon="13.1548896"><ele>315.0</ele><time>2026-04-12T07:48:48.572Z</time></trkpt><trkpt lat="43.1370725" lon="13.1547744"><ele>320.6666666666667</ele><time>2026-04-12T07:48:49.578Z</time></trkpt><trkpt lat="43.1369078" lon="13.1546938"><ele>326.33333333333337</ele><time>2026-04-12T07:48:50.578Z</time></trkpt><trkpt lat="43.1367188" lon="13.154656"><ele>332.0</ele><time>2026-04-12T07:48:51.579Z</time></trkpt><trkpt lat="43.1365184" lon="13.1546588"><ele>332.0</ele><time>2026-04-12T07:48:52.586Z</time></trkpt><trkpt lat="43.1363302" lon="13.1546762"><ele>332.0</ele><time>2026-04-12T07:48:53.582Z</time></trkpt><trkpt lat="43.1361595" lon="13.1546882"><ele>332.0</ele><time>2026-04-12T07:48:54.608Z</time></trkpt><trkpt lat="43.1360073" lon="13.1546764"><ele>332.0</ele><time>2026-04-12T07:48:55.583Z</time></trkpt><trkpt lat="43.135883" lon="13.1546231"><ele>332.0</ele><time>2026-04-12T07:48:56.577Z</time></trkpt><trkpt lat="43.135797" lon="13.1545151"><ele>332.0</ele><time>2026-04-12T07:48:57.574Z</time></trkpt><trkpt lat="43.1357556" lon="13.1543631"><ele>332.0</ele><time>2026-04-12T07:48:58.574Z</time></trkpt><trkpt lat="43.1357371" lon="13.1541905"><ele>335.33333333333337</ele><time>2026-04-12T07:48:59.574Z</time></trkpt><trkpt lat="43.1357262" lon="13.1539903"><ele>338.6666666666667</ele><time>2026-04-12T07:49:00.581Z</time></trkpt><trkpt lat="43.1357211" lon="13.1537681"><ele>342.0</ele><time>2026-04-12T07:49:01.574Z</time></trkpt><trkpt lat="43.1357093" lon="13.1535275"><ele>333.6666666666667</ele><time>2026-04-12T07:49:02.597Z</time></trkpt><trkpt lat="43.1356807" lon="13.1532773"><ele>325.33333333333337</ele><time>2026-04-12T07:49:03.582Z</time></trkpt><trkpt lat="43.1356425" lon="13.1530467"><ele>317.0</ele><time>2026-04-12T07:49:04.574Z</time></trkpt><trkpt lat="43.1356128" lon="13.1528299"><ele>317.0</ele><time>2026-04-12T07:49:05.574Z</time></trkpt><trkpt lat="43.1356152" lon="13.1525999"><ele>317.0</ele><time>2026-04-12T07:49:06.575Z</time></trkpt><trkpt lat="43.1356579" lon="13.1523709"><ele>317.0</ele><time>2026-04-12T07:49:07.577Z</time></trkpt><trkpt lat="43.1357217" lon="13.1521502"><ele>320.33333333333337</ele><time>2026-04-12T07:49:08.574Z</time></trkpt><trkpt lat="43.1357964" lon="13.1519301"><ele>323.6666666666667</ele><time>2026-04-12T07:49:09.604Z</time></trkpt><trkpt lat="43.1358705" lon="13.1517212"><ele>327.0</ele><time>2026-04-12T07:49:10.581Z</time></trkpt><trkpt lat="43.1359499" lon="13.1515288"><ele>327.0</ele><time>2026-04-12T07:49:11.574Z</time></trkpt><trkpt lat="43.1360221" lon="13.1513407"><ele>327.0</ele><time>2026-04-12T07:49:12.573Z</time></trkpt><trkpt lat="43.136083" lon="13.1511351"><ele>327.0</ele><time>2026-04-12T07:49:13.57Z</time></trkpt><trkpt lat="43.1361364" lon="13.1509009"><ele>326.3333333333333</ele><time>2026-04-12T07:49:14.575Z</time></trkpt><trkpt lat="43.1361883" lon="13.1506475"><ele>325.66666666666663</ele><time>2026-04-12T07:49:15.571Z</time></trkpt><trkpt lat="43.1362401" lon="13.1503827"><ele>325.0</ele><time>2026-04-12T07:49:16.591Z</time></trkpt><trkpt lat="43.1362772" lon="13.1501147"><ele>325.3333333333333</ele><time>2026-04-12T07:49:17.575Z</time></trkpt><trkpt lat="43.1362945" lon="13.1498584"><ele>325.6666666666667</ele><time>2026-04-12T07:49:18.577Z</time></trkpt><trkpt lat="43.1363042" lon="13.1496021"><ele>326.0</ele><time>2026-04-12T07:49:19.577Z</time></trkpt><trkpt lat="43.1363007" lon="13.1493383"><ele>326.0</ele><time>2026-04-12T07:49:20.575Z</time></trkpt><trkpt lat="43.136277" lon="13.1490695"><ele>326.0</ele><time>2026-04-12T07:49:21.581Z</time></trkpt><trkpt lat="43.1362275" lon="13.1487954"><ele>326.0</ele><time>2026-04-12T07:49:22.574Z</time></trkpt><trkpt lat="43.1361561" lon="13.1485171"><ele>328.33333333333337</ele><time>2026-04-12T07:49:23.579Z</time></trkpt><trkpt lat="43.1360696" lon="13.1482373"><ele>330.6666666666667</ele><time>2026-04-12T07:49:24.573Z</time></trkpt><trkpt lat="43.1359686" lon="13.147958"><ele>333.0</ele><time>2026-04-12T07:49:25.573Z</time></trkpt><trkpt lat="43.135864" lon="13.1476929"><ele>330.6666666666667</ele><time>2026-04-12T07:49:26.574Z</time></trkpt><trkpt lat="43.1357636" lon="13.1474398"><ele>328.33333333333337</ele><time>2026-04-12T07:49:27.574Z</time></trkpt><trkpt lat="43.1356646" lon="13.1471872"><ele>326.0</ele><time>2026-04-12T07:49:28.578Z</time></trkpt><trkpt lat="43.1355645" lon="13.1469389"><ele>326.0</ele><time>2026-04-12T07:49:29.575Z</time></trkpt><trkpt lat="43.1354623" lon="13.1466892"><ele>326.0</ele><time>2026-04-12T07:49:30.581Z</time></trkpt><trkpt lat="43.1353624" lon="13.1464384"><ele>326.0</ele><time>2026-04-12T07:49:31.577Z</time></trkpt><trkpt lat="43.1352699" lon="13.1461836"><ele>329.6666666666667</ele><time>2026-04-12T07:49:32.583Z</time></trkpt><trkpt lat="43.1351868" lon="13.1459176"><ele>333.3333333333333</ele><time>2026-04-12T07:49:33.578Z</time></trkpt><trkpt lat="43.1351049" lon="13.1456377"><ele>337.0</ele><time>2026-04-12T07:49:34.583Z</time></trkpt><trkpt lat="43.1350068" lon="13.1453584"><ele>339.5</ele><time>2026-04-12T07:49:35.578Z</time></trkpt><trkpt lat="43.1348838" lon="13.1450898"><ele>342.0</ele><time>2026-04-12T07:49:36.6Z</time></trkpt><trkpt lat="43.1347473" lon="13.1448268"><ele>342.0</ele><time>2026-04-12T07:49:37.58Z</time></trkpt><trkpt lat="43.1346108" lon="13.1445615"><ele>342.0</ele><time>2026-04-12T07:49:38.577Z</time></trkpt><trkpt lat="43.1344725" lon="13.1442961"><ele>342.0</ele><time>2026-04-12T07:49:39.581Z</time></trkpt><trkpt lat="43.134317" lon="13.144049"><ele>342.0</ele><time>2026-04-12T07:49:40.582Z</time></trkpt><trkpt lat="43.1341461" lon="13.1438466"><ele>342.6666666666667</ele><time>2026-04-12T07:49:41.571Z</time></trkpt><trkpt lat="43.1339602" lon="13.1436873"><ele>343.33333333333337</ele><time>2026-04-12T07:49:42.588Z</time></trkpt><trkpt lat="43.1337675" lon="13.1435729"><ele>344.0</ele><time>2026-04-12T07:49:43.573Z</time></trkpt><trkpt lat="43.1335715" lon="13.1434681"><ele>344.0</ele><time>2026-04-12T07:49:44.573Z</time></trkpt><trkpt lat="43.1333852" lon="13.143334"><ele>344.0</ele><time>2026-04-12T07:49:45.574Z</time></trkpt><trkpt lat="43.1332107" lon="13.1431544"><ele>344.0</ele><time>2026-04-12T07:49:46.582Z</time></trkpt><trkpt lat="43.1330468" lon="13.1429376"><ele>342.0</ele><time>2026-04-12T07:49:47.576Z</time></trkpt><trkpt lat="43.1328842" lon="13.1427088"><ele>340.0</ele><time>2026-04-12T07:49:48.597Z</time></trkpt><trkpt lat="43.1327113" lon="13.142489"><ele>337.3333333333333</ele><time>2026-04-12T07:49:49.579Z</time></trkpt><trkpt lat="43.1325351" lon="13.142302"><ele>334.6666666666667</ele><time>2026-04-12T07:49:50.571Z</time></trkpt><trkpt lat="43.132358" lon="13.1421426"><ele>332.0</ele><time>2026-04-12T07:49:51.576Z</time></trkpt><trkpt lat="43.1321925" lon="13.1419823"><ele>332.0</ele><time>2026-04-12T07:49:52.574Z</time></trkpt><trkpt lat="43.1320549" lon="13.1417861"><ele>332.0</ele><time>2026-04-12T07:49:53.577Z</time></trkpt><trkpt lat="43.131941" lon="13.141553"><ele>332.0</ele><time>2026-04-12T07:49:54.571Z</time></trkpt><trkpt lat="43.1318197" lon="13.1413172"><ele>330.6666666666667</ele><time>2026-04-12T07:49:55.577Z</time></trkpt><trkpt lat="43.1316753" lon="13.1410956"><ele>329.3333333333333</ele><time>2026-04-12T07:49:56.574Z</time></trkpt><trkpt lat="43.1315025" lon="13.1408856"><ele>328.0</ele><time>2026-04-12T07:49:57.573Z</time></trkpt><trkpt lat="43.1313217" lon="13.1406904"><ele>341.0</ele><time>2026-04-12T07:49:58.572Z</time></trkpt><trkpt lat="43.1311084" lon="13.1404887"><ele>354.0</ele><time>2026-04-12T07:49:59.573Z</time></trkpt><trkpt lat="43.1308913" lon="13.1403065"><ele>346.0</ele><time>2026-04-12T07:50:00.595Z</time></trkpt><trkpt lat="43.1306494" lon="13.1401702"><ele>338.0</ele><time>2026-04-12T07:50:01.573Z</time></trkpt><trkpt lat="43.1303928" lon="13.1400572"><ele>338.0</ele><time>2026-04-12T07:50:02.576Z</time></trkpt><trkpt lat="43.130151" lon="13.1399631"><ele>338.0</ele><time>2026-04-12T07:50:03.575Z</time></trkpt><trkpt lat="43.1299236" lon="13.13985"><ele>337.5</ele><time>2026-04-12T07:50:04.572Z</time></trkpt><trkpt lat="43.1297106" lon="13.1397004"><ele>337.0</ele><time>2026-04-12T07:50:05.575Z</time></trkpt><trkpt lat="43.1295261" lon="13.1395057"><ele>337.0</ele><time>2026-04-12T07:50:06.569Z</time></trkpt><trkpt lat="43.1293725" lon="13.1392692"><ele>337.0</ele><time>2026-04-12T07:50:07.578Z</time></trkpt><trkpt lat="43.1292461" lon="13.13899"><ele>331.5</ele><time>2026-04-12T07:50:08.572Z</time></trkpt><trkpt lat="43.129121" lon="13.1386972"><ele>326.0</ele><time>2026-04-12T07:50:09.574Z</time></trkpt><trkpt lat="43.1289929" lon="13.138407"><ele>329.5</ele><time>2026-04-12T07:50:10.573Z</time></trkpt><trkpt lat="43.1288749" lon="13.1381235"><ele>333.0</ele><time>2026-04-12T07:50:11.573Z</time></trkpt><trkpt lat="43.1287796" lon="13.1378452"><ele>333.0</ele><time>2026-04-12T07:50:12.572Z</time></trkpt><trkpt lat="43.1286966" lon="13.1375768"><ele>333.0</ele><time>2026-04-12T07:50:13.572Z</time></trkpt><trkpt lat="43.1285995" lon="13.1373242"><ele>333.0</ele><time>2026-04-12T07:50:14.573Z</time></trkpt><trkpt lat="43.1284679" lon="13.1370966"><ele>330.6666666666667</ele><time>2026-04-12T07:50:15.57Z</time></trkpt><trkpt lat="43.1283089" lon="13.1369163"><ele>328.33333333333337</ele><time>2026-04-12T07:50:16.569Z</time></trkpt><trkpt lat="43.1281443" lon="13.1367597"><ele>326.0</ele><time>2026-04-12T07:50:17.577Z</time></trkpt><trkpt lat="43.1280068" lon="13.1365751"><ele>327.0</ele><time>2026-04-12T07:50:18.576Z</time></trkpt><trkpt lat="43.1279038" lon="13.1363354"><ele>328.0</ele><time>2026-04-12T07:50:19.579Z</time></trkpt><trkpt lat="43.1278456" lon="13.1360613"><ele>329.0</ele><time>2026-04-12T07:50:20.577Z</time></trkpt><trkpt lat="43.1278073" lon="13.1357876"><ele>330.0</ele><time>2026-04-12T07:50:21.62Z</time></trkpt><trkpt lat="43.1277435" lon="13.135513"><ele>331.0</ele><time>2026-04-12T07:50:22.577Z</time></trkpt><trkpt lat="43.1276764" lon="13.1352382"><ele>332.0</ele><time>2026-04-12T07:50:23.574Z</time></trkpt><trkpt lat="43.1275354" lon="13.1349955"><ele>331.6666666666667</ele><time>2026-04-12T07:50:24.58Z</time></trkpt><trkpt lat="43.1273727" lon="13.1347834"><ele>331.3333333333333</ele><time>2026-04-12T07:50:25.583Z</time></trkpt><trkpt lat="43.1272009" lon="13.1345885"><ele>331.0</ele><time>2026-04-12T07:50:26.577Z</time></trkpt><trkpt lat="43.1270304" lon="13.1343876"><ele>331.0</ele><time>2026-04-12T07:50:27.597Z</time></trkpt><trkpt lat="43.1268635" lon="13.134184"><ele>331.0</ele><time>2026-04-12T07:50:28.576Z</time></trkpt><trkpt lat="43.1266982" lon="13.133987"><ele>331.0</ele><time>2026-04-12T07:50:29.57Z</time></trkpt><trkpt lat="43.1265353" lon="13.1338034"><ele>333.3333333333333</ele><time>2026-04-12T07:50:30.579Z</time></trkpt><trkpt lat="43.12636" lon="13.1336269"><ele>335.6666666666667</ele><time>2026-04-12T07:50:31.579Z</time></trkpt><trkpt lat="43.1261679" lon="13.1334724"><ele>338.0</ele><time>2026-04-12T07:50:32.573Z</time></trkpt><trkpt lat="43.1259637" lon="13.1333306"><ele>357.5</ele><time>2026-04-12T07:50:33.582Z</time></trkpt><trkpt lat="43.1257581" lon="13.1331846"><ele>377.0</ele><time>2026-04-12T07:50:34.572Z</time></trkpt><trkpt lat="43.1255606" lon="13.1330531"><ele>379.0</ele><time>2026-04-12T07:50:35.573Z</time></trkpt><trkpt lat="43.1253815" lon="13.1329496"><ele>381.0</ele><time>2026-04-12T07:50:36.574Z</time></trkpt><trkpt lat="43.1252301" lon="13.1328781"><ele>383.0</ele><time>2026-04-12T07:50:37.575Z</time></trkpt><trkpt lat="43.125081" lon="13.1328803"><ele>383.0</ele><time>2026-04-12T07:50:38.573Z</time></trkpt><trkpt lat="43.1249182" lon="13.1329583"><ele>383.0</ele><time>2026-04-12T07:50:39.575Z</time></trkpt><trkpt lat="43.1248043" lon="13.1331369"><ele>383.0</ele><time>2026-04-12T07:50:40.573Z</time></trkpt><trkpt lat="43.1247033" lon="13.1333597"><ele>382.0</ele><time>2026-04-12T07:50:41.572Z</time></trkpt><trkpt lat="43.1246433" lon="13.1335973"><ele>381.0</ele><time>2026-04-12T07:50:42.571Z</time></trkpt><trkpt lat="43.1246346" lon="13.1338278"><ele>380.0</ele><time>2026-04-12T07:50:43.577Z</time></trkpt><trkpt lat="43.1246532" lon="13.1340385"><ele>372.75</ele><time>2026-04-12T07:50:44.574Z</time></trkpt><trkpt lat="43.1246638" lon="13.1342231"><ele>365.5</ele><time>2026-04-12T07:50:45.569Z</time></trkpt><trkpt lat="43.1246337" lon="13.1343787"><ele>358.25</ele><time>2026-04-12T07:50:46.577Z</time></trkpt><trkpt lat="43.1245546" lon="13.1344734"><ele>351.0</ele><time>2026-04-12T07:50:47.581Z</time></trkpt><trkpt lat="43.1244415" lon="13.1344998"><ele>351.0</ele><time>2026-04-12T07:50:48.573Z</time></trkpt><trkpt lat="43.1242929" lon="13.1344629"><ele>351.0</ele><time>2026-04-12T07:50:49.575Z</time></trkpt><trkpt lat="43.1241266" lon="13.1344099"><ele>351.0</ele><time>2026-04-12T07:50:50.58Z</time></trkpt><trkpt lat="43.1239321" lon="13.1343781"><ele>351.6666666666667</ele><time>2026-04-12T07:50:51.575Z</time></trkpt><trkpt lat="43.1237138" lon="13.1343776"><ele>352.33333333333337</ele><time>2026-04-12T07:50:52.579Z</time></trkpt><trkpt lat="43.1235041" lon="13.1343916"><ele>353.0</ele><time>2026-04-12T07:50:53.573Z</time></trkpt><trkpt lat="43.1232678" lon="13.1344112"><ele>356.33333333333337</ele><time>2026-04-12T07:50:54.573Z</time></trkpt><trkpt lat="43.1230521" lon="13.1344301"><ele>359.6666666666667</ele><time>2026-04-12T07:50:55.577Z</time></trkpt><trkpt lat="43.1228413" lon="13.1344549"><ele>363.0</ele><time>2026-04-12T07:50:56.573Z</time></trkpt><trkpt lat="43.1226267" lon="13.1344823"><ele>363.0</ele><time>2026-04-12T07:50:57.578Z</time></trkpt><trkpt lat="43.1224024" lon="13.1345234"><ele>363.0</ele><time>2026-04-12T07:50:58.573Z</time></trkpt><trkpt lat="43.1221769" lon="13.134574"><ele>365.0</ele><time>2026-04-12T07:50:59.571Z</time></trkpt><trkpt lat="43.1219483" lon="13.1346421"><ele>367.0</ele><time>2026-04-12T07:51:00.571Z</time></trkpt><trkpt lat="43.1217364" lon="13.1347065"><ele>363.0</ele><time>2026-04-12T07:51:01.576Z</time></trkpt><trkpt lat="43.121529" lon="13.1347645"><ele>359.0</ele><time>2026-04-12T07:51:02.569Z</time></trkpt><trkpt lat="43.1213282" lon="13.1347917"><ele>355.0</ele><time>2026-04-12T07:51:03.572Z</time></trkpt><trkpt lat="43.1211219" lon="13.1347677"><ele>355.0</ele><time>2026-04-12T07:51:04.575Z</time></trkpt><trkpt lat="43.1209166" lon="13.1347014"><ele>355.0</ele><time>2026-04-12T07:51:05.568Z</time></trkpt><trkpt lat="43.1207342" lon="13.1346155"><ele>355.0</ele><time>2026-04-12T07:51:06.57Z</time></trkpt><trkpt lat="43.120575" lon="13.1345161"><ele>351.0</ele><time>2026-04-12T07:51:07.576Z</time></trkpt><trkpt lat="43.120451" lon="13.1343896"><ele>347.0</ele><time>2026-04-12T07:51:08.57Z</time></trkpt><trkpt lat="43.1203701" lon="13.1342299"><ele>343.0</ele><time>2026-04-12T07:51:09.575Z</time></trkpt><trkpt lat="43.1203396" lon="13.1340462"><ele>339.0</ele><time>2026-04-12T07:51:10.576Z</time></trkpt><trkpt lat="43.1203564" lon="13.1338282"><ele>339.0</ele><time>2026-04-12T07:51:11.574Z</time></trkpt><trkpt lat="43.1204099" lon="13.1335845"><ele>339.0</ele><time>2026-04-12T07:51:12.575Z</time></trkpt><trkpt lat="43.1204627" lon="13.1333175"><ele>339.0</ele><time>2026-04-12T07:51:13.581Z</time></trkpt><trkpt lat="43.1204913" lon="13.1330554"><ele>338.3333333333333</ele><time>2026-04-12T07:51:14.574Z</time></trkpt><trkpt lat="43.1205002" lon="13.1328034"><ele>337.66666666666663</ele><time>2026-04-12T07:51:15.575Z</time></trkpt><trkpt lat="43.1204948" lon="13.1325702"><ele>337.0</ele><time>2026-04-12T07:51:16.57Z</time></trkpt><trkpt lat="43.1204792" lon="13.1323562"><ele>338.66666666666663</ele><time>2026-04-12T07:51:17.581Z</time></trkpt><trkpt lat="43.1203864" lon="13.1321626"><ele>340.3333333333333</ele><time>2026-04-12T07:51:18.569Z</time></trkpt><trkpt lat="43.1202461" lon="13.1319976"><ele>342.0</ele><time>2026-04-12T07:51:19.572Z</time></trkpt><trkpt lat="43.1200595" lon="13.1318334"><ele>342.0</ele><time>2026-04-12T07:51:20.582Z</time></trkpt><trkpt lat="43.1198585" lon="13.1316621"><ele>342.0</ele><time>2026-04-12T07:51:21.577Z</time></trkpt><trkpt lat="43.1196501" lon="13.131474"><ele>342.0</ele><time>2026-04-12T07:51:22.605Z</time></trkpt><trkpt lat="43.1194443" lon="13.1312949"><ele>342.0</ele><time>2026-04-12T07:51:23.573Z</time></trkpt><trkpt lat="43.1192473" lon="13.1311286"><ele>340.5</ele><time>2026-04-12T07:51:24.576Z</time></trkpt><trkpt lat="43.1190645" lon="13.1309519"><ele>339.0</ele><time>2026-04-12T07:51:25.573Z</time></trkpt><trkpt lat="43.118888" lon="13.1307418"><ele>340.5</ele><time>2026-04-12T07:51:26.578Z</time></trkpt><trkpt lat="43.1187208" lon="13.1305082"><ele>342.0</ele><time>2026-04-12T07:51:27.573Z</time></trkpt><trkpt lat="43.1185542" lon="13.1302686"><ele>342.0</ele><time>2026-04-12T07:51:28.569Z</time></trkpt><trkpt lat="43.1183895" lon="13.1300328"><ele>342.0</ele><time>2026-04-12T07:51:29.575Z</time></trkpt><trkpt lat="43.1182339" lon="13.129811"><ele>342.6666666666667</ele><time>2026-04-12T07:51:30.579Z</time></trkpt><trkpt lat="43.1180842" lon="13.1296045"><ele>343.33333333333337</ele><time>2026-04-12T07:51:31.574Z</time></trkpt><trkpt lat="43.1179429" lon="13.1294125"><ele>344.0</ele><time>2026-04-12T07:51:32.594Z</time></trkpt><trkpt lat="43.1178163" lon="13.1292262"><ele>344.6666666666667</ele><time>2026-04-12T07:51:33.582Z</time></trkpt><trkpt lat="43.1177161" lon="13.1290262"><ele>345.3333333333333</ele><time>2026-04-12T07:51:34.572Z</time></trkpt><trkpt lat="43.1176418" lon="13.1288006"><ele>346.0</ele><time>2026-04-12T07:51:35.574Z</time></trkpt><trkpt lat="43.1175885" lon="13.1285469"><ele>346.0</ele><time>2026-04-12T07:51:36.569Z</time></trkpt><trkpt lat="43.1175325" lon="13.1282804"><ele>346.0</ele><time>2026-04-12T07:51:37.577Z</time></trkpt><trkpt lat="43.117462" lon="13.1280184"><ele>346.0</ele><time>2026-04-12T07:51:38.572Z</time></trkpt><trkpt lat="43.1173812" lon="13.127779"><ele>345.3333333333333</ele><time>2026-04-12T07:51:39.605Z</time></trkpt><trkpt lat="43.117287" lon="13.1275583"><ele>344.6666666666667</ele><time>2026-04-12T07:51:40.576Z</time></trkpt><trkpt lat="43.1171767" lon="13.1273509"><ele>344.0</ele><time>2026-04-12T07:51:41.571Z</time></trkpt><trkpt lat="43.1170559" lon="13.1271764"><ele>347.33333333333337</ele><time>2026-04-12T07:51:42.578Z</time></trkpt><trkpt lat="43.1169208" lon="13.1270534"><ele>350.6666666666667</ele><time>2026-04-12T07:51:43.571Z</time></trkpt><trkpt lat="43.1167734" lon="13.1269976"><ele>354.0</ele><time>2026-04-12T07:51:44.594Z</time></trkpt><trkpt lat="43.1166083" lon="13.1270233"><ele>355.6666666666667</ele><time>2026-04-12T07:51:45.571Z</time></trkpt><trkpt lat="43.1164362" lon="13.1271335"><ele>357.33333333333337</ele><time>2026-04-12T07:51:46.571Z</time></trkpt><trkpt lat="43.116261" lon="13.1272998"><ele>359.0</ele><time>2026-04-12T07:51:47.579Z</time></trkpt><trkpt lat="43.1160858" lon="13.1274748"><ele>355.33333333333337</ele><time>2026-04-12T07:51:48.582Z</time></trkpt><trkpt lat="43.115929" lon="13.1276457"><ele>351.6666666666667</ele><time>2026-04-12T07:51:49.596Z</time></trkpt><trkpt lat="43.115789" lon="13.1278065"><ele>348.0</ele><time>2026-04-12T07:51:50.587Z</time></trkpt><trkpt lat="43.1156454" lon="13.1279311"><ele>346.6666666666667</ele><time>2026-04-12T07:51:51.576Z</time></trkpt><trkpt lat="43.1154825" lon="13.1280079"><ele>345.33333333333337</ele><time>2026-04-12T07:51:52.577Z</time></trkpt><trkpt lat="43.1153029" lon="13.1280224"><ele>344.0</ele><time>2026-04-12T07:51:53.572Z</time></trkpt><trkpt lat="43.1151148" lon="13.1279926"><ele>344.0</ele><time>2026-04-12T07:51:54.576Z</time></trkpt><trkpt lat="43.1149193" lon="13.1279535"><ele>344.0</ele><time>2026-04-12T07:51:55.577Z</time></trkpt><trkpt lat="43.1147124" lon="13.1279188"><ele>344.0</ele><time>2026-04-12T07:51:56.576Z</time></trkpt><trkpt lat="43.1145049" lon="13.1278809"><ele>345.0</ele><time>2026-04-12T07:51:57.574Z</time></trkpt><trkpt lat="43.1143085" lon="13.1278384"><ele>346.0</ele><time>2026-04-12T07:51:58.581Z</time></trkpt><trkpt lat="43.114122" lon="13.1277911"><ele>347.0</ele><time>2026-04-12T07:51:59.577Z</time></trkpt><trkpt lat="43.1139396" lon="13.1277345"><ele>347.6666666666667</ele><time>2026-04-12T07:52:00.578Z</time></trkpt><trkpt lat="43.1137587" lon="13.1276694"><ele>348.3333333333333</ele><time>2026-04-12T07:52:01.578Z</time></trkpt><trkpt lat="43.1135792" lon="13.1275998"><ele>349.0</ele><time>2026-04-12T07:52:02.592Z</time></trkpt><trkpt lat="43.1134003" lon="13.1275313"><ele>348.66666666666663</ele><time>2026-04-12T07:52:03.576Z</time></trkpt><trkpt lat="43.1132244" lon="13.1274622"><ele>348.3333333333333</ele><time>2026-04-12T07:52:04.593Z</time></trkpt><trkpt lat="43.1130487" lon="13.1273926"><ele>348.0</ele><time>2026-04-12T07:52:05.573Z</time></trkpt><trkpt lat="43.1128733" lon="13.1273267"><ele>351.0</ele><time>2026-04-12T07:52:06.574Z</time></trkpt><trkpt lat="43.1126995" lon="13.1272635"><ele>354.0</ele><time>2026-04-12T07:52:07.583Z</time></trkpt><trkpt lat="43.1125252" lon="13.1272024"><ele>357.0</ele><time>2026-04-12T07:52:08.581Z</time></trkpt><trkpt lat="43.1123484" lon="13.1271459"><ele>360.3333333333333</ele><time>2026-04-12T07:52:09.576Z</time></trkpt><trkpt lat="43.1121696" lon="13.1270888"><ele>363.66666666666663</ele><time>2026-04-12T07:52:10.574Z</time></trkpt><trkpt lat="43.1119999" lon="13.1270433"><ele>367.0</ele><time>2026-04-12T07:52:11.573Z</time></trkpt><trkpt lat="43.1118373" lon="13.1270014"><ele>367.0</ele><time>2026-04-12T07:52:12.579Z</time></trkpt><trkpt lat="43.1116799" lon="13.1269766"><ele>367.0</ele><time>2026-04-12T07:52:13.58Z</time></trkpt><trkpt lat="43.1115296" lon="13.1269632"><ele>367.0</ele><time>2026-04-12T07:52:14.599Z</time></trkpt><trkpt lat="43.1113829" lon="13.1269536"><ele>366.5</ele><time>2026-04-12T07:52:15.575Z</time></trkpt><trkpt lat="43.111242" lon="13.1269436"><ele>366.0</ele><time>2026-04-12T07:52:16.575Z</time></trkpt><trkpt lat="43.1111088" lon="13.126935"><ele>365.5</ele><time>2026-04-12T07:52:17.575Z</time></trkpt><trkpt lat="43.1109795" lon="13.1269271"><ele>365.0</ele><time>2026-04-12T07:52:18.578Z</time></trkpt><trkpt lat="43.1108533" lon="13.1269204"><ele>362.2</ele><time>2026-04-12T07:52:19.573Z</time></trkpt><trkpt lat="43.1107294" lon="13.1269147"><ele>359.4</ele><time>2026-04-12T07:52:20.572Z</time></trkpt><trkpt lat="43.1106114" lon="13.1269076"><ele>356.6</ele><time>2026-04-12T07:52:21.582Z</time></trkpt><trkpt lat="43.1105041" lon="13.1268982"><ele>353.8</ele><time>2026-04-12T07:52:22.573Z</time></trkpt><trkpt lat="43.1104123" lon="13.1268847"><ele>351.0</ele><time>2026-04-12T07:52:23.571Z</time></trkpt><trkpt lat="43.1103387" lon="13.1268687"><ele>351.0</ele><time>2026-04-12T07:52:24.576Z</time></trkpt><trkpt lat="43.1102611" lon="13.1268579"><ele>351.0</ele><time>2026-04-12T07:52:25.577Z</time></trkpt><trkpt lat="43.110162" lon="13.1268627"><ele>351.0</ele><time>2026-04-12T07:52:26.577Z</time></trkpt><trkpt lat="43.1100467" lon="13.1268937"><ele>351.0</ele><time>2026-04-12T07:52:27.576Z</time></trkpt><trkpt lat="43.1099284" lon="13.1269428"><ele>351.0</ele><time>2026-04-12T07:52:28.599Z</time></trkpt><trkpt lat="43.1098112" lon="13.1269979"><ele>353.0</ele><time>2026-04-12T07:52:29.57Z</time></trkpt><trkpt lat="43.1096917" lon="13.1270557"><ele>355.0</ele><time>2026-04-12T07:52:30.572Z</time></trkpt><trkpt lat="43.109568" lon="13.1271179"><ele>357.0</ele><time>2026-04-12T07:52:31.58Z</time></trkpt><trkpt lat="43.109441" lon="13.1271957"><ele>359.0</ele><time>2026-04-12T07:52:32.57Z</time></trkpt><trkpt lat="43.1093213" lon="13.127297"><ele>357.75</ele><time>2026-04-12T07:52:33.578Z</time></trkpt><trkpt lat="43.1092229" lon="13.1274377"><ele>356.5</ele><time>2026-04-12T07:52:34.578Z</time></trkpt><trkpt lat="43.1091251" lon="13.1275919"><ele>355.25</ele><time>2026-04-12T07:52:35.58Z</time></trkpt><trkpt lat="43.1090876" lon="13.1278021"><ele>354.0</ele><time>2026-04-12T07:52:36.581Z</time></trkpt><trkpt lat="43.1090393" lon="13.1280047"><ele>358.25</ele><time>2026-04-12T07:52:37.578Z</time></trkpt><trkpt lat="43.1089701" lon="13.1281885"><ele>362.5</ele><time>2026-04-12T07:52:38.604Z</time></trkpt><trkpt lat="43.1088672" lon="13.1283152"><ele>366.75</ele><time>2026-04-12T07:52:39.581Z</time></trkpt><trkpt lat="43.1087334" lon="13.1283871"><ele>371.0</ele><time>2026-04-12T07:52:40.572Z</time></trkpt><trkpt lat="43.1085946" lon="13.1284413"><ele>371.0</ele><time>2026-04-12T07:52:41.576Z</time></trkpt><trkpt lat="43.1084368" lon="13.1284269"><ele>371.0</ele><time>2026-04-12T07:52:42.578Z</time></trkpt><trkpt lat="43.1082516" lon="13.1284109"><ele>371.0</ele><time>2026-04-12T07:52:43.586Z</time></trkpt><trkpt lat="43.1080707" lon="13.1283953"><ele>372.0</ele><time>2026-04-12T07:52:44.572Z</time></trkpt><trkpt lat="43.1079247" lon="13.128389"><ele>373.0</ele><time>2026-04-12T07:52:45.575Z</time></trkpt><trkpt lat="43.1077988" lon="13.1283968"><ele>374.0</ele><time>2026-04-12T07:52:46.576Z</time></trkpt><trkpt lat="43.1076901" lon="13.1283987"><ele>375.0</ele><time>2026-04-12T07:52:47.573Z</time></trkpt><trkpt lat="43.1076048" lon="13.1283972"><ele>375.0</ele><time>2026-04-12T07:52:48.579Z</time></trkpt><trkpt lat="43.1075349" lon="13.1283975"><ele>375.0</ele><time>2026-04-12T07:52:49.573Z</time></trkpt><trkpt lat="43.1074657" lon="13.1283978"><ele>375.0</ele><time>2026-04-12T07:52:50.571Z</time></trkpt><trkpt lat="43.1073948" lon="13.1284052"><ele>375.0</ele><time>2026-04-12T07:52:51.58Z</time></trkpt><trkpt lat="43.1073039" lon="13.1284113"><ele>375.0</ele><time>2026-04-12T07:52:52.579Z</time></trkpt><trkpt lat="43.1071866" lon="13.1284207"><ele>375.0</ele><time>2026-04-12T07:52:53.573Z</time></trkpt><trkpt lat="43.107061" lon="13.1284234"><ele>374.75</ele><time>2026-04-12T07:52:54.578Z</time></trkpt><trkpt lat="43.1069271" lon="13.1284298"><ele>374.5</ele><time>2026-04-12T07:52:55.573Z</time></trkpt><trkpt lat="43.1067879" lon="13.1284379"><ele>374.25</ele><time>2026-04-12T07:52:56.571Z</time></trkpt><trkpt lat="43.106639" lon="13.1284509"><ele>374.0</ele><time>2026-04-12T07:52:57.578Z</time></trkpt><trkpt lat="43.1064918" lon="13.1284745"><ele>373.25</ele><time>2026-04-12T07:52:58.571Z</time></trkpt><trkpt lat="43.106345" lon="13.1285102"><ele>372.5</ele><time>2026-04-12T07:52:59.596Z</time></trkpt><trkpt lat="43.1062014" lon="13.1285542"><ele>371.75</ele><time>2026-04-12T07:53:00.578Z</time></trkpt><trkpt lat="43.1060568" lon="13.1286017"><ele>371.0</ele><time>2026-04-12T07:53:01.575Z</time></trkpt><trkpt lat="43.1059128" lon="13.1286542"><ele>371.0</ele><time>2026-04-12T07:53:02.578Z</time></trkpt><trkpt lat="43.1057712" lon="13.1287081"><ele>371.0</ele><time>2026-04-12T07:53:03.575Z</time></trkpt><trkpt lat="43.1056352" lon="13.1287695"><ele>371.0</ele><time>2026-04-12T07:53:04.602Z</time></trkpt><trkpt lat="43.1054997" lon="13.1288298"><ele>371.0</ele><time>2026-04-12T07:53:05.578Z</time></trkpt><trkpt lat="43.1053688" lon="13.1288877"><ele>370.5</ele><time>2026-04-12T07:53:06.578Z</time></trkpt><trkpt lat="43.1052357" lon="13.1289414"><ele>370.0</ele><time>2026-04-12T07:53:07.577Z</time></trkpt><trkpt lat="43.1051059" lon="13.1289917"><ele>369.5</ele><time>2026-04-12T07:53:08.577Z</time></trkpt><trkpt lat="43.1049651" lon="13.1289916"><ele>369.0</ele><time>2026-04-12T07:53:09.579Z</time></trkpt><trkpt lat="43.1048208" lon="13.1289411"><ele>366.6666666666667</ele><time>2026-04-12T07:53:10.578Z</time></trkpt><trkpt lat="43.10467" lon="13.1288485"><ele>364.33333333333337</ele><time>2026-04-12T07:53:11.578Z</time></trkpt><trkpt lat="43.1045055" lon="13.1287351"><ele>362.0</ele><time>2026-04-12T07:53:12.577Z</time></trkpt><trkpt lat="43.104327" lon="13.1286252"><ele>362.0</ele><time>2026-04-12T07:53:13.576Z</time></trkpt><trkpt lat="43.1041318" lon="13.1285294"><ele>362.0</ele><time>2026-04-12T07:53:14.586Z</time></trkpt><trkpt lat="43.103928" lon="13.1284513"><ele>362.0</ele><time>2026-04-12T07:53:15.578Z</time></trkpt><trkpt lat="43.1037301" lon="13.1283867"><ele>361.6666666666667</ele><time>2026-04-12T07:53:16.595Z</time></trkpt><trkpt lat="43.1035347" lon="13.1283286"><ele>361.3333333333333</ele><time>2026-04-12T07:53:17.58Z</time></trkpt><trkpt lat="43.1033411" lon="13.1282776"><ele>361.0</ele><time>2026-04-12T07:53:18.58Z</time></trkpt><trkpt lat="43.1031453" lon="13.1282403"><ele>364.66666666666663</ele><time>2026-04-12T07:53:19.576Z</time></trkpt><trkpt lat="43.1029501" lon="13.1282019"><ele>368.3333333333333</ele><time>2026-04-12T07:53:20.578Z</time></trkpt><trkpt lat="43.1027509" lon="13.1281855"><ele>372.0</ele><time>2026-04-12T07:53:21.58Z</time></trkpt><trkpt lat="43.1025463" lon="13.1281689"><ele>372.3333333333333</ele><time>2026-04-12T07:53:22.581Z</time></trkpt><trkpt lat="43.1023478" lon="13.1281617"><ele>372.66666666666663</ele><time>2026-04-12T07:53:23.597Z</time></trkpt><trkpt lat="43.1021577" lon="13.1281701"><ele>373.0</ele><time>2026-04-12T07:53:24.576Z</time></trkpt><trkpt lat="43.101976" lon="13.1282074"><ele>369.66666666666663</ele><time>2026-04-12T07:53:25.578Z</time></trkpt><trkpt lat="43.1017985" lon="13.1282861"><ele>366.3333333333333</ele><time>2026-04-12T07:53:26.592Z</time></trkpt><trkpt lat="43.1016317" lon="13.1283608"><ele>363.0</ele><time>2026-04-12T07:53:27.581Z</time></trkpt><trkpt lat="43.1014504" lon="13.1284247"><ele>362.3333333333333</ele><time>2026-04-12T07:53:28.584Z</time></trkpt><trkpt lat="43.1012879" lon="13.1283562"><ele>361.66666666666663</ele><time>2026-04-12T07:53:29.577Z</time></trkpt><trkpt lat="43.1011407" lon="13.1282306"><ele>361.0</ele><time>2026-04-12T07:53:30.576Z</time></trkpt><trkpt lat="43.1010137" lon="13.1280422"><ele>361.0</ele><time>2026-04-12T07:53:31.578Z</time></trkpt><trkpt lat="43.1008835" lon="13.1278333"><ele>361.0</ele><time>2026-04-12T07:53:32.576Z</time></trkpt><trkpt lat="43.100735" lon="13.1276254"><ele>361.0</ele><time>2026-04-12T07:53:33.596Z</time></trkpt><trkpt lat="43.100588" lon="13.1274136"><ele>363.0</ele><time>2026-04-12T07:53:34.578Z</time></trkpt><trkpt lat="43.1004433" lon="13.1272091"><ele>365.0</ele><time>2026-04-12T07:53:35.578Z</time></trkpt><trkpt lat="43.1003079" lon="13.1270031"><ele>367.0</ele><time>2026-04-12T07:53:36.581Z</time></trkpt><trkpt lat="43.1001787" lon="13.1267998"><ele>367.0</ele><time>2026-04-12T07:53:37.58Z</time></trkpt><trkpt lat="43.1000545" lon="13.1265962"><ele>367.0</ele><time>2026-04-12T07:53:38.582Z</time></trkpt><trkpt lat="43.0999313" lon="13.1263952"><ele>367.0</ele><time>2026-04-12T07:53:39.581Z</time></trkpt><trkpt lat="43.0998065" lon="13.1261954"><ele>367.66666666666663</ele><time>2026-04-12T07:53:40.583Z</time></trkpt><trkpt lat="43.0996838" lon="13.1259912"><ele>368.3333333333333</ele><time>2026-04-12T07:53:41.59Z</time></trkpt><trkpt lat="43.0995708" lon="13.1257746"><ele>369.0</ele><time>2026-04-12T07:53:42.58Z</time></trkpt><trkpt lat="43.0994965" lon="13.1255281"><ele>371.3333333333333</ele><time>2026-04-12T07:53:43.578Z</time></trkpt><trkpt lat="43.0994255" lon="13.1252802"><ele>373.66666666666663</ele><time>2026-04-12T07:53:44.582Z</time></trkpt><trkpt lat="43.0993858" lon="13.125031"><ele>376.0</ele><time>2026-04-12T07:53:45.582Z</time></trkpt><trkpt lat="43.0993332" lon="13.1247659"><ele>376.3333333333333</ele><time>2026-04-12T07:53:46.58Z</time></trkpt><trkpt lat="43.0992254" lon="13.1245527"><ele>376.6666666666667</ele><time>2026-04-12T07:53:47.593Z</time></trkpt><trkpt lat="43.0990623" lon="13.1243763"><ele>377.0</ele><time>2026-04-12T07:53:48.577Z</time></trkpt><trkpt lat="43.0988836" lon="13.1242149"><ele>382.6666666666667</ele><time>2026-04-12T07:53:49.572Z</time></trkpt><trkpt lat="43.0987116" lon="13.1240485"><ele>388.33333333333337</ele><time>2026-04-12T07:53:50.579Z</time></trkpt><trkpt lat="43.0985473" lon="13.1238985"><ele>394.0</ele><time>2026-04-12T07:53:51.577Z</time></trkpt><trkpt lat="43.0983984" lon="13.1237592"><ele>388.6666666666667</ele><time>2026-04-12T07:53:52.581Z</time></trkpt><trkpt lat="43.098243" lon="13.1236203"><ele>383.33333333333337</ele><time>2026-04-12T07:53:53.582Z</time></trkpt><trkpt lat="43.0980915" lon="13.1234823"><ele>378.0</ele><time>2026-04-12T07:53:54.582Z</time></trkpt><trkpt lat="43.0979341" lon="13.1233453"><ele>386.33333333333337</ele><time>2026-04-12T07:53:55.577Z</time></trkpt><trkpt lat="43.0977777" lon="13.1232028"><ele>394.6666666666667</ele><time>2026-04-12T07:53:56.585Z</time></trkpt><trkpt lat="43.0976222" lon="13.1230622"><ele>403.0</ele><time>2026-04-12T07:53:57.573Z</time></trkpt><trkpt lat="43.097474" lon="13.1229291"><ele>398.0</ele><time>2026-04-12T07:53:58.582Z</time></trkpt><trkpt lat="43.0973308" lon="13.1228135"><ele>393.0</ele><time>2026-04-12T07:53:59.59Z</time></trkpt><trkpt lat="43.097173" lon="13.1227251"><ele>388.0</ele><time>2026-04-12T07:54:00.576Z</time></trkpt><trkpt lat="43.0969993" lon="13.1226742"><ele>388.0</ele><time>2026-04-12T07:54:01.594Z</time></trkpt><trkpt lat="43.0968122" lon="13.1226356"><ele>388.0</ele><time>2026-04-12T07:54:02.572Z</time></trkpt><trkpt lat="43.0966093" lon="13.1226438"><ele>388.0</ele><time>2026-04-12T07:54:03.576Z</time></trkpt><trkpt lat="43.0964045" lon="13.1226966"><ele>385.33333333333337</ele><time>2026-04-12T07:54:04.573Z</time></trkpt><trkpt lat="43.0961914" lon="13.1227041"><ele>382.6666666666667</ele><time>2026-04-12T07:54:05.577Z</time></trkpt><trkpt lat="43.0959713" lon="13.122707"><ele>380.0</ele><time>2026-04-12T07:54:06.58Z</time></trkpt><trkpt lat="43.095765" lon="13.1226856"><ele>378.6666666666667</ele><time>2026-04-12T07:54:07.575Z</time></trkpt><trkpt lat="43.0955629" lon="13.1226612"><ele>377.3333333333333</ele><time>2026-04-12T07:54:08.6Z</time></trkpt><trkpt lat="43.0953628" lon="13.1226238"><ele>376.0</ele><time>2026-04-12T07:54:09.577Z</time></trkpt><trkpt lat="43.0951653" lon="13.122572"><ele>376.0</ele><time>2026-04-12T07:54:10.58Z</time></trkpt><trkpt lat="43.0949668" lon="13.1225036"><ele>376.0</ele><time>2026-04-12T07:54:11.581Z</time></trkpt><trkpt lat="43.094772" lon="13.1224156"><ele>376.0</ele><time>2026-04-12T07:54:12.585Z</time></trkpt><trkpt lat="43.0945781" lon="13.1223064"><ele>377.3333333333333</ele><time>2026-04-12T07:54:13.582Z</time></trkpt><trkpt lat="43.0943862" lon="13.1221864"><ele>378.6666666666667</ele><time>2026-04-12T07:54:14.582Z</time></trkpt><trkpt lat="43.0941955" lon="13.1220562"><ele>380.0</ele><time>2026-04-12T07:54:15.586Z</time></trkpt><trkpt lat="43.0940079" lon="13.1219173"><ele>380.0</ele><time>2026-04-12T07:54:16.578Z</time></trkpt><trkpt lat="43.0938217" lon="13.1217752"><ele>380.0</ele><time>2026-04-12T07:54:17.575Z</time></trkpt><trkpt lat="43.0936355" lon="13.1216334"><ele>380.0</ele><time>2026-04-12T07:54:18.575Z</time></trkpt><trkpt lat="43.093451" lon="13.1214891"><ele>380.0</ele><time>2026-04-12T07:54:19.577Z</time></trkpt><trkpt lat="43.0932676" lon="13.1213454"><ele>380.0</ele><time>2026-04-12T07:54:20.588Z</time></trkpt><trkpt lat="43.0930847" lon="13.121205"><ele>380.0</ele><time>2026-04-12T07:54:21.573Z</time></trkpt><trkpt lat="43.0929107" lon="13.121071"><ele>380.0</ele><time>2026-04-12T07:54:22.607Z</time></trkpt><trkpt lat="43.0927482" lon="13.1209453"><ele>380.0</ele><time>2026-04-12T07:54:23.574Z</time></trkpt><trkpt lat="43.092596" lon="13.1208216"><ele>380.0</ele><time>2026-04-12T07:54:24.574Z</time></trkpt><trkpt lat="43.092456" lon="13.1206909"><ele>379.0</ele><time>2026-04-12T07:54:25.578Z</time></trkpt><trkpt lat="43.0923324" lon="13.1205255"><ele>378.0</ele><time>2026-04-12T07:54:26.574Z</time></trkpt><trkpt lat="43.0922186" lon="13.1203467"><ele>377.0</ele><time>2026-04-12T07:54:27.573Z</time></trkpt><trkpt lat="43.0921578" lon="13.1201069"><ele>376.6666666666667</ele><time>2026-04-12T07:54:28.578Z</time></trkpt><trkpt lat="43.0921272" lon="13.1198587"><ele>376.3333333333333</ele><time>2026-04-12T07:54:29.574Z</time></trkpt><trkpt lat="43.092115" lon="13.1196124"><ele>376.0</ele><time>2026-04-12T07:54:30.595Z</time></trkpt><trkpt lat="43.0921048" lon="13.119376"><ele>376.0</ele><time>2026-04-12T07:54:31.574Z</time></trkpt><trkpt lat="43.0920958" lon="13.1191476"><ele>376.0</ele><time>2026-04-12T07:54:32.574Z</time></trkpt><trkpt lat="43.0920283" lon="13.1189362"><ele>376.0</ele><time>2026-04-12T07:54:33.576Z</time></trkpt><trkpt lat="43.0919423" lon="13.1187399"><ele>377.0</ele><time>2026-04-12T07:54:34.573Z</time></trkpt><trkpt lat="43.0918527" lon="13.1185504"><ele>378.0</ele><time>2026-04-12T07:54:35.581Z</time></trkpt><trkpt lat="43.0917657" lon="13.1183635"><ele>379.0</ele><time>2026-04-12T07:54:36.577Z</time></trkpt><trkpt lat="43.0916738" lon="13.1181954"><ele>379.0</ele><time>2026-04-12T07:54:37.577Z</time></trkpt><trkpt lat="43.0915722" lon="13.1180385"><ele>379.0</ele><time>2026-04-12T07:54:38.578Z</time></trkpt><trkpt lat="43.0914806" lon="13.1178786"><ele>379.0</ele><time>2026-04-12T07:54:39.572Z</time></trkpt><trkpt lat="43.091384" lon="13.117724"><ele>379.0</ele><time>2026-04-12T07:54:40.58Z</time></trkpt><trkpt lat="43.0912837" lon="13.1175699"><ele>379.0</ele><time>2026-04-12T07:54:41.578Z</time></trkpt><trkpt lat="43.0911747" lon="13.1174115"><ele>379.0</ele><time>2026-04-12T07:54:42.578Z</time></trkpt><trkpt lat="43.0910755" lon="13.1172299"><ele>379.66666666666663</ele><time>2026-04-12T07:54:43.575Z</time></trkpt><trkpt lat="43.0910122" lon="13.1170262"><ele>380.3333333333333</ele><time>2026-04-12T07:54:44.579Z</time></trkpt><trkpt lat="43.0909822" lon="13.1167943"><ele>381.0</ele><time>2026-04-12T07:54:45.576Z</time></trkpt><trkpt lat="43.0909768" lon="13.1165502"><ele>381.3333333333333</ele><time>2026-04-12T07:54:46.574Z</time></trkpt><trkpt lat="43.0909795" lon="13.1162817"><ele>381.66666666666663</ele><time>2026-04-12T07:54:47.575Z</time></trkpt><trkpt lat="43.090981" lon="13.1160057"><ele>382.0</ele><time>2026-04-12T07:54:48.578Z</time></trkpt><trkpt lat="43.0909811" lon="13.1157404"><ele>382.66666666666663</ele><time>2026-04-12T07:54:49.574Z</time></trkpt><trkpt lat="43.0909795" lon="13.1154851"><ele>383.3333333333333</ele><time>2026-04-12T07:54:50.586Z</time></trkpt><trkpt lat="43.0909815" lon="13.1152375"><ele>384.0</ele><time>2026-04-12T07:54:51.576Z</time></trkpt><trkpt lat="43.0909811" lon="13.114995"><ele>384.33333333333337</ele><time>2026-04-12T07:54:52.579Z</time></trkpt><trkpt lat="43.0909836" lon="13.114751"><ele>384.6666666666667</ele><time>2026-04-12T07:54:53.577Z</time></trkpt><trkpt lat="43.0909849" lon="13.114505"><ele>385.0</ele><time>2026-04-12T07:54:54.585Z</time></trkpt><trkpt lat="43.0909834" lon="13.1142563"><ele>385.0</ele><time>2026-04-12T07:54:55.574Z</time></trkpt><trkpt lat="43.0909847" lon="13.1139981"><ele>385.0</ele><time>2026-04-12T07:54:56.578Z</time></trkpt><trkpt lat="43.0909821" lon="13.1137301"><ele>385.0</ele><time>2026-04-12T07:54:57.578Z</time></trkpt><trkpt lat="43.0909728" lon="13.1134499"><ele>385.33333333333337</ele><time>2026-04-12T07:54:58.581Z</time></trkpt><trkpt lat="43.0909507" lon="13.1131621"><ele>385.66666666666663</ele><time>2026-04-12T07:54:59.578Z</time></trkpt><trkpt lat="43.0909141" lon="13.1128708"><ele>386.0</ele><time>2026-04-12T07:55:00.573Z</time></trkpt><trkpt lat="43.0908707" lon="13.1125847"><ele>385.66666666666663</ele><time>2026-04-12T07:55:01.594Z</time></trkpt><trkpt lat="43.0908016" lon="13.112296"><ele>385.33333333333337</ele><time>2026-04-12T07:55:02.577Z</time></trkpt><trkpt lat="43.090716" lon="13.1120194"><ele>385.0</ele><time>2026-04-12T07:55:03.573Z</time></trkpt><trkpt lat="43.0906136" lon="13.1117553"><ele>388.33333333333337</ele><time>2026-04-12T07:55:04.57Z</time></trkpt><trkpt lat="43.0904972" lon="13.1115086"><ele>391.66666666666663</ele><time>2026-04-12T07:55:05.571Z</time></trkpt><trkpt lat="43.0903728" lon="13.1112847"><ele>395.0</ele><time>2026-04-12T07:55:06.57Z</time></trkpt><trkpt lat="43.0902387" lon="13.1110814"><ele>395.0</ele><time>2026-04-12T07:55:07.57Z</time></trkpt><trkpt lat="43.0900968" lon="13.1108996"><ele>395.0</ele><time>2026-04-12T07:55:08.573Z</time></trkpt><trkpt lat="43.0899472" lon="13.1107272"><ele>395.0</ele><time>2026-04-12T07:55:09.572Z</time></trkpt><trkpt lat="43.0898093" lon="13.1105398"><ele>396.0</ele><time>2026-04-12T07:55:10.577Z</time></trkpt><trkpt lat="43.0896875" lon="13.1103287"><ele>397.0</ele><time>2026-04-12T07:55:11.573Z</time></trkpt><trkpt lat="43.0895885" lon="13.1100885"><ele>398.0</ele><time>2026-04-12T07:55:12.57Z</time></trkpt><trkpt lat="43.0895127" lon="13.1098312"><ele>400.0</ele><time>2026-04-12T07:55:13.571Z</time></trkpt><trkpt lat="43.0894596" lon="13.1095643"><ele>402.0</ele><time>2026-04-12T07:55:14.576Z</time></trkpt><trkpt lat="43.0894081" lon="13.1092996"><ele>404.0</ele><time>2026-04-12T07:55:15.569Z</time></trkpt><trkpt lat="43.0893876" lon="13.1090223"><ele>404.0</ele><time>2026-04-12T07:55:16.571Z</time></trkpt><trkpt lat="43.0893736" lon="13.1087569"><ele>404.0</ele><time>2026-04-12T07:55:17.578Z</time></trkpt><trkpt lat="43.0893438" lon="13.1084996"><ele>404.0</ele><time>2026-04-12T07:55:18.569Z</time></trkpt><trkpt lat="43.089298" lon="13.1082509"><ele>404.3333333333333</ele><time>2026-04-12T07:55:19.596Z</time></trkpt><trkpt lat="43.0892333" lon="13.1080015"><ele>404.66666666666663</ele><time>2026-04-12T07:55:20.574Z</time></trkpt><trkpt lat="43.0891521" lon="13.1077574"><ele>405.0</ele><time>2026-04-12T07:55:21.575Z</time></trkpt><trkpt lat="43.089063" lon="13.1075202"><ele>404.66666666666663</ele><time>2026-04-12T07:55:22.577Z</time></trkpt><trkpt lat="43.0889754" lon="13.1072925"><ele>404.3333333333333</ele><time>2026-04-12T07:55:23.58Z</time></trkpt><trkpt lat="43.0888894" lon="13.1070668"><ele>404.0</ele><time>2026-04-12T07:55:24.573Z</time></trkpt><trkpt lat="43.0888025" lon="13.1068409"><ele>404.0</ele><time>2026-04-12T07:55:25.574Z</time></trkpt><trkpt lat="43.0887133" lon="13.1066134"><ele>404.0</ele><time>2026-04-12T07:55:26.571Z</time></trkpt><trkpt lat="43.0886246" lon="13.106386"><ele>404.0</ele><time>2026-04-12T07:55:27.578Z</time></trkpt><trkpt lat="43.0885376" lon="13.1061567"><ele>404.3333333333333</ele><time>2026-04-12T07:55:28.574Z</time></trkpt><trkpt lat="43.0884523" lon="13.1059249"><ele>404.66666666666663</ele><time>2026-04-12T07:55:29.581Z</time></trkpt><trkpt lat="43.0883702" lon="13.1056884"><ele>405.0</ele><time>2026-04-12T07:55:30.572Z</time></trkpt><trkpt lat="43.0882888" lon="13.1054455"><ele>403.0</ele><time>2026-04-12T07:55:31.574Z</time></trkpt><trkpt lat="43.0882039" lon="13.1051937"><ele>401.0</ele><time>2026-04-12T07:55:32.581Z</time></trkpt><trkpt lat="43.0881158" lon="13.1049337"><ele>399.0</ele><time>2026-04-12T07:55:33.574Z</time></trkpt><trkpt lat="43.0880232" lon="13.104668"><ele>399.0</ele><time>2026-04-12T07:55:34.583Z</time></trkpt><trkpt lat="43.0879244" lon="13.1043979"><ele>399.0</ele><time>2026-04-12T07:55:35.57Z</time></trkpt><trkpt lat="43.0878194" lon="13.1041255"><ele>399.0</ele><time>2026-04-12T07:55:36.576Z</time></trkpt><trkpt lat="43.08771" lon="13.1038503"><ele>402.0</ele><time>2026-04-12T07:55:37.577Z</time></trkpt><trkpt lat="43.0875952" lon="13.103574"><ele>405.0</ele><time>2026-04-12T07:55:38.571Z</time></trkpt><trkpt lat="43.0874748" lon="13.1032974"><ele>402.0</ele><time>2026-04-12T07:55:39.574Z</time></trkpt><trkpt lat="43.0873476" lon="13.1030225"><ele>399.0</ele><time>2026-04-12T07:55:40.576Z</time></trkpt><trkpt lat="43.087222" lon="13.1027644"><ele>399.0</ele><time>2026-04-12T07:55:41.575Z</time></trkpt><trkpt lat="43.0870994" lon="13.1025261"><ele>399.0</ele><time>2026-04-12T07:55:42.582Z</time></trkpt><trkpt lat="43.0869777" lon="13.1022991"><ele>399.0</ele><time>2026-04-12T07:55:43.577Z</time></trkpt><trkpt lat="43.0868529" lon="13.1020751"><ele>398.33333333333337</ele><time>2026-04-12T07:55:44.581Z</time></trkpt><trkpt lat="43.086724" lon="13.1018552"><ele>397.6666666666667</ele><time>2026-04-12T07:55:45.577Z</time></trkpt><trkpt lat="43.0865919" lon="13.1016407"><ele>397.0</ele><time>2026-04-12T07:55:46.573Z</time></trkpt><trkpt lat="43.0864562" lon="13.1014291"><ele>399.0</ele><time>2026-04-12T07:55:47.577Z</time></trkpt><trkpt lat="43.0863163" lon="13.1012274"><ele>401.0</ele><time>2026-04-12T07:55:48.578Z</time></trkpt><trkpt lat="43.0861749" lon="13.1010214"><ele>403.0</ele><time>2026-04-12T07:55:49.577Z</time></trkpt><trkpt lat="43.0860327" lon="13.1008204"><ele>402.0</ele><time>2026-04-12T07:55:50.579Z</time></trkpt><trkpt lat="43.0858899" lon="13.1006063"><ele>401.0</ele><time>2026-04-12T07:55:51.577Z</time></trkpt><trkpt lat="43.0857417" lon="13.1003913"><ele>400.0</ele><time>2026-04-12T07:55:52.572Z</time></trkpt><trkpt lat="43.085596" lon="13.100171"><ele>400.0</ele><time>2026-04-12T07:55:53.574Z</time></trkpt><trkpt lat="43.0854498" lon="13.0999492"><ele>400.0</ele><time>2026-04-12T07:55:54.574Z</time></trkpt><trkpt lat="43.0853098" lon="13.0997182"><ele>400.0</ele><time>2026-04-12T07:55:55.57Z</time></trkpt><trkpt lat="43.0851804" lon="13.0994801"><ele>399.6666666666667</ele><time>2026-04-12T07:55:56.573Z</time></trkpt><trkpt lat="43.0850589" lon="13.0992356"><ele>399.33333333333337</ele><time>2026-04-12T07:55:57.572Z</time></trkpt><trkpt lat="43.0849398" lon="13.0989904"><ele>399.0</ele><time>2026-04-12T07:55:58.578Z</time></trkpt><trkpt lat="43.0848285" lon="13.0987401"><ele>399.0</ele><time>2026-04-12T07:55:59.574Z</time></trkpt><trkpt lat="43.0847255" lon="13.0984849"><ele>399.0</ele><time>2026-04-12T07:56:00.575Z</time></trkpt><trkpt lat="43.0846297" lon="13.0982429"><ele>399.0</ele><time>2026-04-12T07:56:01.575Z</time></trkpt><trkpt lat="43.0845354" lon="13.0980058"><ele>401.0</ele><time>2026-04-12T07:56:02.572Z</time></trkpt><trkpt lat="43.0844338" lon="13.0977627"><ele>403.0</ele><time>2026-04-12T07:56:03.577Z</time></trkpt><trkpt lat="43.0843202" lon="13.097522"><ele>405.0</ele><time>2026-04-12T07:56:04.573Z</time></trkpt><trkpt lat="43.0841914" lon="13.097287"><ele>403.66666666666663</ele><time>2026-04-12T07:56:05.569Z</time></trkpt><trkpt lat="43.0840509" lon="13.0970564"><ele>402.3333333333333</ele><time>2026-04-12T07:56:06.584Z</time></trkpt><trkpt lat="43.0839087" lon="13.0968434"><ele>401.0</ele><time>2026-04-12T07:56:07.578Z</time></trkpt><trkpt lat="43.0837677" lon="13.0966542"><ele>407.0</ele><time>2026-04-12T07:56:08.578Z</time></trkpt><trkpt lat="43.0836234" lon="13.0964866"><ele>413.0</ele><time>2026-04-12T07:56:09.575Z</time></trkpt><trkpt lat="43.0834741" lon="13.0963326"><ele>419.0</ele><time>2026-04-12T07:56:10.573Z</time></trkpt><trkpt lat="43.0833153" lon="13.096185"><ele>413.3333333333333</ele><time>2026-04-12T07:56:11.573Z</time></trkpt><trkpt lat="43.0831519" lon="13.0960296"><ele>407.66666666666663</ele><time>2026-04-12T07:56:12.583Z</time></trkpt><trkpt lat="43.0829966" lon="13.0958409"><ele>402.0</ele><time>2026-04-12T07:56:13.577Z</time></trkpt><trkpt lat="43.0828565" lon="13.0956261"><ele>402.0</ele><time>2026-04-12T07:56:14.573Z</time></trkpt><trkpt lat="43.0827444" lon="13.0953655"><ele>402.0</ele><time>2026-04-12T07:56:15.57Z</time></trkpt><trkpt lat="43.08265" lon="13.0950836"><ele>402.0</ele><time>2026-04-12T07:56:16.576Z</time></trkpt><trkpt lat="43.0826089" lon="13.0947687"><ele>404.0</ele><time>2026-04-12T07:56:17.577Z</time></trkpt><trkpt lat="43.0825638" lon="13.0944444"><ele>406.0</ele><time>2026-04-12T07:56:18.577Z</time></trkpt><trkpt lat="43.0824955" lon="13.0941195"><ele>402.5</ele><time>2026-04-12T07:56:19.578Z</time></trkpt><trkpt lat="43.0824045" lon="13.0938014"><ele>399.0</ele><time>2026-04-12T07:56:20.575Z</time></trkpt><trkpt lat="43.0822997" lon="13.0935005"><ele>401.5</ele><time>2026-04-12T07:56:21.578Z</time></trkpt><trkpt lat="43.0821906" lon="13.0932128"><ele>404.0</ele><time>2026-04-12T07:56:22.578Z</time></trkpt><trkpt lat="43.0820853" lon="13.0929304"><ele>404.0</ele><time>2026-04-12T07:56:23.573Z</time></trkpt><trkpt lat="43.0819884" lon="13.0926512"><ele>404.0</ele><time>2026-04-12T07:56:24.573Z</time></trkpt><trkpt lat="43.0818958" lon="13.0923758"><ele>404.0</ele><time>2026-04-12T07:56:25.585Z</time></trkpt><trkpt lat="43.0818033" lon="13.0921027"><ele>405.3333333333333</ele><time>2026-04-12T07:56:26.577Z</time></trkpt><trkpt lat="43.0817214" lon="13.0918307"><ele>406.66666666666663</ele><time>2026-04-12T07:56:27.571Z</time></trkpt><trkpt lat="43.081649" lon="13.0915581"><ele>408.0</ele><time>2026-04-12T07:56:28.575Z</time></trkpt><trkpt lat="43.0815758" lon="13.0913005"><ele>408.0</ele><time>2026-04-12T07:56:29.575Z</time></trkpt><trkpt lat="43.0815078" lon="13.0910641"><ele>408.0</ele><time>2026-04-12T07:56:30.573Z</time></trkpt><trkpt lat="43.081443" lon="13.0908243"><ele>408.0</ele><time>2026-04-12T07:56:31.574Z</time></trkpt><trkpt lat="43.0813751" lon="13.0905813"><ele>408.33333333333337</ele><time>2026-04-12T07:56:32.578Z</time></trkpt><trkpt lat="43.0813039" lon="13.0903294"><ele>408.6666666666667</ele><time>2026-04-12T07:56:33.577Z</time></trkpt><trkpt lat="43.0812288" lon="13.0900698"><ele>409.0</ele><time>2026-04-12T07:56:34.574Z</time></trkpt><trkpt lat="43.0811535" lon="13.0898063"><ele>409.6666666666667</ele><time>2026-04-12T07:56:35.577Z</time></trkpt><trkpt lat="43.0810819" lon="13.0895432"><ele>410.33333333333337</ele><time>2026-04-12T07:56:36.573Z</time></trkpt><trkpt lat="43.0810111" lon="13.0892844"><ele>411.0</ele><time>2026-04-12T07:56:37.582Z</time></trkpt><trkpt lat="43.0809367" lon="13.089025"><ele>411.66666666666663</ele><time>2026-04-12T07:56:38.576Z</time></trkpt><trkpt lat="43.0808643" lon="13.0887642"><ele>412.3333333333333</ele><time>2026-04-12T07:56:39.578Z</time></trkpt><trkpt lat="43.0807893" lon="13.0885067"><ele>413.0</ele><time>2026-04-12T07:56:40.571Z</time></trkpt><trkpt lat="43.0807135" lon="13.0882507"><ele>410.3333333333333</ele><time>2026-04-12T07:56:41.579Z</time></trkpt><trkpt lat="43.0806391" lon="13.0879932"><ele>407.66666666666663</ele><time>2026-04-12T07:56:42.575Z</time></trkpt><trkpt lat="43.0805623" lon="13.0877353"><ele>405.0</ele><time>2026-04-12T07:56:43.576Z</time></trkpt><trkpt lat="43.0804804" lon="13.0874726"><ele>405.33333333333337</ele><time>2026-04-12T07:56:44.573Z</time></trkpt><trkpt lat="43.0803986" lon="13.0872097"><ele>405.6666666666667</ele><time>2026-04-12T07:56:45.576Z</time></trkpt><trkpt lat="43.0803214" lon="13.0869552"><ele>406.0</ele><time>2026-04-12T07:56:46.571Z</time></trkpt><trkpt lat="43.0802395" lon="13.0867059"><ele>406.0</ele><time>2026-04-12T07:56:47.575Z</time></trkpt><trkpt lat="43.0801595" lon="13.0864548"><ele>406.0</ele><time>2026-04-12T07:56:48.601Z</time></trkpt><trkpt lat="43.0800838" lon="13.086204"><ele>406.0</ele><time>2026-04-12T07:56:49.575Z</time></trkpt><trkpt lat="43.0800136" lon="13.0859576"><ele>406.33333333333337</ele><time>2026-04-12T07:56:50.573Z</time></trkpt><trkpt lat="43.07994" lon="13.0857132"><ele>406.66666666666663</ele><time>2026-04-12T07:56:51.573Z</time></trkpt><trkpt lat="43.0798678" lon="13.085475"><ele>407.0</ele><time>2026-04-12T07:56:52.574Z</time></trkpt><trkpt lat="43.0797965" lon="13.0852377"><ele>407.0</ele><time>2026-04-12T07:56:53.577Z</time></trkpt><trkpt lat="43.0797246" lon="13.0850009"><ele>407.0</ele><time>2026-04-12T07:56:54.573Z</time></trkpt><trkpt lat="43.0796517" lon="13.0847604"><ele>407.0</ele><time>2026-04-12T07:56:55.581Z</time></trkpt><trkpt lat="43.07958" lon="13.084517"><ele>408.0</ele><time>2026-04-12T07:56:56.578Z</time></trkpt><trkpt lat="43.0795091" lon="13.0842751"><ele>409.0</ele><time>2026-04-12T07:56:57.574Z</time></trkpt><trkpt lat="43.0794411" lon="13.0840376"><ele>410.0</ele><time>2026-04-12T07:56:58.578Z</time></trkpt><trkpt lat="43.0793807" lon="13.0838063"><ele>410.3333333333333</ele><time>2026-04-12T07:56:59.575Z</time></trkpt><trkpt lat="43.0793241" lon="13.08358"><ele>410.66666666666663</ele><time>2026-04-12T07:57:00.58Z</time></trkpt><trkpt lat="43.0792679" lon="13.0833517"><ele>411.0</ele><time>2026-04-12T07:57:01.579Z</time></trkpt><trkpt lat="43.0792118" lon="13.0831187"><ele>411.66666666666663</ele><time>2026-04-12T07:57:02.586Z</time></trkpt><trkpt lat="43.0791578" lon="13.0828865"><ele>412.3333333333333</ele><time>2026-04-12T07:57:03.573Z</time></trkpt><trkpt lat="43.0791087" lon="13.0826648"><ele>413.0</ele><time>2026-04-12T07:57:04.574Z</time></trkpt><trkpt lat="43.0790597" lon="13.0824467"><ele>412.3333333333333</ele><time>2026-04-12T07:57:05.574Z</time></trkpt><trkpt lat="43.0790122" lon="13.0822316"><ele>411.66666666666663</ele><time>2026-04-12T07:57:06.579Z</time></trkpt><trkpt lat="43.0789721" lon="13.082025"><ele>411.0</ele><time>2026-04-12T07:57:07.577Z</time></trkpt><trkpt lat="43.0789441" lon="13.0818298"><ele>411.0</ele><time>2026-04-12T07:57:08.586Z</time></trkpt><trkpt lat="43.078927" lon="13.0816455"><ele>411.0</ele><time>2026-04-12T07:57:09.573Z</time></trkpt><trkpt lat="43.0789239" lon="13.0814693"><ele>411.0</ele><time>2026-04-12T07:57:10.573Z</time></trkpt><trkpt lat="43.0789269" lon="13.0812931"><ele>411.0</ele><time>2026-04-12T07:57:11.575Z</time></trkpt><trkpt lat="43.0789457" lon="13.0811156"><ele>410.33333333333337</ele><time>2026-04-12T07:57:12.573Z</time></trkpt><trkpt lat="43.0790005" lon="13.0809293"><ele>409.6666666666667</ele><time>2026-04-12T07:57:13.576Z</time></trkpt><trkpt lat="43.0790528" lon="13.0807321"><ele>409.0</ele><time>2026-04-12T07:57:14.573Z</time></trkpt><trkpt lat="43.0790924" lon="13.0805224"><ele>410.33333333333337</ele><time>2026-04-12T07:57:15.577Z</time></trkpt><trkpt lat="43.0791293" lon="13.0803025"><ele>411.66666666666663</ele><time>2026-04-12T07:57:16.573Z</time></trkpt><trkpt lat="43.0791533" lon="13.0800712"><ele>413.0</ele><time>2026-04-12T07:57:17.578Z</time></trkpt><trkpt lat="43.0791704" lon="13.0798304"><ele>413.0</ele><time>2026-04-12T07:57:18.575Z</time></trkpt><trkpt lat="43.0791883" lon="13.0795814"><ele>413.0</ele><time>2026-04-12T07:57:19.579Z</time></trkpt><trkpt lat="43.0792115" lon="13.0793447"><ele>413.0</ele><time>2026-04-12T07:57:20.576Z</time></trkpt><trkpt lat="43.0792359" lon="13.0791186"><ele>412.66666666666663</ele><time>2026-04-12T07:57:21.575Z</time></trkpt><trkpt lat="43.0792563" lon="13.0788965"><ele>412.33333333333337</ele><time>2026-04-12T07:57:22.582Z</time></trkpt><trkpt lat="43.0792775" lon="13.0786765"><ele>412.0</ele><time>2026-04-12T07:57:23.582Z</time></trkpt><trkpt lat="43.0792974" lon="13.0784533"><ele>412.0</ele><time>2026-04-12T07:57:24.576Z</time></trkpt><trkpt lat="43.079321" lon="13.078233"><ele>412.0</ele><time>2026-04-12T07:57:25.576Z</time></trkpt><trkpt lat="43.0793379" lon="13.0780056"><ele>412.0</ele><time>2026-04-12T07:57:26.576Z</time></trkpt><trkpt lat="43.0793577" lon="13.0777722"><ele>412.0</ele><time>2026-04-12T07:57:27.576Z</time></trkpt><trkpt lat="43.0793739" lon="13.0775293"><ele>412.0</ele><time>2026-04-12T07:57:28.574Z</time></trkpt><trkpt lat="43.079384" lon="13.0772833"><ele>412.0</ele><time>2026-04-12T07:57:29.573Z</time></trkpt><trkpt lat="43.0793956" lon="13.0770339"><ele>412.33333333333337</ele><time>2026-04-12T07:57:30.575Z</time></trkpt><trkpt lat="43.07941" lon="13.0767868"><ele>412.66666666666663</ele><time>2026-04-12T07:57:31.574Z</time></trkpt><trkpt lat="43.0794209" lon="13.076544"><ele>413.0</ele><time>2026-04-12T07:57:32.578Z</time></trkpt><trkpt lat="43.0794249" lon="13.0763052"><ele>413.3333333333333</ele><time>2026-04-12T07:57:33.582Z</time></trkpt><trkpt lat="43.0794238" lon="13.0760787"><ele>413.66666666666663</ele><time>2026-04-12T07:57:34.573Z</time></trkpt><trkpt lat="43.0794033" lon="13.0758705"><ele>414.0</ele><time>2026-04-12T07:57:35.576Z</time></trkpt><trkpt lat="43.079364" lon="13.0756872"><ele>414.5</ele><time>2026-04-12T07:57:36.577Z</time></trkpt><trkpt lat="43.0793178" lon="13.0755193"><ele>415.0</ele><time>2026-04-12T07:57:37.58Z</time></trkpt><trkpt lat="43.0792632" lon="13.0753703"><ele>415.5</ele><time>2026-04-12T07:57:38.577Z</time></trkpt><trkpt lat="43.0792115" lon="13.0752349"><ele>416.0</ele><time>2026-04-12T07:57:39.606Z</time></trkpt><trkpt lat="43.0791772" lon="13.0751072"><ele>416.0</ele><time>2026-04-12T07:57:40.578Z</time></trkpt><trkpt lat="43.0791625" lon="13.0749702"><ele>416.0</ele><time>2026-04-12T07:57:41.579Z</time></trkpt><trkpt lat="43.0791798" lon="13.0748285"><ele>416.0</ele><time>2026-04-12T07:57:42.578Z</time></trkpt><trkpt lat="43.079201" lon="13.0746874"><ele>416.0</ele><time>2026-04-12T07:57:43.581Z</time></trkpt><trkpt lat="43.0791941" lon="13.0745392"><ele>416.0</ele><time>2026-04-12T07:57:44.578Z</time></trkpt><trkpt lat="43.0791441" lon="13.0744085"><ele>415.75</ele><time>2026-04-12T07:57:45.571Z</time></trkpt><trkpt lat="43.0790523" lon="13.0743011"><ele>415.5</ele><time>2026-04-12T07:57:46.58Z</time></trkpt><trkpt lat="43.0789487" lon="13.0741674"><ele>415.25</ele><time>2026-04-12T07:57:47.59Z</time></trkpt><trkpt lat="43.0788413" lon="13.0740051"><ele>415.0</ele><time>2026-04-12T07:57:48.581Z</time></trkpt><trkpt lat="43.078757" lon="13.0737558"><ele>415.0</ele><time>2026-04-12T07:57:49.594Z</time></trkpt><trkpt lat="43.0786414" lon="13.0735006"><ele>415.0</ele><time>2026-04-12T07:57:50.583Z</time></trkpt><trkpt lat="43.0785335" lon="13.0732425"><ele>415.0</ele><time>2026-04-12T07:57:51.582Z</time></trkpt><trkpt lat="43.07843" lon="13.0729964"><ele>415.0</ele><time>2026-04-12T07:57:52.581Z</time></trkpt><trkpt lat="43.078342" lon="13.0727606"><ele>415.0</ele><time>2026-04-12T07:57:53.58Z</time></trkpt><trkpt lat="43.0782591" lon="13.0725329"><ele>415.0</ele><time>2026-04-12T07:57:54.581Z</time></trkpt><trkpt lat="43.0781807" lon="13.0723072"><ele>415.33333333333337</ele><time>2026-04-12T07:57:55.582Z</time></trkpt><trkpt lat="43.0781003" lon="13.0720839"><ele>415.66666666666663</ele><time>2026-04-12T07:57:56.583Z</time></trkpt><trkpt lat="43.0780223" lon="13.0718683"><ele>416.0</ele><time>2026-04-12T07:57:57.582Z</time></trkpt><trkpt lat="43.0779526" lon="13.0716669"><ele>417.0</ele><time>2026-04-12T07:57:58.584Z</time></trkpt><trkpt lat="43.0778867" lon="13.0714729"><ele>418.0</ele><time>2026-04-12T07:57:59.582Z</time></trkpt><trkpt lat="43.0778241" lon="13.0712889"><ele>419.0</ele><time>2026-04-12T07:58:00.579Z</time></trkpt><trkpt lat="43.0777576" lon="13.0710977"><ele>419.0</ele><time>2026-04-12T07:58:01.58Z</time></trkpt><trkpt lat="43.0776874" lon="13.0709006"><ele>419.0</ele><time>2026-04-12T07:58:02.577Z</time></trkpt><trkpt lat="43.0776224" lon="13.0707159"><ele>419.0</ele><time>2026-04-12T07:58:03.582Z</time></trkpt><trkpt lat="43.0775622" lon="13.0705449"><ele>419.0</ele><time>2026-04-12T07:58:04.58Z</time></trkpt><trkpt lat="43.0775068" lon="13.0703825"><ele>419.5</ele><time>2026-04-12T07:58:05.577Z</time></trkpt><trkpt lat="43.0774559" lon="13.0702316"><ele>420.0</ele><time>2026-04-12T07:58:06.581Z</time></trkpt><trkpt lat="43.0774041" lon="13.0700794"><ele>420.5</ele><time>2026-04-12T07:58:07.578Z</time></trkpt><trkpt lat="43.0773535" lon="13.0699218"><ele>421.0</ele><time>2026-04-12T07:58:08.574Z</time></trkpt><trkpt lat="43.077302" lon="13.0697638"><ele>421.0</ele><time>2026-04-12T07:58:09.582Z</time></trkpt><trkpt lat="43.0772506" lon="13.0696033"><ele>421.0</ele><time>2026-04-12T07:58:10.587Z</time></trkpt><trkpt lat="43.0771969" lon="13.0694354"><ele>421.0</ele><time>2026-04-12T07:58:11.578Z</time></trkpt><trkpt lat="43.0771409" lon="13.0692594"><ele>421.0</ele><time>2026-04-12T07:58:12.581Z</time></trkpt><trkpt lat="43.0770814" lon="13.0690723"><ele>421.33333333333337</ele><time>2026-04-12T07:58:13.579Z</time></trkpt><trkpt lat="43.0770201" lon="13.0688798"><ele>421.66666666666663</ele><time>2026-04-12T07:58:14.575Z</time></trkpt><trkpt lat="43.0769592" lon="13.0686833"><ele>422.0</ele><time>2026-04-12T07:58:15.577Z</time></trkpt><trkpt lat="43.0768977" lon="13.0684826"><ele>422.0</ele><time>2026-04-12T07:58:16.58Z</time></trkpt><trkpt lat="43.0768365" lon="13.0682778"><ele>422.0</ele><time>2026-04-12T07:58:17.577Z</time></trkpt><trkpt lat="43.076776" lon="13.0680679"><ele>422.0</ele><time>2026-04-12T07:58:18.598Z</time></trkpt><trkpt lat="43.0767173" lon="13.0678525"><ele>422.0</ele><time>2026-04-12T07:58:19.576Z</time></trkpt><trkpt lat="43.076661" lon="13.067629"><ele>422.0</ele><time>2026-04-12T07:58:20.575Z</time></trkpt><trkpt lat="43.0766143" lon="13.0673977"><ele>422.0</ele><time>2026-04-12T07:58:21.577Z</time></trkpt><trkpt lat="43.07659" lon="13.0671573"><ele>423.0</ele><time>2026-04-12T07:58:22.579Z</time></trkpt><trkpt lat="43.0765897" lon="13.0669128"><ele>424.0</ele><time>2026-04-12T07:58:23.575Z</time></trkpt><trkpt lat="43.0766028" lon="13.0666674"><ele>425.0</ele><time>2026-04-12T07:58:24.604Z</time></trkpt><trkpt lat="43.0766203" lon="13.0664224"><ele>428.0</ele><time>2026-04-12T07:58:25.583Z</time></trkpt><trkpt lat="43.0766365" lon="13.0661818"><ele>431.0</ele><time>2026-04-12T07:58:26.574Z</time></trkpt><trkpt lat="43.0766362" lon="13.0659497"><ele>434.0</ele><time>2026-04-12T07:58:27.574Z</time></trkpt><trkpt lat="43.0766186" lon="13.0657355"><ele>432.3333333333333</ele><time>2026-04-12T07:58:28.58Z</time></trkpt><trkpt lat="43.0765411" lon="13.0655314"><ele>430.66666666666663</ele><time>2026-04-12T07:58:29.583Z</time></trkpt><trkpt lat="43.0764273" lon="13.0653454"><ele>429.0</ele><time>2026-04-12T07:58:30.586Z</time></trkpt><trkpt lat="43.0762995" lon="13.0651761"><ele>429.0</ele><time>2026-04-12T07:58:31.574Z</time></trkpt><trkpt lat="43.0761659" lon="13.0650249"><ele>429.0</ele><time>2026-04-12T07:58:32.581Z</time></trkpt><trkpt lat="43.0760495" lon="13.0648751"><ele>429.0</ele><time>2026-04-12T07:58:33.582Z</time></trkpt><trkpt lat="43.0759463" lon="13.0647281"><ele>429.4</ele><time>2026-04-12T07:58:34.581Z</time></trkpt><trkpt lat="43.0758912" lon="13.0645707"><ele>429.79999999999995</ele><time>2026-04-12T07:58:35.595Z</time></trkpt><trkpt lat="43.0758555" lon="13.064423"><ele>430.20000000000005</ele><time>2026-04-12T07:58:36.577Z</time></trkpt><trkpt lat="43.0758238" lon="13.064284"><ele>430.6</ele><time>2026-04-12T07:58:37.579Z</time></trkpt><trkpt lat="43.0758029" lon="13.0641644"><ele>431.0</ele><time>2026-04-12T07:58:38.583Z</time></trkpt><trkpt lat="43.0757865" lon="13.0640538"><ele>430.49999999999994</ele><time>2026-04-12T07:58:39.575Z</time></trkpt><trkpt lat="43.075772" lon="13.0639432"><ele>430.0</ele><time>2026-04-12T07:58:40.584Z</time></trkpt><trkpt lat="43.0757214" lon="13.0638691"><ele>429.5</ele><time>2026-04-12T07:58:41.573Z</time></trkpt><trkpt lat="43.0756545" lon="13.0638342"><ele>429.0</ele><time>2026-04-12T07:58:42.572Z</time></trkpt><trkpt lat="43.0755771" lon="13.0638358"><ele>428.49999999999994</ele><time>2026-04-12T07:58:43.579Z</time></trkpt><trkpt lat="43.0754944" lon="13.0638518"><ele>428.0</ele><time>2026-04-12T07:58:44.583Z</time></trkpt><trkpt lat="43.0754184" lon="13.0638617"><ele>427.99999999999994</ele><time>2026-04-12T07:58:45.583Z</time></trkpt><trkpt lat="43.0753437" lon="13.0638698"><ele>428.0</ele><time>2026-04-12T07:58:46.579Z</time></trkpt><trkpt lat="43.0752649" lon="13.0638749"><ele>428.0</ele><time>2026-04-12T07:58:47.58Z</time></trkpt><trkpt lat="43.0751781" lon="13.0638822"><ele>428.0</ele><time>2026-04-12T07:58:48.582Z</time></trkpt><trkpt lat="43.0750869" lon="13.0638881"><ele>427.99999999999994</ele><time>2026-04-12T07:58:49.579Z</time></trkpt><trkpt lat="43.0749947" lon="13.0638988"><ele>428.0</ele><time>2026-04-12T07:58:50.58Z</time></trkpt><trkpt lat="43.0749" lon="13.063908"><ele>428.0</ele><time>2026-04-12T07:58:51.581Z</time></trkpt><trkpt lat="43.0748046" lon="13.0639166"><ele>427.99999999999994</ele><time>2026-04-12T07:58:52.585Z</time></trkpt><trkpt lat="43.074707" lon="13.0639262"><ele>427.99999999999994</ele><time>2026-04-12T07:58:53.581Z</time></trkpt><trkpt lat="43.0746084" lon="13.0639327"><ele>428.0</ele><time>2026-04-12T07:58:54.59Z</time></trkpt><trkpt lat="43.0745044" lon="13.0639266"><ele>428.0</ele><time>2026-04-12T07:58:55.577Z</time></trkpt><trkpt lat="43.0743992" lon="13.0639002"><ele>428.0</ele><time>2026-04-12T07:58:56.585Z</time></trkpt><trkpt lat="43.0742955" lon="13.0638537"><ele>427.99999999999994</ele><time>2026-04-12T07:58:57.575Z</time></trkpt><trkpt lat="43.0742021" lon="13.0638048"><ele>427.99999999999994</ele><time>2026-04-12T07:58:58.581Z</time></trkpt><trkpt lat="43.0741281" lon="13.0637179"><ele>428.0</ele><time>2026-04-12T07:58:59.578Z</time></trkpt><trkpt lat="43.07406" lon="13.0636425"><ele>428.0</ele><time>2026-04-12T07:59:00.584Z</time></trkpt><trkpt lat="43.0739804" lon="13.0636172"><ele>429.4</ele><time>2026-04-12T07:59:01.577Z</time></trkpt><trkpt lat="43.0738976" lon="13.0636581"><ele>430.79999999999995</ele><time>2026-04-12T07:59:02.582Z</time></trkpt><trkpt lat="43.0738248" lon="13.063752"><ele>432.2</ele><time>2026-04-12T07:59:03.578Z</time></trkpt><trkpt lat="43.0737492" lon="13.0638708"><ele>433.6</ele><time>2026-04-12T07:59:04.581Z</time></trkpt><trkpt lat="43.0736496" lon="13.0639705"><ele>435.0</ele><time>2026-04-12T07:59:05.577Z</time></trkpt><trkpt lat="43.0735401" lon="13.064049"><ele>435.0</ele><time>2026-04-12T07:59:06.578Z</time></trkpt><trkpt lat="43.0733917" lon="13.064041"><ele>435.0</ele><time>2026-04-12T07:59:07.576Z</time></trkpt><trkpt lat="43.0732515" lon="13.0640364"><ele>435.0</ele><time>2026-04-12T07:59:08.58Z</time></trkpt><trkpt lat="43.0730994" lon="13.064029"><ele>435.0</ele><time>2026-04-12T07:59:09.574Z</time></trkpt><trkpt lat="43.072955" lon="13.0640298"><ele>436.33333333333337</ele><time>2026-04-12T07:59:10.578Z</time></trkpt><trkpt lat="43.0728079" lon="13.0640248"><ele>437.6666666666667</ele><time>2026-04-12T07:59:11.578Z</time></trkpt><trkpt lat="43.0726592" lon="13.0640223"><ele>439.0</ele><time>2026-04-12T07:59:12.58Z</time></trkpt><trkpt lat="43.0725034" lon="13.0640152"><ele>438.33333333333337</ele><time>2026-04-12T07:59:13.595Z</time></trkpt><trkpt lat="43.0723401" lon="13.0640107"><ele>437.66666666666663</ele><time>2026-04-12T07:59:14.577Z</time></trkpt><trkpt lat="43.0721699" lon="13.0640024"><ele>437.0</ele><time>2026-04-12T07:59:15.588Z</time></trkpt><trkpt lat="43.0719944" lon="13.063984"><ele>437.0</ele><time>2026-04-12T07:59:16.573Z</time></trkpt><trkpt lat="43.0718103" lon="13.0639655"><ele>437.0</ele><time>2026-04-12T07:59:17.575Z</time></trkpt><trkpt lat="43.0716184" lon="13.0639452"><ele>437.0</ele><time>2026-04-12T07:59:18.576Z</time></trkpt><trkpt lat="43.0714206" lon="13.0639158"><ele>437.3333333333333</ele><time>2026-04-12T07:59:19.575Z</time></trkpt><trkpt lat="43.0712195" lon="13.0638763"><ele>437.66666666666663</ele><time>2026-04-12T07:59:20.623Z</time></trkpt><trkpt lat="43.0710132" lon="13.0638306"><ele>438.0</ele><time>2026-04-12T07:59:21.578Z</time></trkpt><trkpt lat="43.0708018" lon="13.0637845"><ele>435.33333333333337</ele><time>2026-04-12T07:59:22.578Z</time></trkpt><trkpt lat="43.0705895" lon="13.0637415"><ele>432.6666666666667</ele><time>2026-04-12T07:59:23.588Z</time></trkpt><trkpt lat="43.0703748" lon="13.0636993"><ele>430.0</ele><time>2026-04-12T07:59:24.577Z</time></trkpt><trkpt lat="43.0701575" lon="13.0636574"><ele>431.0</ele><time>2026-04-12T07:59:25.605Z</time></trkpt><trkpt lat="43.0699391" lon="13.0636163"><ele>432.0</ele><time>2026-04-12T07:59:26.582Z</time></trkpt><trkpt lat="43.0697199" lon="13.0635734"><ele>433.0</ele><time>2026-04-12T07:59:27.582Z</time></trkpt><trkpt lat="43.0695036" lon="13.0635222"><ele>433.0</ele><time>2026-04-12T07:59:28.578Z</time></trkpt><trkpt lat="43.0692793" lon="13.0634785"><ele>433.0</ele><time>2026-04-12T07:59:29.574Z</time></trkpt><trkpt lat="43.0690489" lon="13.0634291"><ele>433.0</ele><time>2026-04-12T07:59:30.577Z</time></trkpt><trkpt lat="43.0688218" lon="13.0633861"><ele>433.0</ele><time>2026-04-12T07:59:31.572Z</time></trkpt><trkpt lat="43.0685928" lon="13.0633394"><ele>433.0</ele><time>2026-04-12T07:59:32.586Z</time></trkpt><trkpt lat="43.0683622" lon="13.0632935"><ele>433.0</ele><time>2026-04-12T07:59:33.577Z</time></trkpt><trkpt lat="43.068133" lon="13.0632448"><ele>437.0</ele><time>2026-04-12T07:59:34.597Z</time></trkpt><trkpt lat="43.0679032" lon="13.0631974"><ele>441.0</ele><time>2026-04-12T07:59:35.579Z</time></trkpt><trkpt lat="43.0676729" lon="13.0631504"><ele>444.0</ele><time>2026-04-12T07:59:36.581Z</time></trkpt><trkpt lat="43.0674414" lon="13.063107"><ele>447.0</ele><time>2026-04-12T07:59:37.581Z</time></trkpt><trkpt lat="43.067211" lon="13.0630615"><ele>447.0</ele><time>2026-04-12T07:59:38.589Z</time></trkpt><trkpt lat="43.0669798" lon="13.0630154"><ele>447.0</ele><time>2026-04-12T07:59:39.584Z</time></trkpt><trkpt lat="43.0667513" lon="13.0629684"><ele>447.0</ele><time>2026-04-12T07:59:40.595Z</time></trkpt><trkpt lat="43.0665231" lon="13.0629234"><ele>447.0</ele><time>2026-04-12T07:59:41.584Z</time></trkpt><trkpt lat="43.0662964" lon="13.0628772"><ele>447.0</ele><time>2026-04-12T07:59:42.584Z</time></trkpt><trkpt lat="43.0660789" lon="13.0628307"><ele>447.0</ele><time>2026-04-12T07:59:43.581Z</time></trkpt><trkpt lat="43.0658723" lon="13.0627862"><ele>447.0</ele><time>2026-04-12T07:59:44.578Z</time></trkpt><trkpt lat="43.0656663" lon="13.0627442"><ele>445.0</ele><time>2026-04-12T07:59:45.578Z</time></trkpt><trkpt lat="43.0654572" lon="13.0627047"><ele>443.0</ele><time>2026-04-12T07:59:46.585Z</time></trkpt><trkpt lat="43.0652448" lon="13.0626623"><ele>441.0</ele><time>2026-04-12T07:59:47.585Z</time></trkpt><trkpt lat="43.0650274" lon="13.062617"><ele>441.0</ele><time>2026-04-12T07:59:48.577Z</time></trkpt><trkpt lat="43.0648065" lon="13.0625779"><ele>441.0</ele><time>2026-04-12T07:59:49.591Z</time></trkpt><trkpt lat="43.0645793" lon="13.0625441"><ele>441.0</ele><time>2026-04-12T07:59:50.59Z</time></trkpt><trkpt lat="43.0643499" lon="13.0625062"><ele>441.0</ele><time>2026-04-12T07:59:51.582Z</time></trkpt><trkpt lat="43.064125" lon="13.0624645"><ele>442.33333333333337</ele><time>2026-04-12T07:59:52.583Z</time></trkpt><trkpt lat="43.0639121" lon="13.0624219"><ele>443.6666666666667</ele><time>2026-04-12T07:59:53.585Z</time></trkpt><trkpt lat="43.0637077" lon="13.06238"><ele>445.0</ele><time>2026-04-12T07:59:54.584Z</time></trkpt><trkpt lat="43.063501" lon="13.0623378"><ele>445.0</ele><time>2026-04-12T07:59:55.578Z</time></trkpt><trkpt lat="43.0632813" lon="13.0622977"><ele>445.0</ele><time>2026-04-12T07:59:56.58Z</time></trkpt><trkpt lat="43.0630505" lon="13.0622525"><ele>445.0</ele><time>2026-04-12T07:59:57.581Z</time></trkpt><trkpt lat="43.0628148" lon="13.0622019"><ele>445.0</ele><time>2026-04-12T07:59:58.583Z</time></trkpt><trkpt lat="43.0625907" lon="13.0621501"><ele>445.6666666666667</ele><time>2026-04-12T07:59:59.579Z</time></trkpt><trkpt lat="43.0623761" lon="13.0621002"><ele>446.33333333333337</ele><time>2026-04-12T08:00:00.583Z</time></trkpt><trkpt lat="43.0621687" lon="13.0620508"><ele>447.0</ele><time>2026-04-12T08:00:01.575Z</time></trkpt><trkpt lat="43.061969" lon="13.0620016"><ele>447.0</ele><time>2026-04-12T08:00:02.578Z</time></trkpt><trkpt lat="43.0617747" lon="13.0619558"><ele>447.0</ele><time>2026-04-12T08:00:03.577Z</time></trkpt><trkpt lat="43.0615829" lon="13.0619114"><ele>447.0</ele><time>2026-04-12T08:00:04.574Z</time></trkpt><trkpt lat="43.0613947" lon="13.0618711"><ele>447.33333333333337</ele><time>2026-04-12T08:00:05.578Z</time></trkpt><trkpt lat="43.0612038" lon="13.0618346"><ele>447.6666666666667</ele><time>2026-04-12T08:00:06.578Z</time></trkpt><trkpt lat="43.0610172" lon="13.0617902"><ele>448.0</ele><time>2026-04-12T08:00:07.577Z</time></trkpt><trkpt lat="43.0608267" lon="13.0617503"><ele>447.6666666666667</ele><time>2026-04-12T08:00:08.6Z</time></trkpt><trkpt lat="43.0606287" lon="13.0617087"><ele>447.33333333333337</ele><time>2026-04-12T08:00:09.584Z</time></trkpt><trkpt lat="43.0604289" lon="13.0616705"><ele>447.0</ele><time>2026-04-12T08:00:10.578Z</time></trkpt><trkpt lat="43.0602289" lon="13.0616303"><ele>449.33333333333337</ele><time>2026-04-12T08:00:11.583Z</time></trkpt><trkpt lat="43.0600296" lon="13.0615884"><ele>451.6666666666667</ele><time>2026-04-12T08:00:12.574Z</time></trkpt><trkpt lat="43.0598326" lon="13.0615469"><ele>454.0</ele><time>2026-04-12T08:00:13.586Z</time></trkpt><trkpt lat="43.0596358" lon="13.0615064"><ele>454.33333333333337</ele><time>2026-04-12T08:00:14.579Z</time></trkpt><trkpt lat="43.0594401" lon="13.0614654"><ele>454.66666666666663</ele><time>2026-04-12T08:00:15.582Z</time></trkpt><trkpt lat="43.0592467" lon="13.06142"><ele>455.0</ele><time>2026-04-12T08:00:16.581Z</time></trkpt><trkpt lat="43.0590534" lon="13.0613621"><ele>454.3333333333333</ele><time>2026-04-12T08:00:17.578Z</time></trkpt><trkpt lat="43.0588641" lon="13.0612898"><ele>453.66666666666663</ele><time>2026-04-12T08:00:18.585Z</time></trkpt><trkpt lat="43.0586759" lon="13.061208"><ele>453.0</ele><time>2026-04-12T08:00:19.578Z</time></trkpt><trkpt lat="43.0584861" lon="13.0611155"><ele>453.0</ele><time>2026-04-12T08:00:20.577Z</time></trkpt><trkpt lat="43.0582951" lon="13.061006"><ele>453.0</ele><time>2026-04-12T08:00:21.58Z</time></trkpt><trkpt lat="43.0580991" lon="13.060877"><ele>453.0</ele><time>2026-04-12T08:00:22.577Z</time></trkpt><trkpt lat="43.0578993" lon="13.0607356"><ele>456.0</ele><time>2026-04-12T08:00:23.6Z</time></trkpt><trkpt lat="43.0576986" lon="13.0605905"><ele>459.0</ele><time>2026-04-12T08:00:24.58Z</time></trkpt><trkpt lat="43.0574986" lon="13.0604467"><ele>457.33333333333337</ele><time>2026-04-12T08:00:25.584Z</time></trkpt><trkpt lat="43.0573017" lon="13.060305"><ele>455.6666666666667</ele><time>2026-04-12T08:00:26.579Z</time></trkpt><trkpt lat="43.057108" lon="13.0601642"><ele>454.0</ele><time>2026-04-12T08:00:27.584Z</time></trkpt><trkpt lat="43.0569169" lon="13.0600255"><ele>456.0</ele><time>2026-04-12T08:00:28.579Z</time></trkpt><trkpt lat="43.0567269" lon="13.0598872"><ele>458.0</ele><time>2026-04-12T08:00:29.585Z</time></trkpt><trkpt lat="43.0565373" lon="13.0597494"><ele>460.0</ele><time>2026-04-12T08:00:30.582Z</time></trkpt><trkpt lat="43.0563479" lon="13.0596137"><ele>460.0</ele><time>2026-04-12T08:00:31.581Z</time></trkpt><trkpt lat="43.0561584" lon="13.0594772"><ele>460.0</ele><time>2026-04-12T08:00:32.58Z</time></trkpt><trkpt lat="43.0559673" lon="13.0593408"><ele>460.0</ele><time>2026-04-12T08:00:33.58Z</time></trkpt><trkpt lat="43.0557744" lon="13.0592039"><ele>460.6666666666667</ele><time>2026-04-12T08:00:34.581Z</time></trkpt><trkpt lat="43.05558" lon="13.0590661"><ele>461.33333333333337</ele><time>2026-04-12T08:00:35.581Z</time></trkpt><trkpt lat="43.0553844" lon="13.0589266"><ele>462.0</ele><time>2026-04-12T08:00:36.581Z</time></trkpt><trkpt lat="43.0551886" lon="13.0587862"><ele>462.0</ele><time>2026-04-12T08:00:37.583Z</time></trkpt><trkpt lat="43.0549923" lon="13.0586486"><ele>462.0</ele><time>2026-04-12T08:00:38.584Z</time></trkpt><trkpt lat="43.0547953" lon="13.0585158"><ele>462.0</ele><time>2026-04-12T08:00:39.579Z</time></trkpt><trkpt lat="43.0545978" lon="13.0583859"><ele>463.33333333333337</ele><time>2026-04-12T08:00:40.577Z</time></trkpt><trkpt lat="43.0543989" lon="13.0582597"><ele>464.6666666666667</ele><time>2026-04-12T08:00:41.571Z</time></trkpt><trkpt lat="43.0542016" lon="13.0581303"><ele>466.0</ele><time>2026-04-12T08:00:42.575Z</time></trkpt><trkpt lat="43.0540078" lon="13.0579906"><ele>463.0</ele><time>2026-04-12T08:00:43.575Z</time></trkpt><trkpt lat="43.0538175" lon="13.0578385"><ele>460.0</ele><time>2026-04-12T08:00:44.57Z</time></trkpt><trkpt lat="43.0536294" lon="13.0576763"><ele>457.0</ele><time>2026-04-12T08:00:45.574Z</time></trkpt><trkpt lat="43.0534445" lon="13.0575053"><ele>457.6666666666667</ele><time>2026-04-12T08:00:46.574Z</time></trkpt><trkpt lat="43.0532639" lon="13.0573265"><ele>458.33333333333337</ele><time>2026-04-12T08:00:47.583Z</time></trkpt><trkpt lat="43.0530896" lon="13.0571394"><ele>459.0</ele><time>2026-04-12T08:00:48.579Z</time></trkpt><trkpt lat="43.0529218" lon="13.056946"><ele>459.0</ele><time>2026-04-12T08:00:49.577Z</time></trkpt><trkpt lat="43.0527606" lon="13.0567478"><ele>459.0</ele><time>2026-04-12T08:00:50.588Z</time></trkpt><trkpt lat="43.0526025" lon="13.0565469"><ele>459.0</ele><time>2026-04-12T08:00:51.581Z</time></trkpt><trkpt lat="43.0524431" lon="13.0563466"><ele>459.0</ele><time>2026-04-12T08:00:52.58Z</time></trkpt><trkpt lat="43.0522802" lon="13.0561467"><ele>459.0</ele><time>2026-04-12T08:00:53.579Z</time></trkpt><trkpt lat="43.0521132" lon="13.0559485"><ele>459.0</ele><time>2026-04-12T08:00:54.58Z</time></trkpt><trkpt lat="43.0519401" lon="13.0557564"><ele>458.5</ele><time>2026-04-12T08:00:55.581Z</time></trkpt><trkpt lat="43.0517596" lon="13.055572"><ele>458.0</ele><time>2026-04-12T08:00:56.586Z</time></trkpt><trkpt lat="43.0515741" lon="13.0553967"><ele>458.0</ele><time>2026-04-12T08:00:57.581Z</time></trkpt><trkpt lat="43.051387" lon="13.0552269"><ele>458.0</ele><time>2026-04-12T08:00:58.586Z</time></trkpt><trkpt lat="43.0512005" lon="13.0550581"><ele>458.0</ele><time>2026-04-12T08:00:59.584Z</time></trkpt><trkpt lat="43.0510159" lon="13.054887"><ele>458.3333333333333</ele><time>2026-04-12T08:01:00.583Z</time></trkpt><trkpt lat="43.0508317" lon="13.0547154"><ele>458.66666666666663</ele><time>2026-04-12T08:01:01.577Z</time></trkpt><trkpt lat="43.0506473" lon="13.0545442"><ele>459.0</ele><time>2026-04-12T08:01:02.587Z</time></trkpt><trkpt lat="43.0504627" lon="13.0543721"><ele>459.5</ele><time>2026-04-12T08:01:03.578Z</time></trkpt><trkpt lat="43.0502773" lon="13.054199"><ele>460.0</ele><time>2026-04-12T08:01:04.582Z</time></trkpt><trkpt lat="43.050091" lon="13.054026"><ele>461.5</ele><time>2026-04-12T08:01:05.577Z</time></trkpt><trkpt lat="43.049904" lon="13.0538545"><ele>463.0</ele><time>2026-04-12T08:01:06.583Z</time></trkpt><trkpt lat="43.0497132" lon="13.0536869"><ele>463.0</ele><time>2026-04-12T08:01:07.577Z</time></trkpt><trkpt lat="43.0495162" lon="13.0535297"><ele>463.0</ele><time>2026-04-12T08:01:08.578Z</time></trkpt><trkpt lat="43.0493115" lon="13.053387"><ele>464.5</ele><time>2026-04-12T08:01:09.578Z</time></trkpt><trkpt lat="43.0491007" lon="13.0532589"><ele>466.0</ele><time>2026-04-12T08:01:10.577Z</time></trkpt><trkpt lat="43.0488857" lon="13.0531407"><ele>466.0</ele><time>2026-04-12T08:01:11.577Z</time></trkpt><trkpt lat="43.0486695" lon="13.0530304"><ele>466.0</ele><time>2026-04-12T08:01:12.618Z</time></trkpt><trkpt lat="43.0484543" lon="13.0529233"><ele>465.6666666666667</ele><time>2026-04-12T08:01:13.577Z</time></trkpt><trkpt lat="43.0482424" lon="13.0528177"><ele>465.33333333333337</ele><time>2026-04-12T08:01:14.582Z</time></trkpt><trkpt lat="43.0480358" lon="13.0527136"><ele>465.0</ele><time>2026-04-12T08:01:15.576Z</time></trkpt><trkpt lat="43.0478335" lon="13.0526119"><ele>465.0</ele><time>2026-04-12T08:01:16.581Z</time></trkpt><trkpt lat="43.0476348" lon="13.052514"><ele>465.0</ele><time>2026-04-12T08:01:17.577Z</time></trkpt><trkpt lat="43.0474414" lon="13.0524188"><ele>465.0</ele><time>2026-04-12T08:01:18.577Z</time></trkpt><trkpt lat="43.0472515" lon="13.0523259"><ele>467.0</ele><time>2026-04-12T08:01:19.578Z</time></trkpt><trkpt lat="43.0470688" lon="13.0522362"><ele>469.0</ele><time>2026-04-12T08:01:20.574Z</time></trkpt><trkpt lat="43.0468954" lon="13.0521552"><ele>471.0</ele><time>2026-04-12T08:01:21.578Z</time></trkpt><trkpt lat="43.04672" lon="13.0520931"><ele>470.33333333333337</ele><time>2026-04-12T08:01:22.575Z</time></trkpt><trkpt lat="43.0465366" lon="13.0520592"><ele>469.6666666666667</ele><time>2026-04-12T08:01:23.572Z</time></trkpt><trkpt lat="43.046342" lon="13.0520635"><ele>469.0</ele><time>2026-04-12T08:01:24.576Z</time></trkpt><trkpt lat="43.0461472" lon="13.0520726"><ele>469.0</ele><time>2026-04-12T08:01:25.574Z</time></trkpt><trkpt lat="43.045949" lon="13.0520653"><ele>469.0</ele><time>2026-04-12T08:01:26.583Z</time></trkpt><trkpt lat="43.0457474" lon="13.0520401"><ele>469.0</ele><time>2026-04-12T08:01:27.577Z</time></trkpt><trkpt lat="43.0455506" lon="13.0519955"><ele>468.6666666666667</ele><time>2026-04-12T08:01:28.576Z</time></trkpt><trkpt lat="43.0453583" lon="13.051927"><ele>468.33333333333337</ele><time>2026-04-12T08:01:29.572Z</time></trkpt><trkpt lat="43.0451696" lon="13.0518339"><ele>468.0</ele><time>2026-04-12T08:01:30.575Z</time></trkpt><trkpt lat="43.0449875" lon="13.0517216"><ele>469.33333333333337</ele><time>2026-04-12T08:01:31.574Z</time></trkpt><trkpt lat="43.0448133" lon="13.051593"><ele>470.6666666666667</ele><time>2026-04-12T08:01:32.597Z</time></trkpt><trkpt lat="43.044644" lon="13.0514546"><ele>472.0</ele><time>2026-04-12T08:01:33.574Z</time></trkpt><trkpt lat="43.0444751" lon="13.0513092"><ele>472.0</ele><time>2026-04-12T08:01:34.58Z</time></trkpt><trkpt lat="43.0443068" lon="13.0511646"><ele>472.0</ele><time>2026-04-12T08:01:35.573Z</time></trkpt><trkpt lat="43.0441371" lon="13.0510265"><ele>472.0</ele><time>2026-04-12T08:01:36.576Z</time></trkpt><trkpt lat="43.0439668" lon="13.0508868"><ele>471.6666666666667</ele><time>2026-04-12T08:01:37.579Z</time></trkpt><trkpt lat="43.0437974" lon="13.0507463"><ele>471.33333333333337</ele><time>2026-04-12T08:01:38.576Z</time></trkpt><trkpt lat="43.0436277" lon="13.0506047"><ele>471.0</ele><time>2026-04-12T08:01:39.573Z</time></trkpt><trkpt lat="43.0434575" lon="13.0504632"><ele>471.0</ele><time>2026-04-12T08:01:40.577Z</time></trkpt><trkpt lat="43.0432884" lon="13.0503201"><ele>471.0</ele><time>2026-04-12T08:01:41.58Z</time></trkpt><trkpt lat="43.0431219" lon="13.0501743"><ele>471.0</ele><time>2026-04-12T08:01:42.574Z</time></trkpt><trkpt lat="43.0429646" lon="13.0500354"><ele>471.33333333333337</ele><time>2026-04-12T08:01:43.587Z</time></trkpt><trkpt lat="43.0428239" lon="13.0499118"><ele>471.6666666666667</ele><time>2026-04-12T08:01:44.58Z</time></trkpt><trkpt lat="43.0426954" lon="13.0498001"><ele>472.0</ele><time>2026-04-12T08:01:45.583Z</time></trkpt><trkpt lat="43.0425788" lon="13.0497056"><ele>472.0</ele><time>2026-04-12T08:01:46.575Z</time></trkpt><trkpt lat="43.0424782" lon="13.0496152"><ele>472.00000000000006</ele><time>2026-04-12T08:01:47.579Z</time></trkpt><trkpt lat="43.0423952" lon="13.0495434"><ele>472.00000000000006</ele><time>2026-04-12T08:01:48.575Z</time></trkpt><trkpt lat="43.042323" lon="13.0494762"><ele>472.0</ele><time>2026-04-12T08:01:49.583Z</time></trkpt><trkpt lat="43.0422575" lon="13.0494196"><ele>472.0</ele><time>2026-04-12T08:01:50.576Z</time></trkpt><trkpt lat="43.042187" lon="13.0493589"><ele>472.0</ele><time>2026-04-12T08:01:51.597Z</time></trkpt><trkpt lat="43.0421069" lon="13.0492806"><ele>472.0</ele><time>2026-04-12T08:01:52.575Z</time></trkpt><trkpt lat="43.0420151" lon="13.0491809"><ele>472.0</ele><time>2026-04-12T08:01:53.577Z</time></trkpt><trkpt lat="43.0419076" lon="13.0490688"><ele>472.0</ele><time>2026-04-12T08:01:54.581Z</time></trkpt><trkpt lat="43.0417869" lon="13.0489512"><ele>473.0</ele><time>2026-04-12T08:01:55.576Z</time></trkpt><trkpt lat="43.0416583" lon="13.0488245"><ele>474.0</ele><time>2026-04-12T08:01:56.584Z</time></trkpt><trkpt lat="43.0415212" lon="13.0486882"><ele>475.0</ele><time>2026-04-12T08:01:57.582Z</time></trkpt><trkpt lat="43.0413787" lon="13.0485473"><ele>475.0</ele><time>2026-04-12T08:01:58.582Z</time></trkpt><trkpt lat="43.0412333" lon="13.0484054"><ele>475.0</ele><time>2026-04-12T08:01:59.578Z</time></trkpt><trkpt lat="43.0410866" lon="13.0482629"><ele>475.0</ele><time>2026-04-12T08:02:00.579Z</time></trkpt><trkpt lat="43.0409409" lon="13.0481279"><ele>476.0</ele><time>2026-04-12T08:02:01.583Z</time></trkpt><trkpt lat="43.0407951" lon="13.0479985"><ele>477.0</ele><time>2026-04-12T08:02:02.577Z</time></trkpt><trkpt lat="43.0406497" lon="13.0478765"><ele>478.0</ele><time>2026-04-12T08:02:03.579Z</time></trkpt><trkpt lat="43.0405108" lon="13.0477608"><ele>478.0</ele><time>2026-04-12T08:02:04.58Z</time></trkpt><trkpt lat="43.0403795" lon="13.0476572"><ele>478.0</ele><time>2026-04-12T08:02:05.582Z</time></trkpt><trkpt lat="43.0402577" lon="13.047561"><ele>478.0</ele><time>2026-04-12T08:02:06.576Z</time></trkpt><trkpt lat="43.0401407" lon="13.0474622"><ele>478.0</ele><time>2026-04-12T08:02:07.584Z</time></trkpt><trkpt lat="43.0400198" lon="13.0473647"><ele>478.75</ele><time>2026-04-12T08:02:08.581Z</time></trkpt><trkpt lat="43.0398915" lon="13.047259"><ele>479.5</ele><time>2026-04-12T08:02:09.582Z</time></trkpt><trkpt lat="43.0397711" lon="13.0471633"><ele>480.25</ele><time>2026-04-12T08:02:10.579Z</time></trkpt><trkpt lat="43.0396496" lon="13.0470701"><ele>481.0</ele><time>2026-04-12T08:02:11.579Z</time></trkpt><trkpt lat="43.0395086" lon="13.0469657"><ele>481.0</ele><time>2026-04-12T08:02:12.578Z</time></trkpt><trkpt lat="43.0393481" lon="13.0468424"><ele>481.0</ele><time>2026-04-12T08:02:13.581Z</time></trkpt><trkpt lat="43.0391735" lon="13.0467116"><ele>481.0</ele><time>2026-04-12T08:02:14.578Z</time></trkpt><trkpt lat="43.0390091" lon="13.0465679"><ele>480.33333333333337</ele><time>2026-04-12T08:02:15.574Z</time></trkpt><trkpt lat="43.0388579" lon="13.0464224"><ele>479.66666666666663</ele><time>2026-04-12T08:02:16.582Z</time></trkpt><trkpt lat="43.0387196" lon="13.0462809"><ele>479.0</ele><time>2026-04-12T08:02:17.581Z</time></trkpt><trkpt lat="43.0385896" lon="13.046132"><ele>479.0</ele><time>2026-04-12T08:02:18.579Z</time></trkpt><trkpt lat="43.0384642" lon="13.0459759"><ele>479.0</ele><time>2026-04-12T08:02:19.581Z</time></trkpt><trkpt lat="43.0383411" lon="13.0458121"><ele>479.0</ele><time>2026-04-12T08:02:20.581Z</time></trkpt><trkpt lat="43.0382216" lon="13.0456402"><ele>479.66666666666663</ele><time>2026-04-12T08:02:21.573Z</time></trkpt><trkpt lat="43.0381083" lon="13.0454578"><ele>480.33333333333337</ele><time>2026-04-12T08:02:22.58Z</time></trkpt><trkpt lat="43.0380015" lon="13.0452651"><ele>481.0</ele><time>2026-04-12T08:02:23.583Z</time></trkpt><trkpt lat="43.0378982" lon="13.0450666"><ele>481.6666666666667</ele><time>2026-04-12T08:02:24.585Z</time></trkpt><trkpt lat="43.0378034" lon="13.0448399"><ele>482.33333333333337</ele><time>2026-04-12T08:02:25.583Z</time></trkpt><trkpt lat="43.0377136" lon="13.0446019"><ele>483.0</ele><time>2026-04-12T08:02:26.575Z</time></trkpt><trkpt lat="43.0376268" lon="13.0443542"><ele>483.33333333333337</ele><time>2026-04-12T08:02:27.582Z</time></trkpt><trkpt lat="43.0375437" lon="13.044096"><ele>483.6666666666667</ele><time>2026-04-12T08:02:28.58Z</time></trkpt><trkpt lat="43.0374635" lon="13.043834"><ele>484.0</ele><time>2026-04-12T08:02:29.581Z</time></trkpt><trkpt lat="43.0373868" lon="13.0435722"><ele>484.0</ele><time>2026-04-12T08:02:30.576Z</time></trkpt><trkpt lat="43.0373109" lon="13.0433144"><ele>484.0</ele><time>2026-04-12T08:02:31.586Z</time></trkpt><trkpt lat="43.037237" lon="13.0430595"><ele>484.0</ele><time>2026-04-12T08:02:32.58Z</time></trkpt><trkpt lat="43.0371653" lon="13.0428074"><ele>484.6666666666667</ele><time>2026-04-12T08:02:33.583Z</time></trkpt><trkpt lat="43.0370919" lon="13.0425578"><ele>485.33333333333337</ele><time>2026-04-12T08:02:34.587Z</time></trkpt><trkpt lat="43.0370129" lon="13.0423094"><ele>486.0</ele><time>2026-04-12T08:02:35.582Z</time></trkpt><trkpt lat="43.0369263" lon="13.0420603"><ele>487.66666666666663</ele><time>2026-04-12T08:02:36.585Z</time></trkpt><trkpt lat="43.0368319" lon="13.041809"><ele>489.3333333333333</ele><time>2026-04-12T08:02:37.579Z</time></trkpt><trkpt lat="43.0367319" lon="13.0415609"><ele>491.0</ele><time>2026-04-12T08:02:38.587Z</time></trkpt><trkpt lat="43.0366256" lon="13.041317"><ele>492.66666666666663</ele><time>2026-04-12T08:02:39.576Z</time></trkpt><trkpt lat="43.0365185" lon="13.04108"><ele>494.33333333333337</ele><time>2026-04-12T08:02:40.578Z</time></trkpt><trkpt lat="43.03641" lon="13.0408466"><ele>496.0</ele><time>2026-04-12T08:02:41.579Z</time></trkpt><trkpt lat="43.036295" lon="13.0406138"><ele>496.0</ele><time>2026-04-12T08:02:42.577Z</time></trkpt><trkpt lat="43.0361846" lon="13.0403768"><ele>496.0</ele><time>2026-04-12T08:02:43.578Z</time></trkpt><trkpt lat="43.0360756" lon="13.0401394"><ele>496.0</ele><time>2026-04-12T08:02:44.582Z</time></trkpt><trkpt lat="43.0359649" lon="13.0399027"><ele>497.0</ele><time>2026-04-12T08:02:45.572Z</time></trkpt><trkpt lat="43.0358506" lon="13.0396586"><ele>498.0</ele><time>2026-04-12T08:02:46.574Z</time></trkpt><trkpt lat="43.035732" lon="13.0394075"><ele>499.0</ele><time>2026-04-12T08:02:47.583Z</time></trkpt><trkpt lat="43.0356089" lon="13.0391588"><ele>500.0</ele><time>2026-04-12T08:02:48.577Z</time></trkpt><trkpt lat="43.0354802" lon="13.038918"><ele>501.0</ele><time>2026-04-12T08:02:49.595Z</time></trkpt><trkpt lat="43.0353462" lon="13.0386863"><ele>502.0</ele><time>2026-04-12T08:02:50.571Z</time></trkpt><trkpt lat="43.0352117" lon="13.0384677"><ele>501.0</ele><time>2026-04-12T08:02:51.578Z</time></trkpt><trkpt lat="43.0350792" lon="13.0382561"><ele>500.0</ele><time>2026-04-12T08:02:52.582Z</time></trkpt><trkpt lat="43.034943" lon="13.0380449"><ele>499.0</ele><time>2026-04-12T08:02:53.574Z</time></trkpt><trkpt lat="43.0348116" lon="13.0378452"><ele>499.0</ele><time>2026-04-12T08:02:54.573Z</time></trkpt><trkpt lat="43.0346843" lon="13.0376525"><ele>499.0</ele><time>2026-04-12T08:02:55.578Z</time></trkpt><trkpt lat="43.0345552" lon="13.037473"><ele>499.0</ele><time>2026-04-12T08:02:56.574Z</time></trkpt><trkpt lat="43.0344072" lon="13.0373202"><ele>501.0</ele><time>2026-04-12T08:02:57.576Z</time></trkpt><trkpt lat="43.0342318" lon="13.0372045"><ele>503.0</ele><time>2026-04-12T08:02:58.595Z</time></trkpt><trkpt lat="43.0340304" lon="13.0371231"><ele>505.0</ele><time>2026-04-12T08:02:59.578Z</time></trkpt><trkpt lat="43.0338279" lon="13.0370664"><ele>505.0</ele><time>2026-04-12T08:03:00.577Z</time></trkpt><trkpt lat="43.033638" lon="13.0370158"><ele>505.0</ele><time>2026-04-12T08:03:01.579Z</time></trkpt><trkpt lat="43.0334575" lon="13.0369621"><ele>505.0</ele><time>2026-04-12T08:03:02.574Z</time></trkpt><trkpt lat="43.0332828" lon="13.036913"><ele>503.33333333333337</ele><time>2026-04-12T08:03:03.575Z</time></trkpt><trkpt lat="43.0331113" lon="13.0368674"><ele>501.66666666666663</ele><time>2026-04-12T08:03:04.601Z</time></trkpt><trkpt lat="43.0329364" lon="13.0368227"><ele>500.0</ele><time>2026-04-12T08:03:05.58Z</time></trkpt><trkpt lat="43.0327584" lon="13.0367775"><ele>500.0</ele><time>2026-04-12T08:03:06.574Z</time></trkpt><trkpt lat="43.0325789" lon="13.0367331"><ele>500.0</ele><time>2026-04-12T08:03:07.574Z</time></trkpt><trkpt lat="43.0324035" lon="13.0366891"><ele>500.0</ele><time>2026-04-12T08:03:08.576Z</time></trkpt><trkpt lat="43.032236" lon="13.036644"><ele>502.3333333333333</ele><time>2026-04-12T08:03:09.579Z</time></trkpt><trkpt lat="43.0320707" lon="13.0365942"><ele>504.66666666666663</ele><time>2026-04-12T08:03:10.575Z</time></trkpt><trkpt lat="43.0319102" lon="13.0365252"><ele>507.0</ele><time>2026-04-12T08:03:11.576Z</time></trkpt><trkpt lat="43.0317567" lon="13.0364195"><ele>505.33333333333337</ele><time>2026-04-12T08:03:12.579Z</time></trkpt><trkpt lat="43.031616" lon="13.0362752"><ele>503.6666666666667</ele><time>2026-04-12T08:03:13.577Z</time></trkpt><trkpt lat="43.031496" lon="13.0361013"><ele>502.0</ele><time>2026-04-12T08:03:14.577Z</time></trkpt><trkpt lat="43.0313905" lon="13.0359129"><ele>504.6666666666667</ele><time>2026-04-12T08:03:15.574Z</time></trkpt><trkpt lat="43.0312808" lon="13.0357225"><ele>507.33333333333337</ele><time>2026-04-12T08:03:16.576Z</time></trkpt><trkpt lat="43.031157" lon="13.0355396"><ele>510.0</ele><time>2026-04-12T08:03:17.573Z</time></trkpt><trkpt lat="43.031023" lon="13.0353675"><ele>510.0</ele><time>2026-04-12T08:03:18.58Z</time></trkpt><trkpt lat="43.0308806" lon="13.0352063"><ele>510.0</ele><time>2026-04-12T08:03:19.574Z</time></trkpt><trkpt lat="43.0307256" lon="13.0350616"><ele>510.0</ele><time>2026-04-12T08:03:20.578Z</time></trkpt><trkpt lat="43.0305581" lon="13.0349328"><ele>513.6666666666666</ele><time>2026-04-12T08:03:21.578Z</time></trkpt><trkpt lat="43.0303824" lon="13.0348199"><ele>517.3333333333333</ele><time>2026-04-12T08:03:22.575Z</time></trkpt><trkpt lat="43.0301995" lon="13.0347246"><ele>521.0</ele><time>2026-04-12T08:03:23.582Z</time></trkpt><trkpt lat="43.0300132" lon="13.034647"><ele>520.0</ele><time>2026-04-12T08:03:24.575Z</time></trkpt><trkpt lat="43.0298213" lon="13.0345907"><ele>519.0</ele><time>2026-04-12T08:03:25.575Z</time></trkpt><trkpt lat="43.0296283" lon="13.0345514"><ele>518.0</ele><time>2026-04-12T08:03:26.576Z</time></trkpt><trkpt lat="43.0294374" lon="13.0345222"><ele>518.0</ele><time>2026-04-12T08:03:27.577Z</time></trkpt><trkpt lat="43.0292486" lon="13.0344951"><ele>518.0</ele><time>2026-04-12T08:03:28.576Z</time></trkpt><trkpt lat="43.029059" lon="13.034466"><ele>518.0</ele><time>2026-04-12T08:03:29.578Z</time></trkpt><trkpt lat="43.0288679" lon="13.0344385"><ele>517.6666666666666</ele><time>2026-04-12T08:03:30.58Z</time></trkpt><trkpt lat="43.0286752" lon="13.0344124"><ele>517.3333333333334</ele><time>2026-04-12T08:03:31.576Z</time></trkpt><trkpt lat="43.0284815" lon="13.034385"><ele>517.0</ele><time>2026-04-12T08:03:32.576Z</time></trkpt><trkpt lat="43.028286" lon="13.0343575"><ele>517.0</ele><time>2026-04-12T08:03:33.58Z</time></trkpt><trkpt lat="43.0280881" lon="13.0343293"><ele>517.0</ele><time>2026-04-12T08:03:34.572Z</time></trkpt><trkpt lat="43.0278886" lon="13.0342987"><ele>517.0</ele><time>2026-04-12T08:03:35.575Z</time></trkpt><trkpt lat="43.0276907" lon="13.0342657"><ele>517.0</ele><time>2026-04-12T08:03:36.577Z</time></trkpt><trkpt lat="43.0275003" lon="13.0342337"><ele>517.0</ele><time>2026-04-12T08:03:37.578Z</time></trkpt><trkpt lat="43.0273141" lon="13.0342027"><ele>517.0</ele><time>2026-04-12T08:03:38.577Z</time></trkpt><trkpt lat="43.0271231" lon="13.0341774"><ele>516.0</ele><time>2026-04-12T08:03:39.573Z</time></trkpt><trkpt lat="43.026924" lon="13.0341678"><ele>515.0</ele><time>2026-04-12T08:03:40.58Z</time></trkpt><trkpt lat="43.0267313" lon="13.0341828"><ele>514.0</ele><time>2026-04-12T08:03:41.577Z</time></trkpt><trkpt lat="43.0265523" lon="13.0342176"><ele>514.0</ele><time>2026-04-12T08:03:42.596Z</time></trkpt><trkpt lat="43.0263796" lon="13.0342378"><ele>514.0</ele><time>2026-04-12T08:03:43.574Z</time></trkpt><trkpt lat="43.0262042" lon="13.0342183"><ele>514.0</ele><time>2026-04-12T08:03:44.574Z</time></trkpt><trkpt lat="43.0260249" lon="13.0341553"><ele>516.6666666666667</ele><time>2026-04-12T08:03:45.574Z</time></trkpt><trkpt lat="43.0258415" lon="13.0340723"><ele>519.3333333333334</ele><time>2026-04-12T08:03:46.574Z</time></trkpt><trkpt lat="43.0256631" lon="13.0340046"><ele>522.0</ele><time>2026-04-12T08:03:47.577Z</time></trkpt><trkpt lat="43.0254873" lon="13.0339628"><ele>522.0</ele><time>2026-04-12T08:03:48.574Z</time></trkpt><trkpt lat="43.0253152" lon="13.0339366"><ele>522.0</ele><time>2026-04-12T08:03:49.575Z</time></trkpt><trkpt lat="43.0251471" lon="13.0339121"><ele>522.0</ele><time>2026-04-12T08:03:50.575Z</time></trkpt><trkpt lat="43.0249807" lon="13.0338883"><ele>526.0</ele><time>2026-04-12T08:03:51.573Z</time></trkpt><trkpt lat="43.0248105" lon="13.0338686"><ele>530.0</ele><time>2026-04-12T08:03:52.578Z</time></trkpt><trkpt lat="43.0246343" lon="13.0338473"><ele>534.0</ele><time>2026-04-12T08:03:53.574Z</time></trkpt><trkpt lat="43.0244659" lon="13.0338252"><ele>534.0</ele><time>2026-04-12T08:03:54.578Z</time></trkpt><trkpt lat="43.0243064" lon="13.0338006"><ele>534.0</ele><time>2026-04-12T08:03:55.57Z</time></trkpt><trkpt lat="43.0241532" lon="13.0337647"><ele>534.0</ele><time>2026-04-12T08:03:56.572Z</time></trkpt><trkpt lat="43.0240063" lon="13.0337047"><ele>533.3333333333334</ele><time>2026-04-12T08:03:57.57Z</time></trkpt><trkpt lat="43.0238632" lon="13.0336122"><ele>532.6666666666667</ele><time>2026-04-12T08:03:58.569Z</time></trkpt><trkpt lat="43.0237189" lon="13.0335066"><ele>532.0</ele><time>2026-04-12T08:03:59.572Z</time></trkpt><trkpt lat="43.023565" lon="13.0334164"><ele>532.0</ele><time>2026-04-12T08:04:00.569Z</time></trkpt><trkpt lat="43.0234085" lon="13.0333369"><ele>532.0</ele><time>2026-04-12T08:04:01.575Z</time></trkpt><trkpt lat="43.0232427" lon="13.0332917"><ele>532.0</ele><time>2026-04-12T08:04:02.567Z</time></trkpt><trkpt lat="43.0230762" lon="13.0332643"><ele>548.0</ele><time>2026-04-12T08:04:03.574Z</time></trkpt><trkpt lat="43.0229043" lon="13.0332504"><ele>564.0</ele><time>2026-04-12T08:04:04.57Z</time></trkpt><trkpt lat="43.0227319" lon="13.0332592"><ele>580.0</ele><time>2026-04-12T08:04:05.566Z</time></trkpt><trkpt lat="43.022562" lon="13.0332954"><ele>566.0</ele><time>2026-04-12T08:04:06.569Z</time></trkpt><trkpt lat="43.0223974" lon="13.0333595"><ele>552.0</ele><time>2026-04-12T08:04:07.569Z</time></trkpt><trkpt lat="43.0222392" lon="13.0334587"><ele>538.0</ele><time>2026-04-12T08:04:08.567Z</time></trkpt><trkpt lat="43.0220868" lon="13.0335845"><ele>538.0</ele><time>2026-04-12T08:04:09.572Z</time></trkpt><trkpt lat="43.0219389" lon="13.0337492"><ele>538.0</ele><time>2026-04-12T08:04:10.576Z</time></trkpt><trkpt lat="43.0217958" lon="13.0339682"><ele>538.0</ele><time>2026-04-12T08:04:11.57Z</time></trkpt><trkpt lat="43.0216596" lon="13.0342279"><ele>527.5</ele><time>2026-04-12T08:04:12.571Z</time></trkpt><trkpt lat="43.0215188" lon="13.0345145"><ele>517.0</ele><time>2026-04-12T08:04:13.568Z</time></trkpt><trkpt lat="43.021368" lon="13.0348168"><ele>518.0</ele><time>2026-04-12T08:04:14.572Z</time></trkpt><trkpt lat="43.0212015" lon="13.035114"><ele>519.0</ele><time>2026-04-12T08:04:15.57Z</time></trkpt><trkpt lat="43.0210397" lon="13.0353858"><ele>519.0</ele><time>2026-04-12T08:04:16.57Z</time></trkpt><trkpt lat="43.0208961" lon="13.0356493"><ele>519.0</ele><time>2026-04-12T08:04:17.571Z</time></trkpt><trkpt lat="43.0207983" lon="13.0359394"><ele>525.5</ele><time>2026-04-12T08:04:18.571Z</time></trkpt><trkpt lat="43.0207498" lon="13.0362588"><ele>532.0</ele><time>2026-04-12T08:04:19.601Z</time></trkpt><trkpt lat="43.0207503" lon="13.0365646"><ele>530.3333333333334</ele><time>2026-04-12T08:04:20.575Z</time></trkpt><trkpt lat="43.0207489" lon="13.0368586"><ele>528.6666666666666</ele><time>2026-04-12T08:04:21.573Z</time></trkpt><trkpt lat="43.0206949" lon="13.0371461"><ele>527.0</ele><time>2026-04-12T08:04:22.567Z</time></trkpt><trkpt lat="43.0205924" lon="13.0374336"><ele>525.5</ele><time>2026-04-12T08:04:23.574Z</time></trkpt><trkpt lat="43.0204869" lon="13.0377372"><ele>524.0</ele><time>2026-04-12T08:04:24.573Z</time></trkpt><trkpt lat="43.0204137" lon="13.0380577"><ele>524.0</ele><time>2026-04-12T08:04:25.569Z</time></trkpt><trkpt lat="43.020374" lon="13.0383701"><ele>524.0</ele><time>2026-04-12T08:04:26.569Z</time></trkpt><trkpt lat="43.0203441" lon="13.0386589"><ele>524.0</ele><time>2026-04-12T08:04:27.572Z</time></trkpt><trkpt lat="43.0203295" lon="13.0389416"><ele>523.6666666666666</ele><time>2026-04-12T08:04:28.572Z</time></trkpt><trkpt lat="43.0203441" lon="13.0392204"><ele>523.3333333333334</ele><time>2026-04-12T08:04:29.573Z</time></trkpt><trkpt lat="43.0204195" lon="13.0395023"><ele>523.0</ele><time>2026-04-12T08:04:30.568Z</time></trkpt><trkpt lat="43.0205275" lon="13.0397748"><ele>526.6666666666667</ele><time>2026-04-12T08:04:31.568Z</time></trkpt><trkpt lat="43.0206301" lon="13.04002"><ele>530.3333333333334</ele><time>2026-04-12T08:04:32.574Z</time></trkpt><trkpt lat="43.0207254" lon="13.0402349"><ele>534.0</ele><time>2026-04-12T08:04:33.57Z</time></trkpt><trkpt lat="43.0208102" lon="13.0404284"><ele>533.3333333333334</ele><time>2026-04-12T08:04:34.577Z</time></trkpt><trkpt lat="43.0208901" lon="13.0406358"><ele>532.6666666666667</ele><time>2026-04-12T08:04:35.567Z</time></trkpt><trkpt lat="43.0209483" lon="13.0408428"><ele>532.0</ele><time>2026-04-12T08:04:36.57Z</time></trkpt><trkpt lat="43.0209976" lon="13.04105"><ele>532.0</ele><time>2026-04-12T08:04:37.57Z</time></trkpt><trkpt lat="43.0210393" lon="13.0412493"><ele>532.0</ele><time>2026-04-12T08:04:38.572Z</time></trkpt><trkpt lat="43.0210825" lon="13.0414382"><ele>532.0</ele><time>2026-04-12T08:04:39.567Z</time></trkpt><trkpt lat="43.0211242" lon="13.0416206"><ele>532.0</ele><time>2026-04-12T08:04:40.574Z</time></trkpt><trkpt lat="43.0211662" lon="13.0417925"><ele>532.0</ele><time>2026-04-12T08:04:41.568Z</time></trkpt><trkpt lat="43.0211944" lon="13.0419584"><ele>532.0</ele><time>2026-04-12T08:04:42.571Z</time></trkpt><trkpt lat="43.0212047" lon="13.042147"><ele>532.0</ele><time>2026-04-12T08:04:43.57Z</time></trkpt><trkpt lat="43.0211796" lon="13.0423474"><ele>532.0</ele><time>2026-04-12T08:04:44.567Z</time></trkpt><trkpt lat="43.0211273" lon="13.0425392"><ele>531.3333333333334</ele><time>2026-04-12T08:04:45.576Z</time></trkpt><trkpt lat="43.0210542" lon="13.0427101"><ele>530.6666666666666</ele><time>2026-04-12T08:04:46.57Z</time></trkpt><trkpt lat="43.0209723" lon="13.0428742"><ele>530.0</ele><time>2026-04-12T08:04:47.57Z</time></trkpt><trkpt lat="43.0208632" lon="13.0430384"><ele>535.0</ele><time>2026-04-12T08:04:48.571Z</time></trkpt><trkpt lat="43.0207578" lon="13.0431912"><ele>540.0</ele><time>2026-04-12T08:04:49.573Z</time></trkpt><trkpt lat="43.0206734" lon="13.0433439"><ele>545.0</ele><time>2026-04-12T08:04:50.569Z</time></trkpt><trkpt lat="43.0206031" lon="13.0435244"><ele>550.0</ele><time>2026-04-12T08:04:51.569Z</time></trkpt><trkpt lat="43.0205549" lon="13.0437233"><ele>550.0</ele><time>2026-04-12T08:04:52.575Z</time></trkpt><trkpt lat="43.0205185" lon="13.0439166"><ele>550.0</ele><time>2026-04-12T08:04:53.568Z</time></trkpt><trkpt lat="43.0204893" lon="13.0441087"><ele>550.0</ele><time>2026-04-12T08:04:54.574Z</time></trkpt><trkpt lat="43.0204588" lon="13.0442949"><ele>550.0</ele><time>2026-04-12T08:04:55.57Z</time></trkpt><trkpt lat="43.0204355" lon="13.0444789"><ele>546.5</ele><time>2026-04-12T08:04:56.572Z</time></trkpt><trkpt lat="43.0204085" lon="13.0446434"><ele>543.0</ele><time>2026-04-12T08:04:57.571Z</time></trkpt><trkpt lat="43.020378" lon="13.0448005"><ele>539.5</ele><time>2026-04-12T08:04:58.571Z</time></trkpt><trkpt lat="43.0203492" lon="13.044963"><ele>536.0</ele><time>2026-04-12T08:04:59.575Z</time></trkpt><trkpt lat="43.0203118" lon="13.0451233"><ele>535.25</ele><time>2026-04-12T08:05:00.571Z</time></trkpt><trkpt lat="43.0202566" lon="13.045288"><ele>534.5</ele><time>2026-04-12T08:05:01.578Z</time></trkpt><trkpt lat="43.0201776" lon="13.0454555"><ele>533.75</ele><time>2026-04-12T08:05:02.573Z</time></trkpt><trkpt lat="43.0200955" lon="13.0456171"><ele>533.0</ele><time>2026-04-12T08:05:03.576Z</time></trkpt><trkpt lat="43.0200134" lon="13.0457718"><ele>535.25</ele><time>2026-04-12T08:05:04.57Z</time></trkpt><trkpt lat="43.0199322" lon="13.0459296"><ele>537.5</ele><time>2026-04-12T08:05:05.571Z</time></trkpt><trkpt lat="43.0198475" lon="13.0460892"><ele>539.75</ele><time>2026-04-12T08:05:06.573Z</time></trkpt><trkpt lat="43.019759" lon="13.046253"><ele>542.0</ele><time>2026-04-12T08:05:07.574Z</time></trkpt><trkpt lat="43.0196705" lon="13.0464199"><ele>542.0</ele><time>2026-04-12T08:05:08.573Z</time></trkpt><trkpt lat="43.0195864" lon="13.0465865"><ele>542.0</ele><time>2026-04-12T08:05:09.576Z</time></trkpt><trkpt lat="43.0195007" lon="13.0467536"><ele>542.0</ele><time>2026-04-12T08:05:10.576Z</time></trkpt><trkpt lat="43.0194161" lon="13.0469249"><ele>542.0</ele><time>2026-04-12T08:05:11.572Z</time></trkpt><trkpt lat="43.0193279" lon="13.0470963"><ele>543.3333333333333</ele><time>2026-04-12T08:05:12.582Z</time></trkpt><trkpt lat="43.0192341" lon="13.0472616"><ele>544.6666666666666</ele><time>2026-04-12T08:05:13.577Z</time></trkpt><trkpt lat="43.0191327" lon="13.0474158"><ele>546.0</ele><time>2026-04-12T08:05:14.574Z</time></trkpt><trkpt lat="43.0190212" lon="13.0475542"><ele>543.0</ele><time>2026-04-12T08:05:15.573Z</time></trkpt><trkpt lat="43.0189047" lon="13.0476776"><ele>540.0</ele><time>2026-04-12T08:05:16.58Z</time></trkpt><trkpt lat="43.0187842" lon="13.0477904"><ele>537.0</ele><time>2026-04-12T08:05:17.573Z</time></trkpt><trkpt lat="43.0186583" lon="13.0478902"><ele>534.0</ele><time>2026-04-12T08:05:18.574Z</time></trkpt><trkpt lat="43.0185271" lon="13.0479744"><ele>534.0</ele><time>2026-04-12T08:05:19.571Z</time></trkpt><trkpt lat="43.0183923" lon="13.0480463"><ele>534.0</ele><time>2026-04-12T08:05:20.576Z</time></trkpt><trkpt lat="43.0182631" lon="13.0481074"><ele>534.0</ele><time>2026-04-12T08:05:21.571Z</time></trkpt><trkpt lat="43.0181418" lon="13.0481587"><ele>534.0</ele><time>2026-04-12T08:05:22.575Z</time></trkpt><trkpt lat="43.0180202" lon="13.0482029"><ele>535.75</ele><time>2026-04-12T08:05:23.577Z</time></trkpt><trkpt lat="43.0178818" lon="13.0482103"><ele>537.5</ele><time>2026-04-12T08:05:24.572Z</time></trkpt><trkpt lat="43.0177457" lon="13.0481634"><ele>539.25</ele><time>2026-04-12T08:05:25.578Z</time></trkpt><trkpt lat="43.0176246" lon="13.0480734"><ele>541.0</ele><time>2026-04-12T08:05:26.573Z</time></trkpt><trkpt lat="43.017524" lon="13.0479622"><ele>542.5</ele><time>2026-04-12T08:05:27.574Z</time></trkpt><trkpt lat="43.0174289" lon="13.0478451"><ele>544.0</ele><time>2026-04-12T08:05:28.582Z</time></trkpt><trkpt lat="43.0173273" lon="13.0477319"><ele>545.5</ele><time>2026-04-12T08:05:29.575Z</time></trkpt><trkpt lat="43.0172067" lon="13.0476449"><ele>547.0</ele><time>2026-04-12T08:05:30.587Z</time></trkpt><trkpt lat="43.0170649" lon="13.0475951"><ele>547.0</ele><time>2026-04-12T08:05:31.576Z</time></trkpt><trkpt lat="43.0169154" lon="13.0475721"><ele>547.0</ele><time>2026-04-12T08:05:32.573Z</time></trkpt><trkpt lat="43.0167612" lon="13.0475556"><ele>547.0</ele><time>2026-04-12T08:05:33.576Z</time></trkpt><trkpt lat="43.0166107" lon="13.0475433"><ele>546.25</ele><time>2026-04-12T08:05:34.583Z</time></trkpt><trkpt lat="43.0164643" lon="13.0475309"><ele>545.5</ele><time>2026-04-12T08:05:35.574Z</time></trkpt><trkpt lat="43.0163154" lon="13.0475087"><ele>544.75</ele><time>2026-04-12T08:05:36.575Z</time></trkpt><trkpt lat="43.0161698" lon="13.047465"><ele>544.0</ele><time>2026-04-12T08:05:37.57Z</time></trkpt><trkpt lat="43.0160382" lon="13.0474"><ele>544.0</ele><time>2026-04-12T08:05:38.578Z</time></trkpt><trkpt lat="43.0159124" lon="13.0473193"><ele>544.0</ele><time>2026-04-12T08:05:39.573Z</time></trkpt><trkpt lat="43.0157949" lon="13.0472211"><ele>544.0</ele><time>2026-04-12T08:05:40.571Z</time></trkpt><trkpt lat="43.0156858" lon="13.0471057"><ele>544.0</ele><time>2026-04-12T08:05:41.57Z</time></trkpt><trkpt lat="43.0155862" lon="13.0469795"><ele>544.0</ele><time>2026-04-12T08:05:42.574Z</time></trkpt><trkpt lat="43.015491" lon="13.0468591"><ele>544.0</ele><time>2026-04-12T08:05:43.572Z</time></trkpt><trkpt lat="43.0153835" lon="13.0467527"><ele>544.0</ele><time>2026-04-12T08:05:44.575Z</time></trkpt><trkpt lat="43.0152611" lon="13.0466723"><ele>544.0</ele><time>2026-04-12T08:05:45.577Z</time></trkpt><trkpt lat="43.0151259" lon="13.046616"><ele>545.0</ele><time>2026-04-12T08:05:46.57Z</time></trkpt><trkpt lat="43.0149822" lon="13.0465823"><ele>546.0</ele><time>2026-04-12T08:05:47.573Z</time></trkpt><trkpt lat="43.0148349" lon="13.0465694"><ele>547.0</ele><time>2026-04-12T08:05:48.575Z</time></trkpt><trkpt lat="43.0146848" lon="13.0465742"><ele>548.0</ele><time>2026-04-12T08:05:49.574Z</time></trkpt><trkpt lat="43.0145346" lon="13.0465826"><ele>548.0</ele><time>2026-04-12T08:05:50.576Z</time></trkpt><trkpt lat="43.0143835" lon="13.0465859"><ele>548.0</ele><time>2026-04-12T08:05:51.572Z</time></trkpt><trkpt lat="43.0142324" lon="13.0465755"><ele>548.0</ele><time>2026-04-12T08:05:52.576Z</time></trkpt><trkpt lat="43.0140846" lon="13.0465349"><ele>551.3333333333333</ele><time>2026-04-12T08:05:53.572Z</time></trkpt><trkpt lat="43.0139485" lon="13.0464462"><ele>554.6666666666666</ele><time>2026-04-12T08:05:54.57Z</time></trkpt><trkpt lat="43.0138251" lon="13.0463183"><ele>558.0</ele><time>2026-04-12T08:05:55.574Z</time></trkpt><trkpt lat="43.0137144" lon="13.0461666"><ele>558.0</ele><time>2026-04-12T08:05:56.57Z</time></trkpt><trkpt lat="43.0136127" lon="13.0460038"><ele>558.0</ele><time>2026-04-12T08:05:57.575Z</time></trkpt><trkpt lat="43.0135108" lon="13.0458386"><ele>558.0</ele><time>2026-04-12T08:05:58.573Z</time></trkpt><trkpt lat="43.0134105" lon="13.0456755"><ele>556.6666666666666</ele><time>2026-04-12T08:05:59.571Z</time></trkpt><trkpt lat="43.0133047" lon="13.0455259"><ele>555.3333333333333</ele><time>2026-04-12T08:06:00.571Z</time></trkpt><trkpt lat="43.013191" lon="13.0453907"><ele>554.0</ele><time>2026-04-12T08:06:01.571Z</time></trkpt><trkpt lat="43.0130523" lon="13.0452912"><ele>554.0</ele><time>2026-04-12T08:06:02.573Z</time></trkpt><trkpt lat="43.0129134" lon="13.0452123"><ele>554.0</ele><time>2026-04-12T08:06:03.571Z</time></trkpt><trkpt lat="43.0127709" lon="13.0451515"><ele>554.0</ele><time>2026-04-12T08:06:04.574Z</time></trkpt><trkpt lat="43.0126342" lon="13.0450919"><ele>554.0</ele><time>2026-04-12T08:06:05.574Z</time></trkpt><trkpt lat="43.0124992" lon="13.0450465"><ele>554.25</ele><time>2026-04-12T08:06:06.571Z</time></trkpt><trkpt lat="43.0123569" lon="13.0450249"><ele>554.5</ele><time>2026-04-12T08:06:07.574Z</time></trkpt><trkpt lat="43.0122134" lon="13.0450402"><ele>554.75</ele><time>2026-04-12T08:06:08.575Z</time></trkpt><trkpt lat="43.0120715" lon="13.0450983"><ele>555.0</ele><time>2026-04-12T08:06:09.571Z</time></trkpt><trkpt lat="43.011931" lon="13.0452152"><ele>555.0</ele><time>2026-04-12T08:06:10.574Z</time></trkpt><trkpt lat="43.0117846" lon="13.0453614"><ele>555.0</ele><time>2026-04-12T08:06:11.575Z</time></trkpt><trkpt lat="43.0116617" lon="13.0455891"><ele>555.0</ele><time>2026-04-12T08:06:12.575Z</time></trkpt><trkpt lat="43.0115326" lon="13.0458387"><ele>555.0</ele><time>2026-04-12T08:06:13.609Z</time></trkpt><trkpt lat="43.0113927" lon="13.0460918"><ele>555.0</ele><time>2026-04-12T08:06:14.574Z</time></trkpt><trkpt lat="43.0112442" lon="13.0463531"><ele>555.0</ele><time>2026-04-12T08:06:15.574Z</time></trkpt><trkpt lat="43.0110918" lon="13.0466102"><ele>555.0</ele><time>2026-04-12T08:06:16.57Z</time></trkpt><trkpt lat="43.0109426" lon="13.0468455"><ele>553.6666666666666</ele><time>2026-04-12T08:06:17.574Z</time></trkpt><trkpt lat="43.0107977" lon="13.0470689"><ele>552.3333333333333</ele><time>2026-04-12T08:06:18.578Z</time></trkpt><trkpt lat="43.0106626" lon="13.0472854"><ele>551.0</ele><time>2026-04-12T08:06:19.573Z</time></trkpt><trkpt lat="43.0105162" lon="13.0474805"><ele>551.0</ele><time>2026-04-12T08:06:20.591Z</time></trkpt><trkpt lat="43.010337" lon="13.0476424"><ele>551.0</ele><time>2026-04-12T08:06:21.57Z</time></trkpt><trkpt lat="43.0101305" lon="13.0477481"><ele>551.0</ele><time>2026-04-12T08:06:22.576Z</time></trkpt><trkpt lat="43.0099096" lon="13.0478214"><ele>552.0</ele><time>2026-04-12T08:06:23.576Z</time></trkpt><trkpt lat="43.0096858" lon="13.047897"><ele>553.0</ele><time>2026-04-12T08:06:24.574Z</time></trkpt><trkpt lat="43.0094614" lon="13.0479789"><ele>553.0</ele><time>2026-04-12T08:06:25.575Z</time></trkpt><trkpt lat="43.0092377" lon="13.0480536"><ele>553.0</ele><time>2026-04-12T08:06:26.573Z</time></trkpt><trkpt lat="43.0090176" lon="13.0481262"><ele>553.0</ele><time>2026-04-12T08:06:27.575Z</time></trkpt><trkpt lat="43.0088024" lon="13.048199"><ele>553.0</ele><time>2026-04-12T08:06:28.574Z</time></trkpt><trkpt lat="43.008592" lon="13.048268"><ele>553.0</ele><time>2026-04-12T08:06:29.576Z</time></trkpt><trkpt lat="43.0083922" lon="13.048336"><ele>554.6666666666667</ele><time>2026-04-12T08:06:30.578Z</time></trkpt><trkpt lat="43.0081983" lon="13.0484012"><ele>556.3333333333334</ele><time>2026-04-12T08:06:31.573Z</time></trkpt><trkpt lat="43.008007" lon="13.0484577"><ele>558.0</ele><time>2026-04-12T08:06:32.575Z</time></trkpt><trkpt lat="43.007816" lon="13.0485063"><ele>558.0</ele><time>2026-04-12T08:06:33.57Z</time></trkpt><trkpt lat="43.0076238" lon="13.048546"><ele>558.0</ele><time>2026-04-12T08:06:34.571Z</time></trkpt><trkpt lat="43.0074312" lon="13.0485821"><ele>558.0</ele><time>2026-04-12T08:06:35.573Z</time></trkpt><trkpt lat="43.0072296" lon="13.0486189"><ele>557.6666666666666</ele><time>2026-04-12T08:06:36.575Z</time></trkpt><trkpt lat="43.0070188" lon="13.0486562"><ele>557.3333333333333</ele><time>2026-04-12T08:06:37.575Z</time></trkpt><trkpt lat="43.0068056" lon="13.04869"><ele>557.0</ele><time>2026-04-12T08:06:38.575Z</time></trkpt><trkpt lat="43.0065922" lon="13.048726"><ele>558.0</ele><time>2026-04-12T08:06:39.597Z</time></trkpt><trkpt lat="43.0063805" lon="13.0487719"><ele>559.0</ele><time>2026-04-12T08:06:40.57Z</time></trkpt><trkpt lat="43.0061714" lon="13.048826"><ele>560.0</ele><time>2026-04-12T08:06:41.579Z</time></trkpt><trkpt lat="43.0059582" lon="13.0488923"><ele>560.0</ele><time>2026-04-12T08:06:42.57Z</time></trkpt><trkpt lat="43.0057448" lon="13.0489731"><ele>560.0</ele><time>2026-04-12T08:06:43.579Z</time></trkpt><trkpt lat="43.0055235" lon="13.0490668"><ele>562.5</ele><time>2026-04-12T08:06:44.574Z</time></trkpt><trkpt lat="43.0052912" lon="13.04917"><ele>565.0</ele><time>2026-04-12T08:06:45.575Z</time></trkpt><trkpt lat="43.0050473" lon="13.0492702"><ele>563.5</ele><time>2026-04-12T08:06:46.577Z</time></trkpt><trkpt lat="43.0048012" lon="13.0493615"><ele>562.0</ele><time>2026-04-12T08:06:47.574Z</time></trkpt><trkpt lat="43.0045644" lon="13.0494473"><ele>562.0</ele><time>2026-04-12T08:06:48.594Z</time></trkpt><trkpt lat="43.0043472" lon="13.0495409"><ele>562.0</ele><time>2026-04-12T08:06:49.577Z</time></trkpt><trkpt lat="43.0041426" lon="13.0496441"><ele>562.0</ele><time>2026-04-12T08:06:50.574Z</time></trkpt><trkpt lat="43.0039444" lon="13.0497547"><ele>563.3333333333334</ele><time>2026-04-12T08:06:51.573Z</time></trkpt><trkpt lat="43.0037583" lon="13.0498816"><ele>564.6666666666666</ele><time>2026-04-12T08:06:52.574Z</time></trkpt><trkpt lat="43.0035833" lon="13.050007"><ele>566.0</ele><time>2026-04-12T08:06:53.637Z</time></trkpt><trkpt lat="43.0034162" lon="13.0501287"><ele>566.3333333333333</ele><time>2026-04-12T08:06:54.582Z</time></trkpt><trkpt lat="43.0032501" lon="13.0502533"><ele>566.6666666666666</ele><time>2026-04-12T08:06:55.575Z</time></trkpt><trkpt lat="43.0030824" lon="13.0503774"><ele>567.0</ele><time>2026-04-12T08:06:56.577Z</time></trkpt><trkpt lat="43.0029125" lon="13.0505048"><ele>567.0</ele><time>2026-04-12T08:06:57.576Z</time></trkpt><trkpt lat="43.0027458" lon="13.0506318"><ele>567.0</ele><time>2026-04-12T08:06:58.603Z</time></trkpt><trkpt lat="43.002587" lon="13.0507531"><ele>567.0</ele><time>2026-04-12T08:06:59.576Z</time></trkpt><trkpt lat="43.0024339" lon="13.0508754"><ele>567.0</ele><time>2026-04-12T08:07:00.573Z</time></trkpt><trkpt lat="43.0022821" lon="13.0510007"><ele>567.0</ele><time>2026-04-12T08:07:01.577Z</time></trkpt><trkpt lat="43.0021329" lon="13.0511301"><ele>567.0</ele><time>2026-04-12T08:07:02.579Z</time></trkpt><trkpt lat="43.0019833" lon="13.0512628"><ele>567.0</ele><time>2026-04-12T08:07:03.579Z</time></trkpt><trkpt lat="43.0018322" lon="13.0514008"><ele>567.0</ele><time>2026-04-12T08:07:04.598Z</time></trkpt><trkpt lat="43.0016772" lon="13.0515469"><ele>567.0</ele><time>2026-04-12T08:07:05.577Z</time></trkpt><trkpt lat="43.0015207" lon="13.0517013"><ele>567.0</ele><time>2026-04-12T08:07:06.582Z</time></trkpt><trkpt lat="43.0013641" lon="13.0518586"><ele>567.0</ele><time>2026-04-12T08:07:07.585Z</time></trkpt><trkpt lat="43.0012132" lon="13.0520096"><ele>567.0</ele><time>2026-04-12T08:07:08.582Z</time></trkpt><trkpt lat="43.0010677" lon="13.0521419"><ele>567.0</ele><time>2026-04-12T08:07:09.587Z</time></trkpt><trkpt lat="43.0009284" lon="13.052288"><ele>567.0</ele><time>2026-04-12T08:07:10.578Z</time></trkpt><trkpt lat="43.0007847" lon="13.0524294"><ele>567.0</ele><time>2026-04-12T08:07:11.583Z</time></trkpt><trkpt lat="43.0006464" lon="13.0525714"><ele>568.3333333333334</ele><time>2026-04-12T08:07:12.588Z</time></trkpt><trkpt lat="43.0005085" lon="13.0527153"><ele>569.6666666666667</ele><time>2026-04-12T08:07:13.574Z</time></trkpt><trkpt lat="43.0003725" lon="13.052867"><ele>571.0</ele><time>2026-04-12T08:07:14.579Z</time></trkpt><trkpt lat="43.000238" lon="13.053023"><ele>571.0</ele><time>2026-04-12T08:07:15.577Z</time></trkpt><trkpt lat="43.0001072" lon="13.0531836"><ele>571.0</ele><time>2026-04-12T08:07:16.578Z</time></trkpt><trkpt lat="42.9999786" lon="13.05335"><ele>571.0</ele><time>2026-04-12T08:07:17.577Z</time></trkpt><trkpt lat="42.9998528" lon="13.0535221"><ele>572.0</ele><time>2026-04-12T08:07:18.573Z</time></trkpt><trkpt lat="42.9997301" lon="13.0537012"><ele>573.0</ele><time>2026-04-12T08:07:19.577Z</time></trkpt><trkpt lat="42.9996086" lon="13.0538843"><ele>574.0</ele><time>2026-04-12T08:07:20.574Z</time></trkpt><trkpt lat="42.9994938" lon="13.0540657"><ele>577.6666666666667</ele><time>2026-04-12T08:07:21.572Z</time></trkpt><trkpt lat="42.9993868" lon="13.0542386"><ele>581.3333333333334</ele><time>2026-04-12T08:07:22.594Z</time></trkpt><trkpt lat="42.9992807" lon="13.0544068"><ele>585.0</ele><time>2026-04-12T08:07:23.578Z</time></trkpt><trkpt lat="42.9991774" lon="13.0545741"><ele>584.0</ele><time>2026-04-12T08:07:24.574Z</time></trkpt><trkpt lat="42.9990737" lon="13.0547435"><ele>583.0</ele><time>2026-04-12T08:07:25.576Z</time></trkpt><trkpt lat="42.9989666" lon="13.0549193"><ele>582.0</ele><time>2026-04-12T08:07:26.576Z</time></trkpt><trkpt lat="42.9988534" lon="13.0551013"><ele>582.0</ele><time>2026-04-12T08:07:27.576Z</time></trkpt><trkpt lat="42.9987389" lon="13.0552899"><ele>582.0</ele><time>2026-04-12T08:07:28.577Z</time></trkpt><trkpt lat="42.9986217" lon="13.0554816"><ele>582.0</ele><time>2026-04-12T08:07:29.579Z</time></trkpt><trkpt lat="42.9985032" lon="13.0556769"><ele>581.3333333333334</ele><time>2026-04-12T08:07:30.574Z</time></trkpt><trkpt lat="42.9983795" lon="13.0558791"><ele>580.6666666666667</ele><time>2026-04-12T08:07:31.594Z</time></trkpt><trkpt lat="42.9982514" lon="13.0560875"><ele>580.0</ele><time>2026-04-12T08:07:32.575Z</time></trkpt><trkpt lat="42.9981223" lon="13.0562955"><ele>580.0</ele><time>2026-04-12T08:07:33.579Z</time></trkpt><trkpt lat="42.9979951" lon="13.0565039"><ele>580.0</ele><time>2026-04-12T08:07:34.572Z</time></trkpt><trkpt lat="42.9978705" lon="13.0567125"><ele>580.0</ele><time>2026-04-12T08:07:35.578Z</time></trkpt><trkpt lat="42.9977483" lon="13.056925"><ele>580.0</ele><time>2026-04-12T08:07:36.578Z</time></trkpt><trkpt lat="42.997638" lon="13.0571424"><ele>580.0</ele><time>2026-04-12T08:07:37.577Z</time></trkpt><trkpt lat="42.9975316" lon="13.0573765"><ele>580.0</ele><time>2026-04-12T08:07:38.58Z</time></trkpt><trkpt lat="42.9974313" lon="13.0576309"><ele>580.0</ele><time>2026-04-12T08:07:39.602Z</time></trkpt><trkpt lat="42.9973275" lon="13.0578986"><ele>580.0</ele><time>2026-04-12T08:07:40.576Z</time></trkpt><trkpt lat="42.9972197" lon="13.0581814"><ele>580.5</ele><time>2026-04-12T08:07:41.573Z</time></trkpt><trkpt lat="42.9971092" lon="13.0584801"><ele>581.0</ele><time>2026-04-12T08:07:42.573Z</time></trkpt><trkpt lat="42.996997" lon="13.0587939"><ele>581.0</ele><time>2026-04-12T08:07:43.577Z</time></trkpt><trkpt lat="42.9968833" lon="13.0591015"><ele>581.0</ele><time>2026-04-12T08:07:44.579Z</time></trkpt><trkpt lat="42.9967735" lon="13.0594114"><ele>581.5</ele><time>2026-04-12T08:07:45.582Z</time></trkpt><trkpt lat="42.9966706" lon="13.0597335"><ele>582.0</ele><time>2026-04-12T08:07:46.574Z</time></trkpt><trkpt lat="42.996582" lon="13.0600674"><ele>583.0</ele><time>2026-04-12T08:07:47.575Z</time></trkpt><trkpt lat="42.9965197" lon="13.0604161"><ele>584.0</ele><time>2026-04-12T08:07:48.573Z</time></trkpt><trkpt lat="42.9964883" lon="13.0607755"><ele>587.5</ele><time>2026-04-12T08:07:49.57Z</time></trkpt><trkpt lat="42.9964824" lon="13.0611424"><ele>591.0</ele><time>2026-04-12T08:07:50.574Z</time></trkpt><trkpt lat="42.996502" lon="13.0615128"><ele>592.0</ele><time>2026-04-12T08:07:51.574Z</time></trkpt><trkpt lat="42.9965367" lon="13.061882"><ele>593.0</ele><time>2026-04-12T08:07:52.573Z</time></trkpt><trkpt lat="42.9965749" lon="13.0622511"><ele>593.0</ele><time>2026-04-12T08:07:53.576Z</time></trkpt><trkpt lat="42.9966146" lon="13.0626184"><ele>593.0</ele><time>2026-04-12T08:07:54.569Z</time></trkpt><trkpt lat="42.9966558" lon="13.0629842"><ele>596.0</ele><time>2026-04-12T08:07:55.592Z</time></trkpt><trkpt lat="42.9966961" lon="13.06335"><ele>599.0</ele><time>2026-04-12T08:07:56.573Z</time></trkpt><trkpt lat="42.9967343" lon="13.0637144"><ele>599.0</ele><time>2026-04-12T08:07:57.57Z</time></trkpt><trkpt lat="42.9967593" lon="13.0640789"><ele>599.0</ele><time>2026-04-12T08:07:58.574Z</time></trkpt><trkpt lat="42.9967616" lon="13.0644447"><ele>600.0</ele><time>2026-04-12T08:07:59.576Z</time></trkpt><trkpt lat="42.996741" lon="13.0648119"><ele>601.0</ele><time>2026-04-12T08:08:00.573Z</time></trkpt><trkpt lat="42.9966941" lon="13.0651754"><ele>600.5</ele><time>2026-04-12T08:08:01.57Z</time></trkpt><trkpt lat="42.9966167" lon="13.0655311"><ele>600.0</ele><time>2026-04-12T08:08:02.575Z</time></trkpt><trkpt lat="42.9965129" lon="13.0658767"><ele>600.0</ele><time>2026-04-12T08:08:03.575Z</time></trkpt><trkpt lat="42.9963848" lon="13.0662069"><ele>600.0</ele><time>2026-04-12T08:08:04.576Z</time></trkpt><trkpt lat="42.9962337" lon="13.06652"><ele>605.0</ele><time>2026-04-12T08:08:05.575Z</time></trkpt><trkpt lat="42.9960654" lon="13.0668191"><ele>610.0</ele><time>2026-04-12T08:08:06.568Z</time></trkpt><trkpt lat="42.995888" lon="13.0671094"><ele>608.5</ele><time>2026-04-12T08:08:07.582Z</time></trkpt><trkpt lat="42.9957081" lon="13.0673964"><ele>607.0</ele><time>2026-04-12T08:08:08.577Z</time></trkpt><trkpt lat="42.9955309" lon="13.0676844"><ele>607.0</ele><time>2026-04-12T08:08:09.58Z</time></trkpt><trkpt lat="42.9953562" lon="13.0679722"><ele>607.0</ele><time>2026-04-12T08:08:10.575Z</time></trkpt><trkpt lat="42.9951816" lon="13.0682591"><ele>606.5</ele><time>2026-04-12T08:08:11.577Z</time></trkpt><trkpt lat="42.9950074" lon="13.0685451"><ele>606.0</ele><time>2026-04-12T08:08:12.571Z</time></trkpt><trkpt lat="42.994831" lon="13.0688279"><ele>606.0</ele><time>2026-04-12T08:08:13.574Z</time></trkpt><trkpt lat="42.9946477" lon="13.0691032"><ele>606.0</ele><time>2026-04-12T08:08:14.573Z</time></trkpt><trkpt lat="42.9944545" lon="13.0693674"><ele>607.0</ele><time>2026-04-12T08:08:15.581Z</time></trkpt><trkpt lat="42.9942516" lon="13.069618"><ele>608.0</ele><time>2026-04-12T08:08:16.573Z</time></trkpt><trkpt lat="42.9940384" lon="13.0698537"><ele>614.5</ele><time>2026-04-12T08:08:17.575Z</time></trkpt><trkpt lat="42.9938145" lon="13.0700717"><ele>621.0</ele><time>2026-04-12T08:08:18.57Z</time></trkpt><trkpt lat="42.9935816" lon="13.0702716"><ele>621.0</ele><time>2026-04-12T08:08:19.575Z</time></trkpt><trkpt lat="42.9933405" lon="13.0704535"><ele>621.0</ele><time>2026-04-12T08:08:20.57Z</time></trkpt><trkpt lat="42.9930914" lon="13.0706181"><ele>623.5</ele><time>2026-04-12T08:08:21.574Z</time></trkpt><trkpt lat="42.9928383" lon="13.0707721"><ele>626.0</ele><time>2026-04-12T08:08:22.573Z</time></trkpt><trkpt lat="42.9925827" lon="13.0709226"><ele>621.0</ele><time>2026-04-12T08:08:23.574Z</time></trkpt><trkpt lat="42.9923261" lon="13.0710715"><ele>616.0</ele><time>2026-04-12T08:08:24.574Z</time></trkpt><trkpt lat="42.992069" lon="13.0712213"><ele>616.0</ele><time>2026-04-12T08:08:25.575Z</time></trkpt><trkpt lat="42.9918119" lon="13.0713731"><ele>616.0</ele><time>2026-04-12T08:08:26.57Z</time></trkpt><trkpt lat="42.9915549" lon="13.0715269"><ele>624.5</ele><time>2026-04-12T08:08:27.573Z</time></trkpt><trkpt lat="42.9913006" lon="13.0716887"><ele>633.0</ele><time>2026-04-12T08:08:28.577Z</time></trkpt><trkpt lat="42.9910507" lon="13.0718669"><ele>630.5</ele><time>2026-04-12T08:08:29.578Z</time></trkpt><trkpt lat="42.9908069" lon="13.0720614"><ele>628.0</ele><time>2026-04-12T08:08:30.575Z</time></trkpt><trkpt lat="42.9905696" lon="13.072271"><ele>636.5</ele><time>2026-04-12T08:08:31.575Z</time></trkpt><trkpt lat="42.9903369" lon="13.0724926"><ele>645.0</ele><time>2026-04-12T08:08:32.582Z</time></trkpt><trkpt lat="42.9901079" lon="13.0727206"><ele>638.5</ele><time>2026-04-12T08:08:33.575Z</time></trkpt><trkpt lat="42.9898809" lon="13.0729514"><ele>632.0</ele><time>2026-04-12T08:08:34.578Z</time></trkpt><trkpt lat="42.9896525" lon="13.0731806"><ele>640.0</ele><time>2026-04-12T08:08:35.577Z</time></trkpt><trkpt lat="42.9894222" lon="13.0734066"><ele>648.0</ele><time>2026-04-12T08:08:36.575Z</time></trkpt><trkpt lat="42.9891921" lon="13.073621"><ele>639.5</ele><time>2026-04-12T08:08:37.575Z</time></trkpt><trkpt lat="42.988951" lon="13.073833"><ele>631.0</ele><time>2026-04-12T08:08:38.574Z</time></trkpt><trkpt lat="42.9887029" lon="13.0740213"><ele>639.0</ele><time>2026-04-12T08:08:39.567Z</time></trkpt><trkpt lat="42.9884438" lon="13.0741862"><ele>647.0</ele><time>2026-04-12T08:08:40.567Z</time></trkpt><trkpt lat="42.9881813" lon="13.0743242"><ele>647.0</ele><time>2026-04-12T08:08:41.57Z</time></trkpt><trkpt lat="42.9879065" lon="13.074439"><ele>647.0</ele><time>2026-04-12T08:08:42.576Z</time></trkpt><trkpt lat="42.9876372" lon="13.0745494"><ele>642.5</ele><time>2026-04-12T08:08:43.574Z</time></trkpt><trkpt lat="42.9873726" lon="13.0746729"><ele>638.0</ele><time>2026-04-12T08:08:44.591Z</time></trkpt><trkpt lat="42.9871087" lon="13.0748089"><ele>644.5</ele><time>2026-04-12T08:08:45.569Z</time></trkpt><trkpt lat="42.9868463" lon="13.0749513"><ele>651.0</ele><time>2026-04-12T08:08:46.569Z</time></trkpt><trkpt lat="42.9865847" lon="13.0750901"><ele>651.0</ele><time>2026-04-12T08:08:47.573Z</time></trkpt><trkpt lat="42.9863188" lon="13.0752151"><ele>651.0</ele><time>2026-04-12T08:08:48.572Z</time></trkpt><trkpt lat="42.9860491" lon="13.0753169"><ele>652.0</ele><time>2026-04-12T08:08:49.571Z</time></trkpt><trkpt lat="42.9857729" lon="13.0753952"><ele>653.0</ele><time>2026-04-12T08:08:50.572Z</time></trkpt><trkpt lat="42.9854953" lon="13.075456"><ele>653.0</ele><time>2026-04-12T08:08:51.576Z</time></trkpt><trkpt lat="42.9852156" lon="13.0755117"><ele>653.0</ele><time>2026-04-12T08:08:52.572Z</time></trkpt><trkpt lat="42.9849362" lon="13.0755667"><ele>652.5</ele><time>2026-04-12T08:08:53.593Z</time></trkpt><trkpt lat="42.9846559" lon="13.0756211"><ele>652.0</ele><time>2026-04-12T08:08:54.57Z</time></trkpt><trkpt lat="42.9843739" lon="13.0756764"><ele>650.5</ele><time>2026-04-12T08:08:55.575Z</time></trkpt><trkpt lat="42.9840907" lon="13.0757318"><ele>649.0</ele><time>2026-04-12T08:08:56.57Z</time></trkpt><trkpt lat="42.9838058" lon="13.0757884"><ele>662.0</ele><time>2026-04-12T08:08:57.574Z</time></trkpt><trkpt lat="42.98352" lon="13.0758456"><ele>675.0</ele><time>2026-04-12T08:08:58.577Z</time></trkpt><trkpt lat="42.9832341" lon="13.0759056"><ele>675.0</ele><time>2026-04-12T08:08:59.573Z</time></trkpt><trkpt lat="42.9829487" lon="13.0759647"><ele>675.0</ele><time>2026-04-12T08:09:00.592Z</time></trkpt><trkpt lat="42.9826629" lon="13.0760292"><ele>674.0</ele><time>2026-04-12T08:09:01.575Z</time></trkpt><trkpt lat="42.9823814" lon="13.0760883"><ele>673.0</ele><time>2026-04-12T08:09:02.574Z</time></trkpt><trkpt lat="42.9820979" lon="13.0761486"><ele>673.0</ele><time>2026-04-12T08:09:03.572Z</time></trkpt><trkpt lat="42.9818204" lon="13.0762116"><ele>673.0</ele><time>2026-04-12T08:09:04.573Z</time></trkpt><trkpt lat="42.9815449" lon="13.076275"><ele>674.0</ele><time>2026-04-12T08:09:05.571Z</time></trkpt><trkpt lat="42.9812731" lon="13.076341"><ele>675.0</ele><time>2026-04-12T08:09:06.577Z</time></trkpt><trkpt lat="42.9810027" lon="13.0764005"><ele>672.5</ele><time>2026-04-12T08:09:07.575Z</time></trkpt><trkpt lat="42.9807338" lon="13.0764402"><ele>670.0</ele><time>2026-04-12T08:09:08.571Z</time></trkpt><trkpt lat="42.9804652" lon="13.0764438"><ele>670.0</ele><time>2026-04-12T08:09:09.571Z</time></trkpt><trkpt lat="42.9802034" lon="13.0764123"><ele>670.0</ele><time>2026-04-12T08:09:10.572Z</time></trkpt><trkpt lat="42.9799474" lon="13.0763468"><ele>674.5</ele><time>2026-04-12T08:09:11.573Z</time></trkpt><trkpt lat="42.9796998" lon="13.0762549"><ele>679.0</ele><time>2026-04-12T08:09:12.575Z</time></trkpt><trkpt lat="42.9794528" lon="13.0761617"><ele>679.0</ele><time>2026-04-12T08:09:13.571Z</time></trkpt><trkpt lat="42.979211" lon="13.0760595"><ele>679.0</ele><time>2026-04-12T08:09:14.572Z</time></trkpt><trkpt lat="42.9789616" lon="13.0759714"><ele>688.0</ele><time>2026-04-12T08:09:15.577Z</time></trkpt><trkpt lat="42.9787043" lon="13.0759204"><ele>697.0</ele><time>2026-04-12T08:09:16.575Z</time></trkpt><trkpt lat="42.9784318" lon="13.0759107"><ele>701.5</ele><time>2026-04-12T08:09:17.572Z</time></trkpt><trkpt lat="42.9781533" lon="13.0759455"><ele>706.0</ele><time>2026-04-12T08:09:18.572Z</time></trkpt><trkpt lat="42.977875" lon="13.0760267"><ele>706.0</ele><time>2026-04-12T08:09:19.578Z</time></trkpt><trkpt lat="42.9775973" lon="13.0761467"><ele>706.0</ele><time>2026-04-12T08:09:20.571Z</time></trkpt><trkpt lat="42.9773223" lon="13.076298"><ele>707.5</ele><time>2026-04-12T08:09:21.572Z</time></trkpt><trkpt lat="42.97705" lon="13.0764581"><ele>709.0</ele><time>2026-04-12T08:09:22.573Z</time></trkpt><trkpt lat="42.9767762" lon="13.0766121"><ele>709.0</ele><time>2026-04-12T08:09:23.573Z</time></trkpt><trkpt lat="42.9765052" lon="13.0767625"><ele>709.0</ele><time>2026-04-12T08:09:24.576Z</time></trkpt><trkpt lat="42.9762364" lon="13.0769114"><ele>709.0</ele><time>2026-04-12T08:09:25.577Z</time></trkpt><trkpt lat="42.9759709" lon="13.0770603"><ele>709.0</ele><time>2026-04-12T08:09:26.581Z</time></trkpt><trkpt lat="42.9757075" lon="13.0772068"><ele>715.0</ele><time>2026-04-12T08:09:27.576Z</time></trkpt><trkpt lat="42.9754447" lon="13.0773468"><ele>721.0</ele><time>2026-04-12T08:09:28.576Z</time></trkpt><trkpt lat="42.9751776" lon="13.077476"><ele>725.0</ele><time>2026-04-12T08:09:29.57Z</time></trkpt><trkpt lat="42.9749044" lon="13.07758"><ele>729.0</ele><time>2026-04-12T08:09:30.574Z</time></trkpt><trkpt lat="42.974622" lon="13.0776391"><ele>729.0</ele><time>2026-04-12T08:09:31.572Z</time></trkpt><trkpt lat="42.9743325" lon="13.0776401"><ele>729.0</ele><time>2026-04-12T08:09:32.58Z</time></trkpt><trkpt lat="42.9740419" lon="13.077582"><ele>728.5</ele><time>2026-04-12T08:09:33.582Z</time></trkpt><trkpt lat="42.973755" lon="13.0774707"><ele>728.0</ele><time>2026-04-12T08:09:34.593Z</time></trkpt><trkpt lat="42.9734777" lon="13.0773144"><ele>728.5</ele><time>2026-04-12T08:09:35.573Z</time></trkpt><trkpt lat="42.9732114" lon="13.0771291"><ele>729.0</ele><time>2026-04-12T08:09:36.576Z</time></trkpt><trkpt lat="42.9729514" lon="13.0769333"><ele>729.0</ele><time>2026-04-12T08:09:37.576Z</time></trkpt><trkpt lat="42.9726898" lon="13.0767506"><ele>729.0</ele><time>2026-04-12T08:09:38.582Z</time></trkpt><trkpt lat="42.9724162" lon="13.0766075"><ele>738.5</ele><time>2026-04-12T08:09:39.583Z</time></trkpt><trkpt lat="42.972129" lon="13.0765139"><ele>748.0</ele><time>2026-04-12T08:09:40.586Z</time></trkpt><trkpt lat="42.9718353" lon="13.0764605"><ele>753.0</ele><time>2026-04-12T08:09:41.577Z</time></trkpt><trkpt lat="42.9715389" lon="13.0764558"><ele>758.0</ele><time>2026-04-12T08:09:42.581Z</time></trkpt><trkpt lat="42.9712437" lon="13.0765101"><ele>757.5</ele><time>2026-04-12T08:09:43.58Z</time></trkpt><trkpt lat="42.970954" lon="13.0766252"><ele>757.0</ele><time>2026-04-12T08:09:44.582Z</time></trkpt><trkpt lat="42.9706729" lon="13.0767775"><ele>757.0</ele><time>2026-04-12T08:09:45.575Z</time></trkpt><trkpt lat="42.9703968" lon="13.0769372"><ele>757.0</ele><time>2026-04-12T08:09:46.581Z</time></trkpt><trkpt lat="42.9701244" lon="13.0770939"><ele>766.0</ele><time>2026-04-12T08:09:47.581Z</time></trkpt><trkpt lat="42.9698659" lon="13.0772433"><ele>775.0</ele><time>2026-04-12T08:09:48.578Z</time></trkpt><trkpt lat="42.9695978" lon="13.0773946"><ele>771.0</ele><time>2026-04-12T08:09:49.585Z</time></trkpt><trkpt lat="42.9693355" lon="13.0775554"><ele>767.0</ele><time>2026-04-12T08:09:50.605Z</time></trkpt><trkpt lat="42.9690779" lon="13.0777132"><ele>767.0</ele><time>2026-04-12T08:09:51.584Z</time></trkpt><trkpt lat="42.9688208" lon="13.0778695"><ele>767.0</ele><time>2026-04-12T08:09:52.579Z</time></trkpt><trkpt lat="42.9685656" lon="13.0780207"><ele>770.5</ele><time>2026-04-12T08:09:53.581Z</time></trkpt><trkpt lat="42.9683106" lon="13.0781697"><ele>774.0</ele><time>2026-04-12T08:09:54.579Z</time></trkpt><trkpt lat="42.9680586" lon="13.0783196"><ele>774.0</ele><time>2026-04-12T08:09:55.577Z</time></trkpt><trkpt lat="42.9678062" lon="13.078468"><ele>774.0</ele><time>2026-04-12T08:09:56.575Z</time></trkpt><trkpt lat="42.9675564" lon="13.0786149"><ele>778.0</ele><time>2026-04-12T08:09:57.573Z</time></trkpt><trkpt lat="42.9673082" lon="13.0787616"><ele>782.0</ele><time>2026-04-12T08:09:58.583Z</time></trkpt><trkpt lat="42.9670672" lon="13.0789051"><ele>782.0</ele><time>2026-04-12T08:09:59.577Z</time></trkpt><trkpt lat="42.966833" lon="13.0790465"><ele>782.0</ele><time>2026-04-12T08:10:00.575Z</time></trkpt><trkpt lat="42.9665948" lon="13.0791899"><ele>785.0</ele><time>2026-04-12T08:10:01.581Z</time></trkpt><trkpt lat="42.9622059" lon="13.080989"><ele>785.0</ele><time>2026-04-12T08:10:19.521Z</time></trkpt><trkpt lat="42.9619797" lon="13.0810281"><ele>785.0</ele><time>2026-04-12T08:10:20.586Z</time></trkpt><trkpt lat="42.9617504" lon="13.0810512"><ele>787.0</ele><time>2026-04-12T08:10:21.588Z</time></trkpt><trkpt lat="42.961526" lon="13.0810729"><ele>789.0</ele><time>2026-04-12T08:10:22.578Z</time></trkpt><trkpt lat="42.9613019" lon="13.0810988"><ele>789.0</ele><time>2026-04-12T08:10:23.575Z</time></trkpt><trkpt lat="42.9610747" lon="13.081137"><ele>789.0</ele><time>2026-04-12T08:10:24.578Z</time></trkpt><trkpt lat="42.9608428" lon="13.0812137"><ele>789.5</ele><time>2026-04-12T08:10:25.581Z</time></trkpt><trkpt lat="42.9606031" lon="13.081337"><ele>790.0</ele><time>2026-04-12T08:10:26.577Z</time></trkpt><trkpt lat="42.9603779" lon="13.0814945"><ele>776.5</ele><time>2026-04-12T08:10:27.576Z</time></trkpt><trkpt lat="42.9601609" lon="13.0816694"><ele>763.0</ele><time>2026-04-12T08:10:28.578Z</time></trkpt><trkpt lat="42.9599587" lon="13.0818413"><ele>757.5</ele><time>2026-04-12T08:10:29.583Z</time></trkpt><trkpt lat="42.9597515" lon="13.0819982"><ele>752.0</ele><time>2026-04-12T08:10:30.582Z</time></trkpt><trkpt lat="42.9595529" lon="13.08214"><ele>752.0</ele><time>2026-04-12T08:10:31.577Z</time></trkpt><trkpt lat="42.9593604" lon="13.0822852"><ele>752.0</ele><time>2026-04-12T08:10:32.591Z</time></trkpt><trkpt lat="42.9591797" lon="13.0824256"><ele>752.0</ele><time>2026-04-12T08:10:33.577Z</time></trkpt><trkpt lat="42.9589959" lon="13.0825659"><ele>750.3333333333333</ele><time>2026-04-12T08:10:34.575Z</time></trkpt><trkpt lat="42.9588093" lon="13.0827127"><ele>748.6666666666666</ele><time>2026-04-12T08:10:35.571Z</time></trkpt><trkpt lat="42.9586221" lon="13.0828718"><ele>747.0</ele><time>2026-04-12T08:10:36.577Z</time></trkpt><trkpt lat="42.9584458" lon="13.083063"><ele>747.6666666666666</ele><time>2026-04-12T08:10:37.574Z</time></trkpt><trkpt lat="42.9582942" lon="13.0832751"><ele>748.3333333333333</ele><time>2026-04-12T08:10:38.582Z</time></trkpt><trkpt lat="42.9581617" lon="13.0834809"><ele>749.0</ele><time>2026-04-12T08:10:39.576Z</time></trkpt><trkpt lat="42.9580248" lon="13.0836663"><ele>749.0</ele><time>2026-04-12T08:10:40.575Z</time></trkpt><trkpt lat="42.9578665" lon="13.083792"><ele>749.0</ele><time>2026-04-12T08:10:41.569Z</time></trkpt><trkpt lat="42.9577036" lon="13.0838606"><ele>749.0</ele><time>2026-04-12T08:10:42.575Z</time></trkpt><trkpt lat="42.9575409" lon="13.0838461"><ele>746.0</ele><time>2026-04-12T08:10:43.574Z</time></trkpt><trkpt lat="42.9573787" lon="13.0837797"><ele>743.0</ele><time>2026-04-12T08:10:44.569Z</time></trkpt><trkpt lat="42.9572349" lon="13.0836629"><ele>740.0</ele><time>2026-04-12T08:10:45.573Z</time></trkpt><trkpt lat="42.9571166" lon="13.0834904"><ele>740.0</ele><time>2026-04-12T08:10:46.576Z</time></trkpt><trkpt lat="42.9570052" lon="13.0832957"><ele>740.0</ele><time>2026-04-12T08:10:47.581Z</time></trkpt><trkpt lat="42.9569051" lon="13.08312"><ele>740.0</ele><time>2026-04-12T08:10:48.576Z</time></trkpt><trkpt lat="42.9568129" lon="13.0829615"><ele>732.3333333333333</ele><time>2026-04-12T08:10:49.597Z</time></trkpt><trkpt lat="42.9566883" lon="13.0828525"><ele>724.6666666666666</ele><time>2026-04-12T08:10:50.573Z</time></trkpt><trkpt lat="42.9565323" lon="13.0828013"><ele>717.0</ele><time>2026-04-12T08:10:51.569Z</time></trkpt><trkpt lat="42.9563782" lon="13.0828555"><ele>717.0</ele><time>2026-04-12T08:10:52.572Z</time></trkpt><trkpt lat="42.9562368" lon="13.0829412"><ele>717.0</ele><time>2026-04-12T08:10:53.572Z</time></trkpt><trkpt lat="42.9561199" lon="13.0830525"><ele>717.0</ele><time>2026-04-12T08:10:54.573Z</time></trkpt><trkpt lat="42.9560373" lon="13.0832152"><ele>717.0</ele><time>2026-04-12T08:10:55.598Z</time></trkpt><trkpt lat="42.9559754" lon="13.0833862"><ele>723.25</ele><time>2026-04-12T08:10:56.574Z</time></trkpt><trkpt lat="42.9559278" lon="13.0835487"><ele>729.5</ele><time>2026-04-12T08:10:57.572Z</time></trkpt><trkpt lat="42.9558955" lon="13.0837137"><ele>735.75</ele><time>2026-04-12T08:10:58.572Z</time></trkpt><trkpt lat="42.9558737" lon="13.0838745"><ele>742.0</ele><time>2026-04-12T08:10:59.575Z</time></trkpt><trkpt lat="42.9558953" lon="13.0840514"><ele>743.8</ele><time>2026-04-12T08:11:00.578Z</time></trkpt><trkpt lat="42.9559744" lon="13.0841983"><ele>745.6</ele><time>2026-04-12T08:11:01.578Z</time></trkpt><trkpt lat="42.9560435" lon="13.0843167"><ele>747.4</ele><time>2026-04-12T08:11:02.575Z</time></trkpt><trkpt lat="42.9561143" lon="13.0844227"><ele>749.1999999999999</ele><time>2026-04-12T08:11:03.574Z</time></trkpt><trkpt lat="42.9561819" lon="13.0845052"><ele>751.0</ele><time>2026-04-12T08:11:04.576Z</time></trkpt><trkpt lat="42.9562415" lon="13.0845941"><ele>751.0</ele><time>2026-04-12T08:11:05.577Z</time></trkpt><trkpt lat="42.9562896" lon="13.0846896"><ele>751.0</ele><time>2026-04-12T08:11:06.578Z</time></trkpt><trkpt lat="42.9563155" lon="13.0848179"><ele>751.0</ele><time>2026-04-12T08:11:07.58Z</time></trkpt><trkpt lat="42.9562687" lon="13.0849391"><ele>751.0</ele><time>2026-04-12T08:11:08.574Z</time></trkpt><trkpt lat="42.956159" lon="13.0850056"><ele>751.0</ele><time>2026-04-12T08:11:09.577Z</time></trkpt><trkpt lat="42.956042" lon="13.0850376"><ele>750.0</ele><time>2026-04-12T08:11:10.577Z</time></trkpt><trkpt lat="42.9559212" lon="13.0850546"><ele>749.0</ele><time>2026-04-12T08:11:11.582Z</time></trkpt><trkpt lat="42.9558137" lon="13.0850805"><ele>748.0</ele><time>2026-04-12T08:11:12.576Z</time></trkpt><trkpt lat="42.9557206" lon="13.0851088"><ele>747.0</ele><time>2026-04-12T08:11:13.581Z</time></trkpt><trkpt lat="42.9556302" lon="13.0851303"><ele>746.0</ele><time>2026-04-12T08:11:14.575Z</time></trkpt><trkpt lat="42.9555365" lon="13.085126"><ele>740.75</ele><time>2026-04-12T08:11:15.584Z</time></trkpt><trkpt lat="42.9554387" lon="13.0850715"><ele>735.5</ele><time>2026-04-12T08:11:16.573Z</time></trkpt><trkpt lat="42.9553522" lon="13.0849579"><ele>730.25</ele><time>2026-04-12T08:11:17.579Z</time></trkpt><trkpt lat="42.955271" lon="13.0848193"><ele>725.0</ele><time>2026-04-12T08:11:18.575Z</time></trkpt><trkpt lat="42.9551644" lon="13.0846815"><ele>723.6666666666666</ele><time>2026-04-12T08:11:19.576Z</time></trkpt><trkpt lat="42.9550647" lon="13.0845326"><ele>722.3333333333334</ele><time>2026-04-12T08:11:20.575Z</time></trkpt><trkpt lat="42.9549621" lon="13.08437"><ele>721.0</ele><time>2026-04-12T08:11:21.576Z</time></trkpt><trkpt lat="42.9548744" lon="13.0842031"><ele>715.5</ele><time>2026-04-12T08:11:22.575Z</time></trkpt><trkpt lat="42.954818" lon="13.0840253"><ele>710.0</ele><time>2026-04-12T08:11:23.577Z</time></trkpt><trkpt lat="42.9547743" lon="13.0838375"><ele>704.5</ele><time>2026-04-12T08:11:24.574Z</time></trkpt><trkpt lat="42.9547128" lon="13.0836576"><ele>699.0</ele><time>2026-04-12T08:11:25.581Z</time></trkpt><trkpt lat="42.9546533" lon="13.0834928"><ele>699.0</ele><time>2026-04-12T08:11:26.577Z</time></trkpt><trkpt lat="42.9545312" lon="13.0833703"><ele>699.0</ele><time>2026-04-12T08:11:27.578Z</time></trkpt><trkpt lat="42.9543605" lon="13.0833161"><ele>699.0</ele><time>2026-04-12T08:11:28.575Z</time></trkpt><trkpt lat="42.9541892" lon="13.083267"><ele>699.0</ele><time>2026-04-12T08:11:29.578Z</time></trkpt><trkpt lat="42.9539966" lon="13.083326"><ele>699.0</ele><time>2026-04-12T08:11:30.577Z</time></trkpt><trkpt lat="42.9538218" lon="13.0833614"><ele>699.0</ele><time>2026-04-12T08:11:31.575Z</time></trkpt><trkpt lat="42.9536548" lon="13.0833601"><ele>699.0</ele><time>2026-04-12T08:11:32.577Z</time></trkpt><trkpt lat="42.9534954" lon="13.0833236"><ele>699.0</ele><time>2026-04-12T08:11:33.58Z</time></trkpt><trkpt lat="42.9533472" lon="13.0832539"><ele>699.0</ele><time>2026-04-12T08:11:34.575Z</time></trkpt><trkpt lat="42.9532009" lon="13.083175"><ele>695.0</ele><time>2026-04-12T08:11:35.576Z</time></trkpt><trkpt lat="42.9530443" lon="13.0831"><ele>691.0</ele><time>2026-04-12T08:11:36.572Z</time></trkpt><trkpt lat="42.9528853" lon="13.0830551"><ele>687.0</ele><time>2026-04-12T08:11:37.579Z</time></trkpt><trkpt lat="42.9527132" lon="13.0830544"><ele>684.6666666666666</ele><time>2026-04-12T08:11:38.574Z</time></trkpt><trkpt lat="42.9525216" lon="13.0831091"><ele>682.3333333333333</ele><time>2026-04-12T08:11:39.574Z</time></trkpt><trkpt lat="42.9523067" lon="13.0831811"><ele>680.0</ele><time>2026-04-12T08:11:40.585Z</time></trkpt><trkpt lat="42.9520748" lon="13.0832416"><ele>683.0</ele><time>2026-04-12T08:11:41.589Z</time></trkpt><trkpt lat="42.9518263" lon="13.0832949"><ele>686.0</ele><time>2026-04-12T08:11:42.577Z</time></trkpt><trkpt lat="42.95157" lon="13.0833313"><ele>686.0</ele><time>2026-04-12T08:11:43.573Z</time></trkpt><trkpt lat="42.9513228" lon="13.0833276"><ele>686.0</ele><time>2026-04-12T08:11:44.581Z</time></trkpt><trkpt lat="42.9510827" lon="13.0833188"><ele>683.5</ele><time>2026-04-12T08:11:45.578Z</time></trkpt><trkpt lat="42.9508539" lon="13.0832831"><ele>681.0</ele><time>2026-04-12T08:11:46.577Z</time></trkpt><trkpt lat="42.9506065" lon="13.0833166"><ele>681.0</ele><time>2026-04-12T08:11:47.577Z</time></trkpt><trkpt lat="42.9503603" lon="13.0833818"><ele>681.0</ele><time>2026-04-12T08:11:48.597Z</time></trkpt><trkpt lat="42.9501238" lon="13.0834079"><ele>676.0</ele><time>2026-04-12T08:11:49.582Z</time></trkpt><trkpt lat="42.9498942" lon="13.0834236"><ele>671.0</ele><time>2026-04-12T08:11:50.578Z</time></trkpt><trkpt lat="42.9496636" lon="13.0834928"><ele>671.0</ele><time>2026-04-12T08:11:51.578Z</time></trkpt><trkpt lat="42.9494432" lon="13.0836146"><ele>671.0</ele><time>2026-04-12T08:11:52.573Z</time></trkpt><trkpt lat="42.9492323" lon="13.0837589"><ele>667.5</ele><time>2026-04-12T08:11:53.575Z</time></trkpt><trkpt lat="42.9490168" lon="13.0838786"><ele>664.0</ele><time>2026-04-12T08:11:54.578Z</time></trkpt><trkpt lat="42.9487816" lon="13.0839671"><ele>664.0</ele><time>2026-04-12T08:11:55.578Z</time></trkpt><trkpt lat="42.9485288" lon="13.0840284"><ele>664.0</ele><time>2026-04-12T08:11:56.578Z</time></trkpt><trkpt lat="42.9482625" lon="13.0840548"><ele>659.5</ele><time>2026-04-12T08:11:57.578Z</time></trkpt><trkpt lat="42.9480009" lon="13.0840239"><ele>655.0</ele><time>2026-04-12T08:11:58.581Z</time></trkpt><trkpt lat="42.9477535" lon="13.083942"><ele>654.0</ele><time>2026-04-12T08:11:59.58Z</time></trkpt><trkpt lat="42.9475311" lon="13.0838311"><ele>653.0</ele><time>2026-04-12T08:12:00.581Z</time></trkpt><trkpt lat="42.9473271" lon="13.0837122"><ele>653.0</ele><time>2026-04-12T08:12:01.577Z</time></trkpt><trkpt lat="42.9471381" lon="13.0835954"><ele>653.0</ele><time>2026-04-12T08:12:02.575Z</time></trkpt><trkpt lat="42.9469632" lon="13.0834836"><ele>653.0</ele><time>2026-04-12T08:12:03.579Z</time></trkpt><trkpt lat="42.9467884" lon="13.083383"><ele>652.0</ele><time>2026-04-12T08:12:04.578Z</time></trkpt><trkpt lat="42.9466189" lon="13.0833082"><ele>651.0</ele><time>2026-04-12T08:12:05.581Z</time></trkpt><trkpt lat="42.9464498" lon="13.0832565"><ele>650.0</ele><time>2026-04-12T08:12:06.579Z</time></trkpt><trkpt lat="42.9462848" lon="13.0832356"><ele>649.0</ele><time>2026-04-12T08:12:07.578Z</time></trkpt><trkpt lat="42.9461171" lon="13.083241"><ele>648.0</ele><time>2026-04-12T08:12:08.579Z</time></trkpt><trkpt lat="42.9459502" lon="13.0832567"><ele>647.0</ele><time>2026-04-12T08:12:09.581Z</time></trkpt><trkpt lat="42.9457856" lon="13.0832729"><ele>647.0</ele><time>2026-04-12T08:12:10.58Z</time></trkpt><trkpt lat="42.9456261" lon="13.0832868"><ele>647.0</ele><time>2026-04-12T08:12:11.578Z</time></trkpt><trkpt lat="42.9454748" lon="13.0833003"><ele>647.0</ele><time>2026-04-12T08:12:12.577Z</time></trkpt><trkpt lat="42.9453269" lon="13.0833133"><ele>647.0</ele><time>2026-04-12T08:12:13.576Z</time></trkpt><trkpt lat="42.9451784" lon="13.0833276"><ele>647.0</ele><time>2026-04-12T08:12:14.577Z</time></trkpt><trkpt lat="42.9450397" lon="13.0833422"><ele>647.0</ele><time>2026-04-12T08:12:15.576Z</time></trkpt><trkpt lat="42.944912" lon="13.0833564"><ele>647.0</ele><time>2026-04-12T08:12:16.577Z</time></trkpt><trkpt lat="42.9447909" lon="13.0833691"><ele>646.25</ele><time>2026-04-12T08:12:17.593Z</time></trkpt><trkpt lat="42.9446664" lon="13.0833841"><ele>645.5</ele><time>2026-04-12T08:12:18.577Z</time></trkpt><trkpt lat="42.9445319" lon="13.0834015"><ele>644.75</ele><time>2026-04-12T08:12:19.576Z</time></trkpt><trkpt lat="42.9443886" lon="13.0834174"><ele>644.0</ele><time>2026-04-12T08:12:20.577Z</time></trkpt><trkpt lat="42.9442388" lon="13.0834314"><ele>643.0</ele><time>2026-04-12T08:12:21.58Z</time></trkpt><trkpt lat="42.9440871" lon="13.0834436"><ele>642.0</ele><time>2026-04-12T08:12:22.578Z</time></trkpt><trkpt lat="42.9439421" lon="13.0834564"><ele>641.0</ele><time>2026-04-12T08:12:23.59Z</time></trkpt><trkpt lat="42.9437964" lon="13.0834687"><ele>640.0</ele><time>2026-04-12T08:12:24.576Z</time></trkpt><trkpt lat="42.9436523" lon="13.0834762"><ele>640.0</ele><time>2026-04-12T08:12:25.574Z</time></trkpt><trkpt lat="42.9435115" lon="13.0834794"><ele>640.0</ele><time>2026-04-12T08:12:26.574Z</time></trkpt><trkpt lat="42.9433689" lon="13.0834766"><ele>640.0</ele><time>2026-04-12T08:12:27.578Z</time></trkpt><trkpt lat="42.943226" lon="13.0834719"><ele>640.0</ele><time>2026-04-12T08:12:28.578Z</time></trkpt><trkpt lat="42.9430836" lon="13.0834739"><ele>639.25</ele><time>2026-04-12T08:12:29.574Z</time></trkpt><trkpt lat="42.9429412" lon="13.0834918"><ele>638.5</ele><time>2026-04-12T08:12:30.578Z</time></trkpt><trkpt lat="42.9428119" lon="13.0834773"><ele>637.75</ele><time>2026-04-12T08:12:31.577Z</time></trkpt><trkpt lat="42.9426633" lon="13.0834837"><ele>637.0</ele><time>2026-04-12T08:12:32.578Z</time></trkpt><trkpt lat="42.942511" lon="13.0834764"><ele>637.0</ele><time>2026-04-12T08:12:33.579Z</time></trkpt><trkpt lat="42.9423559" lon="13.0834586"><ele>637.0</ele><time>2026-04-12T08:12:34.576Z</time></trkpt><trkpt lat="42.9422041" lon="13.0834389"><ele>637.0</ele><time>2026-04-12T08:12:35.577Z</time></trkpt><trkpt lat="42.9420507" lon="13.0834199"><ele>637.0</ele><time>2026-04-12T08:12:36.573Z</time></trkpt><trkpt lat="42.9419027" lon="13.0833937"><ele>637.0</ele><time>2026-04-12T08:12:37.577Z</time></trkpt><trkpt lat="42.9417593" lon="13.0833677"><ele>637.0</ele><time>2026-04-12T08:12:38.579Z</time></trkpt><trkpt lat="42.9416138" lon="13.0833389"><ele>637.0</ele><time>2026-04-12T08:12:39.579Z</time></trkpt><trkpt lat="42.9414683" lon="13.0833072"><ele>636.75</ele><time>2026-04-12T08:12:40.574Z</time></trkpt><trkpt lat="42.9413245" lon="13.0832739"><ele>636.5</ele><time>2026-04-12T08:12:41.586Z</time></trkpt><trkpt lat="42.9411793" lon="13.083238"><ele>636.25</ele><time>2026-04-12T08:12:42.578Z</time></trkpt><trkpt lat="42.941034" lon="13.0831984"><ele>636.0</ele><time>2026-04-12T08:12:43.615Z</time></trkpt><trkpt lat="42.9408953" lon="13.0831564"><ele>635.75</ele><time>2026-04-12T08:12:44.578Z</time></trkpt><trkpt lat="42.9407637" lon="13.0831148"><ele>635.5</ele><time>2026-04-12T08:12:45.578Z</time></trkpt><trkpt lat="42.9406409" lon="13.0830723"><ele>635.25</ele><time>2026-04-12T08:12:46.584Z</time></trkpt><trkpt lat="42.9405285" lon="13.083032"><ele>635.0</ele><time>2026-04-12T08:12:47.577Z</time></trkpt><trkpt lat="42.9404227" lon="13.082994"><ele>635.0</ele><time>2026-04-12T08:12:48.594Z</time></trkpt><trkpt lat="42.9403155" lon="13.0829559"><ele>635.0</ele><time>2026-04-12T08:12:49.582Z</time></trkpt><trkpt lat="42.9401986" lon="13.0829125"><ele>635.0</ele><time>2026-04-12T08:12:50.584Z</time></trkpt><trkpt lat="42.9400744" lon="13.0828676"><ele>635.0</ele><time>2026-04-12T08:12:51.578Z</time></trkpt><trkpt lat="42.9399474" lon="13.082802"><ele>634.5</ele><time>2026-04-12T08:12:52.575Z</time></trkpt><trkpt lat="42.9398259" lon="13.0827388"><ele>634.0</ele><time>2026-04-12T08:12:53.579Z</time></trkpt><trkpt lat="42.9397045" lon="13.0826814"><ele>633.5</ele><time>2026-04-12T08:12:54.578Z</time></trkpt><trkpt lat="42.9395779" lon="13.0826272"><ele>633.0</ele><time>2026-04-12T08:12:55.576Z</time></trkpt><trkpt lat="42.939447" lon="13.0825669"><ele>633.0</ele><time>2026-04-12T08:12:56.595Z</time></trkpt><trkpt lat="42.9393048" lon="13.0825084"><ele>633.0</ele><time>2026-04-12T08:12:57.578Z</time></trkpt><trkpt lat="42.9391604" lon="13.0824544"><ele>633.0</ele><time>2026-04-12T08:12:58.581Z</time></trkpt><trkpt lat="42.9390158" lon="13.0824044"><ele>633.0</ele><time>2026-04-12T08:12:59.583Z</time></trkpt><trkpt lat="42.9388726" lon="13.0823646"><ele>633.5</ele><time>2026-04-12T08:13:00.585Z</time></trkpt><trkpt lat="42.9387307" lon="13.0823315"><ele>634.0</ele><time>2026-04-12T08:13:01.58Z</time></trkpt><trkpt lat="42.9385891" lon="13.0823008"><ele>634.5</ele><time>2026-04-12T08:13:02.575Z</time></trkpt><trkpt lat="42.9384461" lon="13.082268"><ele>635.0</ele><time>2026-04-12T08:13:03.602Z</time></trkpt><trkpt lat="42.938304" lon="13.0822373"><ele>635.0</ele><time>2026-04-12T08:13:04.574Z</time></trkpt><trkpt lat="42.9381633" lon="13.0822123"><ele>635.0</ele><time>2026-04-12T08:13:05.573Z</time></trkpt><trkpt lat="42.9380268" lon="13.082182"><ele>635.0</ele><time>2026-04-12T08:13:06.578Z</time></trkpt><trkpt lat="42.9378935" lon="13.0821543"><ele>635.0</ele><time>2026-04-12T08:13:07.574Z</time></trkpt><trkpt lat="42.937761" lon="13.0821251"><ele>635.0</ele><time>2026-04-12T08:13:08.575Z</time></trkpt><trkpt lat="42.9376322" lon="13.0820951"><ele>635.0</ele><time>2026-04-12T08:13:09.578Z</time></trkpt><trkpt lat="42.9375002" lon="13.0820711"><ele>635.0</ele><time>2026-04-12T08:13:10.579Z</time></trkpt><trkpt lat="42.9373623" lon="13.0820478"><ele>635.0</ele><time>2026-04-12T08:13:11.619Z</time></trkpt><trkpt lat="42.9372199" lon="13.0820315"><ele>632.75</ele><time>2026-04-12T08:13:12.578Z</time></trkpt><trkpt lat="42.9370725" lon="13.0820245"><ele>630.5</ele><time>2026-04-12T08:13:13.578Z</time></trkpt><trkpt lat="42.9369211" lon="13.0820241"><ele>628.25</ele><time>2026-04-12T08:13:14.577Z</time></trkpt><trkpt lat="42.9367709" lon="13.0820226"><ele>626.0</ele><time>2026-04-12T08:13:15.576Z</time></trkpt><trkpt lat="42.9366275" lon="13.0820236"><ele>623.75</ele><time>2026-04-12T08:13:16.579Z</time></trkpt><trkpt lat="42.9364918" lon="13.0820221"><ele>621.5</ele><time>2026-04-12T08:13:17.579Z</time></trkpt><trkpt lat="42.9363638" lon="13.0820216"><ele>619.25</ele><time>2026-04-12T08:13:18.587Z</time></trkpt><trkpt lat="42.9362437" lon="13.0820228"><ele>617.0</ele><time>2026-04-12T08:13:19.582Z</time></trkpt><trkpt lat="42.9361239" lon="13.0820231"><ele>617.0</ele><time>2026-04-12T08:13:20.579Z</time></trkpt><trkpt lat="42.9359975" lon="13.0820243"><ele>617.0</ele><time>2026-04-12T08:13:21.581Z</time></trkpt><trkpt lat="42.9358652" lon="13.0820239"><ele>617.0</ele><time>2026-04-12T08:13:22.584Z</time></trkpt><trkpt lat="42.9357299" lon="13.082022"><ele>617.0</ele><time>2026-04-12T08:13:23.578Z</time></trkpt><trkpt lat="42.9355951" lon="13.0820222"><ele>616.25</ele><time>2026-04-12T08:13:24.576Z</time></trkpt><trkpt lat="42.9354596" lon="13.0820247"><ele>615.5</ele><time>2026-04-12T08:13:25.578Z</time></trkpt><trkpt lat="42.9353238" lon="13.0820266"><ele>614.75</ele><time>2026-04-12T08:13:26.575Z</time></trkpt><trkpt lat="42.9351874" lon="13.082027"><ele>614.0</ele><time>2026-04-12T08:13:27.58Z</time></trkpt><trkpt lat="42.935049" lon="13.082025"><ele>613.25</ele><time>2026-04-12T08:13:28.576Z</time></trkpt><trkpt lat="42.9349059" lon="13.0820173"><ele>612.5</ele><time>2026-04-12T08:13:29.586Z</time></trkpt><trkpt lat="42.9347589" lon="13.0820067"><ele>611.75</ele><time>2026-04-12T08:13:30.579Z</time></trkpt><trkpt lat="42.9346127" lon="13.0819969"><ele>611.0</ele><time>2026-04-12T08:13:31.587Z</time></trkpt><trkpt lat="42.9344756" lon="13.0819884"><ele>611.0</ele><time>2026-04-12T08:13:32.581Z</time></trkpt><trkpt lat="42.9343433" lon="13.08198"><ele>611.0</ele><time>2026-04-12T08:13:33.578Z</time></trkpt><trkpt lat="42.9342096" lon="13.0819788"><ele>611.0</ele><time>2026-04-12T08:13:34.577Z</time></trkpt><trkpt lat="42.9340753" lon="13.0819964"><ele>611.0</ele><time>2026-04-12T08:13:35.579Z</time></trkpt><trkpt lat="42.9339434" lon="13.0820363"><ele>611.0</ele><time>2026-04-12T08:13:36.575Z</time></trkpt><trkpt lat="42.9338169" lon="13.0821017"><ele>611.0</ele><time>2026-04-12T08:13:37.579Z</time></trkpt><trkpt lat="42.9336992" lon="13.0821965"><ele>611.0</ele><time>2026-04-12T08:13:38.577Z</time></trkpt><trkpt lat="42.9335921" lon="13.082313"><ele>611.0</ele><time>2026-04-12T08:13:39.573Z</time></trkpt><trkpt lat="42.9334968" lon="13.0824468"><ele>610.75</ele><time>2026-04-12T08:13:40.582Z</time></trkpt><trkpt lat="42.933412" lon="13.0825949"><ele>610.5</ele><time>2026-04-12T08:13:41.583Z</time></trkpt><trkpt lat="42.9333289" lon="13.0827429"><ele>610.25</ele><time>2026-04-12T08:13:42.579Z</time></trkpt><trkpt lat="42.9332435" lon="13.0828909"><ele>610.0</ele><time>2026-04-12T08:13:43.582Z</time></trkpt><trkpt lat="42.9331627" lon="13.0830324"><ele>610.0</ele><time>2026-04-12T08:13:44.578Z</time></trkpt><trkpt lat="42.9330874" lon="13.083167"><ele>610.0</ele><time>2026-04-12T08:13:45.586Z</time></trkpt><trkpt lat="42.9330158" lon="13.0832997"><ele>610.0</ele><time>2026-04-12T08:13:46.613Z</time></trkpt><trkpt lat="42.932947" lon="13.083433"><ele>610.0</ele><time>2026-04-12T08:13:47.58Z</time></trkpt><trkpt lat="42.9328769" lon="13.0835701"><ele>611.0</ele><time>2026-04-12T08:13:48.574Z</time></trkpt><trkpt lat="42.9328052" lon="13.0837047"><ele>612.0</ele><time>2026-04-12T08:13:49.577Z</time></trkpt><trkpt lat="42.9327319" lon="13.0838368"><ele>613.0</ele><time>2026-04-12T08:13:50.577Z</time></trkpt><trkpt lat="42.932657" lon="13.0839631"><ele>614.0</ele><time>2026-04-12T08:13:51.605Z</time></trkpt><trkpt lat="42.9325853" lon="13.0840803"><ele>612.8</ele><time>2026-04-12T08:13:52.576Z</time></trkpt><trkpt lat="42.9325202" lon="13.0841895"><ele>611.5999999999999</ele><time>2026-04-12T08:13:53.579Z</time></trkpt><trkpt lat="42.9324602" lon="13.0842935"><ele>610.4</ele><time>2026-04-12T08:13:54.579Z</time></trkpt><trkpt lat="42.9324" lon="13.0844045"><ele>609.1999999999999</ele><time>2026-04-12T08:13:55.58Z</time></trkpt><trkpt lat="42.9323433" lon="13.0845091"><ele>608.0</ele><time>2026-04-12T08:13:56.573Z</time></trkpt><trkpt lat="42.9322682" lon="13.0845758"><ele>608.0</ele><time>2026-04-12T08:13:57.595Z</time></trkpt><trkpt lat="42.9321912" lon="13.0845678"><ele>608.0</ele><time>2026-04-12T08:13:58.579Z</time></trkpt><trkpt lat="42.9321181" lon="13.0845202"><ele>608.0</ele><time>2026-04-12T08:13:59.584Z</time></trkpt><trkpt lat="42.9320518" lon="13.084463"><ele>608.0</ele><time>2026-04-12T08:14:00.576Z</time></trkpt><trkpt lat="42.9319895" lon="13.0844036"><ele>608.0</ele><time>2026-04-12T08:14:01.577Z</time></trkpt><trkpt lat="42.9319323" lon="13.0843503"><ele>608.0</ele><time>2026-04-12T08:14:02.579Z</time></trkpt><trkpt lat="42.9318659" lon="13.0842916"><ele>608.0</ele><time>2026-04-12T08:14:03.581Z</time></trkpt><trkpt lat="42.9317887" lon="13.0842156"><ele>608.0</ele><time>2026-04-12T08:14:04.579Z</time></trkpt><trkpt lat="42.9317197" lon="13.0841071"><ele>608.0</ele><time>2026-04-12T08:14:05.572Z</time></trkpt><trkpt lat="42.9316872" lon="13.0839551"><ele>608.0</ele><time>2026-04-12T08:14:06.591Z</time></trkpt><trkpt lat="42.9316896" lon="13.0837873"><ele>608.0</ele><time>2026-04-12T08:14:07.58Z</time></trkpt><trkpt lat="42.9317181" lon="13.0836354"><ele>608.5</ele><time>2026-04-12T08:14:08.571Z</time></trkpt><trkpt lat="42.9317434" lon="13.0834898"><ele>609.0</ele><time>2026-04-12T08:14:09.575Z</time></trkpt><trkpt lat="42.9317791" lon="13.0833313"><ele>609.5</ele><time>2026-04-12T08:14:10.577Z</time></trkpt><trkpt lat="42.9318198" lon="13.0831379"><ele>610.0</ele><time>2026-04-12T08:14:11.58Z</time></trkpt><trkpt lat="42.9318691" lon="13.0829645"><ele>610.0</ele><time>2026-04-12T08:14:12.577Z</time></trkpt><trkpt lat="42.9319118" lon="13.0827786"><ele>610.0</ele><time>2026-04-12T08:14:13.576Z</time></trkpt><trkpt lat="42.9319592" lon="13.0825814"><ele>610.0</ele><time>2026-04-12T08:14:14.576Z</time></trkpt><trkpt lat="42.9320041" lon="13.0823799"><ele>610.0</ele><time>2026-04-12T08:14:15.578Z</time></trkpt><trkpt lat="42.9320503" lon="13.082174"><ele>609.0</ele><time>2026-04-12T08:14:16.575Z</time></trkpt><trkpt lat="42.9320982" lon="13.0819713"><ele>608.0</ele><time>2026-04-12T08:14:17.578Z</time></trkpt><trkpt lat="42.9321426" lon="13.0817762"><ele>607.0</ele><time>2026-04-12T08:14:18.581Z</time></trkpt><trkpt lat="42.9321866" lon="13.0815853"><ele>606.5</ele><time>2026-04-12T08:14:19.575Z</time></trkpt><trkpt lat="42.9322316" lon="13.0813922"><ele>606.0</ele><time>2026-04-12T08:14:20.597Z</time></trkpt><trkpt lat="42.932276" lon="13.0811991"><ele>605.5</ele><time>2026-04-12T08:14:21.578Z</time></trkpt><trkpt lat="42.9323191" lon="13.0810051"><ele>605.0</ele><time>2026-04-12T08:14:22.576Z</time></trkpt><trkpt lat="42.9323638" lon="13.0808127"><ele>605.0</ele><time>2026-04-12T08:14:23.58Z</time></trkpt><trkpt lat="42.9324096" lon="13.080618"><ele>605.0</ele><time>2026-04-12T08:14:24.58Z</time></trkpt><trkpt lat="42.9324546" lon="13.0804228"><ele>605.0</ele><time>2026-04-12T08:14:25.578Z</time></trkpt><trkpt lat="42.9324992" lon="13.0802271"><ele>605.0</ele><time>2026-04-12T08:14:26.575Z</time></trkpt><trkpt lat="42.9325416" lon="13.0800432"><ele>605.0</ele><time>2026-04-12T08:14:27.578Z</time></trkpt><trkpt lat="42.9325803" lon="13.0798715"><ele>605.0</ele><time>2026-04-12T08:14:28.581Z</time></trkpt><trkpt lat="42.9326183" lon="13.0797103"><ele>605.0</ele><time>2026-04-12T08:14:29.574Z</time></trkpt><trkpt lat="42.9326557" lon="13.0795489"><ele>604.75</ele><time>2026-04-12T08:14:30.576Z</time></trkpt><trkpt lat="42.9326941" lon="13.0793792"><ele>604.5</ele><time>2026-04-12T08:14:31.577Z</time></trkpt><trkpt lat="42.9327339" lon="13.0792011"><ele>604.25</ele><time>2026-04-12T08:14:32.574Z</time></trkpt><trkpt lat="42.9327773" lon="13.0790135"><ele>604.0</ele><time>2026-04-12T08:14:33.581Z</time></trkpt><trkpt lat="42.9328239" lon="13.0788103"><ele>604.6666666666667</ele><time>2026-04-12T08:14:34.574Z</time></trkpt><trkpt lat="42.9328743" lon="13.0785934"><ele>605.3333333333334</ele><time>2026-04-12T08:14:35.58Z</time></trkpt><trkpt lat="42.9329249" lon="13.0783695"><ele>606.0</ele><time>2026-04-12T08:14:36.575Z</time></trkpt><trkpt lat="42.9329756" lon="13.0781508"><ele>607.0</ele><time>2026-04-12T08:14:37.579Z</time></trkpt><trkpt lat="42.9330239" lon="13.0779426"><ele>608.0</ele><time>2026-04-12T08:14:38.579Z</time></trkpt><trkpt lat="42.9330725" lon="13.0777335"><ele>609.0</ele><time>2026-04-12T08:14:39.573Z</time></trkpt><trkpt lat="42.9331207" lon="13.0775207"><ele>611.6666666666666</ele><time>2026-04-12T08:14:40.582Z</time></trkpt><trkpt lat="42.9331691" lon="13.0773095"><ele>614.3333333333333</ele><time>2026-04-12T08:14:41.574Z</time></trkpt><trkpt lat="42.9332122" lon="13.0771018"><ele>617.0</ele><time>2026-04-12T08:14:42.577Z</time></trkpt><trkpt lat="42.9332449" lon="13.0768917"><ele>617.0</ele><time>2026-04-12T08:14:43.579Z</time></trkpt><trkpt lat="42.933272" lon="13.0766854"><ele>617.0</ele><time>2026-04-12T08:14:44.578Z</time></trkpt><trkpt lat="42.9332673" lon="13.0764645"><ele>617.0</ele><time>2026-04-12T08:14:45.584Z</time></trkpt><trkpt lat="42.9332567" lon="13.0762317"><ele>619.3333333333333</ele><time>2026-04-12T08:14:46.574Z</time></trkpt><trkpt lat="42.9332325" lon="13.075996"><ele>621.6666666666666</ele><time>2026-04-12T08:14:47.603Z</time></trkpt><trkpt lat="42.9332028" lon="13.0757467"><ele>624.0</ele><time>2026-04-12T08:14:48.573Z</time></trkpt><trkpt lat="42.9331737" lon="13.0754967"><ele>626.0</ele><time>2026-04-12T08:14:49.581Z</time></trkpt><trkpt lat="42.9331462" lon="13.0752596"><ele>628.0</ele><time>2026-04-12T08:14:50.575Z</time></trkpt><trkpt lat="42.9331204" lon="13.0750355"><ele>630.0</ele><time>2026-04-12T08:14:51.573Z</time></trkpt><trkpt lat="42.9330947" lon="13.0748186"><ele>638.6666666666666</ele><time>2026-04-12T08:14:52.575Z</time></trkpt><trkpt lat="42.9330686" lon="13.0746062"><ele>647.3333333333333</ele><time>2026-04-12T08:14:53.574Z</time></trkpt><trkpt lat="42.9330433" lon="13.074391"><ele>656.0</ele><time>2026-04-12T08:14:54.573Z</time></trkpt><trkpt lat="42.9330198" lon="13.0741714"><ele>657.0</ele><time>2026-04-12T08:14:55.58Z</time></trkpt><trkpt lat="42.9329961" lon="13.0739455"><ele>658.0</ele><time>2026-04-12T08:14:56.577Z</time></trkpt><trkpt lat="42.9329623" lon="13.0737201"><ele>659.0</ele><time>2026-04-12T08:14:57.578Z</time></trkpt><trkpt lat="42.9329033" lon="13.0735038"><ele>659.0</ele><time>2026-04-12T08:14:58.575Z</time></trkpt><trkpt lat="42.932813" lon="13.0733112"><ele>659.0</ele><time>2026-04-12T08:14:59.578Z</time></trkpt><trkpt lat="42.9326932" lon="13.073151"><ele>659.0</ele><time>2026-04-12T08:15:00.577Z</time></trkpt><trkpt lat="42.9325548" lon="13.0730272"><ele>647.3333333333333</ele><time>2026-04-12T08:15:01.577Z</time></trkpt><trkpt lat="42.9324149" lon="13.0729295"><ele>635.6666666666666</ele><time>2026-04-12T08:15:02.575Z</time></trkpt><trkpt lat="42.9322788" lon="13.072835"><ele>624.0</ele><time>2026-04-12T08:15:03.576Z</time></trkpt><trkpt lat="42.9321496" lon="13.0727344"><ele>624.0</ele><time>2026-04-12T08:15:04.575Z</time></trkpt><trkpt lat="42.9320154" lon="13.0726169"><ele>624.0</ele><time>2026-04-12T08:15:05.575Z</time></trkpt><trkpt lat="42.9318797" lon="13.0724732"><ele>624.0</ele><time>2026-04-12T08:15:06.575Z</time></trkpt><trkpt lat="42.9317461" lon="13.0723054"><ele>621.0</ele><time>2026-04-12T08:15:07.582Z</time></trkpt><trkpt lat="42.9316165" lon="13.0721237"><ele>618.0</ele><time>2026-04-12T08:15:08.577Z</time></trkpt><trkpt lat="42.9314847" lon="13.0719375"><ele>615.0</ele><time>2026-04-12T08:15:09.574Z</time></trkpt><trkpt lat="42.931353" lon="13.0717552"><ele>621.0</ele><time>2026-04-12T08:15:10.578Z</time></trkpt><trkpt lat="42.9312269" lon="13.0715803"><ele>627.0</ele><time>2026-04-12T08:15:11.574Z</time></trkpt><trkpt lat="42.9311069" lon="13.0714126"><ele>633.0</ele><time>2026-04-12T08:15:12.573Z</time></trkpt><trkpt lat="42.9309941" lon="13.071245"><ele>633.0</ele><time>2026-04-12T08:15:13.575Z</time></trkpt><trkpt lat="42.9308922" lon="13.0710639"><ele>633.0</ele><time>2026-04-12T08:15:14.575Z</time></trkpt><trkpt lat="42.9308085" lon="13.0708653"><ele>633.0</ele><time>2026-04-12T08:15:15.577Z</time></trkpt><trkpt lat="42.9307418" lon="13.0706549"><ele>630.6666666666666</ele><time>2026-04-12T08:15:16.576Z</time></trkpt><trkpt lat="42.9306783" lon="13.0704427"><ele>628.3333333333333</ele><time>2026-04-12T08:15:17.576Z</time></trkpt><trkpt lat="42.930608" lon="13.0702348"><ele>626.0</ele><time>2026-04-12T08:15:18.574Z</time></trkpt><trkpt lat="42.9305134" lon="13.0700453"><ele>649.0</ele><time>2026-04-12T08:15:19.579Z</time></trkpt><trkpt lat="42.9303832" lon="13.0698947"><ele>672.0</ele><time>2026-04-12T08:15:20.577Z</time></trkpt><trkpt lat="42.9302344" lon="13.0697824"><ele>695.0</ele><time>2026-04-12T08:15:21.574Z</time></trkpt><trkpt lat="42.9300872" lon="13.0696832"><ele>670.3333333333333</ele><time>2026-04-12T08:15:22.572Z</time></trkpt><trkpt lat="42.9299451" lon="13.0695838"><ele>645.6666666666666</ele><time>2026-04-12T08:15:23.578Z</time></trkpt><trkpt lat="42.9298063" lon="13.069466"><ele>621.0</ele><time>2026-04-12T08:15:24.574Z</time></trkpt><trkpt lat="42.9296732" lon="13.0693098"><ele>621.0</ele><time>2026-04-12T08:15:25.573Z</time></trkpt><trkpt lat="42.9295369" lon="13.0691115"><ele>621.0</ele><time>2026-04-12T08:15:26.572Z</time></trkpt><trkpt lat="42.9293868" lon="13.0688844"><ele>621.0</ele><time>2026-04-12T08:15:27.577Z</time></trkpt><trkpt lat="42.9292203" lon="13.0686417"><ele>615.0</ele><time>2026-04-12T08:15:28.582Z</time></trkpt><trkpt lat="42.9290475" lon="13.0683829"><ele>609.0</ele><time>2026-04-12T08:15:29.575Z</time></trkpt><trkpt lat="42.9288787" lon="13.0681079"><ele>622.0</ele><time>2026-04-12T08:15:30.597Z</time></trkpt><trkpt lat="42.9287268" lon="13.067835"><ele>635.0</ele><time>2026-04-12T08:15:31.575Z</time></trkpt><trkpt lat="42.9285882" lon="13.0675695"><ele>643.3333333333333</ele><time>2026-04-12T08:15:32.574Z</time></trkpt><trkpt lat="42.9284605" lon="13.0673123"><ele>651.6666666666666</ele><time>2026-04-12T08:15:33.58Z</time></trkpt><trkpt lat="42.9283392" lon="13.0670648"><ele>660.0</ele><time>2026-04-12T08:15:34.574Z</time></trkpt><trkpt lat="42.9282088" lon="13.066841"><ele>642.3333333333334</ele><time>2026-04-12T08:15:35.575Z</time></trkpt><trkpt lat="42.9280498" lon="13.0666546"><ele>624.6666666666667</ele><time>2026-04-12T08:15:36.572Z</time></trkpt><trkpt lat="42.927883" lon="13.0664872"><ele>607.0</ele><time>2026-04-12T08:15:37.574Z</time></trkpt><trkpt lat="42.9277234" lon="13.0663239"><ele>601.6666666666667</ele><time>2026-04-12T08:15:38.577Z</time></trkpt><trkpt lat="42.9276243" lon="13.0661062"><ele>596.3333333333334</ele><time>2026-04-12T08:15:39.574Z</time></trkpt><trkpt lat="42.9275599" lon="13.0658562"><ele>591.0</ele><time>2026-04-12T08:15:40.573Z</time></trkpt><trkpt lat="42.9275336" lon="13.0655789"><ele>591.0</ele><time>2026-04-12T08:15:41.579Z</time></trkpt><trkpt lat="42.9275374" lon="13.0652968"><ele>591.0</ele><time>2026-04-12T08:15:42.575Z</time></trkpt><trkpt lat="42.9275348" lon="13.0650231"><ele>591.0</ele><time>2026-04-12T08:15:43.575Z</time></trkpt><trkpt lat="42.9275109" lon="13.064739"><ele>591.0</ele><time>2026-04-12T08:15:44.592Z</time></trkpt><trkpt lat="42.9274553" lon="13.0644492"><ele>591.0</ele><time>2026-04-12T08:15:45.572Z</time></trkpt><trkpt lat="42.9273777" lon="13.064159"><ele>591.0</ele><time>2026-04-12T08:15:46.574Z</time></trkpt><trkpt lat="42.9272996" lon="13.0638757"><ele>591.0</ele><time>2026-04-12T08:15:47.578Z</time></trkpt><trkpt lat="42.9271965" lon="13.0635931"><ele>591.0</ele><time>2026-04-12T08:15:48.576Z</time></trkpt><trkpt lat="42.9271083" lon="13.0633034"><ele>591.0</ele><time>2026-04-12T08:15:49.57Z</time></trkpt><trkpt lat="42.9270363" lon="13.0629907"><ele>591.0</ele><time>2026-04-12T08:15:50.58Z</time></trkpt><trkpt lat="42.9269575" lon="13.062695"><ele>625.0</ele><time>2026-04-12T08:15:51.573Z</time></trkpt><trkpt lat="42.9268673" lon="13.0624043"><ele>659.0</ele><time>2026-04-12T08:15:52.569Z</time></trkpt><trkpt lat="42.9267768" lon="13.0621132"><ele>645.0</ele><time>2026-04-12T08:15:53.573Z</time></trkpt><trkpt lat="42.9266983" lon="13.061848"><ele>631.0</ele><time>2026-04-12T08:15:54.569Z</time></trkpt><trkpt lat="42.9265817" lon="13.0615533"><ele>631.0</ele><time>2026-04-12T08:15:55.572Z</time></trkpt><trkpt lat="42.9264464" lon="13.0612818"><ele>631.0</ele><time>2026-04-12T08:15:56.58Z</time></trkpt><trkpt lat="42.926285" lon="13.061031"><ele>631.0</ele><time>2026-04-12T08:15:57.576Z</time></trkpt><trkpt lat="42.9262074" lon="13.0607838"><ele>631.0</ele><time>2026-04-12T08:15:58.59Z</time></trkpt><trkpt lat="42.9260972" lon="13.0607656"><ele>631.0</ele><time>2026-04-12T08:15:59.564Z</time></trkpt><trkpt lat="42.9259465" lon="13.0607019"><ele>610.0</ele><time>2026-04-12T08:16:00.575Z</time></trkpt><trkpt lat="42.9258019" lon="13.0605533"><ele>589.0</ele><time>2026-04-12T08:16:01.582Z</time></trkpt><trkpt lat="42.9256707" lon="13.0604073"><ele>568.0</ele><time>2026-04-12T08:16:02.572Z</time></trkpt><trkpt lat="42.9255167" lon="13.0602551"><ele>568.0</ele><time>2026-04-12T08:16:03.579Z</time></trkpt><trkpt lat="42.9253418" lon="13.0601083"><ele>568.0</ele><time>2026-04-12T08:16:04.57Z</time></trkpt><trkpt lat="42.9251587" lon="13.0599653"><ele>568.0</ele><time>2026-04-12T08:16:05.575Z</time></trkpt><trkpt lat="42.9249566" lon="13.0598449"><ele>570.6666666666667</ele><time>2026-04-12T08:16:06.576Z</time></trkpt><trkpt lat="42.9247589" lon="13.059751"><ele>573.3333333333334</ele><time>2026-04-12T08:16:07.575Z</time></trkpt><trkpt lat="42.9245616" lon="13.0596686"><ele>576.0</ele><time>2026-04-12T08:16:08.605Z</time></trkpt><trkpt lat="42.924362" lon="13.0595802"><ele>565.0</ele><time>2026-04-12T08:16:09.574Z</time></trkpt><trkpt lat="42.9241657" lon="13.0594468"><ele>554.0</ele><time>2026-04-12T08:16:10.574Z</time></trkpt><trkpt lat="42.9239669" lon="13.0592863"><ele>554.0</ele><time>2026-04-12T08:16:11.57Z</time></trkpt><trkpt lat="42.9237654" lon="13.059121"><ele>554.0</ele><time>2026-04-12T08:16:12.576Z</time></trkpt><trkpt lat="42.9235553" lon="13.0589494"><ele>551.0</ele><time>2026-04-12T08:16:13.594Z</time></trkpt><trkpt lat="42.9233467" lon="13.058779"><ele>548.0</ele><time>2026-04-12T08:16:14.574Z</time></trkpt><trkpt lat="42.9231543" lon="13.0586059"><ele>548.0</ele><time>2026-04-12T08:16:15.574Z</time></trkpt><trkpt lat="42.9229919" lon="13.0584041"><ele>548.0</ele><time>2026-04-12T08:16:16.575Z</time></trkpt><trkpt lat="42.9228646" lon="13.0581524"><ele>548.0</ele><time>2026-04-12T08:16:17.572Z</time></trkpt><trkpt lat="42.9227605" lon="13.0578749"><ele>544.5</ele><time>2026-04-12T08:16:18.609Z</time></trkpt><trkpt lat="42.9226449" lon="13.0575997"><ele>541.0</ele><time>2026-04-12T08:16:19.574Z</time></trkpt><trkpt lat="42.9225031" lon="13.0573344"><ele>541.0</ele><time>2026-04-12T08:16:20.574Z</time></trkpt><trkpt lat="42.9223457" lon="13.0570868"><ele>541.0</ele><time>2026-04-12T08:16:21.575Z</time></trkpt><trkpt lat="42.9221733" lon="13.0568828"><ele>541.0</ele><time>2026-04-12T08:16:22.577Z</time></trkpt><trkpt lat="42.9220018" lon="13.0566899"><ele>541.0</ele><time>2026-04-12T08:16:23.574Z</time></trkpt><trkpt lat="42.9218332" lon="13.0565168"><ele>541.0</ele><time>2026-04-12T08:16:24.587Z</time></trkpt><trkpt lat="42.9216426" lon="13.0564238"><ele>544.5</ele><time>2026-04-12T08:16:25.572Z</time></trkpt><trkpt lat="42.9213866" lon="13.0563277"><ele>548.0</ele><time>2026-04-12T08:16:26.577Z</time></trkpt><trkpt lat="42.9211274" lon="13.056273"><ele>546.0</ele><time>2026-04-12T08:16:27.573Z</time></trkpt><trkpt lat="42.9208407" lon="13.056208"><ele>544.0</ele><time>2026-04-12T08:16:28.574Z</time></trkpt><trkpt lat="42.9206358" lon="13.0560535"><ele>544.0</ele><time>2026-04-12T08:16:29.576Z</time></trkpt><trkpt lat="42.9204471" lon="13.0558208"><ele>544.0</ele><time>2026-04-12T08:16:30.575Z</time></trkpt><trkpt lat="42.9202875" lon="13.0555431"><ele>546.0</ele><time>2026-04-12T08:16:31.576Z</time></trkpt><trkpt lat="42.9201185" lon="13.0552598"><ele>548.0</ele><time>2026-04-12T08:16:32.574Z</time></trkpt><trkpt lat="42.9199515" lon="13.0549795"><ele>559.5</ele><time>2026-04-12T08:16:33.577Z</time></trkpt><trkpt lat="42.9197945" lon="13.054705"><ele>571.0</ele><time>2026-04-12T08:16:34.577Z</time></trkpt><trkpt lat="42.9196613" lon="13.0544217"><ele>571.0</ele><time>2026-04-12T08:16:35.573Z</time></trkpt><trkpt lat="42.9195595" lon="13.0541349"><ele>571.0</ele><time>2026-04-12T08:16:36.57Z</time></trkpt><trkpt lat="42.9194799" lon="13.0538508"><ele>576.3333333333334</ele><time>2026-04-12T08:16:37.574Z</time></trkpt><trkpt lat="42.9194211" lon="13.0535558"><ele>581.6666666666666</ele><time>2026-04-12T08:16:38.57Z</time></trkpt><trkpt lat="42.9193835" lon="13.0532614"><ele>587.0</ele><time>2026-04-12T08:16:39.57Z</time></trkpt><trkpt lat="42.9193536" lon="13.0529904"><ele>595.3333333333333</ele><time>2026-04-12T08:16:40.574Z</time></trkpt><trkpt lat="42.9193373" lon="13.0527536"><ele>603.6666666666666</ele><time>2026-04-12T08:16:41.572Z</time></trkpt><trkpt lat="42.9193066" lon="13.0525491"><ele>612.0</ele><time>2026-04-12T08:16:42.578Z</time></trkpt><trkpt lat="42.9192748" lon="13.052343"><ele>598.3333333333334</ele><time>2026-04-12T08:16:43.572Z</time></trkpt><trkpt lat="42.9191778" lon="13.0521328"><ele>584.6666666666667</ele><time>2026-04-12T08:16:44.573Z</time></trkpt><trkpt lat="42.9190268" lon="13.0519608"><ele>571.0</ele><time>2026-04-12T08:16:45.572Z</time></trkpt><trkpt lat="42.9188744" lon="13.0517465"><ele>576.0</ele><time>2026-04-12T08:16:46.57Z</time></trkpt><trkpt lat="42.9187003" lon="13.0515638"><ele>581.0</ele><time>2026-04-12T08:16:47.576Z</time></trkpt><trkpt lat="42.9184695" lon="13.0514221"><ele>560.0</ele><time>2026-04-12T08:16:48.572Z</time></trkpt><trkpt lat="42.918254" lon="13.0512948"><ele>539.0</ele><time>2026-04-12T08:16:49.575Z</time></trkpt><trkpt lat="42.9180638" lon="13.0511283"><ele>539.0</ele><time>2026-04-12T08:16:50.573Z</time></trkpt><trkpt lat="42.9179269" lon="13.0509132"><ele>539.0</ele><time>2026-04-12T08:16:51.577Z</time></trkpt><trkpt lat="42.9178395" lon="13.0506493"><ele>539.0</ele><time>2026-04-12T08:16:52.575Z</time></trkpt><trkpt lat="42.9178154" lon="13.0503685"><ele>540.6666666666666</ele><time>2026-04-12T08:16:53.568Z</time></trkpt><trkpt lat="42.9177982" lon="13.0501058"><ele>542.3333333333334</ele><time>2026-04-12T08:16:54.574Z</time></trkpt><trkpt lat="42.9177491" lon="13.0498739"><ele>544.0</ele><time>2026-04-12T08:16:55.57Z</time></trkpt><trkpt lat="42.9176583" lon="13.0496611"><ele>541.0</ele><time>2026-04-12T08:16:56.573Z</time></trkpt><trkpt lat="42.9175182" lon="13.049456"><ele>538.0</ele><time>2026-04-12T08:16:57.57Z</time></trkpt><trkpt lat="42.9173713" lon="13.0492213"><ele>535.0</ele><time>2026-04-12T08:16:58.576Z</time></trkpt><trkpt lat="42.9172424" lon="13.0489493"><ele>534.0</ele><time>2026-04-12T08:16:59.571Z</time></trkpt><trkpt lat="42.9171133" lon="13.0486769"><ele>533.0</ele><time>2026-04-12T08:17:00.573Z</time></trkpt><trkpt lat="42.9170161" lon="13.0484015"><ele>531.6666666666666</ele><time>2026-04-12T08:17:01.574Z</time></trkpt><trkpt lat="42.9169014" lon="13.0481485"><ele>530.3333333333334</ele><time>2026-04-12T08:17:02.573Z</time></trkpt><trkpt lat="42.9167522" lon="13.047916"><ele>529.0</ele><time>2026-04-12T08:17:03.57Z</time></trkpt><trkpt lat="42.9165861" lon="13.0477348"><ele>529.0</ele><time>2026-04-12T08:17:04.575Z</time></trkpt><trkpt lat="42.9164344" lon="13.0475568"><ele>529.0</ele><time>2026-04-12T08:17:05.59Z</time></trkpt><trkpt lat="42.9162894" lon="13.0473778"><ele>529.0</ele><time>2026-04-12T08:17:06.571Z</time></trkpt><trkpt lat="42.9161697" lon="13.047144"><ele>532.6666666666667</ele><time>2026-04-12T08:17:07.572Z</time></trkpt><trkpt lat="42.9160864" lon="13.0468674"><ele>536.3333333333334</ele><time>2026-04-12T08:17:08.572Z</time></trkpt><trkpt lat="42.9160289" lon="13.0465769"><ele>540.0</ele><time>2026-04-12T08:17:09.57Z</time></trkpt><trkpt lat="42.9159729" lon="13.0462934"><ele>536.6666666666666</ele><time>2026-04-12T08:17:10.573Z</time></trkpt><trkpt lat="42.9159225" lon="13.0460105"><ele>533.3333333333333</ele><time>2026-04-12T08:17:11.571Z</time></trkpt><trkpt lat="42.9158677" lon="13.0457436"><ele>530.0</ele><time>2026-04-12T08:17:12.57Z</time></trkpt><trkpt lat="42.915804" lon="13.0454804"><ele>530.0</ele><time>2026-04-12T08:17:13.573Z</time></trkpt><trkpt lat="42.915703" lon="13.0452231"><ele>530.0</ele><time>2026-04-12T08:17:14.569Z</time></trkpt><trkpt lat="42.9155599" lon="13.0449772"><ele>530.0</ele><time>2026-04-12T08:17:15.573Z</time></trkpt><trkpt lat="42.915395" lon="13.0447266"><ele>525.0</ele><time>2026-04-12T08:17:16.571Z</time></trkpt><trkpt lat="42.9152272" lon="13.0444597"><ele>520.0</ele><time>2026-04-12T08:17:17.573Z</time></trkpt><trkpt lat="42.9150532" lon="13.0441846"><ele>522.5</ele><time>2026-04-12T08:17:18.573Z</time></trkpt><trkpt lat="42.9148781" lon="13.0439055"><ele>525.0</ele><time>2026-04-12T08:17:19.566Z</time></trkpt><trkpt lat="42.9146984" lon="13.0436262"><ele>525.0</ele><time>2026-04-12T08:17:20.591Z</time></trkpt><trkpt lat="42.9145229" lon="13.0433543"><ele>525.0</ele><time>2026-04-12T08:17:21.581Z</time></trkpt><trkpt lat="42.9143579" lon="13.0430941"><ele>522.0</ele><time>2026-04-12T08:17:22.57Z</time></trkpt><trkpt lat="42.9141977" lon="13.042846"><ele>519.0</ele><time>2026-04-12T08:17:23.574Z</time></trkpt><trkpt lat="42.9140483" lon="13.0426111"><ele>522.0</ele><time>2026-04-12T08:17:24.572Z</time></trkpt><trkpt lat="42.9139038" lon="13.0423988"><ele>525.0</ele><time>2026-04-12T08:17:25.585Z</time></trkpt><trkpt lat="42.9137462" lon="13.0422267"><ele>528.0</ele><time>2026-04-12T08:17:26.571Z</time></trkpt><trkpt lat="42.9135522" lon="13.0421095"><ele>524.0</ele><time>2026-04-12T08:17:27.571Z</time></trkpt><trkpt lat="42.9133291" lon="13.0420697"><ele>520.0</ele><time>2026-04-12T08:17:28.572Z</time></trkpt><trkpt lat="42.9130891" lon="13.0420813"><ele>520.0</ele><time>2026-04-12T08:17:29.571Z</time></trkpt><trkpt lat="42.9128547" lon="13.0420931"><ele>520.0</ele><time>2026-04-12T08:17:30.573Z</time></trkpt><trkpt lat="42.9126224" lon="13.0420728"><ele>518.0</ele><time>2026-04-12T08:17:31.572Z</time></trkpt><trkpt lat="42.9124016" lon="13.0420286"><ele>516.0</ele><time>2026-04-12T08:17:32.569Z</time></trkpt><trkpt lat="42.912186" lon="13.0419573"><ele>514.0</ele><time>2026-04-12T08:17:33.571Z</time></trkpt><trkpt lat="42.9119689" lon="13.0418511"><ele>514.0</ele><time>2026-04-12T08:17:34.573Z</time></trkpt><trkpt lat="42.9117465" lon="13.0417312"><ele>514.0</ele><time>2026-04-12T08:17:35.571Z</time></trkpt><trkpt lat="42.9115166" lon="13.0416018"><ele>519.5</ele><time>2026-04-12T08:17:36.57Z</time></trkpt><trkpt lat="42.9112824" lon="13.0414587"><ele>525.0</ele><time>2026-04-12T08:17:37.572Z</time></trkpt><trkpt lat="42.911055" lon="13.0412842"><ele>518.5</ele><time>2026-04-12T08:17:38.57Z</time></trkpt><trkpt lat="42.9108431" lon="13.041083"><ele>512.0</ele><time>2026-04-12T08:17:39.58Z</time></trkpt><trkpt lat="42.9106526" lon="13.0408768"><ele>517.0</ele><time>2026-04-12T08:17:40.572Z</time></trkpt><trkpt lat="42.9104696" lon="13.0406624"><ele>522.0</ele><time>2026-04-12T08:17:41.574Z</time></trkpt><trkpt lat="42.9102934" lon="13.0404294"><ele>522.0</ele><time>2026-04-12T08:17:42.569Z</time></trkpt><trkpt lat="42.9101252" lon="13.0401728"><ele>522.0</ele><time>2026-04-12T08:17:43.57Z</time></trkpt><trkpt lat="42.9099594" lon="13.0399022"><ele>521.5</ele><time>2026-04-12T08:17:44.573Z</time></trkpt><trkpt lat="42.9097916" lon="13.0396257"><ele>521.0</ele><time>2026-04-12T08:17:45.573Z</time></trkpt><trkpt lat="42.9096198" lon="13.0393451"><ele>538.5</ele><time>2026-04-12T08:17:46.572Z</time></trkpt><trkpt lat="42.9094475" lon="13.0390598"><ele>556.0</ele><time>2026-04-12T08:17:47.57Z</time></trkpt><trkpt lat="42.9092822" lon="13.0387871"><ele>556.5</ele><time>2026-04-12T08:17:48.622Z</time></trkpt><trkpt lat="42.9091269" lon="13.0385301"><ele>557.0</ele><time>2026-04-12T08:17:49.572Z</time></trkpt><trkpt lat="42.9089792" lon="13.0382878"><ele>557.0</ele><time>2026-04-12T08:17:50.572Z</time></trkpt><trkpt lat="42.9088369" lon="13.0380588"><ele>557.0</ele><time>2026-04-12T08:17:51.573Z</time></trkpt><trkpt lat="42.9086937" lon="13.0378476"><ele>557.0</ele><time>2026-04-12T08:17:52.57Z</time></trkpt><trkpt lat="42.9085522" lon="13.0376525"><ele>557.0</ele><time>2026-04-12T08:17:53.575Z</time></trkpt><trkpt lat="42.9084233" lon="13.0374717"><ele>557.0</ele><time>2026-04-12T08:17:54.571Z</time></trkpt><trkpt lat="42.9083153" lon="13.0372925"><ele>557.0</ele><time>2026-04-12T08:17:55.593Z</time></trkpt><trkpt lat="42.9082491" lon="13.0370838"><ele>542.6666666666666</ele><time>2026-04-12T08:17:56.571Z</time></trkpt><trkpt lat="42.9081945" lon="13.0368689"><ele>528.3333333333334</ele><time>2026-04-12T08:17:57.571Z</time></trkpt><trkpt lat="42.9082191" lon="13.0365986"><ele>514.0</ele><time>2026-04-12T08:17:58.572Z</time></trkpt><trkpt lat="42.9082477" lon="13.0363321"><ele>510.33333333333337</ele><time>2026-04-12T08:17:59.571Z</time></trkpt><trkpt lat="42.9082834" lon="13.0360648"><ele>506.66666666666663</ele><time>2026-04-12T08:18:00.576Z</time></trkpt><trkpt lat="42.9083592" lon="13.0358069"><ele>503.0</ele><time>2026-04-12T08:18:01.57Z</time></trkpt><trkpt lat="42.9084855" lon="13.0356013"><ele>511.0</ele><time>2026-04-12T08:18:02.572Z</time></trkpt><trkpt lat="42.9085802" lon="13.0353888"><ele>519.0</ele><time>2026-04-12T08:18:03.573Z</time></trkpt><trkpt lat="42.9086225" lon="13.0351281"><ele>527.0</ele><time>2026-04-12T08:18:04.572Z</time></trkpt><trkpt lat="42.9086166" lon="13.0348441"><ele>530.3333333333333</ele><time>2026-04-12T08:18:05.573Z</time></trkpt><trkpt lat="42.9085781" lon="13.0345453"><ele>533.6666666666666</ele><time>2026-04-12T08:18:06.572Z</time></trkpt><trkpt lat="42.9085378" lon="13.0342413"><ele>537.0</ele><time>2026-04-12T08:18:07.57Z</time></trkpt><trkpt lat="42.9084902" lon="13.0339575"><ele>531.6666666666666</ele><time>2026-04-12T08:18:08.574Z</time></trkpt><trkpt lat="42.9083904" lon="13.0337009"><ele>526.3333333333333</ele><time>2026-04-12T08:18:09.572Z</time></trkpt><trkpt lat="42.9082426" lon="13.0334884"><ele>521.0</ele><time>2026-04-12T08:18:10.575Z</time></trkpt><trkpt lat="42.9080578" lon="13.0333289"><ele>516.3333333333333</ele><time>2026-04-12T08:18:11.573Z</time></trkpt><trkpt lat="42.9078672" lon="13.0332226"><ele>511.66666666666663</ele><time>2026-04-12T08:18:12.576Z</time></trkpt><trkpt lat="42.9076927" lon="13.0331442"><ele>507.0</ele><time>2026-04-12T08:18:13.57Z</time></trkpt><trkpt lat="42.9075363" lon="13.0330692"><ele>507.0</ele><time>2026-04-12T08:18:14.573Z</time></trkpt><trkpt lat="42.9074042" lon="13.0329575"><ele>507.0</ele><time>2026-04-12T08:18:15.569Z</time></trkpt><trkpt lat="42.9073021" lon="13.0327844"><ele>507.0</ele><time>2026-04-12T08:18:16.57Z</time></trkpt><trkpt lat="42.9072421" lon="13.0325593"><ele>508.33333333333337</ele><time>2026-04-12T08:18:17.57Z</time></trkpt><trkpt lat="42.9072292" lon="13.0323091"><ele>509.6666666666667</ele><time>2026-04-12T08:18:18.575Z</time></trkpt><trkpt lat="42.9072331" lon="13.032063"><ele>511.0</ele><time>2026-04-12T08:18:19.576Z</time></trkpt><trkpt lat="42.9072321" lon="13.0318194"><ele>511.6666666666667</ele><time>2026-04-12T08:18:20.573Z</time></trkpt><trkpt lat="42.9072296" lon="13.0315781"><ele>512.3333333333334</ele><time>2026-04-12T08:18:21.585Z</time></trkpt><trkpt lat="42.9072297" lon="13.0313415"><ele>513.0</ele><time>2026-04-12T08:18:22.578Z</time></trkpt><trkpt lat="42.9072274" lon="13.0311092"><ele>513.0</ele><time>2026-04-12T08:18:23.574Z</time></trkpt><trkpt lat="42.9072198" lon="13.0308887"><ele>513.0</ele><time>2026-04-12T08:18:24.575Z</time></trkpt><trkpt lat="42.9071965" lon="13.0306772"><ele>513.0</ele><time>2026-04-12T08:18:25.575Z</time></trkpt><trkpt lat="42.9071523" lon="13.0304687"><ele>510.66666666666663</ele><time>2026-04-12T08:18:26.577Z</time></trkpt><trkpt lat="42.9070784" lon="13.0302642"><ele>508.3333333333333</ele><time>2026-04-12T08:18:27.575Z</time></trkpt><trkpt lat="42.9069814" lon="13.030062"><ele>506.0</ele><time>2026-04-12T08:18:28.579Z</time></trkpt><trkpt lat="42.9068721" lon="13.029856"><ele>505.66666666666663</ele><time>2026-04-12T08:18:29.581Z</time></trkpt><trkpt lat="42.9067499" lon="13.0296404"><ele>505.33333333333337</ele><time>2026-04-12T08:18:30.574Z</time></trkpt><trkpt lat="42.906616" lon="13.0294205"><ele>505.0</ele><time>2026-04-12T08:18:31.576Z</time></trkpt><trkpt lat="42.9064838" lon="13.0292169"><ele>508.6666666666667</ele><time>2026-04-12T08:18:32.576Z</time></trkpt><trkpt lat="42.9063467" lon="13.0290418"><ele>512.3333333333334</ele><time>2026-04-12T08:18:33.578Z</time></trkpt><trkpt lat="42.9061939" lon="13.0289048"><ele>516.0</ele><time>2026-04-12T08:18:34.574Z</time></trkpt><trkpt lat="42.9060189" lon="13.0288051"><ele>515.0</ele><time>2026-04-12T08:18:35.57Z</time></trkpt><trkpt lat="42.9058168" lon="13.0287385"><ele>514.0</ele><time>2026-04-12T08:18:36.569Z</time></trkpt><trkpt lat="42.9055888" lon="13.028702"><ele>513.0</ele><time>2026-04-12T08:18:37.572Z</time></trkpt><trkpt lat="42.9053494" lon="13.0286747"><ele>513.0</ele><time>2026-04-12T08:18:38.575Z</time></trkpt><trkpt lat="42.9051279" lon="13.0286494"><ele>513.0</ele><time>2026-04-12T08:18:39.574Z</time></trkpt><trkpt lat="42.904931" lon="13.0286226"><ele>513.0</ele><time>2026-04-12T08:18:40.572Z</time></trkpt><trkpt lat="42.9047539" lon="13.0285647"><ele>511.0</ele><time>2026-04-12T08:18:41.566Z</time></trkpt><trkpt lat="42.9045752" lon="13.0284908"><ele>509.0</ele><time>2026-04-12T08:18:42.574Z</time></trkpt><trkpt lat="42.9044387" lon="13.0283055"><ele>507.0</ele><time>2026-04-12T08:18:43.572Z</time></trkpt><trkpt lat="42.904322" lon="13.0280672"><ele>506.5</ele><time>2026-04-12T08:18:44.575Z</time></trkpt><trkpt lat="42.9041885" lon="13.027811"><ele>506.0</ele><time>2026-04-12T08:18:45.583Z</time></trkpt><trkpt lat="42.9040328" lon="13.0275641"><ele>521.0</ele><time>2026-04-12T08:18:46.572Z</time></trkpt><trkpt lat="42.9038482" lon="13.027331"><ele>536.0</ele><time>2026-04-12T08:18:47.57Z</time></trkpt><trkpt lat="42.9036437" lon="13.0271129"><ele>536.0</ele><time>2026-04-12T08:18:48.573Z</time></trkpt><trkpt lat="42.9034451" lon="13.0269158"><ele>536.0</ele><time>2026-04-12T08:18:49.571Z</time></trkpt><trkpt lat="42.9032579" lon="13.0267295"><ele>530.6666666666666</ele><time>2026-04-12T08:18:50.589Z</time></trkpt><trkpt lat="42.9030918" lon="13.0265662"><ele>525.3333333333334</ele><time>2026-04-12T08:18:51.569Z</time></trkpt><trkpt lat="42.9029423" lon="13.0264204"><ele>520.0</ele><time>2026-04-12T08:18:52.573Z</time></trkpt><trkpt lat="42.9028069" lon="13.0262828"><ele>520.0</ele><time>2026-04-12T08:18:53.572Z</time></trkpt><trkpt lat="42.9026972" lon="13.0261179"><ele>520.0</ele><time>2026-04-12T08:18:54.571Z</time></trkpt><trkpt lat="42.9026225" lon="13.0259216"><ele>520.0</ele><time>2026-04-12T08:18:55.571Z</time></trkpt><trkpt lat="42.902565" lon="13.0257377"><ele>515.6666666666667</ele><time>2026-04-12T08:18:56.571Z</time></trkpt><trkpt lat="42.9025628" lon="13.025549"><ele>511.33333333333337</ele><time>2026-04-12T08:18:57.577Z</time></trkpt><trkpt lat="42.9026591" lon="13.0253081"><ele>507.0</ele><time>2026-04-12T08:18:58.572Z</time></trkpt><trkpt lat="42.9027722" lon="13.0250874"><ele>502.0</ele><time>2026-04-12T08:18:59.597Z</time></trkpt><trkpt lat="42.9028889" lon="13.0248518"><ele>497.0</ele><time>2026-04-12T08:19:00.573Z</time></trkpt><trkpt lat="42.9029928" lon="13.0246052"><ele>492.0</ele><time>2026-04-12T08:19:01.569Z</time></trkpt><trkpt lat="42.9030961" lon="13.0243631"><ele>488.66666666666663</ele><time>2026-04-12T08:19:02.57Z</time></trkpt><trkpt lat="42.9032028" lon="13.0241135"><ele>485.3333333333333</ele><time>2026-04-12T08:19:03.579Z</time></trkpt><trkpt lat="42.9033048" lon="13.0238546"><ele>482.0</ele><time>2026-04-12T08:19:04.571Z</time></trkpt><trkpt lat="42.9034081" lon="13.0235976"><ele>488.66666666666663</ele><time>2026-04-12T08:19:05.571Z</time></trkpt><trkpt lat="42.9035066" lon="13.0233368"><ele>495.33333333333337</ele><time>2026-04-12T08:19:06.574Z</time></trkpt><trkpt lat="42.9036058" lon="13.0230788"><ele>502.0</ele><time>2026-04-12T08:19:07.572Z</time></trkpt><trkpt lat="42.9037032" lon="13.0228123"><ele>502.0</ele><time>2026-04-12T08:19:08.573Z</time></trkpt><trkpt lat="42.9038057" lon="13.0225414"><ele>502.0</ele><time>2026-04-12T08:19:09.573Z</time></trkpt><trkpt lat="42.9039055" lon="13.0222566"><ele>501.0</ele><time>2026-04-12T08:19:10.573Z</time></trkpt><trkpt lat="42.9039797" lon="13.021951"><ele>500.0</ele><time>2026-04-12T08:19:11.573Z</time></trkpt><trkpt lat="42.9040082" lon="13.0216194"><ele>502.0</ele><time>2026-04-12T08:19:12.575Z</time></trkpt><trkpt lat="42.9039928" lon="13.0212923"><ele>504.0</ele><time>2026-04-12T08:19:13.593Z</time></trkpt><trkpt lat="42.903971" lon="13.0209718"><ele>501.5</ele><time>2026-04-12T08:19:14.574Z</time></trkpt><trkpt lat="42.9039733" lon="13.0206384"><ele>499.0</ele><time>2026-04-12T08:19:15.57Z</time></trkpt><trkpt lat="42.9040054" lon="13.0203009"><ele>498.0</ele><time>2026-04-12T08:19:16.572Z</time></trkpt><trkpt lat="42.9040415" lon="13.0199806"><ele>497.0</ele><time>2026-04-12T08:19:17.573Z</time></trkpt><trkpt lat="42.9040602" lon="13.0196634"><ele>497.0</ele><time>2026-04-12T08:19:18.574Z</time></trkpt><trkpt lat="42.9040454" lon="13.01934"><ele>497.0</ele><time>2026-04-12T08:19:19.574Z</time></trkpt><trkpt lat="42.903994" lon="13.0190184"><ele>504.5</ele><time>2026-04-12T08:19:20.574Z</time></trkpt><trkpt lat="42.9038981" lon="13.0187142"><ele>512.0</ele><time>2026-04-12T08:19:21.571Z</time></trkpt><trkpt lat="42.9037586" lon="13.0184342"><ele>510.0</ele><time>2026-04-12T08:19:22.571Z</time></trkpt><trkpt lat="42.9035793" lon="13.0181868"><ele>508.0</ele><time>2026-04-12T08:19:23.573Z</time></trkpt><trkpt lat="42.9033618" lon="13.0179753"><ele>508.0</ele><time>2026-04-12T08:19:24.578Z</time></trkpt><trkpt lat="42.9031203" lon="13.0177786"><ele>508.0</ele><time>2026-04-12T08:19:25.57Z</time></trkpt><trkpt lat="42.9028855" lon="13.0175869"><ele>511.0</ele><time>2026-04-12T08:19:26.589Z</time></trkpt><trkpt lat="42.9026714" lon="13.0174105"><ele>514.0</ele><time>2026-04-12T08:19:27.573Z</time></trkpt><trkpt lat="42.9024727" lon="13.017247"><ele>514.0</ele><time>2026-04-12T08:19:28.573Z</time></trkpt><trkpt lat="42.9022878" lon="13.0170891"><ele>514.0</ele><time>2026-04-12T08:19:29.571Z</time></trkpt><trkpt lat="42.9021103" lon="13.0169235"><ele>514.0</ele><time>2026-04-12T08:19:30.57Z</time></trkpt><trkpt lat="42.9019479" lon="13.0167395"><ele>520.3333333333334</ele><time>2026-04-12T08:19:31.57Z</time></trkpt><trkpt lat="42.9018107" lon="13.0165341"><ele>526.6666666666666</ele><time>2026-04-12T08:19:32.573Z</time></trkpt><trkpt lat="42.9017022" lon="13.0162989"><ele>533.0</ele><time>2026-04-12T08:19:33.566Z</time></trkpt><trkpt lat="42.9016191" lon="13.0160275"><ele>516.5</ele><time>2026-04-12T08:19:34.57Z</time></trkpt><trkpt lat="42.9015534" lon="13.0157283"><ele>500.0</ele><time>2026-04-12T08:19:35.572Z</time></trkpt><trkpt lat="42.9014953" lon="13.0154113"><ele>500.0</ele><time>2026-04-12T08:19:36.577Z</time></trkpt><trkpt lat="42.9014373" lon="13.0150829"><ele>500.0</ele><time>2026-04-12T08:19:37.571Z</time></trkpt><trkpt lat="42.9013749" lon="13.0147419"><ele>503.5</ele><time>2026-04-12T08:19:38.588Z</time></trkpt><trkpt lat="42.9013107" lon="13.0143907"><ele>507.0</ele><time>2026-04-12T08:19:39.573Z</time></trkpt><trkpt lat="42.9012484" lon="13.0140465"><ele>513.0</ele><time>2026-04-12T08:19:40.57Z</time></trkpt><trkpt lat="42.9011897" lon="13.0137195"><ele>519.0</ele><time>2026-04-12T08:19:41.571Z</time></trkpt><trkpt lat="42.9011338" lon="13.0134065"><ele>525.6666666666666</ele><time>2026-04-12T08:19:42.578Z</time></trkpt><trkpt lat="42.9010824" lon="13.0131128"><ele>532.3333333333333</ele><time>2026-04-12T08:19:43.577Z</time></trkpt><trkpt lat="42.9010267" lon="13.0128375"><ele>539.0</ele><time>2026-04-12T08:19:44.582Z</time></trkpt><trkpt lat="42.900955" lon="13.0125774"><ele>534.0</ele><time>2026-04-12T08:19:45.572Z</time></trkpt><trkpt lat="42.9008532" lon="13.0123295"><ele>529.0</ele><time>2026-04-12T08:19:46.576Z</time></trkpt><trkpt lat="42.9007074" lon="13.012106"><ele>524.0</ele><time>2026-04-12T08:19:47.57Z</time></trkpt><trkpt lat="42.9005222" lon="13.0119156"><ele>524.0</ele><time>2026-04-12T08:19:48.572Z</time></trkpt><trkpt lat="42.9003116" lon="13.0117456"><ele>524.0</ele><time>2026-04-12T08:19:49.569Z</time></trkpt><trkpt lat="42.9000881" lon="13.0115822"><ele>529.5</ele><time>2026-04-12T08:19:50.568Z</time></trkpt><trkpt lat="42.8998576" lon="13.0114072"><ele>535.0</ele><time>2026-04-12T08:19:51.58Z</time></trkpt><trkpt lat="42.899623" lon="13.0112334"><ele>535.0</ele><time>2026-04-12T08:19:52.574Z</time></trkpt><trkpt lat="42.8993772" lon="13.0110869"><ele>535.0</ele><time>2026-04-12T08:19:53.583Z</time></trkpt><trkpt lat="42.8991208" lon="13.0109841"><ele>515.5</ele><time>2026-04-12T08:19:54.572Z</time></trkpt><trkpt lat="42.8988722" lon="13.0109078"><ele>496.0</ele><time>2026-04-12T08:19:55.573Z</time></trkpt><trkpt lat="42.8986343" lon="13.0108411"><ele>489.0</ele><time>2026-04-12T08:19:56.583Z</time></trkpt><trkpt lat="42.8983974" lon="13.0108377"><ele>482.0</ele><time>2026-04-12T08:19:57.571Z</time></trkpt><trkpt lat="42.8981592" lon="13.0108878"><ele>482.0</ele><time>2026-04-12T08:19:58.574Z</time></trkpt><trkpt lat="42.8979303" lon="13.0109904"><ele>482.0</ele><time>2026-04-12T08:19:59.574Z</time></trkpt><trkpt lat="42.8977262" lon="13.0111155"><ele>484.66666666666663</ele><time>2026-04-12T08:20:00.578Z</time></trkpt><trkpt lat="42.8975257" lon="13.011203"><ele>487.33333333333337</ele><time>2026-04-12T08:20:01.574Z</time></trkpt><trkpt lat="42.8973251" lon="13.0112321"><ele>490.0</ele><time>2026-04-12T08:20:02.572Z</time></trkpt><trkpt lat="42.897118" lon="13.0112079"><ele>490.0</ele><time>2026-04-12T08:20:03.566Z</time></trkpt><trkpt lat="42.8969172" lon="13.0111621"><ele>490.0</ele><time>2026-04-12T08:20:04.573Z</time></trkpt><trkpt lat="42.8967254" lon="13.0110924"><ele>490.0</ele><time>2026-04-12T08:20:05.58Z</time></trkpt><trkpt lat="42.896533" lon="13.0110152"><ele>486.6666666666667</ele><time>2026-04-12T08:20:06.572Z</time></trkpt><trkpt lat="42.896345" lon="13.0108806"><ele>483.33333333333337</ele><time>2026-04-12T08:20:07.586Z</time></trkpt><trkpt lat="42.896149" lon="13.0107164"><ele>480.0</ele><time>2026-04-12T08:20:08.572Z</time></trkpt><trkpt lat="42.8959526" lon="13.0105171"><ele>475.5</ele><time>2026-04-12T08:20:09.574Z</time></trkpt><trkpt lat="42.8957542" lon="13.0103351"><ele>471.0</ele><time>2026-04-12T08:20:10.574Z</time></trkpt><trkpt lat="42.8955651" lon="13.0101652"><ele>471.0</ele><time>2026-04-12T08:20:11.577Z</time></trkpt><trkpt lat="42.8953837" lon="13.0100002"><ele>471.0</ele><time>2026-04-12T08:20:12.571Z</time></trkpt><trkpt lat="42.8952075" lon="13.0098232"><ele>471.0</ele><time>2026-04-12T08:20:13.57Z</time></trkpt><trkpt lat="42.8950394" lon="13.0096268"><ele>472.5</ele><time>2026-04-12T08:20:14.57Z</time></trkpt><trkpt lat="42.8948858" lon="13.0093958"><ele>474.0</ele><time>2026-04-12T08:20:15.573Z</time></trkpt><trkpt lat="42.8947489" lon="13.0091357"><ele>478.5</ele><time>2026-04-12T08:20:16.573Z</time></trkpt><trkpt lat="42.894621" lon="13.0088496"><ele>483.0</ele><time>2026-04-12T08:20:17.57Z</time></trkpt><trkpt lat="42.894489" lon="13.008552"><ele>482.0</ele><time>2026-04-12T08:20:18.573Z</time></trkpt><trkpt lat="42.8943542" lon="13.0082514"><ele>481.0</ele><time>2026-04-12T08:20:19.573Z</time></trkpt><trkpt lat="42.894223" lon="13.0079507"><ele>481.0</ele><time>2026-04-12T08:20:20.574Z</time></trkpt><trkpt lat="42.8940859" lon="13.0076587"><ele>481.0</ele><time>2026-04-12T08:20:21.576Z</time></trkpt><trkpt lat="42.8939317" lon="13.0073875"><ele>496.5</ele><time>2026-04-12T08:20:22.576Z</time></trkpt><trkpt lat="42.8937618" lon="13.0071368"><ele>512.0</ele><time>2026-04-12T08:20:23.571Z</time></trkpt><trkpt lat="42.8935833" lon="13.0069018"><ele>508.5</ele><time>2026-04-12T08:20:24.595Z</time></trkpt><trkpt lat="42.8934038" lon="13.0066738"><ele>505.0</ele><time>2026-04-12T08:20:25.575Z</time></trkpt><trkpt lat="42.8932264" lon="13.0064463"><ele>505.0</ele><time>2026-04-12T08:20:26.576Z</time></trkpt><trkpt lat="42.8930485" lon="13.0062179"><ele>505.0</ele><time>2026-04-12T08:20:27.574Z</time></trkpt><trkpt lat="42.8928734" lon="13.0059896"><ele>516.5</ele><time>2026-04-12T08:20:28.571Z</time></trkpt><trkpt lat="42.892708" lon="13.0057415"><ele>528.0</ele><time>2026-04-12T08:20:29.574Z</time></trkpt><trkpt lat="42.8925648" lon="13.0054565"><ele>509.5</ele><time>2026-04-12T08:20:30.57Z</time></trkpt><trkpt lat="42.8924483" lon="13.0051381"><ele>491.0</ele><time>2026-04-12T08:20:31.57Z</time></trkpt><trkpt lat="42.8923592" lon="13.0047968"><ele>491.0</ele><time>2026-04-12T08:20:32.576Z</time></trkpt><trkpt lat="42.8922944" lon="13.0044544"><ele>491.0</ele><time>2026-04-12T08:20:33.576Z</time></trkpt><trkpt lat="42.8922341" lon="13.0041112"><ele>496.0</ele><time>2026-04-12T08:20:34.57Z</time></trkpt><trkpt lat="42.8921775" lon="13.0037654"><ele>501.0</ele><time>2026-04-12T08:20:35.57Z</time></trkpt><trkpt lat="42.8921086" lon="13.0034441"><ele>507.5</ele><time>2026-04-12T08:20:36.577Z</time></trkpt><trkpt lat="42.8920201" lon="13.003131"><ele>514.0</ele><time>2026-04-12T08:20:37.573Z</time></trkpt><trkpt lat="42.8919026" lon="13.002835"><ele>498.5</ele><time>2026-04-12T08:20:38.578Z</time></trkpt><trkpt lat="42.8917561" lon="13.0025694"><ele>483.0</ele><time>2026-04-12T08:20:39.571Z</time></trkpt><trkpt lat="42.891585" lon="13.0023307"><ele>483.0</ele><time>2026-04-12T08:20:40.572Z</time></trkpt><trkpt lat="42.8913904" lon="13.0021237"><ele>483.0</ele><time>2026-04-12T08:20:41.573Z</time></trkpt><trkpt lat="42.8911798" lon="13.001924"><ele>483.0</ele><time>2026-04-12T08:20:42.578Z</time></trkpt><trkpt lat="42.8909442" lon="13.0018042"><ele>483.0</ele><time>2026-04-12T08:20:43.59Z</time></trkpt><trkpt lat="42.8907027" lon="13.0016936"><ele>482.5</ele><time>2026-04-12T08:20:44.57Z</time></trkpt><trkpt lat="42.8904838" lon="13.0015861"><ele>482.0</ele><time>2026-04-12T08:20:45.572Z</time></trkpt><trkpt lat="42.8902832" lon="13.0014662"><ele>482.0</ele><time>2026-04-12T08:20:46.571Z</time></trkpt><trkpt lat="42.8901034" lon="13.0013287"><ele>482.0</ele><time>2026-04-12T08:20:47.57Z</time></trkpt><trkpt lat="42.8899361" lon="13.0011591"><ele>482.0</ele><time>2026-04-12T08:20:48.577Z</time></trkpt><trkpt lat="42.8897844" lon="13.0009457"><ele>482.3333333333333</ele><time>2026-04-12T08:20:49.572Z</time></trkpt><trkpt lat="42.8896665" lon="13.0007008"><ele>482.66666666666663</ele><time>2026-04-12T08:20:50.574Z</time></trkpt><trkpt lat="42.8895783" lon="13.0004165"><ele>483.0</ele><time>2026-04-12T08:20:51.573Z</time></trkpt><trkpt lat="42.8895004" lon="13.000113"><ele>483.0</ele><time>2026-04-12T08:20:52.576Z</time></trkpt><trkpt lat="42.889424" lon="12.9997918"><ele>483.0</ele><time>2026-04-12T08:20:53.591Z</time></trkpt><trkpt lat="42.8893218" lon="12.9994811"><ele>477.5</ele><time>2026-04-12T08:20:54.572Z</time></trkpt><trkpt lat="42.889162" lon="12.9992142"><ele>472.0</ele><time>2026-04-12T08:20:55.57Z</time></trkpt><trkpt lat="42.8889876" lon="12.9989581"><ele>472.0</ele><time>2026-04-12T08:20:56.573Z</time></trkpt><trkpt lat="42.8887964" lon="12.9987141"><ele>472.0</ele><time>2026-04-12T08:20:57.572Z</time></trkpt><trkpt lat="42.8885872" lon="12.9984626"><ele>469.0</ele><time>2026-04-12T08:20:58.614Z</time></trkpt><trkpt lat="42.8883849" lon="12.9982093"><ele>466.0</ele><time>2026-04-12T08:20:59.575Z</time></trkpt><trkpt lat="42.8881754" lon="12.9979574"><ele>466.0</ele><time>2026-04-12T08:21:00.575Z</time></trkpt><trkpt lat="42.8879583" lon="12.9977068"><ele>466.0</ele><time>2026-04-12T08:21:01.573Z</time></trkpt><trkpt lat="42.8877237" lon="12.997479"><ele>463.5</ele><time>2026-04-12T08:21:02.573Z</time></trkpt><trkpt lat="42.8874748" lon="12.997275"><ele>461.0</ele><time>2026-04-12T08:21:03.581Z</time></trkpt><trkpt lat="42.8872154" lon="12.9970798"><ele>461.0</ele><time>2026-04-12T08:21:04.573Z</time></trkpt><trkpt lat="42.8869513" lon="12.996884"><ele>461.0</ele><time>2026-04-12T08:21:05.574Z</time></trkpt><trkpt lat="42.8866872" lon="12.9966846"><ele>462.5</ele><time>2026-04-12T08:21:06.575Z</time></trkpt><trkpt lat="42.8864202" lon="12.9964775"><ele>464.0</ele><time>2026-04-12T08:21:07.575Z</time></trkpt><trkpt lat="42.8861572" lon="12.9962591"><ele>461.0</ele><time>2026-04-12T08:21:08.574Z</time></trkpt><trkpt lat="42.8859053" lon="12.996025"><ele>458.0</ele><time>2026-04-12T08:21:09.578Z</time></trkpt><trkpt lat="42.8856692" lon="12.9957862"><ele>466.0</ele><time>2026-04-12T08:21:10.577Z</time></trkpt><trkpt lat="42.8854495" lon="12.995556"><ele>474.0</ele><time>2026-04-12T08:21:11.578Z</time></trkpt><trkpt lat="42.8852412" lon="12.9953374"><ele>469.5</ele><time>2026-04-12T08:21:12.574Z</time></trkpt><trkpt lat="42.8850305" lon="12.9951183"><ele>465.0</ele><time>2026-04-12T08:21:13.574Z</time></trkpt><trkpt lat="42.8848074" lon="12.9949122"><ele>465.0</ele><time>2026-04-12T08:21:14.573Z</time></trkpt><trkpt lat="42.884569" lon="12.9947311"><ele>465.0</ele><time>2026-04-12T08:21:15.597Z</time></trkpt><trkpt lat="42.8843256" lon="12.9945792"><ele>459.0</ele><time>2026-04-12T08:21:16.574Z</time></trkpt><trkpt lat="42.884091" lon="12.9944468"><ele>453.0</ele><time>2026-04-12T08:21:17.573Z</time></trkpt><trkpt lat="42.8838658" lon="12.9943111"><ele>461.0</ele><time>2026-04-12T08:21:18.571Z</time></trkpt><trkpt lat="42.8836534" lon="12.9941688"><ele>469.0</ele><time>2026-04-12T08:21:19.575Z</time></trkpt><trkpt lat="42.8834591" lon="12.9940173"><ele>466.33333333333337</ele><time>2026-04-12T08:21:20.576Z</time></trkpt><trkpt lat="42.8832799" lon="12.9938642"><ele>463.66666666666663</ele><time>2026-04-12T08:21:21.573Z</time></trkpt><trkpt lat="42.883097" lon="12.9937241"><ele>461.0</ele><time>2026-04-12T08:21:22.596Z</time></trkpt><trkpt lat="42.8828966" lon="12.9936092"><ele>461.0</ele><time>2026-04-12T08:21:23.573Z</time></trkpt><trkpt lat="42.8826792" lon="12.9935277"><ele>461.0</ele><time>2026-04-12T08:21:24.577Z</time></trkpt><trkpt lat="42.882455" lon="12.9934756"><ele>460.3333333333333</ele><time>2026-04-12T08:21:25.57Z</time></trkpt><trkpt lat="42.88224" lon="12.9934345"><ele>459.66666666666663</ele><time>2026-04-12T08:21:26.574Z</time></trkpt><trkpt lat="42.8820369" lon="12.9933774"><ele>459.0</ele><time>2026-04-12T08:21:27.573Z</time></trkpt><trkpt lat="42.8818364" lon="12.9932824"><ele>458.0</ele><time>2026-04-12T08:21:28.578Z</time></trkpt><trkpt lat="42.8816385" lon="12.9931378"><ele>457.0</ele><time>2026-04-12T08:21:29.578Z</time></trkpt><trkpt lat="42.8814505" lon="12.9929777"><ele>456.0</ele><time>2026-04-12T08:21:30.572Z</time></trkpt><trkpt lat="42.8812726" lon="12.9928242"><ele>456.0</ele><time>2026-04-12T08:21:31.573Z</time></trkpt><trkpt lat="42.8811041" lon="12.9926801"><ele>456.0</ele><time>2026-04-12T08:21:32.574Z</time></trkpt><trkpt lat="42.880945" lon="12.992543"><ele>456.0</ele><time>2026-04-12T08:21:33.575Z</time></trkpt><trkpt lat="42.8807935" lon="12.9924132"><ele>456.0</ele><time>2026-04-12T08:21:34.574Z</time></trkpt><trkpt lat="42.8806463" lon="12.9922878"><ele>456.0</ele><time>2026-04-12T08:21:35.573Z</time></trkpt><trkpt lat="42.8805072" lon="12.9921754"><ele>456.0</ele><time>2026-04-12T08:21:36.597Z</time></trkpt><trkpt lat="42.8803687" lon="12.9920686"><ele>456.0</ele><time>2026-04-12T08:21:37.577Z</time></trkpt><trkpt lat="42.8802234" lon="12.9919648"><ele>456.0</ele><time>2026-04-12T08:21:38.573Z</time></trkpt><trkpt lat="42.8800773" lon="12.9918631"><ele>456.0</ele><time>2026-04-12T08:21:39.573Z</time></trkpt><trkpt lat="42.8799321" lon="12.9917635"><ele>455.75</ele><time>2026-04-12T08:21:40.574Z</time></trkpt><trkpt lat="42.8797958" lon="12.9916715"><ele>455.5</ele><time>2026-04-12T08:21:41.574Z</time></trkpt><trkpt lat="42.8796637" lon="12.9915888"><ele>455.25</ele><time>2026-04-12T08:21:42.574Z</time></trkpt><trkpt lat="42.8795378" lon="12.9915166"><ele>455.0</ele><time>2026-04-12T08:21:43.575Z</time></trkpt><trkpt lat="42.879413" lon="12.9914525"><ele>455.0</ele><time>2026-04-12T08:21:44.596Z</time></trkpt><trkpt lat="42.879283" lon="12.9913937"><ele>455.0</ele><time>2026-04-12T08:21:45.572Z</time></trkpt><trkpt lat="42.8791461" lon="12.9913371"><ele>455.0</ele><time>2026-04-12T08:21:46.576Z</time></trkpt><trkpt lat="42.8790037" lon="12.9912809"><ele>455.0</ele><time>2026-04-12T08:21:47.571Z</time></trkpt><trkpt lat="42.8788581" lon="12.9912148"><ele>454.0</ele><time>2026-04-12T08:21:48.577Z</time></trkpt><trkpt lat="42.8787095" lon="12.9911325"><ele>453.0</ele><time>2026-04-12T08:21:49.572Z</time></trkpt><trkpt lat="42.8785528" lon="12.9910316"><ele>452.0</ele><time>2026-04-12T08:21:50.578Z</time></trkpt><trkpt lat="42.8783844" lon="12.9909108"><ele>453.0</ele><time>2026-04-12T08:21:51.578Z</time></trkpt><trkpt lat="42.8782072" lon="12.9907791"><ele>454.0</ele><time>2026-04-12T08:21:52.578Z</time></trkpt><trkpt lat="42.8780133" lon="12.9906514"><ele>455.0</ele><time>2026-04-12T08:21:53.58Z</time></trkpt><trkpt lat="42.8778162" lon="12.9905477"><ele>455.0</ele><time>2026-04-12T08:21:54.577Z</time></trkpt><trkpt lat="42.8776246" lon="12.9904685"><ele>455.0</ele><time>2026-04-12T08:21:55.576Z</time></trkpt><trkpt lat="42.8774357" lon="12.9904007"><ele>455.0</ele><time>2026-04-12T08:21:56.574Z</time></trkpt><trkpt lat="42.8772463" lon="12.9903358"><ele>453.66666666666663</ele><time>2026-04-12T08:21:57.573Z</time></trkpt><trkpt lat="42.8770601" lon="12.9902735"><ele>452.33333333333337</ele><time>2026-04-12T08:21:58.575Z</time></trkpt><trkpt lat="42.8768838" lon="12.9902148"><ele>451.0</ele><time>2026-04-12T08:21:59.572Z</time></trkpt><trkpt lat="42.8767165" lon="12.990159"><ele>449.33333333333337</ele><time>2026-04-12T08:22:00.572Z</time></trkpt><trkpt lat="42.8765546" lon="12.9901069"><ele>447.66666666666663</ele><time>2026-04-12T08:22:01.576Z</time></trkpt><trkpt lat="42.8763877" lon="12.990053"><ele>446.0</ele><time>2026-04-12T08:22:02.576Z</time></trkpt><trkpt lat="42.8762066" lon="12.9900034"><ele>450.66666666666663</ele><time>2026-04-12T08:22:03.575Z</time></trkpt><trkpt lat="42.8760119" lon="12.9899706"><ele>455.33333333333337</ele><time>2026-04-12T08:22:04.578Z</time></trkpt><trkpt lat="42.8758137" lon="12.9899571"><ele>460.0</ele><time>2026-04-12T08:22:05.57Z</time></trkpt><trkpt lat="42.8756205" lon="12.9899547"><ele>460.0</ele><time>2026-04-12T08:22:06.574Z</time></trkpt><trkpt lat="42.8754298" lon="12.9899508"><ele>460.0</ele><time>2026-04-12T08:22:07.574Z</time></trkpt><trkpt lat="42.8752342" lon="12.9899439"><ele>460.0</ele><time>2026-04-12T08:22:08.576Z</time></trkpt><trkpt lat="42.8750289" lon="12.9899382"><ele>458.6666666666667</ele><time>2026-04-12T08:22:09.573Z</time></trkpt><trkpt lat="42.8748118" lon="12.9899335"><ele>457.33333333333337</ele><time>2026-04-12T08:22:10.572Z</time></trkpt><trkpt lat="42.8745829" lon="12.9899264"><ele>456.0</ele><time>2026-04-12T08:22:11.586Z</time></trkpt><trkpt lat="42.8743441" lon="12.9899174"><ele>456.0</ele><time>2026-04-12T08:22:12.57Z</time></trkpt><trkpt lat="42.8740984" lon="12.9899109"><ele>456.0</ele><time>2026-04-12T08:22:13.579Z</time></trkpt><trkpt lat="42.873845" lon="12.9899063"><ele>456.0</ele><time>2026-04-12T08:22:14.573Z</time></trkpt><trkpt lat="42.8735963" lon="12.9899017"><ele>456.0</ele><time>2026-04-12T08:22:15.575Z</time></trkpt><trkpt lat="42.8733565" lon="12.9898963"><ele>457.5</ele><time>2026-04-12T08:22:16.576Z</time></trkpt><trkpt lat="42.8731172" lon="12.9898886"><ele>459.0</ele><time>2026-04-12T08:22:17.579Z</time></trkpt><trkpt lat="42.8728833" lon="12.9898807"><ele>459.0</ele><time>2026-04-12T08:22:18.577Z</time></trkpt><trkpt lat="42.8726575" lon="12.9898732"><ele>459.0</ele><time>2026-04-12T08:22:19.6Z</time></trkpt><trkpt lat="42.8724373" lon="12.9898666"><ele>459.0</ele><time>2026-04-12T08:22:20.576Z</time></trkpt><trkpt lat="42.8722203" lon="12.9898611"><ele>459.33333333333337</ele><time>2026-04-12T08:22:21.58Z</time></trkpt><trkpt lat="42.8720045" lon="12.9898559"><ele>459.6666666666667</ele><time>2026-04-12T08:22:22.576Z</time></trkpt><trkpt lat="42.8717875" lon="12.989844"><ele>460.0</ele><time>2026-04-12T08:22:23.571Z</time></trkpt><trkpt lat="42.8715729" lon="12.9898233"><ele>457.6666666666667</ele><time>2026-04-12T08:22:24.571Z</time></trkpt><trkpt lat="42.8713597" lon="12.9897763"><ele>455.33333333333337</ele><time>2026-04-12T08:22:25.569Z</time></trkpt><trkpt lat="42.8711471" lon="12.9896963"><ele>453.0</ele><time>2026-04-12T08:22:26.573Z</time></trkpt><trkpt lat="42.8709366" lon="12.989585"><ele>452.0</ele><time>2026-04-12T08:22:27.575Z</time></trkpt><trkpt lat="42.870735" lon="12.9894434"><ele>451.0</ele><time>2026-04-12T08:22:28.572Z</time></trkpt><trkpt lat="42.8705461" lon="12.9892795"><ele>451.0</ele><time>2026-04-12T08:22:29.596Z</time></trkpt><trkpt lat="42.870368" lon="12.9891132"><ele>451.0</ele><time>2026-04-12T08:22:30.577Z</time></trkpt><trkpt lat="42.8701978" lon="12.988951"><ele>451.0</ele><time>2026-04-12T08:22:31.578Z</time></trkpt><trkpt lat="42.870043" lon="12.988786"><ele>451.0</ele><time>2026-04-12T08:22:32.58Z</time></trkpt><trkpt lat="42.8699072" lon="12.9885849"><ele>451.0</ele><time>2026-04-12T08:22:33.576Z</time></trkpt><trkpt lat="42.8698033" lon="12.9883386"><ele>451.0</ele><time>2026-04-12T08:22:34.575Z</time></trkpt><trkpt lat="42.8697284" lon="12.9880628"><ele>458.0</ele><time>2026-04-12T08:22:35.57Z</time></trkpt><trkpt lat="42.8696482" lon="12.9877711"><ele>465.0</ele><time>2026-04-12T08:22:36.571Z</time></trkpt><trkpt lat="42.8695475" lon="12.9874959"><ele>478.5</ele><time>2026-04-12T08:22:37.571Z</time></trkpt><trkpt lat="42.8694398" lon="12.9872283"><ele>492.0</ele><time>2026-04-12T08:22:38.57Z</time></trkpt><trkpt lat="42.8692965" lon="12.9869804"><ele>476.0</ele><time>2026-04-12T08:22:39.57Z</time></trkpt><trkpt lat="42.8691559" lon="12.9867266"><ele>460.0</ele><time>2026-04-12T08:22:40.57Z</time></trkpt><trkpt lat="42.8690128" lon="12.9864889"><ele>460.0</ele><time>2026-04-12T08:22:41.571Z</time></trkpt><trkpt lat="42.8688781" lon="12.9862681"><ele>460.0</ele><time>2026-04-12T08:22:42.597Z</time></trkpt><trkpt lat="42.8687621" lon="12.986054"><ele>460.0</ele><time>2026-04-12T08:22:43.573Z</time></trkpt><trkpt lat="42.868665" lon="12.9858358"><ele>462.33333333333337</ele><time>2026-04-12T08:22:44.573Z</time></trkpt><trkpt lat="42.868592" lon="12.98559"><ele>464.66666666666663</ele><time>2026-04-12T08:22:45.574Z</time></trkpt><trkpt lat="42.8685442" lon="12.9853321"><ele>467.0</ele><time>2026-04-12T08:22:46.57Z</time></trkpt><trkpt lat="42.868492" lon="12.9850809"><ele>462.66666666666663</ele><time>2026-04-12T08:22:47.577Z</time></trkpt><trkpt lat="42.8684042" lon="12.9848341"><ele>458.33333333333337</ele><time>2026-04-12T08:22:48.568Z</time></trkpt><trkpt lat="42.8682714" lon="12.9846066"><ele>454.0</ele><time>2026-04-12T08:22:49.577Z</time></trkpt><trkpt lat="42.8680895" lon="12.984415"><ele>454.0</ele><time>2026-04-12T08:22:50.573Z</time></trkpt><trkpt lat="42.8678802" lon="12.9842544"><ele>454.0</ele><time>2026-04-12T08:22:51.571Z</time></trkpt><trkpt lat="42.8676713" lon="12.9841157"><ele>453.33333333333337</ele><time>2026-04-12T08:22:52.574Z</time></trkpt><trkpt lat="42.867469" lon="12.9839925"><ele>452.66666666666663</ele><time>2026-04-12T08:22:53.572Z</time></trkpt><trkpt lat="42.8672607" lon="12.9839073"><ele>452.0</ele><time>2026-04-12T08:22:54.574Z</time></trkpt><trkpt lat="42.8670361" lon="12.983876"><ele>452.0</ele><time>2026-04-12T08:22:55.57Z</time></trkpt><trkpt lat="42.8667931" lon="12.9838636"><ele>452.0</ele><time>2026-04-12T08:22:56.574Z</time></trkpt><trkpt lat="42.866531" lon="12.9838717"><ele>450.0</ele><time>2026-04-12T08:22:57.574Z</time></trkpt><trkpt lat="42.8662773" lon="12.9838726"><ele>448.0</ele><time>2026-04-12T08:22:58.572Z</time></trkpt><trkpt lat="42.8660496" lon="12.9838634"><ele>446.33333333333337</ele><time>2026-04-12T08:22:59.573Z</time></trkpt><trkpt lat="42.8658412" lon="12.9838481"><ele>444.66666666666663</ele><time>2026-04-12T08:23:00.575Z</time></trkpt><trkpt lat="42.8656482" lon="12.9838289"><ele>443.0</ele><time>2026-04-12T08:23:01.575Z</time></trkpt><trkpt lat="42.8654578" lon="12.9837829"><ele>443.0</ele><time>2026-04-12T08:23:02.572Z</time></trkpt><trkpt lat="42.8652694" lon="12.9836798"><ele>443.0</ele><time>2026-04-12T08:23:03.576Z</time></trkpt><trkpt lat="42.865079" lon="12.9835267"><ele>443.0</ele><time>2026-04-12T08:23:04.571Z</time></trkpt><trkpt lat="42.8648837" lon="12.9833563"><ele>448.5</ele><time>2026-04-12T08:23:05.574Z</time></trkpt><trkpt lat="42.8646904" lon="12.9831901"><ele>454.0</ele><time>2026-04-12T08:23:06.573Z</time></trkpt><trkpt lat="42.8644945" lon="12.9830322"><ele>454.0</ele><time>2026-04-12T08:23:07.574Z</time></trkpt><trkpt lat="42.8642907" lon="12.9828725"><ele>454.0</ele><time>2026-04-12T08:23:08.587Z</time></trkpt><trkpt lat="42.864076" lon="12.9827289"><ele>448.5</ele><time>2026-04-12T08:23:09.576Z</time></trkpt><trkpt lat="42.8638487" lon="12.9826245"><ele>443.0</ele><time>2026-04-12T08:23:10.574Z</time></trkpt><trkpt lat="42.8636096" lon="12.9825683"><ele>441.5</ele><time>2026-04-12T08:23:11.574Z</time></trkpt><trkpt lat="42.8633776" lon="12.9825462"><ele>440.0</ele><time>2026-04-12T08:23:12.571Z</time></trkpt><trkpt lat="42.863155" lon="12.9825314"><ele>442.66666666666663</ele><time>2026-04-12T08:23:13.57Z</time></trkpt><trkpt lat="42.862934" lon="12.982507"><ele>445.33333333333337</ele><time>2026-04-12T08:23:14.574Z</time></trkpt><trkpt lat="42.8627273" lon="12.982448"><ele>448.0</ele><time>2026-04-12T08:23:15.57Z</time></trkpt><trkpt lat="42.8625267" lon="12.9823337"><ele>448.0</ele><time>2026-04-12T08:23:16.573Z</time></trkpt><trkpt lat="42.8623368" lon="12.98218"><ele>448.0</ele><time>2026-04-12T08:23:17.574Z</time></trkpt><trkpt lat="42.8621603" lon="12.9820236"><ele>448.0</ele><time>2026-04-12T08:23:18.568Z</time></trkpt><trkpt lat="42.8620365" lon="12.9818015"><ele>447.0</ele><time>2026-04-12T08:23:19.576Z</time></trkpt><trkpt lat="42.861915" lon="12.9815547"><ele>446.0</ele><time>2026-04-12T08:23:20.573Z</time></trkpt><trkpt lat="42.8617937" lon="12.9812977"><ele>445.0</ele><time>2026-04-12T08:23:21.578Z</time></trkpt><trkpt lat="42.8616689" lon="12.9810421"><ele>449.0</ele><time>2026-04-12T08:23:22.581Z</time></trkpt><trkpt lat="42.8615472" lon="12.9808052"><ele>453.0</ele><time>2026-04-12T08:23:23.573Z</time></trkpt><trkpt lat="42.8614192" lon="12.9805982"><ele>457.0</ele><time>2026-04-12T08:23:24.576Z</time></trkpt><trkpt lat="42.8612985" lon="12.9803979"><ele>457.0</ele><time>2026-04-12T08:23:25.571Z</time></trkpt><trkpt lat="42.8611923" lon="12.9801995"><ele>457.0</ele><time>2026-04-12T08:23:26.571Z</time></trkpt><trkpt lat="42.8611252" lon="12.9799885"><ele>457.0</ele><time>2026-04-12T08:23:27.579Z</time></trkpt><trkpt lat="42.8611046" lon="12.9797451"><ele>464.0</ele><time>2026-04-12T08:23:28.573Z</time></trkpt><trkpt lat="42.8611201" lon="12.979473"><ele>471.0</ele><time>2026-04-12T08:23:29.577Z</time></trkpt><trkpt lat="42.8611503" lon="12.9791828"><ele>478.0</ele><time>2026-04-12T08:23:30.579Z</time></trkpt><trkpt lat="42.8611808" lon="12.9788796"><ele>480.5</ele><time>2026-04-12T08:23:31.582Z</time></trkpt><trkpt lat="42.8612088" lon="12.9785657"><ele>483.0</ele><time>2026-04-12T08:23:32.578Z</time></trkpt><trkpt lat="42.8612206" lon="12.9782647"><ele>477.33333333333337</ele><time>2026-04-12T08:23:33.574Z</time></trkpt><trkpt lat="42.861225" lon="12.9779701"><ele>471.6666666666667</ele><time>2026-04-12T08:23:34.57Z</time></trkpt><trkpt lat="42.8612468" lon="12.9776818"><ele>466.0</ele><time>2026-04-12T08:23:35.575Z</time></trkpt><trkpt lat="42.8612911" lon="12.9773962"><ele>464.6666666666667</ele><time>2026-04-12T08:23:36.574Z</time></trkpt><trkpt lat="42.8613415" lon="12.9771324"><ele>463.33333333333337</ele><time>2026-04-12T08:23:37.57Z</time></trkpt><trkpt lat="42.861383" lon="12.9768842"><ele>462.0</ele><time>2026-04-12T08:23:38.597Z</time></trkpt><trkpt lat="42.8614074" lon="12.9766448"><ele>462.0</ele><time>2026-04-12T08:23:39.573Z</time></trkpt><trkpt lat="42.861401" lon="12.9763955"><ele>462.0</ele><time>2026-04-12T08:23:40.569Z</time></trkpt><trkpt lat="42.8613484" lon="12.9761334"><ele>462.0</ele><time>2026-04-12T08:23:41.573Z</time></trkpt><trkpt lat="42.8612766" lon="12.9758581"><ele>466.66666666666663</ele><time>2026-04-12T08:23:42.575Z</time></trkpt><trkpt lat="42.8611795" lon="12.97558"><ele>471.3333333333333</ele><time>2026-04-12T08:23:43.573Z</time></trkpt><trkpt lat="42.8610842" lon="12.9753049"><ele>476.0</ele><time>2026-04-12T08:23:44.607Z</time></trkpt><trkpt lat="42.861022" lon="12.9750273"><ele>483.66666666666663</ele><time>2026-04-12T08:23:45.57Z</time></trkpt><trkpt lat="42.860954" lon="12.9747625"><ele>491.33333333333337</ele><time>2026-04-12T08:23:46.575Z</time></trkpt><trkpt lat="42.8608798" lon="12.9745268"><ele>499.0</ele><time>2026-04-12T08:23:47.569Z</time></trkpt><trkpt lat="42.8607985" lon="12.9743046"><ele>488.33333333333337</ele><time>2026-04-12T08:23:48.573Z</time></trkpt><trkpt lat="42.8606437" lon="12.9741353"><ele>477.66666666666663</ele><time>2026-04-12T08:23:49.571Z</time></trkpt><trkpt lat="42.8604452" lon="12.9739974"><ele>467.0</ele><time>2026-04-12T08:23:50.571Z</time></trkpt><trkpt lat="42.8602376" lon="12.9738847"><ele>460.66666666666663</ele><time>2026-04-12T08:23:51.571Z</time></trkpt><trkpt lat="42.8600345" lon="12.973784"><ele>454.33333333333337</ele><time>2026-04-12T08:23:52.576Z</time></trkpt><trkpt lat="42.8598266" lon="12.9737677"><ele>448.0</ele><time>2026-04-12T08:23:53.575Z</time></trkpt><trkpt lat="42.859622" lon="12.9738457"><ele>448.0</ele><time>2026-04-12T08:23:54.575Z</time></trkpt><trkpt lat="42.8594542" lon="12.9739845"><ele>448.0</ele><time>2026-04-12T08:23:55.571Z</time></trkpt><trkpt lat="42.8592842" lon="12.9741173"><ele>448.0</ele><time>2026-04-12T08:23:56.572Z</time></trkpt><trkpt lat="42.8591128" lon="12.9742308"><ele>448.0</ele><time>2026-04-12T08:23:57.57Z</time></trkpt><trkpt lat="42.8589446" lon="12.9742434"><ele>448.0</ele><time>2026-04-12T08:23:58.571Z</time></trkpt><trkpt lat="42.8587672" lon="12.974199"><ele>448.0</ele><time>2026-04-12T08:23:59.573Z</time></trkpt><trkpt lat="42.8585893" lon="12.9741476"><ele>442.6666666666667</ele><time>2026-04-12T08:24:00.577Z</time></trkpt><trkpt lat="42.8584238" lon="12.9740281"><ele>437.33333333333337</ele><time>2026-04-12T08:24:01.577Z</time></trkpt><trkpt lat="42.858241" lon="12.9738742"><ele>432.0</ele><time>2026-04-12T08:24:02.569Z</time></trkpt><trkpt lat="42.8580605" lon="12.9736932"><ele>432.0</ele><time>2026-04-12T08:24:03.586Z</time></trkpt><trkpt lat="42.8578911" lon="12.9734987"><ele>432.0</ele><time>2026-04-12T08:24:04.572Z</time></trkpt><trkpt lat="42.8577479" lon="12.9733099"><ele>432.0</ele><time>2026-04-12T08:24:05.574Z</time></trkpt><trkpt lat="42.8576097" lon="12.9731306"><ele>432.66666666666663</ele><time>2026-04-12T08:24:06.572Z</time></trkpt><trkpt lat="42.8574642" lon="12.9729601"><ele>433.3333333333333</ele><time>2026-04-12T08:24:07.575Z</time></trkpt><trkpt lat="42.857293" lon="12.9728139"><ele>434.0</ele><time>2026-04-12T08:24:08.571Z</time></trkpt><trkpt lat="42.8570943" lon="12.9726974"><ele>434.0</ele><time>2026-04-12T08:24:09.574Z</time></trkpt><trkpt lat="42.8568795" lon="12.9726057"><ele>434.0</ele><time>2026-04-12T08:24:10.572Z</time></trkpt><trkpt lat="42.8566668" lon="12.9725491"><ele>434.0</ele><time>2026-04-12T08:24:11.571Z</time></trkpt><trkpt lat="42.8564607" lon="12.9725239"><ele>439.0</ele><time>2026-04-12T08:24:12.571Z</time></trkpt><trkpt lat="42.8562735" lon="12.9724967"><ele>444.0</ele><time>2026-04-12T08:24:13.575Z</time></trkpt><trkpt lat="42.8561075" lon="12.9724215"><ele>449.0</ele><time>2026-04-12T08:24:14.574Z</time></trkpt><trkpt lat="42.8559545" lon="12.972327"><ele>450.0</ele><time>2026-04-12T08:24:15.575Z</time></trkpt><trkpt lat="42.8558525" lon="12.9721409"><ele>451.0</ele><time>2026-04-12T08:24:16.572Z</time></trkpt><trkpt lat="42.8557695" lon="12.9718772"><ele>452.0</ele><time>2026-04-12T08:24:17.576Z</time></trkpt><trkpt lat="42.8556526" lon="12.9716183"><ele>452.0</ele><time>2026-04-12T08:24:18.574Z</time></trkpt><trkpt lat="42.8555216" lon="12.9713586"><ele>452.0</ele><time>2026-04-12T08:24:19.57Z</time></trkpt><trkpt lat="42.8553961" lon="12.9711095"><ele>452.0</ele><time>2026-04-12T08:24:20.572Z</time></trkpt><trkpt lat="42.8552755" lon="12.970867"><ele>452.0</ele><time>2026-04-12T08:24:21.574Z</time></trkpt><trkpt lat="42.8551405" lon="12.9706407"><ele>452.0</ele><time>2026-04-12T08:24:22.574Z</time></trkpt><trkpt lat="42.8549891" lon="12.9704325"><ele>444.0</ele><time>2026-04-12T08:24:23.57Z</time></trkpt><trkpt lat="42.8548164" lon="12.9702357"><ele>436.0</ele><time>2026-04-12T08:24:24.571Z</time></trkpt><trkpt lat="42.8546315" lon="12.9700538"><ele>433.0</ele><time>2026-04-12T08:24:25.571Z</time></trkpt><trkpt lat="42.854446" lon="12.9698817"><ele>430.0</ele><time>2026-04-12T08:24:26.572Z</time></trkpt><trkpt lat="42.8542716" lon="12.969725"><ele>427.0</ele><time>2026-04-12T08:24:27.589Z</time></trkpt><trkpt lat="42.8540894" lon="12.9695917"><ele>427.0</ele><time>2026-04-12T08:24:28.572Z</time></trkpt><trkpt lat="42.8539003" lon="12.9695027"><ele>427.0</ele><time>2026-04-12T08:24:29.571Z</time></trkpt><trkpt lat="42.853714" lon="12.9694541"><ele>427.0</ele><time>2026-04-12T08:24:30.574Z</time></trkpt><trkpt lat="42.8535417" lon="12.9694065"><ele>426.0</ele><time>2026-04-12T08:24:31.569Z</time></trkpt><trkpt lat="42.8533888" lon="12.9693214"><ele>425.0</ele><time>2026-04-12T08:24:32.602Z</time></trkpt><trkpt lat="42.8532611" lon="12.9691798"><ele>424.0</ele><time>2026-04-12T08:24:33.573Z</time></trkpt><trkpt lat="42.8531542" lon="12.9689878"><ele>427.6666666666667</ele><time>2026-04-12T08:24:34.572Z</time></trkpt><trkpt lat="42.8530512" lon="12.9687557"><ele>431.33333333333337</ele><time>2026-04-12T08:24:35.578Z</time></trkpt><trkpt lat="42.8529302" lon="12.9685161"><ele>435.0</ele><time>2026-04-12T08:24:36.575Z</time></trkpt><trkpt lat="42.852782" lon="12.9682985"><ele>432.66666666666663</ele><time>2026-04-12T08:24:37.575Z</time></trkpt><trkpt lat="42.8526079" lon="12.9681169"><ele>430.3333333333333</ele><time>2026-04-12T08:24:38.573Z</time></trkpt><trkpt lat="42.8524161" lon="12.9679667"><ele>428.0</ele><time>2026-04-12T08:24:39.573Z</time></trkpt><trkpt lat="42.8522108" lon="12.9678459"><ele>428.0</ele><time>2026-04-12T08:24:40.576Z</time></trkpt><trkpt lat="42.8520084" lon="12.967737"><ele>428.0</ele><time>2026-04-12T08:24:41.57Z</time></trkpt><trkpt lat="42.8518169" lon="12.9676259"><ele>428.0</ele><time>2026-04-12T08:24:42.579Z</time></trkpt><trkpt lat="42.8516263" lon="12.9675153"><ele>430.0</ele><time>2026-04-12T08:24:43.578Z</time></trkpt><trkpt lat="42.8514455" lon="12.9674052"><ele>432.0</ele><time>2026-04-12T08:24:44.575Z</time></trkpt><trkpt lat="42.8512815" lon="12.9672632"><ele>434.0</ele><time>2026-04-12T08:24:45.573Z</time></trkpt><trkpt lat="42.851145" lon="12.9670602"><ele>434.0</ele><time>2026-04-12T08:24:46.575Z</time></trkpt><trkpt lat="42.8510116" lon="12.9668448"><ele>434.0</ele><time>2026-04-12T08:24:47.574Z</time></trkpt><trkpt lat="42.8509569" lon="12.9665702"><ele>434.0</ele><time>2026-04-12T08:24:48.575Z</time></trkpt><trkpt lat="42.8509388" lon="12.9662895"><ele>433.0</ele><time>2026-04-12T08:24:49.571Z</time></trkpt><trkpt lat="42.8508746" lon="12.9660411"><ele>432.0</ele><time>2026-04-12T08:24:50.569Z</time></trkpt><trkpt lat="42.8507267" lon="12.9658193"><ele>431.0</ele><time>2026-04-12T08:24:51.573Z</time></trkpt><trkpt lat="42.8505465" lon="12.965629"><ele>437.5</ele><time>2026-04-12T08:24:52.574Z</time></trkpt><trkpt lat="42.8503445" lon="12.9654422"><ele>444.0</ele><time>2026-04-12T08:24:53.572Z</time></trkpt><trkpt lat="42.8501449" lon="12.9652683"><ele>442.5</ele><time>2026-04-12T08:24:54.586Z</time></trkpt><trkpt lat="42.8499542" lon="12.9650945"><ele>441.0</ele><time>2026-04-12T08:24:55.57Z</time></trkpt><trkpt lat="42.8497666" lon="12.9648971"><ele>441.0</ele><time>2026-04-12T08:24:56.571Z</time></trkpt><trkpt lat="42.8495859" lon="12.9646781"><ele>441.0</ele><time>2026-04-12T08:24:57.573Z</time></trkpt><trkpt lat="42.849415" lon="12.9644333"><ele>435.5</ele><time>2026-04-12T08:24:58.572Z</time></trkpt><trkpt lat="42.849245" lon="12.9641786"><ele>430.0</ele><time>2026-04-12T08:24:59.57Z</time></trkpt><trkpt lat="42.8490671" lon="12.963921"><ele>430.0</ele><time>2026-04-12T08:25:00.578Z</time></trkpt><trkpt lat="42.8488918" lon="12.9636702"><ele>430.0</ele><time>2026-04-12T08:25:01.574Z</time></trkpt><trkpt lat="42.8487236" lon="12.9634346"><ele>427.5</ele><time>2026-04-12T08:25:02.576Z</time></trkpt><trkpt lat="42.8485611" lon="12.9632037"><ele>425.0</ele><time>2026-04-12T08:25:03.573Z</time></trkpt><trkpt lat="42.848403" lon="12.9629666"><ele>425.0</ele><time>2026-04-12T08:25:04.575Z</time></trkpt><trkpt lat="42.8482496" lon="12.9627204"><ele>425.0</ele><time>2026-04-12T08:25:05.569Z</time></trkpt><trkpt lat="42.8481003" lon="12.962472"><ele>432.5</ele><time>2026-04-12T08:25:06.573Z</time></trkpt><trkpt lat="42.8479532" lon="12.9622212"><ele>440.0</ele><time>2026-04-12T08:25:07.573Z</time></trkpt><trkpt lat="42.8478047" lon="12.9619684"><ele>440.0</ele><time>2026-04-12T08:25:08.571Z</time></trkpt><trkpt lat="42.8476587" lon="12.9617128"><ele>440.0</ele><time>2026-04-12T08:25:09.574Z</time></trkpt><trkpt lat="42.8475263" lon="12.961449"><ele>432.5</ele><time>2026-04-12T08:25:10.573Z</time></trkpt><trkpt lat="42.8474081" lon="12.961172"><ele>425.0</ele><time>2026-04-12T08:25:11.575Z</time></trkpt><trkpt lat="42.8472922" lon="12.960887"><ele>433.0</ele><time>2026-04-12T08:25:12.574Z</time></trkpt><trkpt lat="42.8471729" lon="12.9606003"><ele>441.0</ele><time>2026-04-12T08:25:13.596Z</time></trkpt><trkpt lat="42.8470463" lon="12.9603185"><ele>441.0</ele><time>2026-04-12T08:25:14.574Z</time></trkpt><trkpt lat="42.8469094" lon="12.9600412"><ele>441.0</ele><time>2026-04-12T08:25:15.57Z</time></trkpt><trkpt lat="42.846763" lon="12.9597755"><ele>432.5</ele><time>2026-04-12T08:25:16.572Z</time></trkpt><trkpt lat="42.8466143" lon="12.9595209"><ele>424.0</ele><time>2026-04-12T08:25:17.575Z</time></trkpt><trkpt lat="42.8464705" lon="12.95926"><ele>430.0</ele><time>2026-04-12T08:25:18.571Z</time></trkpt><trkpt lat="42.8463327" lon="12.9589981"><ele>436.0</ele><time>2026-04-12T08:25:19.576Z</time></trkpt><trkpt lat="42.8461872" lon="12.9587311"><ele>436.0</ele><time>2026-04-12T08:25:20.576Z</time></trkpt><trkpt lat="42.8460284" lon="12.9584592"><ele>436.0</ele><time>2026-04-12T08:25:21.574Z</time></trkpt><trkpt lat="42.8458524" lon="12.9581862"><ele>434.0</ele><time>2026-04-12T08:25:22.572Z</time></trkpt><trkpt lat="42.8456613" lon="12.9579086"><ele>432.0</ele><time>2026-04-12T08:25:23.574Z</time></trkpt><trkpt lat="42.8454624" lon="12.9576256"><ele>427.0</ele><time>2026-04-12T08:25:24.57Z</time></trkpt><trkpt lat="42.8452656" lon="12.957339"><ele>422.0</ele><time>2026-04-12T08:25:25.57Z</time></trkpt><trkpt lat="42.8450741" lon="12.9570545"><ele>422.0</ele><time>2026-04-12T08:25:26.575Z</time></trkpt><trkpt lat="42.844888" lon="12.9567724"><ele>422.0</ele><time>2026-04-12T08:25:27.569Z</time></trkpt><trkpt lat="42.8447039" lon="12.9564925"><ele>430.0</ele><time>2026-04-12T08:25:28.577Z</time></trkpt><trkpt lat="42.8445204" lon="12.956215"><ele>438.0</ele><time>2026-04-12T08:25:29.579Z</time></trkpt><trkpt lat="42.8443365" lon="12.9559394"><ele>433.5</ele><time>2026-04-12T08:25:30.577Z</time></trkpt><trkpt lat="42.8441574" lon="12.9556698"><ele>429.0</ele><time>2026-04-12T08:25:31.574Z</time></trkpt><trkpt lat="42.8439904" lon="12.9554146"><ele>429.0</ele><time>2026-04-12T08:25:32.569Z</time></trkpt><trkpt lat="42.8438334" lon="12.9551758"><ele>429.0</ele><time>2026-04-12T08:25:33.574Z</time></trkpt><trkpt lat="42.8436813" lon="12.9549474"><ele>425.66666666666663</ele><time>2026-04-12T08:25:34.573Z</time></trkpt><trkpt lat="42.8435308" lon="12.9547214"><ele>422.3333333333333</ele><time>2026-04-12T08:25:35.597Z</time></trkpt><trkpt lat="42.8433869" lon="12.9545029"><ele>419.0</ele><time>2026-04-12T08:25:36.572Z</time></trkpt><trkpt lat="42.8432531" lon="12.9542896"><ele>426.0</ele><time>2026-04-12T08:25:37.573Z</time></trkpt><trkpt lat="42.8431339" lon="12.954078"><ele>433.0</ele><time>2026-04-12T08:25:38.574Z</time></trkpt><trkpt lat="42.8430229" lon="12.9538586"><ele>440.0</ele><time>2026-04-12T08:25:39.572Z</time></trkpt><trkpt lat="42.8429139" lon="12.9536329"><ele>440.0</ele><time>2026-04-12T08:25:40.573Z</time></trkpt><trkpt lat="42.8427999" lon="12.9534037"><ele>440.0</ele><time>2026-04-12T08:25:41.578Z</time></trkpt><trkpt lat="42.8426813" lon="12.9531706"><ele>440.0</ele><time>2026-04-12T08:25:42.575Z</time></trkpt><trkpt lat="42.8425638" lon="12.9529416"><ele>439.0</ele><time>2026-04-12T08:25:43.571Z</time></trkpt><trkpt lat="42.8424467" lon="12.9527149"><ele>438.0</ele><time>2026-04-12T08:25:44.568Z</time></trkpt><trkpt lat="42.8423333" lon="12.9524935"><ele>437.0</ele><time>2026-04-12T08:25:45.572Z</time></trkpt><trkpt lat="42.8422208" lon="12.9522739"><ele>437.0</ele><time>2026-04-12T08:25:46.571Z</time></trkpt><trkpt lat="42.8421067" lon="12.9520659"><ele>437.0</ele><time>2026-04-12T08:25:47.571Z</time></trkpt><trkpt lat="42.8419898" lon="12.9518771"><ele>437.0</ele><time>2026-04-12T08:25:48.578Z</time></trkpt><trkpt lat="42.8418261" lon="12.9517183"><ele>431.66666666666663</ele><time>2026-04-12T08:25:49.571Z</time></trkpt><trkpt lat="42.8416599" lon="12.9515913"><ele>426.33333333333337</ele><time>2026-04-12T08:25:50.591Z</time></trkpt><trkpt lat="42.8414967" lon="12.9514774"><ele>421.0</ele><time>2026-04-12T08:25:51.575Z</time></trkpt><trkpt lat="42.8413411" lon="12.9513692"><ele>421.0</ele><time>2026-04-12T08:25:52.572Z</time></trkpt><trkpt lat="42.8411932" lon="12.9512657"><ele>421.0</ele><time>2026-04-12T08:25:53.57Z</time></trkpt><trkpt lat="42.8410542" lon="12.9511595"><ele>421.0</ele><time>2026-04-12T08:25:54.571Z</time></trkpt><trkpt lat="42.8409291" lon="12.9510385"><ele>418.0</ele><time>2026-04-12T08:25:55.571Z</time></trkpt><trkpt lat="42.8408188" lon="12.9508848"><ele>415.0</ele><time>2026-04-12T08:25:56.601Z</time></trkpt><trkpt lat="42.8407168" lon="12.9506868"><ele>412.0</ele><time>2026-04-12T08:25:57.579Z</time></trkpt><trkpt lat="42.8406177" lon="12.9504355"><ele>412.0</ele><time>2026-04-12T08:25:58.573Z</time></trkpt><trkpt lat="42.8405365" lon="12.9501526"><ele>412.0</ele><time>2026-04-12T08:25:59.572Z</time></trkpt><trkpt lat="42.8404709" lon="12.949877"><ele>412.0</ele><time>2026-04-12T08:26:00.58Z</time></trkpt><trkpt lat="42.840401" lon="12.9496328"><ele>416.33333333333337</ele><time>2026-04-12T08:26:01.574Z</time></trkpt><trkpt lat="42.8403137" lon="12.9494285"><ele>420.66666666666663</ele><time>2026-04-12T08:26:02.571Z</time></trkpt><trkpt lat="42.8402188" lon="12.9492417"><ele>425.0</ele><time>2026-04-12T08:26:03.572Z</time></trkpt><trkpt lat="42.8400437" lon="12.9491292"><ele>415.3333333333333</ele><time>2026-04-12T08:26:04.577Z</time></trkpt><trkpt lat="42.8398309" lon="12.9490558"><ele>405.66666666666663</ele><time>2026-04-12T08:26:05.573Z</time></trkpt><trkpt lat="42.8396091" lon="12.9489913"><ele>396.0</ele><time>2026-04-12T08:26:06.607Z</time></trkpt><trkpt lat="42.8393931" lon="12.9488703"><ele>404.0</ele><time>2026-04-12T08:26:07.575Z</time></trkpt><trkpt lat="42.839201" lon="12.9486859"><ele>412.0</ele><time>2026-04-12T08:26:08.583Z</time></trkpt><trkpt lat="42.8390349" lon="12.9484411"><ele>407.0</ele><time>2026-04-12T08:26:09.571Z</time></trkpt><trkpt lat="42.8388581" lon="12.9482112"><ele>402.0</ele><time>2026-04-12T08:26:10.57Z</time></trkpt><trkpt lat="42.8386714" lon="12.9479879"><ele>402.0</ele><time>2026-04-12T08:26:11.57Z</time></trkpt><trkpt lat="42.8384709" lon="12.9478069"><ele>402.0</ele><time>2026-04-12T08:26:12.572Z</time></trkpt><trkpt lat="42.8382868" lon="12.9476506"><ele>403.66666666666663</ele><time>2026-04-12T08:26:13.573Z</time></trkpt><trkpt lat="42.8381113" lon="12.9474971"><ele>405.3333333333333</ele><time>2026-04-12T08:26:14.578Z</time></trkpt><trkpt lat="42.8379354" lon="12.9473439"><ele>407.0</ele><time>2026-04-12T08:26:15.571Z</time></trkpt><trkpt lat="42.837751" lon="12.9472118"><ele>412.0</ele><time>2026-04-12T08:26:16.571Z</time></trkpt><trkpt lat="42.8375592" lon="12.9471048"><ele>417.0</ele><time>2026-04-12T08:26:17.572Z</time></trkpt><trkpt lat="42.8373665" lon="12.9470181"><ele>422.0</ele><time>2026-04-12T08:26:18.573Z</time></trkpt><trkpt lat="42.8371715" lon="12.946946"><ele>422.0</ele><time>2026-04-12T08:26:19.573Z</time></trkpt><trkpt lat="42.8369647" lon="12.9468775"><ele>422.0</ele><time>2026-04-12T08:26:20.574Z</time></trkpt><trkpt lat="42.836752" lon="12.9468053"><ele>422.0</ele><time>2026-04-12T08:26:21.575Z</time></trkpt><trkpt lat="42.836532" lon="12.9467295"><ele>422.0</ele><time>2026-04-12T08:26:22.573Z</time></trkpt><trkpt lat="42.8363107" lon="12.946655"><ele>422.0</ele><time>2026-04-12T08:26:23.577Z</time></trkpt><trkpt lat="42.8360987" lon="12.9465862"><ele>422.0</ele><time>2026-04-12T08:26:24.575Z</time></trkpt><trkpt lat="42.8358996" lon="12.9465194"><ele>422.0</ele><time>2026-04-12T08:26:25.575Z</time></trkpt><trkpt lat="42.8357092" lon="12.9464567"><ele>422.0</ele><time>2026-04-12T08:26:26.589Z</time></trkpt><trkpt lat="42.8355232" lon="12.9463956"><ele>422.0</ele><time>2026-04-12T08:26:27.578Z</time></trkpt><trkpt lat="42.8353412" lon="12.9463273"><ele>422.0</ele><time>2026-04-12T08:26:28.572Z</time></trkpt><trkpt lat="42.8351571" lon="12.9462362"><ele>422.0</ele><time>2026-04-12T08:26:29.572Z</time></trkpt><trkpt lat="42.8349631" lon="12.9461168"><ele>422.0</ele><time>2026-04-12T08:26:30.571Z</time></trkpt><trkpt lat="42.8347548" lon="12.9459762"><ele>418.0</ele><time>2026-04-12T08:26:31.578Z</time></trkpt><trkpt lat="42.8345365" lon="12.9458177"><ele>414.0</ele><time>2026-04-12T08:26:32.573Z</time></trkpt><trkpt lat="42.8343258" lon="12.9456523"><ele>420.5</ele><time>2026-04-12T08:26:33.571Z</time></trkpt><trkpt lat="42.8341285" lon="12.9454853"><ele>427.0</ele><time>2026-04-12T08:26:34.572Z</time></trkpt><trkpt lat="42.8339455" lon="12.9453111"><ele>427.0</ele><time>2026-04-12T08:26:35.573Z</time></trkpt><trkpt lat="42.8337747" lon="12.9451109"><ele>427.0</ele><time>2026-04-12T08:26:36.573Z</time></trkpt><trkpt lat="42.83362" lon="12.9448857"><ele>428.33333333333337</ele><time>2026-04-12T08:26:37.575Z</time></trkpt><trkpt lat="42.8334931" lon="12.9446696"><ele>429.66666666666663</ele><time>2026-04-12T08:26:38.572Z</time></trkpt><trkpt lat="42.8333812" lon="12.9444755"><ele>431.0</ele><time>2026-04-12T08:26:39.574Z</time></trkpt><trkpt lat="42.8332521" lon="12.9443063"><ele>426.66666666666663</ele><time>2026-04-12T08:26:40.578Z</time></trkpt><trkpt lat="42.8330878" lon="12.9441761"><ele>422.33333333333337</ele><time>2026-04-12T08:26:41.573Z</time></trkpt><trkpt lat="42.8328927" lon="12.9440937"><ele>418.0</ele><time>2026-04-12T08:26:42.57Z</time></trkpt><trkpt lat="42.8326801" lon="12.9440202"><ele>423.0</ele><time>2026-04-12T08:26:43.575Z</time></trkpt><trkpt lat="42.8324862" lon="12.9439161"><ele>428.0</ele><time>2026-04-12T08:26:44.571Z</time></trkpt><trkpt lat="42.8322985" lon="12.9438096"><ele>433.0</ele><time>2026-04-12T08:26:45.596Z</time></trkpt><trkpt lat="42.8321215" lon="12.9436681"><ele>433.0</ele><time>2026-04-12T08:26:46.57Z</time></trkpt><trkpt lat="42.8319335" lon="12.9435542"><ele>433.0</ele><time>2026-04-12T08:26:47.573Z</time></trkpt><trkpt lat="42.8317466" lon="12.9434848"><ele>433.0</ele><time>2026-04-12T08:26:48.574Z</time></trkpt><trkpt lat="42.8315593" lon="12.9434259"><ele>435.5</ele><time>2026-04-12T08:26:49.57Z</time></trkpt><trkpt lat="42.8313408" lon="12.9434373"><ele>438.0</ele><time>2026-04-12T08:26:50.576Z</time></trkpt><trkpt lat="42.8311036" lon="12.9434866"><ele>438.0</ele><time>2026-04-12T08:26:51.581Z</time></trkpt><trkpt lat="42.8308748" lon="12.9435263"><ele>438.0</ele><time>2026-04-12T08:26:52.574Z</time></trkpt><trkpt lat="42.8306566" lon="12.9435568"><ele>438.0</ele><time>2026-04-12T08:26:53.573Z</time></trkpt><trkpt lat="42.8304477" lon="12.9435495"><ele>438.0</ele><time>2026-04-12T08:26:54.57Z</time></trkpt><trkpt lat="42.8302382" lon="12.9434735"><ele>438.0</ele><time>2026-04-12T08:26:55.569Z</time></trkpt><trkpt lat="42.8300227" lon="12.9433403"><ele>433.0</ele><time>2026-04-12T08:26:56.575Z</time></trkpt><trkpt lat="42.829802" lon="12.9431977"><ele>428.0</ele><time>2026-04-12T08:26:57.57Z</time></trkpt><trkpt lat="42.829588" lon="12.943059"><ele>428.0</ele><time>2026-04-12T08:26:58.568Z</time></trkpt><trkpt lat="42.8294242" lon="12.9428802"><ele>428.0</ele><time>2026-04-12T08:26:59.581Z</time></trkpt><trkpt lat="42.829318" lon="12.942669"><ele>428.0</ele><time>2026-04-12T08:27:00.576Z</time></trkpt><trkpt lat="42.8292581" lon="12.9424245"><ele>429.66666666666663</ele><time>2026-04-12T08:27:01.59Z</time></trkpt><trkpt lat="42.8292458" lon="12.9421434"><ele>431.33333333333337</ele><time>2026-04-12T08:27:02.574Z</time></trkpt><trkpt lat="42.8292521" lon="12.9418432"><ele>433.0</ele><time>2026-04-12T08:27:03.575Z</time></trkpt><trkpt lat="42.8292647" lon="12.9415623"><ele>433.0</ele><time>2026-04-12T08:27:04.578Z</time></trkpt><trkpt lat="42.8292666" lon="12.941273"><ele>433.0</ele><time>2026-04-12T08:27:05.575Z</time></trkpt><trkpt lat="42.8292445" lon="12.9409897"><ele>433.0</ele><time>2026-04-12T08:27:06.576Z</time></trkpt><trkpt lat="42.8291949" lon="12.9407225"><ele>430.6666666666667</ele><time>2026-04-12T08:27:07.573Z</time></trkpt><trkpt lat="42.8291256" lon="12.9404616"><ele>428.33333333333337</ele><time>2026-04-12T08:27:08.57Z</time></trkpt><trkpt lat="42.8290538" lon="12.9402114"><ele>426.0</ele><time>2026-04-12T08:27:09.569Z</time></trkpt><trkpt lat="42.8289762" lon="12.9399743"><ele>419.33333333333337</ele><time>2026-04-12T08:27:10.57Z</time></trkpt><trkpt lat="42.8288814" lon="12.9397551"><ele>412.6666666666667</ele><time>2026-04-12T08:27:11.569Z</time></trkpt><trkpt lat="42.8287554" lon="12.9395545"><ele>406.0</ele><time>2026-04-12T08:27:12.572Z</time></trkpt><trkpt lat="42.8285982" lon="12.9393754"><ele>405.33333333333337</ele><time>2026-04-12T08:27:13.574Z</time></trkpt><trkpt lat="42.828431" lon="12.93922"><ele>404.66666666666663</ele><time>2026-04-12T08:27:14.57Z</time></trkpt><trkpt lat="42.8282719" lon="12.939071"><ele>404.0</ele><time>2026-04-12T08:27:15.575Z</time></trkpt><trkpt lat="42.8281285" lon="12.9389299"><ele>404.0</ele><time>2026-04-12T08:27:16.58Z</time></trkpt><trkpt lat="42.8279994" lon="12.9388038"><ele>404.0</ele><time>2026-04-12T08:27:17.574Z</time></trkpt><trkpt lat="42.8278941" lon="12.9386753"><ele>404.0</ele><time>2026-04-12T08:27:18.575Z</time></trkpt><trkpt lat="42.8278286" lon="12.9385188"><ele>404.0</ele><time>2026-04-12T08:27:19.569Z</time></trkpt><trkpt lat="42.8277998" lon="12.9383275"><ele>403.66666666666663</ele><time>2026-04-12T08:27:20.571Z</time></trkpt><trkpt lat="42.8277921" lon="12.9381251"><ele>403.33333333333337</ele><time>2026-04-12T08:27:21.573Z</time></trkpt><trkpt lat="42.8277856" lon="12.9379155"><ele>403.0</ele><time>2026-04-12T08:27:22.575Z</time></trkpt><trkpt lat="42.8277658" lon="12.9376986"><ele>404.0</ele><time>2026-04-12T08:27:23.577Z</time></trkpt><trkpt lat="42.82772" lon="12.9374839"><ele>405.0</ele><time>2026-04-12T08:27:24.576Z</time></trkpt><trkpt lat="42.8276602" lon="12.9372717"><ele>406.0</ele><time>2026-04-12T08:27:25.577Z</time></trkpt><trkpt lat="42.8276128" lon="12.9370726"><ele>406.0</ele><time>2026-04-12T08:27:26.576Z</time></trkpt><trkpt lat="42.8275825" lon="12.9368811"><ele>406.0</ele><time>2026-04-12T08:27:27.573Z</time></trkpt><trkpt lat="42.8275691" lon="12.9367044"><ele>406.0</ele><time>2026-04-12T08:27:28.576Z</time></trkpt><trkpt lat="42.8275821" lon="12.9365486"><ele>406.0</ele><time>2026-04-12T08:27:29.569Z</time></trkpt><trkpt lat="42.8276105" lon="12.9363964"><ele>412.5</ele><time>2026-04-12T08:27:30.58Z</time></trkpt><trkpt lat="42.8276951" lon="12.9362656"><ele>419.0</ele><time>2026-04-12T08:27:31.581Z</time></trkpt><trkpt lat="42.8277829" lon="12.9361381"><ele>425.5</ele><time>2026-04-12T08:27:32.573Z</time></trkpt><trkpt lat="42.8278854" lon="12.9360171"><ele>432.0</ele><time>2026-04-12T08:27:33.595Z</time></trkpt><trkpt lat="42.8279439" lon="12.9358549"><ele>432.0</ele><time>2026-04-12T08:27:34.577Z</time></trkpt><trkpt lat="42.8279538" lon="12.9356626"><ele>432.0</ele><time>2026-04-12T08:27:35.578Z</time></trkpt><trkpt lat="42.8279322" lon="12.9354718"><ele>432.0</ele><time>2026-04-12T08:27:36.575Z</time></trkpt><trkpt lat="42.8279158" lon="12.9353052"><ele>432.0</ele><time>2026-04-12T08:27:37.577Z</time></trkpt><trkpt lat="42.8279284" lon="12.935153"><ele>430.25</ele><time>2026-04-12T08:27:38.574Z</time></trkpt><trkpt lat="42.8279803" lon="12.9350242"><ele>428.5</ele><time>2026-04-12T08:27:39.577Z</time></trkpt><trkpt lat="42.828064" lon="12.934897"><ele>426.75</ele><time>2026-04-12T08:27:40.575Z</time></trkpt><trkpt lat="42.8281687" lon="12.9347884"><ele>425.0</ele><time>2026-04-12T08:27:41.581Z</time></trkpt><trkpt lat="42.8282732" lon="12.9346779"><ele>425.0</ele><time>2026-04-12T08:27:42.577Z</time></trkpt><trkpt lat="42.8283765" lon="12.9345661"><ele>425.0</ele><time>2026-04-12T08:27:43.576Z</time></trkpt><trkpt lat="42.8284725" lon="12.9344342"><ele>425.0</ele><time>2026-04-12T08:27:44.576Z</time></trkpt><trkpt lat="42.8285542" lon="12.9342792"><ele>425.0</ele><time>2026-04-12T08:27:45.577Z</time></trkpt><trkpt lat="42.8286079" lon="12.9341047"><ele>434.0</ele><time>2026-04-12T08:27:46.593Z</time></trkpt><trkpt lat="42.8286777" lon="12.9339211"><ele>443.0</ele><time>2026-04-12T08:27:47.577Z</time></trkpt><trkpt lat="42.8286901" lon="12.9337103"><ele>452.0</ele><time>2026-04-12T08:27:48.575Z</time></trkpt><trkpt lat="42.828699" lon="12.933478"><ele>447.0</ele><time>2026-04-12T08:27:49.575Z</time></trkpt><trkpt lat="42.8287017" lon="12.933244"><ele>442.0</ele><time>2026-04-12T08:27:50.575Z</time></trkpt><trkpt lat="42.8287203" lon="12.9330184"><ele>437.0</ele><time>2026-04-12T08:27:51.575Z</time></trkpt><trkpt lat="42.8287471" lon="12.9328079"><ele>410.0</ele><time>2026-04-12T08:27:52.57Z</time></trkpt><trkpt lat="42.8288497" lon="12.9316535"><ele>410.0</ele><time>2026-04-12T08:27:58.566Z</time></trkpt><trkpt lat="42.8287819" lon="12.931459"><ele>410.0</ele><time>2026-04-12T08:27:59.571Z</time></trkpt><trkpt lat="42.8286869" lon="12.93132"><ele>410.0</ele><time>2026-04-12T08:28:00.574Z</time></trkpt><trkpt lat="42.8285545" lon="12.9311325"><ele>408.3333333333333</ele><time>2026-04-12T08:28:01.578Z</time></trkpt><trkpt lat="42.8283834" lon="12.9310165"><ele>406.66666666666663</ele><time>2026-04-12T08:28:02.575Z</time></trkpt><trkpt lat="42.8282143" lon="12.9308925"><ele>405.0</ele><time>2026-04-12T08:28:03.586Z</time></trkpt><trkpt lat="42.8280426" lon="12.9307439"><ele>405.0</ele><time>2026-04-12T08:28:04.586Z</time></trkpt><trkpt lat="42.8278709" lon="12.9305569"><ele>405.0</ele><time>2026-04-12T08:28:05.581Z</time></trkpt><trkpt lat="42.827688" lon="12.9303687"><ele>405.0</ele><time>2026-04-12T08:28:06.583Z</time></trkpt><trkpt lat="42.8275018" lon="12.9301976"><ele>399.66666666666663</ele><time>2026-04-12T08:28:07.578Z</time></trkpt><trkpt lat="42.8273118" lon="12.9300665"><ele>394.3333333333333</ele><time>2026-04-12T08:28:08.579Z</time></trkpt><trkpt lat="42.8271099" lon="12.9299549"><ele>389.0</ele><time>2026-04-12T08:28:09.578Z</time></trkpt><trkpt lat="42.8269116" lon="12.9298688"><ele>392.3333333333333</ele><time>2026-04-12T08:28:10.574Z</time></trkpt><trkpt lat="42.8267266" lon="12.9297965"><ele>395.66666666666663</ele><time>2026-04-12T08:28:11.572Z</time></trkpt><trkpt lat="42.8265381" lon="12.9297357"><ele>399.0</ele><time>2026-04-12T08:28:12.58Z</time></trkpt><trkpt lat="42.8263529" lon="12.9296774"><ele>399.0</ele><time>2026-04-12T08:28:13.584Z</time></trkpt><trkpt lat="42.8261665" lon="12.9296267"><ele>399.0</ele><time>2026-04-12T08:28:14.583Z</time></trkpt><trkpt lat="42.8259805" lon="12.9295823"><ele>399.0</ele><time>2026-04-12T08:28:15.579Z</time></trkpt><trkpt lat="42.8258068" lon="12.9295304"><ele>396.66666666666663</ele><time>2026-04-12T08:28:16.581Z</time></trkpt><trkpt lat="42.8256426" lon="12.9294833"><ele>394.3333333333333</ele><time>2026-04-12T08:28:17.575Z</time></trkpt><trkpt lat="42.8254857" lon="12.9294437"><ele>392.0</ele><time>2026-04-12T08:28:18.585Z</time></trkpt><trkpt lat="42.825329" lon="12.9294103"><ele>392.0</ele><time>2026-04-12T08:28:19.584Z</time></trkpt><trkpt lat="42.8251776" lon="12.9293864"><ele>392.0</ele><time>2026-04-12T08:28:20.574Z</time></trkpt><trkpt lat="42.8250367" lon="12.9293791"><ele>392.0</ele><time>2026-04-12T08:28:21.597Z</time></trkpt><trkpt lat="42.824905" lon="12.9293827"><ele>392.0</ele><time>2026-04-12T08:28:22.578Z</time></trkpt><trkpt lat="42.8247715" lon="12.9293956"><ele>390.75</ele><time>2026-04-12T08:28:23.579Z</time></trkpt><trkpt lat="42.8246355" lon="12.929421"><ele>389.5</ele><time>2026-04-12T08:28:24.581Z</time></trkpt><trkpt lat="42.8244937" lon="12.9294803"><ele>388.25</ele><time>2026-04-12T08:28:25.58Z</time></trkpt><trkpt lat="42.8243598" lon="12.929576"><ele>387.0</ele><time>2026-04-12T08:28:26.581Z</time></trkpt><trkpt lat="42.824243" lon="12.9296814"><ele>384.25</ele><time>2026-04-12T08:28:27.576Z</time></trkpt><trkpt lat="42.8241366" lon="12.9297818"><ele>381.5</ele><time>2026-04-12T08:28:28.581Z</time></trkpt><trkpt lat="42.8240371" lon="12.9298776"><ele>378.75</ele><time>2026-04-12T08:28:29.58Z</time></trkpt><trkpt lat="42.8239372" lon="12.9299738"><ele>376.0</ele><time>2026-04-12T08:28:30.574Z</time></trkpt><trkpt lat="42.8238313" lon="12.9300754"><ele>376.0</ele><time>2026-04-12T08:28:31.581Z</time></trkpt><trkpt lat="42.8237204" lon="12.93018"><ele>376.0</ele><time>2026-04-12T08:28:32.576Z</time></trkpt><trkpt lat="42.8236056" lon="12.9302759"><ele>376.0</ele><time>2026-04-12T08:28:33.597Z</time></trkpt><trkpt lat="42.8234753" lon="12.9303418"><ele>376.0</ele><time>2026-04-12T08:28:34.579Z</time></trkpt><trkpt lat="42.8233505" lon="12.9303881"><ele>379.5</ele><time>2026-04-12T08:28:35.576Z</time></trkpt><trkpt lat="42.8232137" lon="12.9304234"><ele>383.0</ele><time>2026-04-12T08:28:36.583Z</time></trkpt><trkpt lat="42.8230726" lon="12.9304514"><ele>386.5</ele><time>2026-04-12T08:28:37.603Z</time></trkpt><trkpt lat="42.822942" lon="12.9304725"><ele>390.0</ele><time>2026-04-12T08:28:38.576Z</time></trkpt><trkpt lat="42.82282" lon="12.9304883"><ele>390.0</ele><time>2026-04-12T08:28:39.583Z</time></trkpt><trkpt lat="42.8227064" lon="12.9305051"><ele>390.0</ele><time>2026-04-12T08:28:40.583Z</time></trkpt><trkpt lat="42.8225947" lon="12.9305213"><ele>390.0</ele><time>2026-04-12T08:28:41.581Z</time></trkpt><trkpt lat="42.8224837" lon="12.9305402"><ele>390.0</ele><time>2026-04-12T08:28:42.583Z</time></trkpt><trkpt lat="42.8223688" lon="12.9305557"><ele>391.4</ele><time>2026-04-12T08:28:43.581Z</time></trkpt><trkpt lat="42.822256" lon="12.9305692"><ele>392.8</ele><time>2026-04-12T08:28:44.579Z</time></trkpt><trkpt lat="42.8221516" lon="12.9305839"><ele>394.20000000000005</ele><time>2026-04-12T08:28:45.585Z</time></trkpt><trkpt lat="42.8220496" lon="12.9305889"><ele>395.6</ele><time>2026-04-12T08:28:46.582Z</time></trkpt><trkpt lat="42.8219507" lon="12.9305766"><ele>397.0</ele><time>2026-04-12T08:28:47.585Z</time></trkpt><trkpt lat="42.8218417" lon="12.9305416"><ele>396.6666666666667</ele><time>2026-04-12T08:28:48.576Z</time></trkpt><trkpt lat="42.821723" lon="12.9304715"><ele>396.33333333333337</ele><time>2026-04-12T08:28:49.579Z</time></trkpt><trkpt lat="42.8215953" lon="12.9303521"><ele>396.0</ele><time>2026-04-12T08:28:50.578Z</time></trkpt><trkpt lat="42.8214764" lon="12.9301829"><ele>397.66666666666663</ele><time>2026-04-12T08:28:51.578Z</time></trkpt><trkpt lat="42.8213798" lon="12.9299593"><ele>399.3333333333333</ele><time>2026-04-12T08:28:52.581Z</time></trkpt><trkpt lat="42.8213184" lon="12.9296909"><ele>401.0</ele><time>2026-04-12T08:28:53.577Z</time></trkpt><trkpt lat="42.8212872" lon="12.9294161"><ele>400.3333333333333</ele><time>2026-04-12T08:28:54.578Z</time></trkpt><trkpt lat="42.821269" lon="12.9291546"><ele>399.66666666666663</ele><time>2026-04-12T08:28:55.579Z</time></trkpt><trkpt lat="42.821257" lon="12.928905"><ele>399.0</ele><time>2026-04-12T08:28:56.577Z</time></trkpt><trkpt lat="42.8212441" lon="12.9286667"><ele>399.0</ele><time>2026-04-12T08:28:57.577Z</time></trkpt><trkpt lat="42.8212267" lon="12.9284365"><ele>399.0</ele><time>2026-04-12T08:28:58.58Z</time></trkpt><trkpt lat="42.8211983" lon="12.9282122"><ele>399.0</ele><time>2026-04-12T08:28:59.578Z</time></trkpt><trkpt lat="42.821149" lon="12.9279896"><ele>399.0</ele><time>2026-04-12T08:29:00.578Z</time></trkpt><trkpt lat="42.8210764" lon="12.9277796"><ele>399.0</ele><time>2026-04-12T08:29:01.579Z</time></trkpt><trkpt lat="42.8209848" lon="12.9275904"><ele>399.0</ele><time>2026-04-12T08:29:02.576Z</time></trkpt><trkpt lat="42.8208828" lon="12.927399"><ele>399.0</ele><time>2026-04-12T08:29:03.577Z</time></trkpt><trkpt lat="42.8207867" lon="12.9271785"><ele>399.0</ele><time>2026-04-12T08:29:04.576Z</time></trkpt><trkpt lat="42.8207103" lon="12.9269176"><ele>399.0</ele><time>2026-04-12T08:29:05.584Z</time></trkpt><trkpt lat="42.8206695" lon="12.9266195"><ele>399.0</ele><time>2026-04-12T08:29:06.581Z</time></trkpt><trkpt lat="42.8206446" lon="12.926301"><ele>399.0</ele><time>2026-04-12T08:29:07.579Z</time></trkpt><trkpt lat="42.8205975" lon="12.9259672"><ele>404.5</ele><time>2026-04-12T08:29:08.576Z</time></trkpt><trkpt lat="42.8205092" lon="12.9256245"><ele>410.0</ele><time>2026-04-12T08:29:09.576Z</time></trkpt><trkpt lat="42.820396" lon="12.9252834"><ele>419.5</ele><time>2026-04-12T08:29:10.581Z</time></trkpt><trkpt lat="42.8202821" lon="12.9249572"><ele>429.0</ele><time>2026-04-12T08:29:11.575Z</time></trkpt><trkpt lat="42.8201763" lon="12.9246439"><ele>407.0</ele><time>2026-04-12T08:29:12.577Z</time></trkpt><trkpt lat="42.8200752" lon="12.9243432"><ele>385.0</ele><time>2026-04-12T08:29:13.577Z</time></trkpt><trkpt lat="42.8199677" lon="12.9240472"><ele>385.0</ele><time>2026-04-12T08:29:14.581Z</time></trkpt><trkpt lat="42.8198407" lon="12.9237721"><ele>385.0</ele><time>2026-04-12T08:29:15.574Z</time></trkpt><trkpt lat="42.8196928" lon="12.9235394"><ele>379.33333333333337</ele><time>2026-04-12T08:29:16.575Z</time></trkpt><trkpt lat="42.819534" lon="12.9233527"><ele>373.6666666666667</ele><time>2026-04-12T08:29:17.576Z</time></trkpt><trkpt lat="42.8193793" lon="12.9232045"><ele>368.0</ele><time>2026-04-12T08:29:18.579Z</time></trkpt><trkpt lat="42.8192429" lon="12.9230584"><ele>368.0</ele><time>2026-04-12T08:29:19.577Z</time></trkpt><trkpt lat="42.8191442" lon="12.9228812"><ele>368.0</ele><time>2026-04-12T08:29:20.578Z</time></trkpt><trkpt lat="42.8190781" lon="12.9226871"><ele>368.0</ele><time>2026-04-12T08:29:21.575Z</time></trkpt><trkpt lat="42.8190374" lon="12.9225055"><ele>370.0</ele><time>2026-04-12T08:29:22.575Z</time></trkpt><trkpt lat="42.8191315" lon="12.9222748"><ele>372.0</ele><time>2026-04-12T08:29:23.581Z</time></trkpt><trkpt lat="42.8192598" lon="12.9220475"><ele>374.0</ele><time>2026-04-12T08:29:24.574Z</time></trkpt><trkpt lat="42.8193933" lon="12.9217866"><ele>386.33333333333337</ele><time>2026-04-12T08:29:25.577Z</time></trkpt><trkpt lat="42.8195046" lon="12.921531"><ele>398.6666666666667</ele><time>2026-04-12T08:29:26.58Z</time></trkpt><trkpt lat="42.8195862" lon="12.9212759"><ele>411.0</ele><time>2026-04-12T08:29:27.583Z</time></trkpt><trkpt lat="42.8196259" lon="12.9210032"><ele>407.33333333333337</ele><time>2026-04-12T08:29:28.582Z</time></trkpt><trkpt lat="42.8196191" lon="12.9207224"><ele>403.6666666666667</ele><time>2026-04-12T08:29:29.577Z</time></trkpt><trkpt lat="42.8196064" lon="12.9204575"><ele>400.0</ele><time>2026-04-12T08:29:30.578Z</time></trkpt><trkpt lat="42.8195493" lon="12.9202079"><ele>405.0</ele><time>2026-04-12T08:29:31.579Z</time></trkpt><trkpt lat="42.8194639" lon="12.9200023"><ele>410.0</ele><time>2026-04-12T08:29:32.578Z</time></trkpt><trkpt lat="42.819338" lon="12.9198309"><ele>415.0</ele><time>2026-04-12T08:29:33.58Z</time></trkpt><trkpt lat="42.8191556" lon="12.919713"><ele>394.5</ele><time>2026-04-12T08:29:34.575Z</time></trkpt><trkpt lat="42.8189388" lon="12.9196362"><ele>374.0</ele><time>2026-04-12T08:29:35.578Z</time></trkpt><trkpt lat="42.8187029" lon="12.9195808"><ele>366.0</ele><time>2026-04-12T08:29:36.574Z</time></trkpt><trkpt lat="42.8184647" lon="12.9195668"><ele>358.0</ele><time>2026-04-12T08:29:37.576Z</time></trkpt><trkpt lat="42.8182389" lon="12.9195804"><ele>358.0</ele><time>2026-04-12T08:29:38.581Z</time></trkpt><trkpt lat="42.8180292" lon="12.9196355"><ele>358.0</ele><time>2026-04-12T08:29:39.575Z</time></trkpt><trkpt lat="42.8178418" lon="12.9196926"><ele>358.0</ele><time>2026-04-12T08:29:40.604Z</time></trkpt><trkpt lat="42.8176736" lon="12.9197229"><ele>358.3333333333333</ele><time>2026-04-12T08:29:41.576Z</time></trkpt><trkpt lat="42.8175124" lon="12.919728"><ele>358.6666666666667</ele><time>2026-04-12T08:29:42.583Z</time></trkpt><trkpt lat="42.8173515" lon="12.9197078"><ele>359.0</ele><time>2026-04-12T08:29:43.579Z</time></trkpt><trkpt lat="42.8172131" lon="12.9196046"><ele>359.0</ele><time>2026-04-12T08:29:44.577Z</time></trkpt><trkpt lat="42.8171251" lon="12.9194143"><ele>359.0</ele><time>2026-04-12T08:29:45.576Z</time></trkpt><trkpt lat="42.8171011" lon="12.9191638"><ele>359.0</ele><time>2026-04-12T08:29:46.58Z</time></trkpt><trkpt lat="42.8171018" lon="12.9189279"><ele>365.0</ele><time>2026-04-12T08:29:47.579Z</time></trkpt><trkpt lat="42.817111" lon="12.918684"><ele>371.0</ele><time>2026-04-12T08:29:48.578Z</time></trkpt><trkpt lat="42.8171046" lon="12.9184486"><ele>377.0</ele><time>2026-04-12T08:29:49.584Z</time></trkpt><trkpt lat="42.8170971" lon="12.9182264"><ele>380.25</ele><time>2026-04-12T08:29:50.583Z</time></trkpt><trkpt lat="42.8170614" lon="12.9180386"><ele>383.5</ele><time>2026-04-12T08:29:51.582Z</time></trkpt><trkpt lat="42.8170193" lon="12.9178633"><ele>386.75</ele><time>2026-04-12T08:29:52.579Z</time></trkpt><trkpt lat="42.8169807" lon="12.9176951"><ele>390.0</ele><time>2026-04-12T08:29:53.576Z</time></trkpt><trkpt lat="42.8169414" lon="12.9175305"><ele>391.4</ele><time>2026-04-12T08:29:54.582Z</time></trkpt><trkpt lat="42.8168969" lon="12.9173744"><ele>392.8</ele><time>2026-04-12T08:29:55.575Z</time></trkpt><trkpt lat="42.8168607" lon="12.9172245"><ele>394.20000000000005</ele><time>2026-04-12T08:29:56.579Z</time></trkpt><trkpt lat="42.8168233" lon="12.9170877"><ele>395.6</ele><time>2026-04-12T08:29:57.582Z</time></trkpt><trkpt lat="42.816789" lon="12.9169635"><ele>397.0</ele><time>2026-04-12T08:29:58.579Z</time></trkpt><trkpt lat="42.8167539" lon="12.9168516"><ele>391.6666666666667</ele><time>2026-04-12T08:29:59.58Z</time></trkpt><trkpt lat="42.8167223" lon="12.916753"><ele>386.33333333333337</ele><time>2026-04-12T08:30:00.578Z</time></trkpt><trkpt lat="42.816692" lon="12.9166648"><ele>381.0</ele><time>2026-04-12T08:30:01.577Z</time></trkpt><trkpt lat="42.8166567" lon="12.9165864"><ele>375.6666666666667</ele><time>2026-04-12T08:30:02.575Z</time></trkpt><trkpt lat="42.8165822" lon="12.9164589"><ele>370.33333333333337</ele><time>2026-04-12T08:30:04.581Z</time></trkpt><trkpt lat="42.8165323" lon="12.9163876"><ele>365.0</ele><time>2026-04-12T08:30:05.576Z</time></trkpt><trkpt lat="42.8164699" lon="12.9163048"><ele>365.0</ele><time>2026-04-12T08:30:06.579Z</time></trkpt><trkpt lat="42.8163919" lon="12.9162178"><ele>365.0</ele><time>2026-04-12T08:30:07.582Z</time></trkpt><trkpt lat="42.8163011" lon="12.9161276"><ele>365.0</ele><time>2026-04-12T08:30:08.58Z</time></trkpt><trkpt lat="42.8161938" lon="12.9160392"><ele>365.0</ele><time>2026-04-12T08:30:09.581Z</time></trkpt><trkpt lat="42.8160732" lon="12.9159567"><ele>364.75</ele><time>2026-04-12T08:30:10.577Z</time></trkpt><trkpt lat="42.8159483" lon="12.9158847"><ele>364.5</ele><time>2026-04-12T08:30:11.578Z</time></trkpt><trkpt lat="42.8158184" lon="12.9158259"><ele>364.25</ele><time>2026-04-12T08:30:12.578Z</time></trkpt><trkpt lat="42.8156847" lon="12.9157748"><ele>364.0</ele><time>2026-04-12T08:30:13.579Z</time></trkpt><trkpt lat="42.8155509" lon="12.9157218"><ele>364.0</ele><time>2026-04-12T08:30:14.582Z</time></trkpt><trkpt lat="42.8154201" lon="12.915668"><ele>364.0</ele><time>2026-04-12T08:30:15.58Z</time></trkpt><trkpt lat="42.8152946" lon="12.9156036"><ele>364.0</ele><time>2026-04-12T08:30:16.577Z</time></trkpt><trkpt lat="42.8151761" lon="12.9155234"><ele>364.0</ele><time>2026-04-12T08:30:17.58Z</time></trkpt><trkpt lat="42.8150669" lon="12.9154245"><ele>363.0</ele><time>2026-04-12T08:30:18.582Z</time></trkpt><trkpt lat="42.8149636" lon="12.9153118"><ele>362.0</ele><time>2026-04-12T08:30:19.576Z</time></trkpt><trkpt lat="42.8148591" lon="12.9151886"><ele>361.0</ele><time>2026-04-12T08:30:20.579Z</time></trkpt><trkpt lat="42.814748" lon="12.9150542"><ele>360.0</ele><time>2026-04-12T08:30:21.576Z</time></trkpt><trkpt lat="42.814622" lon="12.9149145"><ele>360.0</ele><time>2026-04-12T08:30:22.582Z</time></trkpt><trkpt lat="42.8144946" lon="12.9147918"><ele>360.0</ele><time>2026-04-12T08:30:23.578Z</time></trkpt><trkpt lat="42.8143737" lon="12.9146806"><ele>360.0</ele><time>2026-04-12T08:30:24.58Z</time></trkpt><trkpt lat="42.8142601" lon="12.9145774"><ele>360.0</ele><time>2026-04-12T08:30:25.579Z</time></trkpt><trkpt lat="42.8141561" lon="12.9144876"><ele>359.5</ele><time>2026-04-12T08:30:26.579Z</time></trkpt><trkpt lat="42.8140663" lon="12.9144139"><ele>359.0</ele><time>2026-04-12T08:30:27.578Z</time></trkpt><trkpt lat="42.8139908" lon="12.9143557"><ele>358.5</ele><time>2026-04-12T08:30:28.582Z</time></trkpt><trkpt lat="42.8139268" lon="12.9143085"><ele>358.0</ele><time>2026-04-12T08:30:29.576Z</time></trkpt><trkpt lat="42.8138328" lon="12.9142511"><ele>357.5</ele><time>2026-04-12T08:30:31.578Z</time></trkpt><trkpt lat="42.8137562" lon="12.9142129"><ele>357.0</ele><time>2026-04-12T08:30:33.582Z</time></trkpt><trkpt lat="42.8136412" lon="12.9141928"><ele>357.0</ele><time>2026-04-12T08:30:40.585Z</time></trkpt><trkpt lat="42.8135884" lon="12.9142611"><ele>357.0</ele><time>2026-04-12T08:55:32.576Z</time></trkpt><trkpt lat="42.8136399" lon="12.9141861"><ele>357.0</ele><time>2026-04-12T08:55:57.59Z</time></trkpt><trkpt lat="42.8135649" lon="12.9141028"><ele>357.0</ele><time>2026-04-12T08:56:00.586Z</time></trkpt><trkpt lat="42.8134835" lon="12.9140614"><ele>357.0</ele><time>2026-04-12T08:56:03.594Z</time></trkpt><trkpt lat="42.8134158" lon="12.9140378"><ele>357.0</ele><time>2026-04-12T08:56:07.6Z</time></trkpt><trkpt lat="42.8133371" lon="12.9140252"><ele>358.6666666666667</ele><time>2026-04-12T08:56:31.593Z</time></trkpt><trkpt lat="42.8132457" lon="12.9139934"><ele>360.3333333333333</ele><time>2026-04-12T08:56:33.595Z</time></trkpt><trkpt lat="42.8131504" lon="12.9139551"><ele>362.0</ele><time>2026-04-12T08:56:35.59Z</time></trkpt><trkpt lat="42.8130717" lon="12.9139233"><ele>363.66666666666663</ele><time>2026-04-12T08:56:37.587Z</time></trkpt><trkpt lat="42.8130107" lon="12.9138931"><ele>365.3333333333333</ele><time>2026-04-12T08:56:39.598Z</time></trkpt><trkpt lat="42.8129313" lon="12.9138584"><ele>367.0</ele><time>2026-04-12T08:56:42.608Z</time></trkpt><trkpt lat="42.8128572" lon="12.9138276"><ele>367.0</ele><time>2026-04-12T08:56:45.589Z</time></trkpt><trkpt lat="42.8127767" lon="12.9137948"><ele>367.0</ele><time>2026-04-12T08:56:48.591Z</time></trkpt><trkpt lat="42.8127113" lon="12.913768"><ele>367.0</ele><time>2026-04-12T08:56:51.593Z</time></trkpt><trkpt lat="42.8125636" lon="12.9137121"><ele>367.0</ele><time>2026-04-12T08:56:55.591Z</time></trkpt><trkpt lat="42.8124708" lon="12.9136744"><ele>367.0</ele><time>2026-04-12T08:56:57.592Z</time></trkpt><trkpt lat="42.8123689" lon="12.9136376"><ele>364.75</ele><time>2026-04-12T08:56:59.593Z</time></trkpt><trkpt lat="42.812258" lon="12.9135991"><ele>362.5</ele><time>2026-04-12T08:57:01.595Z</time></trkpt><trkpt lat="42.8121542" lon="12.9135555"><ele>360.25</ele><time>2026-04-12T08:57:03.598Z</time></trkpt><trkpt lat="42.8120507" lon="12.9135121"><ele>358.0</ele><time>2026-04-12T08:57:05.585Z</time></trkpt><trkpt lat="42.8119309" lon="12.9134553"><ele>358.00000000000006</ele><time>2026-04-12T08:57:07.586Z</time></trkpt><trkpt lat="42.8118677" lon="12.9134234"><ele>358.0</ele><time>2026-04-12T08:57:08.586Z</time></trkpt><trkpt lat="42.8118023" lon="12.9133737"><ele>358.0</ele><time>2026-04-12T08:57:09.584Z</time></trkpt><trkpt lat="42.8117404" lon="12.9133196"><ele>358.0</ele><time>2026-04-12T08:57:10.59Z</time></trkpt><trkpt lat="42.8116845" lon="12.9132611"><ele>358.0</ele><time>2026-04-12T08:57:11.587Z</time></trkpt><trkpt lat="42.8116313" lon="12.9131988"><ele>358.00000000000006</ele><time>2026-04-12T08:57:12.585Z</time></trkpt><trkpt lat="42.8115761" lon="12.9131297"><ele>358.0</ele><time>2026-04-12T08:57:13.584Z</time></trkpt><trkpt lat="42.8115215" lon="12.9130572"><ele>359.3333333333333</ele><time>2026-04-12T08:57:14.589Z</time></trkpt><trkpt lat="42.8114678" lon="12.9129882"><ele>360.66666666666663</ele><time>2026-04-12T08:57:15.591Z</time></trkpt><trkpt lat="42.8114151" lon="12.9129223"><ele>362.0</ele><time>2026-04-12T08:57:16.595Z</time></trkpt><trkpt lat="42.8113661" lon="12.9128624"><ele>363.3333333333333</ele><time>2026-04-12T08:57:17.584Z</time></trkpt><trkpt lat="42.8112757" lon="12.9127579"><ele>364.6666666666667</ele><time>2026-04-12T08:57:19.595Z</time></trkpt><trkpt lat="42.8111962" lon="12.9126718"><ele>366.0</ele><time>2026-04-12T08:57:21.6Z</time></trkpt><trkpt lat="42.8111214" lon="12.9126007"><ele>365.8333333333333</ele><time>2026-04-12T08:57:23.592Z</time></trkpt><trkpt lat="42.8110287" lon="12.9125243"><ele>365.6666666666667</ele><time>2026-04-12T08:57:25.594Z</time></trkpt><trkpt lat="42.8109729" lon="12.9124828"><ele>365.5</ele><time>2026-04-12T08:57:26.591Z</time></trkpt><trkpt lat="42.8109035" lon="12.9124394"><ele>365.33333333333337</ele><time>2026-04-12T08:57:27.592Z</time></trkpt><trkpt lat="42.8108259" lon="12.9123928"><ele>365.1666666666667</ele><time>2026-04-12T08:57:28.606Z</time></trkpt><trkpt lat="42.8107476" lon="12.912344"><ele>365.0</ele><time>2026-04-12T08:57:29.594Z</time></trkpt><trkpt lat="42.8106754" lon="12.912296"><ele>365.0</ele><time>2026-04-12T08:57:30.588Z</time></trkpt><trkpt lat="42.810602" lon="12.9122383"><ele>365.0</ele><time>2026-04-12T08:57:31.591Z</time></trkpt><trkpt lat="42.8105284" lon="12.9121545"><ele>365.0</ele><time>2026-04-12T08:57:32.584Z</time></trkpt><trkpt lat="42.8104611" lon="12.9120235"><ele>365.0</ele><time>2026-04-12T08:57:33.585Z</time></trkpt><trkpt lat="42.8104204" lon="12.911856"><ele>365.0</ele><time>2026-04-12T08:57:34.588Z</time></trkpt><trkpt lat="42.8104067" lon="12.9116769"><ele>368.0</ele><time>2026-04-12T08:57:35.589Z</time></trkpt><trkpt lat="42.8104054" lon="12.9114907"><ele>371.0</ele><time>2026-04-12T08:57:36.593Z</time></trkpt><trkpt lat="42.8104088" lon="12.9113119"><ele>374.0</ele><time>2026-04-12T08:57:37.588Z</time></trkpt><trkpt lat="42.8104176" lon="12.9111363"><ele>377.0</ele><time>2026-04-12T08:57:38.589Z</time></trkpt><trkpt lat="42.810438" lon="12.9109579"><ele>377.75</ele><time>2026-04-12T08:57:39.592Z</time></trkpt><trkpt lat="42.8104696" lon="12.9107748"><ele>378.5</ele><time>2026-04-12T08:57:40.588Z</time></trkpt><trkpt lat="42.8105046" lon="12.9105802"><ele>379.25</ele><time>2026-04-12T08:57:41.601Z</time></trkpt><trkpt lat="42.8105345" lon="12.9103667"><ele>380.0</ele><time>2026-04-12T08:57:42.59Z</time></trkpt><trkpt lat="42.8105409" lon="12.9101439"><ele>383.33333333333337</ele><time>2026-04-12T08:57:43.595Z</time></trkpt><trkpt lat="42.8105062" lon="12.9099131"><ele>386.6666666666667</ele><time>2026-04-12T08:57:44.587Z</time></trkpt><trkpt lat="42.8104311" lon="12.9096967"><ele>390.0</ele><time>2026-04-12T08:57:45.592Z</time></trkpt><trkpt lat="42.8103304" lon="12.9095143"><ele>390.0</ele><time>2026-04-12T08:57:46.589Z</time></trkpt><trkpt lat="42.8102167" lon="12.9093645"><ele>390.0</ele><time>2026-04-12T08:57:47.59Z</time></trkpt><trkpt lat="42.8101097" lon="12.9092285"><ele>390.0</ele><time>2026-04-12T08:57:48.592Z</time></trkpt><trkpt lat="42.8100009" lon="12.9090769"><ele>381.3333333333333</ele><time>2026-04-12T08:57:49.591Z</time></trkpt><trkpt lat="42.8099188" lon="12.9088713"><ele>372.66666666666663</ele><time>2026-04-12T08:57:50.587Z</time></trkpt><trkpt lat="42.8098666" lon="12.9086517"><ele>364.0</ele><time>2026-04-12T08:57:51.591Z</time></trkpt><trkpt lat="42.8098306" lon="12.9084456"><ele>366.66666666666663</ele><time>2026-04-12T08:57:52.587Z</time></trkpt><trkpt lat="42.8098008" lon="12.9082378"><ele>369.3333333333333</ele><time>2026-04-12T08:57:53.585Z</time></trkpt><trkpt lat="42.8097738" lon="12.9080317"><ele>372.0</ele><time>2026-04-12T08:57:54.589Z</time></trkpt><trkpt lat="42.8097431" lon="12.9078271"><ele>372.0</ele><time>2026-04-12T08:57:55.589Z</time></trkpt><trkpt lat="42.8097145" lon="12.9076188"><ele>372.0</ele><time>2026-04-12T08:57:56.587Z</time></trkpt><trkpt lat="42.8096835" lon="12.907415"><ele>372.0</ele><time>2026-04-12T08:57:57.586Z</time></trkpt><trkpt lat="42.8096548" lon="12.9072202"><ele>373.75</ele><time>2026-04-12T08:57:58.595Z</time></trkpt><trkpt lat="42.8096232" lon="12.9070311"><ele>375.5</ele><time>2026-04-12T08:57:59.592Z</time></trkpt><trkpt lat="42.8095843" lon="12.9068386"><ele>377.25</ele><time>2026-04-12T08:58:00.603Z</time></trkpt><trkpt lat="42.8095248" lon="12.9066488"><ele>379.0</ele><time>2026-04-12T08:58:01.59Z</time></trkpt><trkpt lat="42.8094498" lon="12.9064664"><ele>371.66666666666663</ele><time>2026-04-12T08:58:02.591Z</time></trkpt><trkpt lat="42.8093654" lon="12.9062934"><ele>364.3333333333333</ele><time>2026-04-12T08:58:03.589Z</time></trkpt><trkpt lat="42.8092739" lon="12.9061265"><ele>357.0</ele><time>2026-04-12T08:58:04.598Z</time></trkpt><trkpt lat="42.8091785" lon="12.9059599"><ele>360.3333333333333</ele><time>2026-04-12T08:58:05.589Z</time></trkpt><trkpt lat="42.8090891" lon="12.9057889"><ele>363.66666666666663</ele><time>2026-04-12T08:58:06.593Z</time></trkpt><trkpt lat="42.8090118" lon="12.9056071"><ele>367.0</ele><time>2026-04-12T08:58:07.593Z</time></trkpt><trkpt lat="42.8089543" lon="12.9054132"><ele>367.0</ele><time>2026-04-12T08:58:08.591Z</time></trkpt><trkpt lat="42.8089175" lon="12.905207"><ele>367.0</ele><time>2026-04-12T08:58:09.595Z</time></trkpt><trkpt lat="42.8089056" lon="12.9049925"><ele>367.0</ele><time>2026-04-12T08:58:10.588Z</time></trkpt><trkpt lat="42.8089165" lon="12.904774"><ele>368.66666666666663</ele><time>2026-04-12T08:58:11.592Z</time></trkpt><trkpt lat="42.8089395" lon="12.9045491"><ele>370.3333333333333</ele><time>2026-04-12T08:58:12.594Z</time></trkpt><trkpt lat="42.8089664" lon="12.9043128"><ele>372.0</ele><time>2026-04-12T08:58:13.59Z</time></trkpt><trkpt lat="42.8089921" lon="12.9040606"><ele>372.0</ele><time>2026-04-12T08:58:14.588Z</time></trkpt><trkpt lat="42.8090075" lon="12.9037957"><ele>372.0</ele><time>2026-04-12T08:58:15.58Z</time></trkpt><trkpt lat="42.8090081" lon="12.9035292"><ele>372.0</ele><time>2026-04-12T08:58:16.586Z</time></trkpt><trkpt lat="42.8089958" lon="12.9032733"><ele>372.3333333333333</ele><time>2026-04-12T08:58:17.583Z</time></trkpt><trkpt lat="42.8089696" lon="12.903029"><ele>372.66666666666663</ele><time>2026-04-12T08:58:18.586Z</time></trkpt><trkpt lat="42.808935" lon="12.9027865"><ele>373.0</ele><time>2026-04-12T08:58:19.581Z</time></trkpt><trkpt lat="42.8088994" lon="12.9025395"><ele>374.66666666666663</ele><time>2026-04-12T08:58:20.591Z</time></trkpt><trkpt lat="42.808868" lon="12.9022881"><ele>376.3333333333333</ele><time>2026-04-12T08:58:21.587Z</time></trkpt><trkpt lat="42.8088489" lon="12.902034"><ele>378.0</ele><time>2026-04-12T08:58:22.595Z</time></trkpt><trkpt lat="42.8088518" lon="12.9017782"><ele>378.0</ele><time>2026-04-12T08:58:23.594Z</time></trkpt><trkpt lat="42.8088831" lon="12.9015217"><ele>378.0</ele><time>2026-04-12T08:58:24.585Z</time></trkpt><trkpt lat="42.8089427" lon="12.901267"><ele>378.0</ele><time>2026-04-12T08:58:25.588Z</time></trkpt><trkpt lat="42.8090182" lon="12.9010281"><ele>374.6666666666667</ele><time>2026-04-12T08:58:26.588Z</time></trkpt><trkpt lat="42.809097" lon="12.9008029"><ele>371.33333333333337</ele><time>2026-04-12T08:58:27.588Z</time></trkpt><trkpt lat="42.8091702" lon="12.9005703"><ele>368.0</ele><time>2026-04-12T08:58:28.586Z</time></trkpt><trkpt lat="42.8092204" lon="12.9003151"><ele>365.0</ele><time>2026-04-12T08:58:29.584Z</time></trkpt><trkpt lat="42.8092385" lon="12.9000402"><ele>362.0</ele><time>2026-04-12T08:58:30.59Z</time></trkpt><trkpt lat="42.8092212" lon="12.8997577"><ele>359.0</ele><time>2026-04-12T08:58:31.593Z</time></trkpt><trkpt lat="42.8091625" lon="12.8994822"><ele>364.6666666666667</ele><time>2026-04-12T08:58:32.584Z</time></trkpt><trkpt lat="42.8090679" lon="12.8992287"><ele>370.3333333333333</ele><time>2026-04-12T08:58:33.58Z</time></trkpt><trkpt lat="42.8089483" lon="12.8990092"><ele>376.0</ele><time>2026-04-12T08:58:34.586Z</time></trkpt><trkpt lat="42.8088106" lon="12.8988255"><ele>376.0</ele><time>2026-04-12T08:58:35.604Z</time></trkpt><trkpt lat="42.8086589" lon="12.8986738"><ele>376.0</ele><time>2026-04-12T08:58:36.586Z</time></trkpt><trkpt lat="42.8084973" lon="12.8985492"><ele>376.0</ele><time>2026-04-12T08:58:37.594Z</time></trkpt><trkpt lat="42.8083314" lon="12.8984514"><ele>379.3333333333333</ele><time>2026-04-12T08:58:38.592Z</time></trkpt><trkpt lat="42.8081621" lon="12.8983821"><ele>382.66666666666663</ele><time>2026-04-12T08:58:39.597Z</time></trkpt><trkpt lat="42.8079924" lon="12.898331"><ele>386.0</ele><time>2026-04-12T08:58:40.592Z</time></trkpt><trkpt lat="42.8078239" lon="12.898284"><ele>375.3333333333333</ele><time>2026-04-12T08:58:41.585Z</time></trkpt><trkpt lat="42.8076518" lon="12.8982362"><ele>364.66666666666663</ele><time>2026-04-12T08:58:42.586Z</time></trkpt><trkpt lat="42.8074738" lon="12.8981861"><ele>354.0</ele><time>2026-04-12T08:58:43.591Z</time></trkpt><trkpt lat="42.8072885" lon="12.8981355"><ele>354.0</ele><time>2026-04-12T08:58:44.594Z</time></trkpt><trkpt lat="42.8070964" lon="12.8980847"><ele>354.0</ele><time>2026-04-12T08:58:45.594Z</time></trkpt><trkpt lat="42.8068933" lon="12.8980301"><ele>354.0</ele><time>2026-04-12T08:58:46.587Z</time></trkpt><trkpt lat="42.8066752" lon="12.8979717"><ele>352.5</ele><time>2026-04-12T08:58:47.601Z</time></trkpt><trkpt lat="42.806448" lon="12.8979094"><ele>351.0</ele><time>2026-04-12T08:58:48.587Z</time></trkpt><trkpt lat="42.8062087" lon="12.897858"><ele>349.5</ele><time>2026-04-12T08:58:49.578Z</time></trkpt><trkpt lat="42.8059646" lon="12.8978368"><ele>348.0</ele><time>2026-04-12T08:58:50.584Z</time></trkpt><trkpt lat="42.8057283" lon="12.8978542"><ele>348.0</ele><time>2026-04-12T08:58:51.588Z</time></trkpt><trkpt lat="42.805489" lon="12.8978771"><ele>348.0</ele><time>2026-04-12T08:58:52.587Z</time></trkpt><trkpt lat="42.8052416" lon="12.8978784"><ele>350.0</ele><time>2026-04-12T08:58:53.59Z</time></trkpt><trkpt lat="42.805002" lon="12.8978769"><ele>352.0</ele><time>2026-04-12T08:58:54.587Z</time></trkpt><trkpt lat="42.8047709" lon="12.8978955"><ele>352.0</ele><time>2026-04-12T08:58:55.588Z</time></trkpt><trkpt lat="42.8045501" lon="12.8979239"><ele>352.0</ele><time>2026-04-12T08:58:56.583Z</time></trkpt><trkpt lat="42.8043414" lon="12.8979529"><ele>352.0</ele><time>2026-04-12T08:58:57.579Z</time></trkpt><trkpt lat="42.804145" lon="12.8979726"><ele>351.3333333333333</ele><time>2026-04-12T08:58:58.585Z</time></trkpt><trkpt lat="42.8039597" lon="12.8979592"><ele>350.6666666666667</ele><time>2026-04-12T08:58:59.591Z</time></trkpt><trkpt lat="42.8037836" lon="12.8978895"><ele>350.0</ele><time>2026-04-12T08:59:00.582Z</time></trkpt><trkpt lat="42.8036244" lon="12.8977534"><ele>350.6666666666667</ele><time>2026-04-12T08:59:01.582Z</time></trkpt><trkpt lat="42.803491" lon="12.8975591"><ele>351.3333333333333</ele><time>2026-04-12T08:59:02.59Z</time></trkpt><trkpt lat="42.8033693" lon="12.8973402"><ele>352.0</ele><time>2026-04-12T08:59:03.591Z</time></trkpt><trkpt lat="42.8032488" lon="12.8971267"><ele>352.0</ele><time>2026-04-12T08:59:04.584Z</time></trkpt><trkpt lat="42.8031328" lon="12.8969251"><ele>352.0</ele><time>2026-04-12T08:59:05.597Z</time></trkpt><trkpt lat="42.8030187" lon="12.8967238"><ele>352.0</ele><time>2026-04-12T08:59:06.59Z</time></trkpt><trkpt lat="42.8028988" lon="12.8965253"><ele>352.0</ele><time>2026-04-12T08:59:07.594Z</time></trkpt><trkpt lat="42.8027586" lon="12.8963517"><ele>352.0</ele><time>2026-04-12T08:59:08.584Z</time></trkpt><trkpt lat="42.8025939" lon="12.8962185"><ele>352.0</ele><time>2026-04-12T08:59:09.579Z</time></trkpt><trkpt lat="42.8024113" lon="12.8961347"><ele>352.0</ele><time>2026-04-12T08:59:10.591Z</time></trkpt><trkpt lat="42.8022187" lon="12.8961102"><ele>352.0</ele><time>2026-04-12T08:59:11.619Z</time></trkpt><trkpt lat="42.8020255" lon="12.8961429"><ele>352.0</ele><time>2026-04-12T08:59:12.586Z</time></trkpt><trkpt lat="42.8018323" lon="12.8962016"><ele>350.0</ele><time>2026-04-12T08:59:13.587Z</time></trkpt><trkpt lat="42.8016262" lon="12.8962499"><ele>348.0</ele><time>2026-04-12T08:59:14.588Z</time></trkpt><trkpt lat="42.8014103" lon="12.8962816"><ele>346.0</ele><time>2026-04-12T08:59:15.586Z</time></trkpt><trkpt lat="42.8012035" lon="12.8962958"><ele>346.0</ele><time>2026-04-12T08:59:16.592Z</time></trkpt><trkpt lat="42.8010033" lon="12.8962914"><ele>346.0</ele><time>2026-04-12T08:59:17.592Z</time></trkpt><trkpt lat="42.8008021" lon="12.8962772"><ele>346.0</ele><time>2026-04-12T08:59:18.593Z</time></trkpt><trkpt lat="42.8005965" lon="12.8962611"><ele>345.66666666666663</ele><time>2026-04-12T08:59:19.585Z</time></trkpt><trkpt lat="42.8003873" lon="12.8962452"><ele>345.3333333333333</ele><time>2026-04-12T08:59:20.592Z</time></trkpt><trkpt lat="42.800175" lon="12.8961981"><ele>345.0</ele><time>2026-04-12T08:59:21.588Z</time></trkpt><trkpt lat="42.7999777" lon="12.8961112"><ele>346.0</ele><time>2026-04-12T08:59:22.592Z</time></trkpt><trkpt lat="42.7997867" lon="12.895991"><ele>347.0</ele><time>2026-04-12T08:59:23.588Z</time></trkpt><trkpt lat="42.7996083" lon="12.8958407"><ele>348.0</ele><time>2026-04-12T08:59:24.591Z</time></trkpt><trkpt lat="42.7994468" lon="12.8956568"><ele>346.6666666666667</ele><time>2026-04-12T08:59:25.586Z</time></trkpt><trkpt lat="42.7993059" lon="12.8954438"><ele>345.33333333333337</ele><time>2026-04-12T08:59:26.595Z</time></trkpt><trkpt lat="42.7991723" lon="12.8952339"><ele>344.0</ele><time>2026-04-12T08:59:27.595Z</time></trkpt><trkpt lat="42.7990441" lon="12.8950231"><ele>349.0</ele><time>2026-04-12T08:59:28.597Z</time></trkpt><trkpt lat="42.798935" lon="12.8947974"><ele>354.0</ele><time>2026-04-12T08:59:29.586Z</time></trkpt><trkpt lat="42.7988621" lon="12.8945402"><ele>359.0</ele><time>2026-04-12T08:59:30.59Z</time></trkpt><trkpt lat="42.7988282" lon="12.8942584"><ele>368.5</ele><time>2026-04-12T08:59:31.612Z</time></trkpt><trkpt lat="42.7988153" lon="12.893947"><ele>378.0</ele><time>2026-04-12T08:59:32.582Z</time></trkpt><trkpt lat="42.7988018" lon="12.8936189"><ele>381.5</ele><time>2026-04-12T08:59:33.595Z</time></trkpt><trkpt lat="42.7987852" lon="12.8932888"><ele>385.0</ele><time>2026-04-12T08:59:34.584Z</time></trkpt><trkpt lat="42.7987678" lon="12.8929689"><ele>385.0</ele><time>2026-04-12T08:59:35.578Z</time></trkpt><trkpt lat="42.7987526" lon="12.8926572"><ele>385.0</ele><time>2026-04-12T08:59:36.581Z</time></trkpt><trkpt lat="42.7987271" lon="12.8923479"><ele>387.0</ele><time>2026-04-12T08:59:37.581Z</time></trkpt><trkpt lat="42.7986827" lon="12.8920394"><ele>389.0</ele><time>2026-04-12T08:59:38.578Z</time></trkpt><trkpt lat="42.7986229" lon="12.8917346"><ele>391.5</ele><time>2026-04-12T08:59:39.592Z</time></trkpt><trkpt lat="42.7985546" lon="12.8914378"><ele>394.0</ele><time>2026-04-12T08:59:40.582Z</time></trkpt><trkpt lat="42.7984833" lon="12.891147"><ele>379.0</ele><time>2026-04-12T08:59:41.578Z</time></trkpt><trkpt lat="42.7984062" lon="12.8908589"><ele>364.0</ele><time>2026-04-12T08:59:42.588Z</time></trkpt><trkpt lat="42.7983094" lon="12.8905811"><ele>364.0</ele><time>2026-04-12T08:59:43.586Z</time></trkpt><trkpt lat="42.7981867" lon="12.8903228"><ele>364.0</ele><time>2026-04-12T08:59:44.582Z</time></trkpt><trkpt lat="42.7980404" lon="12.8900869"><ele>362.0</ele><time>2026-04-12T08:59:45.599Z</time></trkpt><trkpt lat="42.7978666" lon="12.8898726"><ele>360.0</ele><time>2026-04-12T08:59:46.579Z</time></trkpt><trkpt lat="42.7976668" lon="12.8896793"><ele>352.5</ele><time>2026-04-12T08:59:47.584Z</time></trkpt><trkpt lat="42.7974526" lon="12.8894945"><ele>345.0</ele><time>2026-04-12T08:59:48.579Z</time></trkpt><trkpt lat="42.7972363" lon="12.8893077"><ele>344.5</ele><time>2026-04-12T08:59:49.583Z</time></trkpt><trkpt lat="42.7970258" lon="12.8891248"><ele>344.0</ele><time>2026-04-12T08:59:50.587Z</time></trkpt><trkpt lat="42.796822" lon="12.8889454"><ele>344.0</ele><time>2026-04-12T08:59:51.584Z</time></trkpt><trkpt lat="42.7966187" lon="12.8887706"><ele>344.0</ele><time>2026-04-12T08:59:52.582Z</time></trkpt><trkpt lat="42.7964142" lon="12.8886124"><ele>344.0</ele><time>2026-04-12T08:59:53.599Z</time></trkpt><trkpt lat="42.7961922" lon="12.888483"><ele>344.0</ele><time>2026-04-12T08:59:54.584Z</time></trkpt><trkpt lat="42.7959561" lon="12.8884066"><ele>348.0</ele><time>2026-04-12T08:59:55.584Z</time></trkpt><trkpt lat="42.7957094" lon="12.8883561"><ele>352.0</ele><time>2026-04-12T08:59:56.586Z</time></trkpt><trkpt lat="42.7954637" lon="12.8882993"><ele>352.0</ele><time>2026-04-12T08:59:57.587Z</time></trkpt><trkpt lat="42.7952215" lon="12.8882293"><ele>352.0</ele><time>2026-04-12T08:59:58.586Z</time></trkpt><trkpt lat="42.7949907" lon="12.8881568"><ele>347.5</ele><time>2026-04-12T08:59:59.589Z</time></trkpt><trkpt lat="42.7947657" lon="12.8880785"><ele>343.0</ele><time>2026-04-12T09:00:00.582Z</time></trkpt><trkpt lat="42.7945396" lon="12.8879968"><ele>341.0</ele><time>2026-04-12T09:00:01.578Z</time></trkpt><trkpt lat="42.7943124" lon="12.8879155"><ele>339.0</ele><time>2026-04-12T09:00:02.579Z</time></trkpt><trkpt lat="42.7940866" lon="12.8878333"><ele>339.0</ele><time>2026-04-12T09:00:03.578Z</time></trkpt><trkpt lat="42.793861" lon="12.8877506"><ele>339.0</ele><time>2026-04-12T09:00:04.58Z</time></trkpt><trkpt lat="42.7936366" lon="12.8876698"><ele>345.0</ele><time>2026-04-12T09:00:05.58Z</time></trkpt><trkpt lat="42.7934127" lon="12.8875919"><ele>351.0</ele><time>2026-04-12T09:00:06.577Z</time></trkpt><trkpt lat="42.7931904" lon="12.8875166"><ele>351.0</ele><time>2026-04-12T09:00:07.574Z</time></trkpt><trkpt lat="42.7929623" lon="12.8874293"><ele>351.0</ele><time>2026-04-12T09:00:08.584Z</time></trkpt><trkpt lat="42.7927349" lon="12.8873178"><ele>346.0</ele><time>2026-04-12T09:00:09.578Z</time></trkpt><trkpt lat="42.7925156" lon="12.8871733"><ele>341.0</ele><time>2026-04-12T09:00:10.58Z</time></trkpt><trkpt lat="42.7923064" lon="12.8869934"><ele>341.0</ele><time>2026-04-12T09:00:11.575Z</time></trkpt><trkpt lat="42.7921103" lon="12.8867916"><ele>341.0</ele><time>2026-04-12T09:00:12.579Z</time></trkpt><trkpt lat="42.7919226" lon="12.8865954"><ele>341.6666666666667</ele><time>2026-04-12T09:00:13.577Z</time></trkpt><trkpt lat="42.7917472" lon="12.886411"><ele>342.3333333333333</ele><time>2026-04-12T09:00:14.579Z</time></trkpt><trkpt lat="42.7915808" lon="12.8862345"><ele>343.0</ele><time>2026-04-12T09:00:15.58Z</time></trkpt><trkpt lat="42.7914242" lon="12.886074"><ele>348.3333333333333</ele><time>2026-04-12T09:00:16.587Z</time></trkpt><trkpt lat="42.791283" lon="12.8859185"><ele>353.6666666666667</ele><time>2026-04-12T09:00:17.583Z</time></trkpt><trkpt lat="42.7911674" lon="12.8857268"><ele>359.0</ele><time>2026-04-12T09:00:18.582Z</time></trkpt><trkpt lat="42.7910607" lon="12.8855183"><ele>359.0</ele><time>2026-04-12T09:00:19.576Z</time></trkpt><trkpt lat="42.7910234" lon="12.8852437"><ele>359.0</ele><time>2026-04-12T09:00:20.581Z</time></trkpt><trkpt lat="42.7910376" lon="12.8849377"><ele>359.0</ele><time>2026-04-12T09:00:21.577Z</time></trkpt><trkpt lat="42.7910543" lon="12.8846048"><ele>365.0</ele><time>2026-04-12T09:00:22.581Z</time></trkpt><trkpt lat="42.7910638" lon="12.884294"><ele>371.0</ele><time>2026-04-12T09:00:23.581Z</time></trkpt><trkpt lat="42.7910726" lon="12.8839946"><ele>377.0</ele><time>2026-04-12T09:00:24.58Z</time></trkpt><trkpt lat="42.791067" lon="12.8836951"><ele>381.6666666666667</ele><time>2026-04-12T09:00:25.578Z</time></trkpt><trkpt lat="42.7910272" lon="12.8834019"><ele>386.33333333333337</ele><time>2026-04-12T09:00:26.58Z</time></trkpt><trkpt lat="42.790936" lon="12.8831167"><ele>391.0</ele><time>2026-04-12T09:00:27.575Z</time></trkpt><trkpt lat="42.7908043" lon="12.882845"><ele>373.0</ele><time>2026-04-12T09:00:28.577Z</time></trkpt><trkpt lat="42.7906486" lon="12.8825758"><ele>355.0</ele><time>2026-04-12T09:00:29.575Z</time></trkpt><trkpt lat="42.7904846" lon="12.8823008"><ele>355.0</ele><time>2026-04-12T09:00:30.581Z</time></trkpt><trkpt lat="42.7903048" lon="12.8820357"><ele>355.0</ele><time>2026-04-12T09:00:31.579Z</time></trkpt><trkpt lat="42.7901183" lon="12.8817981"><ele>350.5</ele><time>2026-04-12T09:00:32.579Z</time></trkpt><trkpt lat="42.7899383" lon="12.8815793"><ele>346.0</ele><time>2026-04-12T09:00:33.581Z</time></trkpt><trkpt lat="42.7897714" lon="12.8813696"><ele>346.0</ele><time>2026-04-12T09:00:34.578Z</time></trkpt><trkpt lat="42.7896129" lon="12.8811736"><ele>346.0</ele><time>2026-04-12T09:00:35.577Z</time></trkpt><trkpt lat="42.7894575" lon="12.8809914"><ele>346.0</ele><time>2026-04-12T09:00:36.584Z</time></trkpt><trkpt lat="42.789294" lon="12.8808291"><ele>343.0</ele><time>2026-04-12T09:00:37.583Z</time></trkpt><trkpt lat="42.7891105" lon="12.8806982"><ele>340.0</ele><time>2026-04-12T09:00:38.585Z</time></trkpt><trkpt lat="42.7889211" lon="12.8806043"><ele>337.0</ele><time>2026-04-12T09:00:39.59Z</time></trkpt><trkpt lat="42.788739" lon="12.880529"><ele>337.0</ele><time>2026-04-12T09:00:40.579Z</time></trkpt><trkpt lat="42.7885634" lon="12.8804378"><ele>337.0</ele><time>2026-04-12T09:00:41.591Z</time></trkpt><trkpt lat="42.7883976" lon="12.8803104"><ele>337.0</ele><time>2026-04-12T09:00:42.583Z</time></trkpt><trkpt lat="42.7882587" lon="12.8801463"><ele>341.0</ele><time>2026-04-12T09:00:43.587Z</time></trkpt><trkpt lat="42.7881547" lon="12.879956"><ele>345.0</ele><time>2026-04-12T09:00:44.58Z</time></trkpt><trkpt lat="42.7880778" lon="12.879746"><ele>349.0</ele><time>2026-04-12T09:00:45.586Z</time></trkpt><trkpt lat="42.7880048" lon="12.8795043"><ele>356.66666666666663</ele><time>2026-04-12T09:00:46.583Z</time></trkpt><trkpt lat="42.7879197" lon="12.8792383"><ele>364.3333333333333</ele><time>2026-04-12T09:00:47.586Z</time></trkpt><trkpt lat="42.787823" lon="12.8789562"><ele>372.0</ele><time>2026-04-12T09:00:48.593Z</time></trkpt><trkpt lat="42.7877279" lon="12.8786767"><ele>359.0</ele><time>2026-04-12T09:00:49.584Z</time></trkpt><trkpt lat="42.787645" lon="12.8784076"><ele>346.0</ele><time>2026-04-12T09:00:50.599Z</time></trkpt><trkpt lat="42.7875686" lon="12.878138"><ele>333.0</ele><time>2026-04-12T09:00:51.585Z</time></trkpt><trkpt lat="42.7874897" lon="12.8778672"><ele>337.3333333333333</ele><time>2026-04-12T09:00:52.583Z</time></trkpt><trkpt lat="42.7874095" lon="12.8775961"><ele>341.66666666666663</ele><time>2026-04-12T09:00:53.585Z</time></trkpt><trkpt lat="42.7873292" lon="12.8773321"><ele>346.0</ele><time>2026-04-12T09:00:54.589Z</time></trkpt><trkpt lat="42.7872521" lon="12.8770705"><ele>346.0</ele><time>2026-04-12T09:00:55.587Z</time></trkpt><trkpt lat="42.7871703" lon="12.8768116"><ele>346.0</ele><time>2026-04-12T09:00:56.58Z</time></trkpt><trkpt lat="42.7870908" lon="12.8765457"><ele>346.0</ele><time>2026-04-12T09:00:57.585Z</time></trkpt><trkpt lat="42.7870191" lon="12.8762429"><ele>365.0</ele><time>2026-04-12T09:00:58.59Z</time></trkpt><trkpt lat="42.7869589" lon="12.8759255"><ele>384.0</ele><time>2026-04-12T09:00:59.58Z</time></trkpt><trkpt lat="42.7868977" lon="12.8755971"><ele>361.5</ele><time>2026-04-12T09:01:00.59Z</time></trkpt><trkpt lat="42.7868265" lon="12.8752728"><ele>339.0</ele><time>2026-04-12T09:01:01.586Z</time></trkpt><trkpt lat="42.7867304" lon="12.8749667"><ele>339.0</ele><time>2026-04-12T09:01:02.585Z</time></trkpt><trkpt lat="42.7865946" lon="12.8746832"><ele>339.0</ele><time>2026-04-12T09:01:03.583Z</time></trkpt><trkpt lat="42.7864181" lon="12.8744402"><ele>337.0</ele><time>2026-04-12T09:01:04.591Z</time></trkpt><trkpt lat="42.7862023" lon="12.8742416"><ele>335.0</ele><time>2026-04-12T09:01:05.582Z</time></trkpt><trkpt lat="42.7859798" lon="12.874055"><ele>335.0</ele><time>2026-04-12T09:01:06.595Z</time></trkpt><trkpt lat="42.7857429" lon="12.8739474"><ele>335.0</ele><time>2026-04-12T09:01:07.589Z</time></trkpt><trkpt lat="42.7854972" lon="12.8738626"><ele>335.0</ele><time>2026-04-12T09:01:08.589Z</time></trkpt><trkpt lat="42.7852494" lon="12.873817"><ele>335.0</ele><time>2026-04-12T09:01:09.582Z</time></trkpt><trkpt lat="42.7850091" lon="12.8738153"><ele>332.5</ele><time>2026-04-12T09:01:10.584Z</time></trkpt><trkpt lat="42.7847749" lon="12.8738282"><ele>330.0</ele><time>2026-04-12T09:01:11.584Z</time></trkpt><trkpt lat="42.7845564" lon="12.8738345"><ele>330.0</ele><time>2026-04-12T09:01:12.587Z</time></trkpt><trkpt lat="42.7843531" lon="12.8738189"><ele>330.0</ele><time>2026-04-12T09:01:13.586Z</time></trkpt><trkpt lat="42.7841447" lon="12.8737983"><ele>330.0</ele><time>2026-04-12T09:01:14.585Z</time></trkpt><trkpt lat="42.7839432" lon="12.8736625"><ele>329.3333333333333</ele><time>2026-04-12T09:01:15.587Z</time></trkpt><trkpt lat="42.7837676" lon="12.8735064"><ele>328.66666666666663</ele><time>2026-04-12T09:01:16.582Z</time></trkpt><trkpt lat="42.7836237" lon="12.8733311"><ele>328.0</ele><time>2026-04-12T09:01:17.605Z</time></trkpt><trkpt lat="42.7834951" lon="12.8731376"><ele>328.0</ele><time>2026-04-12T09:01:18.583Z</time></trkpt><trkpt lat="42.7834507" lon="12.8728881"><ele>328.0</ele><time>2026-04-12T09:01:19.584Z</time></trkpt><trkpt lat="42.7834678" lon="12.8726112"><ele>328.0</ele><time>2026-04-12T09:01:20.589Z</time></trkpt><trkpt lat="42.7834859" lon="12.872334"><ele>329.3333333333333</ele><time>2026-04-12T09:01:21.585Z</time></trkpt><trkpt lat="42.7834921" lon="12.8720396"><ele>330.6666666666667</ele><time>2026-04-12T09:01:22.586Z</time></trkpt><trkpt lat="42.7834881" lon="12.8717277"><ele>332.0</ele><time>2026-04-12T09:01:23.58Z</time></trkpt><trkpt lat="42.7834455" lon="12.8714081"><ele>332.0</ele><time>2026-04-12T09:01:24.587Z</time></trkpt><trkpt lat="42.7833693" lon="12.8710892"><ele>332.0</ele><time>2026-04-12T09:01:25.586Z</time></trkpt><trkpt lat="42.7832752" lon="12.8707805"><ele>333.0</ele><time>2026-04-12T09:01:26.589Z</time></trkpt><trkpt lat="42.783176" lon="12.8704744"><ele>334.0</ele><time>2026-04-12T09:01:27.602Z</time></trkpt><trkpt lat="42.7830806" lon="12.8701748"><ele>332.0</ele><time>2026-04-12T09:01:28.58Z</time></trkpt><trkpt lat="42.7829427" lon="12.8699204"><ele>330.0</ele><time>2026-04-12T09:01:29.583Z</time></trkpt><trkpt lat="42.7827537" lon="12.8697158"><ele>327.0</ele><time>2026-04-12T09:01:30.586Z</time></trkpt><trkpt lat="42.7825553" lon="12.8695397"><ele>324.0</ele><time>2026-04-12T09:01:31.581Z</time></trkpt><trkpt lat="42.7823603" lon="12.8693583"><ele>330.5</ele><time>2026-04-12T09:01:32.583Z</time></trkpt><trkpt lat="42.7821756" lon="12.8691504"><ele>337.0</ele><time>2026-04-12T09:01:33.586Z</time></trkpt><trkpt lat="42.7819848" lon="12.8689615"><ele>331.0</ele><time>2026-04-12T09:01:34.586Z</time></trkpt><trkpt lat="42.7817783" lon="12.8688308"><ele>325.0</ele><time>2026-04-12T09:01:35.584Z</time></trkpt><trkpt lat="42.7815443" lon="12.8687803"><ele>325.0</ele><time>2026-04-12T09:01:36.582Z</time></trkpt><trkpt lat="42.781294" lon="12.8687758"><ele>325.0</ele><time>2026-04-12T09:01:37.586Z</time></trkpt><trkpt lat="42.7810305" lon="12.8687687"><ele>323.5</ele><time>2026-04-12T09:01:38.588Z</time></trkpt><trkpt lat="42.7807752" lon="12.8687283"><ele>322.0</ele><time>2026-04-12T09:01:39.589Z</time></trkpt><trkpt lat="42.780547" lon="12.8686319"><ele>322.0</ele><time>2026-04-12T09:01:40.585Z</time></trkpt><trkpt lat="42.7803087" lon="12.8685347"><ele>322.0</ele><time>2026-04-12T09:01:41.591Z</time></trkpt><trkpt lat="42.7800735" lon="12.8684496"><ele>327.0</ele><time>2026-04-12T09:01:42.589Z</time></trkpt><trkpt lat="42.7798258" lon="12.8683632"><ele>332.0</ele><time>2026-04-12T09:01:43.591Z</time></trkpt><trkpt lat="42.7795732" lon="12.8682746"><ele>330.5</ele><time>2026-04-12T09:01:44.588Z</time></trkpt><trkpt lat="42.779322" lon="12.8681841"><ele>329.0</ele><time>2026-04-12T09:01:45.607Z</time></trkpt><trkpt lat="42.7790751" lon="12.8681007"><ele>329.0</ele><time>2026-04-12T09:01:46.59Z</time></trkpt><trkpt lat="42.7788351" lon="12.8680179"><ele>329.0</ele><time>2026-04-12T09:01:47.586Z</time></trkpt><trkpt lat="42.7785962" lon="12.8679506"><ele>326.5</ele><time>2026-04-12T09:01:48.586Z</time></trkpt><trkpt lat="42.7783559" lon="12.8679143"><ele>324.0</ele><time>2026-04-12T09:01:49.586Z</time></trkpt><trkpt lat="42.77811" lon="12.8679229"><ele>324.0</ele><time>2026-04-12T09:01:50.583Z</time></trkpt><trkpt lat="42.7778701" lon="12.8679456"><ele>324.0</ele><time>2026-04-12T09:01:51.598Z</time></trkpt><trkpt lat="42.7776303" lon="12.8679526"><ele>324.0</ele><time>2026-04-12T09:01:52.585Z</time></trkpt><trkpt lat="42.7773946" lon="12.8679168"><ele>324.0</ele><time>2026-04-12T09:01:53.587Z</time></trkpt><trkpt lat="42.7771679" lon="12.8678263"><ele>324.0</ele><time>2026-04-12T09:01:54.588Z</time></trkpt><trkpt lat="42.776939" lon="12.8677234"><ele>324.0</ele><time>2026-04-12T09:01:55.576Z</time></trkpt><trkpt lat="42.7767316" lon="12.8675412"><ele>327.5</ele><time>2026-04-12T09:01:56.591Z</time></trkpt><trkpt lat="42.7765317" lon="12.8673762"><ele>331.0</ele><time>2026-04-12T09:01:57.581Z</time></trkpt><trkpt lat="42.7763311" lon="12.8672277"><ele>331.0</ele><time>2026-04-12T09:01:58.585Z</time></trkpt><trkpt lat="42.7761242" lon="12.8670844"><ele>331.0</ele><time>2026-04-12T09:01:59.595Z</time></trkpt><trkpt lat="42.7759036" lon="12.8669636"><ele>325.0</ele><time>2026-04-12T09:02:00.591Z</time></trkpt><trkpt lat="42.775673" lon="12.8668661"><ele>319.0</ele><time>2026-04-12T09:02:01.591Z</time></trkpt><trkpt lat="42.77544" lon="12.8667784"><ele>325.5</ele><time>2026-04-12T09:02:02.588Z</time></trkpt><trkpt lat="42.7752016" lon="12.8666882"><ele>332.0</ele><time>2026-04-12T09:02:03.591Z</time></trkpt><trkpt lat="42.7749545" lon="12.866602"><ele>332.0</ele><time>2026-04-12T09:02:04.583Z</time></trkpt><trkpt lat="42.7746959" lon="12.8665359"><ele>332.0</ele><time>2026-04-12T09:02:05.59Z</time></trkpt><trkpt lat="42.7744294" lon="12.8664912"><ele>327.5</ele><time>2026-04-12T09:02:06.592Z</time></trkpt><trkpt lat="42.7741723" lon="12.8664593"><ele>323.0</ele><time>2026-04-12T09:02:07.591Z</time></trkpt><trkpt lat="42.7739241" lon="12.8664223"><ele>323.0</ele><time>2026-04-12T09:02:08.592Z</time></trkpt><trkpt lat="42.7736774" lon="12.8663685"><ele>323.0</ele><time>2026-04-12T09:02:09.595Z</time></trkpt><trkpt lat="42.7734311" lon="12.8662972"><ele>321.0</ele><time>2026-04-12T09:02:10.587Z</time></trkpt><trkpt lat="42.773187" lon="12.8662004"><ele>319.0</ele><time>2026-04-12T09:02:11.59Z</time></trkpt><trkpt lat="42.7729441" lon="12.8660806"><ele>319.0</ele><time>2026-04-12T09:02:12.594Z</time></trkpt><trkpt lat="42.7726975" lon="12.8659501"><ele>319.0</ele><time>2026-04-12T09:02:13.589Z</time></trkpt><trkpt lat="42.7724562" lon="12.8658174"><ele>320.5</ele><time>2026-04-12T09:02:14.603Z</time></trkpt><trkpt lat="42.7722249" lon="12.8656889"><ele>322.0</ele><time>2026-04-12T09:02:15.586Z</time></trkpt><trkpt lat="42.7720055" lon="12.8655662"><ele>320.66666666666663</ele><time>2026-04-12T09:02:16.59Z</time></trkpt><trkpt lat="42.7717966" lon="12.8654495"><ele>319.3333333333333</ele><time>2026-04-12T09:02:17.59Z</time></trkpt><trkpt lat="42.7715911" lon="12.8653362"><ele>318.0</ele><time>2026-04-12T09:02:18.581Z</time></trkpt><trkpt lat="42.7713931" lon="12.8652262"><ele>318.0</ele><time>2026-04-12T09:02:19.586Z</time></trkpt><trkpt lat="42.7712095" lon="12.8651229"><ele>318.0</ele><time>2026-04-12T09:02:20.595Z</time></trkpt><trkpt lat="42.7710445" lon="12.8650325"><ele>318.0</ele><time>2026-04-12T09:02:21.59Z</time></trkpt><trkpt lat="42.7708949" lon="12.8649466"><ele>320.3333333333333</ele><time>2026-04-12T09:02:22.587Z</time></trkpt><trkpt lat="42.7707481" lon="12.8648617"><ele>322.66666666666663</ele><time>2026-04-12T09:02:23.578Z</time></trkpt><trkpt lat="42.7706051" lon="12.864781"><ele>325.0</ele><time>2026-04-12T09:02:24.579Z</time></trkpt><trkpt lat="42.7704654" lon="12.8646969"><ele>325.0</ele><time>2026-04-12T09:02:25.587Z</time></trkpt><trkpt lat="42.770332" lon="12.8646219"><ele>325.0</ele><time>2026-04-12T09:02:26.582Z</time></trkpt><trkpt lat="42.7702066" lon="12.8645494"><ele>325.0</ele><time>2026-04-12T09:02:27.599Z</time></trkpt><trkpt lat="42.7700862" lon="12.8644784"><ele>325.0</ele><time>2026-04-12T09:02:28.595Z</time></trkpt><trkpt lat="42.7699759" lon="12.8644104"><ele>325.75</ele><time>2026-04-12T09:02:29.583Z</time></trkpt><trkpt lat="42.7698704" lon="12.8643428"><ele>326.5</ele><time>2026-04-12T09:02:30.589Z</time></trkpt><trkpt lat="42.769763" lon="12.8642776"><ele>327.25</ele><time>2026-04-12T09:02:31.589Z</time></trkpt><trkpt lat="42.7696585" lon="12.8642084"><ele>328.0</ele><time>2026-04-12T09:02:32.581Z</time></trkpt><trkpt lat="42.7695576" lon="12.8641393"><ele>328.0</ele><time>2026-04-12T09:02:33.592Z</time></trkpt><trkpt lat="42.7694608" lon="12.8640755"><ele>328.0</ele><time>2026-04-12T09:02:34.593Z</time></trkpt><trkpt lat="42.7693715" lon="12.8640166"><ele>328.0</ele><time>2026-04-12T09:02:35.587Z</time></trkpt><trkpt lat="42.7692854" lon="12.8639577"><ele>328.0</ele><time>2026-04-12T09:02:36.594Z</time></trkpt><trkpt lat="42.7691965" lon="12.8638975"><ele>328.0</ele><time>2026-04-12T09:02:37.591Z</time></trkpt><trkpt lat="42.7691121" lon="12.8638419"><ele>325.4</ele><time>2026-04-12T09:02:38.586Z</time></trkpt><trkpt lat="42.769033" lon="12.8637898"><ele>322.79999999999995</ele><time>2026-04-12T09:02:39.596Z</time></trkpt><trkpt lat="42.7689521" lon="12.8637344"><ele>320.2</ele><time>2026-04-12T09:02:40.592Z</time></trkpt><trkpt lat="42.7688679" lon="12.8636784"><ele>317.6</ele><time>2026-04-12T09:02:41.591Z</time></trkpt><trkpt lat="42.7687856" lon="12.8636236"><ele>315.0</ele><time>2026-04-12T09:02:42.591Z</time></trkpt><trkpt lat="42.7687056" lon="12.8635693"><ele>315.0</ele><time>2026-04-12T09:02:43.593Z</time></trkpt><trkpt lat="42.7686262" lon="12.863515"><ele>315.0</ele><time>2026-04-12T09:02:44.592Z</time></trkpt><trkpt lat="42.7685469" lon="12.863462"><ele>315.0</ele><time>2026-04-12T09:02:45.597Z</time></trkpt><trkpt lat="42.7684742" lon="12.8634062"><ele>315.0</ele><time>2026-04-12T09:02:46.587Z</time></trkpt><trkpt lat="42.7683992" lon="12.8633524"><ele>315.0</ele><time>2026-04-12T09:02:47.593Z</time></trkpt><trkpt lat="42.7683225" lon="12.8632995"><ele>315.0</ele><time>2026-04-12T09:02:48.587Z</time></trkpt><trkpt lat="42.7682375" lon="12.8632544"><ele>314.8333333333333</ele><time>2026-04-12T09:02:49.588Z</time></trkpt><trkpt lat="42.7681509" lon="12.8632031"><ele>314.6666666666667</ele><time>2026-04-12T09:02:50.585Z</time></trkpt><trkpt lat="42.7680754" lon="12.8631436"><ele>314.5</ele><time>2026-04-12T09:02:51.592Z</time></trkpt><trkpt lat="42.7680073" lon="12.8630939"><ele>314.33333333333337</ele><time>2026-04-12T09:02:52.592Z</time></trkpt><trkpt lat="42.7679391" lon="12.8630421"><ele>314.1666666666667</ele><time>2026-04-12T09:02:53.595Z</time></trkpt><trkpt lat="42.7678667" lon="12.8629927"><ele>314.0</ele><time>2026-04-12T09:02:54.595Z</time></trkpt><trkpt lat="42.7677856" lon="12.8629372"><ele>314.0</ele><time>2026-04-12T09:02:55.592Z</time></trkpt><trkpt lat="42.7677022" lon="12.8628838"><ele>314.0</ele><time>2026-04-12T09:02:56.606Z</time></trkpt><trkpt lat="42.7676247" lon="12.8628309"><ele>314.0</ele><time>2026-04-12T09:02:57.596Z</time></trkpt><trkpt lat="42.7675484" lon="12.8627807"><ele>314.0</ele><time>2026-04-12T09:02:58.604Z</time></trkpt><trkpt lat="42.7674736" lon="12.8627282"><ele>314.0</ele><time>2026-04-12T09:02:59.59Z</time></trkpt><trkpt lat="42.7673988" lon="12.8626781"><ele>314.0</ele><time>2026-04-12T09:03:00.59Z</time></trkpt><trkpt lat="42.7673237" lon="12.8626273"><ele>314.0</ele><time>2026-04-12T09:03:01.589Z</time></trkpt><trkpt lat="42.7672472" lon="12.8625769"><ele>314.0</ele><time>2026-04-12T09:03:02.592Z</time></trkpt><trkpt lat="42.7671736" lon="12.8625272"><ele>314.0</ele><time>2026-04-12T09:03:03.597Z</time></trkpt><trkpt lat="42.7671023" lon="12.8624782"><ele>314.0</ele><time>2026-04-12T09:03:04.597Z</time></trkpt><trkpt lat="42.7670283" lon="12.8624278"><ele>314.0</ele><time>2026-04-12T09:03:05.613Z</time></trkpt><trkpt lat="42.7669488" lon="12.8623762"><ele>314.0</ele><time>2026-04-12T09:03:06.595Z</time></trkpt><trkpt lat="42.7668645" lon="12.8623193"><ele>313.59999999999997</ele><time>2026-04-12T09:03:07.59Z</time></trkpt><trkpt lat="42.7667799" lon="12.8622603"><ele>313.2</ele><time>2026-04-12T09:03:08.587Z</time></trkpt><trkpt lat="42.766696" lon="12.8622026"><ele>312.79999999999995</ele><time>2026-04-12T09:03:09.584Z</time></trkpt><trkpt lat="42.7666099" lon="12.8621461"><ele>312.4</ele><time>2026-04-12T09:03:10.59Z</time></trkpt><trkpt lat="42.7665285" lon="12.8620908"><ele>312.0</ele><time>2026-04-12T09:03:11.596Z</time></trkpt><trkpt lat="42.766456" lon="12.8620429"><ele>312.0</ele><time>2026-04-12T09:03:12.597Z</time></trkpt><trkpt lat="42.766392" lon="12.8619994"><ele>312.0</ele><time>2026-04-12T09:03:13.602Z</time></trkpt><trkpt lat="42.7663337" lon="12.8619596"><ele>312.0</ele><time>2026-04-12T09:03:14.588Z</time></trkpt><trkpt lat="42.7662756" lon="12.8619146"><ele>312.0</ele><time>2026-04-12T09:03:15.607Z</time></trkpt><trkpt lat="42.7662153" lon="12.8618684"><ele>312.0</ele><time>2026-04-12T09:03:16.594Z</time></trkpt><trkpt lat="42.7661497" lon="12.8618229"><ele>312.0</ele><time>2026-04-12T09:03:17.601Z</time></trkpt><trkpt lat="42.766083" lon="12.8617775"><ele>312.0</ele><time>2026-04-12T09:03:18.59Z</time></trkpt><trkpt lat="42.7660154" lon="12.8617326"><ele>312.5</ele><time>2026-04-12T09:03:19.591Z</time></trkpt><trkpt lat="42.7659455" lon="12.8616864"><ele>313.0</ele><time>2026-04-12T09:03:20.58Z</time></trkpt><trkpt lat="42.7658695" lon="12.8616372"><ele>313.5</ele><time>2026-04-12T09:03:21.579Z</time></trkpt><trkpt lat="42.7657904" lon="12.8615891"><ele>314.0</ele><time>2026-04-12T09:03:22.588Z</time></trkpt><trkpt lat="42.7657078" lon="12.8615447"><ele>314.5</ele><time>2026-04-12T09:03:23.603Z</time></trkpt><trkpt lat="42.765618" lon="12.8615034"><ele>315.0</ele><time>2026-04-12T09:03:24.6Z</time></trkpt><trkpt lat="42.7655207" lon="12.8614676"><ele>315.0</ele><time>2026-04-12T09:03:25.598Z</time></trkpt><trkpt lat="42.765416" lon="12.8614403"><ele>315.0</ele><time>2026-04-12T09:03:26.592Z</time></trkpt><trkpt lat="42.7653045" lon="12.8614212"><ele>315.0</ele><time>2026-04-12T09:03:27.594Z</time></trkpt><trkpt lat="42.765189" lon="12.8614097"><ele>315.0</ele><time>2026-04-12T09:03:28.59Z</time></trkpt><trkpt lat="42.7650722" lon="12.8614034"><ele>315.5</ele><time>2026-04-12T09:03:29.588Z</time></trkpt><trkpt lat="42.7649539" lon="12.8613979"><ele>316.0</ele><time>2026-04-12T09:03:30.601Z</time></trkpt><trkpt lat="42.7648339" lon="12.8613843"><ele>316.5</ele><time>2026-04-12T09:03:31.594Z</time></trkpt><trkpt lat="42.7647161" lon="12.8613601"><ele>317.0</ele><time>2026-04-12T09:03:32.589Z</time></trkpt><trkpt lat="42.764591" lon="12.8613222"><ele>317.0</ele><time>2026-04-12T09:03:33.588Z</time></trkpt><trkpt lat="42.7644498" lon="12.8612692"><ele>317.0</ele><time>2026-04-12T09:03:34.584Z</time></trkpt><trkpt lat="42.7642941" lon="12.8612008"><ele>317.0</ele><time>2026-04-12T09:03:35.582Z</time></trkpt><trkpt lat="42.7641311" lon="12.8611194"><ele>315.0</ele><time>2026-04-12T09:03:36.584Z</time></trkpt><trkpt lat="42.7639577" lon="12.8610239"><ele>313.0</ele><time>2026-04-12T09:03:37.586Z</time></trkpt><trkpt lat="42.7637692" lon="12.8609145"><ele>311.0</ele><time>2026-04-12T09:03:38.59Z</time></trkpt><trkpt lat="42.7635737" lon="12.8607973"><ele>314.0</ele><time>2026-04-12T09:03:39.583Z</time></trkpt><trkpt lat="42.7633789" lon="12.8606726"><ele>317.0</ele><time>2026-04-12T09:03:40.584Z</time></trkpt><trkpt lat="42.7631829" lon="12.8605422"><ele>320.0</ele><time>2026-04-12T09:03:41.586Z</time></trkpt><trkpt lat="42.7629867" lon="12.8604091"><ele>320.0</ele><time>2026-04-12T09:03:42.587Z</time></trkpt><trkpt lat="42.7627878" lon="12.8602736"><ele>320.0</ele><time>2026-04-12T09:03:43.583Z</time></trkpt><trkpt lat="42.7625854" lon="12.8601354"><ele>320.0</ele><time>2026-04-12T09:03:44.605Z</time></trkpt><trkpt lat="42.7623822" lon="12.8599967"><ele>322.5</ele><time>2026-04-12T09:03:45.583Z</time></trkpt><trkpt lat="42.7621781" lon="12.8598589"><ele>325.0</ele><time>2026-04-12T09:03:46.589Z</time></trkpt><trkpt lat="42.7619734" lon="12.8597222"><ele>318.5</ele><time>2026-04-12T09:03:47.587Z</time></trkpt><trkpt lat="42.7617676" lon="12.8595862"><ele>312.0</ele><time>2026-04-12T09:03:48.585Z</time></trkpt><trkpt lat="42.7615606" lon="12.8594516"><ele>312.0</ele><time>2026-04-12T09:03:49.598Z</time></trkpt><trkpt lat="42.7613512" lon="12.8593197"><ele>312.0</ele><time>2026-04-12T09:03:50.582Z</time></trkpt><trkpt lat="42.7611381" lon="12.8591922"><ele>318.0</ele><time>2026-04-12T09:03:51.586Z</time></trkpt><trkpt lat="42.7609214" lon="12.8590708"><ele>324.0</ele><time>2026-04-12T09:03:52.583Z</time></trkpt><trkpt lat="42.7607022" lon="12.8589537"><ele>324.0</ele><time>2026-04-12T09:03:53.587Z</time></trkpt><trkpt lat="42.76048" lon="12.8588422"><ele>324.0</ele><time>2026-04-12T09:03:54.578Z</time></trkpt><trkpt lat="42.7602557" lon="12.8587363"><ele>316.0</ele><time>2026-04-12T09:03:55.589Z</time></trkpt><trkpt lat="42.760031" lon="12.8586336"><ele>308.0</ele><time>2026-04-12T09:03:56.588Z</time></trkpt><trkpt lat="42.759806" lon="12.8585327"><ele>312.5</ele><time>2026-04-12T09:03:57.583Z</time></trkpt><trkpt lat="42.7595822" lon="12.858433"><ele>317.0</ele><time>2026-04-12T09:03:58.59Z</time></trkpt><trkpt lat="42.7593593" lon="12.8583347"><ele>317.0</ele><time>2026-04-12T09:03:59.588Z</time></trkpt><trkpt lat="42.7591375" lon="12.8582355"><ele>317.0</ele><time>2026-04-12T09:04:00.582Z</time></trkpt><trkpt lat="42.7589153" lon="12.8581338"><ele>317.0</ele><time>2026-04-12T09:04:01.582Z</time></trkpt><trkpt lat="42.7586916" lon="12.8580293"><ele>317.0</ele><time>2026-04-12T09:04:02.585Z</time></trkpt><trkpt lat="42.7584649" lon="12.8579247"><ele>312.5</ele><time>2026-04-12T09:04:03.587Z</time></trkpt><trkpt lat="42.7582371" lon="12.8578208"><ele>308.0</ele><time>2026-04-12T09:04:04.59Z</time></trkpt><trkpt lat="42.7580075" lon="12.8577261"><ele>308.0</ele><time>2026-04-12T09:04:05.587Z</time></trkpt><trkpt lat="42.7577766" lon="12.8576528"><ele>308.0</ele><time>2026-04-12T09:04:06.593Z</time></trkpt><trkpt lat="42.7575471" lon="12.8576011"><ele>314.6666666666667</ele><time>2026-04-12T09:04:07.591Z</time></trkpt><trkpt lat="42.7573239" lon="12.8575634"><ele>321.3333333333333</ele><time>2026-04-12T09:04:08.587Z</time></trkpt><trkpt lat="42.7571143" lon="12.8575306"><ele>328.0</ele><time>2026-04-12T09:04:09.584Z</time></trkpt><trkpt lat="42.7569139" lon="12.8574967"><ele>324.3333333333333</ele><time>2026-04-12T09:04:10.586Z</time></trkpt><trkpt lat="42.7567199" lon="12.8574405"><ele>320.6666666666667</ele><time>2026-04-12T09:04:11.586Z</time></trkpt><trkpt lat="42.7565323" lon="12.8573822"><ele>317.0</ele><time>2026-04-12T09:04:12.588Z</time></trkpt><trkpt lat="42.7563935" lon="12.8572305"><ele>317.0</ele><time>2026-04-12T09:04:13.585Z</time></trkpt><trkpt lat="42.756257" lon="12.8570634"><ele>317.0</ele><time>2026-04-12T09:04:14.584Z</time></trkpt><trkpt lat="42.7561657" lon="12.856786"><ele>317.0</ele><time>2026-04-12T09:04:15.584Z</time></trkpt><trkpt lat="42.7560587" lon="12.8565104"><ele>314.0</ele><time>2026-04-12T09:04:16.586Z</time></trkpt><trkpt lat="42.7559224" lon="12.8562449"><ele>311.0</ele><time>2026-04-12T09:04:17.584Z</time></trkpt><trkpt lat="42.7557428" lon="12.8560117"><ele>321.5</ele><time>2026-04-12T09:04:18.584Z</time></trkpt><trkpt lat="42.7555345" lon="12.8558456"><ele>332.0</ele><time>2026-04-12T09:04:19.583Z</time></trkpt><trkpt lat="42.7553327" lon="12.8556998"><ele>320.5</ele><time>2026-04-12T09:04:20.586Z</time></trkpt><trkpt lat="42.7551127" lon="12.8555875"><ele>309.0</ele><time>2026-04-12T09:04:21.578Z</time></trkpt><trkpt lat="42.7549011" lon="12.8554281"><ele>309.0</ele><time>2026-04-12T09:04:22.583Z</time></trkpt><trkpt lat="42.7547421" lon="12.8551809"><ele>309.0</ele><time>2026-04-12T09:04:23.611Z</time></trkpt><trkpt lat="42.7545943" lon="12.8549063"><ele>310.5</ele><time>2026-04-12T09:04:24.584Z</time></trkpt><trkpt lat="42.7544496" lon="12.854591"><ele>312.0</ele><time>2026-04-12T09:04:25.577Z</time></trkpt><trkpt lat="42.7543268" lon="12.854273"><ele>312.0</ele><time>2026-04-12T09:04:26.575Z</time></trkpt><trkpt lat="42.7542065" lon="12.8539717"><ele>312.0</ele><time>2026-04-12T09:04:27.577Z</time></trkpt><trkpt lat="42.7541455" lon="12.853609"><ele>317.5</ele><time>2026-04-12T09:04:28.578Z</time></trkpt><trkpt lat="42.7540716" lon="12.8532449"><ele>323.0</ele><time>2026-04-12T09:04:29.577Z</time></trkpt><trkpt lat="42.7540041" lon="12.8528734"><ele>325.0</ele><time>2026-04-12T09:04:30.571Z</time></trkpt><trkpt lat="42.75395" lon="12.8525"><ele>327.0</ele><time>2026-04-12T09:04:31.581Z</time></trkpt><trkpt lat="42.7538972" lon="12.8521475"><ele>327.0</ele><time>2026-04-12T09:04:32.574Z</time></trkpt><trkpt lat="42.7538338" lon="12.8518122"><ele>327.0</ele><time>2026-04-12T09:04:33.572Z</time></trkpt><trkpt lat="42.7537479" lon="12.8514934"><ele>332.0</ele><time>2026-04-12T09:04:34.575Z</time></trkpt><trkpt lat="42.7536293" lon="12.8511943"><ele>337.0</ele><time>2026-04-12T09:04:35.572Z</time></trkpt><trkpt lat="42.7534681" lon="12.8509297"><ele>323.0</ele><time>2026-04-12T09:04:36.583Z</time></trkpt><trkpt lat="42.7532778" lon="12.8506912"><ele>309.0</ele><time>2026-04-12T09:04:37.576Z</time></trkpt><trkpt lat="42.7530687" lon="12.8504582"><ele>309.0</ele><time>2026-04-12T09:04:38.574Z</time></trkpt><trkpt lat="42.7528591" lon="12.8502123"><ele>309.0</ele><time>2026-04-12T09:04:39.588Z</time></trkpt><trkpt lat="42.7526552" lon="12.8499561"><ele>306.0</ele><time>2026-04-12T09:04:40.586Z</time></trkpt><trkpt lat="42.7524594" lon="12.8496891"><ele>303.0</ele><time>2026-04-12T09:04:41.592Z</time></trkpt><trkpt lat="42.7522752" lon="12.849425"><ele>310.0</ele><time>2026-04-12T09:04:42.573Z</time></trkpt><trkpt lat="42.7520996" lon="12.8491562"><ele>317.0</ele><time>2026-04-12T09:04:43.574Z</time></trkpt><trkpt lat="42.7519344" lon="12.8488986"><ele>311.0</ele><time>2026-04-12T09:04:44.578Z</time></trkpt><trkpt lat="42.7517787" lon="12.8486418"><ele>305.0</ele><time>2026-04-12T09:04:45.577Z</time></trkpt><trkpt lat="42.7516179" lon="12.8483934"><ele>305.0</ele><time>2026-04-12T09:04:46.577Z</time></trkpt><trkpt lat="42.7514605" lon="12.8481385"><ele>305.0</ele><time>2026-04-12T09:04:47.588Z</time></trkpt><trkpt lat="42.7513117" lon="12.8479001"><ele>305.0</ele><time>2026-04-12T09:04:48.577Z</time></trkpt><trkpt lat="42.7511579" lon="12.8476858"><ele>305.0</ele><time>2026-04-12T09:04:49.579Z</time></trkpt><trkpt lat="42.7509808" lon="12.8475082"><ele>305.0</ele><time>2026-04-12T09:04:50.582Z</time></trkpt><trkpt lat="42.7507744" lon="12.8473939"><ele>305.5</ele><time>2026-04-12T09:04:51.574Z</time></trkpt><trkpt lat="42.7505399" lon="12.8473591"><ele>306.0</ele><time>2026-04-12T09:04:52.599Z</time></trkpt><trkpt lat="42.7502907" lon="12.8473762"><ele>305.5</ele><time>2026-04-12T09:04:53.58Z</time></trkpt><trkpt lat="42.7500309" lon="12.8474152"><ele>305.0</ele><time>2026-04-12T09:04:54.579Z</time></trkpt><trkpt lat="42.7497601" lon="12.8474546"><ele>305.0</ele><time>2026-04-12T09:04:55.573Z</time></trkpt><trkpt lat="42.7494975" lon="12.8474898"><ele>305.0</ele><time>2026-04-12T09:04:56.571Z</time></trkpt><trkpt lat="42.7492486" lon="12.8475253"><ele>308.0</ele><time>2026-04-12T09:04:57.582Z</time></trkpt><trkpt lat="42.7490094" lon="12.8475557"><ele>311.0</ele><time>2026-04-12T09:04:58.579Z</time></trkpt><trkpt lat="42.7487752" lon="12.8475731"><ele>311.0</ele><time>2026-04-12T09:04:59.582Z</time></trkpt><trkpt lat="42.748547" lon="12.8475347"><ele>311.0</ele><time>2026-04-12T09:05:00.578Z</time></trkpt><trkpt lat="42.7483255" lon="12.8474476"><ele>309.6666666666667</ele><time>2026-04-12T09:05:01.578Z</time></trkpt><trkpt lat="42.748121" lon="12.8473332"><ele>308.3333333333333</ele><time>2026-04-12T09:05:02.579Z</time></trkpt><trkpt lat="42.7479378" lon="12.8471955"><ele>307.0</ele><time>2026-04-12T09:05:03.575Z</time></trkpt><trkpt lat="42.7477973" lon="12.8470245"><ele>304.3333333333333</ele><time>2026-04-12T09:05:04.577Z</time></trkpt><trkpt lat="42.7476689" lon="12.8468604"><ele>301.6666666666667</ele><time>2026-04-12T09:05:05.58Z</time></trkpt><trkpt lat="42.7476567" lon="12.846599"><ele>299.0</ele><time>2026-04-12T09:05:06.574Z</time></trkpt><trkpt lat="42.7476524" lon="12.8463263"><ele>310.0</ele><time>2026-04-12T09:05:07.575Z</time></trkpt><trkpt lat="42.7477476" lon="12.8460424"><ele>321.0</ele><time>2026-04-12T09:05:08.572Z</time></trkpt><trkpt lat="42.747888" lon="12.8457822"><ele>321.0</ele><time>2026-04-12T09:05:09.57Z</time></trkpt><trkpt lat="42.7479655" lon="12.8455126"><ele>321.0</ele><time>2026-04-12T09:05:10.578Z</time></trkpt><trkpt lat="42.7479947" lon="12.8452289"><ele>321.0</ele><time>2026-04-12T09:05:11.576Z</time></trkpt><trkpt lat="42.7480265" lon="12.8449509"><ele>323.0</ele><time>2026-04-12T09:05:12.583Z</time></trkpt><trkpt lat="42.7479881" lon="12.8446433"><ele>325.0</ele><time>2026-04-12T09:05:13.576Z</time></trkpt><trkpt lat="42.7479498" lon="12.8443616"><ele>327.0</ele><time>2026-04-12T09:05:14.578Z</time></trkpt><trkpt lat="42.7479135" lon="12.844085"><ele>327.0</ele><time>2026-04-12T09:05:15.575Z</time></trkpt><trkpt lat="42.7478729" lon="12.8437966"><ele>327.0</ele><time>2026-04-12T09:05:16.577Z</time></trkpt><trkpt lat="42.7478357" lon="12.8435084"><ele>327.0</ele><time>2026-04-12T09:05:17.573Z</time></trkpt><trkpt lat="42.7477989" lon="12.8432132"><ele>331.0</ele><time>2026-04-12T09:05:18.581Z</time></trkpt><trkpt lat="42.7477628" lon="12.8429233"><ele>335.0</ele><time>2026-04-12T09:05:19.579Z</time></trkpt><trkpt lat="42.7477232" lon="12.8426329"><ele>339.0</ele><time>2026-04-12T09:05:20.579Z</time></trkpt><trkpt lat="42.7476548" lon="12.8423512"><ele>322.5</ele><time>2026-04-12T09:05:21.603Z</time></trkpt><trkpt lat="42.7475441" lon="12.8420815"><ele>306.0</ele><time>2026-04-12T09:05:22.577Z</time></trkpt><trkpt lat="42.7473989" lon="12.8418384"><ele>309.3333333333333</ele><time>2026-04-12T09:05:23.58Z</time></trkpt><trkpt lat="42.7472369" lon="12.8416255"><ele>312.66666666666663</ele><time>2026-04-12T09:05:24.578Z</time></trkpt><trkpt lat="42.7470749" lon="12.8414332"><ele>316.0</ele><time>2026-04-12T09:05:25.575Z</time></trkpt><trkpt lat="42.746914" lon="12.8412426"><ele>315.3333333333333</ele><time>2026-04-12T09:05:26.59Z</time></trkpt><trkpt lat="42.746747" lon="12.8410454"><ele>314.6666666666667</ele><time>2026-04-12T09:05:27.576Z</time></trkpt><trkpt lat="42.7465739" lon="12.8408448"><ele>314.0</ele><time>2026-04-12T09:05:28.579Z</time></trkpt><trkpt lat="42.7463975" lon="12.8406524"><ele>314.0</ele><time>2026-04-12T09:05:29.576Z</time></trkpt><trkpt lat="42.7462168" lon="12.8404921"><ele>314.0</ele><time>2026-04-12T09:05:30.576Z</time></trkpt><trkpt lat="42.7460161" lon="12.8403753"><ele>314.0</ele><time>2026-04-12T09:05:31.576Z</time></trkpt><trkpt lat="42.7457959" lon="12.8403136"><ele>308.0</ele><time>2026-04-12T09:05:32.578Z</time></trkpt><trkpt lat="42.7455677" lon="12.8403112"><ele>302.0</ele><time>2026-04-12T09:05:33.578Z</time></trkpt><trkpt lat="42.7453455" lon="12.8403332"><ele>302.33333333333337</ele><time>2026-04-12T09:05:34.577Z</time></trkpt><trkpt lat="42.7451339" lon="12.8403858"><ele>302.6666666666667</ele><time>2026-04-12T09:05:35.585Z</time></trkpt><trkpt lat="42.7449367" lon="12.8404509"><ele>303.0</ele><time>2026-04-12T09:05:36.581Z</time></trkpt><trkpt lat="42.7447519" lon="12.8404913"><ele>303.0</ele><time>2026-04-12T09:05:37.575Z</time></trkpt><trkpt lat="42.7445762" lon="12.8405284"><ele>303.0</ele><time>2026-04-12T09:05:38.575Z</time></trkpt><trkpt lat="42.744399" lon="12.8405549"><ele>303.0</ele><time>2026-04-12T09:05:39.574Z</time></trkpt><trkpt lat="42.7442341" lon="12.8405684"><ele>306.6666666666667</ele><time>2026-04-12T09:05:40.584Z</time></trkpt><trkpt lat="42.7440778" lon="12.8405704"><ele>310.33333333333337</ele><time>2026-04-12T09:05:41.579Z</time></trkpt><trkpt lat="42.7439159" lon="12.8405378"><ele>314.0</ele><time>2026-04-12T09:05:42.577Z</time></trkpt><trkpt lat="42.7437443" lon="12.8404886"><ele>314.0</ele><time>2026-04-12T09:05:43.575Z</time></trkpt><trkpt lat="42.7435739" lon="12.8404112"><ele>314.0</ele><time>2026-04-12T09:05:44.57Z</time></trkpt><trkpt lat="42.7434052" lon="12.8402988"><ele>314.0</ele><time>2026-04-12T09:05:45.603Z</time></trkpt><trkpt lat="42.7432457" lon="12.8401521"><ele>313.33333333333337</ele><time>2026-04-12T09:05:46.576Z</time></trkpt><trkpt lat="42.7430921" lon="12.8399896"><ele>312.6666666666667</ele><time>2026-04-12T09:05:47.579Z</time></trkpt><trkpt lat="42.7429497" lon="12.839828"><ele>312.0</ele><time>2026-04-12T09:05:48.577Z</time></trkpt><trkpt lat="42.7428076" lon="12.8396659"><ele>309.0</ele><time>2026-04-12T09:05:49.581Z</time></trkpt><trkpt lat="42.7426724" lon="12.8395048"><ele>306.0</ele><time>2026-04-12T09:05:50.578Z</time></trkpt><trkpt lat="42.7425424" lon="12.8393438"><ele>303.0</ele><time>2026-04-12T09:05:51.582Z</time></trkpt><trkpt lat="42.7424191" lon="12.8391906"><ele>303.0</ele><time>2026-04-12T09:05:52.576Z</time></trkpt><trkpt lat="42.7423014" lon="12.8390523"><ele>303.0</ele><time>2026-04-12T09:05:53.574Z</time></trkpt><trkpt lat="42.7421907" lon="12.8389219"><ele>303.0</ele><time>2026-04-12T09:05:54.579Z</time></trkpt><trkpt lat="42.7420848" lon="12.838799"><ele>303.0</ele><time>2026-04-12T09:05:55.575Z</time></trkpt><trkpt lat="42.7419849" lon="12.8386827"><ele>303.0</ele><time>2026-04-12T09:05:56.587Z</time></trkpt><trkpt lat="42.7418881" lon="12.8385711"><ele>303.0</ele><time>2026-04-12T09:05:57.575Z</time></trkpt><trkpt lat="42.7417917" lon="12.8384652"><ele>303.0</ele><time>2026-04-12T09:05:58.581Z</time></trkpt><trkpt lat="42.7416939" lon="12.8383607"><ele>303.0</ele><time>2026-04-12T09:05:59.577Z</time></trkpt><trkpt lat="42.7415933" lon="12.8382599"><ele>302.0</ele><time>2026-04-12T09:06:00.581Z</time></trkpt><trkpt lat="42.7414923" lon="12.8381632"><ele>301.0</ele><time>2026-04-12T09:06:01.577Z</time></trkpt><trkpt lat="42.7413896" lon="12.8380678"><ele>300.0</ele><time>2026-04-12T09:06:02.581Z</time></trkpt><trkpt lat="42.7412778" lon="12.8379725"><ele>299.0</ele><time>2026-04-12T09:06:03.578Z</time></trkpt><trkpt lat="42.7411584" lon="12.8378755"><ele>298.6666666666667</ele><time>2026-04-12T09:06:04.579Z</time></trkpt><trkpt lat="42.7410298" lon="12.8377746"><ele>298.3333333333333</ele><time>2026-04-12T09:06:05.601Z</time></trkpt><trkpt lat="42.7408898" lon="12.8376704"><ele>298.0</ele><time>2026-04-12T09:06:06.577Z</time></trkpt><trkpt lat="42.7407379" lon="12.8375679"><ele>300.66666666666663</ele><time>2026-04-12T09:06:07.579Z</time></trkpt><trkpt lat="42.7405754" lon="12.8374658"><ele>303.3333333333333</ele><time>2026-04-12T09:06:08.579Z</time></trkpt><trkpt lat="42.7404" lon="12.8373699"><ele>306.0</ele><time>2026-04-12T09:06:09.576Z</time></trkpt><trkpt lat="42.7402223" lon="12.8372843"><ele>302.0</ele><time>2026-04-12T09:06:10.579Z</time></trkpt><trkpt lat="42.7400457" lon="12.8372061"><ele>298.0</ele><time>2026-04-12T09:06:11.583Z</time></trkpt><trkpt lat="42.7398664" lon="12.8371306"><ele>294.0</ele><time>2026-04-12T09:06:12.576Z</time></trkpt><trkpt lat="42.739684" lon="12.8370591"><ele>294.0</ele><time>2026-04-12T09:06:13.58Z</time></trkpt><trkpt lat="42.7394997" lon="12.8369908"><ele>294.0</ele><time>2026-04-12T09:06:14.58Z</time></trkpt><trkpt lat="42.7393143" lon="12.8369228"><ele>294.0</ele><time>2026-04-12T09:06:15.581Z</time></trkpt><trkpt lat="42.7391244" lon="12.8368516"><ele>295.3333333333333</ele><time>2026-04-12T09:06:16.577Z</time></trkpt><trkpt lat="42.7389332" lon="12.8367797"><ele>296.66666666666663</ele><time>2026-04-12T09:06:17.578Z</time></trkpt><trkpt lat="42.7387411" lon="12.836708"><ele>298.0</ele><time>2026-04-12T09:06:18.578Z</time></trkpt><trkpt lat="42.7385495" lon="12.8366377"><ele>298.0</ele><time>2026-04-12T09:06:19.576Z</time></trkpt><trkpt lat="42.7383602" lon="12.8365709"><ele>298.0</ele><time>2026-04-12T09:06:20.598Z</time></trkpt><trkpt lat="42.7381759" lon="12.8365043"><ele>298.0</ele><time>2026-04-12T09:06:21.583Z</time></trkpt><trkpt lat="42.7379969" lon="12.8364385"><ele>298.0</ele><time>2026-04-12T09:06:22.583Z</time></trkpt><trkpt lat="42.7378215" lon="12.8363732"><ele>298.0</ele><time>2026-04-12T09:06:23.58Z</time></trkpt><trkpt lat="42.7376513" lon="12.836309"><ele>298.0</ele><time>2026-04-12T09:06:24.58Z</time></trkpt><trkpt lat="42.7374909" lon="12.8362506"><ele>297.0</ele><time>2026-04-12T09:06:25.583Z</time></trkpt><trkpt lat="42.7373431" lon="12.836195"><ele>296.0</ele><time>2026-04-12T09:06:26.579Z</time></trkpt><trkpt lat="42.7372046" lon="12.8361445"><ele>295.0</ele><time>2026-04-12T09:06:27.579Z</time></trkpt><trkpt lat="42.737074" lon="12.8360944"><ele>294.0</ele><time>2026-04-12T09:06:28.587Z</time></trkpt><trkpt lat="42.7369509" lon="12.836047"><ele>292.5</ele><time>2026-04-12T09:06:29.59Z</time></trkpt><trkpt lat="42.7368289" lon="12.8360011"><ele>291.0</ele><time>2026-04-12T09:06:30.578Z</time></trkpt><trkpt lat="42.7367004" lon="12.8359557"><ele>289.5</ele><time>2026-04-12T09:06:31.581Z</time></trkpt><trkpt lat="42.7365677" lon="12.8359071"><ele>288.0</ele><time>2026-04-12T09:06:32.585Z</time></trkpt><trkpt lat="42.7364331" lon="12.8358507"><ele>288.75</ele><time>2026-04-12T09:06:33.579Z</time></trkpt><trkpt lat="42.7362974" lon="12.8357767"><ele>289.5</ele><time>2026-04-12T09:06:34.582Z</time></trkpt><trkpt lat="42.7361756" lon="12.8356734"><ele>290.25</ele><time>2026-04-12T09:06:35.577Z</time></trkpt><trkpt lat="42.7360637" lon="12.835575"><ele>291.0</ele><time>2026-04-12T09:06:36.59Z</time></trkpt><trkpt lat="42.7359837" lon="12.8354377"><ele>291.0</ele><time>2026-04-12T09:06:37.582Z</time></trkpt><trkpt lat="42.735923" lon="12.8352997"><ele>291.0</ele><time>2026-04-12T09:06:38.577Z</time></trkpt><trkpt lat="42.7358961" lon="12.8351509"><ele>291.0</ele><time>2026-04-12T09:06:39.583Z</time></trkpt><trkpt lat="42.7358906" lon="12.8349965"><ele>291.0</ele><time>2026-04-12T09:06:40.577Z</time></trkpt><trkpt lat="42.7358963" lon="12.8348388"><ele>291.25</ele><time>2026-04-12T09:06:41.607Z</time></trkpt><trkpt lat="42.7359053" lon="12.8346728"><ele>291.5</ele><time>2026-04-12T09:06:42.578Z</time></trkpt><trkpt lat="42.7359237" lon="12.8345014"><ele>291.75</ele><time>2026-04-12T09:06:43.58Z</time></trkpt><trkpt lat="42.7359426" lon="12.8343258"><ele>292.0</ele><time>2026-04-12T09:06:44.578Z</time></trkpt><trkpt lat="42.7359627" lon="12.8341439"><ele>292.0</ele><time>2026-04-12T09:06:45.578Z</time></trkpt><trkpt lat="42.7359819" lon="12.8339527"><ele>292.0</ele><time>2026-04-12T09:06:46.6Z</time></trkpt><trkpt lat="42.7360042" lon="12.8337502"><ele>292.0</ele><time>2026-04-12T09:06:47.575Z</time></trkpt><trkpt lat="42.7360299" lon="12.8335436"><ele>292.0</ele><time>2026-04-12T09:06:48.577Z</time></trkpt><trkpt lat="42.7360505" lon="12.8333282"><ele>293.0</ele><time>2026-04-12T09:06:49.577Z</time></trkpt><trkpt lat="42.7360694" lon="12.8331045"><ele>294.0</ele><time>2026-04-12T09:06:50.577Z</time></trkpt><trkpt lat="42.736084" lon="12.8328745"><ele>295.0</ele><time>2026-04-12T09:06:51.577Z</time></trkpt><trkpt lat="42.7360927" lon="12.8326483"><ele>294.0</ele><time>2026-04-12T09:06:52.575Z</time></trkpt><trkpt lat="42.7360954" lon="12.8324303"><ele>293.0</ele><time>2026-04-12T09:06:53.581Z</time></trkpt><trkpt lat="42.7360923" lon="12.832217"><ele>292.0</ele><time>2026-04-12T09:06:54.577Z</time></trkpt><trkpt lat="42.736085" lon="12.8320103"><ele>292.0</ele><time>2026-04-12T09:06:55.587Z</time></trkpt><trkpt lat="42.736072" lon="12.8318114"><ele>292.0</ele><time>2026-04-12T09:06:56.58Z</time></trkpt><trkpt lat="42.7360584" lon="12.8316212"><ele>292.0</ele><time>2026-04-12T09:06:57.58Z</time></trkpt><trkpt lat="42.7360488" lon="12.8314565"><ele>292.0</ele><time>2026-04-12T09:06:58.579Z</time></trkpt><trkpt lat="42.7360416" lon="12.8313119"><ele>291.75</ele><time>2026-04-12T09:06:59.575Z</time></trkpt><trkpt lat="42.7360359" lon="12.831198"><ele>291.5</ele><time>2026-04-12T09:07:00.577Z</time></trkpt><trkpt lat="42.7360262" lon="12.8310528"><ele>291.25</ele><time>2026-04-12T09:07:02.587Z</time></trkpt><trkpt lat="42.7359996" lon="12.8308726"><ele>291.0</ele><time>2026-04-12T09:08:16.583Z</time></trkpt><trkpt lat="42.7359732" lon="12.8307065"><ele>291.0</ele><time>2026-04-12T09:08:18.58Z</time></trkpt><trkpt lat="42.7359626" lon="12.8305639"><ele>291.0</ele><time>2026-04-12T09:08:19.584Z</time></trkpt><trkpt lat="42.7359645" lon="12.8303958"><ele>291.0</ele><time>2026-04-12T09:08:20.581Z</time></trkpt><trkpt lat="42.7359838" lon="12.8302094"><ele>291.0</ele><time>2026-04-12T09:08:21.577Z</time></trkpt><trkpt lat="42.7360268" lon="12.8300191"><ele>292.3333333333333</ele><time>2026-04-12T09:08:22.578Z</time></trkpt><trkpt lat="42.7360961" lon="12.829832"><ele>293.66666666666663</ele><time>2026-04-12T09:08:23.58Z</time></trkpt><trkpt lat="42.7361925" lon="12.8296528"><ele>295.0</ele><time>2026-04-12T09:08:24.579Z</time></trkpt><trkpt lat="42.7363151" lon="12.8294971"><ele>295.0</ele><time>2026-04-12T09:08:25.602Z</time></trkpt><trkpt lat="42.7364626" lon="12.8293667"><ele>295.0</ele><time>2026-04-12T09:08:26.574Z</time></trkpt><trkpt lat="42.7366259" lon="12.8292553"><ele>295.0</ele><time>2026-04-12T09:08:27.577Z</time></trkpt><trkpt lat="42.7367976" lon="12.8291554"><ele>297.3333333333333</ele><time>2026-04-12T09:08:28.574Z</time></trkpt><trkpt lat="42.7369708" lon="12.8290554"><ele>299.6666666666667</ele><time>2026-04-12T09:08:29.58Z</time></trkpt><trkpt lat="42.7371405" lon="12.8289491"><ele>302.0</ele><time>2026-04-12T09:08:30.587Z</time></trkpt><trkpt lat="42.737308" lon="12.8288392"><ele>302.0</ele><time>2026-04-12T09:08:31.58Z</time></trkpt><trkpt lat="42.7374716" lon="12.8287307"><ele>302.0</ele><time>2026-04-12T09:08:32.577Z</time></trkpt><trkpt lat="42.7376331" lon="12.8286263"><ele>302.0</ele><time>2026-04-12T09:08:33.576Z</time></trkpt><trkpt lat="42.7377934" lon="12.828523"><ele>303.0</ele><time>2026-04-12T09:08:34.58Z</time></trkpt><trkpt lat="42.7379508" lon="12.8284191"><ele>304.0</ele><time>2026-04-12T09:08:35.573Z</time></trkpt><trkpt lat="42.7381064" lon="12.8283182"><ele>305.0</ele><time>2026-04-12T09:08:36.576Z</time></trkpt><trkpt lat="42.7382622" lon="12.8282228"><ele>305.0</ele><time>2026-04-12T09:08:37.583Z</time></trkpt><trkpt lat="42.7384222" lon="12.828129"><ele>305.0</ele><time>2026-04-12T09:08:38.582Z</time></trkpt><trkpt lat="42.738585" lon="12.828037"><ele>305.0</ele><time>2026-04-12T09:08:39.613Z</time></trkpt><trkpt lat="42.738745" lon="12.8279475"><ele>306.0</ele><time>2026-04-12T09:08:40.584Z</time></trkpt><trkpt lat="42.7388981" lon="12.8278619"><ele>307.0</ele><time>2026-04-12T09:08:41.584Z</time></trkpt><trkpt lat="42.739048" lon="12.8277794"><ele>308.0</ele><time>2026-04-12T09:08:42.577Z</time></trkpt><trkpt lat="42.7391985" lon="12.8276961"><ele>309.33333333333337</ele><time>2026-04-12T09:08:43.585Z</time></trkpt><trkpt lat="42.7393522" lon="12.8276112"><ele>310.6666666666667</ele><time>2026-04-12T09:08:44.585Z</time></trkpt><trkpt lat="42.7395093" lon="12.827525"><ele>312.0</ele><time>2026-04-12T09:08:45.582Z</time></trkpt><trkpt lat="42.7396691" lon="12.827436"><ele>312.6666666666667</ele><time>2026-04-12T09:08:46.575Z</time></trkpt><trkpt lat="42.7398304" lon="12.8273458"><ele>313.33333333333337</ele><time>2026-04-12T09:08:47.582Z</time></trkpt><trkpt lat="42.7399915" lon="12.8272544"><ele>314.0</ele><time>2026-04-12T09:08:48.575Z</time></trkpt><trkpt lat="42.7401519" lon="12.8271603"><ele>317.0</ele><time>2026-04-12T09:08:49.586Z</time></trkpt><trkpt lat="42.740309" lon="12.8270638"><ele>320.0</ele><time>2026-04-12T09:08:50.581Z</time></trkpt><trkpt lat="42.7404694" lon="12.8269562"><ele>323.0</ele><time>2026-04-12T09:08:51.58Z</time></trkpt><trkpt lat="42.7406361" lon="12.8268336"><ele>323.0</ele><time>2026-04-12T09:08:52.578Z</time></trkpt><trkpt lat="42.7408093" lon="12.8266999"><ele>323.0</ele><time>2026-04-12T09:08:53.585Z</time></trkpt><trkpt lat="42.7409828" lon="12.8265567"><ele>323.0</ele><time>2026-04-12T09:08:54.577Z</time></trkpt><trkpt lat="42.7411608" lon="12.8264042"><ele>323.0</ele><time>2026-04-12T09:08:55.577Z</time></trkpt><trkpt lat="42.7413484" lon="12.8262511"><ele>323.0</ele><time>2026-04-12T09:08:56.576Z</time></trkpt><trkpt lat="42.7415373" lon="12.8260837"><ele>323.0</ele><time>2026-04-12T09:08:57.586Z</time></trkpt><trkpt lat="42.7417177" lon="12.8258964"><ele>326.0</ele><time>2026-04-12T09:08:58.581Z</time></trkpt><trkpt lat="42.74189" lon="12.825691"><ele>329.0</ele><time>2026-04-12T09:08:59.584Z</time></trkpt><trkpt lat="42.7420589" lon="12.8254748"><ele>329.0</ele><time>2026-04-12T09:09:00.581Z</time></trkpt><trkpt lat="42.7422205" lon="12.825247"><ele>329.0</ele><time>2026-04-12T09:09:01.574Z</time></trkpt><trkpt lat="42.7423776" lon="12.8250112"><ele>335.0</ele><time>2026-04-12T09:09:02.603Z</time></trkpt><trkpt lat="42.7425239" lon="12.8247662"><ele>341.0</ele><time>2026-04-12T09:09:03.58Z</time></trkpt><trkpt lat="42.7426707" lon="12.82452"><ele>353.5</ele><time>2026-04-12T09:09:04.579Z</time></trkpt><trkpt lat="42.7427852" lon="12.8242465"><ele>366.0</ele><time>2026-04-12T09:09:05.573Z</time></trkpt><trkpt lat="42.7540426" lon="12.7779857"><ele>366.0</ele><time>2026-04-12T09:11:35.548Z</time></trkpt><trkpt lat="42.7541983" lon="12.7777308"><ele>366.0</ele><time>2026-04-12T09:11:36.577Z</time></trkpt><trkpt lat="42.7543611" lon="12.7775251"><ele>361.0</ele><time>2026-04-12T09:11:37.581Z</time></trkpt><trkpt lat="42.7545268" lon="12.7773084"><ele>356.0</ele><time>2026-04-12T09:11:38.583Z</time></trkpt><trkpt lat="42.7547059" lon="12.7771109"><ele>356.0</ele><time>2026-04-12T09:11:39.606Z</time></trkpt><trkpt lat="42.7548845" lon="12.7769104"><ele>356.0</ele><time>2026-04-12T09:11:40.578Z</time></trkpt><trkpt lat="42.7550728" lon="12.7767247"><ele>349.5</ele><time>2026-04-12T09:11:41.581Z</time></trkpt><trkpt lat="42.7552595" lon="12.7765391"><ele>343.0</ele><time>2026-04-12T09:11:42.579Z</time></trkpt><trkpt lat="42.7554574" lon="12.7763661"><ele>343.0</ele><time>2026-04-12T09:11:43.579Z</time></trkpt><trkpt lat="42.7556423" lon="12.7761785"><ele>343.0</ele><time>2026-04-12T09:11:44.58Z</time></trkpt><trkpt lat="42.7558453" lon="12.7760061"><ele>339.0</ele><time>2026-04-12T09:11:45.577Z</time></trkpt><trkpt lat="42.7560445" lon="12.7758453"><ele>335.0</ele><time>2026-04-12T09:11:46.617Z</time></trkpt><trkpt lat="42.7562448" lon="12.7756864"><ele>335.0</ele><time>2026-04-12T09:11:47.579Z</time></trkpt><trkpt lat="42.7564557" lon="12.7755223"><ele>335.0</ele><time>2026-04-12T09:11:48.579Z</time></trkpt><trkpt lat="42.756668" lon="12.7753517"><ele>332.5</ele><time>2026-04-12T09:11:49.577Z</time></trkpt><trkpt lat="42.7568845" lon="12.7751724"><ele>330.0</ele><time>2026-04-12T09:11:50.585Z</time></trkpt><trkpt lat="42.7570864" lon="12.7750083"><ele>330.0</ele><time>2026-04-12T09:11:51.578Z</time></trkpt><trkpt lat="42.7572919" lon="12.7748428"><ele>330.0</ele><time>2026-04-12T09:11:52.6Z</time></trkpt><trkpt lat="42.7575048" lon="12.7746708"><ele>327.0</ele><time>2026-04-12T09:11:53.582Z</time></trkpt><trkpt lat="42.7577203" lon="12.7744949"><ele>324.0</ele><time>2026-04-12T09:11:54.585Z</time></trkpt><trkpt lat="42.75794" lon="12.7743127"><ele>322.0</ele><time>2026-04-12T09:11:55.582Z</time></trkpt><trkpt lat="42.758163" lon="12.7741339"><ele>320.0</ele><time>2026-04-12T09:11:56.586Z</time></trkpt><trkpt lat="42.7583813" lon="12.7739544"><ele>320.0</ele><time>2026-04-12T09:11:57.581Z</time></trkpt><trkpt lat="42.758615" lon="12.7737614"><ele>320.0</ele><time>2026-04-12T09:11:58.576Z</time></trkpt><trkpt lat="42.7588479" lon="12.773572"><ele>319.0</ele><time>2026-04-12T09:11:59.603Z</time></trkpt><trkpt lat="42.7590842" lon="12.7733861"><ele>318.0</ele><time>2026-04-12T09:12:00.58Z</time></trkpt><trkpt lat="42.7593204" lon="12.7732038"><ele>316.0</ele><time>2026-04-12T09:12:01.58Z</time></trkpt><trkpt lat="42.759562" lon="12.7730284"><ele>314.0</ele><time>2026-04-12T09:12:02.582Z</time></trkpt><trkpt lat="42.7598089" lon="12.7728541"><ele>314.0</ele><time>2026-04-12T09:12:03.582Z</time></trkpt><trkpt lat="42.7600556" lon="12.7726877"><ele>314.0</ele><time>2026-04-12T09:12:04.578Z</time></trkpt><trkpt lat="42.7603043" lon="12.7725287"><ele>311.5</ele><time>2026-04-12T09:12:05.592Z</time></trkpt><trkpt lat="42.7605511" lon="12.772378"><ele>309.0</ele><time>2026-04-12T09:12:06.587Z</time></trkpt><trkpt lat="42.7608126" lon="12.772238"><ele>306.5</ele><time>2026-04-12T09:12:07.579Z</time></trkpt><trkpt lat="42.761069" lon="12.7721063"><ele>304.0</ele><time>2026-04-12T09:12:08.587Z</time></trkpt><trkpt lat="42.7613233" lon="12.7719713"><ele>303.0</ele><time>2026-04-12T09:12:09.587Z</time></trkpt><trkpt lat="42.7615855" lon="12.7718436"><ele>302.0</ele><time>2026-04-12T09:12:10.584Z</time></trkpt><trkpt lat="42.7618414" lon="12.7717275"><ele>300.5</ele><time>2026-04-12T09:12:11.578Z</time></trkpt><trkpt lat="42.7620903" lon="12.7716205"><ele>299.0</ele><time>2026-04-12T09:12:12.61Z</time></trkpt><trkpt lat="42.762331" lon="12.7715267"><ele>299.0</ele><time>2026-04-12T09:12:13.583Z</time></trkpt><trkpt lat="42.7625728" lon="12.7714234"><ele>299.0</ele><time>2026-04-12T09:12:14.582Z</time></trkpt><trkpt lat="42.7628246" lon="12.7712954"><ele>296.5</ele><time>2026-04-12T09:12:15.584Z</time></trkpt><trkpt lat="42.7630494" lon="12.7711741"><ele>294.0</ele><time>2026-04-12T09:12:16.579Z</time></trkpt><trkpt lat="42.7632608" lon="12.7710402"><ele>294.5</ele><time>2026-04-12T09:12:17.576Z</time></trkpt><trkpt lat="42.7634629" lon="12.7709009"><ele>295.0</ele><time>2026-04-12T09:12:18.584Z</time></trkpt><trkpt lat="42.7636649" lon="12.7707568"><ele>293.0</ele><time>2026-04-12T09:12:19.586Z</time></trkpt><trkpt lat="42.7638675" lon="12.7706066"><ele>291.0</ele><time>2026-04-12T09:12:20.585Z</time></trkpt><trkpt lat="42.764069" lon="12.7704505"><ele>291.0</ele><time>2026-04-12T09:12:21.578Z</time></trkpt><trkpt lat="42.7642619" lon="12.7702797"><ele>291.0</ele><time>2026-04-12T09:12:22.581Z</time></trkpt><trkpt lat="42.764453" lon="12.7700924"><ele>289.0</ele><time>2026-04-12T09:12:23.587Z</time></trkpt><trkpt lat="42.7646248" lon="12.7699104"><ele>287.0</ele><time>2026-04-12T09:12:24.58Z</time></trkpt><trkpt lat="42.764791" lon="12.7697335"><ele>285.0</ele><time>2026-04-12T09:12:25.635Z</time></trkpt><trkpt lat="42.7649519" lon="12.7695642"><ele>285.0</ele><time>2026-04-12T09:12:26.581Z</time></trkpt><trkpt lat="42.7651056" lon="12.7694014"><ele>285.0</ele><time>2026-04-12T09:12:27.585Z</time></trkpt><trkpt lat="42.765255" lon="12.7692426"><ele>285.0</ele><time>2026-04-12T09:12:28.58Z</time></trkpt><trkpt lat="42.7653997" lon="12.7690882"><ele>283.3333333333333</ele><time>2026-04-12T09:12:29.582Z</time></trkpt><trkpt lat="42.7655513" lon="12.7689287"><ele>281.66666666666663</ele><time>2026-04-12T09:12:30.583Z</time></trkpt><trkpt lat="42.7656963" lon="12.7687674"><ele>280.0</ele><time>2026-04-12T09:12:31.584Z</time></trkpt><trkpt lat="42.7658492" lon="12.768608"><ele>280.3333333333333</ele><time>2026-04-12T09:12:32.58Z</time></trkpt><trkpt lat="42.7660061" lon="12.7684466"><ele>280.6666666666667</ele><time>2026-04-12T09:12:33.582Z</time></trkpt><trkpt lat="42.7661515" lon="12.7683011"><ele>281.0</ele><time>2026-04-12T09:12:34.58Z</time></trkpt><trkpt lat="42.7662984" lon="12.7681418"><ele>280.0</ele><time>2026-04-12T09:12:35.578Z</time></trkpt><trkpt lat="42.7664403" lon="12.7679868"><ele>279.0</ele><time>2026-04-12T09:12:36.579Z</time></trkpt><trkpt lat="42.766578" lon="12.7678186"><ele>278.0</ele><time>2026-04-12T09:12:37.577Z</time></trkpt><trkpt lat="42.7667282" lon="12.7676586"><ele>277.0</ele><time>2026-04-12T09:12:38.578Z</time></trkpt><trkpt lat="42.7668846" lon="12.7675004"><ele>276.0</ele><time>2026-04-12T09:12:39.579Z</time></trkpt><trkpt lat="42.7670351" lon="12.7673311"><ele>275.0</ele><time>2026-04-12T09:12:40.602Z</time></trkpt><trkpt lat="42.7671924" lon="12.767161"><ele>275.0</ele><time>2026-04-12T09:12:41.582Z</time></trkpt><trkpt lat="42.7673516" lon="12.7669863"><ele>275.0</ele><time>2026-04-12T09:12:42.587Z</time></trkpt><trkpt lat="42.7675162" lon="12.7668039"><ele>275.0</ele><time>2026-04-12T09:12:43.577Z</time></trkpt><trkpt lat="42.7676843" lon="12.7666145"><ele>274.5</ele><time>2026-04-12T09:12:44.582Z</time></trkpt><trkpt lat="42.7678559" lon="12.7664157"><ele>274.0</ele><time>2026-04-12T09:12:45.574Z</time></trkpt><trkpt lat="42.7680298" lon="12.7662051"><ele>273.5</ele><time>2026-04-12T09:12:46.577Z</time></trkpt><trkpt lat="42.7682046" lon="12.7659855"><ele>273.0</ele><time>2026-04-12T09:12:47.596Z</time></trkpt><trkpt lat="42.7683702" lon="12.765744"><ele>272.5</ele><time>2026-04-12T09:12:48.573Z</time></trkpt><trkpt lat="42.7685476" lon="12.7655019"><ele>272.0</ele><time>2026-04-12T09:12:49.582Z</time></trkpt><trkpt lat="42.7687187" lon="12.7652501"><ele>270.5</ele><time>2026-04-12T09:12:50.576Z</time></trkpt><trkpt lat="42.7688753" lon="12.7649846"><ele>269.0</ele><time>2026-04-12T09:12:51.58Z</time></trkpt><trkpt lat="42.7690243" lon="12.7647079"><ele>269.0</ele><time>2026-04-12T09:12:52.578Z</time></trkpt><trkpt lat="42.7691686" lon="12.7644295"><ele>269.0</ele><time>2026-04-12T09:12:53.579Z</time></trkpt><trkpt lat="42.7693073" lon="12.7641499"><ele>266.5</ele><time>2026-04-12T09:12:54.573Z</time></trkpt><trkpt lat="42.769441" lon="12.7638728"><ele>264.0</ele><time>2026-04-12T09:12:55.574Z</time></trkpt><trkpt lat="42.7695694" lon="12.7635957"><ele>261.5</ele><time>2026-04-12T09:12:56.575Z</time></trkpt><trkpt lat="42.7696924" lon="12.7633201"><ele>259.0</ele><time>2026-04-12T09:12:57.577Z</time></trkpt><trkpt lat="42.7698133" lon="12.7630483"><ele>259.0</ele><time>2026-04-12T09:12:58.581Z</time></trkpt><trkpt lat="42.7699328" lon="12.7627754"><ele>259.0</ele><time>2026-04-12T09:12:59.573Z</time></trkpt><trkpt lat="42.7700518" lon="12.7625007"><ele>259.0</ele><time>2026-04-12T09:13:00.579Z</time></trkpt><trkpt lat="42.7701721" lon="12.762227"><ele>259.0</ele><time>2026-04-12T09:13:01.573Z</time></trkpt><trkpt lat="42.770293" lon="12.7619533"><ele>259.5</ele><time>2026-04-12T09:13:02.575Z</time></trkpt><trkpt lat="42.7704139" lon="12.7616824"><ele>260.0</ele><time>2026-04-12T09:13:03.576Z</time></trkpt><trkpt lat="42.7705319" lon="12.7614161"><ele>260.0</ele><time>2026-04-12T09:13:04.577Z</time></trkpt><trkpt lat="42.7706449" lon="12.7611599"><ele>260.0</ele><time>2026-04-12T09:13:05.574Z</time></trkpt><trkpt lat="42.7707562" lon="12.7609065"><ele>260.0</ele><time>2026-04-12T09:13:06.583Z</time></trkpt><trkpt lat="42.7708675" lon="12.7606548"><ele>259.6666666666667</ele><time>2026-04-12T09:13:07.578Z</time></trkpt><trkpt lat="42.770979" lon="12.7604012"><ele>259.3333333333333</ele><time>2026-04-12T09:13:08.573Z</time></trkpt><trkpt lat="42.7710902" lon="12.7601474"><ele>259.0</ele><time>2026-04-12T09:13:09.585Z</time></trkpt><trkpt lat="42.7712016" lon="12.7598934"><ele>257.66666666666663</ele><time>2026-04-12T09:13:10.577Z</time></trkpt><trkpt lat="42.7713114" lon="12.7596376"><ele>256.3333333333333</ele><time>2026-04-12T09:13:11.595Z</time></trkpt><trkpt lat="42.7714194" lon="12.759379"><ele>255.0</ele><time>2026-04-12T09:13:12.579Z</time></trkpt><trkpt lat="42.7715243" lon="12.7591187"><ele>254.66666666666669</ele><time>2026-04-12T09:13:13.579Z</time></trkpt><trkpt lat="42.7716271" lon="12.7588558"><ele>254.33333333333334</ele><time>2026-04-12T09:13:14.582Z</time></trkpt><trkpt lat="42.7717263" lon="12.7585926"><ele>254.0</ele><time>2026-04-12T09:13:15.578Z</time></trkpt><trkpt lat="42.7718178" lon="12.758335"><ele>254.33333333333334</ele><time>2026-04-12T09:13:16.607Z</time></trkpt><trkpt lat="42.7719026" lon="12.7580796"><ele>254.66666666666669</ele><time>2026-04-12T09:13:17.578Z</time></trkpt><trkpt lat="42.7719814" lon="12.7578237"><ele>255.0</ele><time>2026-04-12T09:13:18.579Z</time></trkpt><trkpt lat="42.7720553" lon="12.7575635"><ele>255.0</ele><time>2026-04-12T09:13:19.58Z</time></trkpt><trkpt lat="42.7721264" lon="12.7572924"><ele>255.0</ele><time>2026-04-12T09:13:20.579Z</time></trkpt><trkpt lat="42.7721944" lon="12.7570093"><ele>255.0</ele><time>2026-04-12T09:13:21.592Z</time></trkpt><trkpt lat="42.7722574" lon="12.7567171"><ele>254.5</ele><time>2026-04-12T09:13:22.578Z</time></trkpt><trkpt lat="42.7723146" lon="12.756418"><ele>254.0</ele><time>2026-04-12T09:13:23.581Z</time></trkpt><trkpt lat="42.7723662" lon="12.7561138"><ele>254.5</ele><time>2026-04-12T09:13:24.578Z</time></trkpt><trkpt lat="42.7724095" lon="12.7558057"><ele>255.0</ele><time>2026-04-12T09:13:25.578Z</time></trkpt><trkpt lat="42.7724421" lon="12.7554929"><ele>255.5</ele><time>2026-04-12T09:13:26.583Z</time></trkpt><trkpt lat="42.7724756" lon="12.7551765"><ele>256.0</ele><time>2026-04-12T09:13:27.585Z</time></trkpt><trkpt lat="42.7724972" lon="12.7548522"><ele>256.0</ele><time>2026-04-12T09:13:28.58Z</time></trkpt><trkpt lat="42.7725015" lon="12.754528"><ele>256.0</ele><time>2026-04-12T09:13:29.584Z</time></trkpt><trkpt lat="42.7724995" lon="12.7541953"><ele>255.5</ele><time>2026-04-12T09:13:30.578Z</time></trkpt><trkpt lat="42.7724956" lon="12.7538688"><ele>255.0</ele><time>2026-04-12T09:13:31.577Z</time></trkpt><trkpt lat="42.7724864" lon="12.7535356"><ele>254.0</ele><time>2026-04-12T09:13:32.582Z</time></trkpt><trkpt lat="42.7724735" lon="12.7531997"><ele>253.0</ele><time>2026-04-12T09:13:33.583Z</time></trkpt><trkpt lat="42.7724521" lon="12.7528669"><ele>254.0</ele><time>2026-04-12T09:13:34.579Z</time></trkpt><trkpt lat="42.772427" lon="12.752534"><ele>255.0</ele><time>2026-04-12T09:13:35.583Z</time></trkpt><trkpt lat="42.7724017" lon="12.7522024"><ele>255.0</ele><time>2026-04-12T09:13:36.578Z</time></trkpt><trkpt lat="42.7723731" lon="12.7518741"><ele>255.0</ele><time>2026-04-12T09:13:37.605Z</time></trkpt><trkpt lat="42.7723453" lon="12.7515518"><ele>254.5</ele><time>2026-04-12T09:13:38.584Z</time></trkpt><trkpt lat="42.7723165" lon="12.7512347"><ele>254.0</ele><time>2026-04-12T09:13:39.578Z</time></trkpt><trkpt lat="42.7722845" lon="12.7509169"><ele>252.5</ele><time>2026-04-12T09:13:40.578Z</time></trkpt><trkpt lat="42.7722549" lon="12.7505982"><ele>251.0</ele><time>2026-04-12T09:13:41.581Z</time></trkpt><trkpt lat="42.7722259" lon="12.7502778"><ele>250.5</ele><time>2026-04-12T09:13:42.582Z</time></trkpt><trkpt lat="42.7721973" lon="12.7499577"><ele>250.0</ele><time>2026-04-12T09:13:43.581Z</time></trkpt><trkpt lat="42.7721679" lon="12.7496404"><ele>250.0</ele><time>2026-04-12T09:13:44.607Z</time></trkpt><trkpt lat="42.7721393" lon="12.7493241"><ele>250.0</ele><time>2026-04-12T09:13:45.58Z</time></trkpt><trkpt lat="42.7721112" lon="12.749012"><ele>250.0</ele><time>2026-04-12T09:13:46.583Z</time></trkpt><trkpt lat="42.7720829" lon="12.7486845"><ele>250.0</ele><time>2026-04-12T09:13:47.578Z</time></trkpt><trkpt lat="42.7720563" lon="12.7483566"><ele>250.0</ele><time>2026-04-12T09:13:48.577Z</time></trkpt><trkpt lat="42.7720257" lon="12.7480327"><ele>250.0</ele><time>2026-04-12T09:13:49.584Z</time></trkpt><trkpt lat="42.7719935" lon="12.7477025"><ele>249.0</ele><time>2026-04-12T09:13:50.583Z</time></trkpt><trkpt lat="42.7719651" lon="12.7473709"><ele>248.0</ele><time>2026-04-12T09:13:51.602Z</time></trkpt><trkpt lat="42.7719302" lon="12.7470301"><ele>247.0</ele><time>2026-04-12T09:13:52.584Z</time></trkpt><trkpt lat="42.7718978" lon="12.7466852"><ele>246.0</ele><time>2026-04-12T09:13:53.586Z</time></trkpt><trkpt lat="42.7718664" lon="12.7463417"><ele>248.0</ele><time>2026-04-12T09:13:54.582Z</time></trkpt><trkpt lat="42.7718341" lon="12.7459945"><ele>250.0</ele><time>2026-04-12T09:13:55.583Z</time></trkpt><trkpt lat="42.7718015" lon="12.745647"><ele>250.0</ele><time>2026-04-12T09:13:56.581Z</time></trkpt><trkpt lat="42.7717685" lon="12.7452968"><ele>250.0</ele><time>2026-04-12T09:13:57.58Z</time></trkpt><trkpt lat="42.7717364" lon="12.7449442"><ele>249.5</ele><time>2026-04-12T09:13:58.599Z</time></trkpt><trkpt lat="42.7717047" lon="12.7445922"><ele>249.0</ele><time>2026-04-12T09:13:59.585Z</time></trkpt><trkpt lat="42.7716724" lon="12.7442434"><ele>249.0</ele><time>2026-04-12T09:14:00.588Z</time></trkpt><trkpt lat="42.77164" lon="12.7438875"><ele>249.0</ele><time>2026-04-12T09:14:01.582Z</time></trkpt><trkpt lat="42.7716069" lon="12.7435284"><ele>249.5</ele><time>2026-04-12T09:14:02.586Z</time></trkpt><trkpt lat="42.7715706" lon="12.7431712"><ele>250.0</ele><time>2026-04-12T09:14:03.579Z</time></trkpt><trkpt lat="42.7715405" lon="12.7428158"><ele>249.5</ele><time>2026-04-12T09:14:04.582Z</time></trkpt><trkpt lat="42.7715048" lon="12.7424558"><ele>249.0</ele><time>2026-04-12T09:14:05.581Z</time></trkpt><trkpt lat="42.7714746" lon="12.7420962"><ele>248.5</ele><time>2026-04-12T09:14:06.576Z</time></trkpt><trkpt lat="42.7714412" lon="12.741738"><ele>248.0</ele><time>2026-04-12T09:14:07.59Z</time></trkpt><trkpt lat="42.7714078" lon="12.7413827"><ele>248.0</ele><time>2026-04-12T09:14:08.582Z</time></trkpt><trkpt lat="42.7713746" lon="12.7410295"><ele>248.0</ele><time>2026-04-12T09:14:09.581Z</time></trkpt><trkpt lat="42.7713426" lon="12.7406772"><ele>248.0</ele><time>2026-04-12T09:14:10.575Z</time></trkpt><trkpt lat="42.771311" lon="12.7403253"><ele>248.0</ele><time>2026-04-12T09:14:11.575Z</time></trkpt><trkpt lat="42.7712785" lon="12.7399754"><ele>248.0</ele><time>2026-04-12T09:14:12.58Z</time></trkpt><trkpt lat="42.7712474" lon="12.7396298"><ele>248.0</ele><time>2026-04-12T09:14:13.578Z</time></trkpt><trkpt lat="42.7712161" lon="12.7392892"><ele>248.0</ele><time>2026-04-12T09:14:14.608Z</time></trkpt><trkpt lat="42.7711848" lon="12.7389508"><ele>248.0</ele><time>2026-04-12T09:14:15.59Z</time></trkpt><trkpt lat="42.7711547" lon="12.7386154"><ele>250.5</ele><time>2026-04-12T09:14:16.579Z</time></trkpt><trkpt lat="42.7711301" lon="12.7382928"><ele>253.0</ele><time>2026-04-12T09:14:17.583Z</time></trkpt><trkpt lat="42.7710974" lon="12.7379669"><ele>256.5</ele><time>2026-04-12T09:14:18.583Z</time></trkpt><trkpt lat="42.7710721" lon="12.737648"><ele>260.0</ele><time>2026-04-12T09:14:19.587Z</time></trkpt><trkpt lat="42.7710429" lon="12.7373311"><ele>258.5</ele><time>2026-04-12T09:14:20.584Z</time></trkpt><trkpt lat="42.7710109" lon="12.7370221"><ele>257.0</ele><time>2026-04-12T09:14:21.614Z</time></trkpt><trkpt lat="42.7709794" lon="12.7367168"><ele>261.0</ele><time>2026-04-12T09:14:22.582Z</time></trkpt><trkpt lat="42.7709508" lon="12.7364134"><ele>265.0</ele><time>2026-04-12T09:14:23.586Z</time></trkpt><trkpt lat="42.7709264" lon="12.7361068"><ele>268.66666666666663</ele><time>2026-04-12T09:14:24.588Z</time></trkpt><trkpt lat="42.7708921" lon="12.7358115"><ele>272.3333333333333</ele><time>2026-04-12T09:14:25.587Z</time></trkpt><trkpt lat="42.7708571" lon="12.7355173"><ele>276.0</ele><time>2026-04-12T09:14:26.586Z</time></trkpt><trkpt lat="42.7708182" lon="12.7352137"><ele>276.6666666666667</ele><time>2026-04-12T09:14:27.575Z</time></trkpt><trkpt lat="42.770787" lon="12.7349137"><ele>277.33333333333337</ele><time>2026-04-12T09:14:28.578Z</time></trkpt><trkpt lat="42.7707453" lon="12.7346217"><ele>278.0</ele><time>2026-04-12T09:14:29.582Z</time></trkpt><trkpt lat="42.7706582" lon="12.7343439"><ele>274.0</ele><time>2026-04-12T09:14:30.585Z</time></trkpt><trkpt lat="42.7705652" lon="12.7340486"><ele>270.0</ele><time>2026-04-12T09:14:31.582Z</time></trkpt><trkpt lat="42.7704782" lon="12.7337653"><ele>265.5</ele><time>2026-04-12T09:14:32.601Z</time></trkpt><trkpt lat="42.7703625" lon="12.7334799"><ele>261.0</ele><time>2026-04-12T09:14:33.583Z</time></trkpt><trkpt lat="42.7702427" lon="12.7331963"><ele>261.0</ele><time>2026-04-12T09:14:34.582Z</time></trkpt><trkpt lat="42.7701205" lon="12.7329236"><ele>261.0</ele><time>2026-04-12T09:14:35.583Z</time></trkpt><trkpt lat="42.7699891" lon="12.7326699"><ele>261.0</ele><time>2026-04-12T09:14:36.582Z</time></trkpt><trkpt lat="42.7698545" lon="12.7324253"><ele>261.0</ele><time>2026-04-12T09:14:37.581Z</time></trkpt><trkpt lat="42.7697137" lon="12.7321942"><ele>261.0</ele><time>2026-04-12T09:14:38.581Z</time></trkpt><trkpt lat="42.769558" lon="12.7319755"><ele>261.0</ele><time>2026-04-12T09:14:39.585Z</time></trkpt><trkpt lat="42.7693933" lon="12.7317673"><ele>261.0</ele><time>2026-04-12T09:14:40.578Z</time></trkpt><trkpt lat="42.769226" lon="12.7315597"><ele>262.5</ele><time>2026-04-12T09:14:41.64Z</time></trkpt><trkpt lat="42.7690566" lon="12.7313543"><ele>264.0</ele><time>2026-04-12T09:14:42.586Z</time></trkpt><trkpt lat="42.7688857" lon="12.7311554"><ele>264.0</ele><time>2026-04-12T09:14:43.581Z</time></trkpt><trkpt lat="42.7687152" lon="12.7309614"><ele>264.0</ele><time>2026-04-12T09:14:44.583Z</time></trkpt><trkpt lat="42.7685475" lon="12.7307699"><ele>264.0</ele><time>2026-04-12T09:14:45.582Z</time></trkpt><trkpt lat="42.7683819" lon="12.7305838"><ele>264.0</ele><time>2026-04-12T09:14:46.608Z</time></trkpt><trkpt lat="42.7682174" lon="12.7304011"><ele>264.0</ele><time>2026-04-12T09:14:47.582Z</time></trkpt><trkpt lat="42.7680509" lon="12.7302141"><ele>264.0</ele><time>2026-04-12T09:14:48.582Z</time></trkpt><trkpt lat="42.7678819" lon="12.7300278"><ele>264.3333333333333</ele><time>2026-04-12T09:14:49.589Z</time></trkpt><trkpt lat="42.7677129" lon="12.7298435"><ele>264.66666666666663</ele><time>2026-04-12T09:14:50.583Z</time></trkpt><trkpt lat="42.767542" lon="12.7296546"><ele>265.0</ele><time>2026-04-12T09:14:51.592Z</time></trkpt><trkpt lat="42.7673721" lon="12.7294614"><ele>264.66666666666663</ele><time>2026-04-12T09:14:52.583Z</time></trkpt><trkpt lat="42.7672023" lon="12.7292642"><ele>264.3333333333333</ele><time>2026-04-12T09:14:53.588Z</time></trkpt><trkpt lat="42.7670347" lon="12.7290607"><ele>264.0</ele><time>2026-04-12T09:14:54.579Z</time></trkpt><trkpt lat="42.7668663" lon="12.7288557"><ele>265.0</ele><time>2026-04-12T09:14:55.581Z</time></trkpt><trkpt lat="42.7666989" lon="12.7286496"><ele>266.0</ele><time>2026-04-12T09:14:56.588Z</time></trkpt><trkpt lat="42.7665342" lon="12.7284388"><ele>266.0</ele><time>2026-04-12T09:14:57.586Z</time></trkpt><trkpt lat="42.7663717" lon="12.7282225"><ele>266.0</ele><time>2026-04-12T09:14:58.59Z</time></trkpt><trkpt lat="42.7662113" lon="12.7280019"><ele>266.0</ele><time>2026-04-12T09:14:59.585Z</time></trkpt><trkpt lat="42.7660508" lon="12.7277804"><ele>266.0</ele><time>2026-04-12T09:15:00.604Z</time></trkpt><trkpt lat="42.7658918" lon="12.7275549"><ele>267.0</ele><time>2026-04-12T09:15:01.583Z</time></trkpt><trkpt lat="42.7657355" lon="12.7273255"><ele>268.0</ele><time>2026-04-12T09:15:02.58Z</time></trkpt><trkpt lat="42.7655806" lon="12.7270942"><ele>268.0</ele><time>2026-04-12T09:15:03.581Z</time></trkpt><trkpt lat="42.7654254" lon="12.7268601"><ele>268.0</ele><time>2026-04-12T09:15:04.584Z</time></trkpt><trkpt lat="42.7652727" lon="12.7266259"><ele>269.0</ele><time>2026-04-12T09:15:05.589Z</time></trkpt><trkpt lat="42.7651204" lon="12.726399"><ele>270.0</ele><time>2026-04-12T09:15:06.581Z</time></trkpt><trkpt lat="42.7649676" lon="12.7261713"><ele>269.6666666666667</ele><time>2026-04-12T09:15:07.582Z</time></trkpt><trkpt lat="42.7648159" lon="12.72594"><ele>269.33333333333337</ele><time>2026-04-12T09:15:08.584Z</time></trkpt><trkpt lat="42.7646707" lon="12.7257132"><ele>269.0</ele><time>2026-04-12T09:15:09.582Z</time></trkpt><trkpt lat="42.7645214" lon="12.7254879"><ele>269.0</ele><time>2026-04-12T09:15:10.584Z</time></trkpt><trkpt lat="42.7643756" lon="12.7252645"><ele>269.0</ele><time>2026-04-12T09:15:11.583Z</time></trkpt><trkpt lat="42.7642272" lon="12.7250433"><ele>269.0</ele><time>2026-04-12T09:15:12.604Z</time></trkpt><trkpt lat="42.764084" lon="12.7248194"><ele>269.33333333333337</ele><time>2026-04-12T09:15:13.587Z</time></trkpt><trkpt lat="42.7639393" lon="12.7245941"><ele>269.6666666666667</ele><time>2026-04-12T09:15:14.583Z</time></trkpt><trkpt lat="42.7637919" lon="12.7243687"><ele>270.0</ele><time>2026-04-12T09:15:15.585Z</time></trkpt><trkpt lat="42.7636453" lon="12.7241461"><ele>270.0</ele><time>2026-04-12T09:15:16.582Z</time></trkpt><trkpt lat="42.7634961" lon="12.7239199"><ele>270.0</ele><time>2026-04-12T09:15:17.581Z</time></trkpt><trkpt lat="42.7633472" lon="12.7236931"><ele>270.0</ele><time>2026-04-12T09:15:18.608Z</time></trkpt><trkpt lat="42.7631974" lon="12.7234644"><ele>270.0</ele><time>2026-04-12T09:15:19.581Z</time></trkpt><trkpt lat="42.7630492" lon="12.7232339"><ele>270.0</ele><time>2026-04-12T09:15:20.58Z</time></trkpt><trkpt lat="42.7628996" lon="12.7230041"><ele>270.0</ele><time>2026-04-12T09:15:21.582Z</time></trkpt><trkpt lat="42.7627507" lon="12.7227746"><ele>270.0</ele><time>2026-04-12T09:15:22.584Z</time></trkpt><trkpt lat="42.7626005" lon="12.7225463"><ele>269.3333333333333</ele><time>2026-04-12T09:15:23.582Z</time></trkpt><trkpt lat="42.7624502" lon="12.7223186"><ele>268.66666666666663</ele><time>2026-04-12T09:15:24.586Z</time></trkpt><trkpt lat="42.7622999" lon="12.7220926"><ele>268.0</ele><time>2026-04-12T09:15:25.581Z</time></trkpt><trkpt lat="42.7621484" lon="12.72187"><ele>267.66666666666663</ele><time>2026-04-12T09:15:26.587Z</time></trkpt><trkpt lat="42.7619948" lon="12.7216481"><ele>267.3333333333333</ele><time>2026-04-12T09:15:27.578Z</time></trkpt><trkpt lat="42.7618414" lon="12.7214286"><ele>267.0</ele><time>2026-04-12T09:15:28.582Z</time></trkpt><trkpt lat="42.7616848" lon="12.7212125"><ele>268.3333333333333</ele><time>2026-04-12T09:15:29.579Z</time></trkpt><trkpt lat="42.7615262" lon="12.7209981"><ele>269.66666666666663</ele><time>2026-04-12T09:15:30.585Z</time></trkpt><trkpt lat="42.7613665" lon="12.7207839"><ele>271.0</ele><time>2026-04-12T09:15:31.581Z</time></trkpt><trkpt lat="42.761204" lon="12.7205709"><ele>271.0</ele><time>2026-04-12T09:15:32.581Z</time></trkpt><trkpt lat="42.761038" lon="12.7203602"><ele>271.0</ele><time>2026-04-12T09:15:33.585Z</time></trkpt><trkpt lat="42.7608698" lon="12.7201516"><ele>273.0</ele><time>2026-04-12T09:15:34.584Z</time></trkpt><trkpt lat="42.760699" lon="12.7199453"><ele>275.0</ele><time>2026-04-12T09:15:35.611Z</time></trkpt><trkpt lat="42.7605249" lon="12.7197391"><ele>275.0</ele><time>2026-04-12T09:15:36.584Z</time></trkpt><trkpt lat="42.7603471" lon="12.7195351"><ele>275.0</ele><time>2026-04-12T09:15:37.583Z</time></trkpt><trkpt lat="42.7601669" lon="12.7193313"><ele>274.0</ele><time>2026-04-12T09:15:38.583Z</time></trkpt><trkpt lat="42.7599828" lon="12.7191293"><ele>273.0</ele><time>2026-04-12T09:15:39.586Z</time></trkpt><trkpt lat="42.7597968" lon="12.7189295"><ele>273.0</ele><time>2026-04-12T09:15:40.584Z</time></trkpt><trkpt lat="42.7596108" lon="12.7187325"><ele>273.0</ele><time>2026-04-12T09:15:41.628Z</time></trkpt><trkpt lat="42.7594281" lon="12.7185355"><ele>272.0</ele><time>2026-04-12T09:15:42.579Z</time></trkpt><trkpt lat="42.7592491" lon="12.7183404"><ele>271.0</ele><time>2026-04-12T09:15:43.59Z</time></trkpt><trkpt lat="42.7590758" lon="12.7181549"><ele>271.0</ele><time>2026-04-12T09:15:44.582Z</time></trkpt><trkpt lat="42.7589155" lon="12.7179834"><ele>271.0</ele><time>2026-04-12T09:15:45.581Z</time></trkpt><trkpt lat="42.7587688" lon="12.7178267"><ele>271.0</ele><time>2026-04-12T09:15:46.588Z</time></trkpt><trkpt lat="42.7586355" lon="12.7176826"><ele>271.0</ele><time>2026-04-12T09:15:47.59Z</time></trkpt><trkpt lat="42.7585107" lon="12.7175472"><ele>271.0</ele><time>2026-04-12T09:15:48.584Z</time></trkpt><trkpt lat="42.7583923" lon="12.7174184"><ele>271.0</ele><time>2026-04-12T09:15:49.607Z</time></trkpt><trkpt lat="42.7582805" lon="12.7172946"><ele>271.0</ele><time>2026-04-12T09:15:50.582Z</time></trkpt><trkpt lat="42.7581758" lon="12.7171787"><ele>271.0</ele><time>2026-04-12T09:15:51.581Z</time></trkpt><trkpt lat="42.7580731" lon="12.7170676"><ele>271.0</ele><time>2026-04-12T09:15:52.586Z</time></trkpt><trkpt lat="42.757977" lon="12.7169647"><ele>271.0</ele><time>2026-04-12T09:15:53.59Z</time></trkpt><trkpt lat="42.7578942" lon="12.7168757"><ele>271.16666666666663</ele><time>2026-04-12T09:15:54.588Z</time></trkpt><trkpt lat="42.7578268" lon="12.7168033"><ele>271.3333333333333</ele><time>2026-04-12T09:15:55.585Z</time></trkpt><trkpt lat="42.7577692" lon="12.7167424"><ele>271.5</ele><time>2026-04-12T09:15:56.585Z</time></trkpt><trkpt lat="42.7577192" lon="12.7166882"><ele>271.6666666666667</ele><time>2026-04-12T09:15:57.585Z</time></trkpt><trkpt lat="42.7576398" lon="12.7166022"><ele>271.83333333333337</ele><time>2026-04-12T09:15:59.587Z</time></trkpt><trkpt lat="42.7575707" lon="12.7165269"><ele>272.0</ele><time>2026-04-12T09:16:01.581Z</time></trkpt><trkpt lat="42.7575086" lon="12.7164685"><ele>272.0</ele><time>2026-04-12T09:18:30.603Z</time></trkpt><trkpt lat="42.7574366" lon="12.7163985"><ele>272.0</ele><time>2026-04-12T09:18:33.591Z</time></trkpt><trkpt lat="42.7573798" lon="12.716343"><ele>272.0</ele><time>2026-04-12T09:18:34.587Z</time></trkpt><trkpt lat="42.7573105" lon="12.7162756"><ele>272.0</ele><time>2026-04-12T09:18:35.589Z</time></trkpt><trkpt lat="42.7572328" lon="12.7161946"><ele>272.0</ele><time>2026-04-12T09:18:36.583Z</time></trkpt><trkpt lat="42.757145" lon="12.7161009"><ele>272.0</ele><time>2026-04-12T09:18:37.587Z</time></trkpt><trkpt lat="42.7570534" lon="12.7160037"><ele>272.0</ele><time>2026-04-12T09:18:38.591Z</time></trkpt><trkpt lat="42.7569616" lon="12.7159047"><ele>272.0</ele><time>2026-04-12T09:18:39.595Z</time></trkpt><trkpt lat="42.7568694" lon="12.7158037"><ele>272.0</ele><time>2026-04-12T09:18:40.59Z</time></trkpt><trkpt lat="42.7567719" lon="12.7156986"><ele>272.0</ele><time>2026-04-12T09:18:41.597Z</time></trkpt><trkpt lat="42.7566658" lon="12.715585"><ele>272.0</ele><time>2026-04-12T09:18:42.598Z</time></trkpt><trkpt lat="42.7565532" lon="12.7154651"><ele>272.0</ele><time>2026-04-12T09:18:43.59Z</time></trkpt><trkpt lat="42.7564344" lon="12.7153382"><ele>272.0</ele><time>2026-04-12T09:18:44.592Z</time></trkpt><trkpt lat="42.7563082" lon="12.7152032"><ele>272.0</ele><time>2026-04-12T09:18:45.592Z</time></trkpt><trkpt lat="42.7561776" lon="12.7150636"><ele>272.0</ele><time>2026-04-12T09:18:46.591Z</time></trkpt><trkpt lat="42.7560408" lon="12.7149181"><ele>272.0</ele><time>2026-04-12T09:18:47.6Z</time></trkpt><trkpt lat="42.7558998" lon="12.7147686"><ele>272.6666666666667</ele><time>2026-04-12T09:18:48.596Z</time></trkpt><trkpt lat="42.7557561" lon="12.7146148"><ele>273.3333333333333</ele><time>2026-04-12T09:18:49.59Z</time></trkpt><trkpt lat="42.7556099" lon="12.7144578"><ele>274.0</ele><time>2026-04-12T09:18:50.591Z</time></trkpt><trkpt lat="42.755461" lon="12.7142987"><ele>274.0</ele><time>2026-04-12T09:18:51.593Z</time></trkpt><trkpt lat="42.7553098" lon="12.7141369"><ele>274.0</ele><time>2026-04-12T09:18:52.606Z</time></trkpt><trkpt lat="42.7551557" lon="12.7139728"><ele>274.0</ele><time>2026-04-12T09:18:53.591Z</time></trkpt><trkpt lat="42.7549989" lon="12.7138043"><ele>274.66666666666663</ele><time>2026-04-12T09:18:54.59Z</time></trkpt><trkpt lat="42.7548385" lon="12.7136321"><ele>275.3333333333333</ele><time>2026-04-12T09:18:55.59Z</time></trkpt><trkpt lat="42.7546733" lon="12.7134579"><ele>276.0</ele><time>2026-04-12T09:18:56.592Z</time></trkpt><trkpt lat="42.7545042" lon="12.7132776"><ele>276.5</ele><time>2026-04-12T09:18:57.592Z</time></trkpt><trkpt lat="42.7543292" lon="12.7130895"><ele>277.0</ele><time>2026-04-12T09:18:58.593Z</time></trkpt><trkpt lat="42.7541492" lon="12.7128958"><ele>276.5</ele><time>2026-04-12T09:18:59.597Z</time></trkpt><trkpt lat="42.7539669" lon="12.7127"><ele>276.0</ele><time>2026-04-12T09:19:00.595Z</time></trkpt><trkpt lat="42.7537886" lon="12.7125092"><ele>276.0</ele><time>2026-04-12T09:19:01.595Z</time></trkpt><trkpt lat="42.7536089" lon="12.7123182"><ele>276.0</ele><time>2026-04-12T09:19:02.593Z</time></trkpt><trkpt lat="42.7534276" lon="12.7121274"><ele>276.0</ele><time>2026-04-12T09:19:03.594Z</time></trkpt><trkpt lat="42.7532438" lon="12.7119365"><ele>276.0</ele><time>2026-04-12T09:19:04.596Z</time></trkpt><trkpt lat="42.7530508" lon="12.711756"><ele>276.0</ele><time>2026-04-12T09:19:05.598Z</time></trkpt><trkpt lat="42.7528577" lon="12.71157"><ele>276.0</ele><time>2026-04-12T09:19:06.592Z</time></trkpt><trkpt lat="42.7526657" lon="12.7113762"><ele>276.5</ele><time>2026-04-12T09:19:07.601Z</time></trkpt><trkpt lat="42.7524617" lon="12.7111876"><ele>277.0</ele><time>2026-04-12T09:19:08.591Z</time></trkpt><trkpt lat="42.752256" lon="12.711004"><ele>276.0</ele><time>2026-04-12T09:19:09.594Z</time></trkpt><trkpt lat="42.752046" lon="12.7108253"><ele>275.0</ele><time>2026-04-12T09:19:10.593Z</time></trkpt><trkpt lat="42.7518319" lon="12.7106456"><ele>275.0</ele><time>2026-04-12T09:19:11.6Z</time></trkpt><trkpt lat="42.7516091" lon="12.7104626"><ele>275.0</ele><time>2026-04-12T09:19:12.597Z</time></trkpt><trkpt lat="42.751379" lon="12.7102786"><ele>275.5</ele><time>2026-04-12T09:19:13.604Z</time></trkpt><trkpt lat="42.7511422" lon="12.7100912"><ele>276.0</ele><time>2026-04-12T09:19:14.598Z</time></trkpt><trkpt lat="42.7509017" lon="12.7099014"><ele>276.0</ele><time>2026-04-12T09:19:15.591Z</time></trkpt><trkpt lat="42.7506624" lon="12.7097116"><ele>276.0</ele><time>2026-04-12T09:19:16.597Z</time></trkpt><trkpt lat="42.750437" lon="12.7095314"><ele>276.5</ele><time>2026-04-12T09:19:17.596Z</time></trkpt><trkpt lat="42.7502267" lon="12.7093622"><ele>277.0</ele><time>2026-04-12T09:19:18.6Z</time></trkpt><trkpt lat="42.7500205" lon="12.7091974"><ele>277.5</ele><time>2026-04-12T09:19:19.596Z</time></trkpt><trkpt lat="42.7498167" lon="12.7090345"><ele>278.0</ele><time>2026-04-12T09:19:20.594Z</time></trkpt><trkpt lat="42.7496153" lon="12.7088744"><ele>278.0</ele><time>2026-04-12T09:19:21.611Z</time></trkpt><trkpt lat="42.749424" lon="12.7087244"><ele>278.0</ele><time>2026-04-12T09:19:22.599Z</time></trkpt><trkpt lat="42.7492421" lon="12.7085796"><ele>278.0</ele><time>2026-04-12T09:19:23.595Z</time></trkpt><trkpt lat="42.7490596" lon="12.7084373"><ele>278.33333333333337</ele><time>2026-04-12T09:19:24.597Z</time></trkpt><trkpt lat="42.7488798" lon="12.708296"><ele>278.6666666666667</ele><time>2026-04-12T09:19:25.597Z</time></trkpt><trkpt lat="42.7487003" lon="12.708153"><ele>279.0</ele><time>2026-04-12T09:19:26.592Z</time></trkpt><trkpt lat="42.7485234" lon="12.7080114"><ele>279.3333333333333</ele><time>2026-04-12T09:19:27.6Z</time></trkpt><trkpt lat="42.7483483" lon="12.7078732"><ele>279.66666666666663</ele><time>2026-04-12T09:19:28.6Z</time></trkpt><trkpt lat="42.748175" lon="12.7077362"><ele>280.0</ele><time>2026-04-12T09:19:29.591Z</time></trkpt><trkpt lat="42.7480015" lon="12.7075989"><ele>280.0</ele><time>2026-04-12T09:19:30.607Z</time></trkpt><trkpt lat="42.747828" lon="12.7074618"><ele>280.0</ele><time>2026-04-12T09:19:31.596Z</time></trkpt><trkpt lat="42.747652" lon="12.7073234"><ele>280.0</ele><time>2026-04-12T09:19:32.597Z</time></trkpt><trkpt lat="42.7474734" lon="12.7071829"><ele>279.66666666666663</ele><time>2026-04-12T09:19:33.598Z</time></trkpt><trkpt lat="42.74729" lon="12.7070391"><ele>279.3333333333333</ele><time>2026-04-12T09:19:34.607Z</time></trkpt><trkpt lat="42.747104" lon="12.7068933"><ele>279.0</ele><time>2026-04-12T09:19:35.601Z</time></trkpt><trkpt lat="42.7469155" lon="12.706745"><ele>281.0</ele><time>2026-04-12T09:19:36.599Z</time></trkpt><trkpt lat="42.7467215" lon="12.7065949"><ele>283.0</ele><time>2026-04-12T09:19:37.596Z</time></trkpt><trkpt lat="42.746524" lon="12.7064387"><ele>283.0</ele><time>2026-04-12T09:19:38.598Z</time></trkpt><trkpt lat="42.746321" lon="12.7062779"><ele>283.0</ele><time>2026-04-12T09:19:39.602Z</time></trkpt><trkpt lat="42.7461132" lon="12.7061135"><ele>282.5</ele><time>2026-04-12T09:19:40.594Z</time></trkpt><trkpt lat="42.7459044" lon="12.7059478"><ele>282.0</ele><time>2026-04-12T09:19:41.592Z</time></trkpt><trkpt lat="42.7456943" lon="12.705781"><ele>282.0</ele><time>2026-04-12T09:19:42.591Z</time></trkpt><trkpt lat="42.7454846" lon="12.7056147"><ele>282.0</ele><time>2026-04-12T09:19:43.598Z</time></trkpt><trkpt lat="42.7452825" lon="12.7054607"><ele>283.0</ele><time>2026-04-12T09:19:44.606Z</time></trkpt><trkpt lat="42.7450893" lon="12.7053073"><ele>284.0</ele><time>2026-04-12T09:19:45.631Z</time></trkpt><trkpt lat="42.7448899" lon="12.7051521"><ele>284.0</ele><time>2026-04-12T09:19:46.6Z</time></trkpt><trkpt lat="42.7446901" lon="12.7049936"><ele>284.0</ele><time>2026-04-12T09:19:47.6Z</time></trkpt><trkpt lat="42.744493" lon="12.704834"><ele>284.5</ele><time>2026-04-12T09:19:48.596Z</time></trkpt><trkpt lat="42.744293" lon="12.7046705"><ele>285.0</ele><time>2026-04-12T09:19:49.597Z</time></trkpt><trkpt lat="42.7440945" lon="12.7045096"><ele>284.0</ele><time>2026-04-12T09:19:50.593Z</time></trkpt><trkpt lat="42.7439004" lon="12.7043473"><ele>283.0</ele><time>2026-04-12T09:19:51.588Z</time></trkpt><trkpt lat="42.743707" lon="12.7041761"><ele>284.0</ele><time>2026-04-12T09:19:52.596Z</time></trkpt><trkpt lat="42.7435198" lon="12.7039963"><ele>285.0</ele><time>2026-04-12T09:19:53.6Z</time></trkpt><trkpt lat="42.7433355" lon="12.7038117"><ele>285.0</ele><time>2026-04-12T09:19:54.597Z</time></trkpt><trkpt lat="42.7431547" lon="12.7036232"><ele>285.0</ele><time>2026-04-12T09:19:55.596Z</time></trkpt><trkpt lat="42.7429766" lon="12.7034261"><ele>285.0</ele><time>2026-04-12T09:19:56.594Z</time></trkpt><trkpt lat="42.7427987" lon="12.7032182"><ele>285.0</ele><time>2026-04-12T09:19:57.595Z</time></trkpt><trkpt lat="42.742616" lon="12.7029996"><ele>286.0</ele><time>2026-04-12T09:19:58.597Z</time></trkpt><trkpt lat="42.7424298" lon="12.7027664"><ele>287.0</ele><time>2026-04-12T09:19:59.598Z</time></trkpt><trkpt lat="42.742248" lon="12.7025178"><ele>288.5</ele><time>2026-04-12T09:20:00.595Z</time></trkpt><trkpt lat="42.7420721" lon="12.7022513"><ele>290.0</ele><time>2026-04-12T09:20:01.595Z</time></trkpt><trkpt lat="42.7419053" lon="12.7019772"><ele>290.5</ele><time>2026-04-12T09:20:02.602Z</time></trkpt><trkpt lat="42.7417506" lon="12.7017055"><ele>291.0</ele><time>2026-04-12T09:20:03.595Z</time></trkpt><trkpt lat="42.7416045" lon="12.701437"><ele>291.0</ele><time>2026-04-12T09:20:04.609Z</time></trkpt><trkpt lat="42.7414625" lon="12.701167"><ele>291.0</ele><time>2026-04-12T09:20:05.6Z</time></trkpt><trkpt lat="42.7413254" lon="12.7008956"><ele>290.5</ele><time>2026-04-12T09:20:06.6Z</time></trkpt><trkpt lat="42.7411916" lon="12.7006192"><ele>290.0</ele><time>2026-04-12T09:20:07.6Z</time></trkpt><trkpt lat="42.7410607" lon="12.700332"><ele>290.5</ele><time>2026-04-12T09:20:08.597Z</time></trkpt><trkpt lat="42.7409313" lon="12.7000372"><ele>291.0</ele><time>2026-04-12T09:20:09.592Z</time></trkpt><trkpt lat="42.740801" lon="12.6997377"><ele>291.0</ele><time>2026-04-12T09:20:10.598Z</time></trkpt><trkpt lat="42.7406689" lon="12.6994373"><ele>291.0</ele><time>2026-04-12T09:20:11.595Z</time></trkpt><trkpt lat="42.7405361" lon="12.6991366"><ele>290.0</ele><time>2026-04-12T09:20:12.607Z</time></trkpt><trkpt lat="42.7404027" lon="12.6988343"><ele>289.0</ele><time>2026-04-12T09:20:13.594Z</time></trkpt><trkpt lat="42.7402669" lon="12.6985293"><ele>290.0</ele><time>2026-04-12T09:20:14.591Z</time></trkpt><trkpt lat="42.7401299" lon="12.6982226"><ele>291.0</ele><time>2026-04-12T09:20:15.595Z</time></trkpt><trkpt lat="42.7399936" lon="12.6979134"><ele>291.5</ele><time>2026-04-12T09:20:16.593Z</time></trkpt><trkpt lat="42.739856" lon="12.6976027"><ele>292.0</ele><time>2026-04-12T09:20:17.595Z</time></trkpt><trkpt lat="42.7397187" lon="12.6972915"><ele>292.0</ele><time>2026-04-12T09:20:18.596Z</time></trkpt><trkpt lat="42.739582" lon="12.696979"><ele>292.0</ele><time>2026-04-12T09:20:19.608Z</time></trkpt><trkpt lat="42.7394463" lon="12.6966644"><ele>292.0</ele><time>2026-04-12T09:20:20.597Z</time></trkpt><trkpt lat="42.7393101" lon="12.6963518"><ele>292.0</ele><time>2026-04-12T09:20:21.596Z</time></trkpt><trkpt lat="42.739173" lon="12.6960426"><ele>292.0</ele><time>2026-04-12T09:20:22.589Z</time></trkpt><trkpt lat="42.7390372" lon="12.6957349"><ele>292.0</ele><time>2026-04-12T09:20:23.594Z</time></trkpt><trkpt lat="42.7389027" lon="12.6954288"><ele>292.0</ele><time>2026-04-12T09:20:24.595Z</time></trkpt><trkpt lat="42.7387678" lon="12.6951248"><ele>292.0</ele><time>2026-04-12T09:20:25.6Z</time></trkpt><trkpt lat="42.7386331" lon="12.6948214"><ele>293.0</ele><time>2026-04-12T09:20:26.587Z</time></trkpt><trkpt lat="42.7384992" lon="12.6945177"><ele>294.0</ele><time>2026-04-12T09:20:27.6Z</time></trkpt><trkpt lat="42.7383652" lon="12.6942127"><ele>294.0</ele><time>2026-04-12T09:20:28.591Z</time></trkpt><trkpt lat="42.7382282" lon="12.6939056"><ele>294.0</ele><time>2026-04-12T09:20:29.592Z</time></trkpt><trkpt lat="42.738089" lon="12.6935972"><ele>294.0</ele><time>2026-04-12T09:20:30.59Z</time></trkpt><trkpt lat="42.7379502" lon="12.6932871"><ele>294.0</ele><time>2026-04-12T09:20:31.59Z</time></trkpt><trkpt lat="42.7378113" lon="12.6929741"><ele>295.0</ele><time>2026-04-12T09:20:32.588Z</time></trkpt><trkpt lat="42.7376716" lon="12.6926588"><ele>296.0</ele><time>2026-04-12T09:20:33.598Z</time></trkpt><trkpt lat="42.7375297" lon="12.6923407"><ele>296.0</ele><time>2026-04-12T09:20:34.588Z</time></trkpt><trkpt lat="42.7373835" lon="12.6920217"><ele>296.0</ele><time>2026-04-12T09:20:35.595Z</time></trkpt><trkpt lat="42.7372277" lon="12.691705"><ele>296.5</ele><time>2026-04-12T09:20:36.592Z</time></trkpt><trkpt lat="42.7370595" lon="12.6913924"><ele>297.0</ele><time>2026-04-12T09:20:37.597Z</time></trkpt><trkpt lat="42.7368835" lon="12.6910831"><ele>297.0</ele><time>2026-04-12T09:20:38.589Z</time></trkpt><trkpt lat="42.736707" lon="12.6907744"><ele>297.0</ele><time>2026-04-12T09:20:39.589Z</time></trkpt><trkpt lat="42.7365339" lon="12.6904633"><ele>297.0</ele><time>2026-04-12T09:20:40.592Z</time></trkpt><trkpt lat="42.7363648" lon="12.690151"><ele>297.0</ele><time>2026-04-12T09:20:41.593Z</time></trkpt><trkpt lat="42.7361998" lon="12.6898369"><ele>297.0</ele><time>2026-04-12T09:20:42.59Z</time></trkpt><trkpt lat="42.7360443" lon="12.6895159"><ele>297.0</ele><time>2026-04-12T09:20:43.59Z</time></trkpt><trkpt lat="42.7359024" lon="12.6891838"><ele>296.5</ele><time>2026-04-12T09:20:44.587Z</time></trkpt><trkpt lat="42.7357761" lon="12.6888389"><ele>296.0</ele><time>2026-04-12T09:20:45.595Z</time></trkpt><trkpt lat="42.7356646" lon="12.6884824"><ele>297.0</ele><time>2026-04-12T09:20:46.585Z</time></trkpt><trkpt lat="42.7355693" lon="12.6881153"><ele>298.0</ele><time>2026-04-12T09:20:47.596Z</time></trkpt><trkpt lat="42.7354903" lon="12.6877398"><ele>298.0</ele><time>2026-04-12T09:20:48.583Z</time></trkpt><trkpt lat="42.7354276" lon="12.687357"><ele>298.0</ele><time>2026-04-12T09:20:49.588Z</time></trkpt><trkpt lat="42.7353796" lon="12.6869721"><ele>297.5</ele><time>2026-04-12T09:20:50.59Z</time></trkpt><trkpt lat="42.7353411" lon="12.6866045"><ele>297.0</ele><time>2026-04-12T09:20:51.593Z</time></trkpt><trkpt lat="42.7353056" lon="12.6862546"><ele>298.5</ele><time>2026-04-12T09:20:52.586Z</time></trkpt><trkpt lat="42.7352684" lon="12.6859193"><ele>300.0</ele><time>2026-04-12T09:20:53.59Z</time></trkpt><trkpt lat="42.7352304" lon="12.6855924"><ele>299.5</ele><time>2026-04-12T09:20:54.585Z</time></trkpt><trkpt lat="42.7351931" lon="12.6852672"><ele>299.0</ele><time>2026-04-12T09:20:55.592Z</time></trkpt><trkpt lat="42.7351565" lon="12.6849407"><ele>300.0</ele><time>2026-04-12T09:20:56.587Z</time></trkpt><trkpt lat="42.7351208" lon="12.6846127"><ele>301.0</ele><time>2026-04-12T09:20:57.6Z</time></trkpt><trkpt lat="42.7350845" lon="12.684285"><ele>303.0</ele><time>2026-04-12T09:20:58.588Z</time></trkpt><trkpt lat="42.7350477" lon="12.6839575"><ele>305.0</ele><time>2026-04-12T09:20:59.591Z</time></trkpt><trkpt lat="42.7350108" lon="12.6836296"><ele>304.5</ele><time>2026-04-12T09:21:00.594Z</time></trkpt><trkpt lat="42.7349734" lon="12.6833011"><ele>304.0</ele><time>2026-04-12T09:21:01.59Z</time></trkpt><trkpt lat="42.7349366" lon="12.6829732"><ele>304.0</ele><time>2026-04-12T09:21:02.591Z</time></trkpt><trkpt lat="42.734899" lon="12.6826463"><ele>304.0</ele><time>2026-04-12T09:21:03.586Z</time></trkpt><trkpt lat="42.7348621" lon="12.6823197"><ele>304.0</ele><time>2026-04-12T09:21:04.583Z</time></trkpt><trkpt lat="42.7348261" lon="12.6819928"><ele>304.0</ele><time>2026-04-12T09:21:05.588Z</time></trkpt><trkpt lat="42.7347908" lon="12.6816655"><ele>305.5</ele><time>2026-04-12T09:21:06.592Z</time></trkpt><trkpt lat="42.7347562" lon="12.681339"><ele>307.0</ele><time>2026-04-12T09:21:07.589Z</time></trkpt><trkpt lat="42.7347204" lon="12.6810119"><ele>307.0</ele><time>2026-04-12T09:21:08.591Z</time></trkpt><trkpt lat="42.7346819" lon="12.6806858"><ele>307.0</ele><time>2026-04-12T09:21:09.594Z</time></trkpt><trkpt lat="42.7346423" lon="12.6803611"><ele>306.5</ele><time>2026-04-12T09:21:10.59Z</time></trkpt><trkpt lat="42.7346036" lon="12.6800369"><ele>306.0</ele><time>2026-04-12T09:21:11.587Z</time></trkpt><trkpt lat="42.7345674" lon="12.6797131"><ele>306.0</ele><time>2026-04-12T09:21:12.59Z</time></trkpt><trkpt lat="42.7345313" lon="12.6793882"><ele>306.0</ele><time>2026-04-12T09:21:13.599Z</time></trkpt><trkpt lat="42.7344954" lon="12.6790616"><ele>306.0</ele><time>2026-04-12T09:21:14.588Z</time></trkpt><trkpt lat="42.7344582" lon="12.6787324"><ele>306.0</ele><time>2026-04-12T09:21:15.59Z</time></trkpt><trkpt lat="42.7344208" lon="12.6784007"><ele>306.0</ele><time>2026-04-12T09:21:16.593Z</time></trkpt><trkpt lat="42.7343821" lon="12.6780671"><ele>306.0</ele><time>2026-04-12T09:21:17.593Z</time></trkpt><trkpt lat="42.7343424" lon="12.6777308"><ele>306.0</ele><time>2026-04-12T09:21:18.588Z</time></trkpt><trkpt lat="42.7342978" lon="12.6773934"><ele>306.0</ele><time>2026-04-12T09:21:19.588Z</time></trkpt><trkpt lat="42.7342426" lon="12.6770566"><ele>306.5</ele><time>2026-04-12T09:21:20.59Z</time></trkpt><trkpt lat="42.7341725" lon="12.6767237"><ele>307.0</ele><time>2026-04-12T09:21:21.588Z</time></trkpt><trkpt lat="42.7340875" lon="12.6763958"><ele>307.0</ele><time>2026-04-12T09:21:22.594Z</time></trkpt><trkpt lat="42.7339897" lon="12.6760716"><ele>307.0</ele><time>2026-04-12T09:21:23.596Z</time></trkpt><trkpt lat="42.7338816" lon="12.6757525"><ele>307.0</ele><time>2026-04-12T09:21:24.595Z</time></trkpt><trkpt lat="42.7337636" lon="12.675438"><ele>307.0</ele><time>2026-04-12T09:21:25.594Z</time></trkpt><trkpt lat="42.7336388" lon="12.6751269"><ele>307.0</ele><time>2026-04-12T09:21:26.595Z</time></trkpt><trkpt lat="42.7335133" lon="12.674815"><ele>307.0</ele><time>2026-04-12T09:21:27.588Z</time></trkpt><trkpt lat="42.7333896" lon="12.6745009"><ele>308.0</ele><time>2026-04-12T09:21:28.597Z</time></trkpt><trkpt lat="42.7332656" lon="12.6741853"><ele>309.0</ele><time>2026-04-12T09:21:29.588Z</time></trkpt><trkpt lat="42.7331396" lon="12.6738692"><ele>309.5</ele><time>2026-04-12T09:21:30.592Z</time></trkpt><trkpt lat="42.7330121" lon="12.6735533"><ele>310.0</ele><time>2026-04-12T09:21:31.587Z</time></trkpt><trkpt lat="42.7328847" lon="12.6732366"><ele>310.0</ele><time>2026-04-12T09:21:32.591Z</time></trkpt><trkpt lat="42.7327578" lon="12.6729198"><ele>310.0</ele><time>2026-04-12T09:21:33.593Z</time></trkpt><trkpt lat="42.7326324" lon="12.6726031"><ele>310.5</ele><time>2026-04-12T09:21:34.594Z</time></trkpt><trkpt lat="42.7325093" lon="12.6722935"><ele>311.0</ele><time>2026-04-12T09:21:35.592Z</time></trkpt><trkpt lat="42.7323932" lon="12.6720033"><ele>310.6666666666667</ele><time>2026-04-12T09:21:36.595Z</time></trkpt><trkpt lat="42.7322843" lon="12.6717312"><ele>310.3333333333333</ele><time>2026-04-12T09:21:37.592Z</time></trkpt><trkpt lat="42.732179" lon="12.6714667"><ele>310.0</ele><time>2026-04-12T09:21:38.59Z</time></trkpt><trkpt lat="42.7320719" lon="12.6712045"><ele>310.0</ele><time>2026-04-12T09:21:39.6Z</time></trkpt><trkpt lat="42.7319548" lon="12.67095"><ele>310.0</ele><time>2026-04-12T09:21:40.597Z</time></trkpt><trkpt lat="42.731816" lon="12.6707083"><ele>310.0</ele><time>2026-04-12T09:21:41.607Z</time></trkpt><trkpt lat="42.7316583" lon="12.6704812"><ele>310.3333333333333</ele><time>2026-04-12T09:21:42.594Z</time></trkpt><trkpt lat="42.7314959" lon="12.6702824"><ele>310.6666666666667</ele><time>2026-04-12T09:21:43.591Z</time></trkpt><trkpt lat="42.7313318" lon="12.6701183"><ele>311.0</ele><time>2026-04-12T09:21:44.591Z</time></trkpt><trkpt lat="42.7311745" lon="12.6699928"><ele>312.6666666666667</ele><time>2026-04-12T09:21:45.598Z</time></trkpt><trkpt lat="42.7310264" lon="12.6698949"><ele>314.3333333333333</ele><time>2026-04-12T09:21:46.592Z</time></trkpt><trkpt lat="42.7308836" lon="12.6698175"><ele>316.0</ele><time>2026-04-12T09:21:47.59Z</time></trkpt><trkpt lat="42.7307492" lon="12.6697563"><ele>316.0</ele><time>2026-04-12T09:21:48.587Z</time></trkpt><trkpt lat="42.7306243" lon="12.6697004"><ele>316.0</ele><time>2026-04-12T09:21:49.592Z</time></trkpt><trkpt lat="42.7305078" lon="12.6696356"><ele>316.0</ele><time>2026-04-12T09:21:50.587Z</time></trkpt><trkpt lat="42.7304108" lon="12.6695554"><ele>316.0</ele><time>2026-04-12T09:21:51.594Z</time></trkpt><trkpt lat="42.7303368" lon="12.6694613"><ele>316.0</ele><time>2026-04-12T09:21:52.6Z</time></trkpt><trkpt lat="42.7302827" lon="12.6693652"><ele>316.0</ele><time>2026-04-12T09:21:53.597Z</time></trkpt><trkpt lat="42.730247" lon="12.669277"><ele>316.0</ele><time>2026-04-12T09:21:54.611Z</time></trkpt><trkpt lat="42.7302207" lon="12.669187"><ele>316.0</ele><time>2026-04-12T09:21:55.593Z</time></trkpt><trkpt lat="42.7301995" lon="12.669074"><ele>316.0</ele><time>2026-04-12T09:21:56.593Z</time></trkpt><trkpt lat="42.7301809" lon="12.6689408"><ele>316.0</ele><time>2026-04-12T09:21:57.591Z</time></trkpt><trkpt lat="42.7301601" lon="12.6687948"><ele>316.75</ele><time>2026-04-12T09:21:58.595Z</time></trkpt><trkpt lat="42.7301339" lon="12.6686354"><ele>317.5</ele><time>2026-04-12T09:21:59.593Z</time></trkpt><trkpt lat="42.7301034" lon="12.6684661"><ele>318.25</ele><time>2026-04-12T09:22:00.589Z</time></trkpt><trkpt lat="42.7300676" lon="12.6682887"><ele>319.0</ele><time>2026-04-12T09:22:01.593Z</time></trkpt><trkpt lat="42.7300244" lon="12.6681017"><ele>319.0</ele><time>2026-04-12T09:22:02.599Z</time></trkpt><trkpt lat="42.7299748" lon="12.6679051"><ele>319.0</ele><time>2026-04-12T09:22:03.591Z</time></trkpt><trkpt lat="42.7299195" lon="12.6677067"><ele>319.0</ele><time>2026-04-12T09:22:04.591Z</time></trkpt><trkpt lat="42.7298556" lon="12.6675043"><ele>319.3333333333333</ele><time>2026-04-12T09:22:05.592Z</time></trkpt><trkpt lat="42.7297831" lon="12.6672977"><ele>319.6666666666667</ele><time>2026-04-12T09:22:06.597Z</time></trkpt><trkpt lat="42.729704" lon="12.6670888"><ele>320.0</ele><time>2026-04-12T09:22:07.597Z</time></trkpt><trkpt lat="42.7296202" lon="12.6668797"><ele>320.33333333333337</ele><time>2026-04-12T09:22:08.606Z</time></trkpt><trkpt lat="42.7295318" lon="12.6666668"><ele>320.6666666666667</ele><time>2026-04-12T09:22:09.597Z</time></trkpt><trkpt lat="42.7294386" lon="12.6664547"><ele>321.0</ele><time>2026-04-12T09:22:10.592Z</time></trkpt><trkpt lat="42.7293383" lon="12.6662483"><ele>321.6666666666667</ele><time>2026-04-12T09:22:11.594Z</time></trkpt><trkpt lat="42.7292308" lon="12.6660487"><ele>322.33333333333337</ele><time>2026-04-12T09:22:12.597Z</time></trkpt><trkpt lat="42.7291176" lon="12.6658521"><ele>323.0</ele><time>2026-04-12T09:22:13.59Z</time></trkpt><trkpt lat="42.7289968" lon="12.6656577"><ele>323.0</ele><time>2026-04-12T09:22:14.59Z</time></trkpt><trkpt lat="42.7288677" lon="12.6654657"><ele>323.0</ele><time>2026-04-12T09:22:15.593Z</time></trkpt><trkpt lat="42.728729" lon="12.6652744"><ele>323.0</ele><time>2026-04-12T09:22:16.591Z</time></trkpt><trkpt lat="42.72858" lon="12.6650817"><ele>323.33333333333337</ele><time>2026-04-12T09:22:17.602Z</time></trkpt><trkpt lat="42.728419" lon="12.6648884"><ele>323.6666666666667</ele><time>2026-04-12T09:22:18.591Z</time></trkpt><trkpt lat="42.728246" lon="12.6646987"><ele>324.0</ele><time>2026-04-12T09:22:19.6Z</time></trkpt><trkpt lat="42.7280598" lon="12.6645183"><ele>323.5</ele><time>2026-04-12T09:22:20.594Z</time></trkpt><trkpt lat="42.7278603" lon="12.6643519"><ele>323.0</ele><time>2026-04-12T09:22:21.596Z</time></trkpt><trkpt lat="42.7276518" lon="12.6641947"><ele>323.0</ele><time>2026-04-12T09:22:22.589Z</time></trkpt><trkpt lat="42.7274388" lon="12.6640399"><ele>323.0</ele><time>2026-04-12T09:22:23.596Z</time></trkpt><trkpt lat="42.7272241" lon="12.6638857"><ele>323.0</ele><time>2026-04-12T09:22:24.596Z</time></trkpt><trkpt lat="42.7270079" lon="12.6637324"><ele>323.0</ele><time>2026-04-12T09:22:25.596Z</time></trkpt><trkpt lat="42.7267907" lon="12.6635799"><ele>323.5</ele><time>2026-04-12T09:22:26.593Z</time></trkpt><trkpt lat="42.7265737" lon="12.6634241"><ele>324.0</ele><time>2026-04-12T09:22:27.591Z</time></trkpt><trkpt lat="42.7263608" lon="12.6632597"><ele>324.0</ele><time>2026-04-12T09:22:28.595Z</time></trkpt><trkpt lat="42.7261618" lon="12.6630845"><ele>324.0</ele><time>2026-04-12T09:22:29.599Z</time></trkpt><trkpt lat="42.7259771" lon="12.6628939"><ele>324.3333333333333</ele><time>2026-04-12T09:22:30.595Z</time></trkpt><trkpt lat="42.7258052" lon="12.662688"><ele>324.66666666666663</ele><time>2026-04-12T09:22:31.598Z</time></trkpt><trkpt lat="42.7256514" lon="12.662475"><ele>325.0</ele><time>2026-04-12T09:22:32.592Z</time></trkpt><trkpt lat="42.7255125" lon="12.6622553"><ele>325.0</ele><time>2026-04-12T09:22:33.596Z</time></trkpt><trkpt lat="42.7253869" lon="12.6620273"><ele>325.0</ele><time>2026-04-12T09:22:34.595Z</time></trkpt><trkpt lat="42.7252743" lon="12.6617912"><ele>325.0</ele><time>2026-04-12T09:22:35.596Z</time></trkpt><trkpt lat="42.7251713" lon="12.6615526"><ele>325.3333333333333</ele><time>2026-04-12T09:22:36.591Z</time></trkpt><trkpt lat="42.7250744" lon="12.6613171"><ele>325.6666666666667</ele><time>2026-04-12T09:22:37.595Z</time></trkpt><trkpt lat="42.7249768" lon="12.6610877"><ele>326.0</ele><time>2026-04-12T09:22:38.593Z</time></trkpt><trkpt lat="42.7248809" lon="12.6608609"><ele>326.0</ele><time>2026-04-12T09:22:39.594Z</time></trkpt><trkpt lat="42.724784" lon="12.6606324"><ele>326.0</ele><time>2026-04-12T09:22:40.589Z</time></trkpt><trkpt lat="42.7246831" lon="12.6604005"><ele>326.0</ele><time>2026-04-12T09:22:41.595Z</time></trkpt><trkpt lat="42.7245806" lon="12.6601647"><ele>325.6666666666667</ele><time>2026-04-12T09:22:42.595Z</time></trkpt><trkpt lat="42.7244784" lon="12.6599249"><ele>325.3333333333333</ele><time>2026-04-12T09:22:43.597Z</time></trkpt><trkpt lat="42.724378" lon="12.6596809"><ele>325.0</ele><time>2026-04-12T09:22:44.594Z</time></trkpt><trkpt lat="42.7242826" lon="12.659431"><ele>325.66666666666663</ele><time>2026-04-12T09:22:45.602Z</time></trkpt><trkpt lat="42.7241942" lon="12.6591766"><ele>326.3333333333333</ele><time>2026-04-12T09:22:46.591Z</time></trkpt><trkpt lat="42.7241107" lon="12.6589201"><ele>327.0</ele><time>2026-04-12T09:22:47.592Z</time></trkpt><trkpt lat="42.724029" lon="12.6586642"><ele>327.0</ele><time>2026-04-12T09:22:48.591Z</time></trkpt><trkpt lat="42.7239459" lon="12.6584072"><ele>327.0</ele><time>2026-04-12T09:22:49.59Z</time></trkpt><trkpt lat="42.7238601" lon="12.658142"><ele>327.0</ele><time>2026-04-12T09:22:50.602Z</time></trkpt><trkpt lat="42.7237711" lon="12.6578664"><ele>326.5</ele><time>2026-04-12T09:22:51.589Z</time></trkpt><trkpt lat="42.7236796" lon="12.6575821"><ele>326.0</ele><time>2026-04-12T09:22:52.591Z</time></trkpt><trkpt lat="42.723585" lon="12.6572916"><ele>327.5</ele><time>2026-04-12T09:22:53.593Z</time></trkpt><trkpt lat="42.723489" lon="12.6569945"><ele>329.0</ele><time>2026-04-12T09:22:54.59Z</time></trkpt><trkpt lat="42.72339" lon="12.6566883"><ele>329.0</ele><time>2026-04-12T09:22:55.596Z</time></trkpt><trkpt lat="42.7232872" lon="12.656374"><ele>329.0</ele><time>2026-04-12T09:22:56.605Z</time></trkpt><trkpt lat="42.7231807" lon="12.6560525"><ele>329.0</ele><time>2026-04-12T09:22:57.595Z</time></trkpt><trkpt lat="42.723073" lon="12.6557264"><ele>329.0</ele><time>2026-04-12T09:22:58.592Z</time></trkpt><trkpt lat="42.7229637" lon="12.6553949"><ele>328.5</ele><time>2026-04-12T09:22:59.592Z</time></trkpt><trkpt lat="42.7228543" lon="12.6550575"><ele>328.0</ele><time>2026-04-12T09:23:00.592Z</time></trkpt><trkpt lat="42.7227495" lon="12.654716"><ele>330.0</ele><time>2026-04-12T09:23:01.592Z</time></trkpt><trkpt lat="42.722655" lon="12.6543693"><ele>332.0</ele><time>2026-04-12T09:23:02.593Z</time></trkpt><trkpt lat="42.7225709" lon="12.6540187"><ele>332.0</ele><time>2026-04-12T09:23:03.593Z</time></trkpt><trkpt lat="42.7224885" lon="12.6536653"><ele>332.0</ele><time>2026-04-12T09:23:04.595Z</time></trkpt><trkpt lat="42.7223966" lon="12.6533102"><ele>331.5</ele><time>2026-04-12T09:23:05.593Z</time></trkpt><trkpt lat="42.7222925" lon="12.6529578"><ele>331.0</ele><time>2026-04-12T09:23:06.599Z</time></trkpt><trkpt lat="42.7221784" lon="12.6526138"><ele>331.0</ele><time>2026-04-12T09:23:07.603Z</time></trkpt><trkpt lat="42.7220582" lon="12.6522817"><ele>331.0</ele><time>2026-04-12T09:23:08.597Z</time></trkpt><trkpt lat="42.7219426" lon="12.6519672"><ele>335.0</ele><time>2026-04-12T09:23:09.592Z</time></trkpt><trkpt lat="42.7218383" lon="12.6516642"><ele>339.0</ele><time>2026-04-12T09:23:10.592Z</time></trkpt><trkpt lat="42.7217438" lon="12.6513571"><ele>336.5</ele><time>2026-04-12T09:23:11.595Z</time></trkpt><trkpt lat="42.7216566" lon="12.6510455"><ele>334.0</ele><time>2026-04-12T09:23:12.592Z</time></trkpt><trkpt lat="42.7215731" lon="12.6507316"><ele>334.0</ele><time>2026-04-12T09:23:13.599Z</time></trkpt><trkpt lat="42.7214925" lon="12.6504236"><ele>334.0</ele><time>2026-04-12T09:23:14.597Z</time></trkpt><trkpt lat="42.7214074" lon="12.6501073"><ele>333.0</ele><time>2026-04-12T09:23:15.595Z</time></trkpt><trkpt lat="42.721308" lon="12.6497751"><ele>332.0</ele><time>2026-04-12T09:23:16.594Z</time></trkpt><trkpt lat="42.7211899" lon="12.6494337"><ele>333.5</ele><time>2026-04-12T09:23:17.6Z</time></trkpt><trkpt lat="42.721064" lon="12.6490911"><ele>335.0</ele><time>2026-04-12T09:23:18.597Z</time></trkpt><trkpt lat="42.7209468" lon="12.6487687"><ele>334.5</ele><time>2026-04-12T09:23:19.593Z</time></trkpt><trkpt lat="42.7208355" lon="12.6484636"><ele>334.0</ele><time>2026-04-12T09:23:20.594Z</time></trkpt><trkpt lat="42.7207259" lon="12.6481612"><ele>334.0</ele><time>2026-04-12T09:23:21.599Z</time></trkpt><trkpt lat="42.7206363" lon="12.6478467"><ele>334.0</ele><time>2026-04-12T09:23:22.598Z</time></trkpt><trkpt lat="42.7205825" lon="12.6475132"><ele>334.5</ele><time>2026-04-12T09:23:23.6Z</time></trkpt><trkpt lat="42.7205656" lon="12.6471626"><ele>335.0</ele><time>2026-04-12T09:23:24.592Z</time></trkpt><trkpt lat="42.7205743" lon="12.6468028"><ele>335.0</ele><time>2026-04-12T09:23:25.597Z</time></trkpt><trkpt lat="42.7205884" lon="12.6464447"><ele>335.0</ele><time>2026-04-12T09:23:26.604Z</time></trkpt><trkpt lat="42.7205987" lon="12.646106"><ele>335.0</ele><time>2026-04-12T09:23:27.598Z</time></trkpt><trkpt lat="42.7206063" lon="12.6457918"><ele>335.0</ele><time>2026-04-12T09:23:28.595Z</time></trkpt><trkpt lat="42.7206187" lon="12.6455037"><ele>335.0</ele><time>2026-04-12T09:23:29.59Z</time></trkpt><trkpt lat="42.7206489" lon="12.6452374"><ele>334.6666666666667</ele><time>2026-04-12T09:23:30.602Z</time></trkpt><trkpt lat="42.7207264" lon="12.6449899"><ele>334.3333333333333</ele><time>2026-04-12T09:23:31.605Z</time></trkpt><trkpt lat="42.7208559" lon="12.6447632"><ele>334.0</ele><time>2026-04-12T09:23:32.595Z</time></trkpt><trkpt lat="42.7210163" lon="12.6445487"><ele>336.0</ele><time>2026-04-12T09:23:33.594Z</time></trkpt><trkpt lat="42.7211862" lon="12.6443345"><ele>338.0</ele><time>2026-04-12T09:23:34.599Z</time></trkpt><trkpt lat="42.7213486" lon="12.6441288"><ele>338.0</ele><time>2026-04-12T09:23:35.602Z</time></trkpt><trkpt lat="42.7215022" lon="12.6439347"><ele>338.0</ele><time>2026-04-12T09:23:36.599Z</time></trkpt><trkpt lat="42.7216567" lon="12.6437418"><ele>338.0</ele><time>2026-04-12T09:23:37.587Z</time></trkpt><trkpt lat="42.7218146" lon="12.6435451"><ele>338.6666666666667</ele><time>2026-04-12T09:23:38.601Z</time></trkpt><trkpt lat="42.7219697" lon="12.6433501"><ele>339.3333333333333</ele><time>2026-04-12T09:23:39.603Z</time></trkpt><trkpt lat="42.7221164" lon="12.6432156"><ele>340.0</ele><time>2026-04-12T09:23:40.612Z</time></trkpt><trkpt lat="42.7222233" lon="12.6430147"><ele>340.0</ele><time>2026-04-12T09:23:41.592Z</time></trkpt><trkpt lat="42.7223005" lon="12.6428014"><ele>340.0</ele><time>2026-04-12T09:23:42.6Z</time></trkpt><trkpt lat="42.7223595" lon="12.6425928"><ele>340.0</ele><time>2026-04-12T09:23:43.591Z</time></trkpt><trkpt lat="42.7224012" lon="12.6423788"><ele>340.66666666666663</ele><time>2026-04-12T09:23:44.595Z</time></trkpt><trkpt lat="42.7224256" lon="12.642147"><ele>341.3333333333333</ele><time>2026-04-12T09:23:45.592Z</time></trkpt><trkpt lat="42.7224416" lon="12.6419054"><ele>342.0</ele><time>2026-04-12T09:23:46.593Z</time></trkpt><trkpt lat="42.7224512" lon="12.6416716"><ele>342.6666666666667</ele><time>2026-04-12T09:23:47.592Z</time></trkpt><trkpt lat="42.7224508" lon="12.6414334"><ele>343.33333333333337</ele><time>2026-04-12T09:23:48.594Z</time></trkpt><trkpt lat="42.722432" lon="12.6411766"><ele>344.0</ele><time>2026-04-12T09:23:49.591Z</time></trkpt><trkpt lat="42.7223858" lon="12.6409042"><ele>344.6666666666667</ele><time>2026-04-12T09:23:50.599Z</time></trkpt><trkpt lat="42.7223154" lon="12.6406197"><ele>345.3333333333333</ele><time>2026-04-12T09:23:51.591Z</time></trkpt><trkpt lat="42.7222475" lon="12.6403272"><ele>346.0</ele><time>2026-04-12T09:23:52.595Z</time></trkpt><trkpt lat="42.7222074" lon="12.6400204"><ele>347.0</ele><time>2026-04-12T09:23:53.593Z</time></trkpt><trkpt lat="42.7221855" lon="12.639705"><ele>348.0</ele><time>2026-04-12T09:23:54.599Z</time></trkpt><trkpt lat="42.7221473" lon="12.6393913"><ele>349.0</ele><time>2026-04-12T09:23:55.591Z</time></trkpt><trkpt lat="42.7220804" lon="12.639086"><ele>350.0</ele><time>2026-04-12T09:23:56.59Z</time></trkpt><trkpt lat="42.7219947" lon="12.6387897"><ele>350.0</ele><time>2026-04-12T09:23:57.594Z</time></trkpt><trkpt lat="42.7219106" lon="12.6384952"><ele>350.0</ele><time>2026-04-12T09:23:58.595Z</time></trkpt><trkpt lat="42.7218297" lon="12.6382012"><ele>351.5</ele><time>2026-04-12T09:23:59.591Z</time></trkpt><trkpt lat="42.7217492" lon="12.637908"><ele>353.0</ele><time>2026-04-12T09:24:00.591Z</time></trkpt><trkpt lat="42.7216682" lon="12.6376175"><ele>353.5</ele><time>2026-04-12T09:24:01.59Z</time></trkpt><trkpt lat="42.7215836" lon="12.637328"><ele>354.0</ele><time>2026-04-12T09:24:02.593Z</time></trkpt><trkpt lat="42.7214875" lon="12.6370471"><ele>355.0</ele><time>2026-04-12T09:24:03.591Z</time></trkpt><trkpt lat="42.7213686" lon="12.6367838"><ele>356.0</ele><time>2026-04-12T09:24:04.594Z</time></trkpt><trkpt lat="42.7212362" lon="12.6365319"><ele>356.0</ele><time>2026-04-12T09:24:05.597Z</time></trkpt><trkpt lat="42.7211003" lon="12.6362784"><ele>356.0</ele><time>2026-04-12T09:24:06.595Z</time></trkpt><trkpt lat="42.7209658" lon="12.6360181"><ele>358.0</ele><time>2026-04-12T09:24:07.597Z</time></trkpt><trkpt lat="42.7208418" lon="12.6357446"><ele>360.0</ele><time>2026-04-12T09:24:08.592Z</time></trkpt><trkpt lat="42.7207405" lon="12.6354545"><ele>360.5</ele><time>2026-04-12T09:24:09.596Z</time></trkpt><trkpt lat="42.7206579" lon="12.6351476"><ele>361.0</ele><time>2026-04-12T09:24:10.595Z</time></trkpt><trkpt lat="42.720583" lon="12.6348321"><ele>361.0</ele><time>2026-04-12T09:24:11.59Z</time></trkpt><trkpt lat="42.7205073" lon="12.6345138"><ele>361.0</ele><time>2026-04-12T09:24:12.595Z</time></trkpt><trkpt lat="42.7204315" lon="12.6342009"><ele>362.0</ele><time>2026-04-12T09:24:13.594Z</time></trkpt><trkpt lat="42.720357" lon="12.6338926"><ele>363.0</ele><time>2026-04-12T09:24:14.583Z</time></trkpt><trkpt lat="42.7202892" lon="12.6335844"><ele>363.5</ele><time>2026-04-12T09:24:15.586Z</time></trkpt><trkpt lat="42.7202458" lon="12.633272"><ele>364.0</ele><time>2026-04-12T09:24:16.588Z</time></trkpt><trkpt lat="42.72025" lon="12.6329545"><ele>365.5</ele><time>2026-04-12T09:24:17.589Z</time></trkpt><trkpt lat="42.7202907" lon="12.6326383"><ele>367.0</ele><time>2026-04-12T09:24:18.586Z</time></trkpt><trkpt lat="42.7203296" lon="12.6323206"><ele>367.0</ele><time>2026-04-12T09:24:19.59Z</time></trkpt><trkpt lat="42.720348" lon="12.6319913"><ele>367.0</ele><time>2026-04-12T09:24:20.586Z</time></trkpt><trkpt lat="42.7203451" lon="12.6316531"><ele>368.5</ele><time>2026-04-12T09:24:21.587Z</time></trkpt><trkpt lat="42.7203276" lon="12.6313095"><ele>370.0</ele><time>2026-04-12T09:24:22.588Z</time></trkpt><trkpt lat="42.7203079" lon="12.6309597"><ele>371.0</ele><time>2026-04-12T09:24:23.581Z</time></trkpt><trkpt lat="42.7202887" lon="12.6306052"><ele>372.0</ele><time>2026-04-12T09:24:24.584Z</time></trkpt><trkpt lat="42.7202695" lon="12.6302499"><ele>373.0</ele><time>2026-04-12T09:24:25.595Z</time></trkpt><trkpt lat="42.7202477" lon="12.6298977"><ele>374.0</ele><time>2026-04-12T09:24:26.591Z</time></trkpt><trkpt lat="42.7202234" lon="12.6295523"><ele>380.5</ele><time>2026-04-12T09:24:27.596Z</time></trkpt><trkpt lat="42.7201975" lon="12.6292317"><ele>387.0</ele><time>2026-04-12T09:24:28.587Z</time></trkpt><trkpt lat="42.7201688" lon="12.6289372"><ele>387.0</ele><time>2026-04-12T09:24:29.59Z</time></trkpt><trkpt lat="42.7201226" lon="12.6286638"><ele>387.0</ele><time>2026-04-12T09:24:30.591Z</time></trkpt><trkpt lat="42.7200361" lon="12.6284055"><ele>387.0</ele><time>2026-04-12T09:24:31.592Z</time></trkpt><trkpt lat="42.7199103" lon="12.628166"><ele>386.66666666666663</ele><time>2026-04-12T09:24:32.588Z</time></trkpt><trkpt lat="42.7197459" lon="12.6279601"><ele>386.3333333333333</ele><time>2026-04-12T09:24:33.607Z</time></trkpt><trkpt lat="42.7195682" lon="12.6277994"><ele>386.0</ele><time>2026-04-12T09:24:34.596Z</time></trkpt><trkpt lat="42.7194026" lon="12.6276537"><ele>387.66666666666663</ele><time>2026-04-12T09:24:35.592Z</time></trkpt><trkpt lat="42.7192609" lon="12.6274703"><ele>389.33333333333337</ele><time>2026-04-12T09:24:36.585Z</time></trkpt><trkpt lat="42.7191508" lon="12.6272457"><ele>391.0</ele><time>2026-04-12T09:24:37.587Z</time></trkpt><trkpt lat="42.7190909" lon="12.6269984"><ele>392.0</ele><time>2026-04-12T09:24:38.588Z</time></trkpt><trkpt lat="42.7190792" lon="12.6267327"><ele>393.0</ele><time>2026-04-12T09:24:39.588Z</time></trkpt><trkpt lat="42.7191169" lon="12.6264662"><ele>394.0</ele><time>2026-04-12T09:24:40.588Z</time></trkpt><trkpt lat="42.7192057" lon="12.626211"><ele>394.0</ele><time>2026-04-12T09:24:41.587Z</time></trkpt><trkpt lat="42.7193299" lon="12.6259623"><ele>394.0</ele><time>2026-04-12T09:24:42.59Z</time></trkpt><trkpt lat="42.7194609" lon="12.6257075"><ele>394.0</ele><time>2026-04-12T09:24:43.596Z</time></trkpt><trkpt lat="42.7195854" lon="12.6254334"><ele>397.5</ele><time>2026-04-12T09:24:44.596Z</time></trkpt><trkpt lat="42.7197045" lon="12.6251517"><ele>401.0</ele><time>2026-04-12T09:24:45.591Z</time></trkpt><trkpt lat="42.7198217" lon="12.6248849"><ele>401.0</ele><time>2026-04-12T09:24:46.597Z</time></trkpt><trkpt lat="42.7199004" lon="12.6245828"><ele>401.0</ele><time>2026-04-12T09:24:47.595Z</time></trkpt><trkpt lat="42.7199411" lon="12.624261"><ele>405.0</ele><time>2026-04-12T09:24:48.609Z</time></trkpt><trkpt lat="42.719954" lon="12.6239297"><ele>409.0</ele><time>2026-04-12T09:24:49.589Z</time></trkpt><trkpt lat="42.7199553" lon="12.6236198"><ele>409.6666666666667</ele><time>2026-04-12T09:24:50.595Z</time></trkpt><trkpt lat="42.7198921" lon="12.6233345"><ele>410.33333333333337</ele><time>2026-04-12T09:24:51.587Z</time></trkpt><trkpt lat="42.7197817" lon="12.6230712"><ele>411.0</ele><time>2026-04-12T09:24:52.592Z</time></trkpt><trkpt lat="42.7196384" lon="12.6228499"><ele>410.0</ele><time>2026-04-12T09:24:53.587Z</time></trkpt><trkpt lat="42.7195081" lon="12.6226319"><ele>409.0</ele><time>2026-04-12T09:24:54.584Z</time></trkpt><trkpt lat="42.7194279" lon="12.6223759"><ele>408.0</ele><time>2026-04-12T09:24:55.586Z</time></trkpt><trkpt lat="42.7194085" lon="12.6220949"><ele>408.0</ele><time>2026-04-12T09:24:56.588Z</time></trkpt><trkpt lat="42.719405" lon="12.6218214"><ele>408.0</ele><time>2026-04-12T09:24:57.582Z</time></trkpt><trkpt lat="42.7194004" lon="12.6215711"><ele>408.0</ele><time>2026-04-12T09:24:58.583Z</time></trkpt><trkpt lat="42.7193953" lon="12.6213275"><ele>414.33333333333337</ele><time>2026-04-12T09:24:59.589Z</time></trkpt><trkpt lat="42.719388" lon="12.6211061"><ele>420.6666666666667</ele><time>2026-04-12T09:25:00.591Z</time></trkpt><trkpt lat="42.7193491" lon="12.6208995"><ele>427.0</ele><time>2026-04-12T09:25:01.583Z</time></trkpt><trkpt lat="42.7192547" lon="12.6207006"><ele>427.0</ele><time>2026-04-12T09:25:02.59Z</time></trkpt><trkpt lat="42.7191206" lon="12.6205115"><ele>427.0</ele><time>2026-04-12T09:25:03.588Z</time></trkpt><trkpt lat="42.7189694" lon="12.620324"><ele>427.0</ele><time>2026-04-12T09:25:04.587Z</time></trkpt><trkpt lat="42.7187939" lon="12.6201611"><ele>426.0</ele><time>2026-04-12T09:25:05.579Z</time></trkpt><trkpt lat="42.7186107" lon="12.6200425"><ele>425.0</ele><time>2026-04-12T09:25:06.585Z</time></trkpt><trkpt lat="42.7184258" lon="12.6199141"><ele>424.0</ele><time>2026-04-12T09:25:07.595Z</time></trkpt><trkpt lat="42.7182752" lon="12.6196955"><ele>428.6666666666667</ele><time>2026-04-12T09:25:08.587Z</time></trkpt><trkpt lat="42.7181436" lon="12.6194516"><ele>433.33333333333337</ele><time>2026-04-12T09:25:09.586Z</time></trkpt><trkpt lat="42.7180326" lon="12.6192137"><ele>438.0</ele><time>2026-04-12T09:25:10.587Z</time></trkpt><trkpt lat="42.7179618" lon="12.6189679"><ele>438.0</ele><time>2026-04-12T09:25:11.59Z</time></trkpt><trkpt lat="42.7179487" lon="12.6187326"><ele>438.0</ele><time>2026-04-12T09:25:12.59Z</time></trkpt><trkpt lat="42.7179551" lon="12.6185205"><ele>438.0</ele><time>2026-04-12T09:25:13.591Z</time></trkpt><trkpt lat="42.7179602" lon="12.6183181"><ele>440.0</ele><time>2026-04-12T09:25:14.584Z</time></trkpt><trkpt lat="42.717877" lon="12.6181456"><ele>442.0</ele><time>2026-04-12T09:25:15.584Z</time></trkpt><trkpt lat="42.7177444" lon="12.618014"><ele>444.0</ele><time>2026-04-12T09:25:16.59Z</time></trkpt><trkpt lat="42.7175763" lon="12.6179271"><ele>447.0</ele><time>2026-04-12T09:25:17.598Z</time></trkpt><trkpt lat="42.7174093" lon="12.6178368"><ele>450.0</ele><time>2026-04-12T09:25:18.587Z</time></trkpt><trkpt lat="42.7172803" lon="12.617722"><ele>453.0</ele><time>2026-04-12T09:25:19.584Z</time></trkpt><trkpt lat="42.7171884" lon="12.617567"><ele>453.0</ele><time>2026-04-12T09:25:20.589Z</time></trkpt><trkpt lat="42.717137" lon="12.6173782"><ele>453.0</ele><time>2026-04-12T09:25:21.586Z</time></trkpt><trkpt lat="42.7171157" lon="12.6171901"><ele>453.0</ele><time>2026-04-12T09:25:22.587Z</time></trkpt><trkpt lat="42.7171093" lon="12.6170174"><ele>453.0</ele><time>2026-04-12T09:25:23.588Z</time></trkpt><trkpt lat="42.7171043" lon="12.6168515"><ele>453.5</ele><time>2026-04-12T09:25:24.582Z</time></trkpt><trkpt lat="42.7170988" lon="12.6166786"><ele>454.0</ele><time>2026-04-12T09:25:25.594Z</time></trkpt><trkpt lat="42.7170788" lon="12.6164965"><ele>454.5</ele><time>2026-04-12T09:25:26.6Z</time></trkpt><trkpt lat="42.717026" lon="12.6163072"><ele>455.0</ele><time>2026-04-12T09:25:27.591Z</time></trkpt><trkpt lat="42.7169156" lon="12.6161416"><ele>456.3333333333333</ele><time>2026-04-12T09:25:28.589Z</time></trkpt><trkpt lat="42.7167792" lon="12.6159889"><ele>457.66666666666663</ele><time>2026-04-12T09:25:29.586Z</time></trkpt><trkpt lat="42.7166358" lon="12.6158273"><ele>459.0</ele><time>2026-04-12T09:25:30.587Z</time></trkpt><trkpt lat="42.7164851" lon="12.6156641"><ele>459.0</ele><time>2026-04-12T09:25:31.598Z</time></trkpt><trkpt lat="42.7163542" lon="12.6154893"><ele>459.0</ele><time>2026-04-12T09:25:32.59Z</time></trkpt><trkpt lat="42.716284" lon="12.6152793"><ele>459.0</ele><time>2026-04-12T09:25:33.591Z</time></trkpt><trkpt lat="42.7162651" lon="12.6150485"><ele>461.66666666666663</ele><time>2026-04-12T09:25:34.589Z</time></trkpt><trkpt lat="42.7162596" lon="12.6147954"><ele>464.3333333333333</ele><time>2026-04-12T09:25:35.596Z</time></trkpt><trkpt lat="42.7162547" lon="12.6145232"><ele>467.0</ele><time>2026-04-12T09:25:36.593Z</time></trkpt><trkpt lat="42.7162745" lon="12.61423"><ele>467.0</ele><time>2026-04-12T09:25:37.589Z</time></trkpt><trkpt lat="42.7163322" lon="12.6139394"><ele>467.0</ele><time>2026-04-12T09:25:38.586Z</time></trkpt><trkpt lat="42.7164207" lon="12.6136544"><ele>467.0</ele><time>2026-04-12T09:25:39.592Z</time></trkpt><trkpt lat="42.7164963" lon="12.6133595"><ele>467.0</ele><time>2026-04-12T09:25:40.588Z</time></trkpt><trkpt lat="42.7165479" lon="12.6130471"><ele>467.0</ele><time>2026-04-12T09:25:41.594Z</time></trkpt><trkpt lat="42.7165834" lon="12.6127316"><ele>467.0</ele><time>2026-04-12T09:25:42.592Z</time></trkpt><trkpt lat="42.716619" lon="12.6124285"><ele>467.0</ele><time>2026-04-12T09:25:43.596Z</time></trkpt><trkpt lat="42.7166525" lon="12.6121442"><ele>467.0</ele><time>2026-04-12T09:25:44.588Z</time></trkpt><trkpt lat="42.7166813" lon="12.6118795"><ele>467.0</ele><time>2026-04-12T09:25:45.588Z</time></trkpt><trkpt lat="42.7166579" lon="12.6116406"><ele>467.0</ele><time>2026-04-12T09:25:46.59Z</time></trkpt><trkpt lat="42.7165765" lon="12.6114214"><ele>467.0</ele><time>2026-04-12T09:25:47.591Z</time></trkpt><trkpt lat="42.7164431" lon="12.6112485"><ele>469.3333333333333</ele><time>2026-04-12T09:25:48.584Z</time></trkpt><trkpt lat="42.7162608" lon="12.611136"><ele>471.66666666666663</ele><time>2026-04-12T09:25:49.599Z</time></trkpt><trkpt lat="42.7160605" lon="12.6110422"><ele>474.0</ele><time>2026-04-12T09:25:50.582Z</time></trkpt><trkpt lat="42.7158417" lon="12.610981"><ele>468.33333333333337</ele><time>2026-04-12T09:25:51.59Z</time></trkpt><trkpt lat="42.7156226" lon="12.6109049"><ele>462.6666666666667</ele><time>2026-04-12T09:25:52.588Z</time></trkpt><trkpt lat="42.7154341" lon="12.6107436"><ele>457.0</ele><time>2026-04-12T09:25:53.59Z</time></trkpt><trkpt lat="42.7152644" lon="12.6105356"><ele>456.0</ele><time>2026-04-12T09:25:54.589Z</time></trkpt><trkpt lat="42.715128" lon="12.6102886"><ele>455.0</ele><time>2026-04-12T09:25:55.592Z</time></trkpt><trkpt lat="42.7150116" lon="12.6100467"><ele>454.0</ele><time>2026-04-12T09:25:56.591Z</time></trkpt><trkpt lat="42.7149166" lon="12.6097687"><ele>458.0</ele><time>2026-04-12T09:25:57.592Z</time></trkpt><trkpt lat="42.7148201" lon="12.6094754"><ele>462.0</ele><time>2026-04-12T09:25:58.586Z</time></trkpt><trkpt lat="42.7147299" lon="12.6091999"><ele>462.0</ele><time>2026-04-12T09:25:59.589Z</time></trkpt><trkpt lat="42.7146476" lon="12.6089519"><ele>462.0</ele><time>2026-04-12T09:26:00.593Z</time></trkpt><trkpt lat="42.7145692" lon="12.6087388"><ele>462.0</ele><time>2026-04-12T09:26:01.588Z</time></trkpt><trkpt lat="42.7144809" lon="12.6085646"><ele>463.75</ele><time>2026-04-12T09:26:02.59Z</time></trkpt><trkpt lat="42.7143618" lon="12.6084541"><ele>465.5</ele><time>2026-04-12T09:26:03.591Z</time></trkpt><trkpt lat="42.7142174" lon="12.6084219"><ele>467.25</ele><time>2026-04-12T09:26:04.587Z</time></trkpt><trkpt lat="42.7140795" lon="12.6084814"><ele>469.0</ele><time>2026-04-12T09:26:05.59Z</time></trkpt><trkpt lat="42.7139591" lon="12.6086222"><ele>465.0</ele><time>2026-04-12T09:26:06.583Z</time></trkpt><trkpt lat="42.7138393" lon="12.6088062"><ele>461.0</ele><time>2026-04-12T09:26:07.59Z</time></trkpt><trkpt lat="42.7137036" lon="12.6089956"><ele>457.0</ele><time>2026-04-12T09:26:08.589Z</time></trkpt><trkpt lat="42.713571" lon="12.6091807"><ele>457.0</ele><time>2026-04-12T09:26:09.594Z</time></trkpt><trkpt lat="42.7134442" lon="12.6093707"><ele>457.0</ele><time>2026-04-12T09:26:10.598Z</time></trkpt><trkpt lat="42.7133239" lon="12.6095901"><ele>457.0</ele><time>2026-04-12T09:26:11.59Z</time></trkpt><trkpt lat="42.7132214" lon="12.6098407"><ele>456.6666666666667</ele><time>2026-04-12T09:26:12.588Z</time></trkpt><trkpt lat="42.7131561" lon="12.6100955"><ele>456.33333333333337</ele><time>2026-04-12T09:26:13.593Z</time></trkpt><trkpt lat="42.7131169" lon="12.6103428"><ele>456.0</ele><time>2026-04-12T09:26:14.599Z</time></trkpt><trkpt lat="42.7130739" lon="12.6105661"><ele>456.0</ele><time>2026-04-12T09:26:15.595Z</time></trkpt><trkpt lat="42.7129871" lon="12.6107541"><ele>456.0</ele><time>2026-04-12T09:26:16.588Z</time></trkpt><trkpt lat="42.7128623" lon="12.6108874"><ele>456.0</ele><time>2026-04-12T09:26:17.591Z</time></trkpt><trkpt lat="42.7127251" lon="12.6109951"><ele>462.0</ele><time>2026-04-12T09:26:18.593Z</time></trkpt><trkpt lat="42.7125997" lon="12.6111442"><ele>468.0</ele><time>2026-04-12T09:26:19.592Z</time></trkpt><trkpt lat="42.7124977" lon="12.6113505"><ele>474.0</ele><time>2026-04-12T09:26:20.591Z</time></trkpt><trkpt lat="42.7124118" lon="12.6115815"><ele>474.0</ele><time>2026-04-12T09:26:21.584Z</time></trkpt><trkpt lat="42.7123284" lon="12.6117969"><ele>474.0</ele><time>2026-04-12T09:26:22.599Z</time></trkpt><trkpt lat="42.7122345" lon="12.6119908"><ele>474.0</ele><time>2026-04-12T09:26:23.593Z</time></trkpt><trkpt lat="42.7121217" lon="12.6121602"><ele>476.0</ele><time>2026-04-12T09:26:24.59Z</time></trkpt><trkpt lat="42.7119936" lon="12.612303"><ele>478.0</ele><time>2026-04-12T09:26:25.595Z</time></trkpt><trkpt lat="42.7118522" lon="12.6124167"><ele>480.0</ele><time>2026-04-12T09:26:26.594Z</time></trkpt><trkpt lat="42.711698" lon="12.6124957"><ele>480.0</ele><time>2026-04-12T09:26:27.585Z</time></trkpt><trkpt lat="42.7115366" lon="12.6125212"><ele>480.0</ele><time>2026-04-12T09:26:28.587Z</time></trkpt><trkpt lat="42.7113841" lon="12.6124697"><ele>480.0</ele><time>2026-04-12T09:26:29.59Z</time></trkpt><trkpt lat="42.711261" lon="12.6123509"><ele>480.0</ele><time>2026-04-12T09:26:30.586Z</time></trkpt><trkpt lat="42.7111714" lon="12.6121781"><ele>480.0</ele><time>2026-04-12T09:26:31.597Z</time></trkpt><trkpt lat="42.7111197" lon="12.6119945"><ele>480.0</ele><time>2026-04-12T09:26:32.591Z</time></trkpt><trkpt lat="42.7110621" lon="12.6118198"><ele>480.0</ele><time>2026-04-12T09:26:33.594Z</time></trkpt><trkpt lat="42.7109579" lon="12.6116737"><ele>482.33333333333337</ele><time>2026-04-12T09:26:34.587Z</time></trkpt><trkpt lat="42.7108108" lon="12.6115531"><ele>484.6666666666667</ele><time>2026-04-12T09:26:35.587Z</time></trkpt><trkpt lat="42.7106442" lon="12.6114444"><ele>487.0</ele><time>2026-04-12T09:26:36.6Z</time></trkpt><trkpt lat="42.7104647" lon="12.6113377"><ele>487.0</ele><time>2026-04-12T09:26:37.593Z</time></trkpt><trkpt lat="42.7102758" lon="12.6112308"><ele>487.0</ele><time>2026-04-12T09:26:38.595Z</time></trkpt><trkpt lat="42.7100784" lon="12.6111314"><ele>487.0</ele><time>2026-04-12T09:26:39.589Z</time></trkpt><trkpt lat="42.7098681" lon="12.6110462"><ele>490.0</ele><time>2026-04-12T09:26:40.598Z</time></trkpt><trkpt lat="42.7096477" lon="12.6109778"><ele>493.0</ele><time>2026-04-12T09:26:41.599Z</time></trkpt><trkpt lat="42.7094232" lon="12.6109188"><ele>499.0</ele><time>2026-04-12T09:26:42.592Z</time></trkpt><trkpt lat="42.7091971" lon="12.6108573"><ele>505.0</ele><time>2026-04-12T09:26:43.591Z</time></trkpt><trkpt lat="42.7089762" lon="12.6107824"><ele>505.0</ele><time>2026-04-12T09:26:44.596Z</time></trkpt><trkpt lat="42.7087682" lon="12.6106813"><ele>505.0</ele><time>2026-04-12T09:26:45.588Z</time></trkpt><trkpt lat="42.7085793" lon="12.6105447"><ele>505.0</ele><time>2026-04-12T09:26:46.591Z</time></trkpt><trkpt lat="42.7084133" lon="12.6103808"><ele>508.0</ele><time>2026-04-12T09:26:47.596Z</time></trkpt><trkpt lat="42.708268" lon="12.6101984"><ele>511.0</ele><time>2026-04-12T09:26:48.603Z</time></trkpt><trkpt lat="42.7081349" lon="12.6100132"><ele>514.0</ele><time>2026-04-12T09:26:49.598Z</time></trkpt><trkpt lat="42.7079997" lon="12.6098406"><ele>514.0</ele><time>2026-04-12T09:26:50.599Z</time></trkpt><trkpt lat="42.7078523" lon="12.609705"><ele>514.0</ele><time>2026-04-12T09:26:51.596Z</time></trkpt><trkpt lat="42.7076972" lon="12.609593"><ele>514.0</ele><time>2026-04-12T09:26:52.592Z</time></trkpt><trkpt lat="42.7075762" lon="12.6094431"><ele>516.6666666666667</ele><time>2026-04-12T09:26:53.594Z</time></trkpt><trkpt lat="42.7074976" lon="12.6092355"><ele>519.3333333333334</ele><time>2026-04-12T09:26:54.596Z</time></trkpt><trkpt lat="42.7074597" lon="12.608988"><ele>522.0</ele><time>2026-04-12T09:26:55.594Z</time></trkpt><trkpt lat="42.7074447" lon="12.608717"><ele>524.0</ele><time>2026-04-12T09:26:56.594Z</time></trkpt><trkpt lat="42.7074291" lon="12.608426"><ele>526.0</ele><time>2026-04-12T09:26:57.595Z</time></trkpt><trkpt lat="42.7074118" lon="12.6081224"><ele>528.0</ele><time>2026-04-12T09:26:58.592Z</time></trkpt><trkpt lat="42.707393" lon="12.6078065"><ele>532.0</ele><time>2026-04-12T09:26:59.594Z</time></trkpt><trkpt lat="42.7073727" lon="12.6074791"><ele>536.0</ele><time>2026-04-12T09:27:00.587Z</time></trkpt><trkpt lat="42.7073568" lon="12.607148"><ele>537.6666666666666</ele><time>2026-04-12T09:27:01.588Z</time></trkpt><trkpt lat="42.70734" lon="12.6068398"><ele>539.3333333333334</ele><time>2026-04-12T09:27:02.589Z</time></trkpt><trkpt lat="42.7073201" lon="12.6065621"><ele>541.0</ele><time>2026-04-12T09:27:03.587Z</time></trkpt><trkpt lat="42.7073048" lon="12.6063082"><ele>543.3333333333334</ele><time>2026-04-12T09:27:04.592Z</time></trkpt><trkpt lat="42.7073195" lon="12.6060644"><ele>545.6666666666666</ele><time>2026-04-12T09:27:05.595Z</time></trkpt><trkpt lat="42.7073839" lon="12.605837"><ele>548.0</ele><time>2026-04-12T09:27:06.592Z</time></trkpt><trkpt lat="42.7075001" lon="12.605639"><ele>548.0</ele><time>2026-04-12T09:27:07.601Z</time></trkpt><trkpt lat="42.707663" lon="12.6054922"><ele>548.0</ele><time>2026-04-12T09:27:08.591Z</time></trkpt><trkpt lat="42.7078574" lon="12.6054059"><ele>548.0</ele><time>2026-04-12T09:27:09.593Z</time></trkpt><trkpt lat="42.7080735" lon="12.6053515"><ele>555.5</ele><time>2026-04-12T09:27:10.591Z</time></trkpt><trkpt lat="42.7083" lon="12.6052878"><ele>563.0</ele><time>2026-04-12T09:27:11.591Z</time></trkpt><trkpt lat="42.7085215" lon="12.6052092"><ele>559.6666666666666</ele><time>2026-04-12T09:27:12.595Z</time></trkpt><trkpt lat="42.7087222" lon="12.60513"><ele>556.3333333333334</ele><time>2026-04-12T09:27:13.59Z</time></trkpt><trkpt lat="42.708911" lon="12.6050441"><ele>553.0</ele><time>2026-04-12T09:27:14.588Z</time></trkpt><trkpt lat="42.7090939" lon="12.6049232"><ele>553.0</ele><time>2026-04-12T09:27:15.593Z</time></trkpt><trkpt lat="42.7092709" lon="12.6047606"><ele>553.0</ele><time>2026-04-12T09:27:16.595Z</time></trkpt><trkpt lat="42.7094514" lon="12.6045776"><ele>553.0</ele><time>2026-04-12T09:27:17.586Z</time></trkpt><trkpt lat="42.7096391" lon="12.6043879"><ele>552.5</ele><time>2026-04-12T09:27:18.598Z</time></trkpt><trkpt lat="42.7098231" lon="12.6041732"><ele>552.0</ele><time>2026-04-12T09:27:19.601Z</time></trkpt><trkpt lat="42.7099948" lon="12.6039276"><ele>539.0</ele><time>2026-04-12T09:27:20.594Z</time></trkpt><trkpt lat="42.7101463" lon="12.6036505"><ele>526.0</ele><time>2026-04-12T09:27:21.594Z</time></trkpt><trkpt lat="42.7102759" lon="12.6033477"><ele>526.0</ele><time>2026-04-12T09:27:22.596Z</time></trkpt><trkpt lat="42.7103923" lon="12.6030285"><ele>526.0</ele><time>2026-04-12T09:27:23.592Z</time></trkpt><trkpt lat="42.7105018" lon="12.6027033"><ele>539.0</ele><time>2026-04-12T09:27:24.589Z</time></trkpt><trkpt lat="42.7106046" lon="12.6023903"><ele>552.0</ele><time>2026-04-12T09:27:25.599Z</time></trkpt><trkpt lat="42.7106995" lon="12.6020937"><ele>559.0</ele><time>2026-04-12T09:27:26.591Z</time></trkpt><trkpt lat="42.7107798" lon="12.6018161"><ele>566.0</ele><time>2026-04-12T09:27:27.585Z</time></trkpt><trkpt lat="42.7108317" lon="12.6015344"><ele>573.0</ele><time>2026-04-12T09:27:28.592Z</time></trkpt><trkpt lat="42.71084" lon="12.6012409"><ele>577.0</ele><time>2026-04-12T09:27:29.59Z</time></trkpt><trkpt lat="42.710833" lon="12.6009566"><ele>581.0</ele><time>2026-04-12T09:27:30.588Z</time></trkpt><trkpt lat="42.7108561" lon="12.6006721"><ele>585.0</ele><time>2026-04-12T09:27:31.601Z</time></trkpt><trkpt lat="42.7109215" lon="12.6003852"><ele>591.5</ele><time>2026-04-12T09:27:32.591Z</time></trkpt><trkpt lat="42.7110023" lon="12.6000889"><ele>598.0</ele><time>2026-04-12T09:27:33.584Z</time></trkpt><trkpt lat="42.7110791" lon="12.5997742"><ele>584.5</ele><time>2026-04-12T09:27:34.589Z</time></trkpt><trkpt lat="42.7111589" lon="12.5994497"><ele>571.0</ele><time>2026-04-12T09:27:35.592Z</time></trkpt><trkpt lat="42.7112502" lon="12.5991289"><ele>571.0</ele><time>2026-04-12T09:27:36.587Z</time></trkpt><trkpt lat="42.7113539" lon="12.5988225"><ele>571.0</ele><time>2026-04-12T09:27:37.588Z</time></trkpt><trkpt lat="42.7114607" lon="12.598543"><ele>576.6666666666667</ele><time>2026-04-12T09:27:38.591Z</time></trkpt><trkpt lat="42.7115612" lon="12.5982675"><ele>582.3333333333334</ele><time>2026-04-12T09:27:39.587Z</time></trkpt><trkpt lat="42.7116394" lon="12.5979852"><ele>588.0</ele><time>2026-04-12T09:27:40.589Z</time></trkpt><trkpt lat="42.7116756" lon="12.5976992"><ele>592.0</ele><time>2026-04-12T09:27:41.584Z</time></trkpt><trkpt lat="42.7116878" lon="12.5974219"><ele>596.0</ele><time>2026-04-12T09:27:42.586Z</time></trkpt><trkpt lat="42.7117126" lon="12.5971586"><ele>600.0</ele><time>2026-04-12T09:27:43.589Z</time></trkpt><trkpt lat="42.7117987" lon="12.5969232"><ele>594.3333333333334</ele><time>2026-04-12T09:27:44.584Z</time></trkpt><trkpt lat="42.7119304" lon="12.5967174"><ele>588.6666666666667</ele><time>2026-04-12T09:27:45.59Z</time></trkpt><trkpt lat="42.7121136" lon="12.5965329"><ele>583.0</ele><time>2026-04-12T09:27:46.583Z</time></trkpt><trkpt lat="42.712286" lon="12.596312"><ele>596.0</ele><time>2026-04-12T09:27:47.589Z</time></trkpt><trkpt lat="42.7124274" lon="12.5960415"><ele>609.0</ele><time>2026-04-12T09:27:48.587Z</time></trkpt><trkpt lat="42.7125724" lon="12.5957559"><ele>609.0</ele><time>2026-04-12T09:27:49.59Z</time></trkpt><trkpt lat="42.7127253" lon="12.5954683"><ele>609.0</ele><time>2026-04-12T09:27:50.583Z</time></trkpt><trkpt lat="42.712885" lon="12.5952097"><ele>603.0</ele><time>2026-04-12T09:27:51.592Z</time></trkpt><trkpt lat="42.7130456" lon="12.5949691"><ele>597.0</ele><time>2026-04-12T09:27:52.587Z</time></trkpt><trkpt lat="42.7131992" lon="12.5947193"><ele>608.5</ele><time>2026-04-12T09:27:53.592Z</time></trkpt><trkpt lat="42.7133293" lon="12.5944458"><ele>620.0</ele><time>2026-04-12T09:27:54.587Z</time></trkpt><trkpt lat="42.7134385" lon="12.5941623"><ele>620.0</ele><time>2026-04-12T09:27:55.59Z</time></trkpt><trkpt lat="42.7135342" lon="12.5938969"><ele>620.0</ele><time>2026-04-12T09:27:56.585Z</time></trkpt><trkpt lat="42.7136205" lon="12.5936538"><ele>620.0</ele><time>2026-04-12T09:27:57.591Z</time></trkpt><trkpt lat="42.7136878" lon="12.5934055"><ele>622.0</ele><time>2026-04-12T09:27:58.592Z</time></trkpt><trkpt lat="42.7137151" lon="12.5931312"><ele>624.0</ele><time>2026-04-12T09:27:59.59Z</time></trkpt><trkpt lat="42.713712" lon="12.5928365"><ele>626.0</ele><time>2026-04-12T09:28:00.589Z</time></trkpt><trkpt lat="42.7137091" lon="12.5925267"><ele>626.0</ele><time>2026-04-12T09:28:01.586Z</time></trkpt><trkpt lat="42.7137094" lon="12.5922044"><ele>626.0</ele><time>2026-04-12T09:28:02.592Z</time></trkpt><trkpt lat="42.7136886" lon="12.591889"><ele>630.0</ele><time>2026-04-12T09:28:03.593Z</time></trkpt><trkpt lat="42.713669" lon="12.5915904"><ele>634.0</ele><time>2026-04-12T09:28:04.587Z</time></trkpt><trkpt lat="42.7136826" lon="12.591296"><ele>638.0</ele><time>2026-04-12T09:28:05.588Z</time></trkpt><trkpt lat="42.7136898" lon="12.5910122"><ele>640.3333333333333</ele><time>2026-04-12T09:28:06.591Z</time></trkpt><trkpt lat="42.713656" lon="12.5907216"><ele>642.6666666666666</ele><time>2026-04-12T09:28:07.587Z</time></trkpt><trkpt lat="42.7135854" lon="12.5904269"><ele>645.0</ele><time>2026-04-12T09:28:08.588Z</time></trkpt><trkpt lat="42.7134989" lon="12.5901239"><ele>646.5</ele><time>2026-04-12T09:28:09.59Z</time></trkpt><trkpt lat="42.7134026" lon="12.5898395"><ele>648.0</ele><time>2026-04-12T09:28:10.587Z</time></trkpt><trkpt lat="42.7132859" lon="12.5895698"><ele>647.5</ele><time>2026-04-12T09:28:11.602Z</time></trkpt><trkpt lat="42.7131559" lon="12.5893017"><ele>647.0</ele><time>2026-04-12T09:28:12.594Z</time></trkpt><trkpt lat="42.7130282" lon="12.5890543"><ele>647.0</ele><time>2026-04-12T09:28:13.593Z</time></trkpt><trkpt lat="42.7129016" lon="12.5888394"><ele>647.0</ele><time>2026-04-12T09:28:14.588Z</time></trkpt><trkpt lat="42.7127796" lon="12.5886463"><ele>647.0</ele><time>2026-04-12T09:28:15.587Z</time></trkpt><trkpt lat="42.7126882" lon="12.5884354"><ele>648.6666666666666</ele><time>2026-04-12T09:28:16.587Z</time></trkpt><trkpt lat="42.7126388" lon="12.5882044"><ele>650.3333333333334</ele><time>2026-04-12T09:28:17.586Z</time></trkpt><trkpt lat="42.7126152" lon="12.5879889"><ele>652.0</ele><time>2026-04-12T09:28:18.584Z</time></trkpt><trkpt lat="42.7125951" lon="12.5877987"><ele>652.0</ele><time>2026-04-12T09:28:19.586Z</time></trkpt><trkpt lat="42.7125589" lon="12.5876349"><ele>652.0</ele><time>2026-04-12T09:28:20.589Z</time></trkpt><trkpt lat="42.7124827" lon="12.5875075"><ele>652.0</ele><time>2026-04-12T09:28:21.598Z</time></trkpt><trkpt lat="42.7123719" lon="12.5874449"><ele>652.0</ele><time>2026-04-12T09:28:22.587Z</time></trkpt><trkpt lat="42.7122294" lon="12.5874535"><ele>652.0</ele><time>2026-04-12T09:28:23.591Z</time></trkpt><trkpt lat="42.7120631" lon="12.587479"><ele>652.0</ele><time>2026-04-12T09:28:24.588Z</time></trkpt><trkpt lat="42.7118777" lon="12.5874989"><ele>652.0</ele><time>2026-04-12T09:28:25.595Z</time></trkpt><trkpt lat="42.7116773" lon="12.5875283"><ele>651.6666666666667</ele><time>2026-04-12T09:28:26.591Z</time></trkpt><trkpt lat="42.7114736" lon="12.5875536"><ele>651.3333333333334</ele><time>2026-04-12T09:28:27.592Z</time></trkpt><trkpt lat="42.711275" lon="12.5875431"><ele>651.0</ele><time>2026-04-12T09:28:28.594Z</time></trkpt><trkpt lat="42.7110736" lon="12.5874864"><ele>651.0</ele><time>2026-04-12T09:28:29.595Z</time></trkpt><trkpt lat="42.7108684" lon="12.5873947"><ele>651.0</ele><time>2026-04-12T09:28:30.595Z</time></trkpt><trkpt lat="42.7106578" lon="12.5872896"><ele>651.0</ele><time>2026-04-12T09:28:31.593Z</time></trkpt><trkpt lat="42.7104436" lon="12.5871896"><ele>651.0</ele><time>2026-04-12T09:28:32.594Z</time></trkpt><trkpt lat="42.7102264" lon="12.5871121"><ele>651.0</ele><time>2026-04-12T09:28:33.589Z</time></trkpt><trkpt lat="42.7100063" lon="12.587073"><ele>651.0</ele><time>2026-04-12T09:28:34.588Z</time></trkpt><trkpt lat="42.7097852" lon="12.587056"><ele>651.0</ele><time>2026-04-12T09:28:35.591Z</time></trkpt><trkpt lat="42.709567" lon="12.5870324"><ele>651.0</ele><time>2026-04-12T09:28:36.591Z</time></trkpt><trkpt lat="42.7093505" lon="12.5869751"><ele>651.0</ele><time>2026-04-12T09:28:37.586Z</time></trkpt><trkpt lat="42.7091368" lon="12.5869197"><ele>644.5</ele><time>2026-04-12T09:28:38.591Z</time></trkpt><trkpt lat="42.7089366" lon="12.586778"><ele>638.0</ele><time>2026-04-12T09:28:39.6Z</time></trkpt><trkpt lat="42.7087421" lon="12.5865964"><ele>641.5</ele><time>2026-04-12T09:28:40.59Z</time></trkpt><trkpt lat="42.7085543" lon="12.5863813"><ele>645.0</ele><time>2026-04-12T09:28:41.587Z</time></trkpt><trkpt lat="42.7083709" lon="12.5861423"><ele>637.5</ele><time>2026-04-12T09:28:42.594Z</time></trkpt><trkpt lat="42.7081982" lon="12.5858911"><ele>630.0</ele><time>2026-04-12T09:28:43.593Z</time></trkpt><trkpt lat="42.7080314" lon="12.5856422"><ele>630.0</ele><time>2026-04-12T09:28:44.587Z</time></trkpt><trkpt lat="42.7078697" lon="12.5853742"><ele>630.0</ele><time>2026-04-12T09:28:45.596Z</time></trkpt><trkpt lat="42.7077225" lon="12.5850999"><ele>632.0</ele><time>2026-04-12T09:28:46.601Z</time></trkpt><trkpt lat="42.7075845" lon="12.5848332"><ele>634.0</ele><time>2026-04-12T09:28:47.596Z</time></trkpt><trkpt lat="42.7074457" lon="12.5845753"><ele>625.0</ele><time>2026-04-12T09:28:48.587Z</time></trkpt><trkpt lat="42.7073072" lon="12.5843242"><ele>616.0</ele><time>2026-04-12T09:28:49.59Z</time></trkpt><trkpt lat="42.7071772" lon="12.5840818"><ele>616.0</ele><time>2026-04-12T09:28:50.591Z</time></trkpt><trkpt lat="42.7070599" lon="12.5838435"><ele>616.0</ele><time>2026-04-12T09:28:51.591Z</time></trkpt><trkpt lat="42.7069651" lon="12.5836008"><ele>616.0</ele><time>2026-04-12T09:28:52.589Z</time></trkpt><trkpt lat="42.7069143" lon="12.5833449"><ele>613.0</ele><time>2026-04-12T09:28:53.592Z</time></trkpt><trkpt lat="42.7069006" lon="12.5830896"><ele>610.0</ele><time>2026-04-12T09:28:54.591Z</time></trkpt><trkpt lat="42.7068754" lon="12.5828526"><ele>607.0</ele><time>2026-04-12T09:28:55.591Z</time></trkpt><trkpt lat="42.7068038" lon="12.5826394"><ele>607.0</ele><time>2026-04-12T09:28:56.587Z</time></trkpt><trkpt lat="42.7066834" lon="12.5824627"><ele>607.0</ele><time>2026-04-12T09:28:57.59Z</time></trkpt><trkpt lat="42.7065363" lon="12.5823415"><ele>607.0</ele><time>2026-04-12T09:28:58.592Z</time></trkpt><trkpt lat="42.7063802" lon="12.5822816"><ele>607.0</ele><time>2026-04-12T09:28:59.589Z</time></trkpt><trkpt lat="42.7062324" lon="12.5822859"><ele>607.0</ele><time>2026-04-12T09:29:00.589Z</time></trkpt><trkpt lat="42.7061072" lon="12.5823113"><ele>607.0</ele><time>2026-04-12T09:29:01.596Z</time></trkpt><trkpt lat="42.7059997" lon="12.5823221"><ele>607.0</ele><time>2026-04-12T09:29:02.591Z</time></trkpt><trkpt lat="42.7059078" lon="12.5822279"><ele>606.5</ele><time>2026-04-12T09:29:03.587Z</time></trkpt><trkpt lat="42.7058116" lon="12.5820958"><ele>606.0</ele><time>2026-04-12T09:29:04.587Z</time></trkpt><trkpt lat="42.7057504" lon="12.581937"><ele>605.5</ele><time>2026-04-12T09:29:05.593Z</time></trkpt><trkpt lat="42.7057099" lon="12.5817699"><ele>605.0</ele><time>2026-04-12T09:29:06.589Z</time></trkpt><trkpt lat="42.7056957" lon="12.5815938"><ele>605.0</ele><time>2026-04-12T09:29:07.586Z</time></trkpt><trkpt lat="42.7056889" lon="12.5814268"><ele>605.0</ele><time>2026-04-12T09:29:08.598Z</time></trkpt><trkpt lat="42.7056349" lon="12.5813074"><ele>605.0</ele><time>2026-04-12T09:29:09.597Z</time></trkpt><trkpt lat="42.7055527" lon="12.581206"><ele>605.0</ele><time>2026-04-12T09:29:10.591Z</time></trkpt><trkpt lat="42.7053901" lon="12.5811871"><ele>598.6666666666666</ele><time>2026-04-12T09:29:11.592Z</time></trkpt><trkpt lat="42.7052261" lon="12.581133"><ele>592.3333333333334</ele><time>2026-04-12T09:29:12.588Z</time></trkpt><trkpt lat="42.7050449" lon="12.581051"><ele>586.0</ele><time>2026-04-12T09:29:13.596Z</time></trkpt><trkpt lat="42.7048697" lon="12.5809704"><ele>586.0</ele><time>2026-04-12T09:29:14.595Z</time></trkpt><trkpt lat="42.7046874" lon="12.5809394"><ele>586.0</ele><time>2026-04-12T09:29:15.587Z</time></trkpt><trkpt lat="42.7045009" lon="12.5809514"><ele>586.0</ele><time>2026-04-12T09:29:16.586Z</time></trkpt><trkpt lat="42.7043215" lon="12.5809468"><ele>586.6666666666667</ele><time>2026-04-12T09:29:17.591Z</time></trkpt><trkpt lat="42.704148" lon="12.5809357"><ele>587.3333333333334</ele><time>2026-04-12T09:29:18.588Z</time></trkpt><trkpt lat="42.7039671" lon="12.5809683"><ele>588.0</ele><time>2026-04-12T09:29:19.595Z</time></trkpt><trkpt lat="42.7037958" lon="12.5810353"><ele>588.0</ele><time>2026-04-12T09:29:20.589Z</time></trkpt><trkpt lat="42.7036316" lon="12.5811043"><ele>588.0</ele><time>2026-04-12T09:29:21.594Z</time></trkpt><trkpt lat="42.7034615" lon="12.5811589"><ele>588.0</ele><time>2026-04-12T09:29:22.593Z</time></trkpt><trkpt lat="42.7032813" lon="12.5811944"><ele>594.6666666666666</ele><time>2026-04-12T09:29:23.591Z</time></trkpt><trkpt lat="42.703103" lon="12.5812075"><ele>601.3333333333333</ele><time>2026-04-12T09:29:24.595Z</time></trkpt><trkpt lat="42.7029313" lon="12.5811976"><ele>608.0</ele><time>2026-04-12T09:29:25.598Z</time></trkpt><trkpt lat="42.7027632" lon="12.581183"><ele>603.25</ele><time>2026-04-12T09:29:26.587Z</time></trkpt><trkpt lat="42.7026009" lon="12.5811963"><ele>598.5</ele><time>2026-04-12T09:29:27.59Z</time></trkpt><trkpt lat="42.7024587" lon="12.5812498"><ele>593.75</ele><time>2026-04-12T09:29:28.594Z</time></trkpt><trkpt lat="42.702349" lon="12.5813512"><ele>589.0</ele><time>2026-04-12T09:29:29.589Z</time></trkpt><trkpt lat="42.7022823" lon="12.5815003"><ele>589.0</ele><time>2026-04-12T09:29:30.588Z</time></trkpt><trkpt lat="42.7022602" lon="12.5816776"><ele>589.0</ele><time>2026-04-12T09:29:31.591Z</time></trkpt><trkpt lat="42.7022487" lon="12.5818473"><ele>589.0</ele><time>2026-04-12T09:29:32.593Z</time></trkpt><trkpt lat="42.7022281" lon="12.58199"><ele>589.0</ele><time>2026-04-12T09:29:33.6Z</time></trkpt><trkpt lat="42.702172" lon="12.5821102"><ele>587.25</ele><time>2026-04-12T09:29:34.594Z</time></trkpt><trkpt lat="42.7020804" lon="12.5821562"><ele>585.5</ele><time>2026-04-12T09:29:35.593Z</time></trkpt><trkpt lat="42.701984" lon="12.5821219"><ele>583.75</ele><time>2026-04-12T09:29:36.591Z</time></trkpt><trkpt lat="42.701903" lon="12.5820032"><ele>582.0</ele><time>2026-04-12T09:29:37.586Z</time></trkpt><trkpt lat="42.7018505" lon="12.5818178"><ele>582.0</ele><time>2026-04-12T09:29:38.594Z</time></trkpt><trkpt lat="42.7018033" lon="12.5815889"><ele>582.0</ele><time>2026-04-12T09:29:39.587Z</time></trkpt><trkpt lat="42.701748" lon="12.5813398"><ele>582.0</ele><time>2026-04-12T09:29:40.591Z</time></trkpt><trkpt lat="42.7016805" lon="12.5810797"><ele>579.3333333333334</ele><time>2026-04-12T09:29:41.596Z</time></trkpt><trkpt lat="42.7016036" lon="12.5808086"><ele>576.6666666666667</ele><time>2026-04-12T09:29:42.584Z</time></trkpt><trkpt lat="42.7015224" lon="12.580542"><ele>574.0</ele><time>2026-04-12T09:29:43.592Z</time></trkpt><trkpt lat="42.7014426" lon="12.5802891"><ele>571.3333333333334</ele><time>2026-04-12T09:29:44.587Z</time></trkpt><trkpt lat="42.7013698" lon="12.5800593"><ele>568.6666666666666</ele><time>2026-04-12T09:29:45.596Z</time></trkpt><trkpt lat="42.7013062" lon="12.5798524"><ele>566.0</ele><time>2026-04-12T09:29:46.596Z</time></trkpt><trkpt lat="42.7012419" lon="12.5796685"><ele>566.0</ele><time>2026-04-12T09:29:47.588Z</time></trkpt><trkpt lat="42.7011427" lon="12.579539"><ele>566.0</ele><time>2026-04-12T09:29:48.597Z</time></trkpt><trkpt lat="42.7010167" lon="12.5794846"><ele>566.0</ele><time>2026-04-12T09:29:49.59Z</time></trkpt><trkpt lat="42.7008994" lon="12.5795157"><ele>566.0</ele><time>2026-04-12T09:29:50.587Z</time></trkpt><trkpt lat="42.7007961" lon="12.5796214"><ele>566.25</ele><time>2026-04-12T09:29:51.59Z</time></trkpt><trkpt lat="42.700728" lon="12.5798"><ele>566.5</ele><time>2026-04-12T09:29:52.595Z</time></trkpt><trkpt lat="42.7007035" lon="12.5800011"><ele>566.75</ele><time>2026-04-12T09:29:53.595Z</time></trkpt><trkpt lat="42.7006616" lon="12.5801779"><ele>567.0</ele><time>2026-04-12T09:29:54.587Z</time></trkpt><trkpt lat="42.7005896" lon="12.5803128"><ele>567.0</ele><time>2026-04-12T09:29:55.583Z</time></trkpt><trkpt lat="42.700492" lon="12.5803907"><ele>567.0</ele><time>2026-04-12T09:29:56.586Z</time></trkpt><trkpt lat="42.7003864" lon="12.5803991"><ele>567.0</ele><time>2026-04-12T09:29:57.588Z</time></trkpt><trkpt lat="42.7002823" lon="12.5803313"><ele>567.0</ele><time>2026-04-12T09:29:58.591Z</time></trkpt><trkpt lat="42.7002021" lon="12.5801878"><ele>564.3333333333334</ele><time>2026-04-12T09:29:59.593Z</time></trkpt><trkpt lat="42.700157" lon="12.5799766"><ele>561.6666666666667</ele><time>2026-04-12T09:30:00.593Z</time></trkpt><trkpt lat="42.7001351" lon="12.5797247"><ele>559.0</ele><time>2026-04-12T09:30:01.593Z</time></trkpt><trkpt lat="42.7001203" lon="12.579457"><ele>558.3333333333334</ele><time>2026-04-12T09:30:02.592Z</time></trkpt><trkpt lat="42.7001083" lon="12.579216"><ele>557.6666666666666</ele><time>2026-04-12T09:30:03.592Z</time></trkpt><trkpt lat="42.7000988" lon="12.5789981"><ele>557.0</ele><time>2026-04-12T09:30:04.592Z</time></trkpt><trkpt lat="42.7000888" lon="12.578796"><ele>557.5</ele><time>2026-04-12T09:30:05.596Z</time></trkpt><trkpt lat="42.7000887" lon="12.5786067"><ele>558.0</ele><time>2026-04-12T09:30:06.589Z</time></trkpt><trkpt lat="42.7001218" lon="12.5784189"><ele>558.5</ele><time>2026-04-12T09:30:07.597Z</time></trkpt><trkpt lat="42.7002031" lon="12.5782507"><ele>559.0</ele><time>2026-04-12T09:30:08.59Z</time></trkpt><trkpt lat="42.7003314" lon="12.5781384"><ele>559.0</ele><time>2026-04-12T09:30:09.593Z</time></trkpt><trkpt lat="42.7004911" lon="12.5781017"><ele>559.0</ele><time>2026-04-12T09:30:10.59Z</time></trkpt><trkpt lat="42.7006537" lon="12.5780908"><ele>559.0</ele><time>2026-04-12T09:30:11.591Z</time></trkpt><trkpt lat="42.7008468" lon="12.5781371"><ele>559.0</ele><time>2026-04-12T09:30:12.591Z</time></trkpt><trkpt lat="42.7010315" lon="12.578175"><ele>559.0</ele><time>2026-04-12T09:30:13.597Z</time></trkpt><trkpt lat="42.7011981" lon="12.5782507"><ele>559.0</ele><time>2026-04-12T09:30:14.589Z</time></trkpt><trkpt lat="42.7013686" lon="12.5783853"><ele>560.3333333333334</ele><time>2026-04-12T09:30:15.606Z</time></trkpt><trkpt lat="42.7015229" lon="12.5785678"><ele>561.6666666666666</ele><time>2026-04-12T09:30:16.591Z</time></trkpt><trkpt lat="42.7016647" lon="12.5787928"><ele>563.0</ele><time>2026-04-12T09:30:17.594Z</time></trkpt><trkpt lat="42.7018058" lon="12.5790215"><ele>561.3333333333333</ele><time>2026-04-12T09:30:18.59Z</time></trkpt><trkpt lat="42.7019242" lon="12.5792373"><ele>559.6666666666666</ele><time>2026-04-12T09:30:19.596Z</time></trkpt><trkpt lat="42.7020454" lon="12.5794372"><ele>558.0</ele><time>2026-04-12T09:30:20.591Z</time></trkpt><trkpt lat="42.7021748" lon="12.5796112"><ele>558.0</ele><time>2026-04-12T09:30:21.595Z</time></trkpt><trkpt lat="42.7023166" lon="12.5797444"><ele>558.0</ele><time>2026-04-12T09:30:22.591Z</time></trkpt><trkpt lat="42.7024597" lon="12.5798488"><ele>558.0</ele><time>2026-04-12T09:30:23.595Z</time></trkpt><trkpt lat="42.7026029" lon="12.5799029"><ele>556.6666666666666</ele><time>2026-04-12T09:30:24.593Z</time></trkpt><trkpt lat="42.7027687" lon="12.5798805"><ele>555.3333333333333</ele><time>2026-04-12T09:30:25.592Z</time></trkpt><trkpt lat="42.7029547" lon="12.5798202"><ele>554.0</ele><time>2026-04-12T09:30:26.593Z</time></trkpt><trkpt lat="42.7031455" lon="12.5797497"><ele>554.0</ele><time>2026-04-12T09:30:27.59Z</time></trkpt><trkpt lat="42.70334" lon="12.5796953"><ele>554.0</ele><time>2026-04-12T09:30:28.589Z</time></trkpt><trkpt lat="42.7035051" lon="12.5795684"><ele>554.0</ele><time>2026-04-12T09:30:29.588Z</time></trkpt><trkpt lat="42.7036647" lon="12.5794047"><ele>555.6666666666666</ele><time>2026-04-12T09:30:30.592Z</time></trkpt><trkpt lat="42.7038155" lon="12.5792546"><ele>557.3333333333334</ele><time>2026-04-12T09:30:31.596Z</time></trkpt><trkpt lat="42.7039853" lon="12.5791605"><ele>559.0</ele><time>2026-04-12T09:30:32.592Z</time></trkpt><trkpt lat="42.7041759" lon="12.5791114"><ele>559.0</ele><time>2026-04-12T09:30:33.587Z</time></trkpt><trkpt lat="42.7043865" lon="12.5790503"><ele>559.0</ele><time>2026-04-12T09:30:34.593Z</time></trkpt><trkpt lat="42.7046157" lon="12.5789463"><ele>546.5</ele><time>2026-04-12T09:30:35.59Z</time></trkpt><trkpt lat="42.7048313" lon="12.5787893"><ele>534.0</ele><time>2026-04-12T09:30:36.605Z</time></trkpt><trkpt lat="42.7050448" lon="12.5787048"><ele>533.6666666666666</ele><time>2026-04-12T09:30:37.59Z</time></trkpt><trkpt lat="42.7052627" lon="12.5786206"><ele>533.3333333333333</ele><time>2026-04-12T09:30:38.591Z</time></trkpt><trkpt lat="42.7054542" lon="12.5785174"><ele>533.0</ele><time>2026-04-12T09:30:39.593Z</time></trkpt><trkpt lat="42.7056357" lon="12.5783772"><ele>533.0</ele><time>2026-04-12T09:30:40.588Z</time></trkpt><trkpt lat="42.7058078" lon="12.578211"><ele>533.0</ele><time>2026-04-12T09:30:41.584Z</time></trkpt><trkpt lat="42.7059642" lon="12.5780273"><ele>533.0</ele><time>2026-04-12T09:30:42.586Z</time></trkpt><trkpt lat="42.7061031" lon="12.5778292"><ele>528.6666666666666</ele><time>2026-04-12T09:30:43.588Z</time></trkpt><trkpt lat="42.7062244" lon="12.5776406"><ele>524.3333333333334</ele><time>2026-04-12T09:30:44.598Z</time></trkpt><trkpt lat="42.7063281" lon="12.5774678"><ele>520.0</ele><time>2026-04-12T09:30:45.593Z</time></trkpt><trkpt lat="42.7064127" lon="12.5772936"><ele>520.0</ele><time>2026-04-12T09:30:46.599Z</time></trkpt><trkpt lat="42.7064671" lon="12.5771058"><ele>520.0</ele><time>2026-04-12T09:30:47.589Z</time></trkpt><trkpt lat="42.7064602" lon="12.576882"><ele>520.0</ele><time>2026-04-12T09:30:48.595Z</time></trkpt><trkpt lat="42.7064112" lon="12.5766714"><ele>523.0</ele><time>2026-04-12T09:30:49.594Z</time></trkpt><trkpt lat="42.7064011" lon="12.5764446"><ele>526.0</ele><time>2026-04-12T09:30:50.584Z</time></trkpt><trkpt lat="42.7064461" lon="12.5761642"><ele>529.0</ele><time>2026-04-12T09:30:51.59Z</time></trkpt><trkpt lat="42.7065531" lon="12.5758969"><ele>530.3333333333334</ele><time>2026-04-12T09:30:52.592Z</time></trkpt><trkpt lat="42.706678" lon="12.5756472"><ele>531.6666666666666</ele><time>2026-04-12T09:30:53.585Z</time></trkpt><trkpt lat="42.7067801" lon="12.5753854"><ele>533.0</ele><time>2026-04-12T09:30:54.614Z</time></trkpt><trkpt lat="42.7068692" lon="12.5751305"><ele>522.6666666666666</ele><time>2026-04-12T09:30:55.588Z</time></trkpt><trkpt lat="42.7069547" lon="12.5748781"><ele>512.3333333333334</ele><time>2026-04-12T09:30:56.596Z</time></trkpt><trkpt lat="42.7070375" lon="12.5746134"><ele>502.0</ele><time>2026-04-12T09:30:57.599Z</time></trkpt><trkpt lat="42.7071033" lon="12.574327"><ele>502.0</ele><time>2026-04-12T09:30:58.595Z</time></trkpt><trkpt lat="42.7071579" lon="12.5740205"><ele>502.0</ele><time>2026-04-12T09:30:59.601Z</time></trkpt><trkpt lat="42.7072203" lon="12.5737023"><ele>505.5</ele><time>2026-04-12T09:31:00.592Z</time></trkpt><trkpt lat="42.7072992" lon="12.5733895"><ele>509.0</ele><time>2026-04-12T09:31:01.589Z</time></trkpt><trkpt lat="42.7073751" lon="12.5730904"><ele>513.6666666666666</ele><time>2026-04-12T09:31:02.6Z</time></trkpt><trkpt lat="42.7074515" lon="12.5728146"><ele>518.3333333333334</ele><time>2026-04-12T09:31:03.589Z</time></trkpt><trkpt lat="42.7075085" lon="12.5725415"><ele>523.0</ele><time>2026-04-12T09:31:04.587Z</time></trkpt><trkpt lat="42.7075854" lon="12.5723069"><ele>523.0</ele><time>2026-04-12T09:31:05.589Z</time></trkpt><trkpt lat="42.7076607" lon="12.5720906"><ele>523.0</ele><time>2026-04-12T09:31:06.587Z</time></trkpt><trkpt lat="42.7076954" lon="12.5718542"><ele>523.0</ele><time>2026-04-12T09:31:07.591Z</time></trkpt><trkpt lat="42.7076801" lon="12.5715992"><ele>523.6666666666667</ele><time>2026-04-12T09:31:08.591Z</time></trkpt><trkpt lat="42.7076719" lon="12.5713219"><ele>524.3333333333334</ele><time>2026-04-12T09:31:09.598Z</time></trkpt><trkpt lat="42.7076644" lon="12.5710178"><ele>525.0</ele><time>2026-04-12T09:31:10.592Z</time></trkpt><trkpt lat="42.7077372" lon="12.5706963"><ele>504.0</ele><time>2026-04-12T09:31:11.606Z</time></trkpt><trkpt lat="42.7078142" lon="12.5703766"><ele>483.0</ele><time>2026-04-12T09:31:12.591Z</time></trkpt><trkpt lat="42.7078974" lon="12.5700829"><ele>483.0</ele><time>2026-04-12T09:31:13.601Z</time></trkpt><trkpt lat="42.7080004" lon="12.5698126"><ele>483.0</ele><time>2026-04-12T09:31:14.591Z</time></trkpt><trkpt lat="42.7080694" lon="12.5695695"><ele>483.0</ele><time>2026-04-12T09:31:15.586Z</time></trkpt><trkpt lat="42.7081032" lon="12.5693405"><ele>484.0</ele><time>2026-04-12T09:31:16.593Z</time></trkpt><trkpt lat="42.7081152" lon="12.5691171"><ele>485.0</ele><time>2026-04-12T09:31:17.589Z</time></trkpt><trkpt lat="42.7081045" lon="12.5689001"><ele>486.0</ele><time>2026-04-12T09:31:18.588Z</time></trkpt><trkpt lat="42.7079937" lon="12.568706"><ele>489.0</ele><time>2026-04-12T09:31:19.588Z</time></trkpt><trkpt lat="42.707842" lon="12.5685308"><ele>492.0</ele><time>2026-04-12T09:31:20.596Z</time></trkpt><trkpt lat="42.7076605" lon="12.5683801"><ele>495.0</ele><time>2026-04-12T09:31:21.595Z</time></trkpt><trkpt lat="42.7074716" lon="12.5682719"><ele>495.0</ele><time>2026-04-12T09:31:22.595Z</time></trkpt><trkpt lat="42.7072902" lon="12.5682022"><ele>495.0</ele><time>2026-04-12T09:31:23.588Z</time></trkpt><trkpt lat="42.7071129" lon="12.5681382"><ele>495.0</ele><time>2026-04-12T09:31:24.594Z</time></trkpt><trkpt lat="42.7069647" lon="12.5680324"><ele>494.0</ele><time>2026-04-12T09:31:25.598Z</time></trkpt><trkpt lat="42.7068384" lon="12.567883"><ele>493.0</ele><time>2026-04-12T09:31:26.592Z</time></trkpt><trkpt lat="42.7067511" lon="12.5676772"><ele>492.0</ele><time>2026-04-12T09:31:27.595Z</time></trkpt><trkpt lat="42.7066832" lon="12.5674692"><ele>492.0</ele><time>2026-04-12T09:31:28.591Z</time></trkpt><trkpt lat="42.7066224" lon="12.5672762"><ele>492.0</ele><time>2026-04-12T09:31:29.607Z</time></trkpt><trkpt lat="42.7065588" lon="12.5671032"><ele>492.0</ele><time>2026-04-12T09:31:30.593Z</time></trkpt><trkpt lat="42.7064849" lon="12.566943"><ele>492.0</ele><time>2026-04-12T09:31:31.587Z</time></trkpt><trkpt lat="42.7064093" lon="12.5667848"><ele>491.25</ele><time>2026-04-12T09:31:32.591Z</time></trkpt><trkpt lat="42.7062889" lon="12.5666592"><ele>490.5</ele><time>2026-04-12T09:31:33.591Z</time></trkpt><trkpt lat="42.7061675" lon="12.5665379"><ele>489.75</ele><time>2026-04-12T09:31:34.59Z</time></trkpt><trkpt lat="42.7060479" lon="12.5664352"><ele>489.0</ele><time>2026-04-12T09:31:35.592Z</time></trkpt><trkpt lat="42.7059249" lon="12.5663447"><ele>489.0</ele><time>2026-04-12T09:31:36.592Z</time></trkpt><trkpt lat="42.7058045" lon="12.5662583"><ele>489.0</ele><time>2026-04-12T09:31:37.591Z</time></trkpt><trkpt lat="42.705686" lon="12.5661741"><ele>489.0</ele><time>2026-04-12T09:31:38.587Z</time></trkpt><trkpt lat="42.7055718" lon="12.5661014"><ele>489.0</ele><time>2026-04-12T09:31:39.591Z</time></trkpt><trkpt lat="42.7054603" lon="12.566048"><ele>488.0</ele><time>2026-04-12T09:31:40.597Z</time></trkpt><trkpt lat="42.7053498" lon="12.5660369"><ele>487.0</ele><time>2026-04-12T09:31:41.59Z</time></trkpt><trkpt lat="42.7052501" lon="12.5660842"><ele>486.0</ele><time>2026-04-12T09:31:42.585Z</time></trkpt><trkpt lat="42.7051772" lon="12.5661669"><ele>485.0</ele><time>2026-04-12T09:31:43.595Z</time></trkpt><trkpt lat="42.7051325" lon="12.566271"><ele>484.0</ele><time>2026-04-12T09:31:44.588Z</time></trkpt><trkpt lat="42.7050975" lon="12.5663747"><ele>484.00000000000006</ele><time>2026-04-12T09:31:45.589Z</time></trkpt><trkpt lat="42.7050516" lon="12.5664571"><ele>484.0</ele><time>2026-04-12T09:31:46.591Z</time></trkpt><trkpt lat="42.7049974" lon="12.5665123"><ele>484.0</ele><time>2026-04-12T09:31:47.591Z</time></trkpt><trkpt lat="42.704933" lon="12.5665592"><ele>484.0</ele><time>2026-04-12T09:31:48.587Z</time></trkpt><trkpt lat="42.7048404" lon="12.5665458"><ele>484.00000000000006</ele><time>2026-04-12T09:31:49.593Z</time></trkpt><trkpt lat="42.7047369" lon="12.5665025"><ele>484.0</ele><time>2026-04-12T09:31:50.589Z</time></trkpt><trkpt lat="42.7046255" lon="12.5664412"><ele>484.0</ele><time>2026-04-12T09:31:51.589Z</time></trkpt><trkpt lat="42.7045027" lon="12.5663721"><ele>484.0</ele><time>2026-04-12T09:31:52.598Z</time></trkpt><trkpt lat="42.7043717" lon="12.5663023"><ele>484.0</ele><time>2026-04-12T09:31:53.593Z</time></trkpt><trkpt lat="42.7042431" lon="12.5662365"><ele>484.0</ele><time>2026-04-12T09:31:54.586Z</time></trkpt><trkpt lat="42.7041111" lon="12.566174"><ele>473.6666666666667</ele><time>2026-04-12T09:31:55.591Z</time></trkpt><trkpt lat="42.703971" lon="12.5661095"><ele>463.33333333333337</ele><time>2026-04-12T09:31:56.585Z</time></trkpt><trkpt lat="42.7038245" lon="12.5660387"><ele>453.0</ele><time>2026-04-12T09:31:57.584Z</time></trkpt><trkpt lat="42.703673" lon="12.5659584"><ele>457.0</ele><time>2026-04-12T09:31:58.592Z</time></trkpt><trkpt lat="42.7035232" lon="12.5658673"><ele>461.0</ele><time>2026-04-12T09:31:59.592Z</time></trkpt><trkpt lat="42.7033832" lon="12.5657698"><ele>465.0</ele><time>2026-04-12T09:32:00.601Z</time></trkpt><trkpt lat="42.7032466" lon="12.5656697"><ele>465.0</ele><time>2026-04-12T09:32:01.588Z</time></trkpt><trkpt lat="42.7031" lon="12.5655703"><ele>465.0</ele><time>2026-04-12T09:32:02.588Z</time></trkpt><trkpt lat="42.7029268" lon="12.5654707"><ele>465.0</ele><time>2026-04-12T09:32:03.594Z</time></trkpt><trkpt lat="42.7027198" lon="12.5653834"><ele>457.5</ele><time>2026-04-12T09:32:04.587Z</time></trkpt><trkpt lat="42.7024804" lon="12.5653128"><ele>450.0</ele><time>2026-04-12T09:32:05.589Z</time></trkpt><trkpt lat="42.7022157" lon="12.5652556"><ele>450.0</ele><time>2026-04-12T09:32:06.587Z</time></trkpt><trkpt lat="42.701948" lon="12.565196"><ele>450.0</ele><time>2026-04-12T09:32:07.591Z</time></trkpt><trkpt lat="42.7016981" lon="12.5651364"><ele>449.33333333333337</ele><time>2026-04-12T09:32:08.6Z</time></trkpt><trkpt lat="42.7014892" lon="12.5650723"><ele>448.6666666666667</ele><time>2026-04-12T09:32:09.588Z</time></trkpt><trkpt lat="42.7013225" lon="12.5650173"><ele>448.0</ele><time>2026-04-12T09:32:10.588Z</time></trkpt><trkpt lat="42.701176" lon="12.5649792"><ele>444.0</ele><time>2026-04-12T09:32:11.592Z</time></trkpt><trkpt lat="42.701033" lon="12.5649905"><ele>440.0</ele><time>2026-04-12T09:32:12.584Z</time></trkpt><trkpt lat="42.7008999" lon="12.5650893"><ele>436.0</ele><time>2026-04-12T09:32:13.584Z</time></trkpt><trkpt lat="42.7007715" lon="12.5652406"><ele>442.0</ele><time>2026-04-12T09:32:14.598Z</time></trkpt><trkpt lat="42.7007019" lon="12.565444"><ele>448.0</ele><time>2026-04-12T09:32:15.593Z</time></trkpt><trkpt lat="42.7006327" lon="12.5656049"><ele>454.0</ele><time>2026-04-12T09:32:16.59Z</time></trkpt><trkpt lat="42.7005533" lon="12.5657095"><ele>460.0</ele><time>2026-04-12T09:32:17.586Z</time></trkpt><trkpt lat="42.7004557" lon="12.5657394"><ele>460.0</ele><time>2026-04-12T09:32:18.592Z</time></trkpt><trkpt lat="42.7003598" lon="12.565682"><ele>460.0</ele><time>2026-04-12T09:32:19.592Z</time></trkpt><trkpt lat="42.7002582" lon="12.5656019"><ele>460.0</ele><time>2026-04-12T09:32:20.597Z</time></trkpt><trkpt lat="42.7001469" lon="12.5654678"><ele>460.0</ele><time>2026-04-12T09:32:21.599Z</time></trkpt><trkpt lat="42.7000101" lon="12.5653794"><ele>448.33333333333337</ele><time>2026-04-12T09:32:22.591Z</time></trkpt><trkpt lat="42.6998411" lon="12.5652913"><ele>436.66666666666663</ele><time>2026-04-12T09:32:23.589Z</time></trkpt><trkpt lat="42.699656" lon="12.5652309"><ele>425.0</ele><time>2026-04-12T09:32:24.594Z</time></trkpt><trkpt lat="42.6994653" lon="12.5652141"><ele>422.0</ele><time>2026-04-12T09:32:25.595Z</time></trkpt><trkpt lat="42.6992903" lon="12.5652498"><ele>419.0</ele><time>2026-04-12T09:32:26.601Z</time></trkpt><trkpt lat="42.69913" lon="12.5653555"><ele>416.0</ele><time>2026-04-12T09:32:27.589Z</time></trkpt><trkpt lat="42.6989971" lon="12.5655228"><ele>426.0</ele><time>2026-04-12T09:32:28.59Z</time></trkpt><trkpt lat="42.698873" lon="12.5657293"><ele>436.0</ele><time>2026-04-12T09:32:29.601Z</time></trkpt><trkpt lat="42.6987619" lon="12.5659258"><ele>446.0</ele><time>2026-04-12T09:32:30.599Z</time></trkpt><trkpt lat="42.6986612" lon="12.5660919"><ele>446.0</ele><time>2026-04-12T09:32:31.59Z</time></trkpt><trkpt lat="42.6985822" lon="12.5662261"><ele>446.0</ele><time>2026-04-12T09:32:32.592Z</time></trkpt><trkpt lat="42.6984835" lon="12.566305"><ele>446.0</ele><time>2026-04-12T09:32:33.598Z</time></trkpt><trkpt lat="42.6983783" lon="12.5663115"><ele>446.0</ele><time>2026-04-12T09:32:34.593Z</time></trkpt><trkpt lat="42.6982804" lon="12.5662488"><ele>442.25</ele><time>2026-04-12T09:32:35.598Z</time></trkpt><trkpt lat="42.6982175" lon="12.5661392"><ele>438.5</ele><time>2026-04-12T09:32:36.596Z</time></trkpt><trkpt lat="42.6981848" lon="12.5659834"><ele>434.75</ele><time>2026-04-12T09:32:37.586Z</time></trkpt><trkpt lat="42.6981689" lon="12.5657785"><ele>431.0</ele><time>2026-04-12T09:32:38.587Z</time></trkpt><trkpt lat="42.6981524" lon="12.5655282"><ele>426.3333333333333</ele><time>2026-04-12T09:32:39.592Z</time></trkpt><trkpt lat="42.6981315" lon="12.5652514"><ele>421.66666666666663</ele><time>2026-04-12T09:32:40.594Z</time></trkpt><trkpt lat="42.698095" lon="12.5649751"><ele>417.0</ele><time>2026-04-12T09:32:41.588Z</time></trkpt><trkpt lat="42.6980433" lon="12.5646884"><ele>413.0</ele><time>2026-04-12T09:32:42.59Z</time></trkpt><trkpt lat="42.6980051" lon="12.5643965"><ele>409.0</ele><time>2026-04-12T09:32:43.587Z</time></trkpt><trkpt lat="42.6979865" lon="12.5641102"><ele>405.0</ele><time>2026-04-12T09:32:44.59Z</time></trkpt><trkpt lat="42.6979681" lon="12.5638326"><ele>402.66666666666663</ele><time>2026-04-12T09:32:45.587Z</time></trkpt><trkpt lat="42.6979327" lon="12.5635457"><ele>400.3333333333333</ele><time>2026-04-12T09:32:46.588Z</time></trkpt><trkpt lat="42.6978836" lon="12.563263"><ele>398.0</ele><time>2026-04-12T09:32:47.593Z</time></trkpt><trkpt lat="42.6978296" lon="12.5630225"><ele>402.0</ele><time>2026-04-12T09:32:48.598Z</time></trkpt><trkpt lat="42.6977701" lon="12.5628115"><ele>406.0</ele><time>2026-04-12T09:32:49.593Z</time></trkpt><trkpt lat="42.6976977" lon="12.5626308"><ele>410.0</ele><time>2026-04-12T09:32:50.593Z</time></trkpt><trkpt lat="42.6975985" lon="12.562484"><ele>410.0</ele><time>2026-04-12T09:32:51.592Z</time></trkpt><trkpt lat="42.6974685" lon="12.5623502"><ele>410.0</ele><time>2026-04-12T09:32:52.593Z</time></trkpt><trkpt lat="42.6973145" lon="12.5622312"><ele>410.0</ele><time>2026-04-12T09:32:53.591Z</time></trkpt><trkpt lat="42.6971444" lon="12.562135"><ele>410.0</ele><time>2026-04-12T09:32:54.595Z</time></trkpt><trkpt lat="42.6969806" lon="12.5620735"><ele>410.0</ele><time>2026-04-12T09:32:55.594Z</time></trkpt><trkpt lat="42.6968368" lon="12.5620427"><ele>410.0</ele><time>2026-04-12T09:32:56.59Z</time></trkpt><trkpt lat="42.6967089" lon="12.5620141"><ele>410.0</ele><time>2026-04-12T09:32:57.596Z</time></trkpt><trkpt lat="42.6966066" lon="12.5619521"><ele>409.25</ele><time>2026-04-12T09:32:58.591Z</time></trkpt><trkpt lat="42.6965461" lon="12.5618454"><ele>408.5</ele><time>2026-04-12T09:32:59.594Z</time></trkpt><trkpt lat="42.6965355" lon="12.5617136"><ele>407.75</ele><time>2026-04-12T09:33:00.593Z</time></trkpt><trkpt lat="42.6965563" lon="12.5615502"><ele>407.0</ele><time>2026-04-12T09:33:01.586Z</time></trkpt><trkpt lat="42.6965716" lon="12.5613426"><ele>402.0</ele><time>2026-04-12T09:33:02.597Z</time></trkpt><trkpt lat="42.6965632" lon="12.5611048"><ele>397.0</ele><time>2026-04-12T09:33:03.598Z</time></trkpt><trkpt lat="42.6965344" lon="12.5608543"><ele>392.0</ele><time>2026-04-12T09:33:04.592Z</time></trkpt><trkpt lat="42.6964959" lon="12.5606162"><ele>392.0</ele><time>2026-04-12T09:33:05.6Z</time></trkpt><trkpt lat="42.6964417" lon="12.5603896"><ele>392.0</ele><time>2026-04-12T09:33:06.599Z</time></trkpt><trkpt lat="42.6963602" lon="12.5601664"><ele>392.0</ele><time>2026-04-12T09:33:07.598Z</time></trkpt><trkpt lat="42.6962436" lon="12.5599542"><ele>386.66666666666663</ele><time>2026-04-12T09:33:08.592Z</time></trkpt><trkpt lat="42.6961062" lon="12.5597526"><ele>381.3333333333333</ele><time>2026-04-12T09:33:09.591Z</time></trkpt><trkpt lat="42.695942" lon="12.5595563"><ele>376.0</ele><time>2026-04-12T09:33:10.594Z</time></trkpt><trkpt lat="42.695754" lon="12.5593764"><ele>376.0</ele><time>2026-04-12T09:33:11.593Z</time></trkpt><trkpt lat="42.695567" lon="12.5592087"><ele>376.0</ele><time>2026-04-12T09:33:12.59Z</time></trkpt><trkpt lat="42.695379" lon="12.5590228"><ele>375.0</ele><time>2026-04-12T09:33:13.596Z</time></trkpt><trkpt lat="42.6951964" lon="12.558808"><ele>374.0</ele><time>2026-04-12T09:33:14.588Z</time></trkpt><trkpt lat="42.6950248" lon="12.5585565"><ele>374.0</ele><time>2026-04-12T09:33:15.59Z</time></trkpt><trkpt lat="42.694854" lon="12.5583108"><ele>374.0</ele><time>2026-04-12T09:33:16.591Z</time></trkpt><trkpt lat="42.6946852" lon="12.5580717"><ele>373.0</ele><time>2026-04-12T09:33:17.591Z</time></trkpt><trkpt lat="42.6945071" lon="12.5578672"><ele>372.0</ele><time>2026-04-12T09:33:18.596Z</time></trkpt><trkpt lat="42.6943492" lon="12.5576879"><ele>371.0</ele><time>2026-04-12T09:33:19.592Z</time></trkpt><trkpt lat="42.6942054" lon="12.557524"><ele>371.0</ele><time>2026-04-12T09:33:20.59Z</time></trkpt><trkpt lat="42.6940523" lon="12.5573829"><ele>371.0</ele><time>2026-04-12T09:33:21.589Z</time></trkpt><trkpt lat="42.693895" lon="12.5572586"><ele>371.0</ele><time>2026-04-12T09:33:22.588Z</time></trkpt><trkpt lat="42.6936988" lon="12.5571976"><ele>375.0</ele><time>2026-04-12T09:33:23.595Z</time></trkpt><trkpt lat="42.6934815" lon="12.5571682"><ele>379.0</ele><time>2026-04-12T09:33:24.589Z</time></trkpt><trkpt lat="42.6932451" lon="12.5571716"><ele>379.0</ele><time>2026-04-12T09:33:25.589Z</time></trkpt><trkpt lat="42.692987" lon="12.5571964"><ele>379.0</ele><time>2026-04-12T09:33:26.596Z</time></trkpt><trkpt lat="42.6927098" lon="12.5572037"><ele>375.0</ele><time>2026-04-12T09:33:27.594Z</time></trkpt><trkpt lat="42.6924145" lon="12.5571946"><ele>371.0</ele><time>2026-04-12T09:33:28.587Z</time></trkpt><trkpt lat="42.6921095" lon="12.5571713"><ele>367.0</ele><time>2026-04-12T09:33:29.591Z</time></trkpt><trkpt lat="42.6917949" lon="12.5571564"><ele>363.0</ele><time>2026-04-12T09:33:30.587Z</time></trkpt><trkpt lat="42.691482" lon="12.5571667"><ele>363.0</ele><time>2026-04-12T09:33:31.598Z</time></trkpt><trkpt lat="42.6911734" lon="12.5572059"><ele>363.0</ele><time>2026-04-12T09:33:32.596Z</time></trkpt><trkpt lat="42.6908709" lon="12.5572418"><ele>360.0</ele><time>2026-04-12T09:33:33.593Z</time></trkpt><trkpt lat="42.6905856" lon="12.5572665"><ele>357.0</ele><time>2026-04-12T09:33:34.591Z</time></trkpt><trkpt lat="42.6903302" lon="12.5572762"><ele>355.3333333333333</ele><time>2026-04-12T09:33:35.6Z</time></trkpt><trkpt lat="42.6901099" lon="12.5572742"><ele>353.66666666666663</ele><time>2026-04-12T09:33:36.595Z</time></trkpt><trkpt lat="42.68991" lon="12.5572465"><ele>352.0</ele><time>2026-04-12T09:33:37.594Z</time></trkpt><trkpt lat="42.6897282" lon="12.5571545"><ele>344.66666666666663</ele><time>2026-04-12T09:33:38.594Z</time></trkpt><trkpt lat="42.6895496" lon="12.5570172"><ele>337.3333333333333</ele><time>2026-04-12T09:33:39.591Z</time></trkpt><trkpt lat="42.6893596" lon="12.556907"><ele>330.0</ele><time>2026-04-12T09:33:40.598Z</time></trkpt><trkpt lat="42.6891611" lon="12.5568261"><ele>330.0</ele><time>2026-04-12T09:33:41.593Z</time></trkpt><trkpt lat="42.6889555" lon="12.5567844"><ele>330.0</ele><time>2026-04-12T09:33:42.593Z</time></trkpt><trkpt lat="42.6887345" lon="12.5567991"><ele>330.0</ele><time>2026-04-12T09:33:43.592Z</time></trkpt><trkpt lat="42.6884984" lon="12.5568728"><ele>331.0</ele><time>2026-04-12T09:33:44.589Z</time></trkpt><trkpt lat="42.688251" lon="12.5569633"><ele>332.0</ele><time>2026-04-12T09:33:45.593Z</time></trkpt><trkpt lat="42.6879991" lon="12.5570654"><ele>329.5</ele><time>2026-04-12T09:33:46.597Z</time></trkpt><trkpt lat="42.6877357" lon="12.557179"><ele>327.0</ele><time>2026-04-12T09:33:47.6Z</time></trkpt><trkpt lat="42.6874847" lon="12.5573164"><ele>327.0</ele><time>2026-04-12T09:33:48.596Z</time></trkpt><trkpt lat="42.6872495" lon="12.5574754"><ele>327.0</ele><time>2026-04-12T09:33:49.589Z</time></trkpt><trkpt lat="42.6870313" lon="12.5576298"><ele>322.0</ele><time>2026-04-12T09:33:50.594Z</time></trkpt><trkpt lat="42.6868202" lon="12.5577619"><ele>317.0</ele><time>2026-04-12T09:33:51.598Z</time></trkpt><trkpt lat="42.6866085" lon="12.5578432"><ele>317.0</ele><time>2026-04-12T09:33:52.59Z</time></trkpt><trkpt lat="42.6864014" lon="12.5578531"><ele>317.0</ele><time>2026-04-12T09:33:53.599Z</time></trkpt><trkpt lat="42.6861996" lon="12.5577986"><ele>317.0</ele><time>2026-04-12T09:33:54.595Z</time></trkpt><trkpt lat="42.6860064" lon="12.5576934"><ele>317.0</ele><time>2026-04-12T09:33:55.587Z</time></trkpt><trkpt lat="42.6858404" lon="12.5575408"><ele>317.0</ele><time>2026-04-12T09:33:56.596Z</time></trkpt><trkpt lat="42.685713" lon="12.5573332"><ele>317.0</ele><time>2026-04-12T09:33:57.595Z</time></trkpt><trkpt lat="42.6856367" lon="12.5570939"><ele>314.33333333333337</ele><time>2026-04-12T09:33:58.592Z</time></trkpt><trkpt lat="42.6856081" lon="12.5568485"><ele>311.6666666666667</ele><time>2026-04-12T09:33:59.605Z</time></trkpt><trkpt lat="42.6856165" lon="12.5566057"><ele>309.0</ele><time>2026-04-12T09:34:00.594Z</time></trkpt><trkpt lat="42.6856604" lon="12.5563793"><ele>306.6666666666667</ele><time>2026-04-12T09:34:01.586Z</time></trkpt><trkpt lat="42.6857353" lon="12.556171"><ele>304.33333333333337</ele><time>2026-04-12T09:34:02.59Z</time></trkpt><trkpt lat="42.685832" lon="12.5560051"><ele>302.0</ele><time>2026-04-12T09:34:03.594Z</time></trkpt><trkpt lat="42.6859315" lon="12.5558879"><ele>302.0</ele><time>2026-04-12T09:34:04.602Z</time></trkpt><trkpt lat="42.6860242" lon="12.5558113"><ele>302.0</ele><time>2026-04-12T09:34:05.599Z</time></trkpt><trkpt lat="42.686106" lon="12.5557574"><ele>302.0</ele><time>2026-04-12T09:34:06.594Z</time></trkpt><trkpt lat="42.6861774" lon="12.5557151"><ele>302.0</ele><time>2026-04-12T09:34:07.598Z</time></trkpt><trkpt lat="42.6862666" lon="12.5556668"><ele>302.0</ele><time>2026-04-12T09:34:09.594Z</time></trkpt><trkpt lat="42.6863338" lon="12.5556295"><ele>302.0</ele><time>2026-04-12T09:34:11.602Z</time></trkpt><trkpt lat="42.6864259" lon="12.555572"><ele>302.00000000000006</ele><time>2026-04-12T09:34:13.593Z</time></trkpt><trkpt lat="42.6864928" lon="12.555535"><ele>302.0</ele><time>2026-04-12T09:34:14.596Z</time></trkpt><trkpt lat="42.6865701" lon="12.5554919"><ele>302.0</ele><time>2026-04-12T09:34:15.592Z</time></trkpt><trkpt lat="42.6866447" lon="12.5554519"><ele>302.0</ele><time>2026-04-12T09:34:16.602Z</time></trkpt><trkpt lat="42.6867126" lon="12.5554149"><ele>302.0</ele><time>2026-04-12T09:34:17.589Z</time></trkpt><trkpt lat="42.6867757" lon="12.5553799"><ele>302.00000000000006</ele><time>2026-04-12T09:34:18.596Z</time></trkpt><trkpt lat="42.6868373" lon="12.5553461"><ele>302.0</ele><time>2026-04-12T09:34:19.6Z</time></trkpt><trkpt lat="42.6868967" lon="12.555312"><ele>301.33333333333337</ele><time>2026-04-12T09:34:20.592Z</time></trkpt><trkpt lat="42.6870005" lon="12.5552476"><ele>300.6666666666667</ele><time>2026-04-12T09:34:22.595Z</time></trkpt><trkpt lat="42.6870981" lon="12.5551701"><ele>300.0</ele><time>2026-04-12T09:34:24.598Z</time></trkpt><trkpt lat="42.6871495" lon="12.5551092"><ele>299.3333333333333</ele><time>2026-04-12T09:34:25.607Z</time></trkpt><trkpt lat="42.6871975" lon="12.5550397"><ele>298.66666666666663</ele><time>2026-04-12T09:34:26.591Z</time></trkpt><trkpt lat="42.6872361" lon="12.5549698"><ele>298.0</ele><time>2026-04-12T09:34:27.598Z</time></trkpt><trkpt lat="42.6872928" lon="12.5548201"><ele>298.0</ele><time>2026-04-12T09:34:29.595Z</time></trkpt><trkpt lat="42.6873126" lon="12.5546883"><ele>298.0</ele><time>2026-04-12T09:34:30.597Z</time></trkpt><trkpt lat="42.6873163" lon="12.5545169"><ele>298.0</ele><time>2026-04-12T09:34:31.594Z</time></trkpt><trkpt lat="42.6873051" lon="12.5543163"><ele>298.0</ele><time>2026-04-12T09:34:32.591Z</time></trkpt><trkpt lat="42.687275" lon="12.5540916"><ele>296.66666666666663</ele><time>2026-04-12T09:34:33.59Z</time></trkpt><trkpt lat="42.6872377" lon="12.5538516"><ele>295.3333333333333</ele><time>2026-04-12T09:34:34.589Z</time></trkpt><trkpt lat="42.6872001" lon="12.5536119"><ele>294.0</ele><time>2026-04-12T09:34:35.589Z</time></trkpt><trkpt lat="42.6871641" lon="12.5533756"><ele>292.0</ele><time>2026-04-12T09:34:36.596Z</time></trkpt><trkpt lat="42.6871247" lon="12.5531455"><ele>290.0</ele><time>2026-04-12T09:34:37.594Z</time></trkpt><trkpt lat="42.6870902" lon="12.5529261"><ele>288.0</ele><time>2026-04-12T09:34:38.602Z</time></trkpt><trkpt lat="42.6870534" lon="12.5527015"><ele>286.6666666666667</ele><time>2026-04-12T09:34:39.602Z</time></trkpt><trkpt lat="42.6870209" lon="12.5524801"><ele>285.33333333333337</ele><time>2026-04-12T09:34:40.595Z</time></trkpt><trkpt lat="42.6869869" lon="12.552257"><ele>284.0</ele><time>2026-04-12T09:34:41.596Z</time></trkpt><trkpt lat="42.6869546" lon="12.5520381"><ele>283.75</ele><time>2026-04-12T09:34:42.588Z</time></trkpt><trkpt lat="42.6869255" lon="12.5518296"><ele>283.5</ele><time>2026-04-12T09:34:43.607Z</time></trkpt><trkpt lat="42.6868926" lon="12.5516378"><ele>283.25</ele><time>2026-04-12T09:34:44.594Z</time></trkpt><trkpt lat="42.686863" lon="12.551461"><ele>283.0</ele><time>2026-04-12T09:34:45.594Z</time></trkpt><trkpt lat="42.6868357" lon="12.5512995"><ele>283.0</ele><time>2026-04-12T09:34:46.592Z</time></trkpt><trkpt lat="42.6868126" lon="12.551159"><ele>283.0</ele><time>2026-04-12T09:34:47.6Z</time></trkpt><trkpt lat="42.6867932" lon="12.5510454"><ele>283.0</ele><time>2026-04-12T09:34:48.599Z</time></trkpt><trkpt lat="42.6867786" lon="12.5509545"><ele>283.0</ele><time>2026-04-12T09:34:49.597Z</time></trkpt><trkpt lat="42.686755" lon="12.5508051"><ele>283.0</ele><time>2026-04-12T09:34:51.602Z</time></trkpt><trkpt lat="42.6867693" lon="12.5507152"><ele>283.0</ele><time>2026-04-12T09:34:53.592Z</time></trkpt><trkpt lat="42.6868138" lon="12.5506054"><ele>283.0</ele><time>2026-04-12T09:34:57.597Z</time></trkpt><trkpt lat="42.6867399" lon="12.5504884"><ele>283.0</ele><time>2026-04-12T09:35:27.606Z</time></trkpt><trkpt lat="42.6867022" lon="12.5503935"><ele>283.0</ele><time>2026-04-12T09:35:29.604Z</time></trkpt><trkpt lat="42.6866758" lon="12.5502584"><ele>283.0</ele><time>2026-04-12T09:35:31.602Z</time></trkpt><trkpt lat="42.686655" lon="12.5501131"><ele>283.0</ele><time>2026-04-12T09:35:33.603Z</time></trkpt><trkpt lat="42.6866763" lon="12.5499532"><ele>283.4</ele><time>2026-04-12T09:35:35.596Z</time></trkpt><trkpt lat="42.6867543" lon="12.5498413"><ele>283.8</ele><time>2026-04-12T09:35:37.596Z</time></trkpt><trkpt lat="42.6868251" lon="12.5498077"><ele>284.2</ele><time>2026-04-12T09:35:38.598Z</time></trkpt><trkpt lat="42.686913" lon="12.549776"><ele>284.6</ele><time>2026-04-12T09:35:39.594Z</time></trkpt><trkpt lat="42.6870133" lon="12.549752"><ele>285.0</ele><time>2026-04-12T09:35:40.602Z</time></trkpt><trkpt lat="42.6871256" lon="12.5497336"><ele>285.0</ele><time>2026-04-12T09:35:41.602Z</time></trkpt><trkpt lat="42.687246" lon="12.5497135"><ele>285.0</ele><time>2026-04-12T09:35:42.595Z</time></trkpt><trkpt lat="42.6873689" lon="12.5496919"><ele>285.0</ele><time>2026-04-12T09:35:43.595Z</time></trkpt><trkpt lat="42.6874948" lon="12.5496721"><ele>285.0</ele><time>2026-04-12T09:35:44.605Z</time></trkpt><trkpt lat="42.6876239" lon="12.5496518"><ele>285.0</ele><time>2026-04-12T09:35:45.595Z</time></trkpt><trkpt lat="42.68776" lon="12.5496298"><ele>285.0</ele><time>2026-04-12T09:35:46.591Z</time></trkpt><trkpt lat="42.6879007" lon="12.5496078"><ele>285.0</ele><time>2026-04-12T09:35:47.601Z</time></trkpt><trkpt lat="42.6880315" lon="12.5495912"><ele>285.0</ele><time>2026-04-12T09:35:48.591Z</time></trkpt><trkpt lat="42.6881591" lon="12.5495727"><ele>285.0</ele><time>2026-04-12T09:35:49.608Z</time></trkpt><trkpt lat="42.6882845" lon="12.5495532"><ele>285.0</ele><time>2026-04-12T09:35:50.598Z</time></trkpt><trkpt lat="42.6884077" lon="12.5495328"><ele>285.0</ele><time>2026-04-12T09:35:51.599Z</time></trkpt><trkpt lat="42.6885276" lon="12.549515"><ele>285.0</ele><time>2026-04-12T09:35:52.6Z</time></trkpt><trkpt lat="42.6886508" lon="12.5494963"><ele>285.0</ele><time>2026-04-12T09:35:53.603Z</time></trkpt><trkpt lat="42.6887782" lon="12.5494799"><ele>285.0</ele><time>2026-04-12T09:35:54.589Z</time></trkpt><trkpt lat="42.6889078" lon="12.5494609"><ele>285.0</ele><time>2026-04-12T09:35:55.589Z</time></trkpt><trkpt lat="42.6890409" lon="12.5494376"><ele>285.0</ele><time>2026-04-12T09:35:56.591Z</time></trkpt><trkpt lat="42.6891809" lon="12.5494119"><ele>285.0</ele><time>2026-04-12T09:35:57.595Z</time></trkpt><trkpt lat="42.6893223" lon="12.5493743"><ele>285.0</ele><time>2026-04-12T09:35:58.603Z</time></trkpt><trkpt lat="42.6894667" lon="12.5493328"><ele>285.0</ele><time>2026-04-12T09:35:59.595Z</time></trkpt><trkpt lat="42.6896021" lon="12.5492969"><ele>285.0</ele><time>2026-04-12T09:36:00.592Z</time></trkpt><trkpt lat="42.689743" lon="12.5492426"><ele>284.5</ele><time>2026-04-12T09:36:01.599Z</time></trkpt><trkpt lat="42.6898699" lon="12.5492041"><ele>284.0</ele><time>2026-04-12T09:36:02.605Z</time></trkpt><trkpt lat="42.6900027" lon="12.5491621"><ele>283.5</ele><time>2026-04-12T09:36:03.591Z</time></trkpt><trkpt lat="42.6901413" lon="12.549119"><ele>283.0</ele><time>2026-04-12T09:36:04.605Z</time></trkpt><trkpt lat="42.6902804" lon="12.5490755"><ele>282.3333333333333</ele><time>2026-04-12T09:36:05.594Z</time></trkpt><trkpt lat="42.6904272" lon="12.5490298"><ele>281.6666666666667</ele><time>2026-04-12T09:36:06.594Z</time></trkpt><trkpt lat="42.6905781" lon="12.5489868"><ele>281.0</ele><time>2026-04-12T09:36:07.605Z</time></trkpt><trkpt lat="42.6907398" lon="12.5489545"><ele>281.0</ele><time>2026-04-12T09:36:08.595Z</time></trkpt><trkpt lat="42.6909102" lon="12.5489214"><ele>281.0</ele><time>2026-04-12T09:36:09.606Z</time></trkpt><trkpt lat="42.6910915" lon="12.54889"><ele>281.0</ele><time>2026-04-12T09:36:10.595Z</time></trkpt><trkpt lat="42.6912777" lon="12.5488574"><ele>281.0</ele><time>2026-04-12T09:36:11.595Z</time></trkpt><trkpt lat="42.6914733" lon="12.5488254"><ele>281.0</ele><time>2026-04-12T09:36:12.598Z</time></trkpt><trkpt lat="42.691674" lon="12.5487934"><ele>281.0</ele><time>2026-04-12T09:36:13.593Z</time></trkpt><trkpt lat="42.6918761" lon="12.5487593"><ele>281.6666666666667</ele><time>2026-04-12T09:36:14.594Z</time></trkpt><trkpt lat="42.6920803" lon="12.5487257"><ele>282.3333333333333</ele><time>2026-04-12T09:36:15.589Z</time></trkpt><trkpt lat="42.6922868" lon="12.5486913"><ele>283.0</ele><time>2026-04-12T09:36:16.595Z</time></trkpt><trkpt lat="42.6924956" lon="12.5486565"><ele>283.0</ele><time>2026-04-12T09:36:17.592Z</time></trkpt><trkpt lat="42.6927052" lon="12.5486208"><ele>283.0</ele><time>2026-04-12T09:36:18.594Z</time></trkpt><trkpt lat="42.6929143" lon="12.5485816"><ele>283.0</ele><time>2026-04-12T09:36:19.593Z</time></trkpt><trkpt lat="42.6931226" lon="12.548545"><ele>282.66666666666663</ele><time>2026-04-12T09:36:20.595Z</time></trkpt><trkpt lat="42.6933317" lon="12.5485111"><ele>282.3333333333333</ele><time>2026-04-12T09:36:21.589Z</time></trkpt><trkpt lat="42.693543" lon="12.548477"><ele>282.0</ele><time>2026-04-12T09:36:22.593Z</time></trkpt><trkpt lat="42.6937552" lon="12.5484407"><ele>282.0</ele><time>2026-04-12T09:36:23.59Z</time></trkpt><trkpt lat="42.6939692" lon="12.5484016"><ele>282.0</ele><time>2026-04-12T09:36:24.593Z</time></trkpt><trkpt lat="42.6941846" lon="12.5483633"><ele>282.0</ele><time>2026-04-12T09:36:25.603Z</time></trkpt><trkpt lat="42.6943999" lon="12.5483244"><ele>281.0</ele><time>2026-04-12T09:36:26.596Z</time></trkpt><trkpt lat="42.6946101" lon="12.5482876"><ele>280.0</ele><time>2026-04-12T09:36:27.595Z</time></trkpt><trkpt lat="42.6948099" lon="12.5482541"><ele>279.0</ele><time>2026-04-12T09:36:28.609Z</time></trkpt><trkpt lat="42.6950064" lon="12.5482215"><ele>279.0</ele><time>2026-04-12T09:36:29.595Z</time></trkpt><trkpt lat="42.6951943" lon="12.5482006"><ele>279.0</ele><time>2026-04-12T09:36:30.593Z</time></trkpt><trkpt lat="42.6953807" lon="12.5482027"><ele>279.0</ele><time>2026-04-12T09:36:31.59Z</time></trkpt><trkpt lat="42.695574" lon="12.5482374"><ele>279.6666666666667</ele><time>2026-04-12T09:36:32.592Z</time></trkpt><trkpt lat="42.6957674" lon="12.5483052"><ele>280.33333333333337</ele><time>2026-04-12T09:36:33.595Z</time></trkpt><trkpt lat="42.6959617" lon="12.548397"><ele>281.0</ele><time>2026-04-12T09:36:34.604Z</time></trkpt><trkpt lat="42.6961552" lon="12.5484977"><ele>281.33333333333337</ele><time>2026-04-12T09:36:35.596Z</time></trkpt><trkpt lat="42.6963507" lon="12.5486"><ele>281.6666666666667</ele><time>2026-04-12T09:36:36.593Z</time></trkpt><trkpt lat="42.6965508" lon="12.5487024"><ele>282.0</ele><time>2026-04-12T09:36:37.588Z</time></trkpt><trkpt lat="42.69675" lon="12.5488045"><ele>279.3333333333333</ele><time>2026-04-12T09:36:38.593Z</time></trkpt><trkpt lat="42.6969496" lon="12.5489064"><ele>276.66666666666663</ele><time>2026-04-12T09:36:39.592Z</time></trkpt><trkpt lat="42.6971509" lon="12.5490087"><ele>274.0</ele><time>2026-04-12T09:36:40.599Z</time></trkpt><trkpt lat="42.6973541" lon="12.5491106"><ele>274.0</ele><time>2026-04-12T09:36:41.592Z</time></trkpt><trkpt lat="42.6975646" lon="12.5492164"><ele>274.0</ele><time>2026-04-12T09:36:42.587Z</time></trkpt><trkpt lat="42.6977806" lon="12.5493261"><ele>273.0</ele><time>2026-04-12T09:36:43.594Z</time></trkpt><trkpt lat="42.6979994" lon="12.549438"><ele>272.0</ele><time>2026-04-12T09:36:44.592Z</time></trkpt><trkpt lat="42.6982214" lon="12.54955"><ele>272.0</ele><time>2026-04-12T09:36:45.595Z</time></trkpt><trkpt lat="42.698445" lon="12.5496611"><ele>272.0</ele><time>2026-04-12T09:36:46.595Z</time></trkpt><trkpt lat="42.6986715" lon="12.5497734"><ele>273.5</ele><time>2026-04-12T09:36:47.599Z</time></trkpt><trkpt lat="42.6988981" lon="12.5498875"><ele>275.0</ele><time>2026-04-12T09:36:48.593Z</time></trkpt><trkpt lat="42.6991244" lon="12.5500015"><ele>275.0</ele><time>2026-04-12T09:36:49.591Z</time></trkpt><trkpt lat="42.6993494" lon="12.5501137"><ele>275.0</ele><time>2026-04-12T09:36:50.598Z</time></trkpt><trkpt lat="42.6995734" lon="12.5502253"><ele>276.0</ele><time>2026-04-12T09:36:51.595Z</time></trkpt><trkpt lat="42.6997961" lon="12.5503371"><ele>277.0</ele><time>2026-04-12T09:36:52.593Z</time></trkpt><trkpt lat="42.7000189" lon="12.5504478"><ele>275.3333333333333</ele><time>2026-04-12T09:36:53.598Z</time></trkpt><trkpt lat="42.7002342" lon="12.5505523"><ele>273.6666666666667</ele><time>2026-04-12T09:36:54.593Z</time></trkpt><trkpt lat="42.7004373" lon="12.5506443"><ele>272.0</ele><time>2026-04-12T09:36:55.594Z</time></trkpt><trkpt lat="42.7006258" lon="12.5507133"><ele>271.33333333333337</ele><time>2026-04-12T09:36:56.591Z</time></trkpt><trkpt lat="42.7008023" lon="12.5507421"><ele>270.6666666666667</ele><time>2026-04-12T09:36:57.598Z</time></trkpt><trkpt lat="42.7009638" lon="12.5507196"><ele>270.0</ele><time>2026-04-12T09:36:58.592Z</time></trkpt><trkpt lat="42.701109" lon="12.5506338"><ele>269.3333333333333</ele><time>2026-04-12T09:36:59.599Z</time></trkpt><trkpt lat="42.7012282" lon="12.5504738"><ele>268.66666666666663</ele><time>2026-04-12T09:37:00.597Z</time></trkpt><trkpt lat="42.7013188" lon="12.5502505"><ele>268.0</ele><time>2026-04-12T09:37:01.596Z</time></trkpt><trkpt lat="42.7013979" lon="12.549987"><ele>268.0</ele><time>2026-04-12T09:37:02.597Z</time></trkpt><trkpt lat="42.701486" lon="12.5497253"><ele>268.0</ele><time>2026-04-12T09:37:03.599Z</time></trkpt><trkpt lat="42.7015823" lon="12.5494922"><ele>268.0</ele><time>2026-04-12T09:37:04.594Z</time></trkpt><trkpt lat="42.7016979" lon="12.549303"><ele>269.66666666666663</ele><time>2026-04-12T09:37:05.592Z</time></trkpt><trkpt lat="42.7018393" lon="12.5491687"><ele>271.3333333333333</ele><time>2026-04-12T09:37:06.592Z</time></trkpt><trkpt lat="42.7020141" lon="12.5490889"><ele>273.0</ele><time>2026-04-12T09:37:07.588Z</time></trkpt><trkpt lat="42.7022165" lon="12.5490649"><ele>273.0</ele><time>2026-04-12T09:37:08.602Z</time></trkpt><trkpt lat="42.7024381" lon="12.549086"><ele>273.0</ele><time>2026-04-12T09:37:09.595Z</time></trkpt><trkpt lat="42.7026748" lon="12.5491201"><ele>273.0</ele><time>2026-04-12T09:37:10.608Z</time></trkpt><trkpt lat="42.7029275" lon="12.5491492"><ele>273.0</ele><time>2026-04-12T09:37:11.599Z</time></trkpt><trkpt lat="42.7031926" lon="12.5491781"><ele>273.0</ele><time>2026-04-12T09:37:12.599Z</time></trkpt><trkpt lat="42.7034623" lon="12.5492119"><ele>273.0</ele><time>2026-04-12T09:37:13.595Z</time></trkpt><trkpt lat="42.70372" lon="12.5492453"><ele>272.0</ele><time>2026-04-12T09:37:14.6Z</time></trkpt><trkpt lat="42.7039652" lon="12.5492775"><ele>271.0</ele><time>2026-04-12T09:37:15.607Z</time></trkpt><trkpt lat="42.7041954" lon="12.5493077"><ele>271.0</ele><time>2026-04-12T09:37:16.59Z</time></trkpt><trkpt lat="42.7044115" lon="12.5493365"><ele>271.0</ele><time>2026-04-12T09:37:17.593Z</time></trkpt><trkpt lat="42.7046259" lon="12.5493637"><ele>271.0</ele><time>2026-04-12T09:37:18.599Z</time></trkpt><trkpt lat="42.7048522" lon="12.5493772"><ele>270.0</ele><time>2026-04-12T09:37:19.599Z</time></trkpt><trkpt lat="42.7050889" lon="12.5493543"><ele>269.0</ele><time>2026-04-12T09:37:20.599Z</time></trkpt><trkpt lat="42.7053322" lon="12.5492881"><ele>269.0</ele><time>2026-04-12T09:37:21.612Z</time></trkpt><trkpt lat="42.705578" lon="12.5491942"><ele>269.0</ele><time>2026-04-12T09:37:22.595Z</time></trkpt><trkpt lat="42.7058176" lon="12.5491001"><ele>269.0</ele><time>2026-04-12T09:37:23.598Z</time></trkpt><trkpt lat="42.7060493" lon="12.5490201"><ele>269.0</ele><time>2026-04-12T09:37:24.591Z</time></trkpt><trkpt lat="42.7062798" lon="12.5489842"><ele>269.0</ele><time>2026-04-12T09:37:25.6Z</time></trkpt><trkpt lat="42.7065062" lon="12.5490146"><ele>269.0</ele><time>2026-04-12T09:37:26.599Z</time></trkpt><trkpt lat="42.7067315" lon="12.5491074"><ele>271.0</ele><time>2026-04-12T09:37:27.599Z</time></trkpt><trkpt lat="42.7069519" lon="12.5492506"><ele>273.0</ele><time>2026-04-12T09:37:28.587Z</time></trkpt><trkpt lat="42.707165" lon="12.5494265"><ele>268.0</ele><time>2026-04-12T09:37:29.592Z</time></trkpt><trkpt lat="42.7073653" lon="12.5496052"><ele>263.0</ele><time>2026-04-12T09:37:30.589Z</time></trkpt><trkpt lat="42.707559" lon="12.5497717"><ele>264.5</ele><time>2026-04-12T09:37:31.595Z</time></trkpt><trkpt lat="42.7077632" lon="12.5499155"><ele>266.0</ele><time>2026-04-12T09:37:32.593Z</time></trkpt><trkpt lat="42.7079823" lon="12.550023"><ele>266.0</ele><time>2026-04-12T09:37:33.592Z</time></trkpt><trkpt lat="42.7082095" lon="12.5500897"><ele>266.0</ele><time>2026-04-12T09:37:34.599Z</time></trkpt><trkpt lat="42.7084286" lon="12.5501285"><ele>265.33333333333337</ele><time>2026-04-12T09:37:35.595Z</time></trkpt><trkpt lat="42.7086302" lon="12.5501566"><ele>264.6666666666667</ele><time>2026-04-12T09:37:36.591Z</time></trkpt><trkpt lat="42.7088129" lon="12.5501744"><ele>264.0</ele><time>2026-04-12T09:37:37.59Z</time></trkpt><trkpt lat="42.7089876" lon="12.5501587"><ele>264.0</ele><time>2026-04-12T09:37:38.588Z</time></trkpt><trkpt lat="42.7091641" lon="12.550116"><ele>264.0</ele><time>2026-04-12T09:37:39.599Z</time></trkpt><trkpt lat="42.7093226" lon="12.5499756"><ele>264.0</ele><time>2026-04-12T09:37:40.597Z</time></trkpt><trkpt lat="42.7094877" lon="12.5498238"><ele>262.3333333333333</ele><time>2026-04-12T09:37:41.598Z</time></trkpt><trkpt lat="42.7096595" lon="12.5496936"><ele>260.66666666666663</ele><time>2026-04-12T09:37:42.589Z</time></trkpt><trkpt lat="42.7098274" lon="12.5496015"><ele>259.0</ele><time>2026-04-12T09:37:43.593Z</time></trkpt><trkpt lat="42.7100063" lon="12.5495441"><ele>259.0</ele><time>2026-04-12T09:37:44.595Z</time></trkpt><trkpt lat="42.7101942" lon="12.5495361"><ele>259.0</ele><time>2026-04-12T09:37:45.592Z</time></trkpt><trkpt lat="42.7103919" lon="12.5495794"><ele>259.0</ele><time>2026-04-12T09:37:46.598Z</time></trkpt><trkpt lat="42.710607" lon="12.5496504"><ele>259.0</ele><time>2026-04-12T09:37:47.591Z</time></trkpt><trkpt lat="42.7108252" lon="12.5497395"><ele>259.0</ele><time>2026-04-12T09:37:48.599Z</time></trkpt><trkpt lat="42.7110394" lon="12.5498319"><ele>259.5</ele><time>2026-04-12T09:37:49.594Z</time></trkpt><trkpt lat="42.7112577" lon="12.5499221"><ele>260.0</ele><time>2026-04-12T09:37:50.594Z</time></trkpt><trkpt lat="42.7114815" lon="12.5500179"><ele>260.0</ele><time>2026-04-12T09:37:51.6Z</time></trkpt><trkpt lat="42.7117058" lon="12.5501353"><ele>260.0</ele><time>2026-04-12T09:37:52.591Z</time></trkpt><trkpt lat="42.7119207" lon="12.5502943"><ele>260.5</ele><time>2026-04-12T09:37:53.587Z</time></trkpt><trkpt lat="42.712114" lon="12.5505069"><ele>261.0</ele><time>2026-04-12T09:37:54.593Z</time></trkpt><trkpt lat="42.7122783" lon="12.5507603"><ele>261.0</ele><time>2026-04-12T09:37:55.592Z</time></trkpt><trkpt lat="42.7124307" lon="12.5510098"><ele>261.0</ele><time>2026-04-12T09:37:56.586Z</time></trkpt><trkpt lat="42.712572" lon="12.5512628"><ele>263.0</ele><time>2026-04-12T09:37:57.592Z</time></trkpt><trkpt lat="42.7127425" lon="12.5515"><ele>265.0</ele><time>2026-04-12T09:37:58.598Z</time></trkpt><trkpt lat="42.7129381" lon="12.5517182"><ele>265.0</ele><time>2026-04-12T09:37:59.588Z</time></trkpt><trkpt lat="42.7131312" lon="12.5519227"><ele>265.0</ele><time>2026-04-12T09:38:00.595Z</time></trkpt><trkpt lat="42.7133302" lon="12.5521142"><ele>262.0</ele><time>2026-04-12T09:38:01.586Z</time></trkpt><trkpt lat="42.7135262" lon="12.5523118"><ele>259.0</ele><time>2026-04-12T09:38:02.595Z</time></trkpt><trkpt lat="42.7137156" lon="12.5524884"><ele>259.0</ele><time>2026-04-12T09:38:03.597Z</time></trkpt><trkpt lat="42.7138988" lon="12.5526407"><ele>259.0</ele><time>2026-04-12T09:38:04.59Z</time></trkpt><trkpt lat="42.7140736" lon="12.5527853"><ele>259.0</ele><time>2026-04-12T09:38:05.588Z</time></trkpt><trkpt lat="42.7142522" lon="12.5529324"><ele>258.3333333333333</ele><time>2026-04-12T09:38:06.592Z</time></trkpt><trkpt lat="42.7144228" lon="12.5530802"><ele>257.6666666666667</ele><time>2026-04-12T09:38:07.589Z</time></trkpt><trkpt lat="42.7145932" lon="12.5532276"><ele>257.0</ele><time>2026-04-12T09:38:08.601Z</time></trkpt><trkpt lat="42.7147535" lon="12.5533665"><ele>257.0</ele><time>2026-04-12T09:38:09.596Z</time></trkpt><trkpt lat="42.7149215" lon="12.5534877"><ele>257.0</ele><time>2026-04-12T09:38:10.59Z</time></trkpt><trkpt lat="42.7151028" lon="12.5535832"><ele>257.0</ele><time>2026-04-12T09:38:11.586Z</time></trkpt><trkpt lat="42.7152972" lon="12.5536429"><ele>257.0</ele><time>2026-04-12T09:38:12.591Z</time></trkpt><trkpt lat="42.7154972" lon="12.553664"><ele>257.0</ele><time>2026-04-12T09:38:13.592Z</time></trkpt><trkpt lat="42.7157015" lon="12.5536624"><ele>257.0</ele><time>2026-04-12T09:38:14.591Z</time></trkpt><trkpt lat="42.7159109" lon="12.5536524"><ele>255.66666666666669</ele><time>2026-04-12T09:38:15.592Z</time></trkpt><trkpt lat="42.7161263" lon="12.5536496"><ele>254.33333333333331</ele><time>2026-04-12T09:38:16.59Z</time></trkpt><trkpt lat="42.7163506" lon="12.5536488"><ele>253.0</ele><time>2026-04-12T09:38:17.587Z</time></trkpt><trkpt lat="42.7165802" lon="12.5536453"><ele>253.0</ele><time>2026-04-12T09:38:18.592Z</time></trkpt><trkpt lat="42.7168161" lon="12.553642"><ele>253.0</ele><time>2026-04-12T09:38:19.586Z</time></trkpt><trkpt lat="42.7170474" lon="12.5536352"><ele>249.5</ele><time>2026-04-12T09:38:20.588Z</time></trkpt><trkpt lat="42.7172726" lon="12.5536093"><ele>246.0</ele><time>2026-04-12T09:38:21.587Z</time></trkpt><trkpt lat="42.7174951" lon="12.5535316"><ele>246.0</ele><time>2026-04-12T09:38:22.594Z</time></trkpt><trkpt lat="42.717715" lon="12.5534"><ele>246.0</ele><time>2026-04-12T09:38:23.591Z</time></trkpt><trkpt lat="42.7179366" lon="12.5532515"><ele>244.0</ele><time>2026-04-12T09:38:24.595Z</time></trkpt><trkpt lat="42.7181666" lon="12.5531086"><ele>242.0</ele><time>2026-04-12T09:38:25.589Z</time></trkpt><trkpt lat="42.7183915" lon="12.5529635"><ele>242.0</ele><time>2026-04-12T09:38:26.583Z</time></trkpt><trkpt lat="42.7186028" lon="12.5527933"><ele>242.0</ele><time>2026-04-12T09:38:27.592Z</time></trkpt><trkpt lat="42.7187968" lon="12.5525756"><ele>242.0</ele><time>2026-04-12T09:38:28.59Z</time></trkpt><trkpt lat="42.7189756" lon="12.5523196"><ele>242.0</ele><time>2026-04-12T09:38:29.595Z</time></trkpt><trkpt lat="42.7191483" lon="12.5520491"><ele>241.0</ele><time>2026-04-12T09:38:30.591Z</time></trkpt><trkpt lat="42.7193233" lon="12.5517795"><ele>240.0</ele><time>2026-04-12T09:38:31.593Z</time></trkpt><trkpt lat="42.7195" lon="12.5515083"><ele>240.0</ele><time>2026-04-12T09:38:32.6Z</time></trkpt><trkpt lat="42.7196752" lon="12.5512367"><ele>240.0</ele><time>2026-04-12T09:38:33.589Z</time></trkpt><trkpt lat="42.7198453" lon="12.5509761"><ele>240.5</ele><time>2026-04-12T09:38:34.591Z</time></trkpt><trkpt lat="42.720015" lon="12.5507181"><ele>241.0</ele><time>2026-04-12T09:38:35.597Z</time></trkpt><trkpt lat="42.7201846" lon="12.550456"><ele>239.0</ele><time>2026-04-12T09:38:36.59Z</time></trkpt><trkpt lat="42.720354" lon="12.5501896"><ele>237.0</ele><time>2026-04-12T09:38:37.591Z</time></trkpt><trkpt lat="42.7205234" lon="12.5499203"><ele>237.0</ele><time>2026-04-12T09:38:38.59Z</time></trkpt><trkpt lat="42.7206908" lon="12.5496525"><ele>237.0</ele><time>2026-04-12T09:38:39.591Z</time></trkpt><trkpt lat="42.7208521" lon="12.5493983"><ele>236.5</ele><time>2026-04-12T09:38:40.592Z</time></trkpt><trkpt lat="42.7210131" lon="12.5491578"><ele>236.0</ele><time>2026-04-12T09:38:41.587Z</time></trkpt><trkpt lat="42.7211712" lon="12.5489378"><ele>236.0</ele><time>2026-04-12T09:38:42.593Z</time></trkpt><trkpt lat="42.7213249" lon="12.5487375"><ele>236.0</ele><time>2026-04-12T09:38:43.593Z</time></trkpt><trkpt lat="42.7214778" lon="12.5485458"><ele>236.0</ele><time>2026-04-12T09:38:44.59Z</time></trkpt><trkpt lat="42.7216241" lon="12.5483584"><ele>236.0</ele><time>2026-04-12T09:38:45.587Z</time></trkpt><trkpt lat="42.7217635" lon="12.5481693"><ele>236.0</ele><time>2026-04-12T09:38:46.589Z</time></trkpt><trkpt lat="42.7218903" lon="12.5479616"><ele>236.0</ele><time>2026-04-12T09:38:47.591Z</time></trkpt><trkpt lat="42.7219855" lon="12.5477155"><ele>236.0</ele><time>2026-04-12T09:38:48.591Z</time></trkpt><trkpt lat="42.7220448" lon="12.5474264"><ele>236.0</ele><time>2026-04-12T09:38:49.592Z</time></trkpt><trkpt lat="42.722069" lon="12.5471153"><ele>235.66666666666669</ele><time>2026-04-12T09:38:50.587Z</time></trkpt><trkpt lat="42.722075" lon="12.5468145"><ele>235.33333333333331</ele><time>2026-04-12T09:38:51.591Z</time></trkpt><trkpt lat="42.7220799" lon="12.5465305"><ele>235.0</ele><time>2026-04-12T09:38:52.589Z</time></trkpt><trkpt lat="42.7220867" lon="12.5462672"><ele>234.33333333333331</ele><time>2026-04-12T09:38:53.59Z</time></trkpt><trkpt lat="42.7220921" lon="12.5460229"><ele>233.66666666666669</ele><time>2026-04-12T09:38:54.587Z</time></trkpt><trkpt lat="42.7220965" lon="12.5458033"><ele>233.0</ele><time>2026-04-12T09:38:55.591Z</time></trkpt><trkpt lat="42.7221011" lon="12.5456079"><ele>233.0</ele><time>2026-04-12T09:38:56.587Z</time></trkpt><trkpt lat="42.7221162" lon="12.5454308"><ele>233.0</ele><time>2026-04-12T09:38:57.59Z</time></trkpt><trkpt lat="42.7221578" lon="12.5452778"><ele>233.0</ele><time>2026-04-12T09:38:58.588Z</time></trkpt><trkpt lat="42.7222366" lon="12.5451578"><ele>233.0</ele><time>2026-04-12T09:38:59.598Z</time></trkpt><trkpt lat="42.7223458" lon="12.5450864"><ele>233.0</ele><time>2026-04-12T09:39:00.602Z</time></trkpt><trkpt lat="42.7224924" lon="12.5450548"><ele>233.0</ele><time>2026-04-12T09:39:01.59Z</time></trkpt><trkpt lat="42.7226727" lon="12.5450498"><ele>233.0</ele><time>2026-04-12T09:39:02.594Z</time></trkpt><trkpt lat="42.7228741" lon="12.5450708"><ele>234.33333333333334</ele><time>2026-04-12T09:39:03.594Z</time></trkpt><trkpt lat="42.7230662" lon="12.5450985"><ele>235.66666666666669</ele><time>2026-04-12T09:39:04.601Z</time></trkpt><trkpt lat="42.7232457" lon="12.5450793"><ele>237.0</ele><time>2026-04-12T09:39:05.595Z</time></trkpt><trkpt lat="42.7234242" lon="12.5449828"><ele>238.66666666666669</ele><time>2026-04-12T09:39:06.587Z</time></trkpt><trkpt lat="42.7235843" lon="12.5448048"><ele>240.33333333333334</ele><time>2026-04-12T09:39:07.589Z</time></trkpt><trkpt lat="42.7237419" lon="12.5446022"><ele>242.0</ele><time>2026-04-12T09:39:08.592Z</time></trkpt><trkpt lat="42.7238544" lon="12.5443076"><ele>242.0</ele><time>2026-04-12T09:39:09.6Z</time></trkpt><trkpt lat="42.7239906" lon="12.5440318"><ele>242.0</ele><time>2026-04-12T09:39:10.595Z</time></trkpt><trkpt lat="42.7241324" lon="12.5437552"><ele>242.5</ele><time>2026-04-12T09:39:11.595Z</time></trkpt><trkpt lat="42.724278" lon="12.5434848"><ele>243.0</ele><time>2026-04-12T09:39:12.601Z</time></trkpt><trkpt lat="42.7244156" lon="12.5432174"><ele>243.0</ele><time>2026-04-12T09:39:13.592Z</time></trkpt><trkpt lat="42.7245513" lon="12.542956"><ele>243.0</ele><time>2026-04-12T09:39:14.599Z</time></trkpt><trkpt lat="42.7246797" lon="12.5427025"><ele>242.33333333333331</ele><time>2026-04-12T09:39:15.596Z</time></trkpt><trkpt lat="42.7248067" lon="12.5424617"><ele>241.66666666666666</ele><time>2026-04-12T09:39:16.6Z</time></trkpt><trkpt lat="42.7249296" lon="12.5422185"><ele>241.0</ele><time>2026-04-12T09:39:17.595Z</time></trkpt><trkpt lat="42.7250488" lon="12.5419918"><ele>241.66666666666666</ele><time>2026-04-12T09:39:18.595Z</time></trkpt><trkpt lat="42.7251607" lon="12.5417816"><ele>242.33333333333331</ele><time>2026-04-12T09:39:19.594Z</time></trkpt><trkpt lat="42.7252604" lon="12.541577"><ele>243.0</ele><time>2026-04-12T09:39:20.595Z</time></trkpt><trkpt lat="42.7253579" lon="12.5413884"><ele>242.66666666666669</ele><time>2026-04-12T09:39:21.593Z</time></trkpt><trkpt lat="42.7254539" lon="12.5411951"><ele>242.33333333333334</ele><time>2026-04-12T09:39:22.602Z</time></trkpt><trkpt lat="42.7255547" lon="12.540997"><ele>242.0</ele><time>2026-04-12T09:39:23.597Z</time></trkpt><trkpt lat="42.7256571" lon="12.5408013"><ele>242.0</ele><time>2026-04-12T09:39:24.598Z</time></trkpt><trkpt lat="42.72576" lon="12.5406045"><ele>242.0</ele><time>2026-04-12T09:39:25.6Z</time></trkpt><trkpt lat="42.7258589" lon="12.5404066"><ele>242.0</ele><time>2026-04-12T09:39:26.594Z</time></trkpt><trkpt lat="42.7259678" lon="12.5402072"><ele>242.33333333333334</ele><time>2026-04-12T09:39:27.592Z</time></trkpt><trkpt lat="42.7260736" lon="12.5400082"><ele>242.66666666666669</ele><time>2026-04-12T09:39:28.595Z</time></trkpt><trkpt lat="42.7261717" lon="12.53982"><ele>243.0</ele><time>2026-04-12T09:39:29.593Z</time></trkpt><trkpt lat="42.7262631" lon="12.5396443"><ele>242.25</ele><time>2026-04-12T09:39:30.598Z</time></trkpt><trkpt lat="42.7263474" lon="12.539478"><ele>241.5</ele><time>2026-04-12T09:39:31.595Z</time></trkpt><trkpt lat="42.726423" lon="12.5393309"><ele>240.75</ele><time>2026-04-12T09:39:32.588Z</time></trkpt><trkpt lat="42.7264896" lon="12.5391971"><ele>240.0</ele><time>2026-04-12T09:39:33.597Z</time></trkpt><trkpt lat="42.726546" lon="12.5390835"><ele>240.0</ele><time>2026-04-12T09:39:34.593Z</time></trkpt><trkpt lat="42.7265948" lon="12.5389853"><ele>240.0</ele><time>2026-04-12T09:39:35.594Z</time></trkpt><trkpt lat="42.726633" lon="12.5389054"><ele>240.0</ele><time>2026-04-12T09:39:36.591Z</time></trkpt><trkpt lat="42.7266821" lon="12.5388004"><ele>240.0</ele><time>2026-04-12T09:39:38.587Z</time></trkpt><trkpt lat="42.7267556" lon="12.5386541"><ele>240.0</ele><time>2026-04-12T09:39:43.591Z</time></trkpt><trkpt lat="42.7268333" lon="12.5385194"><ele>239.83333333333334</ele><time>2026-04-12T09:39:45.591Z</time></trkpt><trkpt lat="42.726887" lon="12.5384236"><ele>239.66666666666669</ele><time>2026-04-12T09:39:46.594Z</time></trkpt><trkpt lat="42.7269369" lon="12.5383302"><ele>239.5</ele><time>2026-04-12T09:39:47.592Z</time></trkpt><trkpt lat="42.7269854" lon="12.5382324"><ele>239.33333333333334</ele><time>2026-04-12T09:39:48.594Z</time></trkpt><trkpt lat="42.7270352" lon="12.5381295"><ele>239.16666666666669</ele><time>2026-04-12T09:39:49.593Z</time></trkpt><trkpt lat="42.7270878" lon="12.5380194"><ele>239.0</ele><time>2026-04-12T09:39:50.595Z</time></trkpt><trkpt lat="42.7271467" lon="12.5378858"><ele>238.0</ele><time>2026-04-12T09:39:51.592Z</time></trkpt><trkpt lat="42.7271993" lon="12.5377395"><ele>237.0</ele><time>2026-04-12T09:39:52.602Z</time></trkpt><trkpt lat="42.7272485" lon="12.5375681"><ele>236.0</ele><time>2026-04-12T09:39:53.598Z</time></trkpt><trkpt lat="42.7272962" lon="12.5373713"><ele>235.0</ele><time>2026-04-12T09:39:54.596Z</time></trkpt><trkpt lat="42.7273415" lon="12.5371532"><ele>233.66666666666666</ele><time>2026-04-12T09:39:55.598Z</time></trkpt><trkpt lat="42.7273735" lon="12.5369067"><ele>232.33333333333331</ele><time>2026-04-12T09:39:56.596Z</time></trkpt><trkpt lat="42.727394" lon="12.5366604"><ele>231.0</ele><time>2026-04-12T09:39:57.587Z</time></trkpt><trkpt lat="42.7274066" lon="12.5364116"><ele>231.33333333333331</ele><time>2026-04-12T09:39:58.595Z</time></trkpt><trkpt lat="42.7274119" lon="12.5361676"><ele>231.66666666666666</ele><time>2026-04-12T09:39:59.591Z</time></trkpt><trkpt lat="42.7274134" lon="12.5359211"><ele>232.0</ele><time>2026-04-12T09:40:00.601Z</time></trkpt><trkpt lat="42.7274123" lon="12.5356793"><ele>232.0</ele><time>2026-04-12T09:40:01.592Z</time></trkpt><trkpt lat="42.7274097" lon="12.5354461"><ele>232.0</ele><time>2026-04-12T09:40:02.591Z</time></trkpt><trkpt lat="42.727408" lon="12.5352195"><ele>232.0</ele><time>2026-04-12T09:40:03.593Z</time></trkpt><trkpt lat="42.7274017" lon="12.5349821"><ele>231.66666666666666</ele><time>2026-04-12T09:40:04.589Z</time></trkpt><trkpt lat="42.7273968" lon="12.5347366"><ele>231.33333333333331</ele><time>2026-04-12T09:40:05.607Z</time></trkpt><trkpt lat="42.7273941" lon="12.5344807"><ele>231.0</ele><time>2026-04-12T09:40:06.592Z</time></trkpt><trkpt lat="42.7273986" lon="12.5342185"><ele>231.0</ele><time>2026-04-12T09:40:07.588Z</time></trkpt><trkpt lat="42.7274105" lon="12.5339524"><ele>231.0</ele><time>2026-04-12T09:40:08.591Z</time></trkpt><trkpt lat="42.7274213" lon="12.5336798"><ele>231.0</ele><time>2026-04-12T09:40:09.592Z</time></trkpt><trkpt lat="42.7274395" lon="12.5334092"><ele>230.33333333333331</ele><time>2026-04-12T09:40:10.59Z</time></trkpt><trkpt lat="42.7274693" lon="12.5331437"><ele>229.66666666666666</ele><time>2026-04-12T09:40:11.599Z</time></trkpt><trkpt lat="42.7275034" lon="12.5328711"><ele>229.0</ele><time>2026-04-12T09:40:12.598Z</time></trkpt><trkpt lat="42.7275283" lon="12.5325968"><ele>229.0</ele><time>2026-04-12T09:40:13.587Z</time></trkpt><trkpt lat="42.7275478" lon="12.5323196"><ele>229.0</ele><time>2026-04-12T09:40:14.591Z</time></trkpt><trkpt lat="42.7275532" lon="12.5320654"><ele>229.0</ele><time>2026-04-12T09:40:15.596Z</time></trkpt><trkpt lat="42.7275474" lon="12.5318133"><ele>229.33333333333331</ele><time>2026-04-12T09:40:16.595Z</time></trkpt><trkpt lat="42.7275331" lon="12.5315578"><ele>229.66666666666669</ele><time>2026-04-12T09:40:17.59Z</time></trkpt><trkpt lat="42.7275123" lon="12.5313018"><ele>230.0</ele><time>2026-04-12T09:40:18.587Z</time></trkpt><trkpt lat="42.7274682" lon="12.531039"><ele>230.0</ele><time>2026-04-12T09:40:19.594Z</time></trkpt><trkpt lat="42.7274216" lon="12.530776"><ele>230.0</ele><time>2026-04-12T09:40:20.588Z</time></trkpt><trkpt lat="42.7273778" lon="12.5305074"><ele>230.0</ele><time>2026-04-12T09:40:21.603Z</time></trkpt><trkpt lat="42.7273345" lon="12.5302283"><ele>230.33333333333334</ele><time>2026-04-12T09:40:22.59Z</time></trkpt><trkpt lat="42.7272948" lon="12.5299479"><ele>230.66666666666669</ele><time>2026-04-12T09:40:23.59Z</time></trkpt><trkpt lat="42.7272478" lon="12.5296652"><ele>231.0</ele><time>2026-04-12T09:40:24.589Z</time></trkpt><trkpt lat="42.7272004" lon="12.5293812"><ele>231.0</ele><time>2026-04-12T09:40:25.598Z</time></trkpt><trkpt lat="42.7271549" lon="12.5290977"><ele>231.0</ele><time>2026-04-12T09:40:26.599Z</time></trkpt><trkpt lat="42.7271095" lon="12.528811"><ele>231.0</ele><time>2026-04-12T09:40:27.587Z</time></trkpt><trkpt lat="42.7270625" lon="12.5285213"><ele>230.66666666666669</ele><time>2026-04-12T09:40:28.6Z</time></trkpt><trkpt lat="42.7270156" lon="12.5282294"><ele>230.33333333333334</ele><time>2026-04-12T09:40:29.598Z</time></trkpt><trkpt lat="42.7269681" lon="12.5279368"><ele>230.0</ele><time>2026-04-12T09:40:30.594Z</time></trkpt><trkpt lat="42.7269205" lon="12.5276427"><ele>228.0</ele><time>2026-04-12T09:40:31.631Z</time></trkpt><trkpt lat="42.7268713" lon="12.5273487"><ele>226.0</ele><time>2026-04-12T09:40:32.603Z</time></trkpt><trkpt lat="42.7268222" lon="12.527055"><ele>224.0</ele><time>2026-04-12T09:40:33.594Z</time></trkpt><trkpt lat="42.7267735" lon="12.5267628"><ele>224.0</ele><time>2026-04-12T09:40:34.595Z</time></trkpt><trkpt lat="42.7267268" lon="12.5264709"><ele>224.0</ele><time>2026-04-12T09:40:35.59Z</time></trkpt><trkpt lat="42.7266801" lon="12.5261805"><ele>224.0</ele><time>2026-04-12T09:40:36.593Z</time></trkpt><trkpt lat="42.7266365" lon="12.5258911"><ele>224.0</ele><time>2026-04-12T09:40:37.593Z</time></trkpt><trkpt lat="42.7265934" lon="12.5256047"><ele>224.0</ele><time>2026-04-12T09:40:38.597Z</time></trkpt><trkpt lat="42.7265514" lon="12.5253205"><ele>224.0</ele><time>2026-04-12T09:40:39.595Z</time></trkpt><trkpt lat="42.7265105" lon="12.5250351"><ele>223.66666666666669</ele><time>2026-04-12T09:40:40.59Z</time></trkpt><trkpt lat="42.7264705" lon="12.5247506"><ele>223.33333333333331</ele><time>2026-04-12T09:40:41.596Z</time></trkpt><trkpt lat="42.7264312" lon="12.5244648"><ele>223.0</ele><time>2026-04-12T09:40:42.586Z</time></trkpt><trkpt lat="42.7263897" lon="12.524178"><ele>222.66666666666666</ele><time>2026-04-12T09:40:43.594Z</time></trkpt><trkpt lat="42.7263474" lon="12.5238891"><ele>222.33333333333331</ele><time>2026-04-12T09:40:44.585Z</time></trkpt><trkpt lat="42.726307" lon="12.523597"><ele>222.0</ele><time>2026-04-12T09:40:45.595Z</time></trkpt><trkpt lat="42.7262675" lon="12.5233016"><ele>223.0</ele><time>2026-04-12T09:40:46.599Z</time></trkpt><trkpt lat="42.7262288" lon="12.5230037"><ele>224.0</ele><time>2026-04-12T09:40:47.592Z</time></trkpt><trkpt lat="42.7261892" lon="12.5227047"><ele>225.0</ele><time>2026-04-12T09:40:48.61Z</time></trkpt><trkpt lat="42.7261472" lon="12.5224029"><ele>227.0</ele><time>2026-04-12T09:40:49.596Z</time></trkpt><trkpt lat="42.7261047" lon="12.5221013"><ele>229.0</ele><time>2026-04-12T09:40:50.596Z</time></trkpt><trkpt lat="42.7260622" lon="12.5217982"><ele>224.5</ele><time>2026-04-12T09:40:51.587Z</time></trkpt><trkpt lat="42.7260186" lon="12.5214942"><ele>220.0</ele><time>2026-04-12T09:40:52.588Z</time></trkpt><trkpt lat="42.7259758" lon="12.5211975"><ele>219.66666666666666</ele><time>2026-04-12T09:40:53.591Z</time></trkpt><trkpt lat="42.7259332" lon="12.520918"><ele>219.33333333333331</ele><time>2026-04-12T09:40:54.599Z</time></trkpt><trkpt lat="42.7258847" lon="12.5206496"><ele>219.0</ele><time>2026-04-12T09:40:55.596Z</time></trkpt><trkpt lat="42.7258283" lon="12.5203846"><ele>218.66666666666669</ele><time>2026-04-12T09:40:56.613Z</time></trkpt><trkpt lat="42.7257676" lon="12.5201265"><ele>218.33333333333334</ele><time>2026-04-12T09:40:57.591Z</time></trkpt><trkpt lat="42.7257" lon="12.5198619"><ele>218.0</ele><time>2026-04-12T09:40:58.597Z</time></trkpt><trkpt lat="42.7256316" lon="12.5195888"><ele>219.33333333333334</ele><time>2026-04-12T09:40:59.597Z</time></trkpt><trkpt lat="42.7255598" lon="12.5193127"><ele>220.66666666666669</ele><time>2026-04-12T09:41:00.591Z</time></trkpt><trkpt lat="42.7254838" lon="12.5190384"><ele>222.0</ele><time>2026-04-12T09:41:01.588Z</time></trkpt><trkpt lat="42.7254076" lon="12.5187572"><ele>223.33333333333331</ele><time>2026-04-12T09:41:02.594Z</time></trkpt><trkpt lat="42.7253266" lon="12.518477"><ele>224.66666666666666</ele><time>2026-04-12T09:41:03.595Z</time></trkpt><trkpt lat="42.7252453" lon="12.5182122"><ele>226.0</ele><time>2026-04-12T09:41:04.588Z</time></trkpt><trkpt lat="42.7251609" lon="12.5179579"><ele>222.66666666666666</ele><time>2026-04-12T09:41:05.587Z</time></trkpt><trkpt lat="42.7250708" lon="12.5177041"><ele>219.33333333333331</ele><time>2026-04-12T09:41:06.595Z</time></trkpt><trkpt lat="42.7249788" lon="12.5174503"><ele>216.0</ele><time>2026-04-12T09:41:07.594Z</time></trkpt><trkpt lat="42.7248837" lon="12.5172015"><ele>217.33333333333331</ele><time>2026-04-12T09:41:08.592Z</time></trkpt><trkpt lat="42.724791" lon="12.5169401"><ele>218.66666666666666</ele><time>2026-04-12T09:41:09.595Z</time></trkpt><trkpt lat="42.7246955" lon="12.5166805"><ele>220.0</ele><time>2026-04-12T09:41:10.595Z</time></trkpt><trkpt lat="42.7245967" lon="12.5164194"><ele>220.33333333333331</ele><time>2026-04-12T09:41:11.592Z</time></trkpt><trkpt lat="42.7244999" lon="12.5161517"><ele>220.66666666666669</ele><time>2026-04-12T09:41:12.597Z</time></trkpt><trkpt lat="42.7244012" lon="12.5158817"><ele>221.0</ele><time>2026-04-12T09:41:13.596Z</time></trkpt><trkpt lat="42.7243044" lon="12.5156073"><ele>218.66666666666669</ele><time>2026-04-12T09:41:14.595Z</time></trkpt><trkpt lat="42.7242105" lon="12.5153445"><ele>216.33333333333331</ele><time>2026-04-12T09:41:15.595Z</time></trkpt><trkpt lat="42.7241181" lon="12.5150879"><ele>214.0</ele><time>2026-04-12T09:41:16.594Z</time></trkpt><trkpt lat="42.7240238" lon="12.514829"><ele>214.33333333333331</ele><time>2026-04-12T09:41:17.59Z</time></trkpt><trkpt lat="42.7239287" lon="12.5145688"><ele>214.66666666666669</ele><time>2026-04-12T09:41:18.593Z</time></trkpt><trkpt lat="42.7238318" lon="12.5143048"><ele>215.0</ele><time>2026-04-12T09:41:19.591Z</time></trkpt><trkpt lat="42.7237368" lon="12.5140385"><ele>215.0</ele><time>2026-04-12T09:41:20.592Z</time></trkpt><trkpt lat="42.7236423" lon="12.5137702"><ele>215.0</ele><time>2026-04-12T09:41:21.599Z</time></trkpt><trkpt lat="42.7235469" lon="12.5135004"><ele>215.0</ele><time>2026-04-12T09:41:22.599Z</time></trkpt><trkpt lat="42.7234517" lon="12.5132281"><ele>213.33333333333334</ele><time>2026-04-12T09:41:23.599Z</time></trkpt><trkpt lat="42.7233612" lon="12.5129522"><ele>211.66666666666669</ele><time>2026-04-12T09:41:24.595Z</time></trkpt><trkpt lat="42.7232812" lon="12.5126745"><ele>210.0</ele><time>2026-04-12T09:41:25.599Z</time></trkpt><trkpt lat="42.7232127" lon="12.5123927"><ele>210.0</ele><time>2026-04-12T09:41:26.601Z</time></trkpt><trkpt lat="42.7231496" lon="12.5121099"><ele>210.0</ele><time>2026-04-12T09:41:27.599Z</time></trkpt><trkpt lat="42.7230862" lon="12.5118261"><ele>210.0</ele><time>2026-04-12T09:41:28.607Z</time></trkpt><trkpt lat="42.7230219" lon="12.5115396"><ele>210.0</ele><time>2026-04-12T09:41:29.597Z</time></trkpt><trkpt lat="42.7229551" lon="12.5112475"><ele>210.0</ele><time>2026-04-12T09:41:30.598Z</time></trkpt><trkpt lat="42.7228882" lon="12.5109507"><ele>210.0</ele><time>2026-04-12T09:41:31.593Z</time></trkpt><trkpt lat="42.7228241" lon="12.5106615"><ele>210.0</ele><time>2026-04-12T09:41:32.59Z</time></trkpt><trkpt lat="42.7227642" lon="12.5103887"><ele>210.0</ele><time>2026-04-12T09:41:33.591Z</time></trkpt><trkpt lat="42.7227059" lon="12.5101211"><ele>209.66666666666669</ele><time>2026-04-12T09:41:34.594Z</time></trkpt><trkpt lat="42.722645" lon="12.5098542"><ele>209.33333333333334</ele><time>2026-04-12T09:41:35.594Z</time></trkpt><trkpt lat="42.7225826" lon="12.5095856"><ele>209.0</ele><time>2026-04-12T09:41:36.592Z</time></trkpt><trkpt lat="42.7225207" lon="12.5093131"><ele>209.0</ele><time>2026-04-12T09:41:37.591Z</time></trkpt><trkpt lat="42.7224587" lon="12.5090462"><ele>209.0</ele><time>2026-04-12T09:41:38.596Z</time></trkpt><trkpt lat="42.7224023" lon="12.5087862"><ele>209.0</ele><time>2026-04-12T09:41:39.596Z</time></trkpt><trkpt lat="42.7223471" lon="12.5085274"><ele>209.33333333333334</ele><time>2026-04-12T09:41:40.593Z</time></trkpt><trkpt lat="42.7222908" lon="12.5082688"><ele>209.66666666666669</ele><time>2026-04-12T09:41:41.595Z</time></trkpt><trkpt lat="42.7222357" lon="12.5080107"><ele>210.0</ele><time>2026-04-12T09:41:42.593Z</time></trkpt><trkpt lat="42.7221799" lon="12.5077574"><ele>210.33333333333331</ele><time>2026-04-12T09:41:43.592Z</time></trkpt><trkpt lat="42.7221274" lon="12.5075179"><ele>210.66666666666666</ele><time>2026-04-12T09:41:44.587Z</time></trkpt><trkpt lat="42.7220802" lon="12.5072799"><ele>211.0</ele><time>2026-04-12T09:41:45.595Z</time></trkpt><trkpt lat="42.7220434" lon="12.5070412"><ele>211.66666666666666</ele><time>2026-04-12T09:41:46.59Z</time></trkpt><trkpt lat="42.7220285" lon="12.5068006"><ele>212.33333333333331</ele><time>2026-04-12T09:41:47.591Z</time></trkpt><trkpt lat="42.7220346" lon="12.5065619"><ele>213.0</ele><time>2026-04-12T09:41:48.593Z</time></trkpt><trkpt lat="42.722061" lon="12.5063246"><ele>212.33333333333331</ele><time>2026-04-12T09:41:49.598Z</time></trkpt><trkpt lat="42.7220991" lon="12.5060848"><ele>211.66666666666666</ele><time>2026-04-12T09:41:50.607Z</time></trkpt><trkpt lat="42.7221532" lon="12.5058431"><ele>211.0</ele><time>2026-04-12T09:41:51.591Z</time></trkpt><trkpt lat="42.7222232" lon="12.5055988"><ele>209.66666666666666</ele><time>2026-04-12T09:41:52.596Z</time></trkpt><trkpt lat="42.7223026" lon="12.5053471"><ele>208.33333333333331</ele><time>2026-04-12T09:41:53.608Z</time></trkpt><trkpt lat="42.7223864" lon="12.5050863"><ele>207.0</ele><time>2026-04-12T09:41:54.597Z</time></trkpt><trkpt lat="42.7224676" lon="12.5048127"><ele>206.66666666666669</ele><time>2026-04-12T09:41:55.591Z</time></trkpt><trkpt lat="42.7225491" lon="12.5045316"><ele>206.33333333333334</ele><time>2026-04-12T09:41:56.598Z</time></trkpt><trkpt lat="42.7226325" lon="12.5042476"><ele>206.0</ele><time>2026-04-12T09:41:57.597Z</time></trkpt><trkpt lat="42.7227153" lon="12.5039813"><ele>206.66666666666669</ele><time>2026-04-12T09:41:58.602Z</time></trkpt><trkpt lat="42.7228003" lon="12.5037298"><ele>207.33333333333331</ele><time>2026-04-12T09:41:59.595Z</time></trkpt><trkpt lat="42.7228962" lon="12.5034901"><ele>208.0</ele><time>2026-04-12T09:42:00.589Z</time></trkpt><trkpt lat="42.7230085" lon="12.503268"><ele>208.0</ele><time>2026-04-12T09:42:01.592Z</time></trkpt><trkpt lat="42.7231341" lon="12.5030652"><ele>208.0</ele><time>2026-04-12T09:42:02.591Z</time></trkpt><trkpt lat="42.7232649" lon="12.5028714"><ele>208.0</ele><time>2026-04-12T09:42:03.595Z</time></trkpt><trkpt lat="42.7233931" lon="12.5026941"><ele>208.0</ele><time>2026-04-12T09:42:04.592Z</time></trkpt><trkpt lat="42.7235244" lon="12.5025253"><ele>208.0</ele><time>2026-04-12T09:42:05.59Z</time></trkpt><trkpt lat="42.7236703" lon="12.5023728"><ele>208.0</ele><time>2026-04-12T09:42:06.585Z</time></trkpt><trkpt lat="42.7238352" lon="12.502262"><ele>209.33333333333331</ele><time>2026-04-12T09:42:07.587Z</time></trkpt><trkpt lat="42.7240131" lon="12.5021973"><ele>210.66666666666669</ele><time>2026-04-12T09:42:08.587Z</time></trkpt><trkpt lat="42.7241975" lon="12.5021746"><ele>212.0</ele><time>2026-04-12T09:42:09.591Z</time></trkpt><trkpt lat="42.7243738" lon="12.5021793"><ele>211.33333333333334</ele><time>2026-04-12T09:42:10.594Z</time></trkpt><trkpt lat="42.724546" lon="12.5021743"><ele>210.66666666666669</ele><time>2026-04-12T09:42:11.609Z</time></trkpt><trkpt lat="42.7247212" lon="12.5021283"><ele>210.0</ele><time>2026-04-12T09:42:12.591Z</time></trkpt><trkpt lat="42.7248897" lon="12.502025"><ele>210.0</ele><time>2026-04-12T09:42:13.592Z</time></trkpt><trkpt lat="42.7250394" lon="12.5018746"><ele>210.0</ele><time>2026-04-12T09:42:14.591Z</time></trkpt><trkpt lat="42.7251569" lon="12.50169"><ele>210.0</ele><time>2026-04-12T09:42:15.587Z</time></trkpt><trkpt lat="42.7252461" lon="12.5014663"><ele>209.0</ele><time>2026-04-12T09:42:16.594Z</time></trkpt><trkpt lat="42.7253029" lon="12.5012088"><ele>208.0</ele><time>2026-04-12T09:42:17.593Z</time></trkpt><trkpt lat="42.7253413" lon="12.5009298"><ele>207.0</ele><time>2026-04-12T09:42:18.59Z</time></trkpt><trkpt lat="42.7253827" lon="12.5006449"><ele>206.33333333333331</ele><time>2026-04-12T09:42:19.591Z</time></trkpt><trkpt lat="42.7254306" lon="12.5003658"><ele>205.66666666666666</ele><time>2026-04-12T09:42:20.591Z</time></trkpt><trkpt lat="42.7255174" lon="12.5000795"><ele>205.0</ele><time>2026-04-12T09:42:21.591Z</time></trkpt><trkpt lat="42.7256132" lon="12.4998019"><ele>204.33333333333331</ele><time>2026-04-12T09:42:22.593Z</time></trkpt><trkpt lat="42.7257137" lon="12.4995354"><ele>203.66666666666669</ele><time>2026-04-12T09:42:23.598Z</time></trkpt><trkpt lat="42.7258193" lon="12.4992825"><ele>203.0</ele><time>2026-04-12T09:42:24.595Z</time></trkpt><trkpt lat="42.7259177" lon="12.4990419"><ele>203.0</ele><time>2026-04-12T09:42:25.597Z</time></trkpt><trkpt lat="42.7260055" lon="12.4988127"><ele>203.0</ele><time>2026-04-12T09:42:26.598Z</time></trkpt><trkpt lat="42.7261002" lon="12.4985951"><ele>203.0</ele><time>2026-04-12T09:42:27.596Z</time></trkpt><trkpt lat="42.7261846" lon="12.4983658"><ele>204.66666666666669</ele><time>2026-04-12T09:42:28.589Z</time></trkpt><trkpt lat="42.7262485" lon="12.498116"><ele>206.33333333333331</ele><time>2026-04-12T09:42:29.595Z</time></trkpt><trkpt lat="42.7262952" lon="12.4978628"><ele>208.0</ele><time>2026-04-12T09:42:30.593Z</time></trkpt><trkpt lat="42.7262915" lon="12.4975829"><ele>209.33333333333331</ele><time>2026-04-12T09:42:31.598Z</time></trkpt><trkpt lat="42.7262597" lon="12.4973134"><ele>210.66666666666669</ele><time>2026-04-12T09:42:32.595Z</time></trkpt><trkpt lat="42.7262152" lon="12.4970301"><ele>212.0</ele><time>2026-04-12T09:42:33.597Z</time></trkpt><trkpt lat="42.7261636" lon="12.4967377"><ele>215.0</ele><time>2026-04-12T09:42:34.595Z</time></trkpt><trkpt lat="42.726115" lon="12.4964335"><ele>218.0</ele><time>2026-04-12T09:42:35.601Z</time></trkpt><trkpt lat="42.7260635" lon="12.4961258"><ele>211.5</ele><time>2026-04-12T09:42:36.597Z</time></trkpt><trkpt lat="42.7260076" lon="12.4958148"><ele>205.0</ele><time>2026-04-12T09:42:37.604Z</time></trkpt><trkpt lat="42.7259513" lon="12.4955014"><ele>205.5</ele><time>2026-04-12T09:42:38.598Z</time></trkpt><trkpt lat="42.7258944" lon="12.495196"><ele>206.0</ele><time>2026-04-12T09:42:39.595Z</time></trkpt><trkpt lat="42.7258387" lon="12.4949067"><ele>206.0</ele><time>2026-04-12T09:42:40.588Z</time></trkpt><trkpt lat="42.7257842" lon="12.4946168"><ele>206.0</ele><time>2026-04-12T09:42:41.598Z</time></trkpt><trkpt lat="42.7257351" lon="12.4943306"><ele>206.0</ele><time>2026-04-12T09:42:42.59Z</time></trkpt><trkpt lat="42.7256941" lon="12.4940548"><ele>206.33333333333334</ele><time>2026-04-12T09:42:43.589Z</time></trkpt><trkpt lat="42.7256824" lon="12.4937771"><ele>206.66666666666669</ele><time>2026-04-12T09:42:44.591Z</time></trkpt><trkpt lat="42.7257022" lon="12.4934896"><ele>207.0</ele><time>2026-04-12T09:42:45.586Z</time></trkpt><trkpt lat="42.7257499" lon="12.4931998"><ele>206.0</ele><time>2026-04-12T09:42:46.589Z</time></trkpt><trkpt lat="42.7258179" lon="12.4929147"><ele>205.0</ele><time>2026-04-12T09:42:47.586Z</time></trkpt><trkpt lat="42.7258932" lon="12.4926315"><ele>204.0</ele><time>2026-04-12T09:42:48.593Z</time></trkpt><trkpt lat="42.7259663" lon="12.4923519"><ele>204.0</ele><time>2026-04-12T09:42:49.592Z</time></trkpt><trkpt lat="42.7260307" lon="12.4920794"><ele>204.0</ele><time>2026-04-12T09:42:50.59Z</time></trkpt><trkpt lat="42.7260705" lon="12.4918027"><ele>204.0</ele><time>2026-04-12T09:42:51.588Z</time></trkpt><trkpt lat="42.7260686" lon="12.4915141"><ele>204.0</ele><time>2026-04-12T09:42:52.594Z</time></trkpt><trkpt lat="42.7260378" lon="12.4912133"><ele>204.0</ele><time>2026-04-12T09:42:53.593Z</time></trkpt><trkpt lat="42.7259977" lon="12.4909067"><ele>204.0</ele><time>2026-04-12T09:42:54.591Z</time></trkpt><trkpt lat="42.725954" lon="12.4905932"><ele>204.0</ele><time>2026-04-12T09:42:55.594Z</time></trkpt><trkpt lat="42.7259122" lon="12.4902741"><ele>204.0</ele><time>2026-04-12T09:42:56.597Z</time></trkpt><trkpt lat="42.7258718" lon="12.4899469"><ele>204.0</ele><time>2026-04-12T09:42:57.598Z</time></trkpt><trkpt lat="42.7258307" lon="12.489629"><ele>204.66666666666669</ele><time>2026-04-12T09:42:58.601Z</time></trkpt><trkpt lat="42.7257941" lon="12.4893315"><ele>205.33333333333334</ele><time>2026-04-12T09:42:59.603Z</time></trkpt><trkpt lat="42.725768" lon="12.4890393"><ele>206.0</ele><time>2026-04-12T09:43:00.607Z</time></trkpt><trkpt lat="42.7257627" lon="12.4887407"><ele>206.66666666666669</ele><time>2026-04-12T09:43:01.59Z</time></trkpt><trkpt lat="42.7257878" lon="12.4884441"><ele>207.33333333333331</ele><time>2026-04-12T09:43:02.593Z</time></trkpt><trkpt lat="42.7258529" lon="12.4881591"><ele>208.0</ele><time>2026-04-12T09:43:03.598Z</time></trkpt><trkpt lat="42.7259523" lon="12.4878844"><ele>211.0</ele><time>2026-04-12T09:43:04.598Z</time></trkpt><trkpt lat="42.7260687" lon="12.4876192"><ele>214.0</ele><time>2026-04-12T09:43:05.583Z</time></trkpt><trkpt lat="42.7261907" lon="12.4873616"><ele>214.0</ele><time>2026-04-12T09:43:06.594Z</time></trkpt><trkpt lat="42.7263121" lon="12.4871049"><ele>214.0</ele><time>2026-04-12T09:43:07.601Z</time></trkpt><trkpt lat="42.7264347" lon="12.48685"><ele>214.0</ele><time>2026-04-12T09:43:08.592Z</time></trkpt><trkpt lat="42.7265571" lon="12.486595"><ele>210.5</ele><time>2026-04-12T09:43:09.586Z</time></trkpt><trkpt lat="42.7266789" lon="12.4863391"><ele>207.0</ele><time>2026-04-12T09:43:10.591Z</time></trkpt><trkpt lat="42.7268022" lon="12.4860806"><ele>211.5</ele><time>2026-04-12T09:43:11.595Z</time></trkpt><trkpt lat="42.7269262" lon="12.4858207"><ele>216.0</ele><time>2026-04-12T09:43:12.589Z</time></trkpt><trkpt lat="42.7270519" lon="12.4855593"><ele>215.5</ele><time>2026-04-12T09:43:13.588Z</time></trkpt><trkpt lat="42.7271798" lon="12.485296"><ele>215.0</ele><time>2026-04-12T09:43:14.591Z</time></trkpt><trkpt lat="42.7273106" lon="12.4850261"><ele>215.0</ele><time>2026-04-12T09:43:15.595Z</time></trkpt><trkpt lat="42.7274453" lon="12.4847455"><ele>215.0</ele><time>2026-04-12T09:43:16.596Z</time></trkpt><trkpt lat="42.7275699" lon="12.4844613"><ele>214.33333333333334</ele><time>2026-04-12T09:43:17.583Z</time></trkpt><trkpt lat="42.7276737" lon="12.484184"><ele>213.66666666666669</ele><time>2026-04-12T09:43:18.59Z</time></trkpt><trkpt lat="42.727753" lon="12.4839157"><ele>213.0</ele><time>2026-04-12T09:43:19.592Z</time></trkpt><trkpt lat="42.7278009" lon="12.4836457"><ele>216.33333333333331</ele><time>2026-04-12T09:43:20.593Z</time></trkpt><trkpt lat="42.7278123" lon="12.4833607"><ele>219.66666666666666</ele><time>2026-04-12T09:43:21.587Z</time></trkpt><trkpt lat="42.7277885" lon="12.4830704"><ele>223.0</ele><time>2026-04-12T09:43:22.596Z</time></trkpt><trkpt lat="42.7277462" lon="12.4827787"><ele>223.66666666666666</ele><time>2026-04-12T09:43:23.596Z</time></trkpt><trkpt lat="42.7277015" lon="12.4825"><ele>224.33333333333331</ele><time>2026-04-12T09:43:24.592Z</time></trkpt><trkpt lat="42.7276599" lon="12.482235"><ele>225.0</ele><time>2026-04-12T09:43:25.592Z</time></trkpt><trkpt lat="42.7276216" lon="12.481991"><ele>225.0</ele><time>2026-04-12T09:43:26.59Z</time></trkpt><trkpt lat="42.7276016" lon="12.4817602"><ele>225.0</ele><time>2026-04-12T09:43:27.593Z</time></trkpt><trkpt lat="42.7276287" lon="12.4815277"><ele>225.0</ele><time>2026-04-12T09:43:28.594Z</time></trkpt><trkpt lat="42.7277146" lon="12.481315"><ele>228.0</ele><time>2026-04-12T09:43:29.59Z</time></trkpt><trkpt lat="42.7278478" lon="12.4811355"><ele>231.0</ele><time>2026-04-12T09:43:30.59Z</time></trkpt><trkpt lat="42.7280134" lon="12.4809648"><ele>234.0</ele><time>2026-04-12T09:43:31.588Z</time></trkpt><trkpt lat="42.7281928" lon="12.4807886"><ele>234.0</ele><time>2026-04-12T09:43:32.587Z</time></trkpt><trkpt lat="42.7283696" lon="12.4806077"><ele>234.0</ele><time>2026-04-12T09:43:33.587Z</time></trkpt><trkpt lat="42.7285239" lon="12.4804037"><ele>234.0</ele><time>2026-04-12T09:43:34.592Z</time></trkpt><trkpt lat="42.7286537" lon="12.4801772"><ele>237.0</ele><time>2026-04-12T09:43:35.59Z</time></trkpt><trkpt lat="42.7287439" lon="12.4798803"><ele>240.0</ele><time>2026-04-12T09:43:36.595Z</time></trkpt><trkpt lat="42.7288003" lon="12.4795671"><ele>240.0</ele><time>2026-04-12T09:43:37.587Z</time></trkpt><trkpt lat="42.7288348" lon="12.479267"><ele>240.0</ele><time>2026-04-12T09:43:38.585Z</time></trkpt><trkpt lat="42.7288578" lon="12.4789914"><ele>240.0</ele><time>2026-04-12T09:43:39.591Z</time></trkpt><trkpt lat="42.7288839" lon="12.4787379"><ele>240.66666666666669</ele><time>2026-04-12T09:43:40.588Z</time></trkpt><trkpt lat="42.7289162" lon="12.4785003"><ele>241.33333333333334</ele><time>2026-04-12T09:43:41.594Z</time></trkpt><trkpt lat="42.7289589" lon="12.4782881"><ele>242.0</ele><time>2026-04-12T09:43:42.591Z</time></trkpt><trkpt lat="42.7290765" lon="12.4781194"><ele>242.0</ele><time>2026-04-12T09:43:43.58Z</time></trkpt><trkpt lat="42.7292317" lon="12.4780095"><ele>242.0</ele><time>2026-04-12T09:43:44.592Z</time></trkpt><trkpt lat="42.7294179" lon="12.4779439"><ele>242.0</ele><time>2026-04-12T09:43:45.589Z</time></trkpt><trkpt lat="42.7296324" lon="12.4779187"><ele>240.0</ele><time>2026-04-12T09:43:46.591Z</time></trkpt><trkpt lat="42.7298635" lon="12.4779012"><ele>238.0</ele><time>2026-04-12T09:43:47.591Z</time></trkpt><trkpt lat="42.7301074" lon="12.47788"><ele>240.0</ele><time>2026-04-12T09:43:48.591Z</time></trkpt><trkpt lat="42.7303584" lon="12.4778609"><ele>242.0</ele><time>2026-04-12T09:43:49.593Z</time></trkpt><trkpt lat="42.7305951" lon="12.4778422"><ele>242.0</ele><time>2026-04-12T09:43:50.592Z</time></trkpt><trkpt lat="42.7308161" lon="12.4778199"><ele>242.0</ele><time>2026-04-12T09:43:51.591Z</time></trkpt><trkpt lat="42.7310218" lon="12.4778"><ele>242.0</ele><time>2026-04-12T09:43:52.595Z</time></trkpt><trkpt lat="42.7312127" lon="12.4777983"><ele>241.66666666666669</ele><time>2026-04-12T09:43:53.594Z</time></trkpt><trkpt lat="42.7313957" lon="12.4778128"><ele>241.33333333333331</ele><time>2026-04-12T09:43:54.592Z</time></trkpt><trkpt lat="42.731561" lon="12.4779078"><ele>241.0</ele><time>2026-04-12T09:43:55.597Z</time></trkpt><trkpt lat="42.7317139" lon="12.4780506"><ele>242.0</ele><time>2026-04-12T09:43:56.589Z</time></trkpt><trkpt lat="42.7318471" lon="12.4782335"><ele>243.0</ele><time>2026-04-12T09:43:57.589Z</time></trkpt><trkpt lat="42.7319572" lon="12.4784323"><ele>244.0</ele><time>2026-04-12T09:43:58.592Z</time></trkpt><trkpt lat="42.7320724" lon="12.4786236"><ele>248.0</ele><time>2026-04-12T09:43:59.591Z</time></trkpt><trkpt lat="42.7322046" lon="12.4788046"><ele>252.0</ele><time>2026-04-12T09:44:00.584Z</time></trkpt><trkpt lat="42.7323632" lon="12.4789554"><ele>256.0</ele><time>2026-04-12T09:44:01.585Z</time></trkpt><trkpt lat="42.7325558" lon="12.4790591"><ele>256.0</ele><time>2026-04-12T09:44:02.589Z</time></trkpt><trkpt lat="42.7327673" lon="12.479129"><ele>256.0</ele><time>2026-04-12T09:44:03.594Z</time></trkpt><trkpt lat="42.73297" lon="12.4791834"><ele>256.0</ele><time>2026-04-12T09:44:04.616Z</time></trkpt><trkpt lat="42.7331694" lon="12.4792496"><ele>256.0</ele><time>2026-04-12T09:44:05.589Z</time></trkpt><trkpt lat="42.7333679" lon="12.4793487"><ele>256.0</ele><time>2026-04-12T09:44:06.591Z</time></trkpt><trkpt lat="42.7335597" lon="12.4794807"><ele>256.0</ele><time>2026-04-12T09:44:07.581Z</time></trkpt><trkpt lat="42.7337363" lon="12.4796198"><ele>256.66666666666663</ele><time>2026-04-12T09:44:08.585Z</time></trkpt><trkpt lat="42.7339076" lon="12.4797559"><ele>257.3333333333333</ele><time>2026-04-12T09:44:09.585Z</time></trkpt><trkpt lat="42.7340738" lon="12.4799088"><ele>258.0</ele><time>2026-04-12T09:44:10.59Z</time></trkpt><trkpt lat="42.7342343" lon="12.4800831"><ele>259.6666666666667</ele><time>2026-04-12T09:44:11.585Z</time></trkpt><trkpt lat="42.7344081" lon="12.4802498"><ele>261.33333333333337</ele><time>2026-04-12T09:44:12.586Z</time></trkpt><trkpt lat="42.7346045" lon="12.4803911"><ele>263.0</ele><time>2026-04-12T09:44:13.589Z</time></trkpt><trkpt lat="42.7348126" lon="12.4805121"><ele>263.0</ele><time>2026-04-12T09:44:14.589Z</time></trkpt><trkpt lat="42.735023" lon="12.4806411"><ele>263.0</ele><time>2026-04-12T09:44:15.59Z</time></trkpt><trkpt lat="42.7352283" lon="12.4807927"><ele>264.0</ele><time>2026-04-12T09:44:16.593Z</time></trkpt><trkpt lat="42.7354242" lon="12.4809552"><ele>265.0</ele><time>2026-04-12T09:44:17.588Z</time></trkpt><trkpt lat="42.7356074" lon="12.4811164"><ele>266.0</ele><time>2026-04-12T09:44:18.583Z</time></trkpt><trkpt lat="42.7357935" lon="12.4812789"><ele>266.0</ele><time>2026-04-12T09:44:19.59Z</time></trkpt><trkpt lat="42.7359859" lon="12.4814307"><ele>266.0</ele><time>2026-04-12T09:44:20.59Z</time></trkpt><trkpt lat="42.7361917" lon="12.4815519"><ele>266.0</ele><time>2026-04-12T09:44:21.586Z</time></trkpt><trkpt lat="42.7364096" lon="12.4816244"><ele>263.5</ele><time>2026-04-12T09:44:22.587Z</time></trkpt><trkpt lat="42.7366385" lon="12.4816473"><ele>261.0</ele><time>2026-04-12T09:44:23.591Z</time></trkpt><trkpt lat="42.7368682" lon="12.4816311"><ele>262.6666666666667</ele><time>2026-04-12T09:44:24.604Z</time></trkpt><trkpt lat="42.7370906" lon="12.4815976"><ele>264.33333333333337</ele><time>2026-04-12T09:44:25.606Z</time></trkpt><trkpt lat="42.7373038" lon="12.4815718"><ele>266.0</ele><time>2026-04-12T09:44:26.587Z</time></trkpt><trkpt lat="42.7375157" lon="12.4815715"><ele>264.33333333333337</ele><time>2026-04-12T09:44:27.599Z</time></trkpt><trkpt lat="42.7377233" lon="12.481593"><ele>262.6666666666667</ele><time>2026-04-12T09:44:28.593Z</time></trkpt><trkpt lat="42.7379285" lon="12.4816213"><ele>261.0</ele><time>2026-04-12T09:44:29.59Z</time></trkpt><trkpt lat="42.7381269" lon="12.4816582"><ele>261.0</ele><time>2026-04-12T09:44:30.587Z</time></trkpt><trkpt lat="42.7383083" lon="12.48175"><ele>261.0</ele><time>2026-04-12T09:44:31.592Z</time></trkpt><trkpt lat="42.7384777" lon="12.4818996"><ele>261.0</ele><time>2026-04-12T09:44:32.583Z</time></trkpt><trkpt lat="42.7386189" lon="12.4820962"><ele>261.6666666666667</ele><time>2026-04-12T09:44:33.584Z</time></trkpt><trkpt lat="42.7387245" lon="12.4823158"><ele>262.33333333333337</ele><time>2026-04-12T09:44:34.591Z</time></trkpt><trkpt lat="42.7388199" lon="12.482517"><ele>263.0</ele><time>2026-04-12T09:44:35.591Z</time></trkpt><trkpt lat="42.7389294" lon="12.4826976"><ele>263.0</ele><time>2026-04-12T09:44:36.588Z</time></trkpt><trkpt lat="42.7390473" lon="12.4828558"><ele>263.0</ele><time>2026-04-12T09:44:37.589Z</time></trkpt><trkpt lat="42.7392239" lon="12.4829556"><ele>263.0</ele><time>2026-04-12T09:44:38.588Z</time></trkpt><trkpt lat="42.7393986" lon="12.4830484"><ele>265.33333333333337</ele><time>2026-04-12T09:44:39.586Z</time></trkpt><trkpt lat="42.7395785" lon="12.4831221"><ele>267.6666666666667</ele><time>2026-04-12T09:44:40.593Z</time></trkpt><trkpt lat="42.7397661" lon="12.4831731"><ele>270.0</ele><time>2026-04-12T09:44:41.584Z</time></trkpt><trkpt lat="42.7399659" lon="12.4831765"><ele>270.0</ele><time>2026-04-12T09:44:42.587Z</time></trkpt><trkpt lat="42.7401861" lon="12.4831476"><ele>270.0</ele><time>2026-04-12T09:44:43.593Z</time></trkpt><trkpt lat="42.7403977" lon="12.4831512"><ele>270.0</ele><time>2026-04-12T09:44:44.594Z</time></trkpt><trkpt lat="42.7406034" lon="12.4831844"><ele>270.0</ele><time>2026-04-12T09:44:45.593Z</time></trkpt><trkpt lat="42.740818" lon="12.4832421"><ele>270.0</ele><time>2026-04-12T09:44:46.591Z</time></trkpt><trkpt lat="42.7410345" lon="12.483314"><ele>270.0</ele><time>2026-04-12T09:44:47.587Z</time></trkpt><trkpt lat="42.7412582" lon="12.4833963"><ele>270.0</ele><time>2026-04-12T09:44:48.597Z</time></trkpt><trkpt lat="42.7414743" lon="12.4835179"><ele>270.0</ele><time>2026-04-12T09:44:49.594Z</time></trkpt><trkpt lat="42.7416734" lon="12.4836248"><ele>270.0</ele><time>2026-04-12T09:44:50.594Z</time></trkpt><trkpt lat="42.7418823" lon="12.4837091"><ele>271.6666666666667</ele><time>2026-04-12T09:44:51.597Z</time></trkpt><trkpt lat="42.7420973" lon="12.4837618"><ele>273.33333333333337</ele><time>2026-04-12T09:44:52.587Z</time></trkpt><trkpt lat="42.7423167" lon="12.483787"><ele>275.0</ele><time>2026-04-12T09:44:53.585Z</time></trkpt><trkpt lat="42.7425375" lon="12.483801"><ele>282.6666666666667</ele><time>2026-04-12T09:44:54.597Z</time></trkpt><trkpt lat="42.742763" lon="12.4837964"><ele>290.3333333333333</ele><time>2026-04-12T09:44:55.59Z</time></trkpt><trkpt lat="42.7429776" lon="12.4837959"><ele>298.0</ele><time>2026-04-12T09:44:56.609Z</time></trkpt><trkpt lat="42.7431883" lon="12.4837816"><ele>297.5</ele><time>2026-04-12T09:44:57.59Z</time></trkpt><trkpt lat="42.7434164" lon="12.4837413"><ele>297.0</ele><time>2026-04-12T09:44:58.595Z</time></trkpt><trkpt lat="42.743635" lon="12.4836048"><ele>297.0</ele><time>2026-04-12T09:44:59.59Z</time></trkpt><trkpt lat="42.7438409" lon="12.4834151"><ele>297.0</ele><time>2026-04-12T09:45:00.592Z</time></trkpt><trkpt lat="42.7440069" lon="12.4832047"><ele>297.0</ele><time>2026-04-12T09:45:01.592Z</time></trkpt><trkpt lat="42.7441625" lon="12.4830276"><ele>297.0</ele><time>2026-04-12T09:45:02.591Z</time></trkpt><trkpt lat="42.7442906" lon="12.4828411"><ele>297.0</ele><time>2026-04-12T09:45:03.6Z</time></trkpt><trkpt lat="42.7443794" lon="12.4826109"><ele>299.3333333333333</ele><time>2026-04-12T09:45:04.598Z</time></trkpt><trkpt lat="42.7444184" lon="12.4823542"><ele>301.66666666666663</ele><time>2026-04-12T09:45:05.591Z</time></trkpt><trkpt lat="42.7444196" lon="12.4820433"><ele>304.0</ele><time>2026-04-12T09:45:06.593Z</time></trkpt><trkpt lat="42.7443822" lon="12.4817475"><ele>297.0</ele><time>2026-04-12T09:45:07.591Z</time></trkpt><trkpt lat="42.7443496" lon="12.4814292"><ele>290.0</ele><time>2026-04-12T09:45:08.595Z</time></trkpt><trkpt lat="42.7443233" lon="12.4811025"><ele>290.0</ele><time>2026-04-12T09:45:09.591Z</time></trkpt><trkpt lat="42.7442949" lon="12.4807628"><ele>290.0</ele><time>2026-04-12T09:45:10.605Z</time></trkpt><trkpt lat="42.7442613" lon="12.4804271"><ele>291.5</ele><time>2026-04-12T09:45:11.597Z</time></trkpt><trkpt lat="42.7442343" lon="12.4800889"><ele>293.0</ele><time>2026-04-12T09:45:12.59Z</time></trkpt><trkpt lat="42.7442221" lon="12.479751"><ele>293.5</ele><time>2026-04-12T09:45:13.592Z</time></trkpt><trkpt lat="42.7442191" lon="12.4794162"><ele>294.0</ele><time>2026-04-12T09:45:14.593Z</time></trkpt><trkpt lat="42.7442488" lon="12.4790894"><ele>294.5</ele><time>2026-04-12T09:45:15.591Z</time></trkpt><trkpt lat="42.7443097" lon="12.4787665"><ele>295.0</ele><time>2026-04-12T09:45:16.595Z</time></trkpt><trkpt lat="42.7443855" lon="12.4784541"><ele>301.0</ele><time>2026-04-12T09:45:17.589Z</time></trkpt><trkpt lat="42.7444656" lon="12.4781422"><ele>307.0</ele><time>2026-04-12T09:45:18.591Z</time></trkpt><trkpt lat="42.7445488" lon="12.4778384"><ele>307.0</ele><time>2026-04-12T09:45:19.591Z</time></trkpt><trkpt lat="42.7446126" lon="12.4775247"><ele>307.0</ele><time>2026-04-12T09:45:20.584Z</time></trkpt><trkpt lat="42.7446553" lon="12.4771999"><ele>306.5</ele><time>2026-04-12T09:45:21.59Z</time></trkpt><trkpt lat="42.7446907" lon="12.4768704"><ele>306.0</ele><time>2026-04-12T09:45:22.591Z</time></trkpt><trkpt lat="42.7447258" lon="12.476559"><ele>306.6666666666667</ele><time>2026-04-12T09:45:23.596Z</time></trkpt><trkpt lat="42.7447625" lon="12.4762581"><ele>307.33333333333337</ele><time>2026-04-12T09:45:24.595Z</time></trkpt><trkpt lat="42.7447929" lon="12.4759801"><ele>308.0</ele><time>2026-04-12T09:45:25.602Z</time></trkpt><trkpt lat="42.7448214" lon="12.4757237"><ele>308.0</ele><time>2026-04-12T09:45:26.595Z</time></trkpt><trkpt lat="42.7448414" lon="12.4754827"><ele>308.0</ele><time>2026-04-12T09:45:27.589Z</time></trkpt><trkpt lat="42.7448572" lon="12.4752506"><ele>308.0</ele><time>2026-04-12T09:45:28.596Z</time></trkpt><trkpt lat="42.7448672" lon="12.4750287"><ele>307.75</ele><time>2026-04-12T09:45:29.596Z</time></trkpt><trkpt lat="42.7448744" lon="12.4748287"><ele>307.5</ele><time>2026-04-12T09:45:30.593Z</time></trkpt><trkpt lat="42.7448785" lon="12.474653"><ele>307.25</ele><time>2026-04-12T09:45:31.591Z</time></trkpt><trkpt lat="42.7448699" lon="12.4745003"><ele>307.0</ele><time>2026-04-12T09:45:32.588Z</time></trkpt><trkpt lat="42.7448624" lon="12.4743659"><ele>306.6</ele><time>2026-04-12T09:45:33.594Z</time></trkpt><trkpt lat="42.7448589" lon="12.4742562"><ele>306.2</ele><time>2026-04-12T09:45:34.596Z</time></trkpt><trkpt lat="42.7448634" lon="12.4741051"><ele>305.8</ele><time>2026-04-12T09:45:36.595Z</time></trkpt><trkpt lat="42.7448881" lon="12.4739943"><ele>305.4</ele><time>2026-04-12T09:45:38.593Z</time></trkpt><trkpt lat="42.7449289" lon="12.4739193"><ele>305.0</ele><time>2026-04-12T09:45:40.604Z</time></trkpt><trkpt lat="42.744942" lon="12.4737559"><ele>304.8</ele><time>2026-04-12T09:45:42.593Z</time></trkpt><trkpt lat="42.7449163" lon="12.4736337"><ele>304.6</ele><time>2026-04-12T09:45:43.588Z</time></trkpt><trkpt lat="42.7448778" lon="12.4735023"><ele>304.4</ele><time>2026-04-12T09:45:44.604Z</time></trkpt><trkpt lat="42.7448411" lon="12.4733577"><ele>304.2</ele><time>2026-04-12T09:45:45.599Z</time></trkpt><trkpt lat="42.7448034" lon="12.4732045"><ele>304.0</ele><time>2026-04-12T09:45:46.591Z</time></trkpt><trkpt lat="42.7447711" lon="12.4730473"><ele>304.0</ele><time>2026-04-12T09:45:47.596Z</time></trkpt><trkpt lat="42.7447396" lon="12.4728863"><ele>304.0</ele><time>2026-04-12T09:45:48.604Z</time></trkpt><trkpt lat="42.7447105" lon="12.4727182"><ele>304.0</ele><time>2026-04-12T09:45:49.602Z</time></trkpt><trkpt lat="42.7446839" lon="12.4725426"><ele>304.0</ele><time>2026-04-12T09:45:50.601Z</time></trkpt><trkpt lat="42.7446602" lon="12.4723598"><ele>304.0</ele><time>2026-04-12T09:45:51.599Z</time></trkpt><trkpt lat="42.7446371" lon="12.472158"><ele>304.0</ele><time>2026-04-12T09:45:52.596Z</time></trkpt><trkpt lat="42.7446129" lon="12.4719387"><ele>304.0</ele><time>2026-04-12T09:45:53.596Z</time></trkpt><trkpt lat="42.7445861" lon="12.471709"><ele>304.0</ele><time>2026-04-12T09:45:54.601Z</time></trkpt><trkpt lat="42.744554" lon="12.4714453"><ele>304.0</ele><time>2026-04-12T09:45:55.602Z</time></trkpt><trkpt lat="42.7445213" lon="12.4711845"><ele>304.0</ele><time>2026-04-12T09:45:56.604Z</time></trkpt><trkpt lat="42.7444904" lon="12.4709086"><ele>304.0</ele><time>2026-04-12T09:45:57.598Z</time></trkpt><trkpt lat="42.7444657" lon="12.4706558"><ele>304.0</ele><time>2026-04-12T09:45:58.593Z</time></trkpt><trkpt lat="42.7444362" lon="12.4704008"><ele>304.0</ele><time>2026-04-12T09:45:59.591Z</time></trkpt><trkpt lat="42.7444107" lon="12.4701467"><ele>304.0</ele><time>2026-04-12T09:46:00.594Z</time></trkpt><trkpt lat="42.7443844" lon="12.4698984"><ele>304.0</ele><time>2026-04-12T09:46:01.608Z</time></trkpt><trkpt lat="42.7443565" lon="12.4696499"><ele>304.0</ele><time>2026-04-12T09:46:02.599Z</time></trkpt><trkpt lat="42.7443293" lon="12.4693989"><ele>310.0</ele><time>2026-04-12T09:46:03.6Z</time></trkpt><trkpt lat="42.7443031" lon="12.4691533"><ele>316.0</ele><time>2026-04-12T09:46:04.6Z</time></trkpt><trkpt lat="42.7442776" lon="12.4689131"><ele>322.0</ele><time>2026-04-12T09:46:05.595Z</time></trkpt><trkpt lat="42.7442523" lon="12.468671"><ele>323.0</ele><time>2026-04-12T09:46:06.591Z</time></trkpt><trkpt lat="42.7442319" lon="12.4684272"><ele>324.0</ele><time>2026-04-12T09:46:07.596Z</time></trkpt><trkpt lat="42.7442258" lon="12.4681802"><ele>325.0</ele><time>2026-04-12T09:46:08.604Z</time></trkpt><trkpt lat="42.7442416" lon="12.4679323"><ele>325.3333333333333</ele><time>2026-04-12T09:46:09.594Z</time></trkpt><trkpt lat="42.744283" lon="12.4676875"><ele>325.6666666666667</ele><time>2026-04-12T09:46:10.593Z</time></trkpt><trkpt lat="42.7443491" lon="12.4674506"><ele>326.0</ele><time>2026-04-12T09:46:11.594Z</time></trkpt><trkpt lat="42.7444365" lon="12.4672277"><ele>325.33333333333337</ele><time>2026-04-12T09:46:12.607Z</time></trkpt><trkpt lat="42.7445375" lon="12.4670311"><ele>324.6666666666667</ele><time>2026-04-12T09:46:13.595Z</time></trkpt><trkpt lat="42.7446528" lon="12.4668594"><ele>324.0</ele><time>2026-04-12T09:46:14.587Z</time></trkpt><trkpt lat="42.7447818" lon="12.4667098"><ele>324.0</ele><time>2026-04-12T09:46:15.599Z</time></trkpt><trkpt lat="42.7449199" lon="12.4665737"><ele>324.0</ele><time>2026-04-12T09:46:16.597Z</time></trkpt><trkpt lat="42.7450544" lon="12.4664525"><ele>324.0</ele><time>2026-04-12T09:46:17.595Z</time></trkpt><trkpt lat="42.745183" lon="12.4663387"><ele>323.0</ele><time>2026-04-12T09:46:18.598Z</time></trkpt><trkpt lat="42.7453078" lon="12.4662149"><ele>322.0</ele><time>2026-04-12T09:46:19.594Z</time></trkpt><trkpt lat="42.745425" lon="12.4660682"><ele>321.0</ele><time>2026-04-12T09:46:20.597Z</time></trkpt><trkpt lat="42.7455264" lon="12.4659032"><ele>321.0</ele><time>2026-04-12T09:46:21.599Z</time></trkpt><trkpt lat="42.7456195" lon="12.4657251"><ele>321.0</ele><time>2026-04-12T09:46:22.596Z</time></trkpt><trkpt lat="42.7457094" lon="12.4655425"><ele>321.0</ele><time>2026-04-12T09:46:23.593Z</time></trkpt><trkpt lat="42.7457991" lon="12.4653576"><ele>320.6666666666667</ele><time>2026-04-12T09:46:24.595Z</time></trkpt><trkpt lat="42.7458895" lon="12.465169"><ele>320.33333333333337</ele><time>2026-04-12T09:46:25.594Z</time></trkpt><trkpt lat="42.745982" lon="12.4649757"><ele>320.0</ele><time>2026-04-12T09:46:26.596Z</time></trkpt><trkpt lat="42.7460731" lon="12.4647836"><ele>319.75</ele><time>2026-04-12T09:46:27.598Z</time></trkpt><trkpt lat="42.746158" lon="12.464608"><ele>319.5</ele><time>2026-04-12T09:46:28.601Z</time></trkpt><trkpt lat="42.7462353" lon="12.4644503"><ele>319.25</ele><time>2026-04-12T09:46:29.591Z</time></trkpt><trkpt lat="42.7463041" lon="12.4643092"><ele>319.0</ele><time>2026-04-12T09:46:30.595Z</time></trkpt><trkpt lat="42.7463668" lon="12.4641806"><ele>319.0</ele><time>2026-04-12T09:46:31.602Z</time></trkpt><trkpt lat="42.7464235" lon="12.4640634"><ele>319.0</ele><time>2026-04-12T09:46:32.595Z</time></trkpt><trkpt lat="42.7464744" lon="12.463958"><ele>319.0</ele><time>2026-04-12T09:46:33.597Z</time></trkpt><trkpt lat="42.7465167" lon="12.4638716"><ele>319.0</ele><time>2026-04-12T09:46:34.593Z</time></trkpt><trkpt lat="42.7465886" lon="12.4637424"><ele>319.0</ele><time>2026-04-12T09:46:36.599Z</time></trkpt><trkpt lat="42.7466359" lon="12.4636521"><ele>319.5</ele><time>2026-04-12T09:46:37.601Z</time></trkpt><trkpt lat="42.7466933" lon="12.4635355"><ele>320.0</ele><time>2026-04-12T09:46:38.595Z</time></trkpt><trkpt lat="42.7467689" lon="12.4633896"><ele>320.5</ele><time>2026-04-12T09:46:39.597Z</time></trkpt><trkpt lat="42.7468734" lon="12.4632395"><ele>321.0</ele><time>2026-04-12T09:46:40.606Z</time></trkpt><trkpt lat="42.7470034" lon="12.4630847"><ele>320.0</ele><time>2026-04-12T09:46:41.591Z</time></trkpt><trkpt lat="42.7471535" lon="12.4629245"><ele>319.0</ele><time>2026-04-12T09:46:42.603Z</time></trkpt><trkpt lat="42.7473181" lon="12.4627526"><ele>318.0</ele><time>2026-04-12T09:46:43.602Z</time></trkpt><trkpt lat="42.7474879" lon="12.4625766"><ele>318.0</ele><time>2026-04-12T09:46:44.6Z</time></trkpt><trkpt lat="42.7476543" lon="12.4624079"><ele>318.0</ele><time>2026-04-12T09:46:45.593Z</time></trkpt><trkpt lat="42.7478237" lon="12.4622401"><ele>318.0</ele><time>2026-04-12T09:46:46.595Z</time></trkpt><trkpt lat="42.7479941" lon="12.4620723"><ele>317.6666666666667</ele><time>2026-04-12T09:46:47.604Z</time></trkpt><trkpt lat="42.7481676" lon="12.4619049"><ele>317.33333333333337</ele><time>2026-04-12T09:46:48.607Z</time></trkpt><trkpt lat="42.7483446" lon="12.4617328"><ele>317.0</ele><time>2026-04-12T09:46:49.598Z</time></trkpt><trkpt lat="42.7485216" lon="12.4615494"><ele>315.0</ele><time>2026-04-12T09:46:50.592Z</time></trkpt><trkpt lat="42.7486981" lon="12.4613536"><ele>313.0</ele><time>2026-04-12T09:46:51.591Z</time></trkpt><trkpt lat="42.7488707" lon="12.4611422"><ele>312.0</ele><time>2026-04-12T09:46:52.596Z</time></trkpt><trkpt lat="42.7490369" lon="12.4609079"><ele>311.0</ele><time>2026-04-12T09:46:53.595Z</time></trkpt><trkpt lat="42.7491954" lon="12.4606605"><ele>309.5</ele><time>2026-04-12T09:46:54.597Z</time></trkpt><trkpt lat="42.7493318" lon="12.4603818"><ele>308.0</ele><time>2026-04-12T09:46:55.598Z</time></trkpt><trkpt lat="42.7494588" lon="12.4600986"><ele>308.0</ele><time>2026-04-12T09:46:56.597Z</time></trkpt><trkpt lat="42.7495795" lon="12.4598134"><ele>308.0</ele><time>2026-04-12T09:46:57.598Z</time></trkpt><trkpt lat="42.7497021" lon="12.4595272"><ele>307.5</ele><time>2026-04-12T09:46:58.597Z</time></trkpt><trkpt lat="42.7498208" lon="12.4592428"><ele>307.0</ele><time>2026-04-12T09:46:59.593Z</time></trkpt><trkpt lat="42.7499324" lon="12.4589776"><ele>307.66666666666663</ele><time>2026-04-12T09:47:00.598Z</time></trkpt><trkpt lat="42.7500434" lon="12.4587306"><ele>308.3333333333333</ele><time>2026-04-12T09:47:01.592Z</time></trkpt><trkpt lat="42.7501608" lon="12.4584847"><ele>309.0</ele><time>2026-04-12T09:47:02.595Z</time></trkpt><trkpt lat="42.750279" lon="12.4582577"><ele>308.0</ele><time>2026-04-12T09:47:03.599Z</time></trkpt><trkpt lat="42.7504235" lon="12.4580288"><ele>307.0</ele><time>2026-04-12T09:47:04.598Z</time></trkpt><trkpt lat="42.7505754" lon="12.457797"><ele>307.0</ele><time>2026-04-12T09:47:05.594Z</time></trkpt><trkpt lat="42.7507239" lon="12.4575651"><ele>307.0</ele><time>2026-04-12T09:47:06.597Z</time></trkpt><trkpt lat="42.750877" lon="12.4573128"><ele>308.5</ele><time>2026-04-12T09:47:07.6Z</time></trkpt><trkpt lat="42.7510298" lon="12.4570804"><ele>310.0</ele><time>2026-04-12T09:47:08.6Z</time></trkpt><trkpt lat="42.7511725" lon="12.4568505"><ele>307.66666666666663</ele><time>2026-04-12T09:47:09.591Z</time></trkpt><trkpt lat="42.7513163" lon="12.4566172"><ele>305.3333333333333</ele><time>2026-04-12T09:47:10.6Z</time></trkpt><trkpt lat="42.7514617" lon="12.4563823"><ele>303.0</ele><time>2026-04-12T09:47:11.595Z</time></trkpt><trkpt lat="42.7515994" lon="12.4561556"><ele>303.0</ele><time>2026-04-12T09:47:12.592Z</time></trkpt><trkpt lat="42.7517261" lon="12.4559314"><ele>303.0</ele><time>2026-04-12T09:47:13.595Z</time></trkpt><trkpt lat="42.751834" lon="12.4556961"><ele>303.0</ele><time>2026-04-12T09:47:14.591Z</time></trkpt><trkpt lat="42.7519121" lon="12.45543"><ele>298.6666666666667</ele><time>2026-04-12T09:47:15.61Z</time></trkpt><trkpt lat="42.7519599" lon="12.4551546"><ele>294.33333333333337</ele><time>2026-04-12T09:47:16.595Z</time></trkpt><trkpt lat="42.751994" lon="12.4548871"><ele>290.0</ele><time>2026-04-12T09:47:17.598Z</time></trkpt><trkpt lat="42.752036" lon="12.4546258"><ele>290.6666666666667</ele><time>2026-04-12T09:47:18.594Z</time></trkpt><trkpt lat="42.7521005" lon="12.4543644"><ele>291.3333333333333</ele><time>2026-04-12T09:47:19.593Z</time></trkpt><trkpt lat="42.7521797" lon="12.4541133"><ele>292.0</ele><time>2026-04-12T09:47:20.599Z</time></trkpt><trkpt lat="42.7523058" lon="12.4538721"><ele>291.3333333333333</ele><time>2026-04-12T09:47:21.597Z</time></trkpt><trkpt lat="42.7524543" lon="12.4536444"><ele>290.6666666666667</ele><time>2026-04-12T09:47:22.594Z</time></trkpt><trkpt lat="42.7526153" lon="12.453434"><ele>290.0</ele><time>2026-04-12T09:47:23.594Z</time></trkpt><trkpt lat="42.7527936" lon="12.4532333"><ele>290.0</ele><time>2026-04-12T09:47:24.596Z</time></trkpt><trkpt lat="42.7529728" lon="12.4530379"><ele>290.0</ele><time>2026-04-12T09:47:25.597Z</time></trkpt><trkpt lat="42.7531531" lon="12.4528383"><ele>290.0</ele><time>2026-04-12T09:47:26.59Z</time></trkpt><trkpt lat="42.7533383" lon="12.4526375"><ele>290.0</ele><time>2026-04-12T09:47:27.596Z</time></trkpt><trkpt lat="42.7535286" lon="12.452425"><ele>291.0</ele><time>2026-04-12T09:47:28.599Z</time></trkpt><trkpt lat="42.7537219" lon="12.4522154"><ele>292.0</ele><time>2026-04-12T09:47:29.595Z</time></trkpt><trkpt lat="42.7539192" lon="12.4520027"><ele>292.0</ele><time>2026-04-12T09:47:30.6Z</time></trkpt><trkpt lat="42.7541199" lon="12.4517849"><ele>292.0</ele><time>2026-04-12T09:47:31.6Z</time></trkpt><trkpt lat="42.7543211" lon="12.451568"><ele>292.0</ele><time>2026-04-12T09:47:32.607Z</time></trkpt><trkpt lat="42.7545252" lon="12.4513518"><ele>292.0</ele><time>2026-04-12T09:47:33.601Z</time></trkpt><trkpt lat="42.7547327" lon="12.451145"><ele>294.5</ele><time>2026-04-12T09:47:34.599Z</time></trkpt><trkpt lat="42.7549404" lon="12.4509497"><ele>297.0</ele><time>2026-04-12T09:47:35.605Z</time></trkpt><trkpt lat="42.7551466" lon="12.4507652"><ele>296.5</ele><time>2026-04-12T09:47:36.596Z</time></trkpt><trkpt lat="42.7553457" lon="12.4505886"><ele>296.0</ele><time>2026-04-12T09:47:37.597Z</time></trkpt><trkpt lat="42.7555392" lon="12.45042"><ele>297.33333333333337</ele><time>2026-04-12T09:47:38.6Z</time></trkpt><trkpt lat="42.7557251" lon="12.4502627"><ele>298.6666666666667</ele><time>2026-04-12T09:47:39.598Z</time></trkpt><trkpt lat="42.7558973" lon="12.4501124"><ele>300.0</ele><time>2026-04-12T09:47:40.599Z</time></trkpt><trkpt lat="42.7560667" lon="12.4499507"><ele>300.0</ele><time>2026-04-12T09:47:41.605Z</time></trkpt><trkpt lat="42.7562343" lon="12.4497833"><ele>300.0</ele><time>2026-04-12T09:47:42.598Z</time></trkpt><trkpt lat="42.7563861" lon="12.4496138"><ele>300.0</ele><time>2026-04-12T09:47:43.606Z</time></trkpt><trkpt lat="42.7565291" lon="12.449452"><ele>300.3333333333333</ele><time>2026-04-12T09:47:44.598Z</time></trkpt><trkpt lat="42.7566656" lon="12.4492902"><ele>300.66666666666663</ele><time>2026-04-12T09:47:45.597Z</time></trkpt><trkpt lat="42.7568046" lon="12.4491275"><ele>301.0</ele><time>2026-04-12T09:47:46.595Z</time></trkpt><trkpt lat="42.7569445" lon="12.4489583"><ele>300.3333333333333</ele><time>2026-04-12T09:47:47.599Z</time></trkpt><trkpt lat="42.75709" lon="12.4487815"><ele>299.6666666666667</ele><time>2026-04-12T09:47:48.599Z</time></trkpt><trkpt lat="42.7572413" lon="12.4486007"><ele>299.0</ele><time>2026-04-12T09:47:49.6Z</time></trkpt><trkpt lat="42.7573957" lon="12.4484129"><ele>299.0</ele><time>2026-04-12T09:47:50.599Z</time></trkpt><trkpt lat="42.7575506" lon="12.4482188"><ele>299.0</ele><time>2026-04-12T09:47:51.596Z</time></trkpt><trkpt lat="42.7577094" lon="12.4480222"><ele>299.0</ele><time>2026-04-12T09:47:52.603Z</time></trkpt><trkpt lat="42.7578714" lon="12.4478255"><ele>299.6666666666667</ele><time>2026-04-12T09:47:53.604Z</time></trkpt><trkpt lat="42.758034" lon="12.4476255"><ele>300.3333333333333</ele><time>2026-04-12T09:47:54.639Z</time></trkpt><trkpt lat="42.7581983" lon="12.4474255"><ele>301.0</ele><time>2026-04-12T09:47:55.602Z</time></trkpt><trkpt lat="42.7583634" lon="12.4472286"><ele>300.66666666666663</ele><time>2026-04-12T09:47:56.6Z</time></trkpt><trkpt lat="42.7585291" lon="12.4470239"><ele>300.3333333333333</ele><time>2026-04-12T09:47:57.596Z</time></trkpt><trkpt lat="42.7586987" lon="12.446827"><ele>300.0</ele><time>2026-04-12T09:47:58.605Z</time></trkpt><trkpt lat="42.7588577" lon="12.4466364"><ele>300.0</ele><time>2026-04-12T09:47:59.603Z</time></trkpt><trkpt lat="42.7590066" lon="12.4464603"><ele>300.0</ele><time>2026-04-12T09:48:00.6Z</time></trkpt><trkpt lat="42.7591502" lon="12.4462854"><ele>300.0</ele><time>2026-04-12T09:48:01.602Z</time></trkpt><trkpt lat="42.7593024" lon="12.4461063"><ele>300.3333333333333</ele><time>2026-04-12T09:48:02.599Z</time></trkpt><trkpt lat="42.7594563" lon="12.4459171"><ele>300.66666666666663</ele><time>2026-04-12T09:48:03.594Z</time></trkpt><trkpt lat="42.7596054" lon="12.4457155"><ele>301.0</ele><time>2026-04-12T09:48:04.602Z</time></trkpt><trkpt lat="42.7597466" lon="12.4455026"><ele>301.3333333333333</ele><time>2026-04-12T09:48:05.598Z</time></trkpt><trkpt lat="42.7598739" lon="12.4452696"><ele>301.6666666666667</ele><time>2026-04-12T09:48:06.591Z</time></trkpt><trkpt lat="42.7599842" lon="12.4450192"><ele>302.0</ele><time>2026-04-12T09:48:07.599Z</time></trkpt><trkpt lat="42.760084" lon="12.4447588"><ele>302.0</ele><time>2026-04-12T09:48:08.597Z</time></trkpt><trkpt lat="42.7601805" lon="12.4445001"><ele>302.0</ele><time>2026-04-12T09:48:09.591Z</time></trkpt><trkpt lat="42.760272" lon="12.4442446"><ele>302.0</ele><time>2026-04-12T09:48:10.596Z</time></trkpt><trkpt lat="42.7603565" lon="12.4439852"><ele>304.0</ele><time>2026-04-12T09:48:11.595Z</time></trkpt><trkpt lat="42.7604386" lon="12.4437221"><ele>306.0</ele><time>2026-04-12T09:48:12.595Z</time></trkpt><trkpt lat="42.7605213" lon="12.4434576"><ele>308.0</ele><time>2026-04-12T09:48:13.593Z</time></trkpt><trkpt lat="42.7606042" lon="12.4431923"><ele>308.0</ele><time>2026-04-12T09:48:14.596Z</time></trkpt><trkpt lat="42.7606853" lon="12.4429267"><ele>308.0</ele><time>2026-04-12T09:48:15.6Z</time></trkpt><trkpt lat="42.760768" lon="12.4426613"><ele>308.0</ele><time>2026-04-12T09:48:16.598Z</time></trkpt><trkpt lat="42.7608516" lon="12.4423956"><ele>307.6666666666667</ele><time>2026-04-12T09:48:17.591Z</time></trkpt><trkpt lat="42.7609362" lon="12.4421298"><ele>307.3333333333333</ele><time>2026-04-12T09:48:18.594Z</time></trkpt><trkpt lat="42.7610219" lon="12.4418719"><ele>307.0</ele><time>2026-04-12T09:48:19.594Z</time></trkpt><trkpt lat="42.7611105" lon="12.441633"><ele>307.0</ele><time>2026-04-12T09:48:20.598Z</time></trkpt><trkpt lat="42.7612069" lon="12.4414067"><ele>307.0</ele><time>2026-04-12T09:48:21.594Z</time></trkpt><trkpt lat="42.7613066" lon="12.4411995"><ele>307.0</ele><time>2026-04-12T09:48:22.609Z</time></trkpt><trkpt lat="42.7614077" lon="12.4410006"><ele>309.0</ele><time>2026-04-12T09:48:23.6Z</time></trkpt><trkpt lat="42.7615089" lon="12.4408206"><ele>311.0</ele><time>2026-04-12T09:48:24.594Z</time></trkpt><trkpt lat="42.7616174" lon="12.4406518"><ele>313.0</ele><time>2026-04-12T09:48:25.603Z</time></trkpt><trkpt lat="42.7617335" lon="12.4405011"><ele>313.0</ele><time>2026-04-12T09:48:26.598Z</time></trkpt><trkpt lat="42.7618556" lon="12.4403767"><ele>313.0</ele><time>2026-04-12T09:48:27.594Z</time></trkpt><trkpt lat="42.7619812" lon="12.440275"><ele>313.0</ele><time>2026-04-12T09:48:28.599Z</time></trkpt><trkpt lat="42.7621091" lon="12.4401876"><ele>313.0</ele><time>2026-04-12T09:48:29.602Z</time></trkpt><trkpt lat="42.7622383" lon="12.4401071"><ele>312.5</ele><time>2026-04-12T09:48:30.597Z</time></trkpt><trkpt lat="42.7623682" lon="12.4400298"><ele>312.0</ele><time>2026-04-12T09:48:31.588Z</time></trkpt><trkpt lat="42.7625009" lon="12.439954"><ele>311.5</ele><time>2026-04-12T09:48:32.601Z</time></trkpt><trkpt lat="42.7626354" lon="12.4398816"><ele>311.0</ele><time>2026-04-12T09:48:33.594Z</time></trkpt><trkpt lat="42.7627708" lon="12.43981"><ele>310.75</ele><time>2026-04-12T09:48:34.591Z</time></trkpt><trkpt lat="42.7629067" lon="12.4397361"><ele>310.5</ele><time>2026-04-12T09:48:35.592Z</time></trkpt><trkpt lat="42.7630423" lon="12.4396613"><ele>310.25</ele><time>2026-04-12T09:48:36.595Z</time></trkpt><trkpt lat="42.7631782" lon="12.4395861"><ele>310.0</ele><time>2026-04-12T09:48:37.593Z</time></trkpt><trkpt lat="42.7633157" lon="12.4395099"><ele>310.0</ele><time>2026-04-12T09:48:38.593Z</time></trkpt><trkpt lat="42.7634558" lon="12.4394338"><ele>310.0</ele><time>2026-04-12T09:48:39.593Z</time></trkpt><trkpt lat="42.7635968" lon="12.4393601"><ele>310.0</ele><time>2026-04-12T09:48:40.59Z</time></trkpt><trkpt lat="42.7637341" lon="12.4392924"><ele>310.0</ele><time>2026-04-12T09:48:41.591Z</time></trkpt><trkpt lat="42.7638692" lon="12.4392372"><ele>309.75</ele><time>2026-04-12T09:48:42.592Z</time></trkpt><trkpt lat="42.7640084" lon="12.4391953"><ele>309.5</ele><time>2026-04-12T09:48:43.591Z</time></trkpt><trkpt lat="42.7641489" lon="12.4391683"><ele>309.25</ele><time>2026-04-12T09:48:44.595Z</time></trkpt><trkpt lat="42.7642891" lon="12.4391485"><ele>309.0</ele><time>2026-04-12T09:48:45.592Z</time></trkpt><trkpt lat="42.764432" lon="12.4391299"><ele>307.6666666666667</ele><time>2026-04-12T09:48:46.589Z</time></trkpt><trkpt lat="42.764579" lon="12.4391149"><ele>306.33333333333337</ele><time>2026-04-12T09:48:47.598Z</time></trkpt><trkpt lat="42.7647297" lon="12.439099"><ele>305.0</ele><time>2026-04-12T09:48:48.598Z</time></trkpt><trkpt lat="42.7648846" lon="12.4390787"><ele>305.0</ele><time>2026-04-12T09:48:49.6Z</time></trkpt><trkpt lat="42.7650462" lon="12.4390504"><ele>305.0</ele><time>2026-04-12T09:48:50.592Z</time></trkpt><trkpt lat="42.7652165" lon="12.4390107"><ele>305.0</ele><time>2026-04-12T09:48:51.596Z</time></trkpt><trkpt lat="42.7653954" lon="12.4389606"><ele>305.0</ele><time>2026-04-12T09:48:52.596Z</time></trkpt><trkpt lat="42.7655772" lon="12.4389077"><ele>305.0</ele><time>2026-04-12T09:48:53.594Z</time></trkpt><trkpt lat="42.7657587" lon="12.4388552"><ele>305.0</ele><time>2026-04-12T09:48:54.599Z</time></trkpt><trkpt lat="42.7659413" lon="12.4388028"><ele>305.33333333333337</ele><time>2026-04-12T09:48:55.596Z</time></trkpt><trkpt lat="42.7661265" lon="12.43875"><ele>305.6666666666667</ele><time>2026-04-12T09:48:56.594Z</time></trkpt><trkpt lat="42.7663135" lon="12.4386935"><ele>306.0</ele><time>2026-04-12T09:48:57.604Z</time></trkpt><trkpt lat="42.7665015" lon="12.4386323"><ele>306.0</ele><time>2026-04-12T09:48:58.599Z</time></trkpt><trkpt lat="42.7666893" lon="12.4385637"><ele>306.0</ele><time>2026-04-12T09:48:59.599Z</time></trkpt><trkpt lat="42.7668723" lon="12.4384802"><ele>306.0</ele><time>2026-04-12T09:49:00.595Z</time></trkpt><trkpt lat="42.7670479" lon="12.4383832"><ele>307.0</ele><time>2026-04-12T09:49:01.602Z</time></trkpt><trkpt lat="42.7672162" lon="12.4382775"><ele>308.0</ele><time>2026-04-12T09:49:02.592Z</time></trkpt><trkpt lat="42.7673789" lon="12.438165"><ele>309.0</ele><time>2026-04-12T09:49:03.598Z</time></trkpt><trkpt lat="42.7675378" lon="12.4380431"><ele>309.3333333333333</ele><time>2026-04-12T09:49:04.587Z</time></trkpt><trkpt lat="42.7676912" lon="12.4379063"><ele>309.66666666666663</ele><time>2026-04-12T09:49:05.6Z</time></trkpt><trkpt lat="42.7678342" lon="12.43775"><ele>310.0</ele><time>2026-04-12T09:49:06.596Z</time></trkpt><trkpt lat="42.7679592" lon="12.4375794"><ele>310.3333333333333</ele><time>2026-04-12T09:49:07.595Z</time></trkpt><trkpt lat="42.7680695" lon="12.4374087"><ele>310.6666666666667</ele><time>2026-04-12T09:49:08.595Z</time></trkpt><trkpt lat="42.7681729" lon="12.4372469"><ele>311.0</ele><time>2026-04-12T09:49:09.601Z</time></trkpt><trkpt lat="42.7682842" lon="12.4370997"><ele>310.0</ele><time>2026-04-12T09:49:10.605Z</time></trkpt><trkpt lat="42.7684172" lon="12.4369649"><ele>309.0</ele><time>2026-04-12T09:49:11.594Z</time></trkpt><trkpt lat="42.768567" lon="12.4368449"><ele>308.0</ele><time>2026-04-12T09:49:12.587Z</time></trkpt><trkpt lat="42.7687288" lon="12.4367396"><ele>308.0</ele><time>2026-04-12T09:49:13.598Z</time></trkpt><trkpt lat="42.7688917" lon="12.43665"><ele>308.0</ele><time>2026-04-12T09:49:14.593Z</time></trkpt><trkpt lat="42.7690512" lon="12.436572"><ele>308.0</ele><time>2026-04-12T09:49:15.583Z</time></trkpt><trkpt lat="42.76921" lon="12.4364917"><ele>308.6666666666667</ele><time>2026-04-12T09:49:16.592Z</time></trkpt><trkpt lat="42.7693595" lon="12.4364043"><ele>309.3333333333333</ele><time>2026-04-12T09:49:17.592Z</time></trkpt><trkpt lat="42.7694986" lon="12.4363054"><ele>310.0</ele><time>2026-04-12T09:49:18.583Z</time></trkpt><trkpt lat="42.7696284" lon="12.4361862"><ele>306.3333333333333</ele><time>2026-04-12T09:49:19.588Z</time></trkpt><trkpt lat="42.7697505" lon="12.4360497"><ele>302.6666666666667</ele><time>2026-04-12T09:49:20.594Z</time></trkpt><trkpt lat="42.769867" lon="12.4359077"><ele>299.0</ele><time>2026-04-12T09:49:21.593Z</time></trkpt><trkpt lat="42.7699821" lon="12.4357623"><ele>299.0</ele><time>2026-04-12T09:49:22.601Z</time></trkpt><trkpt lat="42.7701008" lon="12.4356132"><ele>299.0</ele><time>2026-04-12T09:49:23.594Z</time></trkpt><trkpt lat="42.7702301" lon="12.435454"><ele>299.0</ele><time>2026-04-12T09:49:24.597Z</time></trkpt><trkpt lat="42.7703731" lon="12.4352771"><ele>298.33333333333337</ele><time>2026-04-12T09:49:25.594Z</time></trkpt><trkpt lat="42.7705283" lon="12.4350835"><ele>297.6666666666667</ele><time>2026-04-12T09:49:26.598Z</time></trkpt><trkpt lat="42.7706809" lon="12.4348919"><ele>297.0</ele><time>2026-04-12T09:49:27.588Z</time></trkpt><trkpt lat="42.770828" lon="12.4347078"><ele>296.0</ele><time>2026-04-12T09:49:28.597Z</time></trkpt><trkpt lat="42.7709726" lon="12.4345237"><ele>295.0</ele><time>2026-04-12T09:49:29.591Z</time></trkpt><trkpt lat="42.7711071" lon="12.4343483"><ele>294.0</ele><time>2026-04-12T09:49:30.589Z</time></trkpt><trkpt lat="42.7712301" lon="12.4341817"><ele>294.0</ele><time>2026-04-12T09:49:31.594Z</time></trkpt><trkpt lat="42.7713435" lon="12.4340168"><ele>294.0</ele><time>2026-04-12T09:49:32.587Z</time></trkpt><trkpt lat="42.7714454" lon="12.4338484"><ele>294.0</ele><time>2026-04-12T09:49:33.586Z</time></trkpt><trkpt lat="42.7715381" lon="12.4336725"><ele>292.0</ele><time>2026-04-12T09:49:34.587Z</time></trkpt><trkpt lat="42.7716241" lon="12.4334907"><ele>290.0</ele><time>2026-04-12T09:49:35.595Z</time></trkpt><trkpt lat="42.7717063" lon="12.433301"><ele>288.0</ele><time>2026-04-12T09:49:36.599Z</time></trkpt><trkpt lat="42.7717835" lon="12.4331105"><ele>287.3333333333333</ele><time>2026-04-12T09:49:37.595Z</time></trkpt><trkpt lat="42.7718559" lon="12.4329206"><ele>286.66666666666663</ele><time>2026-04-12T09:49:38.595Z</time></trkpt><trkpt lat="42.7719253" lon="12.4327257"><ele>286.0</ele><time>2026-04-12T09:49:39.59Z</time></trkpt><trkpt lat="42.771996" lon="12.4325256"><ele>286.0</ele><time>2026-04-12T09:49:40.594Z</time></trkpt><trkpt lat="42.7720739" lon="12.43232"><ele>286.0</ele><time>2026-04-12T09:49:41.587Z</time></trkpt><trkpt lat="42.7721581" lon="12.4321209"><ele>286.0</ele><time>2026-04-12T09:49:42.594Z</time></trkpt><trkpt lat="42.7722516" lon="12.4319207"><ele>286.0</ele><time>2026-04-12T09:49:43.591Z</time></trkpt><trkpt lat="42.772348" lon="12.4317024"><ele>286.0</ele><time>2026-04-12T09:49:44.596Z</time></trkpt><trkpt lat="42.7724479" lon="12.4314867"><ele>286.0</ele><time>2026-04-12T09:49:45.6Z</time></trkpt><trkpt lat="42.7725416" lon="12.4312641"><ele>286.3333333333333</ele><time>2026-04-12T09:49:46.598Z</time></trkpt><trkpt lat="42.7726365" lon="12.4310368"><ele>286.6666666666667</ele><time>2026-04-12T09:49:47.61Z</time></trkpt><trkpt lat="42.7727341" lon="12.4308109"><ele>287.0</ele><time>2026-04-12T09:49:48.597Z</time></trkpt><trkpt lat="42.772833" lon="12.4305869"><ele>287.33333333333337</ele><time>2026-04-12T09:49:49.594Z</time></trkpt><trkpt lat="42.7729278" lon="12.4303627"><ele>287.6666666666667</ele><time>2026-04-12T09:49:50.598Z</time></trkpt><trkpt lat="42.7730209" lon="12.4301381"><ele>288.0</ele><time>2026-04-12T09:49:51.598Z</time></trkpt><trkpt lat="42.7731119" lon="12.4299186"><ele>288.0</ele><time>2026-04-12T09:49:52.596Z</time></trkpt><trkpt lat="42.7732024" lon="12.429702"><ele>288.0</ele><time>2026-04-12T09:49:53.599Z</time></trkpt><trkpt lat="42.7732917" lon="12.4294927"><ele>288.0</ele><time>2026-04-12T09:49:54.604Z</time></trkpt><trkpt lat="42.7733791" lon="12.4292863"><ele>289.0</ele><time>2026-04-12T09:49:55.602Z</time></trkpt><trkpt lat="42.7734627" lon="12.4290866"><ele>290.0</ele><time>2026-04-12T09:49:56.598Z</time></trkpt><trkpt lat="42.7735433" lon="12.4289029"><ele>291.0</ele><time>2026-04-12T09:49:57.604Z</time></trkpt><trkpt lat="42.7736198" lon="12.4287253"><ele>292.5</ele><time>2026-04-12T09:49:58.601Z</time></trkpt><trkpt lat="42.7736929" lon="12.4285526"><ele>294.0</ele><time>2026-04-12T09:49:59.594Z</time></trkpt><trkpt lat="42.7737622" lon="12.4283906"><ele>295.5</ele><time>2026-04-12T09:50:00.606Z</time></trkpt><trkpt lat="42.7738246" lon="12.4282455"><ele>297.0</ele><time>2026-04-12T09:50:01.6Z</time></trkpt><trkpt lat="42.7738787" lon="12.4281186"><ele>297.0</ele><time>2026-04-12T09:50:02.594Z</time></trkpt><trkpt lat="42.7739251" lon="12.4280119"><ele>297.0</ele><time>2026-04-12T09:50:03.599Z</time></trkpt><trkpt lat="42.7739651" lon="12.4279172"><ele>297.0</ele><time>2026-04-12T09:50:04.591Z</time></trkpt><trkpt lat="42.7739987" lon="12.4278304"><ele>297.0</ele><time>2026-04-12T09:50:05.595Z</time></trkpt><trkpt lat="42.7740338" lon="12.4277473"><ele>297.0</ele><time>2026-04-12T09:50:06.591Z</time></trkpt><trkpt lat="42.7740915" lon="12.4276188"><ele>297.0</ele><time>2026-04-12T09:50:08.596Z</time></trkpt><trkpt lat="42.7741401" lon="12.4275169"><ele>297.4</ele><time>2026-04-12T09:50:10.597Z</time></trkpt><trkpt lat="42.774216" lon="12.4273432"><ele>297.79999999999995</ele><time>2026-04-12T09:50:26.604Z</time></trkpt><trkpt lat="42.7742522" lon="12.4272532"><ele>298.2</ele><time>2026-04-12T09:50:27.6Z</time></trkpt><trkpt lat="42.7742957" lon="12.4271443"><ele>298.59999999999997</ele><time>2026-04-12T09:50:28.59Z</time></trkpt><trkpt lat="42.7743514" lon="12.4270128"><ele>299.0</ele><time>2026-04-12T09:50:29.592Z</time></trkpt><trkpt lat="42.7744144" lon="12.4268658"><ele>299.5</ele><time>2026-04-12T09:50:30.591Z</time></trkpt><trkpt lat="42.7744801" lon="12.4267137"><ele>300.0</ele><time>2026-04-12T09:50:31.596Z</time></trkpt><trkpt lat="42.7745418" lon="12.4265705"><ele>300.5</ele><time>2026-04-12T09:50:32.594Z</time></trkpt><trkpt lat="42.7746045" lon="12.4264248"><ele>301.0</ele><time>2026-04-12T09:50:33.595Z</time></trkpt><trkpt lat="42.7746695" lon="12.4262729"><ele>301.0</ele><time>2026-04-12T09:50:34.601Z</time></trkpt><trkpt lat="42.7747376" lon="12.426114"><ele>301.0</ele><time>2026-04-12T09:50:35.591Z</time></trkpt><trkpt lat="42.7748034" lon="12.4259591"><ele>301.0</ele><time>2026-04-12T09:50:36.605Z</time></trkpt><trkpt lat="42.7748647" lon="12.4258166"><ele>301.0</ele><time>2026-04-12T09:50:37.594Z</time></trkpt><trkpt lat="42.7749253" lon="12.4256777"><ele>301.0</ele><time>2026-04-12T09:50:38.598Z</time></trkpt><trkpt lat="42.7749986" lon="12.4255367"><ele>301.0</ele><time>2026-04-12T09:50:39.592Z</time></trkpt><trkpt lat="42.7750875" lon="12.4254017"><ele>301.0</ele><time>2026-04-12T09:50:40.588Z</time></trkpt><trkpt lat="42.7751862" lon="12.4252807"><ele>301.0</ele><time>2026-04-12T09:50:41.59Z</time></trkpt><trkpt lat="42.7752849" lon="12.4251786"><ele>301.0</ele><time>2026-04-12T09:50:42.593Z</time></trkpt><trkpt lat="42.7753795" lon="12.4250888"><ele>301.0</ele><time>2026-04-12T09:50:43.598Z</time></trkpt><trkpt lat="42.775474" lon="12.4250025"><ele>301.0</ele><time>2026-04-12T09:50:44.589Z</time></trkpt><trkpt lat="42.7755636" lon="12.4249232"><ele>301.0</ele><time>2026-04-12T09:50:45.602Z</time></trkpt><trkpt lat="42.7756421" lon="12.424852"><ele>301.0</ele><time>2026-04-12T09:50:46.594Z</time></trkpt><trkpt lat="42.7757169" lon="12.4247795"><ele>301.0</ele><time>2026-04-12T09:50:47.595Z</time></trkpt><trkpt lat="42.7757863" lon="12.4247129"><ele>301.0</ele><time>2026-04-12T09:50:48.589Z</time></trkpt><trkpt lat="42.7758534" lon="12.4246509"><ele>301.0</ele><time>2026-04-12T09:50:49.608Z</time></trkpt><trkpt lat="42.7759308" lon="12.424575"><ele>301.0</ele><time>2026-04-12T09:50:50.598Z</time></trkpt><trkpt lat="42.7760143" lon="12.4245057"><ele>301.0</ele><time>2026-04-12T09:50:51.598Z</time></trkpt><trkpt lat="42.7760996" lon="12.4244377"><ele>299.2</ele><time>2026-04-12T09:50:52.6Z</time></trkpt><trkpt lat="42.776191" lon="12.424363"><ele>297.40000000000003</ele><time>2026-04-12T09:50:53.596Z</time></trkpt><trkpt lat="42.7762847" lon="12.4242819"><ele>295.6</ele><time>2026-04-12T09:50:54.595Z</time></trkpt><trkpt lat="42.7763747" lon="12.4242015"><ele>293.8</ele><time>2026-04-12T09:50:55.594Z</time></trkpt><trkpt lat="42.7764636" lon="12.4241238"><ele>292.0</ele><time>2026-04-12T09:50:56.595Z</time></trkpt><trkpt lat="42.7765505" lon="12.4240424"><ele>292.0</ele><time>2026-04-12T09:50:57.591Z</time></trkpt><trkpt lat="42.7766362" lon="12.4239654"><ele>292.0</ele><time>2026-04-12T09:50:58.603Z</time></trkpt><trkpt lat="42.7767122" lon="12.4238944"><ele>292.0</ele><time>2026-04-12T09:50:59.595Z</time></trkpt><trkpt lat="42.7767756" lon="12.4238384"><ele>292.0</ele><time>2026-04-12T09:51:00.6Z</time></trkpt><trkpt lat="42.776864" lon="12.4237587"><ele>292.0</ele><time>2026-04-12T09:51:02.595Z</time></trkpt><trkpt lat="42.7769349" lon="12.4236999"><ele>291.5</ele><time>2026-04-12T09:51:04.597Z</time></trkpt><trkpt lat="42.776993" lon="12.4235957"><ele>291.0</ele><time>2026-04-12T09:51:06.595Z</time></trkpt><trkpt lat="42.7770119" lon="12.4234409"><ele>290.5</ele><time>2026-04-12T09:51:08.597Z</time></trkpt><trkpt lat="42.7770247" lon="12.4233435"><ele>290.0</ele><time>2026-04-12T09:51:09.601Z</time></trkpt><trkpt lat="42.7770458" lon="12.4232422"><ele>289.5</ele><time>2026-04-12T09:51:10.596Z</time></trkpt><trkpt lat="42.7770684" lon="12.4231465"><ele>289.0</ele><time>2026-04-12T09:51:11.607Z</time></trkpt><trkpt lat="42.7770956" lon="12.4230473"><ele>290.59999999999997</ele><time>2026-04-12T09:51:12.592Z</time></trkpt><trkpt lat="42.7771318" lon="12.4229288"><ele>292.2</ele><time>2026-04-12T09:51:13.597Z</time></trkpt><trkpt lat="42.7771733" lon="12.4227976"><ele>293.79999999999995</ele><time>2026-04-12T09:51:14.598Z</time></trkpt><trkpt lat="42.7772132" lon="12.4226645"><ele>295.4</ele><time>2026-04-12T09:51:15.59Z</time></trkpt><trkpt lat="42.7772525" lon="12.4225267"><ele>297.0</ele><time>2026-04-12T09:51:16.591Z</time></trkpt><trkpt lat="42.7772944" lon="12.4223827"><ele>297.0</ele><time>2026-04-12T09:51:17.605Z</time></trkpt><trkpt lat="42.777338" lon="12.4222461"><ele>297.0</ele><time>2026-04-12T09:51:18.598Z</time></trkpt><trkpt lat="42.777376" lon="12.4221244"><ele>297.0</ele><time>2026-04-12T09:51:19.596Z</time></trkpt><trkpt lat="42.77741" lon="12.422017"><ele>297.0</ele><time>2026-04-12T09:51:20.605Z</time></trkpt><trkpt lat="42.7774433" lon="12.4219084"><ele>297.0</ele><time>2026-04-12T09:51:21.595Z</time></trkpt><trkpt lat="42.7774797" lon="12.4217872"><ele>296.8</ele><time>2026-04-12T09:51:22.595Z</time></trkpt><trkpt lat="42.7775199" lon="12.4216551"><ele>296.6</ele><time>2026-04-12T09:51:23.604Z</time></trkpt><trkpt lat="42.7775594" lon="12.4215206"><ele>296.40000000000003</ele><time>2026-04-12T09:51:24.595Z</time></trkpt><trkpt lat="42.7775938" lon="12.4213993"><ele>296.2</ele><time>2026-04-12T09:51:25.597Z</time></trkpt><trkpt lat="42.7776268" lon="12.4212835"><ele>296.0</ele><time>2026-04-12T09:51:26.592Z</time></trkpt><trkpt lat="42.7776567" lon="12.4211603"><ele>295.8</ele><time>2026-04-12T09:51:27.596Z</time></trkpt><trkpt lat="42.7776755" lon="12.4210356"><ele>295.6</ele><time>2026-04-12T09:51:28.598Z</time></trkpt><trkpt lat="42.7776839" lon="12.4209057"><ele>295.4</ele><time>2026-04-12T09:51:29.604Z</time></trkpt><trkpt lat="42.7776756" lon="12.4207701"><ele>295.2</ele><time>2026-04-12T09:51:30.604Z</time></trkpt><trkpt lat="42.7776512" lon="12.4206296"><ele>295.0</ele><time>2026-04-12T09:51:31.59Z</time></trkpt><trkpt lat="42.7776221" lon="12.4204956"><ele>295.8</ele><time>2026-04-12T09:51:32.592Z</time></trkpt><trkpt lat="42.7775771" lon="12.4203726"><ele>296.6</ele><time>2026-04-12T09:51:33.598Z</time></trkpt><trkpt lat="42.777539" lon="12.4202661"><ele>297.4</ele><time>2026-04-12T09:51:34.605Z</time></trkpt><trkpt lat="42.7774944" lon="12.4201528"><ele>298.2</ele><time>2026-04-12T09:51:35.594Z</time></trkpt><trkpt lat="42.7774514" lon="12.4200285"><ele>299.0</ele><time>2026-04-12T09:51:36.595Z</time></trkpt><trkpt lat="42.7774029" lon="12.4198983"><ele>299.0</ele><time>2026-04-12T09:51:37.594Z</time></trkpt><trkpt lat="42.7773492" lon="12.4197487"><ele>299.0</ele><time>2026-04-12T09:51:38.605Z</time></trkpt><trkpt lat="42.7772996" lon="12.4195991"><ele>299.0</ele><time>2026-04-12T09:51:39.606Z</time></trkpt><trkpt lat="42.7772536" lon="12.4194467"><ele>299.0</ele><time>2026-04-12T09:51:40.595Z</time></trkpt><trkpt lat="42.7772036" lon="12.4192951"><ele>300.25</ele><time>2026-04-12T09:51:41.595Z</time></trkpt><trkpt lat="42.7771565" lon="12.4191485"><ele>301.5</ele><time>2026-04-12T09:51:42.598Z</time></trkpt><trkpt lat="42.7771032" lon="12.4189907"><ele>302.75</ele><time>2026-04-12T09:51:43.596Z</time></trkpt><trkpt lat="42.7770539" lon="12.4188366"><ele>304.0</ele><time>2026-04-12T09:51:44.601Z</time></trkpt><trkpt lat="42.7770052" lon="12.4186775"><ele>304.0</ele><time>2026-04-12T09:51:45.599Z</time></trkpt><trkpt lat="42.7769607" lon="12.4185196"><ele>304.0</ele><time>2026-04-12T09:51:46.596Z</time></trkpt><trkpt lat="42.7769197" lon="12.4183584"><ele>304.0</ele><time>2026-04-12T09:51:47.594Z</time></trkpt><trkpt lat="42.7768797" lon="12.4181946"><ele>304.0</ele><time>2026-04-12T09:51:48.601Z</time></trkpt><trkpt lat="42.7768411" lon="12.4180275"><ele>304.75</ele><time>2026-04-12T09:51:49.592Z</time></trkpt><trkpt lat="42.7768067" lon="12.417856"><ele>305.5</ele><time>2026-04-12T09:51:50.602Z</time></trkpt><trkpt lat="42.7767784" lon="12.4176752"><ele>306.25</ele><time>2026-04-12T09:51:51.595Z</time></trkpt><trkpt lat="42.7767685" lon="12.4174849"><ele>307.0</ele><time>2026-04-12T09:51:52.592Z</time></trkpt><trkpt lat="42.7767826" lon="12.4173026"><ele>307.0</ele><time>2026-04-12T09:51:53.596Z</time></trkpt><trkpt lat="42.7768242" lon="12.4171632"><ele>307.0</ele><time>2026-04-12T09:51:54.592Z</time></trkpt><trkpt lat="42.7769091" lon="12.4170519"><ele>307.0</ele><time>2026-04-12T09:51:55.614Z</time></trkpt><trkpt lat="42.7770067" lon="12.416981"><ele>307.0</ele><time>2026-04-12T09:51:56.596Z</time></trkpt><trkpt lat="42.7771301" lon="12.416958"><ele>309.5</ele><time>2026-04-12T09:51:57.594Z</time></trkpt><trkpt lat="42.777252" lon="12.4169432"><ele>312.0</ele><time>2026-04-12T09:51:58.587Z</time></trkpt><trkpt lat="42.777378" lon="12.4169253"><ele>314.5</ele><time>2026-04-12T09:51:59.595Z</time></trkpt><trkpt lat="42.7775006" lon="12.4168975"><ele>317.0</ele><time>2026-04-12T09:52:00.602Z</time></trkpt><trkpt lat="42.7776207" lon="12.4168569"><ele>317.75</ele><time>2026-04-12T09:52:01.592Z</time></trkpt><trkpt lat="42.7777385" lon="12.4168117"><ele>318.5</ele><time>2026-04-12T09:52:02.6Z</time></trkpt><trkpt lat="42.777855" lon="12.4167111"><ele>319.25</ele><time>2026-04-12T09:52:03.601Z</time></trkpt><trkpt lat="42.7779617" lon="12.4165876"><ele>320.0</ele><time>2026-04-12T09:52:04.594Z</time></trkpt><trkpt lat="42.7780443" lon="12.4164478"><ele>322.0</ele><time>2026-04-12T09:52:05.599Z</time></trkpt><trkpt lat="42.7781057" lon="12.4163054"><ele>324.0</ele><time>2026-04-12T09:52:06.595Z</time></trkpt><trkpt lat="42.7781568" lon="12.4161742"><ele>326.0</ele><time>2026-04-12T09:52:07.601Z</time></trkpt><trkpt lat="42.7782112" lon="12.4160478"><ele>328.0</ele><time>2026-04-12T09:52:08.595Z</time></trkpt><trkpt lat="42.7782727" lon="12.4159139"><ele>328.0</ele><time>2026-04-12T09:52:09.605Z</time></trkpt><trkpt lat="42.7783377" lon="12.4157742"><ele>328.0</ele><time>2026-04-12T09:52:10.595Z</time></trkpt><trkpt lat="42.7783978" lon="12.4156271"><ele>328.0</ele><time>2026-04-12T09:52:11.597Z</time></trkpt><trkpt lat="42.7784598" lon="12.4154921"><ele>328.0</ele><time>2026-04-12T09:52:12.596Z</time></trkpt><trkpt lat="42.7785163" lon="12.4153673"><ele>327.59999999999997</ele><time>2026-04-12T09:52:13.597Z</time></trkpt><trkpt lat="42.7785715" lon="12.4152441"><ele>327.2</ele><time>2026-04-12T09:52:14.595Z</time></trkpt><trkpt lat="42.7786257" lon="12.4151225"><ele>326.8</ele><time>2026-04-12T09:52:15.597Z</time></trkpt><trkpt lat="42.7786777" lon="12.4150027"><ele>326.4</ele><time>2026-04-12T09:52:16.597Z</time></trkpt><trkpt lat="42.7787286" lon="12.4148927"><ele>326.0</ele><time>2026-04-12T09:52:17.598Z</time></trkpt><trkpt lat="42.778773" lon="12.4147993"><ele>326.0</ele><time>2026-04-12T09:52:18.596Z</time></trkpt><trkpt lat="42.7788121" lon="12.414718"><ele>326.0</ele><time>2026-04-12T09:52:19.598Z</time></trkpt><trkpt lat="42.7788675" lon="12.4146128"><ele>326.0</ele><time>2026-04-12T09:52:21.598Z</time></trkpt><trkpt lat="42.7789388" lon="12.4145549"><ele>326.0</ele><time>2026-04-12T09:52:25.596Z</time></trkpt><trkpt lat="42.779005" lon="12.4145755"><ele>326.0</ele><time>2026-04-12T09:52:27.6Z</time></trkpt><trkpt lat="42.7790731" lon="12.4146271"><ele>326.0</ele><time>2026-04-12T09:52:30.594Z</time></trkpt><trkpt lat="42.779146" lon="12.4146216"><ele>327.0</ele><time>2026-04-12T09:52:34.597Z</time></trkpt><trkpt lat="42.77916" lon="12.4145083"><ele>328.0</ele><time>2026-04-12T09:57:57.566Z</time></trkpt><trkpt lat="42.7792076" lon="12.414437"><ele>329.0</ele><time>2026-04-12T09:58:00.596Z</time></trkpt><trkpt lat="42.7792614" lon="12.4143246"><ele>330.0</ele><time>2026-04-12T09:58:18.598Z</time></trkpt><trkpt lat="42.7793163" lon="12.4142026"><ele>331.0</ele><time>2026-04-12T09:58:20.595Z</time></trkpt><trkpt lat="42.7793937" lon="12.4141135"><ele>327.5</ele><time>2026-04-12T09:58:22.593Z</time></trkpt><trkpt lat="42.7794836" lon="12.4140798"><ele>324.0</ele><time>2026-04-12T09:58:24.598Z</time></trkpt><trkpt lat="42.779552" lon="12.4141224"><ele>320.5</ele><time>2026-04-12T09:58:27.602Z</time></trkpt><trkpt lat="42.7795912" lon="12.4142059"><ele>317.0</ele><time>2026-04-12T09:58:31.588Z</time></trkpt><trkpt lat="42.7796168" lon="12.4143188"><ele>313.5</ele><time>2026-04-12T09:58:43.593Z</time></trkpt><trkpt lat="42.7796725" lon="12.4142505"><ele>310.0</ele><time>2026-04-12T09:58:59.604Z</time></trkpt><trkpt lat="42.7796283" lon="12.4141614"><ele>310.0</ele><time>2026-04-12T09:59:12.595Z</time></trkpt><trkpt lat="42.7795627" lon="12.4140846"><ele>310.0</ele><time>2026-04-12T09:59:14.596Z</time></trkpt><trkpt lat="42.7794928" lon="12.414051"><ele>310.0</ele><time>2026-04-12T09:59:16.592Z</time></trkpt><trkpt lat="42.7794035" lon="12.414045"><ele>310.0</ele><time>2026-04-12T09:59:18.596Z</time></trkpt><trkpt lat="42.779321" lon="12.4141102"><ele>310.0</ele><time>2026-04-12T09:59:20.591Z</time></trkpt><trkpt lat="42.7792863" lon="12.4142096"><ele>310.0</ele><time>2026-04-12T09:59:22.602Z</time></trkpt><trkpt lat="42.779258" lon="12.4142941"><ele>313.5</ele><time>2026-04-12T09:59:24.596Z</time></trkpt><trkpt lat="42.7791972" lon="12.4143503"><ele>317.0</ele><time>2026-04-12T09:59:45.598Z</time></trkpt><trkpt lat="42.7791255" lon="12.4144158"><ele>320.5</ele><time>2026-04-12T09:59:47.591Z</time></trkpt><trkpt lat="42.779062" lon="12.4144525"><ele>324.0</ele><time>2026-04-12T09:59:49.6Z</time></trkpt><trkpt lat="42.7789861" lon="12.4144183"><ele>327.5</ele><time>2026-04-12T09:59:53.593Z</time></trkpt><trkpt lat="42.7789294" lon="12.4143513"><ele>331.0</ele><time>2026-04-12T09:59:56.598Z</time></trkpt><trkpt lat="42.7788697" lon="12.4142756"><ele>331.0</ele><time>2026-04-12T09:59:59.589Z</time></trkpt><trkpt lat="42.778823" lon="12.4142107"><ele>331.0</ele><time>2026-04-12T10:00:01.591Z</time></trkpt><trkpt lat="42.7787808" lon="12.4141398"><ele>331.0</ele><time>2026-04-12T10:00:04.597Z</time></trkpt><trkpt lat="42.7787319" lon="12.4140837"><ele>331.0</ele><time>2026-04-12T10:00:26.607Z</time></trkpt><trkpt lat="42.7786395" lon="12.4140119"><ele>331.0</ele><time>2026-04-12T10:00:28.595Z</time></trkpt><trkpt lat="42.7785572" lon="12.4139171"><ele>331.0</ele><time>2026-04-12T10:00:30.598Z</time></trkpt><trkpt lat="42.7784804" lon="12.4138182"><ele>329.8</ele><time>2026-04-12T10:00:32.596Z</time></trkpt><trkpt lat="42.778422" lon="12.4136898"><ele>328.6</ele><time>2026-04-12T10:00:34.595Z</time></trkpt><trkpt lat="42.7784023" lon="12.4135918"><ele>327.4</ele><time>2026-04-12T10:00:35.592Z</time></trkpt><trkpt lat="42.778396" lon="12.4134747"><ele>326.2</ele><time>2026-04-12T10:00:36.59Z</time></trkpt><trkpt lat="42.7783894" lon="12.4133466"><ele>325.0</ele><time>2026-04-12T10:00:37.592Z</time></trkpt><trkpt lat="42.778401" lon="12.4132033"><ele>325.0</ele><time>2026-04-12T10:00:38.589Z</time></trkpt><trkpt lat="42.7784176" lon="12.4130478"><ele>325.0</ele><time>2026-04-12T10:00:39.591Z</time></trkpt><trkpt lat="42.7784301" lon="12.4128813"><ele>325.0</ele><time>2026-04-12T10:00:40.588Z</time></trkpt><trkpt lat="42.7784392" lon="12.412712"><ele>325.0</ele><time>2026-04-12T10:00:41.602Z</time></trkpt><trkpt lat="42.7784518" lon="12.4125394"><ele>325.0</ele><time>2026-04-12T10:00:42.595Z</time></trkpt><trkpt lat="42.778464" lon="12.4123632"><ele>325.0</ele><time>2026-04-12T10:00:43.596Z</time></trkpt><trkpt lat="42.7784763" lon="12.4121868"><ele>325.0</ele><time>2026-04-12T10:00:44.595Z</time></trkpt><trkpt lat="42.7784921" lon="12.4120206"><ele>325.0</ele><time>2026-04-12T10:00:45.596Z</time></trkpt><trkpt lat="42.7785096" lon="12.4118546"><ele>328.75</ele><time>2026-04-12T10:00:46.59Z</time></trkpt><trkpt lat="42.778542" lon="12.4116954"><ele>332.5</ele><time>2026-04-12T10:00:47.59Z</time></trkpt><trkpt lat="42.7785796" lon="12.4115402"><ele>336.25</ele><time>2026-04-12T10:00:48.593Z</time></trkpt><trkpt lat="42.7786189" lon="12.4113842"><ele>340.0</ele><time>2026-04-12T10:00:49.601Z</time></trkpt><trkpt lat="42.7786583" lon="12.4112269"><ele>340.5</ele><time>2026-04-12T10:00:50.596Z</time></trkpt><trkpt lat="42.7786875" lon="12.4110626"><ele>341.0</ele><time>2026-04-12T10:00:51.59Z</time></trkpt><trkpt lat="42.778701" lon="12.4108986"><ele>341.5</ele><time>2026-04-12T10:00:52.592Z</time></trkpt><trkpt lat="42.7786998" lon="12.4107332"><ele>342.0</ele><time>2026-04-12T10:00:53.591Z</time></trkpt><trkpt lat="42.7786909" lon="12.4105722"><ele>342.40000000000003</ele><time>2026-04-12T10:00:54.591Z</time></trkpt><trkpt lat="42.7786803" lon="12.4104186"><ele>342.8</ele><time>2026-04-12T10:00:55.591Z</time></trkpt><trkpt lat="42.7786694" lon="12.4102796"><ele>343.2</ele><time>2026-04-12T10:00:56.611Z</time></trkpt><trkpt lat="42.7786634" lon="12.4101691"><ele>343.6</ele><time>2026-04-12T10:00:57.595Z</time></trkpt><trkpt lat="42.7786637" lon="12.4100281"><ele>344.0</ele><time>2026-04-12T10:00:59.594Z</time></trkpt><trkpt lat="42.778632" lon="12.4099255"><ele>344.0</ele><time>2026-04-12T10:01:51.604Z</time></trkpt><trkpt lat="42.7785895" lon="12.4097677"><ele>344.0</ele><time>2026-04-12T10:01:53.595Z</time></trkpt><trkpt lat="42.7785623" lon="12.4096443"><ele>344.0</ele><time>2026-04-12T10:01:54.594Z</time></trkpt><trkpt lat="42.7785306" lon="12.4095007"><ele>344.0</ele><time>2026-04-12T10:01:55.592Z</time></trkpt><trkpt lat="42.7784968" lon="12.4093447"><ele>344.0</ele><time>2026-04-12T10:01:56.592Z</time></trkpt><trkpt lat="42.7784612" lon="12.4091773"><ele>339.75</ele><time>2026-04-12T10:01:57.591Z</time></trkpt><trkpt lat="42.7784256" lon="12.4090147"><ele>335.5</ele><time>2026-04-12T10:01:58.589Z</time></trkpt><trkpt lat="42.7783905" lon="12.4088609"><ele>331.25</ele><time>2026-04-12T10:01:59.59Z</time></trkpt><trkpt lat="42.7783544" lon="12.408702"><ele>327.0</ele><time>2026-04-12T10:02:00.588Z</time></trkpt><trkpt lat="42.778318" lon="12.408544"><ele>327.0</ele><time>2026-04-12T10:02:01.585Z</time></trkpt><trkpt lat="42.7782699" lon="12.408389"><ele>327.0</ele><time>2026-04-12T10:02:02.594Z</time></trkpt><trkpt lat="42.7782107" lon="12.4082326"><ele>327.0</ele><time>2026-04-12T10:02:03.6Z</time></trkpt><trkpt lat="42.7781474" lon="12.4080703"><ele>327.0</ele><time>2026-04-12T10:02:04.603Z</time></trkpt><trkpt lat="42.7780792" lon="12.4079048"><ele>328.5</ele><time>2026-04-12T10:02:05.61Z</time></trkpt><trkpt lat="42.7780216" lon="12.4077317"><ele>330.0</ele><time>2026-04-12T10:02:06.59Z</time></trkpt><trkpt lat="42.7779902" lon="12.4075462"><ele>331.5</ele><time>2026-04-12T10:02:07.596Z</time></trkpt><trkpt lat="42.7779621" lon="12.4073632"><ele>333.0</ele><time>2026-04-12T10:02:08.591Z</time></trkpt><trkpt lat="42.7779789" lon="12.4071647"><ele>334.6666666666667</ele><time>2026-04-12T10:02:09.594Z</time></trkpt><trkpt lat="42.7779979" lon="12.4069543"><ele>336.33333333333337</ele><time>2026-04-12T10:02:10.592Z</time></trkpt><trkpt lat="42.7780143" lon="12.4067363"><ele>338.0</ele><time>2026-04-12T10:02:11.599Z</time></trkpt><trkpt lat="42.778032" lon="12.4065214"><ele>339.33333333333337</ele><time>2026-04-12T10:02:12.6Z</time></trkpt><trkpt lat="42.7780547" lon="12.4063121"><ele>340.6666666666667</ele><time>2026-04-12T10:02:13.591Z</time></trkpt><trkpt lat="42.7780761" lon="12.4061103"><ele>342.0</ele><time>2026-04-12T10:02:14.61Z</time></trkpt><trkpt lat="42.7780993" lon="12.4059117"><ele>342.0</ele><time>2026-04-12T10:02:15.59Z</time></trkpt><trkpt lat="42.7781162" lon="12.4057115"><ele>342.0</ele><time>2026-04-12T10:02:16.601Z</time></trkpt><trkpt lat="42.7781253" lon="12.4055046"><ele>342.0</ele><time>2026-04-12T10:02:17.595Z</time></trkpt><trkpt lat="42.7781136" lon="12.4052985"><ele>344.0</ele><time>2026-04-12T10:02:18.59Z</time></trkpt><trkpt lat="42.7780834" lon="12.4050956"><ele>346.0</ele><time>2026-04-12T10:02:19.592Z</time></trkpt><trkpt lat="42.7780503" lon="12.4048984"><ele>348.0</ele><time>2026-04-12T10:02:20.596Z</time></trkpt><trkpt lat="42.7780046" lon="12.4047043"><ele>349.3333333333333</ele><time>2026-04-12T10:02:21.594Z</time></trkpt><trkpt lat="42.7779529" lon="12.4045012"><ele>350.66666666666663</ele><time>2026-04-12T10:02:22.586Z</time></trkpt><trkpt lat="42.7779116" lon="12.4043062"><ele>352.0</ele><time>2026-04-12T10:02:23.607Z</time></trkpt><trkpt lat="42.7778834" lon="12.4041112"><ele>352.0</ele><time>2026-04-12T10:02:24.599Z</time></trkpt><trkpt lat="42.7778711" lon="12.4039207"><ele>352.0</ele><time>2026-04-12T10:02:25.598Z</time></trkpt><trkpt lat="42.777858" lon="12.4037328"><ele>352.0</ele><time>2026-04-12T10:02:26.589Z</time></trkpt><trkpt lat="42.7778452" lon="12.4035451"><ele>352.0</ele><time>2026-04-12T10:02:27.591Z</time></trkpt><trkpt lat="42.7778282" lon="12.4033822"><ele>352.20000000000005</ele><time>2026-04-12T10:02:28.592Z</time></trkpt><trkpt lat="42.7778155" lon="12.4032376"><ele>352.4</ele><time>2026-04-12T10:02:29.596Z</time></trkpt><trkpt lat="42.7778155" lon="12.4031169"><ele>352.6</ele><time>2026-04-12T10:02:30.595Z</time></trkpt><trkpt lat="42.777852" lon="12.4029767"><ele>352.79999999999995</ele><time>2026-04-12T10:02:32.606Z</time></trkpt><trkpt lat="42.777927" lon="12.4028913"><ele>353.0</ele><time>2026-04-12T10:02:34.592Z</time></trkpt><trkpt lat="42.7780084" lon="12.4027993"><ele>353.4</ele><time>2026-04-12T10:02:36.591Z</time></trkpt><trkpt lat="42.7781129" lon="12.4027167"><ele>353.79999999999995</ele><time>2026-04-12T10:02:38.596Z</time></trkpt><trkpt lat="42.7781778" lon="12.4026632"><ele>354.2</ele><time>2026-04-12T10:02:39.598Z</time></trkpt><trkpt lat="42.7782421" lon="12.4025938"><ele>354.6</ele><time>2026-04-12T10:02:40.587Z</time></trkpt><trkpt lat="42.7783011" lon="12.4025073"><ele>355.0</ele><time>2026-04-12T10:02:41.588Z</time></trkpt><trkpt lat="42.7783523" lon="12.4023967"><ele>355.0</ele><time>2026-04-12T10:02:42.591Z</time></trkpt><trkpt lat="42.7783991" lon="12.4022598"><ele>355.0</ele><time>2026-04-12T10:02:43.585Z</time></trkpt><trkpt lat="42.7784482" lon="12.402102"><ele>355.0</ele><time>2026-04-12T10:02:44.592Z</time></trkpt><trkpt lat="42.7784977" lon="12.4019411"><ele>355.0</ele><time>2026-04-12T10:02:45.6Z</time></trkpt><trkpt lat="42.7785485" lon="12.4017832"><ele>358.75</ele><time>2026-04-12T10:02:46.596Z</time></trkpt><trkpt lat="42.7786031" lon="12.401613"><ele>362.5</ele><time>2026-04-12T10:02:47.585Z</time></trkpt><trkpt lat="42.7786573" lon="12.4014396"><ele>366.25</ele><time>2026-04-12T10:02:48.599Z</time></trkpt><trkpt lat="42.7787277" lon="12.4012583"><ele>370.0</ele><time>2026-04-12T10:02:49.593Z</time></trkpt><trkpt lat="42.7787904" lon="12.401073"><ele>370.0</ele><time>2026-04-12T10:02:50.583Z</time></trkpt><trkpt lat="42.77884" lon="12.4008569"><ele>370.0</ele><time>2026-04-12T10:02:51.593Z</time></trkpt><trkpt lat="42.7788702" lon="12.4006263"><ele>370.0</ele><time>2026-04-12T10:02:52.595Z</time></trkpt><trkpt lat="42.7788832" lon="12.4003968"><ele>368.75</ele><time>2026-04-12T10:02:53.597Z</time></trkpt><trkpt lat="42.7788973" lon="12.4001867"><ele>367.5</ele><time>2026-04-12T10:02:54.607Z</time></trkpt><trkpt lat="42.7789077" lon="12.3999963"><ele>366.25</ele><time>2026-04-12T10:02:55.589Z</time></trkpt><trkpt lat="42.7789325" lon="12.3998207"><ele>365.0</ele><time>2026-04-12T10:02:56.592Z</time></trkpt><trkpt lat="42.7789861" lon="12.3996622"><ele>361.8</ele><time>2026-04-12T10:02:57.595Z</time></trkpt><trkpt lat="42.7790624" lon="12.3995483"><ele>358.6</ele><time>2026-04-12T10:02:58.588Z</time></trkpt><trkpt lat="42.7791642" lon="12.3994779"><ele>355.4</ele><time>2026-04-12T10:02:59.592Z</time></trkpt><trkpt lat="42.7792708" lon="12.3994387"><ele>352.2</ele><time>2026-04-12T10:03:00.587Z</time></trkpt><trkpt lat="42.779369" lon="12.3994702"><ele>349.0</ele><time>2026-04-12T10:03:01.599Z</time></trkpt><trkpt lat="42.7794656" lon="12.3995337"><ele>349.4</ele><time>2026-04-12T10:03:02.591Z</time></trkpt><trkpt lat="42.7794995" lon="12.3996622"><ele>349.79999999999995</ele><time>2026-04-12T10:03:03.589Z</time></trkpt><trkpt lat="42.7795128" lon="12.3998003"><ele>350.20000000000005</ele><time>2026-04-12T10:03:04.588Z</time></trkpt><trkpt lat="42.7795102" lon="12.3999474"><ele>350.6</ele><time>2026-04-12T10:03:05.592Z</time></trkpt><trkpt lat="42.7795217" lon="12.4000839"><ele>351.0</ele><time>2026-04-12T10:03:06.59Z</time></trkpt><trkpt lat="42.7795368" lon="12.40023"><ele>351.0</ele><time>2026-04-12T10:03:07.598Z</time></trkpt><trkpt lat="42.7795481" lon="12.4004005"><ele>351.0</ele><time>2026-04-12T10:03:08.594Z</time></trkpt><trkpt lat="42.7795644" lon="12.4005656"><ele>351.0</ele><time>2026-04-12T10:03:09.589Z</time></trkpt><trkpt lat="42.779579" lon="12.4007276"><ele>351.0</ele><time>2026-04-12T10:03:10.585Z</time></trkpt><trkpt lat="42.7795991" lon="12.4008886"><ele>353.0</ele><time>2026-04-12T10:03:11.592Z</time></trkpt><trkpt lat="42.7796199" lon="12.401053"><ele>355.0</ele><time>2026-04-12T10:03:12.591Z</time></trkpt><trkpt lat="42.7796332" lon="12.4012177"><ele>357.0</ele><time>2026-04-12T10:03:13.595Z</time></trkpt><trkpt lat="42.7796523" lon="12.401394"><ele>359.0</ele><time>2026-04-12T10:03:14.598Z</time></trkpt><trkpt lat="42.7796672" lon="12.4015788"><ele>361.0</ele><time>2026-04-12T10:03:15.596Z</time></trkpt><trkpt lat="42.7796835" lon="12.401758"><ele>363.0</ele><time>2026-04-12T10:03:16.591Z</time></trkpt><trkpt lat="42.7797117" lon="12.4019455"><ele>365.0</ele><time>2026-04-12T10:03:17.591Z</time></trkpt><trkpt lat="42.7797456" lon="12.4021261"><ele>367.0</ele><time>2026-04-12T10:03:18.6Z</time></trkpt><trkpt lat="42.7797835" lon="12.402302"><ele>372.66666666666663</ele><time>2026-04-12T10:03:19.596Z</time></trkpt><trkpt lat="42.7798716" lon="12.4024767"><ele>378.3333333333333</ele><time>2026-04-12T10:03:20.595Z</time></trkpt><trkpt lat="42.7799678" lon="12.4026372"><ele>384.0</ele><time>2026-04-12T10:03:21.591Z</time></trkpt><trkpt lat="42.7800596" lon="12.402799"><ele>384.0</ele><time>2026-04-12T10:03:22.587Z</time></trkpt><trkpt lat="42.7801556" lon="12.4029323"><ele>384.0</ele><time>2026-04-12T10:03:23.593Z</time></trkpt><trkpt lat="42.7802567" lon="12.4030489"><ele>384.0</ele><time>2026-04-12T10:03:24.596Z</time></trkpt><trkpt lat="42.7803609" lon="12.4031701"><ele>384.0</ele><time>2026-04-12T10:03:25.603Z</time></trkpt><trkpt lat="42.7804617" lon="12.4032838"><ele>382.0</ele><time>2026-04-12T10:03:26.595Z</time></trkpt><trkpt lat="42.7805613" lon="12.4033941"><ele>380.0</ele><time>2026-04-12T10:03:27.593Z</time></trkpt><trkpt lat="42.7806554" lon="12.4035086"><ele>378.0</ele><time>2026-04-12T10:03:28.585Z</time></trkpt><trkpt lat="42.7807382" lon="12.4036228"><ele>376.0</ele><time>2026-04-12T10:03:29.59Z</time></trkpt><trkpt lat="42.7808089" lon="12.4037342"><ele>379.8</ele><time>2026-04-12T10:03:30.597Z</time></trkpt><trkpt lat="42.7808692" lon="12.4038432"><ele>383.6</ele><time>2026-04-12T10:03:31.588Z</time></trkpt><trkpt lat="42.7809112" lon="12.4039584"><ele>387.4</ele><time>2026-04-12T10:03:32.594Z</time></trkpt><trkpt lat="42.7809439" lon="12.4040698"><ele>391.2</ele><time>2026-04-12T10:03:33.592Z</time></trkpt><trkpt lat="42.7809676" lon="12.4041823"><ele>395.0</ele><time>2026-04-12T10:03:34.588Z</time></trkpt><trkpt lat="42.7809819" lon="12.4042947"><ele>394.99999999999994</ele><time>2026-04-12T10:03:35.594Z</time></trkpt><trkpt lat="42.7809875" lon="12.4044054"><ele>395.0</ele><time>2026-04-12T10:03:36.586Z</time></trkpt><trkpt lat="42.780992" lon="12.404515"><ele>395.0</ele><time>2026-04-12T10:03:37.6Z</time></trkpt><trkpt lat="42.7809971" lon="12.4046254"><ele>395.0</ele><time>2026-04-12T10:03:38.592Z</time></trkpt><trkpt lat="42.7810029" lon="12.4047425"><ele>394.99999999999994</ele><time>2026-04-12T10:03:39.592Z</time></trkpt><trkpt lat="42.7810087" lon="12.4048651"><ele>395.0</ele><time>2026-04-12T10:03:40.593Z</time></trkpt><trkpt lat="42.7810156" lon="12.4049924"><ele>396.2</ele><time>2026-04-12T10:03:41.595Z</time></trkpt><trkpt lat="42.7810206" lon="12.4051151"><ele>397.4</ele><time>2026-04-12T10:03:42.592Z</time></trkpt><trkpt lat="42.7810129" lon="12.4052425"><ele>398.6</ele><time>2026-04-12T10:03:43.591Z</time></trkpt><trkpt lat="42.7810014" lon="12.4053674"><ele>399.8</ele><time>2026-04-12T10:03:44.596Z</time></trkpt><trkpt lat="42.780992" lon="12.4054881"><ele>401.0</ele><time>2026-04-12T10:03:45.593Z</time></trkpt><trkpt lat="42.7809952" lon="12.4056063"><ele>401.8</ele><time>2026-04-12T10:03:46.588Z</time></trkpt><trkpt lat="42.7809925" lon="12.4057173"><ele>402.6</ele><time>2026-04-12T10:03:47.594Z</time></trkpt><trkpt lat="42.7809938" lon="12.4058134"><ele>403.4</ele><time>2026-04-12T10:03:48.591Z</time></trkpt><trkpt lat="42.7810031" lon="12.4059733"><ele>404.2</ele><time>2026-04-12T10:03:50.592Z</time></trkpt><trkpt lat="42.7810177" lon="12.4061159"><ele>405.0</ele><time>2026-04-12T10:03:52.593Z</time></trkpt><trkpt lat="42.7810289" lon="12.4062405"><ele>404.6666666666667</ele><time>2026-04-12T10:03:54.591Z</time></trkpt><trkpt lat="42.781049" lon="12.406351"><ele>404.33333333333337</ele><time>2026-04-12T10:03:56.604Z</time></trkpt><trkpt lat="42.7810758" lon="12.4064474"><ele>404.0</ele><time>2026-04-12T10:03:58.59Z</time></trkpt><trkpt lat="42.7811287" lon="12.4065109"><ele>403.6666666666667</ele><time>2026-04-12T10:04:00.592Z</time></trkpt><trkpt lat="42.7812059" lon="12.4065367"><ele>403.33333333333337</ele><time>2026-04-12T10:04:02.597Z</time></trkpt><trkpt lat="42.78129" lon="12.406536"><ele>403.0</ele><time>2026-04-12T10:04:04.598Z</time></trkpt><trkpt lat="42.7813755" lon="12.4065297"><ele>403.0</ele><time>2026-04-12T10:04:06.595Z</time></trkpt><trkpt lat="42.7815445" lon="12.4065284"><ele>403.0</ele><time>2026-04-12T10:04:10.594Z</time></trkpt><trkpt lat="42.7816183" lon="12.4065146"><ele>403.0</ele><time>2026-04-12T10:04:12.59Z</time></trkpt><trkpt lat="42.7816944" lon="12.4065027"><ele>403.0</ele><time>2026-04-12T10:04:14.588Z</time></trkpt><trkpt lat="42.7817595" lon="12.4064746"><ele>403.0</ele><time>2026-04-12T10:04:16.586Z</time></trkpt><trkpt lat="42.781879" lon="12.4065615"><ele>403.0</ele><time>2026-04-12T10:04:22.592Z</time></trkpt><trkpt lat="42.7819248" lon="12.4067057"><ele>403.0</ele><time>2026-04-12T10:04:27.598Z</time></trkpt><trkpt lat="42.7819066" lon="12.4068553"><ele>403.0</ele><time>2026-04-12T10:04:42.593Z</time></trkpt><trkpt lat="42.7818457" lon="12.406932"><ele>403.0</ele><time>2026-04-12T10:04:45.588Z</time></trkpt><trkpt lat="42.7817909" lon="12.4069943"><ele>403.0</ele><time>2026-04-12T10:04:47.585Z</time></trkpt><trkpt lat="42.7817329" lon="12.4070447"><ele>403.00000000000006</ele><time>2026-04-12T10:04:49.592Z</time></trkpt><trkpt lat="42.7816521" lon="12.4070929"><ele>403.0</ele><time>2026-04-12T10:04:51.596Z</time></trkpt><trkpt lat="42.7815742" lon="12.4071357"><ele>403.0</ele><time>2026-04-12T10:04:53.603Z</time></trkpt><trkpt lat="42.7815036" lon="12.4071792"><ele>403.0</ele><time>2026-04-12T10:04:55.596Z</time></trkpt><trkpt lat="42.7814302" lon="12.4072039"><ele>403.00000000000006</ele><time>2026-04-12T10:04:57.59Z</time></trkpt><trkpt lat="42.781357" lon="12.4072255"><ele>403.0</ele><time>2026-04-12T10:04:59.593Z</time></trkpt><trkpt lat="42.781278" lon="12.4072593"><ele>401.6666666666667</ele><time>2026-04-12T10:05:01.602Z</time></trkpt><trkpt lat="42.7812028" lon="12.4072983"><ele>400.33333333333337</ele><time>2026-04-12T10:05:03.592Z</time></trkpt><trkpt lat="42.7811241" lon="12.4073264"><ele>399.0</ele><time>2026-04-12T10:05:05.591Z</time></trkpt><trkpt lat="42.7810294" lon="12.4073471"><ele>397.66666666666663</ele><time>2026-04-12T10:05:08.594Z</time></trkpt><trkpt lat="42.7809622" lon="12.4073659"><ele>396.3333333333333</ele><time>2026-04-12T10:05:10.594Z</time></trkpt><trkpt lat="42.7808726" lon="12.4073708"><ele>395.0</ele><time>2026-04-12T10:05:12.593Z</time></trkpt><trkpt lat="42.7807825" lon="12.4073844"><ele>394.99999999999994</ele><time>2026-04-12T10:05:14.592Z</time></trkpt><trkpt lat="42.7807099" lon="12.4074312"><ele>395.0</ele><time>2026-04-12T10:05:15.602Z</time></trkpt><trkpt lat="42.7806486" lon="12.4074787"><ele>395.0</ele><time>2026-04-12T10:05:16.596Z</time></trkpt><trkpt lat="42.7805636" lon="12.4075786"><ele>395.0</ele><time>2026-04-12T10:05:18.592Z</time></trkpt><trkpt lat="42.7805127" lon="12.4077002"><ele>394.99999999999994</ele><time>2026-04-12T10:05:20.591Z</time></trkpt><trkpt lat="42.7804646" lon="12.4077671"><ele>395.0</ele><time>2026-04-12T10:05:21.588Z</time></trkpt><trkpt lat="42.7804167" lon="12.4079213"><ele>392.8333333333333</ele><time>2026-04-12T10:05:23.588Z</time></trkpt><trkpt lat="42.7803778" lon="12.4079965"><ele>390.66666666666663</ele><time>2026-04-12T10:05:24.587Z</time></trkpt><trkpt lat="42.7803389" lon="12.4080675"><ele>388.5</ele><time>2026-04-12T10:05:25.589Z</time></trkpt><trkpt lat="42.7803013" lon="12.4081408"><ele>386.3333333333333</ele><time>2026-04-12T10:05:26.583Z</time></trkpt><trkpt lat="42.7802618" lon="12.4082101"><ele>384.16666666666663</ele><time>2026-04-12T10:05:27.587Z</time></trkpt><trkpt lat="42.780197" lon="12.4083627"><ele>382.0</ele><time>2026-04-12T10:05:29.588Z</time></trkpt><trkpt lat="42.7801829" lon="12.4084504"><ele>382.0</ele><time>2026-04-12T10:05:30.587Z</time></trkpt><trkpt lat="42.7801207" lon="12.4086023"><ele>382.0</ele><time>2026-04-12T10:05:32.594Z</time></trkpt><trkpt lat="42.7800829" lon="12.4086807"><ele>382.0</ele><time>2026-04-12T10:05:33.589Z</time></trkpt><trkpt lat="42.7800389" lon="12.4087485"><ele>382.0</ele><time>2026-04-12T10:05:34.595Z</time></trkpt><trkpt lat="42.7799693" lon="12.4088857"><ele>382.0</ele><time>2026-04-12T10:05:36.591Z</time></trkpt><trkpt lat="42.7799227" lon="12.4089474"><ele>380.16666666666663</ele><time>2026-04-12T10:05:37.595Z</time></trkpt><trkpt lat="42.7798376" lon="12.4090643"><ele>378.3333333333333</ele><time>2026-04-12T10:05:39.588Z</time></trkpt><trkpt lat="42.7797907" lon="12.4091262"><ele>376.5</ele><time>2026-04-12T10:05:40.591Z</time></trkpt><trkpt lat="42.7797321" lon="12.4091732"><ele>374.6666666666667</ele><time>2026-04-12T10:05:41.597Z</time></trkpt><trkpt lat="42.7796733" lon="12.4092138"><ele>372.83333333333337</ele><time>2026-04-12T10:05:42.595Z</time></trkpt><trkpt lat="42.7796183" lon="12.4092679"><ele>371.0</ele><time>2026-04-12T10:05:43.591Z</time></trkpt><trkpt lat="42.7795721" lon="12.4093298"><ele>371.0</ele><time>2026-04-12T10:05:44.595Z</time></trkpt><trkpt lat="42.7795551" lon="12.4094297"><ele>371.0</ele><time>2026-04-12T10:05:45.594Z</time></trkpt><trkpt lat="42.7795434" lon="12.4095223"><ele>371.0</ele><time>2026-04-12T10:05:46.592Z</time></trkpt><trkpt lat="42.7795295" lon="12.4096163"><ele>371.0</ele><time>2026-04-12T10:05:47.597Z</time></trkpt><trkpt lat="42.7795139" lon="12.4097036"><ele>371.0</ele><time>2026-04-12T10:05:48.596Z</time></trkpt><trkpt lat="42.7794994" lon="12.4098001"><ele>371.0</ele><time>2026-04-12T10:05:49.595Z</time></trkpt><trkpt lat="42.7794877" lon="12.4098973"><ele>371.0</ele><time>2026-04-12T10:05:50.595Z</time></trkpt><trkpt lat="42.7794747" lon="12.4099898"><ele>369.7142857142857</ele><time>2026-04-12T10:05:51.601Z</time></trkpt><trkpt lat="42.779466" lon="12.4100941"><ele>368.42857142857144</ele><time>2026-04-12T10:05:52.591Z</time></trkpt><trkpt lat="42.7794526" lon="12.4101918"><ele>367.1428571428571</ele><time>2026-04-12T10:05:53.595Z</time></trkpt><trkpt lat="42.7794415" lon="12.4102919"><ele>365.8571428571429</ele><time>2026-04-12T10:05:54.59Z</time></trkpt><trkpt lat="42.77943" lon="12.4103886"><ele>364.57142857142856</ele><time>2026-04-12T10:05:55.592Z</time></trkpt><trkpt lat="42.7794209" lon="12.4104822"><ele>363.2857142857143</ele><time>2026-04-12T10:05:56.586Z</time></trkpt><trkpt lat="42.7794148" lon="12.4105806"><ele>362.0</ele><time>2026-04-12T10:05:57.603Z</time></trkpt><trkpt lat="42.7794079" lon="12.4106763"><ele>358.6666666666667</ele><time>2026-04-12T10:05:58.59Z</time></trkpt><trkpt lat="42.7794068" lon="12.4107639"><ele>355.33333333333337</ele><time>2026-04-12T10:05:59.591Z</time></trkpt><trkpt lat="42.7794021" lon="12.4108644"><ele>352.0</ele><time>2026-04-12T10:06:00.599Z</time></trkpt><trkpt lat="42.7793899" lon="12.4109721"><ele>348.6666666666667</ele><time>2026-04-12T10:06:01.591Z</time></trkpt><trkpt lat="42.7793687" lon="12.4110785"><ele>345.3333333333333</ele><time>2026-04-12T10:06:02.589Z</time></trkpt><trkpt lat="42.7793529" lon="12.4111842"><ele>342.0</ele><time>2026-04-12T10:06:03.597Z</time></trkpt><trkpt lat="42.7793395" lon="12.4112953"><ele>341.6666666666667</ele><time>2026-04-12T10:06:04.591Z</time></trkpt><trkpt lat="42.7793277" lon="12.4114017"><ele>341.3333333333333</ele><time>2026-04-12T10:06:05.61Z</time></trkpt><trkpt lat="42.7793135" lon="12.4114976"><ele>341.0</ele><time>2026-04-12T10:06:06.591Z</time></trkpt><trkpt lat="42.779299" lon="12.411592"><ele>340.66666666666663</ele><time>2026-04-12T10:06:07.596Z</time></trkpt><trkpt lat="42.7792825" lon="12.4116908"><ele>340.3333333333333</ele><time>2026-04-12T10:06:08.595Z</time></trkpt><trkpt lat="42.7792672" lon="12.4117939"><ele>340.0</ele><time>2026-04-12T10:06:09.593Z</time></trkpt><trkpt lat="42.7792513" lon="12.4119019"><ele>340.0</ele><time>2026-04-12T10:06:10.59Z</time></trkpt><trkpt lat="42.7792388" lon="12.4120084"><ele>340.0</ele><time>2026-04-12T10:06:11.593Z</time></trkpt><trkpt lat="42.7792282" lon="12.4121195"><ele>340.0</ele><time>2026-04-12T10:06:12.596Z</time></trkpt><trkpt lat="42.7792201" lon="12.4122365"><ele>340.0</ele><time>2026-04-12T10:06:13.592Z</time></trkpt><trkpt lat="42.7792147" lon="12.4123592"><ele>340.0</ele><time>2026-04-12T10:06:14.599Z</time></trkpt><trkpt lat="42.7792122" lon="12.4124783"><ele>340.0</ele><time>2026-04-12T10:06:15.594Z</time></trkpt><trkpt lat="42.7792095" lon="12.4126044"><ele>339.66666666666663</ele><time>2026-04-12T10:06:16.603Z</time></trkpt><trkpt lat="42.7792046" lon="12.4127346"><ele>339.3333333333333</ele><time>2026-04-12T10:06:17.591Z</time></trkpt><trkpt lat="42.7791956" lon="12.4128636"><ele>339.0</ele><time>2026-04-12T10:06:18.594Z</time></trkpt><trkpt lat="42.7791869" lon="12.41298"><ele>338.6666666666667</ele><time>2026-04-12T10:06:19.592Z</time></trkpt><trkpt lat="42.7791794" lon="12.4130904"><ele>338.33333333333337</ele><time>2026-04-12T10:06:20.594Z</time></trkpt><trkpt lat="42.7791708" lon="12.4131984"><ele>338.0</ele><time>2026-04-12T10:06:21.592Z</time></trkpt><trkpt lat="42.7791623" lon="12.4133063"><ele>337.57142857142856</ele><time>2026-04-12T10:06:22.593Z</time></trkpt><trkpt lat="42.7791545" lon="12.413403"><ele>337.1428571428571</ele><time>2026-04-12T10:06:23.588Z</time></trkpt><trkpt lat="42.7791447" lon="12.4134982"><ele>336.71428571428567</ele><time>2026-04-12T10:06:24.599Z</time></trkpt><trkpt lat="42.7791362" lon="12.4135948"><ele>336.2857142857143</ele><time>2026-04-12T10:06:25.596Z</time></trkpt><trkpt lat="42.7791197" lon="12.4136856"><ele>335.85714285714283</ele><time>2026-04-12T10:06:26.591Z</time></trkpt><trkpt lat="42.7791024" lon="12.4137727"><ele>335.4285714285714</ele><time>2026-04-12T10:06:27.594Z</time></trkpt><trkpt lat="42.7790809" lon="12.4138567"><ele>335.0</ele><time>2026-04-12T10:06:28.594Z</time></trkpt><trkpt lat="42.7790455" lon="12.4140091"><ele>334.33333333333337</ele><time>2026-04-12T10:06:30.602Z</time></trkpt><trkpt lat="42.7790181" lon="12.4141295"><ele>333.6666666666667</ele><time>2026-04-12T10:06:32.594Z</time></trkpt><trkpt lat="42.7789891" lon="12.4142239"><ele>333.0</ele><time>2026-04-12T10:06:35.594Z</time></trkpt><trkpt lat="42.7789771" lon="12.4143231"><ele>332.3333333333333</ele><time>2026-04-12T10:07:08.604Z</time></trkpt><trkpt lat="42.7788849" lon="12.414321"><ele>331.66666666666663</ele><time>2026-04-12T10:07:11.588Z</time></trkpt><trkpt lat="42.7788297" lon="12.4142291"><ele>331.0</ele><time>2026-04-12T10:07:13.607Z</time></trkpt><trkpt lat="42.7787736" lon="12.4141625"><ele>331.0</ele><time>2026-04-12T10:07:15.599Z</time></trkpt><trkpt lat="42.7787372" lon="12.4140915"><ele>331.0</ele><time>2026-04-12T10:07:18.603Z</time></trkpt><trkpt lat="42.7786781" lon="12.4140501"><ele>331.0</ele><time>2026-04-12T10:11:12.551Z</time></trkpt><trkpt lat="42.7786186" lon="12.4140165"><ele>331.0</ele><time>2026-04-12T10:11:14.554Z</time></trkpt><trkpt lat="42.7785293" lon="12.4139321"><ele>331.0</ele><time>2026-04-12T10:11:16.538Z</time></trkpt><trkpt lat="42.7784418" lon="12.4138188"><ele>331.0</ele><time>2026-04-12T10:11:18.553Z</time></trkpt><trkpt lat="42.7784116" lon="12.4137417"><ele>330.0</ele><time>2026-04-12T10:11:19.549Z</time></trkpt><trkpt lat="42.7783908" lon="12.4136552"><ele>329.0</ele><time>2026-04-12T10:11:20.558Z</time></trkpt><trkpt lat="42.7783761" lon="12.4135603"><ele>328.0</ele><time>2026-04-12T10:11:21.543Z</time></trkpt><trkpt lat="42.7783707" lon="12.413468"><ele>327.0</ele><time>2026-04-12T10:11:22.56Z</time></trkpt><trkpt lat="42.7783665" lon="12.4133757"><ele>326.0</ele><time>2026-04-12T10:11:23.555Z</time></trkpt><trkpt lat="42.7783698" lon="12.4132644"><ele>325.0</ele><time>2026-04-12T10:11:24.56Z</time></trkpt><trkpt lat="42.7783755" lon="12.4131195"><ele>325.0</ele><time>2026-04-12T10:11:25.559Z</time></trkpt><trkpt lat="42.7783838" lon="12.4129315"><ele>325.0</ele><time>2026-04-12T10:11:26.556Z</time></trkpt><trkpt lat="42.778401" lon="12.4127259"><ele>325.0</ele><time>2026-04-12T10:11:27.567Z</time></trkpt><trkpt lat="42.7784225" lon="12.4125407"><ele>325.0</ele><time>2026-04-12T10:11:28.56Z</time></trkpt><trkpt lat="42.7784414" lon="12.4123688"><ele>325.0</ele><time>2026-04-12T10:11:29.553Z</time></trkpt><trkpt lat="42.7784588" lon="12.4121944"><ele>325.0</ele><time>2026-04-12T10:11:30.591Z</time></trkpt><trkpt lat="42.7784799" lon="12.4120238"><ele>325.0</ele><time>2026-04-12T10:11:31.556Z</time></trkpt><trkpt lat="42.7785021" lon="12.4118483"><ele>325.0</ele><time>2026-04-12T10:11:32.552Z</time></trkpt><trkpt lat="42.7785431" lon="12.4116678"><ele>328.75</ele><time>2026-04-12T10:11:33.563Z</time></trkpt><trkpt lat="42.7785884" lon="12.4114878"><ele>332.5</ele><time>2026-04-12T10:11:34.577Z</time></trkpt><trkpt lat="42.7786338" lon="12.4113125"><ele>336.25</ele><time>2026-04-12T10:11:35.555Z</time></trkpt><trkpt lat="42.7786715" lon="12.4111315"><ele>340.0</ele><time>2026-04-12T10:11:36.556Z</time></trkpt><trkpt lat="42.7786929" lon="12.4109445"><ele>340.5</ele><time>2026-04-12T10:11:37.547Z</time></trkpt><trkpt lat="42.7786945" lon="12.4107507"><ele>341.0</ele><time>2026-04-12T10:11:38.554Z</time></trkpt><trkpt lat="42.7786836" lon="12.4105573"><ele>341.5</ele><time>2026-04-12T10:11:39.566Z</time></trkpt><trkpt lat="42.7786694" lon="12.4103662"><ele>342.0</ele><time>2026-04-12T10:11:40.552Z</time></trkpt><trkpt lat="42.7786506" lon="12.4101803"><ele>342.5</ele><time>2026-04-12T10:11:41.559Z</time></trkpt><trkpt lat="42.7786255" lon="12.4099986"><ele>343.0</ele><time>2026-04-12T10:11:42.564Z</time></trkpt><trkpt lat="42.7785932" lon="12.4098176"><ele>343.5</ele><time>2026-04-12T10:11:43.566Z</time></trkpt><trkpt lat="42.7785592" lon="12.4096455"><ele>344.0</ele><time>2026-04-12T10:11:44.57Z</time></trkpt><trkpt lat="42.7785225" lon="12.4094747"><ele>339.75</ele><time>2026-04-12T10:11:45.555Z</time></trkpt><trkpt lat="42.7784852" lon="12.4093005"><ele>335.5</ele><time>2026-04-12T10:11:46.559Z</time></trkpt><trkpt lat="42.7784473" lon="12.4091238"><ele>331.25</ele><time>2026-04-12T10:11:47.552Z</time></trkpt><trkpt lat="42.7784072" lon="12.4089414"><ele>327.0</ele><time>2026-04-12T10:11:48.563Z</time></trkpt><trkpt lat="42.7783643" lon="12.408757"><ele>327.0</ele><time>2026-04-12T10:11:49.547Z</time></trkpt><trkpt lat="42.7783197" lon="12.4085831"><ele>327.0</ele><time>2026-04-12T10:11:50.565Z</time></trkpt><trkpt lat="42.7782743" lon="12.4084339"><ele>327.0</ele><time>2026-04-12T10:11:51.557Z</time></trkpt><trkpt lat="42.778234" lon="12.4083129"><ele>327.0</ele><time>2026-04-12T10:11:52.555Z</time></trkpt><trkpt lat="42.7782001" lon="12.4082185"><ele>327.0</ele><time>2026-04-12T10:11:53.559Z</time></trkpt><trkpt lat="42.7781587" lon="12.4081106"><ele>328.5</ele><time>2026-04-12T10:11:55.556Z</time></trkpt><trkpt lat="42.7781094" lon="12.4079878"><ele>330.0</ele><time>2026-04-12T10:11:58.562Z</time></trkpt><trkpt lat="42.7780431" lon="12.4078204"><ele>331.5</ele><time>2026-04-12T10:12:00.563Z</time></trkpt><trkpt lat="42.7780064" lon="12.4076917"><ele>333.0</ele><time>2026-04-12T10:12:01.564Z</time></trkpt><trkpt lat="42.7779676" lon="12.4075537"><ele>333.0</ele><time>2026-04-12T10:12:02.551Z</time></trkpt><trkpt lat="42.7779679" lon="12.4073677"><ele>333.0</ele><time>2026-04-12T10:12:03.553Z</time></trkpt><trkpt lat="42.7779819" lon="12.4071627"><ele>333.0</ele><time>2026-04-12T10:12:04.563Z</time></trkpt><trkpt lat="42.7779953" lon="12.4069313"><ele>334.6666666666667</ele><time>2026-04-12T10:12:05.565Z</time></trkpt><trkpt lat="42.7780139" lon="12.4066903"><ele>336.33333333333337</ele><time>2026-04-12T10:12:06.546Z</time></trkpt><trkpt lat="42.7780348" lon="12.4064462"><ele>338.0</ele><time>2026-04-12T10:12:07.555Z</time></trkpt><trkpt lat="42.7780539" lon="12.406188"><ele>339.33333333333337</ele><time>2026-04-12T10:12:08.561Z</time></trkpt><trkpt lat="42.7780758" lon="12.4059415"><ele>340.6666666666667</ele><time>2026-04-12T10:12:09.567Z</time></trkpt><trkpt lat="42.7780982" lon="12.4056898"><ele>342.0</ele><time>2026-04-12T10:12:10.55Z</time></trkpt><trkpt lat="42.7781017" lon="12.405444"><ele>344.0</ele><time>2026-04-12T10:12:11.564Z</time></trkpt><trkpt lat="42.7780809" lon="12.4051942"><ele>346.0</ele><time>2026-04-12T10:12:12.556Z</time></trkpt><trkpt lat="42.7780416" lon="12.4049545"><ele>348.0</ele><time>2026-04-12T10:12:13.562Z</time></trkpt><trkpt lat="42.777991" lon="12.4047231"><ele>349.3333333333333</ele><time>2026-04-12T10:12:14.574Z</time></trkpt><trkpt lat="42.77794" lon="12.4044948"><ele>350.66666666666663</ele><time>2026-04-12T10:12:15.557Z</time></trkpt><trkpt lat="42.777891" lon="12.4042774"><ele>352.0</ele><time>2026-04-12T10:12:16.558Z</time></trkpt><trkpt lat="42.7778637" lon="12.4040802"><ele>352.0</ele><time>2026-04-12T10:12:17.548Z</time></trkpt><trkpt lat="42.7778547" lon="12.403945"><ele>352.0</ele><time>2026-04-12T10:12:18.558Z</time></trkpt><trkpt lat="42.7778548" lon="12.4038583"><ele>352.0</ele><time>2026-04-12T10:12:19.563Z</time></trkpt><trkpt lat="42.7778535" lon="12.4037115"><ele>352.0</ele><time>2026-04-12T10:12:24.554Z</time></trkpt><trkpt lat="42.7778411" lon="12.4035476"><ele>352.0</ele><time>2026-04-12T10:12:26.553Z</time></trkpt><trkpt lat="42.7778305" lon="12.4034258"><ele>352.25</ele><time>2026-04-12T10:12:27.559Z</time></trkpt><trkpt lat="42.7778178" lon="12.4032874"><ele>352.5</ele><time>2026-04-12T10:12:28.559Z</time></trkpt><trkpt lat="42.7778042" lon="12.4031374"><ele>352.75</ele><time>2026-04-12T10:12:29.559Z</time></trkpt><trkpt lat="42.7777898" lon="12.4029757"><ele>353.0</ele><time>2026-04-12T10:12:30.574Z</time></trkpt><trkpt lat="42.7777746" lon="12.4028106"><ele>353.5</ele><time>2026-04-12T10:12:31.554Z</time></trkpt><trkpt lat="42.7777584" lon="12.402639"><ele>354.0</ele><time>2026-04-12T10:12:32.566Z</time></trkpt><trkpt lat="42.777741" lon="12.4024676"><ele>354.5</ele><time>2026-04-12T10:12:33.553Z</time></trkpt><trkpt lat="42.7777267" lon="12.4023053"><ele>355.0</ele><time>2026-04-12T10:12:34.557Z</time></trkpt><trkpt lat="42.7777162" lon="12.4021561"><ele>354.3333333333333</ele><time>2026-04-12T10:12:35.561Z</time></trkpt><trkpt lat="42.7777074" lon="12.4020214"><ele>353.66666666666663</ele><time>2026-04-12T10:12:36.559Z</time></trkpt><trkpt lat="42.7777009" lon="12.4018999"><ele>353.0</ele><time>2026-04-12T10:12:37.553Z</time></trkpt><trkpt lat="42.7777056" lon="12.4017904"><ele>352.3333333333333</ele><time>2026-04-12T10:12:38.569Z</time></trkpt><trkpt lat="42.777732" lon="12.4016919"><ele>351.6666666666667</ele><time>2026-04-12T10:12:39.557Z</time></trkpt><trkpt lat="42.7777823" lon="12.4015845"><ele>351.0</ele><time>2026-04-12T10:12:40.563Z</time></trkpt><trkpt lat="42.777847" lon="12.4014527"><ele>349.25</ele><time>2026-04-12T10:12:41.577Z</time></trkpt><trkpt lat="42.7779066" lon="12.4012902"><ele>347.5</ele><time>2026-04-12T10:12:42.554Z</time></trkpt><trkpt lat="42.77794" lon="12.401094"><ele>345.75</ele><time>2026-04-12T10:12:43.566Z</time></trkpt><trkpt lat="42.777963" lon="12.4008953"><ele>344.0</ele><time>2026-04-12T10:12:44.562Z</time></trkpt><trkpt lat="42.7779523" lon="12.400663"><ele>342.0</ele><time>2026-04-12T10:12:45.551Z</time></trkpt><trkpt lat="42.77796" lon="12.4004391"><ele>340.0</ele><time>2026-04-12T10:12:46.553Z</time></trkpt><trkpt lat="42.7779548" lon="12.4002256"><ele>338.0</ele><time>2026-04-12T10:12:47.541Z</time></trkpt><trkpt lat="42.7779545" lon="12.4000249"><ele>338.0</ele><time>2026-04-12T10:12:48.545Z</time></trkpt><trkpt lat="42.7779569" lon="12.3998268"><ele>338.0</ele><time>2026-04-12T10:12:49.557Z</time></trkpt><trkpt lat="42.7780111" lon="12.3996283"><ele>338.0</ele><time>2026-04-12T10:12:50.543Z</time></trkpt><trkpt lat="42.7780983" lon="12.3994373"><ele>335.0</ele><time>2026-04-12T10:12:51.546Z</time></trkpt><trkpt lat="42.7781907" lon="12.3992519"><ele>332.0</ele><time>2026-04-12T10:12:52.554Z</time></trkpt><trkpt lat="42.7782861" lon="12.3990395"><ele>329.0</ele><time>2026-04-12T10:12:53.563Z</time></trkpt><trkpt lat="42.778387" lon="12.3988165"><ele>329.0</ele><time>2026-04-12T10:12:54.563Z</time></trkpt><trkpt lat="42.7784902" lon="12.3985965"><ele>329.0</ele><time>2026-04-12T10:12:55.57Z</time></trkpt><trkpt lat="42.7786118" lon="12.3983834"><ele>329.0</ele><time>2026-04-12T10:12:56.561Z</time></trkpt><trkpt lat="42.7787216" lon="12.3981751"><ele>324.6666666666667</ele><time>2026-04-12T10:12:57.552Z</time></trkpt><trkpt lat="42.7788444" lon="12.3979708"><ele>320.3333333333333</ele><time>2026-04-12T10:12:58.552Z</time></trkpt><trkpt lat="42.7789819" lon="12.3977777"><ele>316.0</ele><time>2026-04-12T10:12:59.557Z</time></trkpt><trkpt lat="42.7791295" lon="12.3975993"><ele>316.0</ele><time>2026-04-12T10:13:00.559Z</time></trkpt><trkpt lat="42.779277" lon="12.3974366"><ele>316.0</ele><time>2026-04-12T10:13:01.56Z</time></trkpt><trkpt lat="42.7794119" lon="12.3972919"><ele>316.0</ele><time>2026-04-12T10:13:02.544Z</time></trkpt><trkpt lat="42.7795381" lon="12.3971636"><ele>317.25</ele><time>2026-04-12T10:13:03.558Z</time></trkpt><trkpt lat="42.7796473" lon="12.3970422"><ele>318.5</ele><time>2026-04-12T10:13:04.549Z</time></trkpt><trkpt lat="42.7797309" lon="12.3969082"><ele>319.75</ele><time>2026-04-12T10:13:05.55Z</time></trkpt><trkpt lat="42.7797848" lon="12.3967614"><ele>321.0</ele><time>2026-04-12T10:13:06.55Z</time></trkpt><trkpt lat="42.7798052" lon="12.396606"><ele>321.0</ele><time>2026-04-12T10:13:07.536Z</time></trkpt><trkpt lat="42.7797911" lon="12.3964325"><ele>321.0</ele><time>2026-04-12T10:13:08.55Z</time></trkpt><trkpt lat="42.7797555" lon="12.3962386"><ele>321.0</ele><time>2026-04-12T10:13:09.553Z</time></trkpt><trkpt lat="42.7797126" lon="12.3960201"><ele>321.0</ele><time>2026-04-12T10:13:10.563Z</time></trkpt><trkpt lat="42.7796675" lon="12.3957822"><ele>321.0</ele><time>2026-04-12T10:13:11.548Z</time></trkpt><trkpt lat="42.7796243" lon="12.3955321"><ele>321.0</ele><time>2026-04-12T10:13:12.565Z</time></trkpt><trkpt lat="42.7795813" lon="12.3952734"><ele>321.0</ele><time>2026-04-12T10:13:13.562Z</time></trkpt><trkpt lat="42.7795381" lon="12.3950216"><ele>323.0</ele><time>2026-04-12T10:13:14.565Z</time></trkpt><trkpt lat="42.7794934" lon="12.3947683"><ele>325.0</ele><time>2026-04-12T10:13:15.558Z</time></trkpt><trkpt lat="42.7794505" lon="12.3945151"><ele>327.0</ele><time>2026-04-12T10:13:16.562Z</time></trkpt><trkpt lat="42.7794077" lon="12.3942607"><ele>329.3333333333333</ele><time>2026-04-12T10:13:17.561Z</time></trkpt><trkpt lat="42.7793649" lon="12.3940013"><ele>331.66666666666663</ele><time>2026-04-12T10:13:18.567Z</time></trkpt><trkpt lat="42.7793201" lon="12.3937346"><ele>334.0</ele><time>2026-04-12T10:13:19.553Z</time></trkpt><trkpt lat="42.7792749" lon="12.3934611"><ele>324.3333333333333</ele><time>2026-04-12T10:13:20.569Z</time></trkpt><trkpt lat="42.7792293" lon="12.3931803"><ele>314.6666666666667</ele><time>2026-04-12T10:13:21.564Z</time></trkpt><trkpt lat="42.7791845" lon="12.3928934"><ele>305.0</ele><time>2026-04-12T10:13:22.55Z</time></trkpt><trkpt lat="42.7791414" lon="12.3926021"><ele>303.6666666666667</ele><time>2026-04-12T10:13:23.565Z</time></trkpt><trkpt lat="42.7791005" lon="12.3923101"><ele>302.3333333333333</ele><time>2026-04-12T10:13:24.556Z</time></trkpt><trkpt lat="42.7790614" lon="12.3920167"><ele>301.0</ele><time>2026-04-12T10:13:25.561Z</time></trkpt><trkpt lat="42.7790245" lon="12.3917247"><ele>300.0</ele><time>2026-04-12T10:13:26.555Z</time></trkpt><trkpt lat="42.7789863" lon="12.3914593"><ele>299.0</ele><time>2026-04-12T10:13:27.562Z</time></trkpt><trkpt lat="42.7789544" lon="12.3911962"><ele>298.0</ele><time>2026-04-12T10:13:28.565Z</time></trkpt><trkpt lat="42.7789297" lon="12.3909374"><ele>297.3333333333333</ele><time>2026-04-12T10:13:29.553Z</time></trkpt><trkpt lat="42.7788995" lon="12.3906742"><ele>296.6666666666667</ele><time>2026-04-12T10:13:30.55Z</time></trkpt><trkpt lat="42.7788687" lon="12.3904151"><ele>296.0</ele><time>2026-04-12T10:13:31.562Z</time></trkpt><trkpt lat="42.7788311" lon="12.3901582"><ele>295.0</ele><time>2026-04-12T10:13:32.562Z</time></trkpt><trkpt lat="42.7787839" lon="12.3899021"><ele>294.0</ele><time>2026-04-12T10:13:33.561Z</time></trkpt><trkpt lat="42.7787251" lon="12.3896481"><ele>293.0</ele><time>2026-04-12T10:13:34.567Z</time></trkpt><trkpt lat="42.7786611" lon="12.3894075"><ele>290.0</ele><time>2026-04-12T10:13:35.574Z</time></trkpt><trkpt lat="42.7785903" lon="12.3891773"><ele>287.0</ele><time>2026-04-12T10:13:36.572Z</time></trkpt><trkpt lat="42.7785387" lon="12.3889361"><ele>284.0</ele><time>2026-04-12T10:13:37.556Z</time></trkpt><trkpt lat="42.7785232" lon="12.3886742"><ele>283.6666666666667</ele><time>2026-04-12T10:13:38.548Z</time></trkpt><trkpt lat="42.7785372" lon="12.3884075"><ele>283.3333333333333</ele><time>2026-04-12T10:13:39.563Z</time></trkpt><trkpt lat="42.7785625" lon="12.3881403"><ele>283.0</ele><time>2026-04-12T10:13:40.555Z</time></trkpt><trkpt lat="42.7785791" lon="12.3878699"><ele>283.0</ele><time>2026-04-12T10:13:41.571Z</time></trkpt><trkpt lat="42.7785731" lon="12.3875981"><ele>283.0</ele><time>2026-04-12T10:13:42.563Z</time></trkpt><trkpt lat="42.7785437" lon="12.3873323"><ele>283.0</ele><time>2026-04-12T10:13:43.549Z</time></trkpt><trkpt lat="42.7784982" lon="12.3870787"><ele>283.3333333333333</ele><time>2026-04-12T10:13:44.562Z</time></trkpt><trkpt lat="42.778449" lon="12.3868265"><ele>283.6666666666667</ele><time>2026-04-12T10:13:45.546Z</time></trkpt><trkpt lat="42.7784037" lon="12.3865815"><ele>284.0</ele><time>2026-04-12T10:13:46.561Z</time></trkpt><trkpt lat="42.7783599" lon="12.3863448"><ele>283.0</ele><time>2026-04-12T10:13:47.562Z</time></trkpt><trkpt lat="42.7783181" lon="12.3861143"><ele>282.0</ele><time>2026-04-12T10:13:48.561Z</time></trkpt><trkpt lat="42.7782794" lon="12.3859"><ele>281.0</ele><time>2026-04-12T10:13:49.544Z</time></trkpt><trkpt lat="42.7782469" lon="12.3857056"><ele>281.0</ele><time>2026-04-12T10:13:50.554Z</time></trkpt><trkpt lat="42.7782204" lon="12.3855378"><ele>281.0</ele><time>2026-04-12T10:13:51.552Z</time></trkpt><trkpt lat="42.7781967" lon="12.3853977"><ele>281.0</ele><time>2026-04-12T10:13:52.543Z</time></trkpt><trkpt lat="42.7781589" lon="12.3852849"><ele>281.0</ele><time>2026-04-12T10:13:53.555Z</time></trkpt><trkpt lat="42.7780922" lon="12.3852129"><ele>281.0</ele><time>2026-04-12T10:13:54.546Z</time></trkpt><trkpt lat="42.7780065" lon="12.3852105"><ele>280.25</ele><time>2026-04-12T10:13:55.558Z</time></trkpt><trkpt lat="42.7779104" lon="12.3852675"><ele>279.5</ele><time>2026-04-12T10:13:56.555Z</time></trkpt><trkpt lat="42.7777979" lon="12.3853471"><ele>278.75</ele><time>2026-04-12T10:13:57.55Z</time></trkpt><trkpt lat="42.7776713" lon="12.385436"><ele>278.0</ele><time>2026-04-12T10:13:58.554Z</time></trkpt><trkpt lat="42.7775411" lon="12.3855279"><ele>276.8</ele><time>2026-04-12T10:13:59.558Z</time></trkpt><trkpt lat="42.7774212" lon="12.3856136"><ele>275.6</ele><time>2026-04-12T10:14:00.565Z</time></trkpt><trkpt lat="42.7773169" lon="12.3856881"><ele>274.4</ele><time>2026-04-12T10:14:01.561Z</time></trkpt><trkpt lat="42.777221" lon="12.3857518"><ele>273.2</ele><time>2026-04-12T10:14:02.551Z</time></trkpt><trkpt lat="42.7771407" lon="12.385779"><ele>272.0</ele><time>2026-04-12T10:14:03.558Z</time></trkpt><trkpt lat="42.7770589" lon="12.3857815"><ele>272.0</ele><time>2026-04-12T10:14:04.546Z</time></trkpt><trkpt lat="42.7770784" lon="12.3856209"><ele>272.0</ele><time>2026-04-12T10:14:06.548Z</time></trkpt><trkpt lat="42.7771239" lon="12.3855264"><ele>272.0</ele><time>2026-04-12T10:14:07.559Z</time></trkpt><trkpt lat="42.777177" lon="12.3853993"><ele>272.0</ele><time>2026-04-12T10:14:08.567Z</time></trkpt><trkpt lat="42.7772108" lon="12.3852414"><ele>272.0</ele><time>2026-04-12T10:14:09.554Z</time></trkpt><trkpt lat="42.7772337" lon="12.3850723"><ele>271.25</ele><time>2026-04-12T10:14:10.565Z</time></trkpt><trkpt lat="42.7771991" lon="12.3848955"><ele>270.5</ele><time>2026-04-12T10:14:11.535Z</time></trkpt><trkpt lat="42.7771421" lon="12.3847291"><ele>269.75</ele><time>2026-04-12T10:14:12.552Z</time></trkpt><trkpt lat="42.7770746" lon="12.3845686"><ele>269.0</ele><time>2026-04-12T10:14:13.557Z</time></trkpt><trkpt lat="42.7770199" lon="12.3844034"><ele>267.5</ele><time>2026-04-12T10:14:14.551Z</time></trkpt><trkpt lat="42.7769899" lon="12.3842253"><ele>266.0</ele><time>2026-04-12T10:14:15.556Z</time></trkpt><trkpt lat="42.7769884" lon="12.3840496"><ele>264.5</ele><time>2026-04-12T10:14:16.554Z</time></trkpt><trkpt lat="42.7770106" lon="12.3838845"><ele>263.0</ele><time>2026-04-12T10:14:17.555Z</time></trkpt><trkpt lat="42.7770427" lon="12.3837342"><ele>261.0</ele><time>2026-04-12T10:14:18.536Z</time></trkpt><trkpt lat="42.7770776" lon="12.383594"><ele>259.0</ele><time>2026-04-12T10:14:19.549Z</time></trkpt><trkpt lat="42.7771038" lon="12.3834572"><ele>257.0</ele><time>2026-04-12T10:14:20.544Z</time></trkpt><trkpt lat="42.7771043" lon="12.3833252"><ele>255.0</ele><time>2026-04-12T10:14:21.553Z</time></trkpt><trkpt lat="42.7770654" lon="12.3832126"><ele>253.0</ele><time>2026-04-12T10:14:22.554Z</time></trkpt><trkpt lat="42.7769952" lon="12.3831425"><ele>253.0</ele><time>2026-04-12T10:14:23.545Z</time></trkpt><trkpt lat="42.7769088" lon="12.3830906"><ele>253.0</ele><time>2026-04-12T10:14:24.55Z</time></trkpt><trkpt lat="42.7767944" lon="12.3831367"><ele>253.0</ele><time>2026-04-12T10:14:25.556Z</time></trkpt><trkpt lat="42.7766862" lon="12.3832106"><ele>253.0</ele><time>2026-04-12T10:14:26.56Z</time></trkpt><trkpt lat="42.7765705" lon="12.3833073"><ele>252.0</ele><time>2026-04-12T10:14:27.558Z</time></trkpt><trkpt lat="42.7764593" lon="12.3833927"><ele>251.0</ele><time>2026-04-12T10:14:28.558Z</time></trkpt><trkpt lat="42.7763583" lon="12.3834663"><ele>250.0</ele><time>2026-04-12T10:14:29.579Z</time></trkpt><trkpt lat="42.7762582" lon="12.3835227"><ele>249.0</ele><time>2026-04-12T10:14:30.547Z</time></trkpt><trkpt lat="42.776152" lon="12.3835103"><ele>249.0</ele><time>2026-04-12T10:14:31.555Z</time></trkpt><trkpt lat="42.7760548" lon="12.383434"><ele>249.0</ele><time>2026-04-12T10:14:32.547Z</time></trkpt><trkpt lat="42.7759583" lon="12.3833237"><ele>249.0</ele><time>2026-04-12T10:14:33.56Z</time></trkpt><trkpt lat="42.7758573" lon="12.3831969"><ele>249.0</ele><time>2026-04-12T10:14:34.56Z</time></trkpt><trkpt lat="42.7757522" lon="12.3830769"><ele>243.75</ele><time>2026-04-12T10:14:35.555Z</time></trkpt><trkpt lat="42.775637" lon="12.382987"><ele>238.5</ele><time>2026-04-12T10:14:36.556Z</time></trkpt><trkpt lat="42.7755089" lon="12.3829506"><ele>233.25</ele><time>2026-04-12T10:14:37.551Z</time></trkpt><trkpt lat="42.7753698" lon="12.3829447"><ele>228.0</ele><time>2026-04-12T10:14:38.562Z</time></trkpt><trkpt lat="42.7752339" lon="12.382942"><ele>228.2</ele><time>2026-04-12T10:14:39.558Z</time></trkpt><trkpt lat="42.7751041" lon="12.3829269"><ele>228.4</ele><time>2026-04-12T10:14:40.559Z</time></trkpt><trkpt lat="42.7749881" lon="12.3829131"><ele>228.59999999999997</ele><time>2026-04-12T10:14:41.565Z</time></trkpt><trkpt lat="42.7748896" lon="12.3828962"><ele>228.79999999999998</ele><time>2026-04-12T10:14:42.56Z</time></trkpt><trkpt lat="42.7748079" lon="12.3828617"><ele>229.0</ele><time>2026-04-12T10:14:43.553Z</time></trkpt><trkpt lat="42.7747557" lon="12.3827878"><ele>228.99999999999997</ele><time>2026-04-12T10:14:44.548Z</time></trkpt><trkpt lat="42.7747481" lon="12.3826949"><ele>229.0</ele><time>2026-04-12T10:14:45.556Z</time></trkpt><trkpt lat="42.7747871" lon="12.3826264"><ele>229.0</ele><time>2026-04-12T10:14:46.537Z</time></trkpt><trkpt lat="42.7748555" lon="12.3826012"><ele>229.0</ele><time>2026-04-12T10:14:47.55Z</time></trkpt><trkpt lat="42.7749459" lon="12.382599"><ele>228.99999999999997</ele><time>2026-04-12T10:14:48.549Z</time></trkpt><trkpt lat="42.7750531" lon="12.3825851"><ele>229.0</ele><time>2026-04-12T10:14:49.552Z</time></trkpt><trkpt lat="42.7751789" lon="12.3825531"><ele>228.75</ele><time>2026-04-12T10:14:50.549Z</time></trkpt><trkpt lat="42.7753164" lon="12.3825049"><ele>228.5</ele><time>2026-04-12T10:14:51.584Z</time></trkpt><trkpt lat="42.7754587" lon="12.382449"><ele>228.25</ele><time>2026-04-12T10:14:52.561Z</time></trkpt><trkpt lat="42.7755965" lon="12.3824076"><ele>228.0</ele><time>2026-04-12T10:14:53.548Z</time></trkpt><trkpt lat="42.7757318" lon="12.3823559"><ele>228.0</ele><time>2026-04-12T10:14:54.562Z</time></trkpt><trkpt lat="42.7758628" lon="12.3822644"><ele>228.0</ele><time>2026-04-12T10:14:55.55Z</time></trkpt><trkpt lat="42.7759897" lon="12.382149"><ele>228.0</ele><time>2026-04-12T10:14:56.558Z</time></trkpt><trkpt lat="42.776107" lon="12.3820308"><ele>228.0</ele><time>2026-04-12T10:14:57.551Z</time></trkpt><trkpt lat="42.7762273" lon="12.3819159"><ele>225.66666666666669</ele><time>2026-04-12T10:14:58.575Z</time></trkpt><trkpt lat="42.7763653" lon="12.381797"><ele>223.33333333333334</ele><time>2026-04-12T10:14:59.56Z</time></trkpt><trkpt lat="42.7764912" lon="12.3816628"><ele>221.0</ele><time>2026-04-12T10:15:00.564Z</time></trkpt><trkpt lat="42.7765936" lon="12.3815034"><ele>216.66666666666669</ele><time>2026-04-12T10:15:01.559Z</time></trkpt><trkpt lat="42.7766754" lon="12.3813201"><ele>212.33333333333331</ele><time>2026-04-12T10:15:02.56Z</time></trkpt><trkpt lat="42.7767454" lon="12.3811266"><ele>208.0</ele><time>2026-04-12T10:15:03.551Z</time></trkpt><trkpt lat="42.7768138" lon="12.3809389"><ele>210.33333333333331</ele><time>2026-04-12T10:15:04.558Z</time></trkpt><trkpt lat="42.7768695" lon="12.3807496"><ele>212.66666666666669</ele><time>2026-04-12T10:15:05.558Z</time></trkpt><trkpt lat="42.7768939" lon="12.3805494"><ele>215.0</ele><time>2026-04-12T10:15:06.558Z</time></trkpt><trkpt lat="42.7768823" lon="12.3803329"><ele>211.0</ele><time>2026-04-12T10:15:07.557Z</time></trkpt><trkpt lat="42.7768454" lon="12.3801155"><ele>207.0</ele><time>2026-04-12T10:15:08.558Z</time></trkpt><trkpt lat="42.7768004" lon="12.3799013"><ele>203.0</ele><time>2026-04-12T10:15:09.553Z</time></trkpt><trkpt lat="42.7767634" lon="12.3796968"><ele>202.0</ele><time>2026-04-12T10:15:10.563Z</time></trkpt><trkpt lat="42.7767313" lon="12.3795113"><ele>201.0</ele><time>2026-04-12T10:15:11.549Z</time></trkpt><trkpt lat="42.7767031" lon="12.3793451"><ele>200.0</ele><time>2026-04-12T10:15:12.569Z</time></trkpt><trkpt lat="42.7767031" lon="12.379189"><ele>199.0</ele><time>2026-04-12T10:15:13.553Z</time></trkpt><trkpt lat="42.7767545" lon="12.3790459"><ele>197.5</ele><time>2026-04-12T10:15:14.541Z</time></trkpt><trkpt lat="42.7768538" lon="12.3789241"><ele>196.0</ele><time>2026-04-12T10:15:15.544Z</time></trkpt><trkpt lat="42.7769761" lon="12.3788105"><ele>194.5</ele><time>2026-04-12T10:15:16.546Z</time></trkpt><trkpt lat="42.7771108" lon="12.3786819"><ele>193.0</ele><time>2026-04-12T10:15:17.552Z</time></trkpt><trkpt lat="42.7772572" lon="12.3785438"><ele>193.0</ele><time>2026-04-12T10:15:18.589Z</time></trkpt><trkpt lat="42.7774068" lon="12.3784009"><ele>193.0</ele><time>2026-04-12T10:15:19.555Z</time></trkpt><trkpt lat="42.7775551" lon="12.3782617"><ele>193.0</ele><time>2026-04-12T10:15:20.545Z</time></trkpt><trkpt lat="42.7777061" lon="12.3781406"><ele>195.66666666666666</ele><time>2026-04-12T10:15:21.552Z</time></trkpt><trkpt lat="42.7778625" lon="12.3780415"><ele>198.33333333333331</ele><time>2026-04-12T10:15:22.562Z</time></trkpt><trkpt lat="42.7780306" lon="12.3779636"><ele>201.0</ele><time>2026-04-12T10:15:23.549Z</time></trkpt><trkpt lat="42.7782102" lon="12.3778934"><ele>195.33333333333334</ele><time>2026-04-12T10:15:24.552Z</time></trkpt><trkpt lat="42.7783944" lon="12.3778089"><ele>189.66666666666669</ele><time>2026-04-12T10:15:25.558Z</time></trkpt><trkpt lat="42.7785797" lon="12.3777074"><ele>184.0</ele><time>2026-04-12T10:15:26.571Z</time></trkpt><trkpt lat="42.7787581" lon="12.3776026"><ele>184.0</ele><time>2026-04-12T10:15:27.56Z</time></trkpt><trkpt lat="42.7789306" lon="12.3774978"><ele>184.0</ele><time>2026-04-12T10:15:28.564Z</time></trkpt><trkpt lat="42.779098" lon="12.3773911"><ele>184.0</ele><time>2026-04-12T10:15:29.548Z</time></trkpt><trkpt lat="42.7792565" lon="12.3772794"><ele>180.0</ele><time>2026-04-12T10:15:30.543Z</time></trkpt><trkpt lat="42.7794042" lon="12.3771662"><ele>176.0</ele><time>2026-04-12T10:15:31.541Z</time></trkpt><trkpt lat="42.7795446" lon="12.3770599"><ele>172.0</ele><time>2026-04-12T10:15:32.552Z</time></trkpt><trkpt lat="42.7796796" lon="12.3769719"><ele>172.0</ele><time>2026-04-12T10:15:33.556Z</time></trkpt><trkpt lat="42.7798155" lon="12.376911"><ele>172.0</ele><time>2026-04-12T10:15:34.554Z</time></trkpt><trkpt lat="42.779951" lon="12.3768956"><ele>172.0</ele><time>2026-04-12T10:15:35.549Z</time></trkpt><trkpt lat="42.7800659" lon="12.3769421"><ele>172.0</ele><time>2026-04-12T10:15:36.544Z</time></trkpt><trkpt lat="42.7801561" lon="12.3769993"><ele>175.0</ele><time>2026-04-12T10:15:37.555Z</time></trkpt><trkpt lat="42.7802445" lon="12.3770523"><ele>178.0</ele><time>2026-04-12T10:15:38.557Z</time></trkpt><trkpt lat="42.7803146" lon="12.3770005"><ele>181.0</ele><time>2026-04-12T10:15:39.549Z</time></trkpt><trkpt lat="42.780378" lon="12.3769574"><ele>184.0</ele><time>2026-04-12T10:15:40.548Z</time></trkpt><trkpt lat="42.7803704" lon="12.3768276"><ele>187.0</ele><time>2026-04-12T10:15:41.545Z</time></trkpt><trkpt lat="42.7803405" lon="12.3766762"><ele>187.0</ele><time>2026-04-12T10:15:42.531Z</time></trkpt><trkpt lat="42.7802541" lon="12.3765335"><ele>187.0</ele><time>2026-04-12T10:15:43.546Z</time></trkpt><trkpt lat="42.7801505" lon="12.3764167"><ele>187.0</ele><time>2026-04-12T10:15:44.551Z</time></trkpt><trkpt lat="42.7800496" lon="12.3763174"><ele>187.0</ele><time>2026-04-12T10:15:45.547Z</time></trkpt><trkpt lat="42.7799688" lon="12.3762084"><ele>182.2</ele><time>2026-04-12T10:15:46.561Z</time></trkpt><trkpt lat="42.7799186" lon="12.3760768"><ele>177.39999999999998</ele><time>2026-04-12T10:15:47.549Z</time></trkpt><trkpt lat="42.7799249" lon="12.3759545"><ele>172.60000000000002</ele><time>2026-04-12T10:15:48.548Z</time></trkpt><trkpt lat="42.7799787" lon="12.3758505"><ele>167.8</ele><time>2026-04-12T10:15:49.55Z</time></trkpt><trkpt lat="42.7800579" lon="12.3757657"><ele>163.0</ele><time>2026-04-12T10:15:50.561Z</time></trkpt><trkpt lat="42.7801525" lon="12.3756928"><ele>163.4</ele><time>2026-04-12T10:15:51.549Z</time></trkpt><trkpt lat="42.7802441" lon="12.3756221"><ele>163.8</ele><time>2026-04-12T10:15:52.565Z</time></trkpt><trkpt lat="42.7803098" lon="12.3755302"><ele>164.2</ele><time>2026-04-12T10:15:53.554Z</time></trkpt><trkpt lat="42.7803772" lon="12.3754228"><ele>164.6</ele><time>2026-04-12T10:15:54.551Z</time></trkpt><trkpt lat="42.7803969" lon="12.3752893"><ele>165.0</ele><time>2026-04-12T10:15:55.55Z</time></trkpt><trkpt lat="42.7804175" lon="12.3751478"><ele>165.0</ele><time>2026-04-12T10:15:56.551Z</time></trkpt><trkpt lat="42.7804429" lon="12.3750529"><ele>165.0</ele><time>2026-04-12T10:15:57.553Z</time></trkpt><trkpt lat="42.7805117" lon="12.3749525"><ele>165.0</ele><time>2026-04-12T10:15:58.554Z</time></trkpt><trkpt lat="42.7805861" lon="12.3748774"><ele>165.0</ele><time>2026-04-12T10:15:59.563Z</time></trkpt><trkpt lat="42.7806529" lon="12.3748117"><ele>165.0</ele><time>2026-04-12T10:16:00.553Z</time></trkpt><trkpt lat="42.7806953" lon="12.3747326"><ele>165.0</ele><time>2026-04-12T10:16:01.546Z</time></trkpt><trkpt lat="42.7807305" lon="12.3746593"><ele>161.0</ele><time>2026-04-12T10:16:02.56Z</time></trkpt><trkpt lat="42.7807007" lon="12.3745347"><ele>157.0</ele><time>2026-04-12T10:16:03.556Z</time></trkpt><trkpt lat="42.7806621" lon="12.3744324"><ele>153.0</ele><time>2026-04-12T10:16:04.549Z</time></trkpt><trkpt lat="42.7806176" lon="12.3743141"><ele>149.0</ele><time>2026-04-12T10:16:05.553Z</time></trkpt><trkpt lat="42.7805672" lon="12.3741895"><ele>145.0</ele><time>2026-04-12T10:16:06.559Z</time></trkpt><trkpt lat="42.7805154" lon="12.3740611"><ele>145.0</ele><time>2026-04-12T10:16:07.565Z</time></trkpt><trkpt lat="42.7804543" lon="12.3739288"><ele>145.0</ele><time>2026-04-12T10:16:08.567Z</time></trkpt><trkpt lat="42.7804041" lon="12.3737891"><ele>145.0</ele><time>2026-04-12T10:16:09.553Z</time></trkpt><trkpt lat="42.7803537" lon="12.3736531"><ele>145.0</ele><time>2026-04-12T10:16:10.553Z</time></trkpt><trkpt lat="42.7802951" lon="12.3735163"><ele>144.75</ele><time>2026-04-12T10:16:11.561Z</time></trkpt><trkpt lat="42.7802356" lon="12.3733735"><ele>144.5</ele><time>2026-04-12T10:16:12.554Z</time></trkpt><trkpt lat="42.7801785" lon="12.3732233"><ele>144.25</ele><time>2026-04-12T10:16:13.552Z</time></trkpt><trkpt lat="42.7801196" lon="12.3730731"><ele>144.0</ele><time>2026-04-12T10:16:14.547Z</time></trkpt><trkpt lat="42.7800638" lon="12.3729297"><ele>144.5</ele><time>2026-04-12T10:16:15.547Z</time></trkpt><trkpt lat="42.780018" lon="12.3728002"><ele>145.0</ele><time>2026-04-12T10:16:16.554Z</time></trkpt><trkpt lat="42.7799834" lon="12.3726947"><ele>145.5</ele><time>2026-04-12T10:16:17.564Z</time></trkpt><trkpt lat="42.7799621" lon="12.3726133"><ele>146.0</ele><time>2026-04-12T10:16:18.559Z</time></trkpt><trkpt lat="42.7799462" lon="12.3725"><ele>146.5</ele><time>2026-04-12T10:16:20.567Z</time></trkpt><trkpt lat="42.7799405" lon="12.3724042"><ele>147.0</ele><time>2026-04-12T10:16:23.559Z</time></trkpt><trkpt lat="42.7798831" lon="12.3722793"><ele>147.0</ele><time>2026-04-12T10:16:39.555Z</time></trkpt><trkpt lat="42.7797791" lon="12.3722613"><ele>147.0</ele><time>2026-04-12T10:16:41.548Z</time></trkpt><trkpt lat="42.7796951" lon="12.3722943"><ele>147.0</ele><time>2026-04-12T10:16:42.54Z</time></trkpt><trkpt lat="42.779595" lon="12.372337"><ele>147.0</ele><time>2026-04-12T10:16:43.549Z</time></trkpt><trkpt lat="42.7794754" lon="12.3723838"><ele>147.0</ele><time>2026-04-12T10:16:44.558Z</time></trkpt><trkpt lat="42.7793475" lon="12.3724357"><ele>148.25</ele><time>2026-04-12T10:16:45.546Z</time></trkpt><trkpt lat="42.7792163" lon="12.3724896"><ele>149.5</ele><time>2026-04-12T10:16:46.559Z</time></trkpt><trkpt lat="42.7790936" lon="12.3725404"><ele>150.75</ele><time>2026-04-12T10:16:47.557Z</time></trkpt><trkpt lat="42.7789698" lon="12.3725904"><ele>152.0</ele><time>2026-04-12T10:16:48.551Z</time></trkpt><trkpt lat="42.7788386" lon="12.3726428"><ele>152.0</ele><time>2026-04-12T10:16:49.556Z</time></trkpt><trkpt lat="42.7786989" lon="12.372699"><ele>152.0</ele><time>2026-04-12T10:16:50.564Z</time></trkpt><trkpt lat="42.7785463" lon="12.3727633"><ele>152.0</ele><time>2026-04-12T10:16:51.549Z</time></trkpt><trkpt lat="42.7783787" lon="12.3728354"><ele>152.0</ele><time>2026-04-12T10:16:52.555Z</time></trkpt><trkpt lat="42.7781972" lon="12.3729115"><ele>152.0</ele><time>2026-04-12T10:16:53.555Z</time></trkpt><trkpt lat="42.7780071" lon="12.3729872"><ele>152.0</ele><time>2026-04-12T10:16:54.562Z</time></trkpt><trkpt lat="42.7778023" lon="12.3730544"><ele>149.66666666666666</ele><time>2026-04-12T10:16:55.555Z</time></trkpt><trkpt lat="42.777585" lon="12.3730936"><ele>147.33333333333334</ele><time>2026-04-12T10:16:56.554Z</time></trkpt><trkpt lat="42.7773653" lon="12.3730945"><ele>145.0</ele><time>2026-04-12T10:16:57.563Z</time></trkpt><trkpt lat="42.7771605" lon="12.3730549"><ele>147.0</ele><time>2026-04-12T10:16:58.555Z</time></trkpt><trkpt lat="42.7769744" lon="12.372992"><ele>149.0</ele><time>2026-04-12T10:16:59.558Z</time></trkpt><trkpt lat="42.7768289" lon="12.3729315"><ele>151.0</ele><time>2026-04-12T10:17:00.535Z</time></trkpt><trkpt lat="42.7767284" lon="12.3728819"><ele>151.0</ele><time>2026-04-12T10:17:01.568Z</time></trkpt><trkpt lat="42.7766668" lon="12.3728423"><ele>151.0</ele><time>2026-04-12T10:17:02.559Z</time></trkpt><trkpt lat="42.7766102" lon="12.3727946"><ele>151.0</ele><time>2026-04-12T10:17:04.557Z</time></trkpt><trkpt lat="42.7765792" lon="12.372717"><ele>151.0</ele><time>2026-04-12T10:17:07.553Z</time></trkpt><trkpt lat="42.7766194" lon="12.3726405"><ele>151.0</ele><time>2026-04-12T10:17:09.554Z</time></trkpt><trkpt lat="42.7766683" lon="12.3724738"><ele>151.0</ele><time>2026-04-12T10:17:11.566Z</time></trkpt><trkpt lat="42.7766876" lon="12.3723448"><ele>151.0</ele><time>2026-04-12T10:17:12.561Z</time></trkpt><trkpt lat="42.7767231" lon="12.372204"><ele>151.0</ele><time>2026-04-12T10:17:13.546Z</time></trkpt><trkpt lat="42.7767815" lon="12.3720568"><ele>151.0</ele><time>2026-04-12T10:17:14.543Z</time></trkpt><trkpt lat="42.7768643" lon="12.3719273"><ele>151.0</ele><time>2026-04-12T10:17:15.556Z</time></trkpt><trkpt lat="42.7769717" lon="12.3718381"><ele>152.5</ele><time>2026-04-12T10:17:16.541Z</time></trkpt><trkpt lat="42.7770877" lon="12.3717851"><ele>154.0</ele><time>2026-04-12T10:17:17.545Z</time></trkpt><trkpt lat="42.777197" lon="12.3717198"><ele>155.5</ele><time>2026-04-12T10:17:18.544Z</time></trkpt><trkpt lat="42.7772908" lon="12.3716181"><ele>157.0</ele><time>2026-04-12T10:17:19.555Z</time></trkpt><trkpt lat="42.777357" lon="12.3714824"><ele>159.0</ele><time>2026-04-12T10:17:20.547Z</time></trkpt><trkpt lat="42.777388" lon="12.3713189"><ele>161.0</ele><time>2026-04-12T10:17:21.547Z</time></trkpt><trkpt lat="42.7773805" lon="12.3711413"><ele>163.0</ele><time>2026-04-12T10:17:22.539Z</time></trkpt><trkpt lat="42.7773441" lon="12.3709636"><ele>165.0</ele><time>2026-04-12T10:17:23.546Z</time></trkpt><trkpt lat="42.7772996" lon="12.3707846"><ele>165.0</ele><time>2026-04-12T10:17:24.555Z</time></trkpt><trkpt lat="42.7772535" lon="12.3705993"><ele>165.0</ele><time>2026-04-12T10:17:25.553Z</time></trkpt><trkpt lat="42.7772043" lon="12.3704019"><ele>165.0</ele><time>2026-04-12T10:17:26.557Z</time></trkpt><trkpt lat="42.7771515" lon="12.3701934"><ele>167.33333333333334</ele><time>2026-04-12T10:17:27.548Z</time></trkpt><trkpt lat="42.7770946" lon="12.3699759"><ele>169.66666666666669</ele><time>2026-04-12T10:17:28.56Z</time></trkpt><trkpt lat="42.777035" lon="12.3697545"><ele>172.0</ele><time>2026-04-12T10:17:29.548Z</time></trkpt><trkpt lat="42.776969" lon="12.3695346"><ele>172.66666666666669</ele><time>2026-04-12T10:17:30.529Z</time></trkpt><trkpt lat="42.7768868" lon="12.3693218"><ele>173.33333333333334</ele><time>2026-04-12T10:17:31.57Z</time></trkpt><trkpt lat="42.7767821" lon="12.369124"><ele>174.0</ele><time>2026-04-12T10:17:32.563Z</time></trkpt><trkpt lat="42.7766591" lon="12.3689396"><ele>175.66666666666666</ele><time>2026-04-12T10:17:33.568Z</time></trkpt><trkpt lat="42.7765307" lon="12.3687628"><ele>177.33333333333331</ele><time>2026-04-12T10:17:34.566Z</time></trkpt><trkpt lat="42.7763991" lon="12.3685829"><ele>179.0</ele><time>2026-04-12T10:17:35.557Z</time></trkpt><trkpt lat="42.7762652" lon="12.3684002"><ele>179.0</ele><time>2026-04-12T10:17:36.559Z</time></trkpt><trkpt lat="42.7761299" lon="12.3682175"><ele>179.0</ele><time>2026-04-12T10:17:37.557Z</time></trkpt><trkpt lat="42.7760025" lon="12.3680434"><ele>179.0</ele><time>2026-04-12T10:17:38.565Z</time></trkpt><trkpt lat="42.7758821" lon="12.3678892"><ele>180.0</ele><time>2026-04-12T10:17:39.555Z</time></trkpt><trkpt lat="42.775778" lon="12.3677477"><ele>181.0</ele><time>2026-04-12T10:17:40.563Z</time></trkpt><trkpt lat="42.775711" lon="12.3676015"><ele>182.0</ele><time>2026-04-12T10:17:41.557Z</time></trkpt><trkpt lat="42.7756987" lon="12.3674431"><ele>183.0</ele><time>2026-04-12T10:17:42.567Z</time></trkpt><trkpt lat="42.7757409" lon="12.367273"><ele>184.33333333333334</ele><time>2026-04-12T10:17:43.556Z</time></trkpt><trkpt lat="42.7757933" lon="12.367077"><ele>185.66666666666669</ele><time>2026-04-12T10:17:44.552Z</time></trkpt><trkpt lat="42.7758103" lon="12.3668419"><ele>187.0</ele><time>2026-04-12T10:17:45.549Z</time></trkpt><trkpt lat="42.7757936" lon="12.3665986"><ele>187.0</ele><time>2026-04-12T10:17:46.555Z</time></trkpt><trkpt lat="42.7757636" lon="12.3663748"><ele>187.0</ele><time>2026-04-12T10:17:47.547Z</time></trkpt><trkpt lat="42.7757223" lon="12.3661743"><ele>187.0</ele><time>2026-04-12T10:17:48.533Z</time></trkpt><trkpt lat="42.775658" lon="12.366002"><ele>189.25</ele><time>2026-04-12T10:17:49.548Z</time></trkpt><trkpt lat="42.7755621" lon="12.3658641"><ele>191.5</ele><time>2026-04-12T10:17:50.539Z</time></trkpt><trkpt lat="42.7754452" lon="12.3657748"><ele>193.75</ele><time>2026-04-12T10:17:51.544Z</time></trkpt><trkpt lat="42.7753301" lon="12.3657262"><ele>196.0</ele><time>2026-04-12T10:17:52.541Z</time></trkpt><trkpt lat="42.7752338" lon="12.3656674"><ele>195.99999999999997</ele><time>2026-04-12T10:17:53.546Z</time></trkpt><trkpt lat="42.7751743" lon="12.3655782"><ele>196.0</ele><time>2026-04-12T10:17:54.547Z</time></trkpt><trkpt lat="42.7751677" lon="12.3654769"><ele>196.0</ele><time>2026-04-12T10:17:55.553Z</time></trkpt><trkpt lat="42.7752026" lon="12.3654007"><ele>196.0</ele><time>2026-04-12T10:17:56.554Z</time></trkpt><trkpt lat="42.7752627" lon="12.3653667"><ele>195.99999999999997</ele><time>2026-04-12T10:17:57.541Z</time></trkpt><trkpt lat="42.775341" lon="12.3653769"><ele>196.0</ele><time>2026-04-12T10:17:58.554Z</time></trkpt><trkpt lat="42.7754398" lon="12.3654245"><ele>196.0</ele><time>2026-04-12T10:17:59.539Z</time></trkpt><trkpt lat="42.7755518" lon="12.3655028"><ele>196.0</ele><time>2026-04-12T10:18:00.549Z</time></trkpt><trkpt lat="42.7756711" lon="12.3656123"><ele>196.0</ele><time>2026-04-12T10:18:01.552Z</time></trkpt><trkpt lat="42.7757804" lon="12.3657272"><ele>196.0</ele><time>2026-04-12T10:18:02.563Z</time></trkpt><trkpt lat="42.7758801" lon="12.3658549"><ele>196.0</ele><time>2026-04-12T10:18:03.559Z</time></trkpt><trkpt lat="42.7759795" lon="12.3660009"><ele>196.0</ele><time>2026-04-12T10:18:04.552Z</time></trkpt><trkpt lat="42.7760879" lon="12.3661478"><ele>196.0</ele><time>2026-04-12T10:18:05.56Z</time></trkpt><trkpt lat="42.7762136" lon="12.366281"><ele>196.0</ele><time>2026-04-12T10:18:06.566Z</time></trkpt><trkpt lat="42.7763668" lon="12.3663672"><ele>196.0</ele><time>2026-04-12T10:18:07.551Z</time></trkpt><trkpt lat="42.7765341" lon="12.3664078"><ele>196.0</ele><time>2026-04-12T10:18:08.549Z</time></trkpt><trkpt lat="42.7766847" lon="12.3663514"><ele>198.25</ele><time>2026-04-12T10:18:09.552Z</time></trkpt><trkpt lat="42.7768353" lon="12.3662809"><ele>200.5</ele><time>2026-04-12T10:18:10.563Z</time></trkpt><trkpt lat="42.7769708" lon="12.3662062"><ele>202.75</ele><time>2026-04-12T10:18:11.554Z</time></trkpt><trkpt lat="42.7770993" lon="12.3661302"><ele>205.0</ele><time>2026-04-12T10:18:12.568Z</time></trkpt><trkpt lat="42.7772188" lon="12.3660609"><ele>205.5</ele><time>2026-04-12T10:18:13.55Z</time></trkpt><trkpt lat="42.7773449" lon="12.3659875"><ele>206.0</ele><time>2026-04-12T10:18:14.559Z</time></trkpt><trkpt lat="42.7774775" lon="12.3659188"><ele>206.5</ele><time>2026-04-12T10:18:15.552Z</time></trkpt><trkpt lat="42.7776159" lon="12.3658653"><ele>207.0</ele><time>2026-04-12T10:18:16.566Z</time></trkpt><trkpt lat="42.7777558" lon="12.3658498"><ele>207.5</ele><time>2026-04-12T10:18:17.555Z</time></trkpt><trkpt lat="42.7778894" lon="12.3658614"><ele>208.0</ele><time>2026-04-12T10:18:18.566Z</time></trkpt><trkpt lat="42.7780223" lon="12.3658858"><ele>208.5</ele><time>2026-04-12T10:18:19.555Z</time></trkpt><trkpt lat="42.7781679" lon="12.3659173"><ele>209.0</ele><time>2026-04-12T10:18:20.56Z</time></trkpt><trkpt lat="42.7783238" lon="12.3659531"><ele>209.0</ele><time>2026-04-12T10:18:21.556Z</time></trkpt><trkpt lat="42.7784845" lon="12.3659807"><ele>209.0</ele><time>2026-04-12T10:18:22.561Z</time></trkpt><trkpt lat="42.7786363" lon="12.365986"><ele>209.0</ele><time>2026-04-12T10:18:23.551Z</time></trkpt><trkpt lat="42.7787638" lon="12.365974"><ele>209.0</ele><time>2026-04-12T10:18:24.552Z</time></trkpt><trkpt lat="42.7788678" lon="12.3659538"><ele>209.00000000000003</ele><time>2026-04-12T10:18:25.564Z</time></trkpt><trkpt lat="42.7789518" lon="12.3659333"><ele>209.0</ele><time>2026-04-12T10:18:26.557Z</time></trkpt><trkpt lat="42.7790165" lon="12.3659125"><ele>209.0</ele><time>2026-04-12T10:18:27.549Z</time></trkpt><trkpt lat="42.7790932" lon="12.3658714"><ele>209.0</ele><time>2026-04-12T10:18:29.577Z</time></trkpt><trkpt lat="42.7791863" lon="12.3657744"><ele>209.00000000000003</ele><time>2026-04-12T10:18:55.557Z</time></trkpt><trkpt lat="42.779221" lon="12.3656965"><ele>209.0</ele><time>2026-04-12T10:18:56.555Z</time></trkpt><trkpt lat="42.7792606" lon="12.3655833"><ele>209.75</ele><time>2026-04-12T10:18:57.568Z</time></trkpt><trkpt lat="42.7793023" lon="12.3654456"><ele>210.5</ele><time>2026-04-12T10:18:58.563Z</time></trkpt><trkpt lat="42.7793439" lon="12.36529"><ele>211.25</ele><time>2026-04-12T10:18:59.574Z</time></trkpt><trkpt lat="42.7793862" lon="12.3651393"><ele>212.0</ele><time>2026-04-12T10:19:00.543Z</time></trkpt><trkpt lat="42.7794417" lon="12.3649995"><ele>212.0</ele><time>2026-04-12T10:19:01.563Z</time></trkpt><trkpt lat="42.7795228" lon="12.3648793"><ele>212.0</ele><time>2026-04-12T10:19:02.561Z</time></trkpt><trkpt lat="42.7796251" lon="12.3647877"><ele>212.0</ele><time>2026-04-12T10:19:03.549Z</time></trkpt><trkpt lat="42.7797403" lon="12.3647264"><ele>212.0</ele><time>2026-04-12T10:19:04.536Z</time></trkpt><trkpt lat="42.7798576" lon="12.3646898"><ele>213.75</ele><time>2026-04-12T10:19:05.545Z</time></trkpt><trkpt lat="42.779973" lon="12.3646602"><ele>215.5</ele><time>2026-04-12T10:19:06.553Z</time></trkpt><trkpt lat="42.780089" lon="12.3646314"><ele>217.25</ele><time>2026-04-12T10:19:07.545Z</time></trkpt><trkpt lat="42.780204" lon="12.3646021"><ele>219.0</ele><time>2026-04-12T10:19:08.561Z</time></trkpt><trkpt lat="42.7803174" lon="12.3645722"><ele>219.0</ele><time>2026-04-12T10:19:09.568Z</time></trkpt><trkpt lat="42.780414" lon="12.3645235"><ele>219.0</ele><time>2026-04-12T10:19:10.554Z</time></trkpt><trkpt lat="42.7804781" lon="12.3644405"><ele>219.0</ele><time>2026-04-12T10:19:11.555Z</time></trkpt><trkpt lat="42.7804977" lon="12.3643378"><ele>219.0</ele><time>2026-04-12T10:19:12.555Z</time></trkpt><trkpt lat="42.7804698" lon="12.3642373"><ele>219.0</ele><time>2026-04-12T10:19:13.55Z</time></trkpt><trkpt lat="42.7803975" lon="12.36418"><ele>219.0</ele><time>2026-04-12T10:19:14.539Z</time></trkpt><trkpt lat="42.780293" lon="12.3641744"><ele>220.75</ele><time>2026-04-12T10:19:15.54Z</time></trkpt><trkpt lat="42.7801777" lon="12.3641977"><ele>222.5</ele><time>2026-04-12T10:19:16.554Z</time></trkpt><trkpt lat="42.7800542" lon="12.3642273"><ele>224.25</ele><time>2026-04-12T10:19:17.539Z</time></trkpt><trkpt lat="42.7799168" lon="12.364261"><ele>226.0</ele><time>2026-04-12T10:19:18.566Z</time></trkpt><trkpt lat="42.7797666" lon="12.3643"><ele>226.0</ele><time>2026-04-12T10:19:19.558Z</time></trkpt><trkpt lat="42.7796004" lon="12.364339"><ele>226.0</ele><time>2026-04-12T10:19:20.546Z</time></trkpt><trkpt lat="42.7794219" lon="12.3643691"><ele>226.0</ele><time>2026-04-12T10:19:21.559Z</time></trkpt><trkpt lat="42.7792382" lon="12.364385"><ele>226.66666666666666</ele><time>2026-04-12T10:19:22.569Z</time></trkpt><trkpt lat="42.7790521" lon="12.3643706"><ele>227.33333333333331</ele><time>2026-04-12T10:19:23.551Z</time></trkpt><trkpt lat="42.7788604" lon="12.3643365"><ele>228.0</ele><time>2026-04-12T10:19:24.547Z</time></trkpt><trkpt lat="42.7786727" lon="12.3642331"><ele>228.0</ele><time>2026-04-12T10:19:25.555Z</time></trkpt><trkpt lat="42.778479" lon="12.3641373"><ele>228.0</ele><time>2026-04-12T10:19:26.558Z</time></trkpt><trkpt lat="42.7782878" lon="12.3640489"><ele>228.0</ele><time>2026-04-12T10:19:27.558Z</time></trkpt><trkpt lat="42.7781194" lon="12.3639467"><ele>231.33333333333331</ele><time>2026-04-12T10:19:28.569Z</time></trkpt><trkpt lat="42.7779653" lon="12.3638112"><ele>234.66666666666666</ele><time>2026-04-12T10:19:29.552Z</time></trkpt><trkpt lat="42.7778256" lon="12.3636238"><ele>238.0</ele><time>2026-04-12T10:19:30.554Z</time></trkpt><trkpt lat="42.777693" lon="12.3634054"><ele>238.33333333333331</ele><time>2026-04-12T10:19:31.544Z</time></trkpt><trkpt lat="42.7775564" lon="12.3631746"><ele>238.66666666666669</ele><time>2026-04-12T10:19:32.559Z</time></trkpt><trkpt lat="42.7774141" lon="12.3629457"><ele>239.0</ele><time>2026-04-12T10:19:33.57Z</time></trkpt><trkpt lat="42.7772819" lon="12.3627305"><ele>239.0</ele><time>2026-04-12T10:19:34.56Z</time></trkpt><trkpt lat="42.7771682" lon="12.362518"><ele>239.0</ele><time>2026-04-12T10:19:35.564Z</time></trkpt><trkpt lat="42.7770893" lon="12.3622767"><ele>239.0</ele><time>2026-04-12T10:19:36.549Z</time></trkpt><trkpt lat="42.777038" lon="12.3620099"><ele>240.33333333333334</ele><time>2026-04-12T10:19:37.549Z</time></trkpt><trkpt lat="42.7769964" lon="12.3617568"><ele>241.66666666666669</ele><time>2026-04-12T10:19:38.554Z</time></trkpt><trkpt lat="42.7769832" lon="12.3615292"><ele>243.0</ele><time>2026-04-12T10:19:39.554Z</time></trkpt><trkpt lat="42.7770161" lon="12.3613223"><ele>243.0</ele><time>2026-04-12T10:19:40.553Z</time></trkpt><trkpt lat="42.7771061" lon="12.3611373"><ele>243.0</ele><time>2026-04-12T10:19:41.547Z</time></trkpt><trkpt lat="42.7772358" lon="12.3609709"><ele>243.0</ele><time>2026-04-12T10:19:42.558Z</time></trkpt><trkpt lat="42.7773785" lon="12.360795"><ele>243.0</ele><time>2026-04-12T10:19:43.559Z</time></trkpt><trkpt lat="42.7775064" lon="12.3605864"><ele>243.0</ele><time>2026-04-12T10:19:44.567Z</time></trkpt><trkpt lat="42.777604" lon="12.3603376"><ele>243.0</ele><time>2026-04-12T10:19:45.567Z</time></trkpt><trkpt lat="42.7776813" lon="12.3600658"><ele>246.66666666666669</ele><time>2026-04-12T10:19:46.551Z</time></trkpt><trkpt lat="42.7777491" lon="12.3597831"><ele>250.33333333333334</ele><time>2026-04-12T10:19:47.556Z</time></trkpt><trkpt lat="42.7778058" lon="12.3595135"><ele>254.0</ele><time>2026-04-12T10:19:48.558Z</time></trkpt><trkpt lat="42.7778714" lon="12.359271"><ele>254.0</ele><time>2026-04-12T10:19:49.556Z</time></trkpt><trkpt lat="42.7779642" lon="12.3590653"><ele>254.0</ele><time>2026-04-12T10:19:50.555Z</time></trkpt><trkpt lat="42.7780919" lon="12.3589129"><ele>254.0</ele><time>2026-04-12T10:19:51.54Z</time></trkpt><trkpt lat="42.778251" lon="12.3587959"><ele>252.0</ele><time>2026-04-12T10:19:52.565Z</time></trkpt><trkpt lat="42.7784265" lon="12.3586791"><ele>250.0</ele><time>2026-04-12T10:19:53.552Z</time></trkpt><trkpt lat="42.7786116" lon="12.3585531"><ele>248.0</ele><time>2026-04-12T10:19:54.562Z</time></trkpt><trkpt lat="42.7787984" lon="12.3584112"><ele>251.33333333333334</ele><time>2026-04-12T10:19:55.569Z</time></trkpt><trkpt lat="42.7789751" lon="12.3582337"><ele>254.66666666666669</ele><time>2026-04-12T10:19:56.558Z</time></trkpt><trkpt lat="42.7791264" lon="12.3580398"><ele>258.0</ele><time>2026-04-12T10:19:57.546Z</time></trkpt><trkpt lat="42.7792638" lon="12.3578564"><ele>260.75</ele><time>2026-04-12T10:19:58.556Z</time></trkpt><trkpt lat="42.7793852" lon="12.3576925"><ele>263.5</ele><time>2026-04-12T10:19:59.557Z</time></trkpt><trkpt lat="42.7794741" lon="12.3575451"><ele>266.25</ele><time>2026-04-12T10:20:00.554Z</time></trkpt><trkpt lat="42.7795151" lon="12.3573971"><ele>269.0</ele><time>2026-04-12T10:20:01.547Z</time></trkpt><trkpt lat="42.7795472" lon="12.3572663"><ele>269.5</ele><time>2026-04-12T10:20:02.55Z</time></trkpt><trkpt lat="42.7794623" lon="12.357143"><ele>270.0</ele><time>2026-04-12T10:20:03.559Z</time></trkpt><trkpt lat="42.7793368" lon="12.3570618"><ele>270.5</ele><time>2026-04-12T10:20:04.552Z</time></trkpt><trkpt lat="42.7791937" lon="12.3569622"><ele>271.0</ele><time>2026-04-12T10:20:05.556Z</time></trkpt><trkpt lat="42.7790382" lon="12.3568431"><ele>271.0</ele><time>2026-04-12T10:20:06.553Z</time></trkpt><trkpt lat="42.778915" lon="12.3566545"><ele>271.0</ele><time>2026-04-12T10:20:07.544Z</time></trkpt><trkpt lat="42.778826" lon="12.3564282"><ele>271.0</ele><time>2026-04-12T10:20:08.548Z</time></trkpt><trkpt lat="42.7787499" lon="12.3561998"><ele>271.0</ele><time>2026-04-12T10:20:09.556Z</time></trkpt><trkpt lat="42.7786764" lon="12.3559796"><ele>271.0</ele><time>2026-04-12T10:20:10.55Z</time></trkpt><trkpt lat="42.7786163" lon="12.3557724"><ele>271.0</ele><time>2026-04-12T10:20:11.552Z</time></trkpt><trkpt lat="42.7785665" lon="12.3555627"><ele>273.66666666666663</ele><time>2026-04-12T10:20:12.557Z</time></trkpt><trkpt lat="42.7785493" lon="12.3553456"><ele>276.3333333333333</ele><time>2026-04-12T10:20:13.54Z</time></trkpt><trkpt lat="42.7785826" lon="12.3551241"><ele>279.0</ele><time>2026-04-12T10:20:14.549Z</time></trkpt><trkpt lat="42.7786485" lon="12.3549066"><ele>278.6666666666667</ele><time>2026-04-12T10:20:15.54Z</time></trkpt><trkpt lat="42.7787357" lon="12.3546772"><ele>278.33333333333337</ele><time>2026-04-12T10:20:16.55Z</time></trkpt><trkpt lat="42.778824" lon="12.3544204"><ele>278.0</ele><time>2026-04-12T10:20:17.551Z</time></trkpt><trkpt lat="42.7789127" lon="12.3541585"><ele>278.0</ele><time>2026-04-12T10:20:18.564Z</time></trkpt><trkpt lat="42.7790059" lon="12.353884"><ele>278.0</ele><time>2026-04-12T10:20:19.561Z</time></trkpt><trkpt lat="42.7790997" lon="12.3536019"><ele>278.0</ele><time>2026-04-12T10:20:20.574Z</time></trkpt><trkpt lat="42.7791927" lon="12.3533199"><ele>276.6666666666667</ele><time>2026-04-12T10:20:21.559Z</time></trkpt><trkpt lat="42.7792835" lon="12.3530435"><ele>275.3333333333333</ele><time>2026-04-12T10:20:22.559Z</time></trkpt><trkpt lat="42.7793705" lon="12.3527704"><ele>274.0</ele><time>2026-04-12T10:20:23.563Z</time></trkpt><trkpt lat="42.7794587" lon="12.3524997"><ele>278.0</ele><time>2026-04-12T10:20:24.552Z</time></trkpt><trkpt lat="42.7795463" lon="12.3522314"><ele>282.0</ele><time>2026-04-12T10:20:25.565Z</time></trkpt><trkpt lat="42.7796346" lon="12.3519599"><ele>286.0</ele><time>2026-04-12T10:20:26.555Z</time></trkpt><trkpt lat="42.779722" lon="12.3516858"><ele>286.0</ele><time>2026-04-12T10:20:27.555Z</time></trkpt><trkpt lat="42.7798144" lon="12.3514115"><ele>286.0</ele><time>2026-04-12T10:20:28.555Z</time></trkpt><trkpt lat="42.7799175" lon="12.3511444"><ele>286.0</ele><time>2026-04-12T10:20:29.557Z</time></trkpt><trkpt lat="42.7800354" lon="12.3508909"><ele>286.66666666666663</ele><time>2026-04-12T10:20:30.554Z</time></trkpt><trkpt lat="42.7801622" lon="12.3506468"><ele>287.3333333333333</ele><time>2026-04-12T10:20:31.559Z</time></trkpt><trkpt lat="42.7802926" lon="12.3504066"><ele>288.0</ele><time>2026-04-12T10:20:32.564Z</time></trkpt><trkpt lat="42.7804249" lon="12.3501714"><ele>291.0</ele><time>2026-04-12T10:20:33.563Z</time></trkpt><trkpt lat="42.7805537" lon="12.3499374"><ele>294.0</ele><time>2026-04-12T10:20:34.564Z</time></trkpt><trkpt lat="42.7806795" lon="12.3497048"><ele>297.0</ele><time>2026-04-12T10:20:35.555Z</time></trkpt><trkpt lat="42.7808036" lon="12.3494739"><ele>297.6666666666667</ele><time>2026-04-12T10:20:36.556Z</time></trkpt><trkpt lat="42.780924" lon="12.3492512"><ele>298.33333333333337</ele><time>2026-04-12T10:20:37.565Z</time></trkpt><trkpt lat="42.7810356" lon="12.3490446"><ele>299.0</ele><time>2026-04-12T10:20:38.576Z</time></trkpt><trkpt lat="42.7811364" lon="12.3488522"><ele>301.33333333333337</ele><time>2026-04-12T10:20:39.56Z</time></trkpt><trkpt lat="42.7812272" lon="12.34867"><ele>303.6666666666667</ele><time>2026-04-12T10:20:40.581Z</time></trkpt><trkpt lat="42.781302" lon="12.3484818"><ele>306.0</ele><time>2026-04-12T10:20:41.56Z</time></trkpt><trkpt lat="42.7813545" lon="12.3482869"><ele>306.0</ele><time>2026-04-12T10:20:42.562Z</time></trkpt><trkpt lat="42.7813873" lon="12.3481053"><ele>306.0</ele><time>2026-04-12T10:20:43.553Z</time></trkpt><trkpt lat="42.7813498" lon="12.3478981"><ele>306.0</ele><time>2026-04-12T10:20:44.561Z</time></trkpt><trkpt lat="42.7812797" lon="12.3477011"><ele>308.0</ele><time>2026-04-12T10:20:45.554Z</time></trkpt><trkpt lat="42.7811965" lon="12.3475004"><ele>310.0</ele><time>2026-04-12T10:20:46.554Z</time></trkpt><trkpt lat="42.7811029" lon="12.3473036"><ele>312.0</ele><time>2026-04-12T10:20:47.552Z</time></trkpt><trkpt lat="42.7810259" lon="12.3471243"><ele>313.75</ele><time>2026-04-12T10:20:48.563Z</time></trkpt><trkpt lat="42.7809846" lon="12.3469538"><ele>315.5</ele><time>2026-04-12T10:20:49.559Z</time></trkpt><trkpt lat="42.7809919" lon="12.3467713"><ele>317.25</ele><time>2026-04-12T10:20:50.548Z</time></trkpt><trkpt lat="42.7810355" lon="12.3465941"><ele>319.0</ele><time>2026-04-12T10:20:51.55Z</time></trkpt><trkpt lat="42.7810874" lon="12.346418"><ele>316.25</ele><time>2026-04-12T10:20:52.554Z</time></trkpt><trkpt lat="42.7811384" lon="12.3462527"><ele>313.5</ele><time>2026-04-12T10:20:53.551Z</time></trkpt><trkpt lat="42.7812019" lon="12.3461105"><ele>310.75</ele><time>2026-04-12T10:20:54.557Z</time></trkpt><trkpt lat="42.7812676" lon="12.3459936"><ele>308.0</ele><time>2026-04-12T10:20:55.547Z</time></trkpt><trkpt lat="42.7813748" lon="12.3459456"><ele>308.0</ele><time>2026-04-12T10:20:56.547Z</time></trkpt><trkpt lat="42.7815011" lon="12.3459193"><ele>308.0</ele><time>2026-04-12T10:20:57.547Z</time></trkpt><trkpt lat="42.7816481" lon="12.3459086"><ele>308.0</ele><time>2026-04-12T10:20:58.557Z</time></trkpt><trkpt lat="42.7818103" lon="12.3458953"><ele>308.0</ele><time>2026-04-12T10:20:59.556Z</time></trkpt><trkpt lat="42.7819798" lon="12.3458751"><ele>310.0</ele><time>2026-04-12T10:21:00.558Z</time></trkpt><trkpt lat="42.7821535" lon="12.3458446"><ele>312.0</ele><time>2026-04-12T10:21:01.561Z</time></trkpt><trkpt lat="42.7823262" lon="12.3457997"><ele>314.0</ele><time>2026-04-12T10:21:02.555Z</time></trkpt><trkpt lat="42.7824523" lon="12.3457017"><ele>314.0</ele><time>2026-04-12T10:21:03.558Z</time></trkpt><trkpt lat="42.7825786" lon="12.3456211"><ele>314.0</ele><time>2026-04-12T10:21:04.56Z</time></trkpt><trkpt lat="42.7827194" lon="12.3455936"><ele>314.0</ele><time>2026-04-12T10:21:05.556Z</time></trkpt><trkpt lat="42.7828668" lon="12.3455944"><ele>314.0</ele><time>2026-04-12T10:21:06.552Z</time></trkpt><trkpt lat="42.7830164" lon="12.3456565"><ele>314.0</ele><time>2026-04-12T10:21:07.558Z</time></trkpt><trkpt lat="42.7831678" lon="12.3457207"><ele>314.0</ele><time>2026-04-12T10:21:08.557Z</time></trkpt><trkpt lat="42.7833149" lon="12.3457893"><ele>314.0</ele><time>2026-04-12T10:21:09.555Z</time></trkpt><trkpt lat="42.7834507" lon="12.3458471"><ele>315.25</ele><time>2026-04-12T10:21:10.555Z</time></trkpt><trkpt lat="42.7835809" lon="12.3458893"><ele>316.5</ele><time>2026-04-12T10:21:11.555Z</time></trkpt><trkpt lat="42.7837106" lon="12.3458974"><ele>317.75</ele><time>2026-04-12T10:21:12.552Z</time></trkpt><trkpt lat="42.7838374" lon="12.3458614"><ele>319.0</ele><time>2026-04-12T10:21:13.54Z</time></trkpt><trkpt lat="42.7839636" lon="12.345793"><ele>319.0</ele><time>2026-04-12T10:21:14.549Z</time></trkpt><trkpt lat="42.7840993" lon="12.3457237"><ele>319.0</ele><time>2026-04-12T10:21:15.549Z</time></trkpt><trkpt lat="42.7842435" lon="12.3456556"><ele>319.0</ele><time>2026-04-12T10:21:16.564Z</time></trkpt><trkpt lat="42.7843922" lon="12.3455807"><ele>321.3333333333333</ele><time>2026-04-12T10:21:17.558Z</time></trkpt><trkpt lat="42.784542" lon="12.345491"><ele>323.6666666666667</ele><time>2026-04-12T10:21:18.566Z</time></trkpt><trkpt lat="42.784682" lon="12.3453855"><ele>326.0</ele><time>2026-04-12T10:21:19.55Z</time></trkpt><trkpt lat="42.7848051" lon="12.3452417"><ele>326.0</ele><time>2026-04-12T10:21:20.552Z</time></trkpt><trkpt lat="42.7849078" lon="12.3450583"><ele>326.0</ele><time>2026-04-12T10:21:21.551Z</time></trkpt><trkpt lat="42.784997" lon="12.3448507"><ele>326.0</ele><time>2026-04-12T10:21:22.55Z</time></trkpt><trkpt lat="42.7850869" lon="12.3446353"><ele>329.6666666666667</ele><time>2026-04-12T10:21:23.553Z</time></trkpt><trkpt lat="42.7851811" lon="12.3444131"><ele>333.3333333333333</ele><time>2026-04-12T10:21:24.566Z</time></trkpt><trkpt lat="42.7852723" lon="12.3441909"><ele>337.0</ele><time>2026-04-12T10:21:25.549Z</time></trkpt><trkpt lat="42.7853538" lon="12.343986"><ele>336.0</ele><time>2026-04-12T10:21:26.552Z</time></trkpt><trkpt lat="42.7854201" lon="12.343787"><ele>335.0</ele><time>2026-04-12T10:21:27.562Z</time></trkpt><trkpt lat="42.7854801" lon="12.3435971"><ele>334.0</ele><time>2026-04-12T10:21:28.554Z</time></trkpt><trkpt lat="42.7855381" lon="12.3434045"><ele>334.0</ele><time>2026-04-12T10:21:29.558Z</time></trkpt><trkpt lat="42.7856062" lon="12.3432072"><ele>334.0</ele><time>2026-04-12T10:21:30.557Z</time></trkpt><trkpt lat="42.785692" lon="12.3430181"><ele>334.0</ele><time>2026-04-12T10:21:31.553Z</time></trkpt><trkpt lat="42.7857932" lon="12.3428404"><ele>332.66666666666663</ele><time>2026-04-12T10:21:32.552Z</time></trkpt><trkpt lat="42.785901" lon="12.342686"><ele>331.3333333333333</ele><time>2026-04-12T10:21:33.55Z</time></trkpt><trkpt lat="42.7860092" lon="12.3425378"><ele>330.0</ele><time>2026-04-12T10:21:34.555Z</time></trkpt><trkpt lat="42.7861153" lon="12.3423953"><ele>333.0</ele><time>2026-04-12T10:21:35.563Z</time></trkpt><trkpt lat="42.7862181" lon="12.3422647"><ele>336.0</ele><time>2026-04-12T10:21:36.559Z</time></trkpt><trkpt lat="42.7863154" lon="12.3421571"><ele>339.0</ele><time>2026-04-12T10:21:37.553Z</time></trkpt><trkpt lat="42.786397" lon="12.342054"><ele>342.0</ele><time>2026-04-12T10:21:38.55Z</time></trkpt><trkpt lat="42.786443" lon="12.3419288"><ele>343.0</ele><time>2026-04-12T10:21:39.545Z</time></trkpt><trkpt lat="42.7864488" lon="12.3417826"><ele>344.0</ele><time>2026-04-12T10:21:40.548Z</time></trkpt><trkpt lat="42.7864138" lon="12.3416242"><ele>345.0</ele><time>2026-04-12T10:21:41.551Z</time></trkpt><trkpt lat="42.7863653" lon="12.3414523"><ele>346.0</ele><time>2026-04-12T10:21:42.55Z</time></trkpt><trkpt lat="42.7863147" lon="12.3412704"><ele>346.0</ele><time>2026-04-12T10:21:43.558Z</time></trkpt><trkpt lat="42.7862909" lon="12.3410899"><ele>346.0</ele><time>2026-04-12T10:21:44.578Z</time></trkpt><trkpt lat="42.7863041" lon="12.3409019"><ele>346.0</ele><time>2026-04-12T10:21:45.536Z</time></trkpt><trkpt lat="42.7863586" lon="12.3407116"><ele>346.0</ele><time>2026-04-12T10:21:46.559Z</time></trkpt><trkpt lat="42.7864337" lon="12.3405178"><ele>346.25</ele><time>2026-04-12T10:21:47.543Z</time></trkpt><trkpt lat="42.7865111" lon="12.3403292"><ele>346.5</ele><time>2026-04-12T10:21:48.553Z</time></trkpt><trkpt lat="42.7865728" lon="12.3401658"><ele>346.75</ele><time>2026-04-12T10:21:49.542Z</time></trkpt><trkpt lat="42.7865896" lon="12.339968"><ele>347.0</ele><time>2026-04-12T10:21:50.548Z</time></trkpt><trkpt lat="42.7865417" lon="12.3397623"><ele>353.0</ele><time>2026-04-12T10:21:51.547Z</time></trkpt><trkpt lat="42.7864635" lon="12.3395459"><ele>359.0</ele><time>2026-04-12T10:21:52.55Z</time></trkpt><trkpt lat="42.7863712" lon="12.3393482"><ele>365.0</ele><time>2026-04-12T10:21:53.553Z</time></trkpt><trkpt lat="42.7862491" lon="12.3391686"><ele>365.0</ele><time>2026-04-12T10:21:54.547Z</time></trkpt><trkpt lat="42.7860987" lon="12.3390631"><ele>365.0</ele><time>2026-04-12T10:21:55.541Z</time></trkpt><trkpt lat="42.7859863" lon="12.3389426"><ele>365.0</ele><time>2026-04-12T10:21:56.558Z</time></trkpt><trkpt lat="42.7859325" lon="12.3387728"><ele>365.0</ele><time>2026-04-12T10:21:57.558Z</time></trkpt><trkpt lat="42.7859303" lon="12.3385766"><ele>366.5</ele><time>2026-04-12T10:21:58.546Z</time></trkpt><trkpt lat="42.7859395" lon="12.3383733"><ele>368.0</ele><time>2026-04-12T10:21:59.55Z</time></trkpt><trkpt lat="42.7859574" lon="12.3381788"><ele>369.5</ele><time>2026-04-12T10:22:00.552Z</time></trkpt><trkpt lat="42.7860018" lon="12.3379968"><ele>371.0</ele><time>2026-04-12T10:22:01.551Z</time></trkpt><trkpt lat="42.786087" lon="12.3378242"><ele>371.0</ele><time>2026-04-12T10:22:02.556Z</time></trkpt><trkpt lat="42.7861854" lon="12.3376538"><ele>371.0</ele><time>2026-04-12T10:22:03.549Z</time></trkpt><trkpt lat="42.786279" lon="12.3374642"><ele>371.0</ele><time>2026-04-12T10:22:04.549Z</time></trkpt><trkpt lat="42.786364" lon="12.3372712"><ele>369.0</ele><time>2026-04-12T10:22:05.548Z</time></trkpt><trkpt lat="42.7864256" lon="12.3370776"><ele>367.0</ele><time>2026-04-12T10:22:06.561Z</time></trkpt><trkpt lat="42.7864709" lon="12.3369064"><ele>365.0</ele><time>2026-04-12T10:22:07.541Z</time></trkpt><trkpt lat="42.7865008" lon="12.3367596"><ele>363.0</ele><time>2026-04-12T10:22:08.546Z</time></trkpt><trkpt lat="42.7865005" lon="12.3366332"><ele>363.0</ele><time>2026-04-12T10:22:09.551Z</time></trkpt><trkpt lat="42.7864504" lon="12.3365253"><ele>363.0</ele><time>2026-04-12T10:22:10.545Z</time></trkpt><trkpt lat="42.7863672" lon="12.3364363"><ele>363.0</ele><time>2026-04-12T10:22:11.548Z</time></trkpt><trkpt lat="42.7862627" lon="12.336384"><ele>363.0</ele><time>2026-04-12T10:22:12.557Z</time></trkpt><trkpt lat="42.7861573" lon="12.3364029"><ele>363.0</ele><time>2026-04-12T10:22:13.544Z</time></trkpt><trkpt lat="42.7860433" lon="12.3364333"><ele>363.0</ele><time>2026-04-12T10:22:14.539Z</time></trkpt><trkpt lat="42.7859594" lon="12.3365718"><ele>363.0</ele><time>2026-04-12T10:22:15.562Z</time></trkpt><trkpt lat="42.7859088" lon="12.3367307"><ele>363.0</ele><time>2026-04-12T10:22:16.541Z</time></trkpt><trkpt lat="42.785832" lon="12.3369091"><ele>363.0</ele><time>2026-04-12T10:22:17.551Z</time></trkpt><trkpt lat="42.7857255" lon="12.3370526"><ele>363.0</ele><time>2026-04-12T10:22:18.548Z</time></trkpt><trkpt lat="42.7855974" lon="12.3371468"><ele>363.0</ele><time>2026-04-12T10:22:19.548Z</time></trkpt><trkpt lat="42.7854494" lon="12.3371825"><ele>363.0</ele><time>2026-04-12T10:22:20.545Z</time></trkpt><trkpt lat="42.7852925" lon="12.3371667"><ele>361.6666666666667</ele><time>2026-04-12T10:22:21.549Z</time></trkpt><trkpt lat="42.7851314" lon="12.3371144"><ele>360.33333333333337</ele><time>2026-04-12T10:22:22.546Z</time></trkpt><trkpt lat="42.7849727" lon="12.3370535"><ele>359.0</ele><time>2026-04-12T10:22:23.554Z</time></trkpt><trkpt lat="42.7848323" lon="12.3369932"><ele>359.0</ele><time>2026-04-12T10:22:24.558Z</time></trkpt><trkpt lat="42.7847083" lon="12.3369081"><ele>359.0</ele><time>2026-04-12T10:22:25.543Z</time></trkpt><trkpt lat="42.7846134" lon="12.3367862"><ele>359.0</ele><time>2026-04-12T10:22:26.544Z</time></trkpt><trkpt lat="42.7845543" lon="12.3366295"><ele>359.0</ele><time>2026-04-12T10:22:27.533Z</time></trkpt><trkpt lat="42.7845314" lon="12.3364457"><ele>360.0</ele><time>2026-04-12T10:22:28.55Z</time></trkpt><trkpt lat="42.7845252" lon="12.3362367"><ele>361.0</ele><time>2026-04-12T10:22:29.553Z</time></trkpt><trkpt lat="42.784523" lon="12.3360082"><ele>362.0</ele><time>2026-04-12T10:22:30.555Z</time></trkpt><trkpt lat="42.7845203" lon="12.3357699"><ele>363.6666666666667</ele><time>2026-04-12T10:22:31.562Z</time></trkpt><trkpt lat="42.7845098" lon="12.3355251"><ele>365.3333333333333</ele><time>2026-04-12T10:22:32.558Z</time></trkpt><trkpt lat="42.7844846" lon="12.3352723"><ele>367.0</ele><time>2026-04-12T10:22:33.558Z</time></trkpt><trkpt lat="42.7844459" lon="12.3350164"><ele>367.0</ele><time>2026-04-12T10:22:34.567Z</time></trkpt><trkpt lat="42.7843447" lon="12.3347872"><ele>367.0</ele><time>2026-04-12T10:22:35.557Z</time></trkpt><trkpt lat="42.7842203" lon="12.3345605"><ele>367.0</ele><time>2026-04-12T10:22:36.556Z</time></trkpt><trkpt lat="42.7840941" lon="12.3343279"><ele>367.0</ele><time>2026-04-12T10:22:37.563Z</time></trkpt><trkpt lat="42.7839657" lon="12.3341007"><ele>367.0</ele><time>2026-04-12T10:22:38.549Z</time></trkpt><trkpt lat="42.7838438" lon="12.3338787"><ele>367.0</ele><time>2026-04-12T10:22:39.553Z</time></trkpt><trkpt lat="42.7837298" lon="12.3336529"><ele>369.0</ele><time>2026-04-12T10:22:40.557Z</time></trkpt><trkpt lat="42.7836306" lon="12.3334173"><ele>371.0</ele><time>2026-04-12T10:22:41.55Z</time></trkpt><trkpt lat="42.7835532" lon="12.3331844"><ele>373.0</ele><time>2026-04-12T10:22:42.556Z</time></trkpt><trkpt lat="42.7834854" lon="12.3329664"><ele>373.0</ele><time>2026-04-12T10:22:43.554Z</time></trkpt><trkpt lat="42.7834113" lon="12.3327619"><ele>373.0</ele><time>2026-04-12T10:22:44.564Z</time></trkpt><trkpt lat="42.7833333" lon="12.3325716"><ele>373.0</ele><time>2026-04-12T10:22:45.549Z</time></trkpt><trkpt lat="42.7832207" lon="12.3324179"><ele>373.0</ele><time>2026-04-12T10:22:46.552Z</time></trkpt><trkpt lat="42.7830595" lon="12.3323142"><ele>373.0</ele><time>2026-04-12T10:22:47.557Z</time></trkpt><trkpt lat="42.7828888" lon="12.3322064"><ele>373.0</ele><time>2026-04-12T10:22:48.553Z</time></trkpt><trkpt lat="42.7827041" lon="12.33211"><ele>373.3333333333333</ele><time>2026-04-12T10:22:49.554Z</time></trkpt><trkpt lat="42.7825433" lon="12.3319459"><ele>373.6666666666667</ele><time>2026-04-12T10:22:50.554Z</time></trkpt><trkpt lat="42.7823968" lon="12.3317519"><ele>374.0</ele><time>2026-04-12T10:22:51.57Z</time></trkpt><trkpt lat="42.7822428" lon="12.331555"><ele>375.6666666666667</ele><time>2026-04-12T10:22:52.555Z</time></trkpt><trkpt lat="42.7820723" lon="12.3313632"><ele>377.3333333333333</ele><time>2026-04-12T10:22:53.554Z</time></trkpt><trkpt lat="42.781894" lon="12.331184"><ele>379.0</ele><time>2026-04-12T10:22:54.55Z</time></trkpt><trkpt lat="42.7817167" lon="12.3310295"><ele>379.0</ele><time>2026-04-12T10:22:55.551Z</time></trkpt><trkpt lat="42.7815669" lon="12.3308864"><ele>379.0</ele><time>2026-04-12T10:22:56.55Z</time></trkpt><trkpt lat="42.7814594" lon="12.3307473"><ele>379.0</ele><time>2026-04-12T10:22:57.57Z</time></trkpt><trkpt lat="42.7813995" lon="12.3305951"><ele>380.0</ele><time>2026-04-12T10:22:58.552Z</time></trkpt><trkpt lat="42.7814011" lon="12.330444"><ele>381.0</ele><time>2026-04-12T10:22:59.538Z</time></trkpt><trkpt lat="42.7814377" lon="12.3302978"><ele>382.0</ele><time>2026-04-12T10:23:00.542Z</time></trkpt><trkpt lat="42.7814755" lon="12.3301415"><ele>383.0</ele><time>2026-04-12T10:23:01.55Z</time></trkpt><trkpt lat="42.7814953" lon="12.3299426"><ele>382.6666666666667</ele><time>2026-04-12T10:23:02.55Z</time></trkpt><trkpt lat="42.7814915" lon="12.3297208"><ele>382.3333333333333</ele><time>2026-04-12T10:23:03.547Z</time></trkpt><trkpt lat="42.7814711" lon="12.3294817"><ele>382.0</ele><time>2026-04-12T10:23:04.554Z</time></trkpt><trkpt lat="42.7814457" lon="12.3292341"><ele>382.0</ele><time>2026-04-12T10:23:05.549Z</time></trkpt><trkpt lat="42.7814269" lon="12.3290124"><ele>382.0</ele><time>2026-04-12T10:23:06.543Z</time></trkpt><trkpt lat="42.7814083" lon="12.3288152"><ele>382.0</ele><time>2026-04-12T10:23:07.56Z</time></trkpt><trkpt lat="42.7813953" lon="12.3286446"><ele>382.0</ele><time>2026-04-12T10:23:08.566Z</time></trkpt><trkpt lat="42.7814126" lon="12.3285115"><ele>383.40000000000003</ele><time>2026-04-12T10:23:09.546Z</time></trkpt><trkpt lat="42.781466" lon="12.328423"><ele>384.8</ele><time>2026-04-12T10:23:10.544Z</time></trkpt><trkpt lat="42.781549" lon="12.3283923"><ele>386.2</ele><time>2026-04-12T10:23:11.542Z</time></trkpt><trkpt lat="42.7816544" lon="12.3284261"><ele>387.6</ele><time>2026-04-12T10:23:12.545Z</time></trkpt><trkpt lat="42.7817734" lon="12.3284876"><ele>389.0</ele><time>2026-04-12T10:23:13.549Z</time></trkpt><trkpt lat="42.7819094" lon="12.3285593"><ele>391.66666666666663</ele><time>2026-04-12T10:23:14.551Z</time></trkpt><trkpt lat="42.7820615" lon="12.328622"><ele>394.33333333333337</ele><time>2026-04-12T10:23:15.568Z</time></trkpt><trkpt lat="42.7822233" lon="12.328673"><ele>397.0</ele><time>2026-04-12T10:23:16.566Z</time></trkpt><trkpt lat="42.7824154" lon="12.3286457"><ele>397.0</ele><time>2026-04-12T10:23:17.56Z</time></trkpt><trkpt lat="42.7826158" lon="12.3285751"><ele>397.0</ele><time>2026-04-12T10:23:18.561Z</time></trkpt><trkpt lat="42.7828081" lon="12.3284853"><ele>397.0</ele><time>2026-04-12T10:23:19.573Z</time></trkpt><trkpt lat="42.7829886" lon="12.3283722"><ele>397.6666666666667</ele><time>2026-04-12T10:23:20.573Z</time></trkpt><trkpt lat="42.7831466" lon="12.3282318"><ele>398.33333333333337</ele><time>2026-04-12T10:23:21.565Z</time></trkpt><trkpt lat="42.7832717" lon="12.3280967"><ele>399.0</ele><time>2026-04-12T10:23:22.572Z</time></trkpt><trkpt lat="42.783375" lon="12.3279893"><ele>400.5</ele><time>2026-04-12T10:23:23.567Z</time></trkpt><trkpt lat="42.7834737" lon="12.3279294"><ele>402.0</ele><time>2026-04-12T10:23:24.566Z</time></trkpt><trkpt lat="42.783573" lon="12.3279404"><ele>403.5</ele><time>2026-04-12T10:23:25.564Z</time></trkpt><trkpt lat="42.7836616" lon="12.3280285"><ele>405.0</ele><time>2026-04-12T10:23:26.564Z</time></trkpt><trkpt lat="42.7837376" lon="12.3281826"><ele>405.66666666666663</ele><time>2026-04-12T10:23:27.551Z</time></trkpt><trkpt lat="42.7838161" lon="12.3283701"><ele>406.3333333333333</ele><time>2026-04-12T10:23:28.547Z</time></trkpt><trkpt lat="42.783895" lon="12.3285507"><ele>407.0</ele><time>2026-04-12T10:23:29.554Z</time></trkpt><trkpt lat="42.7839738" lon="12.3287128"><ele>407.0</ele><time>2026-04-12T10:23:30.551Z</time></trkpt><trkpt lat="42.7840622" lon="12.3288276"><ele>407.0</ele><time>2026-04-12T10:23:31.554Z</time></trkpt><trkpt lat="42.7841706" lon="12.3288912"><ele>407.0</ele><time>2026-04-12T10:23:32.547Z</time></trkpt><trkpt lat="42.7843007" lon="12.3288878"><ele>407.0</ele><time>2026-04-12T10:23:33.538Z</time></trkpt><trkpt lat="42.7844427" lon="12.3288233"><ele>407.3333333333333</ele><time>2026-04-12T10:23:34.54Z</time></trkpt><trkpt lat="42.784576" lon="12.3287032"><ele>407.66666666666663</ele><time>2026-04-12T10:23:35.535Z</time></trkpt><trkpt lat="42.784686" lon="12.328542"><ele>408.0</ele><time>2026-04-12T10:23:36.54Z</time></trkpt><trkpt lat="42.7847919" lon="12.3283425"><ele>408.0</ele><time>2026-04-12T10:23:37.547Z</time></trkpt><trkpt lat="42.7848512" lon="12.3281019"><ele>408.0</ele><time>2026-04-12T10:23:38.558Z</time></trkpt><trkpt lat="42.7849148" lon="12.327848"><ele>408.0</ele><time>2026-04-12T10:23:39.558Z</time></trkpt><trkpt lat="42.7850083" lon="12.3276178"><ele>410.0</ele><time>2026-04-12T10:23:40.553Z</time></trkpt><trkpt lat="42.7851481" lon="12.3273967"><ele>412.0</ele><time>2026-04-12T10:23:41.55Z</time></trkpt><trkpt lat="42.785274" lon="12.3271794"><ele>414.0</ele><time>2026-04-12T10:23:42.56Z</time></trkpt><trkpt lat="42.7853921" lon="12.326977"><ele>415.33333333333337</ele><time>2026-04-12T10:23:43.552Z</time></trkpt><trkpt lat="42.7854923" lon="12.3267615"><ele>416.6666666666667</ele><time>2026-04-12T10:23:44.552Z</time></trkpt><trkpt lat="42.7855539" lon="12.3265171"><ele>418.0</ele><time>2026-04-12T10:23:45.565Z</time></trkpt><trkpt lat="42.7855784" lon="12.3262725"><ele>420.33333333333337</ele><time>2026-04-12T10:23:46.549Z</time></trkpt><trkpt lat="42.7856053" lon="12.3260525"><ele>422.66666666666663</ele><time>2026-04-12T10:23:47.548Z</time></trkpt><trkpt lat="42.7856676" lon="12.3258586"><ele>425.0</ele><time>2026-04-12T10:23:48.55Z</time></trkpt><trkpt lat="42.7857753" lon="12.3256961"><ele>427.3333333333333</ele><time>2026-04-12T10:23:49.542Z</time></trkpt><trkpt lat="42.7859176" lon="12.3255586"><ele>429.66666666666663</ele><time>2026-04-12T10:23:50.545Z</time></trkpt><trkpt lat="42.7860784" lon="12.3254256"><ele>432.0</ele><time>2026-04-12T10:23:51.552Z</time></trkpt><trkpt lat="42.7862498" lon="12.3252895"><ele>432.0</ele><time>2026-04-12T10:23:52.548Z</time></trkpt><trkpt lat="42.7864261" lon="12.3251508"><ele>432.0</ele><time>2026-04-12T10:23:53.554Z</time></trkpt><trkpt lat="42.7865891" lon="12.3250081"><ele>432.0</ele><time>2026-04-12T10:23:54.55Z</time></trkpt><trkpt lat="42.7867288" lon="12.3248301"><ele>433.66666666666663</ele><time>2026-04-12T10:23:55.552Z</time></trkpt><trkpt lat="42.7868375" lon="12.3246169"><ele>435.3333333333333</ele><time>2026-04-12T10:23:56.565Z</time></trkpt><trkpt lat="42.78691" lon="12.3243692"><ele>437.0</ele><time>2026-04-12T10:23:57.553Z</time></trkpt><trkpt lat="42.7869539" lon="12.3241062"><ele>440.3333333333333</ele><time>2026-04-12T10:23:58.545Z</time></trkpt><trkpt lat="42.7869651" lon="12.3238599"><ele>443.66666666666663</ele><time>2026-04-12T10:23:59.543Z</time></trkpt><trkpt lat="42.7869659" lon="12.3236462"><ele>447.0</ele><time>2026-04-12T10:24:00.551Z</time></trkpt><trkpt lat="42.7869776" lon="12.323465"><ele>447.0</ele><time>2026-04-12T10:24:01.554Z</time></trkpt><trkpt lat="42.7870054" lon="12.3233322"><ele>447.0</ele><time>2026-04-12T10:24:02.55Z</time></trkpt><trkpt lat="42.7870436" lon="12.3232358"><ele>447.0</ele><time>2026-04-12T10:24:03.552Z</time></trkpt><trkpt lat="42.7870917" lon="12.3231713"><ele>447.0</ele><time>2026-04-12T10:24:04.543Z</time></trkpt><trkpt lat="42.7871585" lon="12.3231445"><ele>447.0</ele><time>2026-04-12T10:24:05.549Z</time></trkpt><trkpt lat="42.7872383" lon="12.3231651"><ele>447.0</ele><time>2026-04-12T10:24:06.545Z</time></trkpt><trkpt lat="42.787328" lon="12.3232215"><ele>447.0</ele><time>2026-04-12T10:24:07.543Z</time></trkpt><trkpt lat="42.787438" lon="12.323269"><ele>447.0</ele><time>2026-04-12T10:24:08.55Z</time></trkpt><trkpt lat="42.7875713" lon="12.323285"><ele>447.0</ele><time>2026-04-12T10:24:09.557Z</time></trkpt><trkpt lat="42.7877197" lon="12.3232701"><ele>447.0</ele><time>2026-04-12T10:24:10.554Z</time></trkpt><trkpt lat="42.7878818" lon="12.323241"><ele>448.33333333333337</ele><time>2026-04-12T10:24:11.562Z</time></trkpt><trkpt lat="42.7880538" lon="12.3232318"><ele>449.6666666666667</ele><time>2026-04-12T10:24:12.536Z</time></trkpt><trkpt lat="42.7882246" lon="12.3232558"><ele>451.0</ele><time>2026-04-12T10:24:13.544Z</time></trkpt><trkpt lat="42.7883982" lon="12.3233185"><ele>454.33333333333337</ele><time>2026-04-12T10:24:14.546Z</time></trkpt><trkpt lat="42.7885707" lon="12.3234158"><ele>457.66666666666663</ele><time>2026-04-12T10:24:15.549Z</time></trkpt><trkpt lat="42.7887354" lon="12.3235214"><ele>461.0</ele><time>2026-04-12T10:24:16.538Z</time></trkpt><trkpt lat="42.7888899" lon="12.323623"><ele>461.0</ele><time>2026-04-12T10:24:17.551Z</time></trkpt><trkpt lat="42.7890257" lon="12.3237178"><ele>461.0</ele><time>2026-04-12T10:24:18.553Z</time></trkpt><trkpt lat="42.7891413" lon="12.3237951"><ele>461.0</ele><time>2026-04-12T10:24:19.551Z</time></trkpt><trkpt lat="42.7892416" lon="12.3238458"><ele>461.0</ele><time>2026-04-12T10:24:20.548Z</time></trkpt><trkpt lat="42.7893387" lon="12.3238708"><ele>461.0</ele><time>2026-04-12T10:24:21.547Z</time></trkpt><trkpt lat="42.7894101" lon="12.3238113"><ele>461.0</ele><time>2026-04-12T10:24:22.545Z</time></trkpt><trkpt lat="42.7894683" lon="12.3237249"><ele>461.0</ele><time>2026-04-12T10:24:23.547Z</time></trkpt><trkpt lat="42.789454" lon="12.323592"><ele>461.0</ele><time>2026-04-12T10:24:24.535Z</time></trkpt><trkpt lat="42.7893756" lon="12.3234579"><ele>461.0</ele><time>2026-04-12T10:24:25.551Z</time></trkpt><trkpt lat="42.7892843" lon="12.3233006"><ele>461.0</ele><time>2026-04-12T10:24:26.546Z</time></trkpt><trkpt lat="42.7891876" lon="12.3231223"><ele>461.0</ele><time>2026-04-12T10:24:27.554Z</time></trkpt><trkpt lat="42.78916" lon="12.3228711"><ele>461.0</ele><time>2026-04-12T10:24:28.55Z</time></trkpt><trkpt lat="42.7891396" lon="12.3226092"><ele>462.3333333333333</ele><time>2026-04-12T10:24:29.534Z</time></trkpt><trkpt lat="42.789128" lon="12.3223582"><ele>463.66666666666663</ele><time>2026-04-12T10:24:30.559Z</time></trkpt><trkpt lat="42.7891203" lon="12.3221412"><ele>465.0</ele><time>2026-04-12T10:24:31.553Z</time></trkpt><trkpt lat="42.7891019" lon="12.3219627"><ele>466.4</ele><time>2026-04-12T10:24:32.559Z</time></trkpt><trkpt lat="42.7890776" lon="12.3218189"><ele>467.8</ele><time>2026-04-12T10:24:33.54Z</time></trkpt><trkpt lat="42.7889985" lon="12.3217347"><ele>469.20000000000005</ele><time>2026-04-12T10:24:34.548Z</time></trkpt><trkpt lat="42.7888899" lon="12.3217052"><ele>470.6</ele><time>2026-04-12T10:24:35.547Z</time></trkpt><trkpt lat="42.7887802" lon="12.3217198"><ele>472.0</ele><time>2026-04-12T10:24:36.559Z</time></trkpt><trkpt lat="42.7886587" lon="12.3217"><ele>472.0</ele><time>2026-04-12T10:24:37.553Z</time></trkpt><trkpt lat="42.7885463" lon="12.3216076"><ele>472.0</ele><time>2026-04-12T10:24:38.552Z</time></trkpt><trkpt lat="42.7884497" lon="12.3214771"><ele>472.0</ele><time>2026-04-12T10:24:39.551Z</time></trkpt><trkpt lat="42.788345" lon="12.3213741"><ele>472.0</ele><time>2026-04-12T10:24:40.553Z</time></trkpt><trkpt lat="42.788216" lon="12.3213337"><ele>475.75</ele><time>2026-04-12T10:24:41.543Z</time></trkpt><trkpt lat="42.7880776" lon="12.3213375"><ele>479.5</ele><time>2026-04-12T10:24:42.539Z</time></trkpt><trkpt lat="42.7879556" lon="12.3213628"><ele>483.25</ele><time>2026-04-12T10:24:43.535Z</time></trkpt><trkpt lat="42.7878473" lon="12.3213853"><ele>487.0</ele><time>2026-04-12T10:24:44.538Z</time></trkpt><trkpt lat="42.7877628" lon="12.3213645"><ele>487.0</ele><time>2026-04-12T10:24:45.531Z</time></trkpt><trkpt lat="42.7877266" lon="12.3212565"><ele>487.00000000000006</ele><time>2026-04-12T10:24:47.546Z</time></trkpt><trkpt lat="42.7878417" lon="12.321179"><ele>487.00000000000006</ele><time>2026-04-12T10:24:49.556Z</time></trkpt><trkpt lat="42.787939" lon="12.3211591"><ele>487.0</ele><time>2026-04-12T10:24:50.551Z</time></trkpt><trkpt lat="42.7880587" lon="12.3211412"><ele>487.0</ele><time>2026-04-12T10:24:51.54Z</time></trkpt><trkpt lat="42.7881987" lon="12.3211212"><ele>487.0</ele><time>2026-04-12T10:24:52.553Z</time></trkpt><trkpt lat="42.7883383" lon="12.321097"><ele>487.0</ele><time>2026-04-12T10:24:53.554Z</time></trkpt><trkpt lat="42.7884655" lon="12.3210697"><ele>487.0</ele><time>2026-04-12T10:24:54.551Z</time></trkpt><trkpt lat="42.7885786" lon="12.3210233"><ele>487.0</ele><time>2026-04-12T10:24:55.551Z</time></trkpt><trkpt lat="42.7886646" lon="12.3209428"><ele>488.0</ele><time>2026-04-12T10:24:56.542Z</time></trkpt><trkpt lat="42.7887292" lon="12.3208144"><ele>489.0</ele><time>2026-04-12T10:24:57.556Z</time></trkpt><trkpt lat="42.7887855" lon="12.32067"><ele>490.0</ele><time>2026-04-12T10:24:58.541Z</time></trkpt><trkpt lat="42.7887722" lon="12.3204824"><ele>491.0</ele><time>2026-04-12T10:24:59.543Z</time></trkpt><trkpt lat="42.7887123" lon="12.3203135"><ele>491.0</ele><time>2026-04-12T10:25:00.547Z</time></trkpt><trkpt lat="42.788643" lon="12.3201359"><ele>491.0</ele><time>2026-04-12T10:25:01.548Z</time></trkpt><trkpt lat="42.7885173" lon="12.3200024"><ele>491.0</ele><time>2026-04-12T10:25:02.562Z</time></trkpt><trkpt lat="42.7883713" lon="12.319876"><ele>491.3333333333333</ele><time>2026-04-12T10:25:03.553Z</time></trkpt><trkpt lat="42.7882036" lon="12.3197417"><ele>491.66666666666663</ele><time>2026-04-12T10:25:04.55Z</time></trkpt><trkpt lat="42.788077" lon="12.3195659"><ele>492.0</ele><time>2026-04-12T10:25:05.553Z</time></trkpt><trkpt lat="42.7879628" lon="12.3193682"><ele>494.33333333333337</ele><time>2026-04-12T10:25:06.554Z</time></trkpt><trkpt lat="42.7878784" lon="12.3191251"><ele>496.6666666666667</ele><time>2026-04-12T10:25:07.558Z</time></trkpt><trkpt lat="42.7877834" lon="12.3188662"><ele>499.0</ele><time>2026-04-12T10:25:08.559Z</time></trkpt><trkpt lat="42.7876887" lon="12.3186135"><ele>498.6666666666667</ele><time>2026-04-12T10:25:09.566Z</time></trkpt><trkpt lat="42.7875947" lon="12.3183659"><ele>498.33333333333337</ele><time>2026-04-12T10:25:10.565Z</time></trkpt><trkpt lat="42.787492" lon="12.3181316"><ele>498.0</ele><time>2026-04-12T10:25:11.554Z</time></trkpt><trkpt lat="42.7873821" lon="12.3179291"><ele>501.0</ele><time>2026-04-12T10:25:12.555Z</time></trkpt><trkpt lat="42.7872773" lon="12.3177466"><ele>504.0</ele><time>2026-04-12T10:25:13.564Z</time></trkpt><trkpt lat="42.7871998" lon="12.3175369"><ele>507.0</ele><time>2026-04-12T10:25:14.551Z</time></trkpt><trkpt lat="42.7871558" lon="12.3172917"><ele>509.66666666666663</ele><time>2026-04-12T10:25:15.55Z</time></trkpt><trkpt lat="42.7871226" lon="12.3170363"><ele>512.3333333333333</ele><time>2026-04-12T10:25:16.554Z</time></trkpt><trkpt lat="42.7870738" lon="12.3168027"><ele>515.0</ele><time>2026-04-12T10:25:17.562Z</time></trkpt><trkpt lat="42.7869965" lon="12.316601"><ele>515.0</ele><time>2026-04-12T10:25:18.551Z</time></trkpt><trkpt lat="42.7869194" lon="12.3164258"><ele>515.0</ele><time>2026-04-12T10:25:19.554Z</time></trkpt><trkpt lat="42.7868457" lon="12.3162679"><ele>515.0</ele><time>2026-04-12T10:25:20.552Z</time></trkpt><trkpt lat="42.786773" lon="12.3161277"><ele>515.0</ele><time>2026-04-12T10:25:21.544Z</time></trkpt><trkpt lat="42.7866666" lon="12.3160499"><ele>514.75</ele><time>2026-04-12T10:25:22.551Z</time></trkpt><trkpt lat="42.7865559" lon="12.3160412"><ele>514.5</ele><time>2026-04-12T10:25:23.549Z</time></trkpt><trkpt lat="42.786437" lon="12.3160426"><ele>514.25</ele><time>2026-04-12T10:25:24.56Z</time></trkpt><trkpt lat="42.786313" lon="12.3161334"><ele>514.0</ele><time>2026-04-12T10:25:25.554Z</time></trkpt><trkpt lat="42.7862006" lon="12.3162042"><ele>514.0</ele><time>2026-04-12T10:25:26.563Z</time></trkpt><trkpt lat="42.7860939" lon="12.3161988"><ele>514.0</ele><time>2026-04-12T10:25:27.553Z</time></trkpt><trkpt lat="42.7859823" lon="12.316135"><ele>514.0</ele><time>2026-04-12T10:25:28.54Z</time></trkpt><trkpt lat="42.7858424" lon="12.3160331"><ele>514.0</ele><time>2026-04-12T10:25:29.554Z</time></trkpt><trkpt lat="42.7856869" lon="12.315939"><ele>515.0</ele><time>2026-04-12T10:25:30.54Z</time></trkpt><trkpt lat="42.7855" lon="12.3158443"><ele>516.0</ele><time>2026-04-12T10:25:31.566Z</time></trkpt><trkpt lat="42.7853094" lon="12.3157596"><ele>517.0</ele><time>2026-04-12T10:25:32.563Z</time></trkpt><trkpt lat="42.7851159" lon="12.3156687"><ele>517.0</ele><time>2026-04-12T10:25:33.568Z</time></trkpt><trkpt lat="42.7849181" lon="12.3155858"><ele>517.0</ele><time>2026-04-12T10:25:34.572Z</time></trkpt><trkpt lat="42.784729" lon="12.3155095"><ele>517.0</ele><time>2026-04-12T10:25:35.571Z</time></trkpt><trkpt lat="42.7845529" lon="12.3154469"><ele>521.0</ele><time>2026-04-12T10:25:36.571Z</time></trkpt><trkpt lat="42.7843959" lon="12.3153876"><ele>525.0</ele><time>2026-04-12T10:25:37.575Z</time></trkpt><trkpt lat="42.784238" lon="12.3153129"><ele>529.0</ele><time>2026-04-12T10:25:38.568Z</time></trkpt><trkpt lat="42.784085" lon="12.3152038"><ele>529.0</ele><time>2026-04-12T10:25:39.573Z</time></trkpt><trkpt lat="42.7839354" lon="12.3150788"><ele>529.0</ele><time>2026-04-12T10:25:40.57Z</time></trkpt><trkpt lat="42.7837702" lon="12.3149798"><ele>529.0</ele><time>2026-04-12T10:25:41.571Z</time></trkpt><trkpt lat="42.7835865" lon="12.314928"><ele>530.0</ele><time>2026-04-12T10:25:42.559Z</time></trkpt><trkpt lat="42.7833887" lon="12.3149102"><ele>531.0</ele><time>2026-04-12T10:25:43.569Z</time></trkpt><trkpt lat="42.783183" lon="12.3149071"><ele>532.0</ele><time>2026-04-12T10:25:44.552Z</time></trkpt><trkpt lat="42.7829799" lon="12.3149234"><ele>532.0</ele><time>2026-04-12T10:25:45.562Z</time></trkpt><trkpt lat="42.7827877" lon="12.3149645"><ele>532.0</ele><time>2026-04-12T10:25:46.568Z</time></trkpt><trkpt lat="42.7826091" lon="12.3149952"><ele>532.0</ele><time>2026-04-12T10:25:47.57Z</time></trkpt><trkpt lat="42.7824504" lon="12.3149979"><ele>533.25</ele><time>2026-04-12T10:25:48.554Z</time></trkpt><trkpt lat="42.7823113" lon="12.3149827"><ele>534.5</ele><time>2026-04-12T10:25:49.547Z</time></trkpt><trkpt lat="42.7821784" lon="12.3149627"><ele>535.75</ele><time>2026-04-12T10:25:50.556Z</time></trkpt><trkpt lat="42.7820672" lon="12.3149504"><ele>537.0</ele><time>2026-04-12T10:25:51.558Z</time></trkpt><trkpt lat="42.7819541" lon="12.3149247"><ele>537.0</ele><time>2026-04-12T10:25:52.549Z</time></trkpt><trkpt lat="42.7818496" lon="12.314877"><ele>537.0</ele><time>2026-04-12T10:25:53.55Z</time></trkpt><trkpt lat="42.781768" lon="12.3147987"><ele>537.0</ele><time>2026-04-12T10:25:54.556Z</time></trkpt><trkpt lat="42.7817166" lon="12.314693"><ele>537.0</ele><time>2026-04-12T10:25:55.549Z</time></trkpt><trkpt lat="42.7817066" lon="12.3145624"><ele>537.0</ele><time>2026-04-12T10:25:56.555Z</time></trkpt><trkpt lat="42.7817241" lon="12.3144124"><ele>537.25</ele><time>2026-04-12T10:25:57.543Z</time></trkpt><trkpt lat="42.7817427" lon="12.3142515"><ele>537.5</ele><time>2026-04-12T10:25:58.57Z</time></trkpt><trkpt lat="42.7817404" lon="12.3140786"><ele>537.75</ele><time>2026-04-12T10:25:59.567Z</time></trkpt><trkpt lat="42.7817011" lon="12.3139108"><ele>538.0</ele><time>2026-04-12T10:26:00.563Z</time></trkpt><trkpt lat="42.7816415" lon="12.3137857"><ele>538.1666666666667</ele><time>2026-04-12T10:26:01.563Z</time></trkpt><trkpt lat="42.7815669" lon="12.3136751"><ele>538.3333333333334</ele><time>2026-04-12T10:26:02.563Z</time></trkpt><trkpt lat="42.7815067" lon="12.3135604"><ele>538.5</ele><time>2026-04-12T10:26:03.573Z</time></trkpt><trkpt lat="42.7815006" lon="12.3134513"><ele>538.6666666666666</ele><time>2026-04-12T10:26:04.552Z</time></trkpt><trkpt lat="42.7815473" lon="12.3133877"><ele>538.8333333333333</ele><time>2026-04-12T10:26:05.548Z</time></trkpt><trkpt lat="42.781612" lon="12.3133598"><ele>539.0</ele><time>2026-04-12T10:26:06.535Z</time></trkpt><trkpt lat="42.7817364" lon="12.3133388"><ele>539.0</ele><time>2026-04-12T10:26:08.544Z</time></trkpt><trkpt lat="42.78181" lon="12.3133301"><ele>539.0</ele><time>2026-04-12T10:26:09.55Z</time></trkpt><trkpt lat="42.781891" lon="12.3133242"><ele>539.0</ele><time>2026-04-12T10:26:10.573Z</time></trkpt><trkpt lat="42.7819776" lon="12.3133174"><ele>539.0</ele><time>2026-04-12T10:26:11.557Z</time></trkpt><trkpt lat="42.7820738" lon="12.3133099"><ele>539.0</ele><time>2026-04-12T10:26:12.581Z</time></trkpt><trkpt lat="42.7821762" lon="12.313298"><ele>539.0</ele><time>2026-04-12T10:26:13.556Z</time></trkpt><trkpt lat="42.7822895" lon="12.3132883"><ele>541.25</ele><time>2026-04-12T10:26:14.557Z</time></trkpt><trkpt lat="42.7824171" lon="12.3132787"><ele>543.5</ele><time>2026-04-12T10:26:15.556Z</time></trkpt><trkpt lat="42.7825559" lon="12.3132711"><ele>545.75</ele><time>2026-04-12T10:26:16.562Z</time></trkpt><trkpt lat="42.7827081" lon="12.3132632"><ele>548.0</ele><time>2026-04-12T10:26:17.552Z</time></trkpt><trkpt lat="42.7828597" lon="12.3132486"><ele>547.3333333333333</ele><time>2026-04-12T10:26:18.55Z</time></trkpt><trkpt lat="42.7830062" lon="12.3131999"><ele>546.6666666666666</ele><time>2026-04-12T10:26:19.544Z</time></trkpt><trkpt lat="42.7831459" lon="12.3130975"><ele>546.0</ele><time>2026-04-12T10:26:20.539Z</time></trkpt><trkpt lat="42.7832723" lon="12.3129611"><ele>546.0</ele><time>2026-04-12T10:26:21.555Z</time></trkpt><trkpt lat="42.7833938" lon="12.3128354"><ele>546.0</ele><time>2026-04-12T10:26:22.554Z</time></trkpt><trkpt lat="42.7835215" lon="12.312739"><ele>546.0</ele><time>2026-04-12T10:26:23.556Z</time></trkpt><trkpt lat="42.7836646" lon="12.3126811"><ele>546.0</ele><time>2026-04-12T10:26:24.545Z</time></trkpt><trkpt lat="42.783819" lon="12.3126675"><ele>548.0</ele><time>2026-04-12T10:26:25.547Z</time></trkpt><trkpt lat="42.7839806" lon="12.3126941"><ele>550.0</ele><time>2026-04-12T10:26:26.539Z</time></trkpt><trkpt lat="42.784132" lon="12.3127574"><ele>552.0</ele><time>2026-04-12T10:26:27.549Z</time></trkpt><trkpt lat="42.7842599" lon="12.3128446"><ele>553.8000000000001</ele><time>2026-04-12T10:26:28.543Z</time></trkpt><trkpt lat="42.7843688" lon="12.3129251"><ele>555.6</ele><time>2026-04-12T10:26:29.541Z</time></trkpt><trkpt lat="42.7844616" lon="12.3129911"><ele>557.4000000000001</ele><time>2026-04-12T10:26:30.549Z</time></trkpt><trkpt lat="42.7845513" lon="12.3130288"><ele>559.2</ele><time>2026-04-12T10:26:31.541Z</time></trkpt><trkpt lat="42.7846477" lon="12.3130297"><ele>561.0</ele><time>2026-04-12T10:26:32.549Z</time></trkpt><trkpt lat="42.7847502" lon="12.3130059"><ele>561.0</ele><time>2026-04-12T10:26:33.542Z</time></trkpt><trkpt lat="42.7848322" lon="12.3128828"><ele>561.0</ele><time>2026-04-12T10:26:34.552Z</time></trkpt><trkpt lat="42.7849096" lon="12.3127353"><ele>561.0</ele><time>2026-04-12T10:26:35.555Z</time></trkpt><trkpt lat="42.784983" lon="12.31256"><ele>561.0</ele><time>2026-04-12T10:26:36.544Z</time></trkpt><trkpt lat="42.7850624" lon="12.3123738"><ele>561.75</ele><time>2026-04-12T10:26:37.55Z</time></trkpt><trkpt lat="42.7851475" lon="12.3122114"><ele>562.5</ele><time>2026-04-12T10:26:38.559Z</time></trkpt><trkpt lat="42.7852533" lon="12.3120767"><ele>563.25</ele><time>2026-04-12T10:26:39.552Z</time></trkpt><trkpt lat="42.7853817" lon="12.3119792"><ele>564.0</ele><time>2026-04-12T10:26:40.544Z</time></trkpt><trkpt lat="42.785518" lon="12.3119264"><ele>564.0</ele><time>2026-04-12T10:26:41.549Z</time></trkpt><trkpt lat="42.7856525" lon="12.3119173"><ele>564.0</ele><time>2026-04-12T10:26:42.553Z</time></trkpt><trkpt lat="42.7857832" lon="12.311951"><ele>564.0</ele><time>2026-04-12T10:26:43.556Z</time></trkpt><trkpt lat="42.7859101" lon="12.3120236"><ele>564.0</ele><time>2026-04-12T10:26:44.563Z</time></trkpt><trkpt lat="42.7860409" lon="12.3120881"><ele>565.25</ele><time>2026-04-12T10:26:45.55Z</time></trkpt><trkpt lat="42.7861789" lon="12.3121114"><ele>566.5</ele><time>2026-04-12T10:26:46.568Z</time></trkpt><trkpt lat="42.7863214" lon="12.3120959"><ele>567.75</ele><time>2026-04-12T10:26:47.549Z</time></trkpt><trkpt lat="42.7864614" lon="12.3119878"><ele>569.0</ele><time>2026-04-12T10:26:48.547Z</time></trkpt><trkpt lat="42.7866085" lon="12.3118588"><ele>569.0</ele><time>2026-04-12T10:26:49.559Z</time></trkpt><trkpt lat="42.7867657" lon="12.3117508"><ele>569.0</ele><time>2026-04-12T10:26:50.55Z</time></trkpt><trkpt lat="42.7869203" lon="12.3116739"><ele>569.0</ele><time>2026-04-12T10:26:51.56Z</time></trkpt><trkpt lat="42.7870798" lon="12.3116871"><ele>571.25</ele><time>2026-04-12T10:26:52.55Z</time></trkpt><trkpt lat="42.7872357" lon="12.3116976"><ele>573.5</ele><time>2026-04-12T10:26:53.556Z</time></trkpt><trkpt lat="42.7873735" lon="12.3116598"><ele>575.75</ele><time>2026-04-12T10:26:54.552Z</time></trkpt><trkpt lat="42.7875004" lon="12.3115536"><ele>578.0</ele><time>2026-04-12T10:26:55.543Z</time></trkpt><trkpt lat="42.7876323" lon="12.3114464"><ele>578.3333333333333</ele><time>2026-04-12T10:26:56.553Z</time></trkpt><trkpt lat="42.7877611" lon="12.3113523"><ele>578.6666666666666</ele><time>2026-04-12T10:26:57.561Z</time></trkpt><trkpt lat="42.787935" lon="12.3113498"><ele>579.0</ele><time>2026-04-12T10:26:58.537Z</time></trkpt><trkpt lat="42.7880979" lon="12.3113599"><ele>579.0</ele><time>2026-04-12T10:26:59.549Z</time></trkpt><trkpt lat="42.7882529" lon="12.3113479"><ele>579.0</ele><time>2026-04-12T10:27:00.547Z</time></trkpt><trkpt lat="42.7884027" lon="12.3113205"><ele>579.0</ele><time>2026-04-12T10:27:01.552Z</time></trkpt><trkpt lat="42.788543" lon="12.3111974"><ele>581.6666666666666</ele><time>2026-04-12T10:27:02.537Z</time></trkpt><trkpt lat="42.7886323" lon="12.3109978"><ele>584.3333333333333</ele><time>2026-04-12T10:27:03.546Z</time></trkpt><trkpt lat="42.7886921" lon="12.3108095"><ele>587.0</ele><time>2026-04-12T10:27:04.549Z</time></trkpt><trkpt lat="42.7887547" lon="12.310616"><ele>587.3333333333333</ele><time>2026-04-12T10:27:05.552Z</time></trkpt><trkpt lat="42.7888296" lon="12.3104121"><ele>587.6666666666666</ele><time>2026-04-12T10:27:06.554Z</time></trkpt><trkpt lat="42.7889356" lon="12.3102207"><ele>588.0</ele><time>2026-04-12T10:27:07.551Z</time></trkpt><trkpt lat="42.789082" lon="12.3100735"><ele>588.0</ele><time>2026-04-12T10:27:08.532Z</time></trkpt><trkpt lat="42.7892332" lon="12.3099406"><ele>588.0</ele><time>2026-04-12T10:27:09.524Z</time></trkpt><trkpt lat="42.7894038" lon="12.3098169"><ele>588.0</ele><time>2026-04-12T10:27:10.555Z</time></trkpt><trkpt lat="42.7895545" lon="12.309651"><ele>589.0</ele><time>2026-04-12T10:27:11.546Z</time></trkpt><trkpt lat="42.7897019" lon="12.3095048"><ele>590.0</ele><time>2026-04-12T10:27:12.546Z</time></trkpt><trkpt lat="42.7898433" lon="12.3094119"><ele>591.0</ele><time>2026-04-12T10:27:13.55Z</time></trkpt><trkpt lat="42.7899996" lon="12.3093696"><ele>591.0</ele><time>2026-04-12T10:27:14.547Z</time></trkpt><trkpt lat="42.790161" lon="12.3093719"><ele>591.0</ele><time>2026-04-12T10:27:15.545Z</time></trkpt><trkpt lat="42.7903021" lon="12.3093797"><ele>591.0</ele><time>2026-04-12T10:27:16.553Z</time></trkpt><trkpt lat="42.7904322" lon="12.3093491"><ele>591.0</ele><time>2026-04-12T10:27:17.552Z</time></trkpt><trkpt lat="42.7905465" lon="12.3092587"><ele>592.25</ele><time>2026-04-12T10:27:18.543Z</time></trkpt><trkpt lat="42.7906414" lon="12.3091235"><ele>593.5</ele><time>2026-04-12T10:27:19.55Z</time></trkpt><trkpt lat="42.7907117" lon="12.308962"><ele>594.75</ele><time>2026-04-12T10:27:20.55Z</time></trkpt><trkpt lat="42.7907401" lon="12.3087913"><ele>596.0</ele><time>2026-04-12T10:27:21.558Z</time></trkpt><trkpt lat="42.7907349" lon="12.3086201"><ele>596.0</ele><time>2026-04-12T10:27:22.541Z</time></trkpt><trkpt lat="42.7907004" lon="12.3084513"><ele>596.0</ele><time>2026-04-12T10:27:23.55Z</time></trkpt><trkpt lat="42.7906686" lon="12.3082891"><ele>596.0</ele><time>2026-04-12T10:27:24.548Z</time></trkpt><trkpt lat="42.7906761" lon="12.3081378"><ele>596.0</ele><time>2026-04-12T10:27:25.55Z</time></trkpt><trkpt lat="42.7907355" lon="12.3080119"><ele>596.5</ele><time>2026-04-12T10:27:26.55Z</time></trkpt><trkpt lat="42.790832" lon="12.3079093"><ele>597.0</ele><time>2026-04-12T10:27:27.55Z</time></trkpt><trkpt lat="42.7909557" lon="12.307791"><ele>597.5</ele><time>2026-04-12T10:27:28.551Z</time></trkpt><trkpt lat="42.7910761" lon="12.3076683"><ele>598.0</ele><time>2026-04-12T10:27:29.548Z</time></trkpt><trkpt lat="42.791194" lon="12.3075353"><ele>598.0</ele><time>2026-04-12T10:27:30.555Z</time></trkpt><trkpt lat="42.7913124" lon="12.3073877"><ele>598.0</ele><time>2026-04-12T10:27:31.555Z</time></trkpt><trkpt lat="42.7914232" lon="12.307241"><ele>598.0</ele><time>2026-04-12T10:27:32.554Z</time></trkpt><trkpt lat="42.79152" lon="12.3071092"><ele>598.1999999999999</ele><time>2026-04-12T10:27:33.559Z</time></trkpt><trkpt lat="42.7915936" lon="12.3069817"><ele>598.4</ele><time>2026-04-12T10:27:34.551Z</time></trkpt><trkpt lat="42.7916225" lon="12.306845"><ele>598.5999999999999</ele><time>2026-04-12T10:27:35.549Z</time></trkpt><trkpt lat="42.7915992" lon="12.3067136"><ele>598.8</ele><time>2026-04-12T10:27:36.547Z</time></trkpt><trkpt lat="42.7915281" lon="12.3066083"><ele>599.0</ele><time>2026-04-12T10:27:37.554Z</time></trkpt><trkpt lat="42.7914267" lon="12.3065267"><ele>599.0</ele><time>2026-04-12T10:27:38.552Z</time></trkpt><trkpt lat="42.7913138" lon="12.3064468"><ele>599.0</ele><time>2026-04-12T10:27:39.551Z</time></trkpt><trkpt lat="42.7912177" lon="12.3063715"><ele>599.0</ele><time>2026-04-12T10:27:40.542Z</time></trkpt><trkpt lat="42.7911413" lon="12.3062972"><ele>599.0</ele><time>2026-04-12T10:27:41.554Z</time></trkpt><trkpt lat="42.7910915" lon="12.3062103"><ele>599.0</ele><time>2026-04-12T10:27:42.548Z</time></trkpt><trkpt lat="42.7910744" lon="12.3061188"><ele>599.1666666666666</ele><time>2026-04-12T10:27:43.544Z</time></trkpt><trkpt lat="42.7910836" lon="12.3060241"><ele>599.3333333333333</ele><time>2026-04-12T10:27:44.559Z</time></trkpt><trkpt lat="42.7911077" lon="12.3059194"><ele>599.5</ele><time>2026-04-12T10:27:45.552Z</time></trkpt><trkpt lat="42.7911369" lon="12.3058041"><ele>599.6666666666666</ele><time>2026-04-12T10:27:46.55Z</time></trkpt><trkpt lat="42.7911458" lon="12.3056706"><ele>599.8333333333334</ele><time>2026-04-12T10:27:47.557Z</time></trkpt><trkpt lat="42.7911222" lon="12.3055378"><ele>600.0</ele><time>2026-04-12T10:27:48.552Z</time></trkpt><trkpt lat="42.7910598" lon="12.3054167"><ele>599.25</ele><time>2026-04-12T10:27:49.536Z</time></trkpt><trkpt lat="42.7909697" lon="12.3053076"><ele>598.5</ele><time>2026-04-12T10:27:50.546Z</time></trkpt><trkpt lat="42.7908625" lon="12.3051924"><ele>597.75</ele><time>2026-04-12T10:27:51.548Z</time></trkpt><trkpt lat="42.7907515" lon="12.3050641"><ele>597.0</ele><time>2026-04-12T10:27:52.551Z</time></trkpt><trkpt lat="42.790631" lon="12.304937"><ele>597.0</ele><time>2026-04-12T10:27:53.557Z</time></trkpt><trkpt lat="42.7905168" lon="12.3048141"><ele>597.0</ele><time>2026-04-12T10:27:54.556Z</time></trkpt><trkpt lat="42.7904199" lon="12.304706"><ele>597.0</ele><time>2026-04-12T10:27:55.569Z</time></trkpt><trkpt lat="42.7903449" lon="12.3046078"><ele>597.0</ele><time>2026-04-12T10:27:56.558Z</time></trkpt><trkpt lat="42.7902969" lon="12.3045147"><ele>597.6666666666666</ele><time>2026-04-12T10:27:57.544Z</time></trkpt><trkpt lat="42.7902792" lon="12.3044251"><ele>598.3333333333334</ele><time>2026-04-12T10:27:58.553Z</time></trkpt><trkpt lat="42.7902892" lon="12.304277"><ele>599.0</ele><time>2026-04-12T10:28:00.549Z</time></trkpt><trkpt lat="42.7903308" lon="12.3042089"><ele>599.6666666666667</ele><time>2026-04-12T10:28:01.548Z</time></trkpt><trkpt lat="42.7903816" lon="12.3041412"><ele>600.3333333333334</ele><time>2026-04-12T10:28:02.548Z</time></trkpt><trkpt lat="42.7904789" lon="12.3040849"><ele>601.0</ele><time>2026-04-12T10:28:03.552Z</time></trkpt><trkpt lat="42.7905873" lon="12.3040396"><ele>601.0</ele><time>2026-04-12T10:28:04.557Z</time></trkpt><trkpt lat="42.7906999" lon="12.3039818"><ele>601.0</ele><time>2026-04-12T10:28:05.55Z</time></trkpt><trkpt lat="42.790808" lon="12.3038854"><ele>601.0</ele><time>2026-04-12T10:28:06.551Z</time></trkpt><trkpt lat="42.7908999" lon="12.3037532"><ele>601.0</ele><time>2026-04-12T10:28:07.555Z</time></trkpt><trkpt lat="42.7909995" lon="12.3036114"><ele>602.0</ele><time>2026-04-12T10:28:08.554Z</time></trkpt><trkpt lat="42.7911226" lon="12.3034963"><ele>603.0</ele><time>2026-04-12T10:28:09.557Z</time></trkpt><trkpt lat="42.7912599" lon="12.303395"><ele>604.0</ele><time>2026-04-12T10:28:10.566Z</time></trkpt><trkpt lat="42.7913862" lon="12.3032911"><ele>604.0</ele><time>2026-04-12T10:28:11.552Z</time></trkpt><trkpt lat="42.7914823" lon="12.3031668"><ele>604.0</ele><time>2026-04-12T10:28:12.55Z</time></trkpt><trkpt lat="42.7915432" lon="12.3030094"><ele>604.0</ele><time>2026-04-12T10:28:13.543Z</time></trkpt><trkpt lat="42.791568" lon="12.3028286"><ele>604.0</ele><time>2026-04-12T10:28:14.558Z</time></trkpt><trkpt lat="42.7915705" lon="12.3026347"><ele>605.25</ele><time>2026-04-12T10:28:15.537Z</time></trkpt><trkpt lat="42.7915709" lon="12.3024375"><ele>606.5</ele><time>2026-04-12T10:28:16.552Z</time></trkpt><trkpt lat="42.7915651" lon="12.302246"><ele>607.75</ele><time>2026-04-12T10:28:17.555Z</time></trkpt><trkpt lat="42.7915342" lon="12.30208"><ele>609.0</ele><time>2026-04-12T10:28:18.552Z</time></trkpt><trkpt lat="42.7914679" lon="12.3019558"><ele>609.0</ele><time>2026-04-12T10:28:19.548Z</time></trkpt><trkpt lat="42.7913686" lon="12.3018742"><ele>609.0</ele><time>2026-04-12T10:28:20.547Z</time></trkpt><trkpt lat="42.7912438" lon="12.3018246"><ele>609.0</ele><time>2026-04-12T10:28:21.548Z</time></trkpt><trkpt lat="42.7911003" lon="12.3017856"><ele>609.0</ele><time>2026-04-12T10:28:22.55Z</time></trkpt><trkpt lat="42.7909406" lon="12.3017442"><ele>609.3333333333334</ele><time>2026-04-12T10:28:23.555Z</time></trkpt><trkpt lat="42.7907766" lon="12.3016813"><ele>609.6666666666667</ele><time>2026-04-12T10:28:24.561Z</time></trkpt><trkpt lat="42.7906213" lon="12.301625"><ele>610.0</ele><time>2026-04-12T10:28:25.567Z</time></trkpt><trkpt lat="42.7904846" lon="12.3015661"><ele>610.0</ele><time>2026-04-12T10:28:26.574Z</time></trkpt><trkpt lat="42.7903644" lon="12.3014974"><ele>610.0</ele><time>2026-04-12T10:28:27.562Z</time></trkpt><trkpt lat="42.7902413" lon="12.3014335"><ele>610.0</ele><time>2026-04-12T10:28:28.556Z</time></trkpt><trkpt lat="42.7901032" lon="12.3014378"><ele>610.0</ele><time>2026-04-12T10:28:29.573Z</time></trkpt><trkpt lat="42.7899624" lon="12.3014922"><ele>610.0</ele><time>2026-04-12T10:28:30.551Z</time></trkpt><trkpt lat="42.789844" lon="12.3015668"><ele>610.0</ele><time>2026-04-12T10:28:31.55Z</time></trkpt><trkpt lat="42.7897246" lon="12.3016266"><ele>610.0</ele><time>2026-04-12T10:28:32.554Z</time></trkpt><trkpt lat="42.7895961" lon="12.3016496"><ele>610.0</ele><time>2026-04-12T10:28:33.553Z</time></trkpt><trkpt lat="42.789463" lon="12.301613"><ele>610.25</ele><time>2026-04-12T10:28:34.549Z</time></trkpt><trkpt lat="42.7893367" lon="12.3015245"><ele>610.5</ele><time>2026-04-12T10:28:35.55Z</time></trkpt><trkpt lat="42.789219" lon="12.3013996"><ele>610.75</ele><time>2026-04-12T10:28:36.554Z</time></trkpt><trkpt lat="42.7891096" lon="12.3012526"><ele>611.0</ele><time>2026-04-12T10:28:37.55Z</time></trkpt><trkpt lat="42.7890203" lon="12.3010979"><ele>609.0</ele><time>2026-04-12T10:28:38.554Z</time></trkpt><trkpt lat="42.7889371" lon="12.3009497"><ele>607.0</ele><time>2026-04-12T10:28:39.566Z</time></trkpt><trkpt lat="42.7888645" lon="12.3008099"><ele>605.0</ele><time>2026-04-12T10:28:40.543Z</time></trkpt><trkpt lat="42.7887265" lon="12.3007503"><ele>603.0</ele><time>2026-04-12T10:28:41.55Z</time></trkpt><trkpt lat="42.788584" lon="12.3007539"><ele>604.0</ele><time>2026-04-12T10:28:42.549Z</time></trkpt><trkpt lat="42.7884374" lon="12.3008032"><ele>605.0</ele><time>2026-04-12T10:28:43.558Z</time></trkpt><trkpt lat="42.7882805" lon="12.3008803"><ele>606.0</ele><time>2026-04-12T10:28:44.559Z</time></trkpt><trkpt lat="42.7881153" lon="12.3009564"><ele>606.0</ele><time>2026-04-12T10:28:45.555Z</time></trkpt><trkpt lat="42.7879584" lon="12.3010309"><ele>606.0</ele><time>2026-04-12T10:28:46.557Z</time></trkpt><trkpt lat="42.7878137" lon="12.301097"><ele>606.0</ele><time>2026-04-12T10:28:47.555Z</time></trkpt><trkpt lat="42.7876741" lon="12.3011301"><ele>605.25</ele><time>2026-04-12T10:28:48.553Z</time></trkpt><trkpt lat="42.7875456" lon="12.3010979"><ele>604.5</ele><time>2026-04-12T10:28:49.55Z</time></trkpt><trkpt lat="42.7874335" lon="12.3010087"><ele>603.75</ele><time>2026-04-12T10:28:50.549Z</time></trkpt><trkpt lat="42.787337" lon="12.3008772"><ele>603.0</ele><time>2026-04-12T10:28:51.552Z</time></trkpt><trkpt lat="42.7872495" lon="12.3007388"><ele>603.0</ele><time>2026-04-12T10:28:52.557Z</time></trkpt><trkpt lat="42.7871551" lon="12.3006263"><ele>603.0</ele><time>2026-04-12T10:28:53.551Z</time></trkpt><trkpt lat="42.7870266" lon="12.3005707"><ele>603.0</ele><time>2026-04-12T10:28:54.552Z</time></trkpt><trkpt lat="42.7868874" lon="12.3005629"><ele>603.0</ele><time>2026-04-12T10:28:55.547Z</time></trkpt><trkpt lat="42.786753" lon="12.3005723"><ele>602.5</ele><time>2026-04-12T10:28:56.547Z</time></trkpt><trkpt lat="42.7866204" lon="12.3005492"><ele>602.0</ele><time>2026-04-12T10:28:57.555Z</time></trkpt><trkpt lat="42.7865112" lon="12.3004739"><ele>601.5</ele><time>2026-04-12T10:28:58.552Z</time></trkpt><trkpt lat="42.786434" lon="12.3003568"><ele>601.0</ele><time>2026-04-12T10:28:59.547Z</time></trkpt><trkpt lat="42.7863824" lon="12.300208"><ele>601.0</ele><time>2026-04-12T10:29:00.548Z</time></trkpt><trkpt lat="42.7863476" lon="12.3000308"><ele>601.0</ele><time>2026-04-12T10:29:01.551Z</time></trkpt><trkpt lat="42.78632" lon="12.299837"><ele>601.0</ele><time>2026-04-12T10:29:02.553Z</time></trkpt><trkpt lat="42.786292" lon="12.2996068"><ele>599.3333333333334</ele><time>2026-04-12T10:29:03.55Z</time></trkpt><trkpt lat="42.7862761" lon="12.2993621"><ele>597.6666666666666</ele><time>2026-04-12T10:29:04.556Z</time></trkpt><trkpt lat="42.7862562" lon="12.2990988"><ele>596.0</ele><time>2026-04-12T10:29:05.55Z</time></trkpt><trkpt lat="42.7862174" lon="12.2988359"><ele>594.3333333333333</ele><time>2026-04-12T10:29:06.553Z</time></trkpt><trkpt lat="42.7861681" lon="12.2985908"><ele>592.6666666666666</ele><time>2026-04-12T10:29:07.551Z</time></trkpt><trkpt lat="42.7861364" lon="12.2983487"><ele>591.0</ele><time>2026-04-12T10:29:08.551Z</time></trkpt><trkpt lat="42.7861389" lon="12.2981095"><ele>589.6666666666666</ele><time>2026-04-12T10:29:09.558Z</time></trkpt><trkpt lat="42.7861533" lon="12.2978849"><ele>588.3333333333333</ele><time>2026-04-12T10:29:10.553Z</time></trkpt><trkpt lat="42.7861553" lon="12.297673"><ele>587.0</ele><time>2026-04-12T10:29:11.553Z</time></trkpt><trkpt lat="42.7861191" lon="12.2974699"><ele>587.0</ele><time>2026-04-12T10:29:12.553Z</time></trkpt><trkpt lat="42.7860685" lon="12.2972672"><ele>587.0</ele><time>2026-04-12T10:29:13.534Z</time></trkpt><trkpt lat="42.7859614" lon="12.2970973"><ele>587.0</ele><time>2026-04-12T10:29:14.545Z</time></trkpt><trkpt lat="42.7858539" lon="12.2969384"><ele>588.0</ele><time>2026-04-12T10:29:15.546Z</time></trkpt><trkpt lat="42.785748" lon="12.2967726"><ele>589.0</ele><time>2026-04-12T10:29:16.556Z</time></trkpt><trkpt lat="42.7856414" lon="12.2966166"><ele>590.0</ele><time>2026-04-12T10:29:17.555Z</time></trkpt><trkpt lat="42.7855367" lon="12.2964854"><ele>590.0</ele><time>2026-04-12T10:29:18.557Z</time></trkpt><trkpt lat="42.7854179" lon="12.2963999"><ele>590.0</ele><time>2026-04-12T10:29:19.544Z</time></trkpt><trkpt lat="42.7852813" lon="12.2963766"><ele>590.0</ele><time>2026-04-12T10:29:20.549Z</time></trkpt><trkpt lat="42.7851376" lon="12.2964128"><ele>590.0</ele><time>2026-04-12T10:29:21.568Z</time></trkpt><trkpt lat="42.7849936" lon="12.2964696"><ele>590.0</ele><time>2026-04-12T10:29:22.557Z</time></trkpt><trkpt lat="42.7848385" lon="12.2965227"><ele>590.0</ele><time>2026-04-12T10:29:23.558Z</time></trkpt><trkpt lat="42.7846748" lon="12.2965803"><ele>590.0</ele><time>2026-04-12T10:29:24.559Z</time></trkpt><trkpt lat="42.7845" lon="12.2966362"><ele>589.3333333333333</ele><time>2026-04-12T10:29:25.557Z</time></trkpt><trkpt lat="42.7843129" lon="12.2966527"><ele>588.6666666666666</ele><time>2026-04-12T10:29:26.555Z</time></trkpt><trkpt lat="42.7841154" lon="12.2966226"><ele>588.0</ele><time>2026-04-12T10:29:27.545Z</time></trkpt><trkpt lat="42.7839263" lon="12.2965498"><ele>588.0</ele><time>2026-04-12T10:29:28.574Z</time></trkpt><trkpt lat="42.783751" lon="12.2964628"><ele>588.0</ele><time>2026-04-12T10:29:29.556Z</time></trkpt><trkpt lat="42.7835899" lon="12.2963735"><ele>588.0</ele><time>2026-04-12T10:29:30.552Z</time></trkpt><trkpt lat="42.7834267" lon="12.2963206"><ele>588.6666666666666</ele><time>2026-04-12T10:29:31.553Z</time></trkpt><trkpt lat="42.7832731" lon="12.2963128"><ele>589.3333333333333</ele><time>2026-04-12T10:29:32.562Z</time></trkpt><trkpt lat="42.7831281" lon="12.2963596"><ele>590.0</ele><time>2026-04-12T10:29:33.548Z</time></trkpt><trkpt lat="42.7829864" lon="12.296487"><ele>590.0</ele><time>2026-04-12T10:29:34.552Z</time></trkpt><trkpt lat="42.7828698" lon="12.2966206"><ele>590.0</ele><time>2026-04-12T10:29:35.546Z</time></trkpt><trkpt lat="42.7827814" lon="12.2967324"><ele>590.0</ele><time>2026-04-12T10:29:36.556Z</time></trkpt><trkpt lat="42.7826866" lon="12.2967665"><ele>590.0</ele><time>2026-04-12T10:29:37.55Z</time></trkpt><trkpt lat="42.7826031" lon="12.2967382"><ele>589.6</ele><time>2026-04-12T10:29:38.545Z</time></trkpt><trkpt lat="42.7825575" lon="12.2966598"><ele>589.2</ele><time>2026-04-12T10:29:39.549Z</time></trkpt><trkpt lat="42.7825472" lon="12.2965374"><ele>588.8</ele><time>2026-04-12T10:29:40.549Z</time></trkpt><trkpt lat="42.782572" lon="12.2963998"><ele>588.4</ele><time>2026-04-12T10:29:41.554Z</time></trkpt><trkpt lat="42.7825873" lon="12.2962514"><ele>588.0</ele><time>2026-04-12T10:29:42.548Z</time></trkpt><trkpt lat="42.7825748" lon="12.2960965"><ele>585.5</ele><time>2026-04-12T10:29:43.554Z</time></trkpt><trkpt lat="42.7824914" lon="12.2959553"><ele>583.0</ele><time>2026-04-12T10:29:44.563Z</time></trkpt><trkpt lat="42.7823688" lon="12.2958388"><ele>580.5</ele><time>2026-04-12T10:29:45.554Z</time></trkpt><trkpt lat="42.7822474" lon="12.2956871"><ele>578.0</ele><time>2026-04-12T10:29:46.556Z</time></trkpt><trkpt lat="42.7821352" lon="12.2954982"><ele>575.3333333333333</ele><time>2026-04-12T10:29:47.552Z</time></trkpt><trkpt lat="42.7820285" lon="12.2952854"><ele>572.6666666666666</ele><time>2026-04-12T10:29:48.562Z</time></trkpt><trkpt lat="42.7819486" lon="12.2950725"><ele>570.0</ele><time>2026-04-12T10:29:49.563Z</time></trkpt><trkpt lat="42.7819087" lon="12.2948537"><ele>569.3333333333334</ele><time>2026-04-12T10:29:50.547Z</time></trkpt><trkpt lat="42.7819" lon="12.2946207"><ele>568.6666666666667</ele><time>2026-04-12T10:29:51.557Z</time></trkpt><trkpt lat="42.7818756" lon="12.2943799"><ele>568.0</ele><time>2026-04-12T10:29:52.554Z</time></trkpt><trkpt lat="42.7818283" lon="12.2941569"><ele>569.0</ele><time>2026-04-12T10:29:53.549Z</time></trkpt><trkpt lat="42.781748" lon="12.2939603"><ele>570.0</ele><time>2026-04-12T10:29:54.549Z</time></trkpt><trkpt lat="42.7816385" lon="12.2937894"><ele>571.0</ele><time>2026-04-12T10:29:55.55Z</time></trkpt><trkpt lat="42.7815114" lon="12.2936641"><ele>571.0</ele><time>2026-04-12T10:29:56.552Z</time></trkpt><trkpt lat="42.7813913" lon="12.2935512"><ele>571.0</ele><time>2026-04-12T10:29:57.553Z</time></trkpt><trkpt lat="42.7813004" lon="12.2934308"><ele>571.0</ele><time>2026-04-12T10:29:58.558Z</time></trkpt><trkpt lat="42.7812514" lon="12.2932974"><ele>571.0</ele><time>2026-04-12T10:29:59.549Z</time></trkpt><trkpt lat="42.781244" lon="12.2931598"><ele>570.25</ele><time>2026-04-12T10:30:00.551Z</time></trkpt><trkpt lat="42.7812778" lon="12.2930226"><ele>569.5</ele><time>2026-04-12T10:30:01.556Z</time></trkpt><trkpt lat="42.7813581" lon="12.2928921"><ele>568.75</ele><time>2026-04-12T10:30:02.551Z</time></trkpt><trkpt lat="42.7814662" lon="12.2927869"><ele>568.0</ele><time>2026-04-12T10:30:03.548Z</time></trkpt><trkpt lat="42.7815745" lon="12.2926773"><ele>568.0</ele><time>2026-04-12T10:30:04.547Z</time></trkpt><trkpt lat="42.7816636" lon="12.2925243"><ele>568.0</ele><time>2026-04-12T10:30:05.549Z</time></trkpt><trkpt lat="42.7817228" lon="12.2923462"><ele>568.0</ele><time>2026-04-12T10:30:06.551Z</time></trkpt><trkpt lat="42.7817597" lon="12.292171"><ele>568.0</ele><time>2026-04-12T10:30:07.551Z</time></trkpt><trkpt lat="42.781785" lon="12.2920208"><ele>567.75</ele><time>2026-04-12T10:30:08.555Z</time></trkpt><trkpt lat="42.7817473" lon="12.2918659"><ele>567.5</ele><time>2026-04-12T10:30:09.551Z</time></trkpt><trkpt lat="42.7816705" lon="12.291756"><ele>567.25</ele><time>2026-04-12T10:30:10.551Z</time></trkpt><trkpt lat="42.7815588" lon="12.2916922"><ele>567.0</ele><time>2026-04-12T10:30:11.564Z</time></trkpt><trkpt lat="42.7814305" lon="12.291645"><ele>567.0</ele><time>2026-04-12T10:30:12.553Z</time></trkpt><trkpt lat="42.7813069" lon="12.2915829"><ele>567.0</ele><time>2026-04-12T10:30:13.555Z</time></trkpt><trkpt lat="42.7811932" lon="12.2914899"><ele>567.0</ele><time>2026-04-12T10:30:14.545Z</time></trkpt><trkpt lat="42.7810852" lon="12.2913612"><ele>567.0</ele><time>2026-04-12T10:30:15.545Z</time></trkpt><trkpt lat="42.7809893" lon="12.2911935"><ele>565.3333333333334</ele><time>2026-04-12T10:30:16.548Z</time></trkpt><trkpt lat="42.7808987" lon="12.2909964"><ele>563.6666666666667</ele><time>2026-04-12T10:30:17.555Z</time></trkpt><trkpt lat="42.7808724" lon="12.290736"><ele>562.0</ele><time>2026-04-12T10:30:18.561Z</time></trkpt><trkpt lat="42.7808503" lon="12.2904753"><ele>560.6666666666667</ele><time>2026-04-12T10:30:19.545Z</time></trkpt><trkpt lat="42.780813" lon="12.2902277"><ele>559.3333333333334</ele><time>2026-04-12T10:30:20.559Z</time></trkpt><trkpt lat="42.7807454" lon="12.2899848"><ele>558.0</ele><time>2026-04-12T10:30:21.551Z</time></trkpt><trkpt lat="42.780634" lon="12.2897523"><ele>556.6666666666666</ele><time>2026-04-12T10:30:22.544Z</time></trkpt><trkpt lat="42.7805042" lon="12.2895308"><ele>555.3333333333333</ele><time>2026-04-12T10:30:23.559Z</time></trkpt><trkpt lat="42.7803861" lon="12.2893015"><ele>554.0</ele><time>2026-04-12T10:30:24.563Z</time></trkpt><trkpt lat="42.78029" lon="12.2890613"><ele>554.0</ele><time>2026-04-12T10:30:25.557Z</time></trkpt><trkpt lat="42.7802218" lon="12.2888367"><ele>554.0</ele><time>2026-04-12T10:30:26.553Z</time></trkpt><trkpt lat="42.7801716" lon="12.2886435"><ele>554.0</ele><time>2026-04-12T10:30:27.55Z</time></trkpt><trkpt lat="42.7801303" lon="12.2884832"><ele>554.0</ele><time>2026-04-12T10:30:28.556Z</time></trkpt><trkpt lat="42.780097" lon="12.2883498"><ele>554.0</ele><time>2026-04-12T10:30:29.557Z</time></trkpt><trkpt lat="42.7800842" lon="12.288236"><ele>554.0</ele><time>2026-04-12T10:30:30.54Z</time></trkpt><trkpt lat="42.7801097" lon="12.2881432"><ele>554.0</ele><time>2026-04-12T10:30:31.548Z</time></trkpt><trkpt lat="42.7801478" lon="12.2880748"><ele>554.0</ele><time>2026-04-12T10:30:32.555Z</time></trkpt><trkpt lat="42.7802325" lon="12.2881014"><ele>554.0</ele><time>2026-04-12T10:30:33.55Z</time></trkpt><trkpt lat="42.7803169" lon="12.2881848"><ele>552.75</ele><time>2026-04-12T10:30:34.546Z</time></trkpt><trkpt lat="42.7804078" lon="12.2883028"><ele>551.5</ele><time>2026-04-12T10:30:35.549Z</time></trkpt><trkpt lat="42.7805082" lon="12.2884295"><ele>550.25</ele><time>2026-04-12T10:30:36.55Z</time></trkpt><trkpt lat="42.7805997" lon="12.2885498"><ele>549.0</ele><time>2026-04-12T10:30:37.56Z</time></trkpt><trkpt lat="42.7806831" lon="12.2886385"><ele>549.0</ele><time>2026-04-12T10:30:38.541Z</time></trkpt><trkpt lat="42.7807774" lon="12.2886944"><ele>549.0</ele><time>2026-04-12T10:30:39.551Z</time></trkpt><trkpt lat="42.7808692" lon="12.2886718"><ele>549.0</ele><time>2026-04-12T10:30:40.545Z</time></trkpt><trkpt lat="42.7809613" lon="12.2885861"><ele>549.0</ele><time>2026-04-12T10:30:41.551Z</time></trkpt><trkpt lat="42.7809661" lon="12.288423"><ele>549.0</ele><time>2026-04-12T10:30:42.546Z</time></trkpt><trkpt lat="42.7809355" lon="12.2882461"><ele>547.6666666666666</ele><time>2026-04-12T10:30:43.55Z</time></trkpt><trkpt lat="42.7808744" lon="12.2880474"><ele>546.3333333333333</ele><time>2026-04-12T10:30:44.538Z</time></trkpt><trkpt lat="42.7808146" lon="12.2878224"><ele>545.0</ele><time>2026-04-12T10:30:45.55Z</time></trkpt><trkpt lat="42.7807512" lon="12.2875752"><ele>545.0</ele><time>2026-04-12T10:30:46.571Z</time></trkpt><trkpt lat="42.7806941" lon="12.287335"><ele>545.0</ele><time>2026-04-12T10:30:47.563Z</time></trkpt><trkpt lat="42.7806441" lon="12.2870873"><ele>545.0</ele><time>2026-04-12T10:30:48.56Z</time></trkpt><trkpt lat="42.7806146" lon="12.286826"><ele>543.0</ele><time>2026-04-12T10:30:49.561Z</time></trkpt><trkpt lat="42.7806165" lon="12.2865537"><ele>541.0</ele><time>2026-04-12T10:30:50.556Z</time></trkpt><trkpt lat="42.7806514" lon="12.2862814"><ele>539.0</ele><time>2026-04-12T10:30:51.549Z</time></trkpt><trkpt lat="42.780722" lon="12.2860171"><ele>538.3333333333333</ele><time>2026-04-12T10:30:52.549Z</time></trkpt><trkpt lat="42.7808229" lon="12.2857664"><ele>537.6666666666666</ele><time>2026-04-12T10:30:53.553Z</time></trkpt><trkpt lat="42.7809405" lon="12.2855452"><ele>537.0</ele><time>2026-04-12T10:30:54.563Z</time></trkpt><trkpt lat="42.7810651" lon="12.2853393"><ele>536.0</ele><time>2026-04-12T10:30:55.559Z</time></trkpt><trkpt lat="42.7811944" lon="12.2851418"><ele>535.0</ele><time>2026-04-12T10:30:56.559Z</time></trkpt><trkpt lat="42.7813286" lon="12.2849585"><ele>534.0</ele><time>2026-04-12T10:30:57.557Z</time></trkpt><trkpt lat="42.7814701" lon="12.2848126"><ele>533.0</ele><time>2026-04-12T10:30:58.554Z</time></trkpt><trkpt lat="42.7816219" lon="12.2847185"><ele>532.0</ele><time>2026-04-12T10:30:59.558Z</time></trkpt><trkpt lat="42.7817916" lon="12.2846841"><ele>531.0</ele><time>2026-04-12T10:31:00.562Z</time></trkpt><trkpt lat="42.7819729" lon="12.2846913"><ele>530.6666666666666</ele><time>2026-04-12T10:31:01.55Z</time></trkpt><trkpt lat="42.7821522" lon="12.2847136"><ele>530.3333333333333</ele><time>2026-04-12T10:31:02.547Z</time></trkpt><trkpt lat="42.7823121" lon="12.2847382"><ele>530.0</ele><time>2026-04-12T10:31:03.556Z</time></trkpt><trkpt lat="42.7824518" lon="12.2847553"><ele>530.0</ele><time>2026-04-12T10:31:04.589Z</time></trkpt><trkpt lat="42.7825725" lon="12.2847447"><ele>530.0</ele><time>2026-04-12T10:31:05.557Z</time></trkpt><trkpt lat="42.7826698" lon="12.2846763"><ele>530.0</ele><time>2026-04-12T10:31:06.546Z</time></trkpt><trkpt lat="42.7827266" lon="12.2845485"><ele>530.0</ele><time>2026-04-12T10:31:07.543Z</time></trkpt><trkpt lat="42.782739" lon="12.284374"><ele>529.6666666666666</ele><time>2026-04-12T10:31:08.547Z</time></trkpt><trkpt lat="42.7827222" lon="12.2841722"><ele>529.3333333333334</ele><time>2026-04-12T10:31:09.555Z</time></trkpt><trkpt lat="42.782696" lon="12.2839461"><ele>529.0</ele><time>2026-04-12T10:31:10.553Z</time></trkpt><trkpt lat="42.7826644" lon="12.2836985"><ele>528.6666666666667</ele><time>2026-04-12T10:31:11.549Z</time></trkpt><trkpt lat="42.7826218" lon="12.283436"><ele>528.3333333333334</ele><time>2026-04-12T10:31:12.56Z</time></trkpt><trkpt lat="42.782564" lon="12.2831625"><ele>528.0</ele><time>2026-04-12T10:31:13.54Z</time></trkpt><trkpt lat="42.7824971" lon="12.2828861"><ele>528.0</ele><time>2026-04-12T10:31:14.557Z</time></trkpt><trkpt lat="42.7824346" lon="12.2826259"><ele>528.0</ele><time>2026-04-12T10:31:15.568Z</time></trkpt><trkpt lat="42.7823782" lon="12.2823875"><ele>528.0</ele><time>2026-04-12T10:31:16.553Z</time></trkpt><trkpt lat="42.782326" lon="12.2821725"><ele>528.5</ele><time>2026-04-12T10:31:17.556Z</time></trkpt><trkpt lat="42.7822925" lon="12.2819735"><ele>529.0</ele><time>2026-04-12T10:31:18.554Z</time></trkpt><trkpt lat="42.7823049" lon="12.281797"><ele>529.5</ele><time>2026-04-12T10:31:19.556Z</time></trkpt><trkpt lat="42.7823683" lon="12.281647"><ele>530.0</ele><time>2026-04-12T10:31:20.549Z</time></trkpt><trkpt lat="42.7824693" lon="12.2815247"><ele>530.0</ele><time>2026-04-12T10:31:21.564Z</time></trkpt><trkpt lat="42.7826008" lon="12.2814348"><ele>530.0</ele><time>2026-04-12T10:31:22.565Z</time></trkpt><trkpt lat="42.782752" lon="12.2813724"><ele>530.0</ele><time>2026-04-12T10:31:23.55Z</time></trkpt><trkpt lat="42.7829207" lon="12.2813184"><ele>532.3333333333333</ele><time>2026-04-12T10:31:24.553Z</time></trkpt><trkpt lat="42.7831019" lon="12.2812547"><ele>534.6666666666666</ele><time>2026-04-12T10:31:25.553Z</time></trkpt><trkpt lat="42.7832805" lon="12.281189"><ele>537.0</ele><time>2026-04-12T10:31:26.557Z</time></trkpt><trkpt lat="42.7834441" lon="12.2811339"><ele>537.75</ele><time>2026-04-12T10:31:27.564Z</time></trkpt><trkpt lat="42.7835878" lon="12.2810846"><ele>538.5</ele><time>2026-04-12T10:31:28.57Z</time></trkpt><trkpt lat="42.7837088" lon="12.2810223"><ele>539.25</ele><time>2026-04-12T10:31:29.555Z</time></trkpt><trkpt lat="42.7837907" lon="12.2809245"><ele>540.0</ele><time>2026-04-12T10:31:30.547Z</time></trkpt><trkpt lat="42.7838167" lon="12.2807881"><ele>540.0</ele><time>2026-04-12T10:31:31.564Z</time></trkpt><trkpt lat="42.7837901" lon="12.2806235"><ele>540.0</ele><time>2026-04-12T10:31:32.55Z</time></trkpt><trkpt lat="42.7837309" lon="12.2804363"><ele>540.0</ele><time>2026-04-12T10:31:33.549Z</time></trkpt><trkpt lat="42.7836616" lon="12.280224"><ele>540.0</ele><time>2026-04-12T10:31:34.533Z</time></trkpt><trkpt lat="42.7835875" lon="12.2799893"><ele>540.6666666666666</ele><time>2026-04-12T10:31:35.557Z</time></trkpt><trkpt lat="42.7835068" lon="12.2797345"><ele>541.3333333333333</ele><time>2026-04-12T10:31:36.559Z</time></trkpt><trkpt lat="42.7834258" lon="12.2794833"><ele>542.0</ele><time>2026-04-12T10:31:37.552Z</time></trkpt><trkpt lat="42.7833508" lon="12.2792435"><ele>542.0</ele><time>2026-04-12T10:31:38.554Z</time></trkpt><trkpt lat="42.7832796" lon="12.2790157"><ele>542.0</ele><time>2026-04-12T10:31:39.547Z</time></trkpt><trkpt lat="42.7832163" lon="12.2788188"><ele>542.0</ele><time>2026-04-12T10:31:40.55Z</time></trkpt><trkpt lat="42.7831625" lon="12.2786549"><ele>542.6</ele><time>2026-04-12T10:31:41.552Z</time></trkpt><trkpt lat="42.7831211" lon="12.278524"><ele>543.2</ele><time>2026-04-12T10:31:42.538Z</time></trkpt><trkpt lat="42.783093" lon="12.2784312"><ele>543.8</ele><time>2026-04-12T10:31:43.55Z</time></trkpt><trkpt lat="42.7830579" lon="12.2783201"><ele>544.4</ele><time>2026-04-12T10:31:45.557Z</time></trkpt><trkpt lat="42.7830286" lon="12.2782068"><ele>545.0</ele><time>2026-04-12T10:31:48.552Z</time></trkpt><trkpt lat="42.7830061" lon="12.2780761"><ele>543.8</ele><time>2026-04-12T10:31:50.545Z</time></trkpt><trkpt lat="42.7830278" lon="12.2778896"><ele>542.6</ele><time>2026-04-12T10:31:52.546Z</time></trkpt><trkpt lat="42.7830859" lon="12.277794"><ele>541.4</ele><time>2026-04-12T10:31:53.551Z</time></trkpt><trkpt lat="42.7831675" lon="12.2777471"><ele>540.2</ele><time>2026-04-12T10:31:54.535Z</time></trkpt><trkpt lat="42.7832515" lon="12.277753"><ele>539.0</ele><time>2026-04-12T10:31:55.561Z</time></trkpt><trkpt lat="42.7833297" lon="12.2777703"><ele>539.0</ele><time>2026-04-12T10:31:56.548Z</time></trkpt><trkpt lat="42.7834065" lon="12.2777889"><ele>539.0</ele><time>2026-04-12T10:31:57.555Z</time></trkpt><trkpt lat="42.783489" lon="12.2778099"><ele>539.0</ele><time>2026-04-12T10:31:58.561Z</time></trkpt><trkpt lat="42.7835796" lon="12.2778323"><ele>539.0</ele><time>2026-04-12T10:31:59.565Z</time></trkpt><trkpt lat="42.7836731" lon="12.2778389"><ele>539.0</ele><time>2026-04-12T10:32:00.561Z</time></trkpt><trkpt lat="42.7837632" lon="12.2778195"><ele>539.0</ele><time>2026-04-12T10:32:01.553Z</time></trkpt><trkpt lat="42.7838506" lon="12.2777686"><ele>538.75</ele><time>2026-04-12T10:32:02.55Z</time></trkpt><trkpt lat="42.7839297" lon="12.2776806"><ele>538.5</ele><time>2026-04-12T10:32:03.553Z</time></trkpt><trkpt lat="42.7839942" lon="12.2775542"><ele>538.25</ele><time>2026-04-12T10:32:04.551Z</time></trkpt><trkpt lat="42.7840551" lon="12.2774007"><ele>538.0</ele><time>2026-04-12T10:32:05.555Z</time></trkpt><trkpt lat="42.7841123" lon="12.2772191"><ele>536.0</ele><time>2026-04-12T10:32:06.562Z</time></trkpt><trkpt lat="42.7841566" lon="12.2770181"><ele>534.0</ele><time>2026-04-12T10:32:07.552Z</time></trkpt><trkpt lat="42.784186" lon="12.2768028"><ele>532.0</ele><time>2026-04-12T10:32:08.559Z</time></trkpt><trkpt lat="42.7842074" lon="12.2765823"><ele>531.3333333333334</ele><time>2026-04-12T10:32:09.565Z</time></trkpt><trkpt lat="42.7842283" lon="12.2763603"><ele>530.6666666666666</ele><time>2026-04-12T10:32:10.553Z</time></trkpt><trkpt lat="42.7842475" lon="12.2761343"><ele>530.0</ele><time>2026-04-12T10:32:11.563Z</time></trkpt><trkpt lat="42.7842653" lon="12.2759083"><ele>530.0</ele><time>2026-04-12T10:32:12.567Z</time></trkpt><trkpt lat="42.7842767" lon="12.275676"><ele>530.0</ele><time>2026-04-12T10:32:13.562Z</time></trkpt><trkpt lat="42.7842776" lon="12.2754365"><ele>530.0</ele><time>2026-04-12T10:32:14.576Z</time></trkpt><trkpt lat="42.7842721" lon="12.2751914"><ele>530.6666666666666</ele><time>2026-04-12T10:32:15.568Z</time></trkpt><trkpt lat="42.7842571" lon="12.2749319"><ele>531.3333333333334</ele><time>2026-04-12T10:32:16.565Z</time></trkpt><trkpt lat="42.7842332" lon="12.2746548"><ele>532.0</ele><time>2026-04-12T10:32:17.557Z</time></trkpt><trkpt lat="42.7842011" lon="12.274363"><ele>530.6666666666667</ele><time>2026-04-12T10:32:18.559Z</time></trkpt><trkpt lat="42.7841615" lon="12.2740601"><ele>529.3333333333334</ele><time>2026-04-12T10:32:19.553Z</time></trkpt><trkpt lat="42.784128" lon="12.273767"><ele>528.0</ele><time>2026-04-12T10:32:20.564Z</time></trkpt><trkpt lat="42.7840908" lon="12.2734967"><ele>527.3333333333334</ele><time>2026-04-12T10:32:21.554Z</time></trkpt><trkpt lat="42.784064" lon="12.2732359"><ele>526.6666666666667</ele><time>2026-04-12T10:32:22.56Z</time></trkpt><trkpt lat="42.7840675" lon="12.2729826"><ele>526.0</ele><time>2026-04-12T10:32:23.55Z</time></trkpt><trkpt lat="42.7841124" lon="12.2727311"><ele>526.0</ele><time>2026-04-12T10:32:24.551Z</time></trkpt><trkpt lat="42.7841907" lon="12.2725041"><ele>526.0</ele><time>2026-04-12T10:32:25.561Z</time></trkpt><trkpt lat="42.7842875" lon="12.2723018"><ele>526.0</ele><time>2026-04-12T10:32:26.551Z</time></trkpt><trkpt lat="42.7843844" lon="12.2720973"><ele>526.0</ele><time>2026-04-12T10:32:27.548Z</time></trkpt><trkpt lat="42.784468" lon="12.2718936"><ele>526.0</ele><time>2026-04-12T10:32:28.568Z</time></trkpt><trkpt lat="42.7845285" lon="12.2716914"><ele>526.0</ele><time>2026-04-12T10:32:29.566Z</time></trkpt><trkpt lat="42.7845535" lon="12.271499"><ele>525.5</ele><time>2026-04-12T10:32:30.554Z</time></trkpt><trkpt lat="42.7845303" lon="12.2713179"><ele>525.0</ele><time>2026-04-12T10:32:31.566Z</time></trkpt><trkpt lat="42.7844627" lon="12.2711641"><ele>524.5</ele><time>2026-04-12T10:32:32.567Z</time></trkpt><trkpt lat="42.7843712" lon="12.2710234"><ele>524.0</ele><time>2026-04-12T10:32:33.57Z</time></trkpt><trkpt lat="42.7842691" lon="12.2708579"><ele>521.0</ele><time>2026-04-12T10:32:34.575Z</time></trkpt><trkpt lat="42.784169" lon="12.2706562"><ele>518.0</ele><time>2026-04-12T10:32:35.58Z</time></trkpt><trkpt lat="42.7840823" lon="12.2704247"><ele>515.0</ele><time>2026-04-12T10:32:36.577Z</time></trkpt><trkpt lat="42.7840134" lon="12.2701914"><ele>514.6666666666666</ele><time>2026-04-12T10:32:37.563Z</time></trkpt><trkpt lat="42.783947" lon="12.2699699"><ele>514.3333333333334</ele><time>2026-04-12T10:32:38.56Z</time></trkpt><trkpt lat="42.7838494" lon="12.2697704"><ele>514.0</ele><time>2026-04-12T10:32:39.557Z</time></trkpt><trkpt lat="42.7837421" lon="12.2695895"><ele>513.0</ele><time>2026-04-12T10:32:40.558Z</time></trkpt><trkpt lat="42.7836436" lon="12.2694248"><ele>512.0</ele><time>2026-04-12T10:32:41.559Z</time></trkpt><trkpt lat="42.7835957" lon="12.2692545"><ele>511.0</ele><time>2026-04-12T10:32:42.544Z</time></trkpt><trkpt lat="42.783572" lon="12.2691011"><ele>510.0</ele><time>2026-04-12T10:32:43.546Z</time></trkpt><trkpt lat="42.7836373" lon="12.2689356"><ele>508.33333333333337</ele><time>2026-04-12T10:32:44.57Z</time></trkpt><trkpt lat="42.7837426" lon="12.2687688"><ele>506.6666666666667</ele><time>2026-04-12T10:32:45.553Z</time></trkpt><trkpt lat="42.7838522" lon="12.268601"><ele>505.0</ele><time>2026-04-12T10:32:46.549Z</time></trkpt><trkpt lat="42.7839553" lon="12.2684355"><ele>505.0</ele><time>2026-04-12T10:32:47.545Z</time></trkpt><trkpt lat="42.7840427" lon="12.2682829"><ele>505.0</ele><time>2026-04-12T10:32:48.548Z</time></trkpt><trkpt lat="42.7840945" lon="12.2681256"><ele>505.0</ele><time>2026-04-12T10:32:49.565Z</time></trkpt><trkpt lat="42.7840981" lon="12.2679748"><ele>505.0</ele><time>2026-04-12T10:32:50.555Z</time></trkpt><trkpt lat="42.7840475" lon="12.2678518"><ele>506.25</ele><time>2026-04-12T10:32:51.549Z</time></trkpt><trkpt lat="42.7839548" lon="12.2677677"><ele>507.5</ele><time>2026-04-12T10:32:52.539Z</time></trkpt><trkpt lat="42.7838401" lon="12.2677001"><ele>508.75</ele><time>2026-04-12T10:32:53.551Z</time></trkpt><trkpt lat="42.78374" lon="12.2676077"><ele>510.0</ele><time>2026-04-12T10:32:54.549Z</time></trkpt><trkpt lat="42.7836815" lon="12.2674913"><ele>510.0</ele><time>2026-04-12T10:32:55.56Z</time></trkpt><trkpt lat="42.7836824" lon="12.2673664"><ele>510.0</ele><time>2026-04-12T10:32:56.552Z</time></trkpt><trkpt lat="42.7837308" lon="12.2672592"><ele>510.0</ele><time>2026-04-12T10:32:57.54Z</time></trkpt><trkpt lat="42.7838134" lon="12.267173"><ele>510.0</ele><time>2026-04-12T10:32:58.549Z</time></trkpt><trkpt lat="42.7839258" lon="12.2670981"><ele>510.0</ele><time>2026-04-12T10:32:59.56Z</time></trkpt><trkpt lat="42.7840697" lon="12.2670345"><ele>511.5</ele><time>2026-04-12T10:33:00.549Z</time></trkpt><trkpt lat="42.7842268" lon="12.2669819"><ele>513.0</ele><time>2026-04-12T10:33:01.555Z</time></trkpt><trkpt lat="42.784361" lon="12.2669364"><ele>514.5</ele><time>2026-04-12T10:33:02.555Z</time></trkpt><trkpt lat="42.7844688" lon="12.2668829"><ele>516.0</ele><time>2026-04-12T10:33:03.551Z</time></trkpt><trkpt lat="42.7845323" lon="12.2667981"><ele>517.2</ele><time>2026-04-12T10:33:04.552Z</time></trkpt><trkpt lat="42.7845408" lon="12.2666877"><ele>518.4000000000001</ele><time>2026-04-12T10:33:05.547Z</time></trkpt><trkpt lat="42.784495" lon="12.2665853"><ele>519.6</ele><time>2026-04-12T10:33:06.553Z</time></trkpt><trkpt lat="42.7844138" lon="12.2664953"><ele>520.8000000000001</ele><time>2026-04-12T10:33:07.573Z</time></trkpt><trkpt lat="42.7843181" lon="12.2664013"><ele>522.0</ele><time>2026-04-12T10:33:08.55Z</time></trkpt><trkpt lat="42.7842182" lon="12.2662914"><ele>523.25</ele><time>2026-04-12T10:33:09.552Z</time></trkpt><trkpt lat="42.7841649" lon="12.266146"><ele>524.5</ele><time>2026-04-12T10:33:10.555Z</time></trkpt><trkpt lat="42.7841493" lon="12.2659945"><ele>525.75</ele><time>2026-04-12T10:33:11.551Z</time></trkpt><trkpt lat="42.784165" lon="12.2658291"><ele>527.0</ele><time>2026-04-12T10:33:12.545Z</time></trkpt><trkpt lat="42.7842101" lon="12.2656395"><ele>529.6666666666666</ele><time>2026-04-12T10:33:13.552Z</time></trkpt><trkpt lat="42.7842533" lon="12.2654438"><ele>532.3333333333334</ele><time>2026-04-12T10:33:14.552Z</time></trkpt><trkpt lat="42.7842948" lon="12.2652379"><ele>535.0</ele><time>2026-04-12T10:33:15.557Z</time></trkpt><trkpt lat="42.7843423" lon="12.2650184"><ele>534.6666666666667</ele><time>2026-04-12T10:33:16.555Z</time></trkpt><trkpt lat="42.784388" lon="12.2647818"><ele>534.3333333333334</ele><time>2026-04-12T10:33:17.55Z</time></trkpt><trkpt lat="42.7844376" lon="12.2645356"><ele>534.0</ele><time>2026-04-12T10:33:18.553Z</time></trkpt><trkpt lat="42.784486" lon="12.2642692"><ele>534.0</ele><time>2026-04-12T10:33:19.565Z</time></trkpt><trkpt lat="42.7845156" lon="12.264003"><ele>534.0</ele><time>2026-04-12T10:33:20.558Z</time></trkpt><trkpt lat="42.7845359" lon="12.2637472"><ele>534.0</ele><time>2026-04-12T10:33:21.555Z</time></trkpt><trkpt lat="42.7845538" lon="12.2634921"><ele>533.6666666666666</ele><time>2026-04-12T10:33:22.556Z</time></trkpt><trkpt lat="42.7845692" lon="12.2632318"><ele>533.3333333333333</ele><time>2026-04-12T10:33:23.557Z</time></trkpt><trkpt lat="42.7845654" lon="12.262974"><ele>533.0</ele><time>2026-04-12T10:33:24.563Z</time></trkpt><trkpt lat="42.784534" lon="12.2627171"><ele>533.5</ele><time>2026-04-12T10:33:25.564Z</time></trkpt><trkpt lat="42.7844782" lon="12.2624684"><ele>534.0</ele><time>2026-04-12T10:33:26.557Z</time></trkpt><trkpt lat="42.7842932" lon="12.26202"><ele>534.0</ele><time>2026-04-12T10:33:28.552Z</time></trkpt><trkpt lat="42.784182" lon="12.2618204"><ele>534.0</ele><time>2026-04-12T10:33:29.563Z</time></trkpt><trkpt lat="42.784037" lon="12.2616717"><ele>534.0</ele><time>2026-04-12T10:33:30.557Z</time></trkpt><trkpt lat="42.7838845" lon="12.2615736"><ele>534.0</ele><time>2026-04-12T10:33:31.557Z</time></trkpt><trkpt lat="42.7837318" lon="12.2615059"><ele>534.0</ele><time>2026-04-12T10:33:32.549Z</time></trkpt><trkpt lat="42.7835907" lon="12.2614489"><ele>534.0</ele><time>2026-04-12T10:33:33.561Z</time></trkpt><trkpt lat="42.7834629" lon="12.2613779"><ele>534.0</ele><time>2026-04-12T10:33:34.554Z</time></trkpt><trkpt lat="42.783362" lon="12.2612699"><ele>534.25</ele><time>2026-04-12T10:33:35.549Z</time></trkpt><trkpt lat="42.783296" lon="12.2611129"><ele>534.5</ele><time>2026-04-12T10:33:36.552Z</time></trkpt><trkpt lat="42.7832651" lon="12.2609348"><ele>534.75</ele><time>2026-04-12T10:33:37.559Z</time></trkpt><trkpt lat="42.7832549" lon="12.2607399"><ele>535.0</ele><time>2026-04-12T10:33:38.552Z</time></trkpt><trkpt lat="42.7832456" lon="12.2605337"><ele>536.6666666666667</ele><time>2026-04-12T10:33:39.554Z</time></trkpt><trkpt lat="42.7832514" lon="12.2603098"><ele>538.3333333333334</ele><time>2026-04-12T10:33:40.551Z</time></trkpt><trkpt lat="42.7832831" lon="12.2600776"><ele>540.0</ele><time>2026-04-12T10:33:41.553Z</time></trkpt><trkpt lat="42.7833403" lon="12.2598427"><ele>542.6666666666666</ele><time>2026-04-12T10:33:42.541Z</time></trkpt><trkpt lat="42.7834031" lon="12.2596283"><ele>545.3333333333333</ele><time>2026-04-12T10:33:43.56Z</time></trkpt><trkpt lat="42.7834612" lon="12.259432"><ele>548.0</ele><time>2026-04-12T10:33:44.555Z</time></trkpt><trkpt lat="42.7835094" lon="12.2592536"><ele>547.25</ele><time>2026-04-12T10:33:45.549Z</time></trkpt><trkpt lat="42.7835269" lon="12.2590854"><ele>546.5</ele><time>2026-04-12T10:33:46.558Z</time></trkpt><trkpt lat="42.7834907" lon="12.2589165"><ele>545.75</ele><time>2026-04-12T10:33:47.559Z</time></trkpt><trkpt lat="42.7834027" lon="12.25875"><ele>545.0</ele><time>2026-04-12T10:33:48.554Z</time></trkpt><trkpt lat="42.7832927" lon="12.2585832"><ele>545.0</ele><time>2026-04-12T10:33:49.556Z</time></trkpt><trkpt lat="42.7831747" lon="12.2584477"><ele>545.0</ele><time>2026-04-12T10:33:50.57Z</time></trkpt><trkpt lat="42.7830349" lon="12.2583632"><ele>545.0</ele><time>2026-04-12T10:33:51.553Z</time></trkpt><trkpt lat="42.7828892" lon="12.2583409"><ele>545.0</ele><time>2026-04-12T10:33:52.552Z</time></trkpt><trkpt lat="42.7827534" lon="12.2583489"><ele>545.0</ele><time>2026-04-12T10:33:53.557Z</time></trkpt><trkpt lat="42.7826309" lon="12.2583245"><ele>545.0</ele><time>2026-04-12T10:33:54.557Z</time></trkpt><trkpt lat="42.7825219" lon="12.2582323"><ele>545.0</ele><time>2026-04-12T10:33:55.546Z</time></trkpt><trkpt lat="42.7824346" lon="12.258083"><ele>545.75</ele><time>2026-04-12T10:33:56.558Z</time></trkpt><trkpt lat="42.7823643" lon="12.2579084"><ele>546.5</ele><time>2026-04-12T10:33:57.554Z</time></trkpt><trkpt lat="42.7823004" lon="12.2577246"><ele>547.25</ele><time>2026-04-12T10:33:58.559Z</time></trkpt><trkpt lat="42.7822557" lon="12.257548"><ele>548.0</ele><time>2026-04-12T10:33:59.554Z</time></trkpt><trkpt lat="42.7822543" lon="12.2573848"><ele>547.5</ele><time>2026-04-12T10:34:00.558Z</time></trkpt><trkpt lat="42.7823024" lon="12.2572533"><ele>547.0</ele><time>2026-04-12T10:34:01.552Z</time></trkpt><trkpt lat="42.7823844" lon="12.2571648"><ele>546.5</ele><time>2026-04-12T10:34:02.552Z</time></trkpt><trkpt lat="42.7824939" lon="12.2570941"><ele>546.0</ele><time>2026-04-12T10:34:03.543Z</time></trkpt><trkpt lat="42.7826246" lon="12.2570127"><ele>547.0</ele><time>2026-04-12T10:34:04.555Z</time></trkpt><trkpt lat="42.7827715" lon="12.2569128"><ele>548.0</ele><time>2026-04-12T10:34:05.567Z</time></trkpt><trkpt lat="42.7829261" lon="12.2567893"><ele>549.0</ele><time>2026-04-12T10:34:06.566Z</time></trkpt><trkpt lat="42.7830785" lon="12.2566233"><ele>548.6666666666666</ele><time>2026-04-12T10:34:07.56Z</time></trkpt><trkpt lat="42.7832239" lon="12.2564184"><ele>548.3333333333333</ele><time>2026-04-12T10:34:08.56Z</time></trkpt><trkpt lat="42.7833692" lon="12.2561866"><ele>548.0</ele><time>2026-04-12T10:34:09.553Z</time></trkpt><trkpt lat="42.7835203" lon="12.2559426"><ele>548.0</ele><time>2026-04-12T10:34:10.55Z</time></trkpt><trkpt lat="42.7836772" lon="12.255693"><ele>548.0</ele><time>2026-04-12T10:34:11.561Z</time></trkpt><trkpt lat="42.7838378" lon="12.2554373"><ele>548.0</ele><time>2026-04-12T10:34:12.559Z</time></trkpt><trkpt lat="42.7840013" lon="12.255176"><ele>548.0</ele><time>2026-04-12T10:34:13.56Z</time></trkpt><trkpt lat="42.7841597" lon="12.2549218"><ele>547.0</ele><time>2026-04-12T10:34:14.557Z</time></trkpt><trkpt lat="42.7843073" lon="12.2546809"><ele>546.0</ele><time>2026-04-12T10:34:15.544Z</time></trkpt><trkpt lat="42.7844499" lon="12.2544538"><ele>547.6666666666666</ele><time>2026-04-12T10:34:16.547Z</time></trkpt><trkpt lat="42.7845931" lon="12.2542485"><ele>549.3333333333333</ele><time>2026-04-12T10:34:17.563Z</time></trkpt><trkpt lat="42.7847362" lon="12.2540867"><ele>551.0</ele><time>2026-04-12T10:34:18.556Z</time></trkpt><trkpt lat="42.7848729" lon="12.2539774"><ele>550.4</ele><time>2026-04-12T10:34:19.552Z</time></trkpt><trkpt lat="42.7849904" lon="12.2538946"><ele>549.8</ele><time>2026-04-12T10:34:20.562Z</time></trkpt><trkpt lat="42.7850761" lon="12.2537997"><ele>549.1999999999999</ele><time>2026-04-12T10:34:21.559Z</time></trkpt><trkpt lat="42.78512" lon="12.2536765"><ele>548.6</ele><time>2026-04-12T10:34:22.562Z</time></trkpt><trkpt lat="42.7851391" lon="12.253561"><ele>548.0</ele><time>2026-04-12T10:34:23.548Z</time></trkpt><trkpt lat="42.7850689" lon="12.2534461"><ele>548.0</ele><time>2026-04-12T10:34:24.557Z</time></trkpt><trkpt lat="42.7849747" lon="12.2533448"><ele>548.0</ele><time>2026-04-12T10:34:25.555Z</time></trkpt><trkpt lat="42.7848664" lon="12.2532603"><ele>548.0</ele><time>2026-04-12T10:34:26.556Z</time></trkpt><trkpt lat="42.7847952" lon="12.253155"><ele>548.0</ele><time>2026-04-12T10:34:27.563Z</time></trkpt><trkpt lat="42.7847718" lon="12.2530325"><ele>548.0</ele><time>2026-04-12T10:34:28.564Z</time></trkpt><trkpt lat="42.7847945" lon="12.2529162"><ele>547.25</ele><time>2026-04-12T10:34:29.556Z</time></trkpt><trkpt lat="42.7848543" lon="12.2528123"><ele>546.5</ele><time>2026-04-12T10:34:30.555Z</time></trkpt><trkpt lat="42.7849521" lon="12.2527241"><ele>545.75</ele><time>2026-04-12T10:34:31.555Z</time></trkpt><trkpt lat="42.7850815" lon="12.2526574"><ele>545.0</ele><time>2026-04-12T10:34:32.556Z</time></trkpt><trkpt lat="42.7852279" lon="12.252604"><ele>545.0</ele><time>2026-04-12T10:34:33.551Z</time></trkpt><trkpt lat="42.7853834" lon="12.2525597"><ele>545.0</ele><time>2026-04-12T10:34:34.561Z</time></trkpt><trkpt lat="42.7855358" lon="12.2525199"><ele>545.0</ele><time>2026-04-12T10:34:35.559Z</time></trkpt><trkpt lat="42.7856806" lon="12.252478"><ele>545.0</ele><time>2026-04-12T10:34:36.566Z</time></trkpt><trkpt lat="42.7858086" lon="12.2524313"><ele>545.0</ele><time>2026-04-12T10:34:37.568Z</time></trkpt><trkpt lat="42.7859168" lon="12.252368"><ele>545.0</ele><time>2026-04-12T10:34:38.559Z</time></trkpt><trkpt lat="42.7860153" lon="12.252297"><ele>545.0</ele><time>2026-04-12T10:34:39.549Z</time></trkpt><trkpt lat="42.7860438" lon="12.2521576"><ele>543.75</ele><time>2026-04-12T10:34:40.556Z</time></trkpt><trkpt lat="42.7860175" lon="12.2520147"><ele>542.5</ele><time>2026-04-12T10:34:41.554Z</time></trkpt><trkpt lat="42.7859535" lon="12.2518737"><ele>541.25</ele><time>2026-04-12T10:34:42.553Z</time></trkpt><trkpt lat="42.7858605" lon="12.2517351"><ele>540.0</ele><time>2026-04-12T10:34:43.554Z</time></trkpt><trkpt lat="42.7857567" lon="12.2515846"><ele>537.6666666666666</ele><time>2026-04-12T10:34:44.558Z</time></trkpt><trkpt lat="42.7856358" lon="12.2514245"><ele>535.3333333333333</ele><time>2026-04-12T10:34:45.558Z</time></trkpt><trkpt lat="42.7854868" lon="12.2512771"><ele>533.0</ele><time>2026-04-12T10:34:46.559Z</time></trkpt><trkpt lat="42.7853018" lon="12.251164"><ele>532.6666666666666</ele><time>2026-04-12T10:34:47.547Z</time></trkpt><trkpt lat="42.7850952" lon="12.2510835"><ele>532.3333333333334</ele><time>2026-04-12T10:34:48.558Z</time></trkpt><trkpt lat="42.7848765" lon="12.2510023"><ele>532.0</ele><time>2026-04-12T10:34:49.561Z</time></trkpt><trkpt lat="42.784654" lon="12.2509127"><ele>532.0</ele><time>2026-04-12T10:34:50.554Z</time></trkpt><trkpt lat="42.7844305" lon="12.2508192"><ele>532.0</ele><time>2026-04-12T10:34:51.558Z</time></trkpt><trkpt lat="42.7842086" lon="12.2507302"><ele>531.3333333333334</ele><time>2026-04-12T10:34:52.56Z</time></trkpt><trkpt lat="42.7839997" lon="12.2506428"><ele>530.6666666666666</ele><time>2026-04-12T10:34:53.547Z</time></trkpt><trkpt lat="42.783803" lon="12.2505295"><ele>530.0</ele><time>2026-04-12T10:34:54.554Z</time></trkpt><trkpt lat="42.7836291" lon="12.2503642"><ele>528.6666666666666</ele><time>2026-04-12T10:34:55.558Z</time></trkpt><trkpt lat="42.7834797" lon="12.2501579"><ele>527.3333333333334</ele><time>2026-04-12T10:34:56.556Z</time></trkpt><trkpt lat="42.7833418" lon="12.249933"><ele>526.0</ele><time>2026-04-12T10:34:57.557Z</time></trkpt><trkpt lat="42.7832024" lon="12.249703"><ele>522.5</ele><time>2026-04-12T10:34:58.556Z</time></trkpt><trkpt lat="42.7830533" lon="12.2494716"><ele>519.0</ele><time>2026-04-12T10:34:59.552Z</time></trkpt><trkpt lat="42.7828908" lon="12.249244"><ele>519.0</ele><time>2026-04-12T10:35:00.557Z</time></trkpt><trkpt lat="42.7827095" lon="12.2490307"><ele>519.0</ele><time>2026-04-12T10:35:01.574Z</time></trkpt><trkpt lat="42.7825101" lon="12.2488354"><ele>518.0</ele><time>2026-04-12T10:35:02.561Z</time></trkpt><trkpt lat="42.7822993" lon="12.2486515"><ele>517.0</ele><time>2026-04-12T10:35:03.563Z</time></trkpt><trkpt lat="42.782091" lon="12.2484791"><ele>517.0</ele><time>2026-04-12T10:35:04.559Z</time></trkpt><trkpt lat="42.7818771" lon="12.2483198"><ele>517.0</ele><time>2026-04-12T10:35:05.567Z</time></trkpt><trkpt lat="42.7816514" lon="12.2481777"><ele>512.0</ele><time>2026-04-12T10:35:06.566Z</time></trkpt><trkpt lat="42.7814172" lon="12.248048"><ele>507.0</ele><time>2026-04-12T10:35:07.561Z</time></trkpt><trkpt lat="42.7811874" lon="12.2479272"><ele>510.5</ele><time>2026-04-12T10:35:08.56Z</time></trkpt><trkpt lat="42.7809606" lon="12.247805"><ele>514.0</ele><time>2026-04-12T10:35:09.559Z</time></trkpt><trkpt lat="42.7807379" lon="12.2476797"><ele>514.0</ele><time>2026-04-12T10:35:10.559Z</time></trkpt><trkpt lat="42.780523" lon="12.2475568"><ele>514.0</ele><time>2026-04-12T10:35:11.555Z</time></trkpt><trkpt lat="42.7803182" lon="12.2474316"><ele>511.6666666666667</ele><time>2026-04-12T10:35:12.55Z</time></trkpt><trkpt lat="42.780121" lon="12.2472922"><ele>509.33333333333337</ele><time>2026-04-12T10:35:13.558Z</time></trkpt><trkpt lat="42.779933" lon="12.2471328"><ele>507.0</ele><time>2026-04-12T10:35:14.559Z</time></trkpt><trkpt lat="42.7797613" lon="12.2469537"><ele>507.0</ele><time>2026-04-12T10:35:15.558Z</time></trkpt><trkpt lat="42.7796112" lon="12.2467547"><ele>507.0</ele><time>2026-04-12T10:35:16.535Z</time></trkpt><trkpt lat="42.7794822" lon="12.2465494"><ele>507.0</ele><time>2026-04-12T10:35:17.545Z</time></trkpt><trkpt lat="42.7793546" lon="12.246353"><ele>508.33333333333337</ele><time>2026-04-12T10:35:18.541Z</time></trkpt><trkpt lat="42.7792321" lon="12.2461523"><ele>509.6666666666667</ele><time>2026-04-12T10:35:19.545Z</time></trkpt><trkpt lat="42.7791081" lon="12.2459572"><ele>511.0</ele><time>2026-04-12T10:35:20.544Z</time></trkpt><trkpt lat="42.7789941" lon="12.2457657"><ele>510.6666666666667</ele><time>2026-04-12T10:35:21.546Z</time></trkpt><trkpt lat="42.7788814" lon="12.2455829"><ele>510.33333333333337</ele><time>2026-04-12T10:35:22.543Z</time></trkpt><trkpt lat="42.7787856" lon="12.2453972"><ele>510.0</ele><time>2026-04-12T10:35:23.543Z</time></trkpt><trkpt lat="42.7787129" lon="12.2451891"><ele>510.0</ele><time>2026-04-12T10:35:24.543Z</time></trkpt><trkpt lat="42.7786801" lon="12.2449696"><ele>510.0</ele><time>2026-04-12T10:35:25.544Z</time></trkpt><trkpt lat="42.7786792" lon="12.2447487"><ele>510.0</ele><time>2026-04-12T10:35:26.543Z</time></trkpt><trkpt lat="42.7786813" lon="12.2445392"><ele>509.75</ele><time>2026-04-12T10:35:27.543Z</time></trkpt><trkpt lat="42.7786597" lon="12.2443462"><ele>509.5</ele><time>2026-04-12T10:35:28.55Z</time></trkpt><trkpt lat="42.7785957" lon="12.2441811"><ele>509.25</ele><time>2026-04-12T10:35:29.539Z</time></trkpt><trkpt lat="42.778515" lon="12.2440341"><ele>509.0</ele><time>2026-04-12T10:35:30.542Z</time></trkpt><trkpt lat="42.7783642" lon="12.2439354"><ele>510.66666666666663</ele><time>2026-04-12T10:35:31.539Z</time></trkpt><trkpt lat="42.7781991" lon="12.2438596"><ele>512.3333333333334</ele><time>2026-04-12T10:35:32.543Z</time></trkpt><trkpt lat="42.7780216" lon="12.2438039"><ele>514.0</ele><time>2026-04-12T10:35:33.555Z</time></trkpt><trkpt lat="42.7778592" lon="12.243759"><ele>514.0</ele><time>2026-04-12T10:35:34.548Z</time></trkpt><trkpt lat="42.777688" lon="12.2437436"><ele>514.0</ele><time>2026-04-12T10:35:35.542Z</time></trkpt><trkpt lat="42.777538" lon="12.2437387"><ele>514.0</ele><time>2026-04-12T10:35:36.551Z</time></trkpt><trkpt lat="42.777389" lon="12.2437066"><ele>512.5</ele><time>2026-04-12T10:35:37.564Z</time></trkpt><trkpt lat="42.7772636" lon="12.2436227"><ele>511.0</ele><time>2026-04-12T10:35:38.555Z</time></trkpt><trkpt lat="42.7771644" lon="12.2434933"><ele>509.5</ele><time>2026-04-12T10:35:39.548Z</time></trkpt><trkpt lat="42.7770858" lon="12.2433298"><ele>508.0</ele><time>2026-04-12T10:35:40.548Z</time></trkpt><trkpt lat="42.7770181" lon="12.2431443"><ele>509.33333333333337</ele><time>2026-04-12T10:35:41.554Z</time></trkpt><trkpt lat="42.7769486" lon="12.2429602"><ele>510.66666666666663</ele><time>2026-04-12T10:35:42.556Z</time></trkpt><trkpt lat="42.7768776" lon="12.2427779"><ele>512.0</ele><time>2026-04-12T10:35:43.558Z</time></trkpt><trkpt lat="42.7767893" lon="12.242596"><ele>509.3333333333333</ele><time>2026-04-12T10:35:44.567Z</time></trkpt><trkpt lat="42.7766691" lon="12.2424262"><ele>506.66666666666663</ele><time>2026-04-12T10:35:45.562Z</time></trkpt><trkpt lat="42.776518" lon="12.2422652"><ele>504.0</ele><time>2026-04-12T10:35:46.556Z</time></trkpt><trkpt lat="42.7763499" lon="12.2421022"><ele>504.0</ele><time>2026-04-12T10:35:47.558Z</time></trkpt><trkpt lat="42.776169" lon="12.2419259"><ele>504.0</ele><time>2026-04-12T10:35:48.542Z</time></trkpt><trkpt lat="42.7759889" lon="12.2417367"><ele>502.0</ele><time>2026-04-12T10:35:49.565Z</time></trkpt><trkpt lat="42.7758259" lon="12.241541"><ele>500.0</ele><time>2026-04-12T10:35:50.559Z</time></trkpt><trkpt lat="42.7756767" lon="12.241341"><ele>498.0</ele><time>2026-04-12T10:35:51.56Z</time></trkpt><trkpt lat="42.7755296" lon="12.2411546"><ele>498.0</ele><time>2026-04-12T10:35:52.552Z</time></trkpt><trkpt lat="42.7753719" lon="12.2410046"><ele>498.0</ele><time>2026-04-12T10:35:53.55Z</time></trkpt><trkpt lat="42.7752051" lon="12.2408774"><ele>498.0</ele><time>2026-04-12T10:35:54.541Z</time></trkpt><trkpt lat="42.7750385" lon="12.2407401"><ele>495.0</ele><time>2026-04-12T10:35:55.563Z</time></trkpt><trkpt lat="42.7748838" lon="12.2405707"><ele>492.0</ele><time>2026-04-12T10:35:56.555Z</time></trkpt><trkpt lat="42.7747515" lon="12.2403789"><ele>489.0</ele><time>2026-04-12T10:35:57.564Z</time></trkpt><trkpt lat="42.7746286" lon="12.2401894"><ele>489.0</ele><time>2026-04-12T10:35:58.56Z</time></trkpt><trkpt lat="42.7744975" lon="12.2400217"><ele>489.0</ele><time>2026-04-12T10:35:59.557Z</time></trkpt><trkpt lat="42.7743265" lon="12.239916"><ele>489.0</ele><time>2026-04-12T10:36:00.557Z</time></trkpt><trkpt lat="42.7741417" lon="12.239851"><ele>486.66666666666663</ele><time>2026-04-12T10:36:01.568Z</time></trkpt><trkpt lat="42.7739524" lon="12.2397963"><ele>484.3333333333333</ele><time>2026-04-12T10:36:02.564Z</time></trkpt><trkpt lat="42.7737821" lon="12.2397062"><ele>482.0</ele><time>2026-04-12T10:36:03.575Z</time></trkpt><trkpt lat="42.7736254" lon="12.2396026"><ele>479.5</ele><time>2026-04-12T10:36:04.573Z</time></trkpt><trkpt lat="42.7734931" lon="12.2395067"><ele>477.0</ele><time>2026-04-12T10:36:05.563Z</time></trkpt><trkpt lat="42.7733741" lon="12.2394238"><ele>474.5</ele><time>2026-04-12T10:36:06.576Z</time></trkpt><trkpt lat="42.7732679" lon="12.23935"><ele>472.0</ele><time>2026-04-12T10:36:07.564Z</time></trkpt><trkpt lat="42.7731778" lon="12.239269"><ele>472.0</ele><time>2026-04-12T10:36:08.565Z</time></trkpt><trkpt lat="42.7731229" lon="12.2391433"><ele>472.00000000000006</ele><time>2026-04-12T10:36:09.563Z</time></trkpt><trkpt lat="42.7730928" lon="12.2390224"><ele>472.00000000000006</ele><time>2026-04-12T10:36:10.562Z</time></trkpt><trkpt lat="42.7731461" lon="12.2388774"><ele>472.0</ele><time>2026-04-12T10:36:11.556Z</time></trkpt><trkpt lat="42.7732409" lon="12.2387681"><ele>472.0</ele><time>2026-04-12T10:36:12.576Z</time></trkpt><trkpt lat="42.7733613" lon="12.2386709"><ele>472.0</ele><time>2026-04-12T10:36:13.563Z</time></trkpt><trkpt lat="42.7734986" lon="12.2385703"><ele>472.0</ele><time>2026-04-12T10:36:14.566Z</time></trkpt><trkpt lat="42.7736275" lon="12.2384723"><ele>472.0</ele><time>2026-04-12T10:36:15.571Z</time></trkpt><trkpt lat="42.7737557" lon="12.2383856"><ele>472.0</ele><time>2026-04-12T10:36:16.57Z</time></trkpt><trkpt lat="42.7738788" lon="12.2383073"><ele>472.0</ele><time>2026-04-12T10:36:17.572Z</time></trkpt><trkpt lat="42.7739718" lon="12.2382141"><ele>472.0</ele><time>2026-04-12T10:36:18.557Z</time></trkpt><trkpt lat="42.7740294" lon="12.2380952"><ele>472.0</ele><time>2026-04-12T10:36:19.57Z</time></trkpt><trkpt lat="42.7740269" lon="12.2379435"><ele>472.0</ele><time>2026-04-12T10:36:20.562Z</time></trkpt><trkpt lat="42.7739711" lon="12.2377842"><ele>471.0</ele><time>2026-04-12T10:36:21.561Z</time></trkpt><trkpt lat="42.773876" lon="12.2376392"><ele>470.0</ele><time>2026-04-12T10:36:22.559Z</time></trkpt><trkpt lat="42.7737522" lon="12.2375051"><ele>469.0</ele><time>2026-04-12T10:36:23.565Z</time></trkpt><trkpt lat="42.7736052" lon="12.2373651"><ele>468.0</ele><time>2026-04-12T10:36:24.567Z</time></trkpt><trkpt lat="42.7734467" lon="12.2372146"><ele>467.0</ele><time>2026-04-12T10:36:25.555Z</time></trkpt><trkpt lat="42.7732844" lon="12.2370784"><ele>466.0</ele><time>2026-04-12T10:36:26.568Z</time></trkpt><trkpt lat="42.7731049" lon="12.2369676"><ele>466.0</ele><time>2026-04-12T10:36:27.57Z</time></trkpt><trkpt lat="42.7729041" lon="12.2368897"><ele>466.0</ele><time>2026-04-12T10:36:28.571Z</time></trkpt><trkpt lat="42.7726866" lon="12.2368413"><ele>466.0</ele><time>2026-04-12T10:36:29.566Z</time></trkpt><trkpt lat="42.7724652" lon="12.2368111"><ele>463.6666666666667</ele><time>2026-04-12T10:36:30.57Z</time></trkpt><trkpt lat="42.7722518" lon="12.2367834"><ele>461.33333333333337</ele><time>2026-04-12T10:36:31.568Z</time></trkpt><trkpt lat="42.7720483" lon="12.2367473"><ele>459.0</ele><time>2026-04-12T10:36:32.569Z</time></trkpt><trkpt lat="42.7718513" lon="12.2367081"><ele>458.0</ele><time>2026-04-12T10:36:33.57Z</time></trkpt><trkpt lat="42.7716733" lon="12.2366711"><ele>457.0</ele><time>2026-04-12T10:36:34.567Z</time></trkpt><trkpt lat="42.7715113" lon="12.2366475"><ele>456.0</ele><time>2026-04-12T10:36:35.569Z</time></trkpt><trkpt lat="42.7713582" lon="12.2366667"><ele>456.0</ele><time>2026-04-12T10:36:36.564Z</time></trkpt><trkpt lat="42.7712199" lon="12.2367579"><ele>456.0</ele><time>2026-04-12T10:36:37.55Z</time></trkpt><trkpt lat="42.7711094" lon="12.2368814"><ele>456.0</ele><time>2026-04-12T10:36:38.555Z</time></trkpt><trkpt lat="42.7710125" lon="12.2369924"><ele>456.0</ele><time>2026-04-12T10:36:39.568Z</time></trkpt><trkpt lat="42.7709209" lon="12.2370694"><ele>454.20000000000005</ele><time>2026-04-12T10:36:40.56Z</time></trkpt><trkpt lat="42.7708316" lon="12.2370893"><ele>452.40000000000003</ele><time>2026-04-12T10:36:41.558Z</time></trkpt><trkpt lat="42.770756" lon="12.2370418"><ele>450.6</ele><time>2026-04-12T10:36:42.54Z</time></trkpt><trkpt lat="42.7707212" lon="12.236936"><ele>448.8</ele><time>2026-04-12T10:36:43.568Z</time></trkpt><trkpt lat="42.7707133" lon="12.2367901"><ele>447.0</ele><time>2026-04-12T10:36:44.573Z</time></trkpt><trkpt lat="42.7707012" lon="12.2366027"><ele>448.33333333333337</ele><time>2026-04-12T10:36:45.569Z</time></trkpt><trkpt lat="42.7706813" lon="12.2363939"><ele>449.6666666666667</ele><time>2026-04-12T10:36:46.56Z</time></trkpt><trkpt lat="42.7706322" lon="12.2361577"><ele>451.0</ele><time>2026-04-12T10:36:47.567Z</time></trkpt><trkpt lat="42.7705776" lon="12.2359078"><ele>451.0</ele><time>2026-04-12T10:36:48.566Z</time></trkpt><trkpt lat="42.7705163" lon="12.2356802"><ele>451.0</ele><time>2026-04-12T10:36:49.551Z</time></trkpt><trkpt lat="42.7704448" lon="12.2354872"><ele>451.0</ele><time>2026-04-12T10:36:50.568Z</time></trkpt><trkpt lat="42.7703669" lon="12.2353161"><ele>450.75</ele><time>2026-04-12T10:36:51.563Z</time></trkpt><trkpt lat="42.7702453" lon="12.2352219"><ele>450.5</ele><time>2026-04-12T10:36:52.566Z</time></trkpt><trkpt lat="42.7701056" lon="12.2351854"><ele>450.25</ele><time>2026-04-12T10:36:53.561Z</time></trkpt><trkpt lat="42.7699484" lon="12.2351832"><ele>450.0</ele><time>2026-04-12T10:36:54.566Z</time></trkpt><trkpt lat="42.7697754" lon="12.2352091"><ele>445.0</ele><time>2026-04-12T10:36:55.574Z</time></trkpt><trkpt lat="42.7695961" lon="12.235268"><ele>440.0</ele><time>2026-04-12T10:36:56.556Z</time></trkpt><trkpt lat="42.7694153" lon="12.2353594"><ele>435.0</ele><time>2026-04-12T10:36:57.553Z</time></trkpt><trkpt lat="42.7692464" lon="12.2354558"><ele>434.25</ele><time>2026-04-12T10:36:58.559Z</time></trkpt><trkpt lat="42.7690993" lon="12.2355422"><ele>433.5</ele><time>2026-04-12T10:36:59.557Z</time></trkpt><trkpt lat="42.7689718" lon="12.2356179"><ele>432.75</ele><time>2026-04-12T10:37:00.559Z</time></trkpt><trkpt lat="42.768857" lon="12.2356756"><ele>432.0</ele><time>2026-04-12T10:37:01.573Z</time></trkpt><trkpt lat="42.7687445" lon="12.2356872"><ele>432.0</ele><time>2026-04-12T10:37:02.556Z</time></trkpt><trkpt lat="42.7686372" lon="12.2356244"><ele>432.0</ele><time>2026-04-12T10:37:03.542Z</time></trkpt><trkpt lat="42.7685375" lon="12.2354876"><ele>432.0</ele><time>2026-04-12T10:37:04.554Z</time></trkpt><trkpt lat="42.7684272" lon="12.2353237"><ele>432.0</ele><time>2026-04-12T10:37:05.562Z</time></trkpt><trkpt lat="42.7682977" lon="12.2351647"><ele>428.66666666666663</ele><time>2026-04-12T10:37:06.559Z</time></trkpt><trkpt lat="42.7681676" lon="12.2350284"><ele>425.3333333333333</ele><time>2026-04-12T10:37:07.563Z</time></trkpt><trkpt lat="42.7680366" lon="12.2349065"><ele>422.0</ele><time>2026-04-12T10:37:08.554Z</time></trkpt><trkpt lat="42.767873" lon="12.2348514"><ele>419.0</ele><time>2026-04-12T10:37:09.553Z</time></trkpt><trkpt lat="42.7676777" lon="12.2348113"><ele>416.0</ele><time>2026-04-12T10:37:10.56Z</time></trkpt><trkpt lat="42.7674695" lon="12.2347884"><ele>413.0</ele><time>2026-04-12T10:37:11.566Z</time></trkpt><trkpt lat="42.7672554" lon="12.2347527"><ele>409.5</ele><time>2026-04-12T10:37:12.568Z</time></trkpt><trkpt lat="42.7670321" lon="12.2347093"><ele>406.0</ele><time>2026-04-12T10:37:13.56Z</time></trkpt><trkpt lat="42.766802" lon="12.2346664"><ele>406.0</ele><time>2026-04-12T10:37:14.555Z</time></trkpt><trkpt lat="42.7665764" lon="12.234628"><ele>406.0</ele><time>2026-04-12T10:37:15.562Z</time></trkpt><trkpt lat="42.7663588" lon="12.2346145"><ele>406.0</ele><time>2026-04-12T10:37:16.581Z</time></trkpt><trkpt lat="42.7661463" lon="12.2346189"><ele>407.0</ele><time>2026-04-12T10:37:17.576Z</time></trkpt><trkpt lat="42.7659522" lon="12.2346859"><ele>408.0</ele><time>2026-04-12T10:37:18.581Z</time></trkpt><trkpt lat="42.7657861" lon="12.2347859"><ele>409.0</ele><time>2026-04-12T10:37:19.582Z</time></trkpt><trkpt lat="42.7656413" lon="12.2348966"><ele>409.0</ele><time>2026-04-12T10:37:20.561Z</time></trkpt><trkpt lat="42.7654972" lon="12.2349739"><ele>409.0</ele><time>2026-04-12T10:37:21.57Z</time></trkpt><trkpt lat="42.7653501" lon="12.2350036"><ele>409.0</ele><time>2026-04-12T10:37:22.56Z</time></trkpt><trkpt lat="42.7652154" lon="12.2350053"><ele>409.0</ele><time>2026-04-12T10:37:23.547Z</time></trkpt><trkpt lat="42.7650989" lon="12.235002"><ele>408.6</ele><time>2026-04-12T10:37:24.564Z</time></trkpt><trkpt lat="42.764993" lon="12.2350016"><ele>408.2</ele><time>2026-04-12T10:37:25.557Z</time></trkpt><trkpt lat="42.7648979" lon="12.2349994"><ele>407.8</ele><time>2026-04-12T10:37:26.556Z</time></trkpt><trkpt lat="42.7648082" lon="12.2349976"><ele>407.40000000000003</ele><time>2026-04-12T10:37:27.564Z</time></trkpt><trkpt lat="42.7647247" lon="12.2349984"><ele>407.0</ele><time>2026-04-12T10:37:28.568Z</time></trkpt><trkpt lat="42.7646389" lon="12.2349968"><ele>406.99999999999994</ele><time>2026-04-12T10:37:29.556Z</time></trkpt><trkpt lat="42.7645519" lon="12.2349937"><ele>407.0</ele><time>2026-04-12T10:37:30.559Z</time></trkpt><trkpt lat="42.7644673" lon="12.2349909"><ele>407.0</ele><time>2026-04-12T10:37:31.558Z</time></trkpt><trkpt lat="42.764392" lon="12.2349919"><ele>407.0</ele><time>2026-04-12T10:37:32.557Z</time></trkpt><trkpt lat="42.7643256" lon="12.2349916"><ele>406.99999999999994</ele><time>2026-04-12T10:37:33.554Z</time></trkpt><trkpt lat="42.7642601" lon="12.2349874"><ele>407.0</ele><time>2026-04-12T10:37:34.552Z</time></trkpt><trkpt lat="42.7641422" lon="12.234951"><ele>406.20000000000005</ele><time>2026-04-12T10:37:36.549Z</time></trkpt><trkpt lat="42.764109" lon="12.2348774"><ele>405.4</ele><time>2026-04-12T10:37:37.559Z</time></trkpt><trkpt lat="42.7641085" lon="12.2347794"><ele>404.6</ele><time>2026-04-12T10:37:38.545Z</time></trkpt><trkpt lat="42.7641389" lon="12.2346672"><ele>403.79999999999995</ele><time>2026-04-12T10:37:39.542Z</time></trkpt><trkpt lat="42.7642003" lon="12.2345507"><ele>403.0</ele><time>2026-04-12T10:37:40.56Z</time></trkpt><trkpt lat="42.7642896" lon="12.2344363"><ele>403.0</ele><time>2026-04-12T10:37:41.544Z</time></trkpt><trkpt lat="42.7643969" lon="12.2343339"><ele>403.0</ele><time>2026-04-12T10:37:42.555Z</time></trkpt><trkpt lat="42.7645065" lon="12.2342427"><ele>403.0</ele><time>2026-04-12T10:37:43.557Z</time></trkpt><trkpt lat="42.7646058" lon="12.2342008"><ele>403.0</ele><time>2026-04-12T10:37:44.563Z</time></trkpt><trkpt lat="42.764698" lon="12.2341616"><ele>403.00000000000006</ele><time>2026-04-12T10:37:45.564Z</time></trkpt><trkpt lat="42.7647812" lon="12.2341134"><ele>403.0</ele><time>2026-04-12T10:37:46.554Z</time></trkpt><trkpt lat="42.7648521" lon="12.2340557"><ele>403.0</ele><time>2026-04-12T10:37:47.561Z</time></trkpt><trkpt lat="42.7649145" lon="12.2339893"><ele>403.0</ele><time>2026-04-12T10:37:48.563Z</time></trkpt><trkpt lat="42.7649729" lon="12.2339143"><ele>403.00000000000006</ele><time>2026-04-12T10:37:49.551Z</time></trkpt><trkpt lat="42.7650354" lon="12.2338236"><ele>403.0</ele><time>2026-04-12T10:37:50.555Z</time></trkpt><trkpt lat="42.765101" lon="12.2337146"><ele>398.25</ele><time>2026-04-12T10:37:51.554Z</time></trkpt><trkpt lat="42.765183" lon="12.2336084"><ele>393.5</ele><time>2026-04-12T10:37:52.561Z</time></trkpt><trkpt lat="42.7652797" lon="12.2335303"><ele>388.75</ele><time>2026-04-12T10:37:53.549Z</time></trkpt><trkpt lat="42.7653838" lon="12.2334928"><ele>384.0</ele><time>2026-04-12T10:37:54.547Z</time></trkpt><trkpt lat="42.7655031" lon="12.2334878"><ele>384.0</ele><time>2026-04-12T10:37:55.552Z</time></trkpt><trkpt lat="42.7656392" lon="12.2334939"><ele>384.0</ele><time>2026-04-12T10:37:56.555Z</time></trkpt><trkpt lat="42.765794" lon="12.2334984"><ele>384.0</ele><time>2026-04-12T10:37:57.567Z</time></trkpt><trkpt lat="42.7659525" lon="12.2335177"><ele>382.3333333333333</ele><time>2026-04-12T10:37:58.575Z</time></trkpt><trkpt lat="42.7661062" lon="12.2335795"><ele>380.66666666666663</ele><time>2026-04-12T10:37:59.552Z</time></trkpt><trkpt lat="42.766247" lon="12.2336575"><ele>379.0</ele><time>2026-04-12T10:38:00.551Z</time></trkpt><trkpt lat="42.7663893" lon="12.2337031"><ele>379.0</ele><time>2026-04-12T10:38:01.557Z</time></trkpt><trkpt lat="42.7665332" lon="12.233743"><ele>379.0</ele><time>2026-04-12T10:38:02.561Z</time></trkpt><trkpt lat="42.766682" lon="12.2336873"><ele>379.0</ele><time>2026-04-12T10:38:03.547Z</time></trkpt><trkpt lat="42.7668089" lon="12.233608"><ele>379.0</ele><time>2026-04-12T10:38:04.559Z</time></trkpt><trkpt lat="42.7669353" lon="12.2335208"><ele>379.0</ele><time>2026-04-12T10:38:05.553Z</time></trkpt><trkpt lat="42.7670602" lon="12.2334329"><ele>379.0</ele><time>2026-04-12T10:38:06.551Z</time></trkpt><trkpt lat="42.7671974" lon="12.2333637"><ele>379.0</ele><time>2026-04-12T10:38:07.55Z</time></trkpt><trkpt lat="42.7673513" lon="12.23333"><ele>379.0</ele><time>2026-04-12T10:38:08.55Z</time></trkpt><trkpt lat="42.7675117" lon="12.2333464"><ele>379.0</ele><time>2026-04-12T10:38:09.551Z</time></trkpt><trkpt lat="42.7676674" lon="12.2333808"><ele>379.0</ele><time>2026-04-12T10:38:10.55Z</time></trkpt><trkpt lat="42.7678137" lon="12.2334128"><ele>379.0</ele><time>2026-04-12T10:38:11.551Z</time></trkpt><trkpt lat="42.7679553" lon="12.2334306"><ele>379.0</ele><time>2026-04-12T10:38:12.558Z</time></trkpt><trkpt lat="42.7680922" lon="12.2334246"><ele>380.25</ele><time>2026-04-12T10:38:13.553Z</time></trkpt><trkpt lat="42.7682139" lon="12.2333825"><ele>381.5</ele><time>2026-04-12T10:38:14.544Z</time></trkpt><trkpt lat="42.7683138" lon="12.233302"><ele>382.75</ele><time>2026-04-12T10:38:15.551Z</time></trkpt><trkpt lat="42.7683838" lon="12.2331879"><ele>384.0</ele><time>2026-04-12T10:38:16.549Z</time></trkpt><trkpt lat="42.7684258" lon="12.2330651"><ele>384.4</ele><time>2026-04-12T10:38:17.55Z</time></trkpt><trkpt lat="42.7684362" lon="12.2329547"><ele>384.79999999999995</ele><time>2026-04-12T10:38:18.544Z</time></trkpt><trkpt lat="42.7684024" lon="12.232866"><ele>385.20000000000005</ele><time>2026-04-12T10:38:19.553Z</time></trkpt><trkpt lat="42.7683344" lon="12.2328121"><ele>385.6</ele><time>2026-04-12T10:38:20.546Z</time></trkpt><trkpt lat="42.7682424" lon="12.2327709"><ele>386.0</ele><time>2026-04-12T10:38:21.547Z</time></trkpt><trkpt lat="42.7681261" lon="12.2327154"><ele>386.0</ele><time>2026-04-12T10:38:22.556Z</time></trkpt><trkpt lat="42.7679945" lon="12.2326353"><ele>386.0</ele><time>2026-04-12T10:38:23.554Z</time></trkpt><trkpt lat="42.7678458" lon="12.2325507"><ele>386.0</ele><time>2026-04-12T10:38:24.554Z</time></trkpt><trkpt lat="42.767686" lon="12.2324573"><ele>386.0</ele><time>2026-04-12T10:38:25.557Z</time></trkpt><trkpt lat="42.7675257" lon="12.2323797"><ele>386.0</ele><time>2026-04-12T10:38:26.564Z</time></trkpt><trkpt lat="42.767364" lon="12.232317"><ele>386.0</ele><time>2026-04-12T10:38:27.554Z</time></trkpt><trkpt lat="42.7672041" lon="12.2322435"><ele>386.0</ele><time>2026-04-12T10:38:28.56Z</time></trkpt><trkpt lat="42.7670598" lon="12.2321504"><ele>386.0</ele><time>2026-04-12T10:38:29.56Z</time></trkpt><trkpt lat="42.7669306" lon="12.2320426"><ele>386.0</ele><time>2026-04-12T10:38:30.567Z</time></trkpt><trkpt lat="42.7668161" lon="12.231932"><ele>382.20000000000005</ele><time>2026-04-12T10:38:31.552Z</time></trkpt><trkpt lat="42.7667199" lon="12.2318235"><ele>378.40000000000003</ele><time>2026-04-12T10:38:32.561Z</time></trkpt><trkpt lat="42.7666483" lon="12.2317057"><ele>374.6</ele><time>2026-04-12T10:38:33.555Z</time></trkpt><trkpt lat="42.7666188" lon="12.231576"><ele>370.8</ele><time>2026-04-12T10:38:34.549Z</time></trkpt><trkpt lat="42.7666388" lon="12.2314424"><ele>367.0</ele><time>2026-04-12T10:38:35.553Z</time></trkpt><trkpt lat="42.7667045" lon="12.2313101"><ele>366.3333333333333</ele><time>2026-04-12T10:38:36.54Z</time></trkpt><trkpt lat="42.7667937" lon="12.2311629"><ele>365.6666666666667</ele><time>2026-04-12T10:38:37.547Z</time></trkpt><trkpt lat="42.7668719" lon="12.2309777"><ele>365.0</ele><time>2026-04-12T10:38:38.553Z</time></trkpt><trkpt lat="42.7669202" lon="12.2307794"><ele>368.0</ele><time>2026-04-12T10:38:39.553Z</time></trkpt><trkpt lat="42.7669706" lon="12.2305896"><ele>371.0</ele><time>2026-04-12T10:38:40.55Z</time></trkpt><trkpt lat="42.7670731" lon="12.2304357"><ele>374.0</ele><time>2026-04-12T10:38:41.552Z</time></trkpt><trkpt lat="42.7671975" lon="12.2302981"><ele>374.0</ele><time>2026-04-12T10:38:42.553Z</time></trkpt><trkpt lat="42.7673344" lon="12.2301408"><ele>374.0</ele><time>2026-04-12T10:38:43.555Z</time></trkpt><trkpt lat="42.7674532" lon="12.2299745"><ele>374.0</ele><time>2026-04-12T10:38:44.561Z</time></trkpt><trkpt lat="42.7675486" lon="12.2298101"><ele>372.5</ele><time>2026-04-12T10:38:45.547Z</time></trkpt><trkpt lat="42.767612" lon="12.2296404"><ele>371.0</ele><time>2026-04-12T10:38:46.555Z</time></trkpt><trkpt lat="42.767639" lon="12.2294773"><ele>369.5</ele><time>2026-04-12T10:38:47.546Z</time></trkpt><trkpt lat="42.7676258" lon="12.2293123"><ele>368.0</ele><time>2026-04-12T10:38:48.55Z</time></trkpt><trkpt lat="42.7675765" lon="12.2291725"><ele>368.0</ele><time>2026-04-12T10:38:49.549Z</time></trkpt><trkpt lat="42.767512" lon="12.2290638"><ele>368.0</ele><time>2026-04-12T10:38:50.53Z</time></trkpt><trkpt lat="42.7674374" lon="12.2289826"><ele>368.0</ele><time>2026-04-12T10:38:51.541Z</time></trkpt><trkpt lat="42.7673487" lon="12.2289475"><ele>368.0</ele><time>2026-04-12T10:38:52.543Z</time></trkpt><trkpt lat="42.7672654" lon="12.2289751"><ele>368.0</ele><time>2026-04-12T10:38:53.544Z</time></trkpt><trkpt lat="42.7671982" lon="12.2290452"><ele>368.0</ele><time>2026-04-12T10:38:54.543Z</time></trkpt><trkpt lat="42.7671239" lon="12.2291439"><ele>368.0</ele><time>2026-04-12T10:38:55.54Z</time></trkpt><trkpt lat="42.7670279" lon="12.2292544"><ele>368.0</ele><time>2026-04-12T10:38:56.546Z</time></trkpt><trkpt lat="42.7669097" lon="12.2293697"><ele>368.0</ele><time>2026-04-12T10:38:57.541Z</time></trkpt><trkpt lat="42.7667728" lon="12.229493"><ele>368.33333333333337</ele><time>2026-04-12T10:38:58.543Z</time></trkpt><trkpt lat="42.7666287" lon="12.2296186"><ele>368.6666666666667</ele><time>2026-04-12T10:38:59.558Z</time></trkpt><trkpt lat="42.7664683" lon="12.2297453"><ele>369.0</ele><time>2026-04-12T10:39:00.545Z</time></trkpt><trkpt lat="42.7662902" lon="12.2298411"><ele>369.0</ele><time>2026-04-12T10:39:01.55Z</time></trkpt><trkpt lat="42.7661043" lon="12.229899"><ele>369.0</ele><time>2026-04-12T10:39:02.553Z</time></trkpt><trkpt lat="42.7659304" lon="12.2299275"><ele>369.0</ele><time>2026-04-12T10:39:03.554Z</time></trkpt><trkpt lat="42.7657668" lon="12.2299354"><ele>371.0</ele><time>2026-04-12T10:39:04.555Z</time></trkpt><trkpt lat="42.7656211" lon="12.2299238"><ele>373.0</ele><time>2026-04-12T10:39:05.555Z</time></trkpt><trkpt lat="42.7654872" lon="12.2298621"><ele>375.0</ele><time>2026-04-12T10:39:06.546Z</time></trkpt><trkpt lat="42.7653708" lon="12.2297339"><ele>377.0</ele><time>2026-04-12T10:39:07.548Z</time></trkpt><trkpt lat="42.7652608" lon="12.2295736"><ele>379.75</ele><time>2026-04-12T10:39:08.558Z</time></trkpt><trkpt lat="42.7651667" lon="12.2294262"><ele>382.5</ele><time>2026-04-12T10:39:09.551Z</time></trkpt><trkpt lat="42.7650908" lon="12.229297"><ele>385.25</ele><time>2026-04-12T10:39:10.545Z</time></trkpt><trkpt lat="42.7650432" lon="12.229174"><ele>388.0</ele><time>2026-04-12T10:39:11.548Z</time></trkpt><trkpt lat="42.7650483" lon="12.2290584"><ele>388.0</ele><time>2026-04-12T10:39:12.55Z</time></trkpt><trkpt lat="42.7651022" lon="12.2289769"><ele>388.0</ele><time>2026-04-12T10:39:13.538Z</time></trkpt><trkpt lat="42.765185" lon="12.2289679"><ele>388.0</ele><time>2026-04-12T10:39:14.544Z</time></trkpt><trkpt lat="42.7652688" lon="12.2290266"><ele>388.0</ele><time>2026-04-12T10:39:15.552Z</time></trkpt><trkpt lat="42.7653529" lon="12.2291142"><ele>388.0</ele><time>2026-04-12T10:39:16.547Z</time></trkpt><trkpt lat="42.765442" lon="12.2292257"><ele>389.25</ele><time>2026-04-12T10:39:17.55Z</time></trkpt><trkpt lat="42.7655278" lon="12.2293523"><ele>390.5</ele><time>2026-04-12T10:39:18.547Z</time></trkpt><trkpt lat="42.7656115" lon="12.2294628"><ele>391.75</ele><time>2026-04-12T10:39:19.553Z</time></trkpt><trkpt lat="42.7657105" lon="12.2295217"><ele>393.0</ele><time>2026-04-12T10:39:20.548Z</time></trkpt><trkpt lat="42.7658309" lon="12.2295138"><ele>393.0</ele><time>2026-04-12T10:39:21.556Z</time></trkpt><trkpt lat="42.7659693" lon="12.2294525"><ele>393.0</ele><time>2026-04-12T10:39:22.551Z</time></trkpt><trkpt lat="42.7660869" lon="12.2292945"><ele>393.0</ele><time>2026-04-12T10:39:23.543Z</time></trkpt><trkpt lat="42.7662249" lon="12.2291285"><ele>394.66666666666663</ele><time>2026-04-12T10:39:24.546Z</time></trkpt><trkpt lat="42.7663826" lon="12.2289891"><ele>396.3333333333333</ele><time>2026-04-12T10:39:25.544Z</time></trkpt><trkpt lat="42.7665242" lon="12.2288759"><ele>398.0</ele><time>2026-04-12T10:39:26.549Z</time></trkpt><trkpt lat="42.7666286" lon="12.2287456"><ele>398.0</ele><time>2026-04-12T10:39:27.556Z</time></trkpt><trkpt lat="42.7666791" lon="12.2285942"><ele>398.0</ele><time>2026-04-12T10:39:28.537Z</time></trkpt><trkpt lat="42.7667185" lon="12.2284372"><ele>398.0</ele><time>2026-04-12T10:39:29.544Z</time></trkpt><trkpt lat="42.7666373" lon="12.228302"><ele>398.0</ele><time>2026-04-12T10:39:30.55Z</time></trkpt><trkpt lat="42.7665113" lon="12.2281909"><ele>400.66666666666663</ele><time>2026-04-12T10:39:31.554Z</time></trkpt><trkpt lat="42.7663702" lon="12.2280605"><ele>403.33333333333337</ele><time>2026-04-12T10:39:32.549Z</time></trkpt><trkpt lat="42.7662163" lon="12.2279191"><ele>406.0</ele><time>2026-04-12T10:39:33.557Z</time></trkpt><trkpt lat="42.766064" lon="12.2277104"><ele>412.0</ele><time>2026-04-12T10:39:34.549Z</time></trkpt><trkpt lat="42.7659138" lon="12.2274807"><ele>418.0</ele><time>2026-04-12T10:39:35.553Z</time></trkpt><trkpt lat="42.7657587" lon="12.2272485"><ele>418.6666666666667</ele><time>2026-04-12T10:39:36.566Z</time></trkpt><trkpt lat="42.7656119" lon="12.2270466"><ele>419.33333333333337</ele><time>2026-04-12T10:39:37.554Z</time></trkpt><trkpt lat="42.7654999" lon="12.226874"><ele>420.0</ele><time>2026-04-12T10:39:38.557Z</time></trkpt><trkpt lat="42.7654102" lon="12.2267378"><ele>420.0</ele><time>2026-04-12T10:39:39.556Z</time></trkpt><trkpt lat="42.7653636" lon="12.226615"><ele>420.0</ele><time>2026-04-12T10:39:40.547Z</time></trkpt><trkpt lat="42.7653708" lon="12.226499"><ele>420.0</ele><time>2026-04-12T10:39:41.556Z</time></trkpt><trkpt lat="42.7654349" lon="12.2264217"><ele>420.0</ele><time>2026-04-12T10:39:42.552Z</time></trkpt><trkpt lat="42.7655393" lon="12.2263956"><ele>420.0</ele><time>2026-04-12T10:39:43.542Z</time></trkpt><trkpt lat="42.7656772" lon="12.2263904"><ele>426.33333333333337</ele><time>2026-04-12T10:39:44.55Z</time></trkpt><trkpt lat="42.7658272" lon="12.2263882"><ele>432.6666666666667</ele><time>2026-04-12T10:39:45.559Z</time></trkpt><trkpt lat="42.7660079" lon="12.2264063"><ele>439.0</ele><time>2026-04-12T10:39:46.545Z</time></trkpt><trkpt lat="42.7661967" lon="12.2264236"><ele>439.6666666666667</ele><time>2026-04-12T10:39:47.559Z</time></trkpt><trkpt lat="42.7663812" lon="12.2264528"><ele>440.33333333333337</ele><time>2026-04-12T10:39:48.55Z</time></trkpt><trkpt lat="42.7665365" lon="12.226522"><ele>441.0</ele><time>2026-04-12T10:39:49.554Z</time></trkpt><trkpt lat="42.7666551" lon="12.2266243"><ele>436.5</ele><time>2026-04-12T10:39:50.55Z</time></trkpt><trkpt lat="42.7667749" lon="12.2266925"><ele>432.0</ele><time>2026-04-12T10:39:51.555Z</time></trkpt><trkpt lat="42.7669095" lon="12.2266935"><ele>427.5</ele><time>2026-04-12T10:39:52.547Z</time></trkpt><trkpt lat="42.767039" lon="12.2266653"><ele>423.0</ele><time>2026-04-12T10:39:53.548Z</time></trkpt><trkpt lat="42.7671746" lon="12.2264955"><ele>424.66666666666663</ele><time>2026-04-12T10:39:54.549Z</time></trkpt><trkpt lat="42.7672542" lon="12.2262713"><ele>426.3333333333333</ele><time>2026-04-12T10:39:55.553Z</time></trkpt><trkpt lat="42.7673185" lon="12.2260019"><ele>428.0</ele><time>2026-04-12T10:39:56.557Z</time></trkpt><trkpt lat="42.7673677" lon="12.2257545"><ele>427.66666666666663</ele><time>2026-04-12T10:39:57.558Z</time></trkpt><trkpt lat="42.7673868" lon="12.2255258"><ele>427.33333333333337</ele><time>2026-04-12T10:39:58.555Z</time></trkpt><trkpt lat="42.767364" lon="12.2253113"><ele>427.0</ele><time>2026-04-12T10:39:59.558Z</time></trkpt><trkpt lat="42.7672926" lon="12.2251149"><ele>427.0</ele><time>2026-04-12T10:40:00.548Z</time></trkpt><trkpt lat="42.7671761" lon="12.2249478"><ele>427.0</ele><time>2026-04-12T10:40:01.551Z</time></trkpt><trkpt lat="42.767039" lon="12.2247802"><ele>427.0</ele><time>2026-04-12T10:40:02.54Z</time></trkpt><trkpt lat="42.766906" lon="12.2246145"><ele>432.75</ele><time>2026-04-12T10:40:03.554Z</time></trkpt><trkpt lat="42.7668344" lon="12.2244092"><ele>438.5</ele><time>2026-04-12T10:40:04.549Z</time></trkpt><trkpt lat="42.7668172" lon="12.2242354"><ele>444.25</ele><time>2026-04-12T10:40:05.539Z</time></trkpt><trkpt lat="42.7668213" lon="12.2240818"><ele>450.0</ele><time>2026-04-12T10:40:06.552Z</time></trkpt><trkpt lat="42.7667804" lon="12.2239685"><ele>450.6</ele><time>2026-04-12T10:40:07.55Z</time></trkpt><trkpt lat="42.7666851" lon="12.2239014"><ele>451.2</ele><time>2026-04-12T10:40:08.554Z</time></trkpt><trkpt lat="42.7665674" lon="12.2238688"><ele>451.79999999999995</ele><time>2026-04-12T10:40:09.551Z</time></trkpt><trkpt lat="42.7664742" lon="12.2238532"><ele>452.4</ele><time>2026-04-12T10:40:10.548Z</time></trkpt><trkpt lat="42.766397" lon="12.2238621"><ele>453.0</ele><time>2026-04-12T10:40:11.55Z</time></trkpt><trkpt lat="42.7663384" lon="12.2239344"><ele>452.4</ele><time>2026-04-12T10:40:12.55Z</time></trkpt><trkpt lat="42.7663618" lon="12.2240499"><ele>451.79999999999995</ele><time>2026-04-12T10:40:13.561Z</time></trkpt><trkpt lat="42.7664238" lon="12.2241438"><ele>451.2</ele><time>2026-04-12T10:40:14.556Z</time></trkpt><trkpt lat="42.7665144" lon="12.2242227"><ele>450.6</ele><time>2026-04-12T10:40:15.549Z</time></trkpt><trkpt lat="42.7666104" lon="12.2243481"><ele>450.0</ele><time>2026-04-12T10:40:16.544Z</time></trkpt><trkpt lat="42.7666773" lon="12.2245236"><ele>450.0</ele><time>2026-04-12T10:40:17.556Z</time></trkpt><trkpt lat="42.7667349" lon="12.2247311"><ele>450.0</ele><time>2026-04-12T10:40:18.564Z</time></trkpt><trkpt lat="42.7667916" lon="12.2249296"><ele>450.0</ele><time>2026-04-12T10:40:19.549Z</time></trkpt><trkpt lat="42.7668414" lon="12.2250976"><ele>450.6</ele><time>2026-04-12T10:40:20.557Z</time></trkpt><trkpt lat="42.7668657" lon="12.2252417"><ele>451.2</ele><time>2026-04-12T10:40:21.554Z</time></trkpt><trkpt lat="42.7668346" lon="12.2253658"><ele>451.79999999999995</ele><time>2026-04-12T10:40:22.551Z</time></trkpt><trkpt lat="42.7667506" lon="12.2254475"><ele>452.4</ele><time>2026-04-12T10:40:23.552Z</time></trkpt><trkpt lat="42.766631" lon="12.2254778"><ele>453.0</ele><time>2026-04-12T10:40:24.55Z</time></trkpt><trkpt lat="42.7664955" lon="12.2254933"><ele>453.0</ele><time>2026-04-12T10:40:25.552Z</time></trkpt><trkpt lat="42.7663286" lon="12.225463"><ele>453.0</ele><time>2026-04-12T10:40:26.549Z</time></trkpt><trkpt lat="42.7661433" lon="12.2254197"><ele>453.0</ele><time>2026-04-12T10:40:27.557Z</time></trkpt><trkpt lat="42.7659468" lon="12.2253528"><ele>457.0</ele><time>2026-04-12T10:40:28.544Z</time></trkpt><trkpt lat="42.7657361" lon="12.2252767"><ele>461.0</ele><time>2026-04-12T10:40:29.55Z</time></trkpt><trkpt lat="42.7655142" lon="12.2251986"><ele>465.0</ele><time>2026-04-12T10:40:30.54Z</time></trkpt><trkpt lat="42.7652854" lon="12.2251223"><ele>465.5</ele><time>2026-04-12T10:40:31.566Z</time></trkpt><trkpt lat="42.7650544" lon="12.2250564"><ele>466.0</ele><time>2026-04-12T10:40:32.559Z</time></trkpt><trkpt lat="42.7648176" lon="12.2250028"><ele>466.0</ele><time>2026-04-12T10:40:33.558Z</time></trkpt><trkpt lat="42.7645827" lon="12.2249589"><ele>466.0</ele><time>2026-04-12T10:40:34.559Z</time></trkpt><trkpt lat="42.7643498" lon="12.2249126"><ele>465.0</ele><time>2026-04-12T10:40:35.551Z</time></trkpt><trkpt lat="42.7641186" lon="12.2248682"><ele>464.0</ele><time>2026-04-12T10:40:36.557Z</time></trkpt><trkpt lat="42.7639093" lon="12.2247786"><ele>467.66666666666663</ele><time>2026-04-12T10:40:37.559Z</time></trkpt><trkpt lat="42.7637197" lon="12.2246751"><ele>471.33333333333337</ele><time>2026-04-12T10:40:38.554Z</time></trkpt><trkpt lat="42.763553" lon="12.2245657"><ele>475.0</ele><time>2026-04-12T10:40:39.561Z</time></trkpt><trkpt lat="42.7633747" lon="12.2244897"><ele>475.0</ele><time>2026-04-12T10:40:40.562Z</time></trkpt><trkpt lat="42.7632277" lon="12.2244385"><ele>475.0</ele><time>2026-04-12T10:40:41.568Z</time></trkpt><trkpt lat="42.7631036" lon="12.2243535"><ele>475.0</ele><time>2026-04-12T10:40:42.551Z</time></trkpt><trkpt lat="42.7629975" lon="12.2242488"><ele>475.0</ele><time>2026-04-12T10:40:43.559Z</time></trkpt><trkpt lat="42.7629164" lon="12.2241176"><ele>475.5</ele><time>2026-04-12T10:40:44.556Z</time></trkpt><trkpt lat="42.762875" lon="12.2239599"><ele>476.0</ele><time>2026-04-12T10:40:45.548Z</time></trkpt><trkpt lat="42.7628702" lon="12.2237872"><ele>476.5</ele><time>2026-04-12T10:40:46.559Z</time></trkpt><trkpt lat="42.7628851" lon="12.2236126"><ele>477.0</ele><time>2026-04-12T10:40:47.56Z</time></trkpt><trkpt lat="42.7628871" lon="12.2234309"><ele>477.0</ele><time>2026-04-12T10:40:48.554Z</time></trkpt><trkpt lat="42.762875" lon="12.2232332"><ele>477.0</ele><time>2026-04-12T10:40:49.569Z</time></trkpt><trkpt lat="42.7628442" lon="12.2230132"><ele>477.0</ele><time>2026-04-12T10:40:50.562Z</time></trkpt><trkpt lat="42.7628081" lon="12.2227743"><ele>477.66666666666663</ele><time>2026-04-12T10:40:51.56Z</time></trkpt><trkpt lat="42.7627723" lon="12.2225186"><ele>478.3333333333333</ele><time>2026-04-12T10:40:52.558Z</time></trkpt><trkpt lat="42.7627337" lon="12.2222477"><ele>479.0</ele><time>2026-04-12T10:40:53.573Z</time></trkpt><trkpt lat="42.7626921" lon="12.2219675"><ele>479.0</ele><time>2026-04-12T10:40:54.563Z</time></trkpt><trkpt lat="42.7626492" lon="12.2216768"><ele>479.0</ele><time>2026-04-12T10:40:55.573Z</time></trkpt><trkpt lat="42.762603" lon="12.2213767"><ele>479.0</ele><time>2026-04-12T10:40:56.561Z</time></trkpt><trkpt lat="42.7625541" lon="12.2210661"><ele>478.0</ele><time>2026-04-12T10:40:57.561Z</time></trkpt><trkpt lat="42.7625009" lon="12.2207478"><ele>477.0</ele><time>2026-04-12T10:40:58.563Z</time></trkpt><trkpt lat="42.762445" lon="12.2204283"><ele>476.66666666666663</ele><time>2026-04-12T10:40:59.577Z</time></trkpt><trkpt lat="42.7623923" lon="12.2201259"><ele>476.3333333333333</ele><time>2026-04-12T10:41:00.559Z</time></trkpt><trkpt lat="42.7623441" lon="12.2198475"><ele>476.0</ele><time>2026-04-12T10:41:01.568Z</time></trkpt><trkpt lat="42.7622951" lon="12.219595"><ele>480.0</ele><time>2026-04-12T10:41:02.556Z</time></trkpt><trkpt lat="42.7622277" lon="12.2193694"><ele>484.0</ele><time>2026-04-12T10:41:03.559Z</time></trkpt><trkpt lat="42.7621221" lon="12.2191746"><ele>488.0</ele><time>2026-04-12T10:41:04.557Z</time></trkpt><trkpt lat="42.7619756" lon="12.2190153"><ele>488.3333333333333</ele><time>2026-04-12T10:41:05.558Z</time></trkpt><trkpt lat="42.761807" lon="12.2188728"><ele>488.66666666666663</ele><time>2026-04-12T10:41:06.549Z</time></trkpt><trkpt lat="42.761635" lon="12.2187239"><ele>489.0</ele><time>2026-04-12T10:41:07.56Z</time></trkpt><trkpt lat="42.761467" lon="12.2185574"><ele>489.0</ele><time>2026-04-12T10:41:08.556Z</time></trkpt><trkpt lat="42.7613104" lon="12.2183681"><ele>489.0</ele><time>2026-04-12T10:41:09.555Z</time></trkpt><trkpt lat="42.7611733" lon="12.218161"><ele>489.0</ele><time>2026-04-12T10:41:10.554Z</time></trkpt><trkpt lat="42.7610614" lon="12.2179451"><ele>487.0</ele><time>2026-04-12T10:41:11.543Z</time></trkpt><trkpt lat="42.7609779" lon="12.2177172"><ele>485.0</ele><time>2026-04-12T10:41:12.561Z</time></trkpt><trkpt lat="42.7609207" lon="12.2174834"><ele>483.0</ele><time>2026-04-12T10:41:13.551Z</time></trkpt><trkpt lat="42.7608854" lon="12.2172654"><ele>482.75</ele><time>2026-04-12T10:41:14.546Z</time></trkpt><trkpt lat="42.7608845" lon="12.2170677"><ele>482.5</ele><time>2026-04-12T10:41:15.557Z</time></trkpt><trkpt lat="42.760931" lon="12.2169041"><ele>482.25</ele><time>2026-04-12T10:41:16.547Z</time></trkpt><trkpt lat="42.76102" lon="12.216787"><ele>482.0</ele><time>2026-04-12T10:41:17.546Z</time></trkpt><trkpt lat="42.7611464" lon="12.2167077"><ele>487.0</ele><time>2026-04-12T10:41:18.561Z</time></trkpt><trkpt lat="42.7613026" lon="12.2166476"><ele>492.0</ele><time>2026-04-12T10:41:19.555Z</time></trkpt><trkpt lat="42.7614677" lon="12.2165855"><ele>497.0</ele><time>2026-04-12T10:41:20.548Z</time></trkpt><trkpt lat="42.761613" lon="12.2165199"><ele>496.0</ele><time>2026-04-12T10:41:21.581Z</time></trkpt><trkpt lat="42.7617309" lon="12.2164346"><ele>495.0</ele><time>2026-04-12T10:41:22.568Z</time></trkpt><trkpt lat="42.7618012" lon="12.2163138"><ele>494.0</ele><time>2026-04-12T10:41:23.571Z</time></trkpt><trkpt lat="42.7618187" lon="12.2161726"><ele>493.0</ele><time>2026-04-12T10:41:24.567Z</time></trkpt><trkpt lat="42.7617827" lon="12.2160406"><ele>493.0</ele><time>2026-04-12T10:41:25.574Z</time></trkpt><trkpt lat="42.7617241" lon="12.2159152"><ele>492.99999999999994</ele><time>2026-04-12T10:41:26.573Z</time></trkpt><trkpt lat="42.7617048" lon="12.2157708"><ele>492.99999999999994</ele><time>2026-04-12T10:41:27.568Z</time></trkpt><trkpt lat="42.761703" lon="12.2156506"><ele>493.0</ele><time>2026-04-12T10:41:28.546Z</time></trkpt><trkpt lat="42.7617896" lon="12.2155625"><ele>493.0</ele><time>2026-04-12T10:41:29.546Z</time></trkpt><trkpt lat="42.7619045" lon="12.215503"><ele>499.33333333333337</ele><time>2026-04-12T10:41:30.554Z</time></trkpt><trkpt lat="42.7620352" lon="12.2154064"><ele>505.66666666666663</ele><time>2026-04-12T10:41:31.551Z</time></trkpt><trkpt lat="42.7621461" lon="12.2152579"><ele>512.0</ele><time>2026-04-12T10:41:32.554Z</time></trkpt><trkpt lat="42.7622386" lon="12.2150742"><ele>512.0</ele><time>2026-04-12T10:41:33.551Z</time></trkpt><trkpt lat="42.7623117" lon="12.2148636"><ele>512.0</ele><time>2026-04-12T10:41:34.551Z</time></trkpt><trkpt lat="42.762341" lon="12.2146202"><ele>512.0</ele><time>2026-04-12T10:41:35.543Z</time></trkpt><trkpt lat="42.762366" lon="12.2143591"><ele>511.0</ele><time>2026-04-12T10:41:36.558Z</time></trkpt><trkpt lat="42.7623807" lon="12.2140903"><ele>510.0</ele><time>2026-04-12T10:41:37.558Z</time></trkpt><trkpt lat="42.7624188" lon="12.2138167"><ele>509.0</ele><time>2026-04-12T10:41:38.559Z</time></trkpt><trkpt lat="42.7624793" lon="12.2135651"><ele>507.66666666666663</ele><time>2026-04-12T10:41:39.558Z</time></trkpt><trkpt lat="42.7625605" lon="12.2133194"><ele>506.33333333333337</ele><time>2026-04-12T10:41:40.554Z</time></trkpt><trkpt lat="42.7626578" lon="12.2131028"><ele>505.0</ele><time>2026-04-12T10:41:41.546Z</time></trkpt><trkpt lat="42.762771" lon="12.2129179"><ele>508.25</ele><time>2026-04-12T10:41:42.553Z</time></trkpt><trkpt lat="42.7628867" lon="12.2127638"><ele>511.5</ele><time>2026-04-12T10:41:43.549Z</time></trkpt><trkpt lat="42.7629915" lon="12.2126309"><ele>514.75</ele><time>2026-04-12T10:41:44.557Z</time></trkpt><trkpt lat="42.7630795" lon="12.2125157"><ele>518.0</ele><time>2026-04-12T10:41:45.565Z</time></trkpt><trkpt lat="42.7631487" lon="12.2124087"><ele>519.8</ele><time>2026-04-12T10:41:46.552Z</time></trkpt><trkpt lat="42.7631768" lon="12.2122902"><ele>521.5999999999999</ele><time>2026-04-12T10:41:47.554Z</time></trkpt><trkpt lat="42.7631459" lon="12.2121571"><ele>523.4000000000001</ele><time>2026-04-12T10:41:48.547Z</time></trkpt><trkpt lat="42.7630586" lon="12.2120429"><ele>525.2</ele><time>2026-04-12T10:41:49.543Z</time></trkpt><trkpt lat="42.7629465" lon="12.2119461"><ele>527.0</ele><time>2026-04-12T10:41:50.543Z</time></trkpt><trkpt lat="42.7628001" lon="12.2118864"><ele>523.75</ele><time>2026-04-12T10:41:51.542Z</time></trkpt><trkpt lat="42.7626507" lon="12.2118176"><ele>520.5</ele><time>2026-04-12T10:41:52.545Z</time></trkpt><trkpt lat="42.7625052" lon="12.2117585"><ele>517.25</ele><time>2026-04-12T10:41:53.572Z</time></trkpt><trkpt lat="42.7623803" lon="12.211695"><ele>514.0</ele><time>2026-04-12T10:41:54.573Z</time></trkpt><trkpt lat="42.762296" lon="12.2115926"><ele>514.75</ele><time>2026-04-12T10:41:55.554Z</time></trkpt><trkpt lat="42.7622726" lon="12.2114668"><ele>515.5</ele><time>2026-04-12T10:41:56.567Z</time></trkpt><trkpt lat="42.7623058" lon="12.211348"><ele>516.25</ele><time>2026-04-12T10:41:57.552Z</time></trkpt><trkpt lat="42.7623814" lon="12.2112207"><ele>517.0</ele><time>2026-04-12T10:41:58.545Z</time></trkpt><trkpt lat="42.7624772" lon="12.2110727"><ele>517.0</ele><time>2026-04-12T10:41:59.545Z</time></trkpt><trkpt lat="42.7625678" lon="12.2109301"><ele>517.0</ele><time>2026-04-12T10:42:00.549Z</time></trkpt><trkpt lat="42.7626383" lon="12.2108035"><ele>517.0</ele><time>2026-04-12T10:42:01.555Z</time></trkpt><trkpt lat="42.7627007" lon="12.2106911"><ele>517.0</ele><time>2026-04-12T10:42:02.55Z</time></trkpt><trkpt lat="42.7626722" lon="12.2105724"><ele>521.0</ele><time>2026-04-12T10:42:03.555Z</time></trkpt><trkpt lat="42.7625792" lon="12.210493"><ele>525.0</ele><time>2026-04-12T10:42:04.555Z</time></trkpt><trkpt lat="42.7623072" lon="12.2104531"><ele>529.0</ele><time>2026-04-12T10:42:06.554Z</time></trkpt><trkpt lat="42.7621393" lon="12.2104252"><ele>529.0</ele><time>2026-04-12T10:42:07.554Z</time></trkpt><trkpt lat="42.7619724" lon="12.2103356"><ele>529.0</ele><time>2026-04-12T10:42:08.561Z</time></trkpt><trkpt lat="42.76181" lon="12.2101998"><ele>529.0</ele><time>2026-04-12T10:42:09.552Z</time></trkpt><trkpt lat="42.7616559" lon="12.2100268"><ele>529.6666666666667</ele><time>2026-04-12T10:42:10.549Z</time></trkpt><trkpt lat="42.7615119" lon="12.2098434"><ele>530.3333333333334</ele><time>2026-04-12T10:42:11.555Z</time></trkpt><trkpt lat="42.7613849" lon="12.209667"><ele>531.0</ele><time>2026-04-12T10:42:12.556Z</time></trkpt><trkpt lat="42.7612872" lon="12.2094999"><ele>531.0</ele><time>2026-04-12T10:42:13.569Z</time></trkpt><trkpt lat="42.7612319" lon="12.2093425"><ele>531.0</ele><time>2026-04-12T10:42:14.541Z</time></trkpt><trkpt lat="42.76123" lon="12.2091889"><ele>531.0</ele><time>2026-04-12T10:42:15.556Z</time></trkpt><trkpt lat="42.7612596" lon="12.2090254"><ele>531.0</ele><time>2026-04-12T10:42:16.565Z</time></trkpt><trkpt lat="42.7612958" lon="12.2088294"><ele>532.0</ele><time>2026-04-12T10:42:17.535Z</time></trkpt><trkpt lat="42.76134" lon="12.2086087"><ele>533.0</ele><time>2026-04-12T10:42:18.55Z</time></trkpt><trkpt lat="42.761402" lon="12.2084074"><ele>534.0</ele><time>2026-04-12T10:42:19.558Z</time></trkpt><trkpt lat="42.7614576" lon="12.2082298"><ele>536.25</ele><time>2026-04-12T10:42:20.556Z</time></trkpt><trkpt lat="42.7614901" lon="12.2080642"><ele>538.5</ele><time>2026-04-12T10:42:21.56Z</time></trkpt><trkpt lat="42.7614743" lon="12.2079146"><ele>540.75</ele><time>2026-04-12T10:42:22.542Z</time></trkpt><trkpt lat="42.7613442" lon="12.207773"><ele>543.0</ele><time>2026-04-12T10:42:23.545Z</time></trkpt><trkpt lat="42.7611737" lon="12.20768"><ele>541.6666666666666</ele><time>2026-04-12T10:42:24.569Z</time></trkpt><trkpt lat="42.7609844" lon="12.2075703"><ele>540.3333333333333</ele><time>2026-04-12T10:42:25.546Z</time></trkpt><trkpt lat="42.7607968" lon="12.2074359"><ele>539.0</ele><time>2026-04-12T10:42:26.553Z</time></trkpt><trkpt lat="42.7606227" lon="12.2072611"><ele>539.0</ele><time>2026-04-12T10:42:27.556Z</time></trkpt><trkpt lat="42.7604817" lon="12.2070682"><ele>539.0</ele><time>2026-04-12T10:42:28.554Z</time></trkpt><trkpt lat="42.7603797" lon="12.2068579"><ele>539.0</ele><time>2026-04-12T10:42:29.544Z</time></trkpt><trkpt lat="42.7603248" lon="12.206638"><ele>537.6666666666666</ele><time>2026-04-12T10:42:30.552Z</time></trkpt><trkpt lat="42.7603118" lon="12.206415"><ele>536.3333333333334</ele><time>2026-04-12T10:42:31.557Z</time></trkpt><trkpt lat="42.76035" lon="12.2062072"><ele>535.0</ele><time>2026-04-12T10:42:32.551Z</time></trkpt><trkpt lat="42.7604386" lon="12.2060386"><ele>535.0</ele><time>2026-04-12T10:42:33.558Z</time></trkpt><trkpt lat="42.7605674" lon="12.2059015"><ele>535.0</ele><time>2026-04-12T10:42:34.554Z</time></trkpt><trkpt lat="42.7607129" lon="12.205774"><ele>535.0</ele><time>2026-04-12T10:42:35.552Z</time></trkpt><trkpt lat="42.7608405" lon="12.205653"><ele>533.5</ele><time>2026-04-12T10:42:36.561Z</time></trkpt><trkpt lat="42.7609382" lon="12.2055159"><ele>532.0</ele><time>2026-04-12T10:42:37.556Z</time></trkpt><trkpt lat="42.7609911" lon="12.2053379"><ele>530.5</ele><time>2026-04-12T10:42:38.553Z</time></trkpt><trkpt lat="42.7609965" lon="12.2051346"><ele>529.0</ele><time>2026-04-12T10:42:39.552Z</time></trkpt><trkpt lat="42.7609856" lon="12.204907"><ele>532.0</ele><time>2026-04-12T10:42:40.548Z</time></trkpt><trkpt lat="42.7609298" lon="12.2046724"><ele>535.0</ele><time>2026-04-12T10:42:41.55Z</time></trkpt><trkpt lat="42.7608617" lon="12.204441"><ele>538.0</ele><time>2026-04-12T10:42:42.559Z</time></trkpt><trkpt lat="42.7607402" lon="12.20426"><ele>538.0</ele><time>2026-04-12T10:42:43.565Z</time></trkpt><trkpt lat="42.7605934" lon="12.2041233"><ele>538.0</ele><time>2026-04-12T10:42:44.564Z</time></trkpt><trkpt lat="42.760452" lon="12.2040137"><ele>538.0</ele><time>2026-04-12T10:42:45.554Z</time></trkpt><trkpt lat="42.7603234" lon="12.2039081"><ele>540.5</ele><time>2026-04-12T10:42:46.563Z</time></trkpt><trkpt lat="42.7602661" lon="12.203738"><ele>543.0</ele><time>2026-04-12T10:42:47.552Z</time></trkpt><trkpt lat="42.7602682" lon="12.2035498"><ele>545.5</ele><time>2026-04-12T10:42:48.544Z</time></trkpt><trkpt lat="42.7603054" lon="12.2033653"><ele>548.0</ele><time>2026-04-12T10:42:49.564Z</time></trkpt><trkpt lat="42.76036" lon="12.2031814"><ele>550.3333333333333</ele><time>2026-04-12T10:42:50.556Z</time></trkpt><trkpt lat="42.7603821" lon="12.2029631"><ele>552.6666666666666</ele><time>2026-04-12T10:42:51.564Z</time></trkpt><trkpt lat="42.7603909" lon="12.2027304"><ele>555.0</ele><time>2026-04-12T10:42:52.574Z</time></trkpt><trkpt lat="42.7603448" lon="12.202492"><ele>556.3333333333334</ele><time>2026-04-12T10:42:53.561Z</time></trkpt><trkpt lat="42.7603164" lon="12.2022274"><ele>557.6666666666667</ele><time>2026-04-12T10:42:54.568Z</time></trkpt><trkpt lat="42.7603207" lon="12.2019996"><ele>559.0</ele><time>2026-04-12T10:42:55.577Z</time></trkpt><trkpt lat="42.7603111" lon="12.2017951"><ele>559.0</ele><time>2026-04-12T10:42:56.561Z</time></trkpt><trkpt lat="42.7602553" lon="12.2016113"><ele>559.0</ele><time>2026-04-12T10:42:57.553Z</time></trkpt><trkpt lat="42.7601923" lon="12.2014688"><ele>559.0</ele><time>2026-04-12T10:42:58.558Z</time></trkpt><trkpt lat="42.7601063" lon="12.2013841"><ele>559.0</ele><time>2026-04-12T10:42:59.559Z</time></trkpt><trkpt lat="42.7600064" lon="12.2013298"><ele>556.0</ele><time>2026-04-12T10:43:00.562Z</time></trkpt><trkpt lat="42.7598884" lon="12.2013346"><ele>553.0</ele><time>2026-04-12T10:43:01.555Z</time></trkpt><trkpt lat="42.75976" lon="12.2012968"><ele>550.0</ele><time>2026-04-12T10:43:02.559Z</time></trkpt><trkpt lat="42.7596558" lon="12.2012041"><ele>547.0</ele><time>2026-04-12T10:43:03.553Z</time></trkpt><trkpt lat="42.7595846" lon="12.2010606"><ele>547.0</ele><time>2026-04-12T10:43:04.552Z</time></trkpt><trkpt lat="42.7595326" lon="12.200887"><ele>547.0</ele><time>2026-04-12T10:43:05.567Z</time></trkpt><trkpt lat="42.7594751" lon="12.2006815"><ele>547.0</ele><time>2026-04-12T10:43:06.558Z</time></trkpt><trkpt lat="42.7593871" lon="12.2004702"><ele>545.6666666666667</ele><time>2026-04-12T10:43:07.56Z</time></trkpt><trkpt lat="42.7592648" lon="12.2002646"><ele>544.3333333333334</ele><time>2026-04-12T10:43:08.551Z</time></trkpt><trkpt lat="42.7591094" lon="12.2000761"><ele>543.0</ele><time>2026-04-12T10:43:09.554Z</time></trkpt><trkpt lat="42.7589391" lon="12.1999119"><ele>543.0</ele><time>2026-04-12T10:43:10.537Z</time></trkpt><trkpt lat="42.7587807" lon="12.199747"><ele>543.0</ele><time>2026-04-12T10:43:11.558Z</time></trkpt><trkpt lat="42.7586475" lon="12.1995595"><ele>543.0</ele><time>2026-04-12T10:43:12.559Z</time></trkpt><trkpt lat="42.7585289" lon="12.1993727"><ele>543.0</ele><time>2026-04-12T10:43:13.563Z</time></trkpt><trkpt lat="42.7583926" lon="12.1992246"><ele>543.0</ele><time>2026-04-12T10:43:14.565Z</time></trkpt><trkpt lat="42.7582341" lon="12.1991018"><ele>543.0</ele><time>2026-04-12T10:43:15.543Z</time></trkpt><trkpt lat="42.7580619" lon="12.1989807"><ele>541.6666666666666</ele><time>2026-04-12T10:43:16.557Z</time></trkpt><trkpt lat="42.7578991" lon="12.1988547"><ele>540.3333333333333</ele><time>2026-04-12T10:43:17.548Z</time></trkpt><trkpt lat="42.7577571" lon="12.1987469"><ele>539.0</ele><time>2026-04-12T10:43:18.554Z</time></trkpt><trkpt lat="42.7576352" lon="12.1986555"><ele>539.0</ele><time>2026-04-12T10:43:19.545Z</time></trkpt><trkpt lat="42.7575274" lon="12.1985609"><ele>539.0</ele><time>2026-04-12T10:43:20.552Z</time></trkpt><trkpt lat="42.757456" lon="12.1984324"><ele>539.0</ele><time>2026-04-12T10:43:21.558Z</time></trkpt><trkpt lat="42.7574187" lon="12.1982617"><ele>539.0</ele><time>2026-04-12T10:43:22.554Z</time></trkpt><trkpt lat="42.7574074" lon="12.1980859"><ele>540.8</ele><time>2026-04-12T10:43:23.55Z</time></trkpt><trkpt lat="42.7573846" lon="12.1979385"><ele>542.5999999999999</ele><time>2026-04-12T10:43:24.561Z</time></trkpt><trkpt lat="42.7573312" lon="12.1978235"><ele>544.4</ele><time>2026-04-12T10:43:25.551Z</time></trkpt><trkpt lat="42.7572413" lon="12.1977666"><ele>546.1999999999999</ele><time>2026-04-12T10:43:26.543Z</time></trkpt><trkpt lat="42.757143" lon="12.1977773"><ele>548.0</ele><time>2026-04-12T10:43:27.533Z</time></trkpt><trkpt lat="42.7570574" lon="12.1978548"><ele>548.0</ele><time>2026-04-12T10:43:28.553Z</time></trkpt><trkpt lat="42.7570045" lon="12.1979769"><ele>548.0</ele><time>2026-04-12T10:43:29.536Z</time></trkpt><trkpt lat="42.7569628" lon="12.1981191"><ele>548.0</ele><time>2026-04-12T10:43:30.559Z</time></trkpt><trkpt lat="42.7568995" lon="12.1982589"><ele>548.0</ele><time>2026-04-12T10:43:31.573Z</time></trkpt><trkpt lat="42.7568098" lon="12.1983651"><ele>545.75</ele><time>2026-04-12T10:43:32.573Z</time></trkpt><trkpt lat="42.7567016" lon="12.1983931"><ele>543.5</ele><time>2026-04-12T10:43:33.562Z</time></trkpt><trkpt lat="42.7565785" lon="12.1983474"><ele>541.25</ele><time>2026-04-12T10:43:34.562Z</time></trkpt><trkpt lat="42.7564492" lon="12.1982674"><ele>539.0</ele><time>2026-04-12T10:43:35.57Z</time></trkpt><trkpt lat="42.7563122" lon="12.1981991"><ele>542.6666666666666</ele><time>2026-04-12T10:43:36.568Z</time></trkpt><trkpt lat="42.7561553" lon="12.1981514"><ele>546.3333333333334</ele><time>2026-04-12T10:43:37.56Z</time></trkpt><trkpt lat="42.7559833" lon="12.1981182"><ele>550.0</ele><time>2026-04-12T10:43:38.572Z</time></trkpt><trkpt lat="42.755807" lon="12.1980835"><ele>550.25</ele><time>2026-04-12T10:43:39.575Z</time></trkpt><trkpt lat="42.7556478" lon="12.1980477"><ele>550.5</ele><time>2026-04-12T10:43:40.578Z</time></trkpt><trkpt lat="42.7555135" lon="12.1980021"><ele>550.75</ele><time>2026-04-12T10:43:41.551Z</time></trkpt><trkpt lat="42.7554151" lon="12.1979168"><ele>551.0</ele><time>2026-04-12T10:43:42.57Z</time></trkpt><trkpt lat="42.7553391" lon="12.1978258"><ele>551.0</ele><time>2026-04-12T10:43:43.571Z</time></trkpt><trkpt lat="42.7553633" lon="12.1977054"><ele>551.0</ele><time>2026-04-12T10:43:44.559Z</time></trkpt><trkpt lat="42.755419" lon="12.1975794"><ele>551.0</ele><time>2026-04-12T10:43:45.569Z</time></trkpt><trkpt lat="42.7554944" lon="12.1974545"><ele>551.0</ele><time>2026-04-12T10:43:46.565Z</time></trkpt><trkpt lat="42.7555628" lon="12.1973334"><ele>551.0</ele><time>2026-04-12T10:43:47.579Z</time></trkpt><trkpt lat="42.7556174" lon="12.1972179"><ele>552.4</ele><time>2026-04-12T10:43:48.576Z</time></trkpt><trkpt lat="42.7555897" lon="12.1970808"><ele>553.8</ele><time>2026-04-12T10:43:49.571Z</time></trkpt><trkpt lat="42.755545" lon="12.1969491"><ele>555.1999999999999</ele><time>2026-04-12T10:43:50.57Z</time></trkpt><trkpt lat="42.7554569" lon="12.1968792"><ele>556.6</ele><time>2026-04-12T10:43:51.568Z</time></trkpt><trkpt lat="42.7553586" lon="12.1968387"><ele>558.0</ele><time>2026-04-12T10:43:52.565Z</time></trkpt><trkpt lat="42.7552599" lon="12.1967956"><ele>556.6666666666666</ele><time>2026-04-12T10:43:53.552Z</time></trkpt><trkpt lat="42.7551624" lon="12.1967557"><ele>555.3333333333334</ele><time>2026-04-12T10:43:54.578Z</time></trkpt><trkpt lat="42.7550726" lon="12.1967137"><ele>554.0</ele><time>2026-04-12T10:43:55.568Z</time></trkpt><trkpt lat="42.7549919" lon="12.196676"><ele>552.6666666666667</ele><time>2026-04-12T10:43:56.578Z</time></trkpt><trkpt lat="42.7549166" lon="12.1966471"><ele>551.3333333333334</ele><time>2026-04-12T10:43:57.554Z</time></trkpt><trkpt lat="42.7548459" lon="12.1966176"><ele>550.0</ele><time>2026-04-12T10:43:58.558Z</time></trkpt><trkpt lat="42.7547755" lon="12.1965849"><ele>550.0</ele><time>2026-04-12T10:43:59.562Z</time></trkpt><trkpt lat="42.7547028" lon="12.1965452"><ele>550.0</ele><time>2026-04-12T10:44:00.569Z</time></trkpt><trkpt lat="42.7546367" lon="12.196503"><ele>550.0</ele><time>2026-04-12T10:44:01.569Z</time></trkpt><trkpt lat="42.7545638" lon="12.1964213"><ele>550.0</ele><time>2026-04-12T10:44:03.563Z</time></trkpt><trkpt lat="42.7544825" lon="12.1963082"><ele>550.0</ele><time>2026-04-12T10:44:48.593Z</time></trkpt><trkpt lat="42.7544305" lon="12.196175"><ele>551.0</ele><time>2026-04-12T10:44:50.591Z</time></trkpt><trkpt lat="42.7544215" lon="12.1960775"><ele>552.0</ele><time>2026-04-12T10:44:51.587Z</time></trkpt><trkpt lat="42.7544309" lon="12.1959638"><ele>553.0</ele><time>2026-04-12T10:44:52.607Z</time></trkpt><trkpt lat="42.7544555" lon="12.1958428"><ele>554.0</ele><time>2026-04-12T10:44:53.586Z</time></trkpt><trkpt lat="42.7544877" lon="12.1957125"><ele>555.0</ele><time>2026-04-12T10:44:54.587Z</time></trkpt><trkpt lat="42.7545232" lon="12.1955714"><ele>555.0</ele><time>2026-04-12T10:44:55.594Z</time></trkpt><trkpt lat="42.7545606" lon="12.1954203"><ele>555.0</ele><time>2026-04-12T10:44:56.593Z</time></trkpt><trkpt lat="42.7545983" lon="12.1952653"><ele>555.0</ele><time>2026-04-12T10:44:57.596Z</time></trkpt><trkpt lat="42.7546179" lon="12.1951133"><ele>555.0</ele><time>2026-04-12T10:44:58.593Z</time></trkpt><trkpt lat="42.7545957" lon="12.1949638"><ele>555.0</ele><time>2026-04-12T10:44:59.585Z</time></trkpt><trkpt lat="42.7545234" lon="12.1948377"><ele>555.0</ele><time>2026-04-12T10:45:00.591Z</time></trkpt><trkpt lat="42.7544192" lon="12.194744"><ele>555.0</ele><time>2026-04-12T10:45:01.587Z</time></trkpt><trkpt lat="42.7543075" lon="12.1946797"><ele>555.0</ele><time>2026-04-12T10:45:02.593Z</time></trkpt><trkpt lat="42.7542003" lon="12.1946276"><ele>552.6</ele><time>2026-04-12T10:45:03.588Z</time></trkpt><trkpt lat="42.7540999" lon="12.1945767"><ele>550.2</ele><time>2026-04-12T10:45:04.59Z</time></trkpt><trkpt lat="42.7540051" lon="12.1945292"><ele>547.8</ele><time>2026-04-12T10:45:05.592Z</time></trkpt><trkpt lat="42.7539154" lon="12.194488"><ele>545.4</ele><time>2026-04-12T10:45:06.59Z</time></trkpt><trkpt lat="42.7538335" lon="12.194439"><ele>543.0</ele><time>2026-04-12T10:45:07.589Z</time></trkpt><trkpt lat="42.7537699" lon="12.1943624"><ele>543.0</ele><time>2026-04-12T10:45:08.588Z</time></trkpt><trkpt lat="42.753741" lon="12.1942572"><ele>543.0</ele><time>2026-04-12T10:45:09.594Z</time></trkpt><trkpt lat="42.7537589" lon="12.1941458"><ele>543.0</ele><time>2026-04-12T10:45:10.586Z</time></trkpt><trkpt lat="42.7538218" lon="12.1940462"><ele>543.0</ele><time>2026-04-12T10:45:11.591Z</time></trkpt><trkpt lat="42.7539212" lon="12.1939564"><ele>543.0</ele><time>2026-04-12T10:45:12.59Z</time></trkpt><trkpt lat="42.7540457" lon="12.1938636"><ele>542.0</ele><time>2026-04-12T10:45:13.585Z</time></trkpt><trkpt lat="42.7541791" lon="12.1937612"><ele>541.0</ele><time>2026-04-12T10:45:14.587Z</time></trkpt><trkpt lat="42.7543033" lon="12.193614"><ele>540.0</ele><time>2026-04-12T10:45:15.587Z</time></trkpt><trkpt lat="42.7544009" lon="12.1934066"><ele>540.0</ele><time>2026-04-12T10:45:16.592Z</time></trkpt><trkpt lat="42.7544928" lon="12.1931922"><ele>540.0</ele><time>2026-04-12T10:45:17.586Z</time></trkpt><trkpt lat="42.7545852" lon="12.1929828"><ele>540.0</ele><time>2026-04-12T10:45:18.591Z</time></trkpt><trkpt lat="42.7546961" lon="12.1928034"><ele>537.6666666666666</ele><time>2026-04-12T10:45:19.582Z</time></trkpt><trkpt lat="42.7548007" lon="12.1926348"><ele>535.3333333333333</ele><time>2026-04-12T10:45:20.587Z</time></trkpt><trkpt lat="42.7548929" lon="12.1924687"><ele>533.0</ele><time>2026-04-12T10:45:21.585Z</time></trkpt><trkpt lat="42.754934" lon="12.1922679"><ele>532.5</ele><time>2026-04-12T10:45:22.583Z</time></trkpt><trkpt lat="42.7549203" lon="12.1920705"><ele>532.0</ele><time>2026-04-12T10:45:23.584Z</time></trkpt><trkpt lat="42.7548906" lon="12.1918838"><ele>531.5</ele><time>2026-04-12T10:45:24.584Z</time></trkpt><trkpt lat="42.7548992" lon="12.1917006"><ele>531.0</ele><time>2026-04-12T10:45:25.588Z</time></trkpt><trkpt lat="42.7549549" lon="12.1915281"><ele>530.5</ele><time>2026-04-12T10:45:26.587Z</time></trkpt><trkpt lat="42.755027" lon="12.1913726"><ele>530.0</ele><time>2026-04-12T10:45:27.588Z</time></trkpt><trkpt lat="42.755083" lon="12.1912141"><ele>529.5</ele><time>2026-04-12T10:45:28.586Z</time></trkpt><trkpt lat="42.7550926" lon="12.1910364"><ele>529.0</ele><time>2026-04-12T10:45:29.586Z</time></trkpt><trkpt lat="42.7550392" lon="12.190857"><ele>529.0</ele><time>2026-04-12T10:45:30.587Z</time></trkpt><trkpt lat="42.7549412" lon="12.1906859"><ele>529.0</ele><time>2026-04-12T10:45:31.591Z</time></trkpt><trkpt lat="42.7548275" lon="12.1905025"><ele>529.0</ele><time>2026-04-12T10:45:32.588Z</time></trkpt><trkpt lat="42.7547051" lon="12.1902985"><ele>527.0</ele><time>2026-04-12T10:45:33.588Z</time></trkpt><trkpt lat="42.7545726" lon="12.1900782"><ele>525.0</ele><time>2026-04-12T10:45:34.607Z</time></trkpt><trkpt lat="42.7544295" lon="12.189844"><ele>523.0</ele><time>2026-04-12T10:45:35.589Z</time></trkpt><trkpt lat="42.754278" lon="12.1896008"><ele>523.0</ele><time>2026-04-12T10:45:36.587Z</time></trkpt><trkpt lat="42.754124" lon="12.1893481"><ele>523.0</ele><time>2026-04-12T10:45:37.588Z</time></trkpt><trkpt lat="42.7539664" lon="12.1890907"><ele>522.5</ele><time>2026-04-12T10:45:38.59Z</time></trkpt><trkpt lat="42.7538053" lon="12.1888318"><ele>522.0</ele><time>2026-04-12T10:45:39.587Z</time></trkpt><trkpt lat="42.753643" lon="12.1885898"><ele>521.6666666666666</ele><time>2026-04-12T10:45:40.601Z</time></trkpt><trkpt lat="42.7534715" lon="12.1883868"><ele>521.3333333333333</ele><time>2026-04-12T10:45:41.586Z</time></trkpt><trkpt lat="42.7532933" lon="12.1882107"><ele>521.0</ele><time>2026-04-12T10:45:42.588Z</time></trkpt><trkpt lat="42.7531183" lon="12.1880305"><ele>521.6666666666666</ele><time>2026-04-12T10:45:43.586Z</time></trkpt><trkpt lat="42.7529466" lon="12.1878331"><ele>522.3333333333334</ele><time>2026-04-12T10:45:44.586Z</time></trkpt><trkpt lat="42.752781" lon="12.1876306"><ele>523.0</ele><time>2026-04-12T10:45:45.604Z</time></trkpt><trkpt lat="42.7526236" lon="12.1874357"><ele>521.0</ele><time>2026-04-12T10:45:46.592Z</time></trkpt><trkpt lat="42.7524733" lon="12.1872479"><ele>519.0</ele><time>2026-04-12T10:45:47.593Z</time></trkpt><trkpt lat="42.7523311" lon="12.1870698"><ele>517.0</ele><time>2026-04-12T10:45:48.594Z</time></trkpt><trkpt lat="42.7522025" lon="12.1868939"><ele>517.0</ele><time>2026-04-12T10:45:49.591Z</time></trkpt><trkpt lat="42.7521068" lon="12.1866968"><ele>517.0</ele><time>2026-04-12T10:45:50.598Z</time></trkpt><trkpt lat="42.7520574" lon="12.1864601"><ele>517.0</ele><time>2026-04-12T10:45:51.587Z</time></trkpt><trkpt lat="42.7520416" lon="12.1862013"><ele>516.6666666666667</ele><time>2026-04-12T10:45:52.593Z</time></trkpt><trkpt lat="42.7520372" lon="12.1859578"><ele>516.3333333333334</ele><time>2026-04-12T10:45:53.59Z</time></trkpt><trkpt lat="42.7520264" lon="12.1857392"><ele>516.0</ele><time>2026-04-12T10:45:54.595Z</time></trkpt><trkpt lat="42.7519996" lon="12.1855221"><ele>513.6666666666666</ele><time>2026-04-12T10:45:55.589Z</time></trkpt><trkpt lat="42.7519565" lon="12.1853185"><ele>511.3333333333333</ele><time>2026-04-12T10:45:56.591Z</time></trkpt><trkpt lat="42.7518126" lon="12.1851576"><ele>509.0</ele><time>2026-04-12T10:45:57.589Z</time></trkpt><trkpt lat="42.7516381" lon="12.1850512"><ele>509.0</ele><time>2026-04-12T10:45:58.589Z</time></trkpt><trkpt lat="42.7514447" lon="12.1849864"><ele>509.0</ele><time>2026-04-12T10:45:59.586Z</time></trkpt><trkpt lat="42.7512415" lon="12.1849233"><ele>509.0</ele><time>2026-04-12T10:46:00.587Z</time></trkpt><trkpt lat="42.7510275" lon="12.1848591"><ele>509.0</ele><time>2026-04-12T10:46:01.592Z</time></trkpt><trkpt lat="42.7508072" lon="12.184789"><ele>509.0</ele><time>2026-04-12T10:46:02.594Z</time></trkpt><trkpt lat="42.7505805" lon="12.1847207"><ele>509.0</ele><time>2026-04-12T10:46:03.586Z</time></trkpt><trkpt lat="42.750351" lon="12.1846493"><ele>509.0</ele><time>2026-04-12T10:46:04.593Z</time></trkpt><trkpt lat="42.7501294" lon="12.1845817"><ele>508.66666666666663</ele><time>2026-04-12T10:46:05.59Z</time></trkpt><trkpt lat="42.7499126" lon="12.1845166"><ele>508.33333333333337</ele><time>2026-04-12T10:46:06.584Z</time></trkpt><trkpt lat="42.7496918" lon="12.1844495"><ele>508.0</ele><time>2026-04-12T10:46:07.592Z</time></trkpt><trkpt lat="42.7494729" lon="12.1843838"><ele>505.0</ele><time>2026-04-12T10:46:08.587Z</time></trkpt><trkpt lat="42.7492611" lon="12.1843151"><ele>502.0</ele><time>2026-04-12T10:46:09.598Z</time></trkpt><trkpt lat="42.7490552" lon="12.1842367"><ele>499.0</ele><time>2026-04-12T10:46:10.587Z</time></trkpt><trkpt lat="42.7488591" lon="12.1841388"><ele>499.0</ele><time>2026-04-12T10:46:11.588Z</time></trkpt><trkpt lat="42.7486767" lon="12.1840207"><ele>499.0</ele><time>2026-04-12T10:46:12.582Z</time></trkpt><trkpt lat="42.7485116" lon="12.1838935"><ele>499.0</ele><time>2026-04-12T10:46:13.582Z</time></trkpt><trkpt lat="42.7483677" lon="12.1837709"><ele>497.5</ele><time>2026-04-12T10:46:14.587Z</time></trkpt><trkpt lat="42.7482431" lon="12.1836446"><ele>496.0</ele><time>2026-04-12T10:46:15.587Z</time></trkpt><trkpt lat="42.7481525" lon="12.1835059"><ele>494.5</ele><time>2026-04-12T10:46:16.587Z</time></trkpt><trkpt lat="42.7480805" lon="12.1833723"><ele>493.0</ele><time>2026-04-12T10:46:17.582Z</time></trkpt><trkpt lat="42.7481215" lon="12.1832193"><ele>492.5</ele><time>2026-04-12T10:46:18.582Z</time></trkpt><trkpt lat="42.7482095" lon="12.1830995"><ele>492.0</ele><time>2026-04-12T10:46:19.589Z</time></trkpt><trkpt lat="42.7483303" lon="12.1829948"><ele>491.5</ele><time>2026-04-12T10:46:20.586Z</time></trkpt><trkpt lat="42.7484782" lon="12.1828696"><ele>491.0</ele><time>2026-04-12T10:46:21.591Z</time></trkpt><trkpt lat="42.7486362" lon="12.1827341"><ele>491.0</ele><time>2026-04-12T10:46:22.59Z</time></trkpt><trkpt lat="42.7487886" lon="12.1826051"><ele>491.0</ele><time>2026-04-12T10:46:23.59Z</time></trkpt><trkpt lat="42.7489318" lon="12.1824873"><ele>491.0</ele><time>2026-04-12T10:46:24.583Z</time></trkpt><trkpt lat="42.7490498" lon="12.1823794"><ele>489.0</ele><time>2026-04-12T10:46:25.586Z</time></trkpt><trkpt lat="42.7491352" lon="12.1822609"><ele>487.0</ele><time>2026-04-12T10:46:26.591Z</time></trkpt><trkpt lat="42.7492029" lon="12.1821352"><ele>485.0</ele><time>2026-04-12T10:46:27.588Z</time></trkpt><trkpt lat="42.7491983" lon="12.1819699"><ele>483.0</ele><time>2026-04-12T10:46:28.6Z</time></trkpt><trkpt lat="42.7491131" lon="12.1817858"><ele>483.0</ele><time>2026-04-12T10:46:29.582Z</time></trkpt><trkpt lat="42.7490023" lon="12.1815923"><ele>483.0</ele><time>2026-04-12T10:46:30.589Z</time></trkpt><trkpt lat="42.7489243" lon="12.181388"><ele>483.0</ele><time>2026-04-12T10:46:31.593Z</time></trkpt><trkpt lat="42.7488865" lon="12.1811641"><ele>480.66666666666663</ele><time>2026-04-12T10:46:32.589Z</time></trkpt><trkpt lat="42.7488972" lon="12.1809221"><ele>478.3333333333333</ele><time>2026-04-12T10:46:33.586Z</time></trkpt><trkpt lat="42.7489274" lon="12.1806705"><ele>476.0</ele><time>2026-04-12T10:46:34.589Z</time></trkpt><trkpt lat="42.7489505" lon="12.1804052"><ele>474.75</ele><time>2026-04-12T10:46:35.591Z</time></trkpt><trkpt lat="42.748954" lon="12.1802043"><ele>473.5</ele><time>2026-04-12T10:46:36.587Z</time></trkpt><trkpt lat="42.748959" lon="12.1800185"><ele>472.25</ele><time>2026-04-12T10:46:37.598Z</time></trkpt><trkpt lat="42.748941" lon="12.179857"><ele>471.0</ele><time>2026-04-12T10:46:38.593Z</time></trkpt><trkpt lat="42.7488692" lon="12.1797171"><ele>467.66666666666663</ele><time>2026-04-12T10:46:39.588Z</time></trkpt><trkpt lat="42.7487464" lon="12.1796245"><ele>464.3333333333333</ele><time>2026-04-12T10:46:40.589Z</time></trkpt><trkpt lat="42.7486005" lon="12.1795586"><ele>461.0</ele><time>2026-04-12T10:46:41.591Z</time></trkpt><trkpt lat="42.7484339" lon="12.1794935"><ele>461.0</ele><time>2026-04-12T10:46:42.59Z</time></trkpt><trkpt lat="42.7482669" lon="12.1794272"><ele>461.0</ele><time>2026-04-12T10:46:43.586Z</time></trkpt><trkpt lat="42.7481176" lon="12.1793772"><ele>461.0</ele><time>2026-04-12T10:46:44.589Z</time></trkpt><trkpt lat="42.7479894" lon="12.179365"><ele>461.0</ele><time>2026-04-12T10:46:45.59Z</time></trkpt><trkpt lat="42.7478906" lon="12.1794171"><ele>461.0</ele><time>2026-04-12T10:46:46.589Z</time></trkpt><trkpt lat="42.7478416" lon="12.1795353"><ele>461.0</ele><time>2026-04-12T10:46:47.587Z</time></trkpt><trkpt lat="42.7478505" lon="12.179688"><ele>461.0</ele><time>2026-04-12T10:46:48.589Z</time></trkpt><trkpt lat="42.7478705" lon="12.1798601"><ele>461.0</ele><time>2026-04-12T10:46:49.589Z</time></trkpt><trkpt lat="42.7479396" lon="12.1800464"><ele>463.0</ele><time>2026-04-12T10:46:50.587Z</time></trkpt><trkpt lat="42.7480026" lon="12.180234"><ele>465.0</ele><time>2026-04-12T10:46:51.599Z</time></trkpt><trkpt lat="42.7480686" lon="12.180433"><ele>467.0</ele><time>2026-04-12T10:46:52.59Z</time></trkpt><trkpt lat="42.7481293" lon="12.1806155"><ele>466.75</ele><time>2026-04-12T10:46:53.588Z</time></trkpt><trkpt lat="42.7481815" lon="12.1807922"><ele>466.5</ele><time>2026-04-12T10:46:54.586Z</time></trkpt><trkpt lat="42.7482168" lon="12.1809493"><ele>466.25</ele><time>2026-04-12T10:46:55.589Z</time></trkpt><trkpt lat="42.7482338" lon="12.1810908"><ele>466.0</ele><time>2026-04-12T10:46:56.589Z</time></trkpt><trkpt lat="42.7482108" lon="12.1812155"><ele>466.0</ele><time>2026-04-12T10:46:57.586Z</time></trkpt><trkpt lat="42.7481415" lon="12.181302"><ele>466.0</ele><time>2026-04-12T10:46:58.585Z</time></trkpt><trkpt lat="42.7480463" lon="12.1813174"><ele>466.0</ele><time>2026-04-12T10:46:59.589Z</time></trkpt><trkpt lat="42.7479371" lon="12.1812678"><ele>466.0</ele><time>2026-04-12T10:47:00.588Z</time></trkpt><trkpt lat="42.7478076" lon="12.1811779"><ele>464.0</ele><time>2026-04-12T10:47:01.594Z</time></trkpt><trkpt lat="42.7476578" lon="12.1810719"><ele>462.0</ele><time>2026-04-12T10:47:02.587Z</time></trkpt><trkpt lat="42.7474865" lon="12.1809584"><ele>460.0</ele><time>2026-04-12T10:47:03.589Z</time></trkpt><trkpt lat="42.7472923" lon="12.1808577"><ele>460.0</ele><time>2026-04-12T10:47:04.582Z</time></trkpt><trkpt lat="42.7470774" lon="12.1807785"><ele>460.0</ele><time>2026-04-12T10:47:05.592Z</time></trkpt><trkpt lat="42.7468512" lon="12.1807064"><ele>449.5</ele><time>2026-04-12T10:47:06.583Z</time></trkpt><trkpt lat="42.7466198" lon="12.1806258"><ele>439.0</ele><time>2026-04-12T10:47:07.593Z</time></trkpt><trkpt lat="42.7463878" lon="12.1805243"><ele>439.0</ele><time>2026-04-12T10:47:08.587Z</time></trkpt><trkpt lat="42.7461675" lon="12.1804072"><ele>439.0</ele><time>2026-04-12T10:47:09.586Z</time></trkpt><trkpt lat="42.7459618" lon="12.1802785"><ele>439.33333333333337</ele><time>2026-04-12T10:47:10.594Z</time></trkpt><trkpt lat="42.7457613" lon="12.180159"><ele>439.66666666666663</ele><time>2026-04-12T10:47:11.585Z</time></trkpt><trkpt lat="42.7455578" lon="12.1800634"><ele>440.0</ele><time>2026-04-12T10:47:12.586Z</time></trkpt><trkpt lat="42.7453625" lon="12.1799937"><ele>441.3333333333333</ele><time>2026-04-12T10:47:13.586Z</time></trkpt><trkpt lat="42.7451701" lon="12.1799696"><ele>442.66666666666663</ele><time>2026-04-12T10:47:14.585Z</time></trkpt><trkpt lat="42.7449923" lon="12.1800107"><ele>444.0</ele><time>2026-04-12T10:47:15.582Z</time></trkpt><trkpt lat="42.7448471" lon="12.18009"><ele>444.0</ele><time>2026-04-12T10:47:16.587Z</time></trkpt><trkpt lat="42.7447311" lon="12.1801574"><ele>444.0</ele><time>2026-04-12T10:47:17.59Z</time></trkpt><trkpt lat="42.744629" lon="12.1801952"><ele>444.0</ele><time>2026-04-12T10:47:18.586Z</time></trkpt><trkpt lat="42.7445316" lon="12.1801383"><ele>444.0</ele><time>2026-04-12T10:47:19.589Z</time></trkpt><trkpt lat="42.7444573" lon="12.1800167"><ele>440.0</ele><time>2026-04-12T10:47:20.586Z</time></trkpt><trkpt lat="42.7444287" lon="12.1798499"><ele>436.0</ele><time>2026-04-12T10:47:21.584Z</time></trkpt><trkpt lat="42.7444993" lon="12.1796896"><ele>432.0</ele><time>2026-04-12T10:47:22.592Z</time></trkpt><trkpt lat="42.7445801" lon="12.1795247"><ele>428.0</ele><time>2026-04-12T10:47:23.59Z</time></trkpt><trkpt lat="42.7447087" lon="12.1794333"><ele>428.0</ele><time>2026-04-12T10:47:24.597Z</time></trkpt><trkpt lat="42.744874" lon="12.1794505"><ele>428.0</ele><time>2026-04-12T10:47:25.587Z</time></trkpt><trkpt lat="42.7450401" lon="12.1794724"><ele>428.0</ele><time>2026-04-12T10:47:26.583Z</time></trkpt><trkpt lat="42.7452269" lon="12.1795527"><ele>426.66666666666663</ele><time>2026-04-12T10:47:27.593Z</time></trkpt><trkpt lat="42.7454297" lon="12.1796554"><ele>425.33333333333337</ele><time>2026-04-12T10:47:28.587Z</time></trkpt><trkpt lat="42.7456431" lon="12.1797526"><ele>424.0</ele><time>2026-04-12T10:47:29.592Z</time></trkpt><trkpt lat="42.7458597" lon="12.1798502"><ele>429.0</ele><time>2026-04-12T10:47:30.587Z</time></trkpt><trkpt lat="42.7460589" lon="12.1799406"><ele>434.0</ele><time>2026-04-12T10:47:31.585Z</time></trkpt><trkpt lat="42.7462424" lon="12.180027"><ele>439.0</ele><time>2026-04-12T10:47:32.589Z</time></trkpt><trkpt lat="42.7464013" lon="12.1800995"><ele>439.0</ele><time>2026-04-12T10:47:33.59Z</time></trkpt><trkpt lat="42.7465378" lon="12.1801511"><ele>439.0</ele><time>2026-04-12T10:47:34.587Z</time></trkpt><trkpt lat="42.74666" lon="12.1801666"><ele>439.0</ele><time>2026-04-12T10:47:35.588Z</time></trkpt><trkpt lat="42.746757" lon="12.1801184"><ele>439.0</ele><time>2026-04-12T10:47:36.588Z</time></trkpt><trkpt lat="42.7468093" lon="12.1800122"><ele>439.0</ele><time>2026-04-12T10:47:37.586Z</time></trkpt><trkpt lat="42.7468412" lon="12.1799"><ele>439.0</ele><time>2026-04-12T10:47:38.589Z</time></trkpt><trkpt lat="42.7467498" lon="12.1797455"><ele>439.0</ele><time>2026-04-12T10:47:39.59Z</time></trkpt><trkpt lat="42.7466099" lon="12.1795909"><ele>439.0</ele><time>2026-04-12T10:47:40.583Z</time></trkpt><trkpt lat="42.7464518" lon="12.179402"><ele>440.5</ele><time>2026-04-12T10:47:41.588Z</time></trkpt><trkpt lat="42.7462896" lon="12.1791932"><ele>442.0</ele><time>2026-04-12T10:47:42.59Z</time></trkpt><trkpt lat="42.7461281" lon="12.1789568"><ele>431.0</ele><time>2026-04-12T10:47:43.592Z</time></trkpt><trkpt lat="42.7459866" lon="12.1787103"><ele>420.0</ele><time>2026-04-12T10:47:44.588Z</time></trkpt><trkpt lat="42.7458721" lon="12.1784541"><ele>420.0</ele><time>2026-04-12T10:47:45.59Z</time></trkpt><trkpt lat="42.7457877" lon="12.1781921"><ele>420.0</ele><time>2026-04-12T10:47:46.586Z</time></trkpt><trkpt lat="42.7457201" lon="12.1779428"><ele>420.0</ele><time>2026-04-12T10:47:47.586Z</time></trkpt><trkpt lat="42.745715" lon="12.1776923"><ele>419.0</ele><time>2026-04-12T10:47:48.6Z</time></trkpt><trkpt lat="42.7457513" lon="12.1774395"><ele>418.0</ele><time>2026-04-12T10:47:49.585Z</time></trkpt><trkpt lat="42.7457713" lon="12.1771761"><ele>417.0</ele><time>2026-04-12T10:47:50.591Z</time></trkpt><trkpt lat="42.7457793" lon="12.1769236"><ele>414.66666666666663</ele><time>2026-04-12T10:47:51.586Z</time></trkpt><trkpt lat="42.7458139" lon="12.1766843"><ele>412.3333333333333</ele><time>2026-04-12T10:47:52.585Z</time></trkpt><trkpt lat="42.7459168" lon="12.1764859"><ele>410.0</ele><time>2026-04-12T10:47:53.584Z</time></trkpt><trkpt lat="42.7460334" lon="12.1763094"><ele>410.0</ele><time>2026-04-12T10:47:54.584Z</time></trkpt><trkpt lat="42.7461383" lon="12.1761357"><ele>410.0</ele><time>2026-04-12T10:47:55.587Z</time></trkpt><trkpt lat="42.7462077" lon="12.1759075"><ele>410.0</ele><time>2026-04-12T10:47:56.587Z</time></trkpt><trkpt lat="42.7462682" lon="12.1756622"><ele>407.0</ele><time>2026-04-12T10:47:57.59Z</time></trkpt><trkpt lat="42.7463164" lon="12.1753952"><ele>404.0</ele><time>2026-04-12T10:47:58.585Z</time></trkpt><trkpt lat="42.746388" lon="12.1751277"><ele>401.0</ele><time>2026-04-12T10:47:59.59Z</time></trkpt><trkpt lat="42.7464538" lon="12.1748921"><ele>397.66666666666663</ele><time>2026-04-12T10:48:00.586Z</time></trkpt><trkpt lat="42.7465312" lon="12.1746911"><ele>394.33333333333337</ele><time>2026-04-12T10:48:01.586Z</time></trkpt><trkpt lat="42.7466243" lon="12.1745291"><ele>391.0</ele><time>2026-04-12T10:48:02.591Z</time></trkpt><trkpt lat="42.7467323" lon="12.1744215"><ele>391.0</ele><time>2026-04-12T10:48:03.589Z</time></trkpt><trkpt lat="42.7468587" lon="12.1743792"><ele>391.0</ele><time>2026-04-12T10:48:04.585Z</time></trkpt><trkpt lat="42.7470047" lon="12.1743957"><ele>391.0</ele><time>2026-04-12T10:48:05.59Z</time></trkpt><trkpt lat="42.7471559" lon="12.1744616"><ele>391.0</ele><time>2026-04-12T10:48:06.597Z</time></trkpt><trkpt lat="42.7473119" lon="12.1745499"><ele>390.0</ele><time>2026-04-12T10:48:07.591Z</time></trkpt><trkpt lat="42.74748" lon="12.1746495"><ele>389.0</ele><time>2026-04-12T10:48:08.608Z</time></trkpt><trkpt lat="42.7476456" lon="12.1747696"><ele>388.0</ele><time>2026-04-12T10:48:09.585Z</time></trkpt><trkpt lat="42.7478053" lon="12.1748987"><ele>388.0</ele><time>2026-04-12T10:48:10.593Z</time></trkpt><trkpt lat="42.7479658" lon="12.1750092"><ele>388.0</ele><time>2026-04-12T10:48:11.592Z</time></trkpt><trkpt lat="42.7481437" lon="12.1750804"><ele>388.0</ele><time>2026-04-12T10:48:12.59Z</time></trkpt><trkpt lat="42.7483407" lon="12.1750976"><ele>385.6666666666667</ele><time>2026-04-12T10:48:13.595Z</time></trkpt><trkpt lat="42.7485474" lon="12.1750664"><ele>383.33333333333337</ele><time>2026-04-12T10:48:14.588Z</time></trkpt><trkpt lat="42.7487509" lon="12.1750213"><ele>381.0</ele><time>2026-04-12T10:48:15.589Z</time></trkpt><trkpt lat="42.7489386" lon="12.1749844"><ele>381.0</ele><time>2026-04-12T10:48:16.59Z</time></trkpt><trkpt lat="42.7491045" lon="12.1749552"><ele>381.0</ele><time>2026-04-12T10:48:17.591Z</time></trkpt><trkpt lat="42.7492454" lon="12.17493"><ele>381.0</ele><time>2026-04-12T10:48:18.59Z</time></trkpt><trkpt lat="42.7493583" lon="12.174884"><ele>381.0</ele><time>2026-04-12T10:48:19.591Z</time></trkpt><trkpt lat="42.7494334" lon="12.1747849"><ele>379.5</ele><time>2026-04-12T10:48:20.59Z</time></trkpt><trkpt lat="42.7494525" lon="12.1746341"><ele>378.0</ele><time>2026-04-12T10:48:21.59Z</time></trkpt><trkpt lat="42.7494079" lon="12.1744456"><ele>376.5</ele><time>2026-04-12T10:48:22.586Z</time></trkpt><trkpt lat="42.7493344" lon="12.1742407"><ele>375.0</ele><time>2026-04-12T10:48:23.589Z</time></trkpt><trkpt lat="42.7492473" lon="12.1740037"><ele>373.0</ele><time>2026-04-12T10:48:24.588Z</time></trkpt><trkpt lat="42.749153" lon="12.1737492"><ele>371.0</ele><time>2026-04-12T10:48:25.596Z</time></trkpt><trkpt lat="42.7490522" lon="12.1734788"><ele>369.0</ele><time>2026-04-12T10:48:26.589Z</time></trkpt><trkpt lat="42.7489581" lon="12.173217"><ele>364.3333333333333</ele><time>2026-04-12T10:48:27.6Z</time></trkpt><trkpt lat="42.7488641" lon="12.1729701"><ele>359.66666666666663</ele><time>2026-04-12T10:48:28.596Z</time></trkpt><trkpt lat="42.7487572" lon="12.1727456"><ele>355.0</ele><time>2026-04-12T10:48:29.59Z</time></trkpt><trkpt lat="42.7486196" lon="12.1725677"><ele>355.3333333333333</ele><time>2026-04-12T10:48:30.587Z</time></trkpt><trkpt lat="42.74846" lon="12.1724447"><ele>355.6666666666667</ele><time>2026-04-12T10:48:31.587Z</time></trkpt><trkpt lat="42.7483073" lon="12.1723706"><ele>356.0</ele><time>2026-04-12T10:48:32.587Z</time></trkpt><trkpt lat="42.7481811" lon="12.1723242"><ele>356.0</ele><time>2026-04-12T10:48:33.587Z</time></trkpt><trkpt lat="42.7480752" lon="12.1722615"><ele>356.0</ele><time>2026-04-12T10:48:34.586Z</time></trkpt><trkpt lat="42.7480007" lon="12.1721358"><ele>356.0</ele><time>2026-04-12T10:48:35.586Z</time></trkpt><trkpt lat="42.7479778" lon="12.171954"><ele>356.0</ele><time>2026-04-12T10:48:36.59Z</time></trkpt><trkpt lat="42.7479878" lon="12.1717589"><ele>356.0</ele><time>2026-04-12T10:48:37.594Z</time></trkpt><trkpt lat="42.7479667" lon="12.1715395"><ele>356.0</ele><time>2026-04-12T10:48:38.583Z</time></trkpt><trkpt lat="42.7479347" lon="12.1713188"><ele>356.0</ele><time>2026-04-12T10:48:39.592Z</time></trkpt><trkpt lat="42.7478237" lon="12.1711135"><ele>355.0</ele><time>2026-04-12T10:48:40.594Z</time></trkpt><trkpt lat="42.7476763" lon="12.1709145"><ele>354.0</ele><time>2026-04-12T10:48:41.587Z</time></trkpt><trkpt lat="42.7474849" lon="12.1707365"><ele>353.0</ele><time>2026-04-12T10:48:42.59Z</time></trkpt><trkpt lat="42.7472906" lon="12.1705745"><ele>357.5</ele><time>2026-04-12T10:48:43.591Z</time></trkpt><trkpt lat="42.7470873" lon="12.1704064"><ele>362.0</ele><time>2026-04-12T10:48:44.588Z</time></trkpt><trkpt lat="42.7468823" lon="12.1702223"><ele>361.0</ele><time>2026-04-12T10:48:45.584Z</time></trkpt><trkpt lat="42.7466858" lon="12.170019"><ele>360.0</ele><time>2026-04-12T10:48:46.594Z</time></trkpt><trkpt lat="42.7464997" lon="12.1697975"><ele>360.0</ele><time>2026-04-12T10:48:47.585Z</time></trkpt><trkpt lat="42.7463262" lon="12.1695732"><ele>360.0</ele><time>2026-04-12T10:48:48.597Z</time></trkpt><trkpt lat="42.7461608" lon="12.1693591"><ele>354.0</ele><time>2026-04-12T10:48:49.585Z</time></trkpt><trkpt lat="42.7460032" lon="12.1691411"><ele>348.0</ele><time>2026-04-12T10:48:50.583Z</time></trkpt><trkpt lat="42.7458593" lon="12.1689022"><ele>348.0</ele><time>2026-04-12T10:48:51.585Z</time></trkpt><trkpt lat="42.7457399" lon="12.1686486"><ele>348.0</ele><time>2026-04-12T10:48:52.585Z</time></trkpt><trkpt lat="42.7456235" lon="12.1684093"><ele>348.0</ele><time>2026-04-12T10:48:53.588Z</time></trkpt><trkpt lat="42.7454897" lon="12.1681959"><ele>349.0</ele><time>2026-04-12T10:48:54.585Z</time></trkpt><trkpt lat="42.7453556" lon="12.1680076"><ele>350.0</ele><time>2026-04-12T10:48:55.586Z</time></trkpt><trkpt lat="42.7452328" lon="12.1678427"><ele>351.0</ele><time>2026-04-12T10:48:56.582Z</time></trkpt><trkpt lat="42.7451253" lon="12.16769"><ele>344.3333333333333</ele><time>2026-04-12T10:48:57.592Z</time></trkpt><trkpt lat="42.7450498" lon="12.1675097"><ele>337.66666666666663</ele><time>2026-04-12T10:48:58.589Z</time></trkpt><trkpt lat="42.7450224" lon="12.1672812"><ele>331.0</ele><time>2026-04-12T10:48:59.589Z</time></trkpt><trkpt lat="42.7450126" lon="12.1670493"><ele>330.0</ele><time>2026-04-12T10:49:00.587Z</time></trkpt><trkpt lat="42.7450294" lon="12.1668481"><ele>329.0</ele><time>2026-04-12T10:49:01.589Z</time></trkpt><trkpt lat="42.7450802" lon="12.1666659"><ele>328.0</ele><time>2026-04-12T10:49:02.589Z</time></trkpt><trkpt lat="42.7451414" lon="12.1665064"><ele>327.0</ele><time>2026-04-12T10:49:03.589Z</time></trkpt><trkpt lat="42.7452704" lon="12.1664486"><ele>324.0</ele><time>2026-04-12T10:49:04.583Z</time></trkpt><trkpt lat="42.7454407" lon="12.1664191"><ele>321.0</ele><time>2026-04-12T10:49:05.593Z</time></trkpt><trkpt lat="42.7456277" lon="12.1663808"><ele>318.0</ele><time>2026-04-12T10:49:06.583Z</time></trkpt><trkpt lat="42.7458362" lon="12.1663118"><ele>319.3333333333333</ele><time>2026-04-12T10:49:07.588Z</time></trkpt><trkpt lat="42.7460505" lon="12.1662214"><ele>320.66666666666663</ele><time>2026-04-12T10:49:08.585Z</time></trkpt><trkpt lat="42.7462545" lon="12.1661318"><ele>322.0</ele><time>2026-04-12T10:49:09.588Z</time></trkpt><trkpt lat="42.7464499" lon="12.1660431"><ele>322.0</ele><time>2026-04-12T10:49:10.587Z</time></trkpt><trkpt lat="42.7466326" lon="12.1659208"><ele>322.0</ele><time>2026-04-12T10:49:11.589Z</time></trkpt><trkpt lat="42.7468161" lon="12.1657817"><ele>322.0</ele><time>2026-04-12T10:49:12.589Z</time></trkpt><trkpt lat="42.7469664" lon="12.1655422"><ele>319.0</ele><time>2026-04-12T10:49:13.588Z</time></trkpt><trkpt lat="42.7471086" lon="12.1652806"><ele>316.0</ele><time>2026-04-12T10:49:14.587Z</time></trkpt><trkpt lat="42.7472343" lon="12.1650292"><ele>313.66666666666663</ele><time>2026-04-12T10:49:15.586Z</time></trkpt><trkpt lat="42.747352" lon="12.1648133"><ele>311.3333333333333</ele><time>2026-04-12T10:49:16.587Z</time></trkpt><trkpt lat="42.7474488" lon="12.164634"><ele>309.0</ele><time>2026-04-12T10:49:17.591Z</time></trkpt><trkpt lat="42.7475277" lon="12.1644926"><ele>309.0</ele><time>2026-04-12T10:49:18.587Z</time></trkpt><trkpt lat="42.7476087" lon="12.1643843"><ele>309.0</ele><time>2026-04-12T10:49:19.59Z</time></trkpt><trkpt lat="42.7477018" lon="12.1643427"><ele>309.0</ele><time>2026-04-12T10:49:20.586Z</time></trkpt><trkpt lat="42.7477955" lon="12.1643892"><ele>309.0</ele><time>2026-04-12T10:49:21.592Z</time></trkpt><trkpt lat="42.7478554" lon="12.1645143"><ele>309.0</ele><time>2026-04-12T10:49:22.589Z</time></trkpt><trkpt lat="42.7478832" lon="12.16469"><ele>308.75</ele><time>2026-04-12T10:49:23.586Z</time></trkpt><trkpt lat="42.7479184" lon="12.1648668"><ele>308.5</ele><time>2026-04-12T10:49:24.585Z</time></trkpt><trkpt lat="42.7479948" lon="12.1650232"><ele>308.25</ele><time>2026-04-12T10:49:25.584Z</time></trkpt><trkpt lat="42.7480841" lon="12.165163"><ele>308.0</ele><time>2026-04-12T10:49:26.589Z</time></trkpt><trkpt lat="42.7482266" lon="12.1652135"><ele>308.0</ele><time>2026-04-12T10:49:27.584Z</time></trkpt><trkpt lat="42.7483685" lon="12.1652453"><ele>308.0</ele><time>2026-04-12T10:49:28.588Z</time></trkpt><trkpt lat="42.7484997" lon="12.1652437"><ele>308.0</ele><time>2026-04-12T10:49:29.598Z</time></trkpt><trkpt lat="42.7486162" lon="12.1652264"><ele>308.0</ele><time>2026-04-12T10:49:30.591Z</time></trkpt><trkpt lat="42.7486852" lon="12.1651007"><ele>306.5</ele><time>2026-04-12T10:49:31.593Z</time></trkpt><trkpt lat="42.7486964" lon="12.1649441"><ele>305.0</ele><time>2026-04-12T10:49:32.588Z</time></trkpt><trkpt lat="42.7486431" lon="12.1647961"><ele>303.5</ele><time>2026-04-12T10:49:33.586Z</time></trkpt><trkpt lat="42.7485241" lon="12.1647016"><ele>302.0</ele><time>2026-04-12T10:49:34.586Z</time></trkpt><trkpt lat="42.7483744" lon="12.1646313"><ele>301.6666666666667</ele><time>2026-04-12T10:49:35.586Z</time></trkpt><trkpt lat="42.7482232" lon="12.1645548"><ele>301.3333333333333</ele><time>2026-04-12T10:49:36.594Z</time></trkpt><trkpt lat="42.7480858" lon="12.1644036"><ele>301.0</ele><time>2026-04-12T10:49:37.587Z</time></trkpt><trkpt lat="42.7479753" lon="12.1641744"><ele>300.3333333333333</ele><time>2026-04-12T10:49:38.6Z</time></trkpt><trkpt lat="42.7478739" lon="12.1639302"><ele>299.6666666666667</ele><time>2026-04-12T10:49:39.586Z</time></trkpt><trkpt lat="42.747764" lon="12.1637117"><ele>299.0</ele><time>2026-04-12T10:49:40.588Z</time></trkpt><trkpt lat="42.7476559" lon="12.1634971"><ele>299.0</ele><time>2026-04-12T10:49:41.585Z</time></trkpt><trkpt lat="42.747526" lon="12.1633455"><ele>299.0</ele><time>2026-04-12T10:49:42.587Z</time></trkpt><trkpt lat="42.7473933" lon="12.1632528"><ele>299.0</ele><time>2026-04-12T10:49:43.586Z</time></trkpt><trkpt lat="42.7472711" lon="12.1632121"><ele>299.0</ele><time>2026-04-12T10:49:44.591Z</time></trkpt><trkpt lat="42.7471719" lon="12.1631725"><ele>296.4</ele><time>2026-04-12T10:49:45.588Z</time></trkpt><trkpt lat="42.7471046" lon="12.1630963"><ele>293.79999999999995</ele><time>2026-04-12T10:49:46.589Z</time></trkpt><trkpt lat="42.7470577" lon="12.1629882"><ele>291.20000000000005</ele><time>2026-04-12T10:49:47.582Z</time></trkpt><trkpt lat="42.7470891" lon="12.1628657"><ele>288.6</ele><time>2026-04-12T10:49:48.588Z</time></trkpt><trkpt lat="42.7471865" lon="12.1627711"><ele>286.0</ele><time>2026-04-12T10:49:49.587Z</time></trkpt><trkpt lat="42.7472946" lon="12.1627754"><ele>286.0</ele><time>2026-04-12T10:49:50.586Z</time></trkpt><trkpt lat="42.7474037" lon="12.1628721"><ele>286.0</ele><time>2026-04-12T10:49:51.589Z</time></trkpt><trkpt lat="42.7475277" lon="12.1630098"><ele>286.0</ele><time>2026-04-12T10:49:52.59Z</time></trkpt><trkpt lat="42.7476642" lon="12.1631645"><ele>288.3333333333333</ele><time>2026-04-12T10:49:53.589Z</time></trkpt><trkpt lat="42.7477938" lon="12.1633152"><ele>290.6666666666667</ele><time>2026-04-12T10:49:54.587Z</time></trkpt><trkpt lat="42.7479173" lon="12.1634329"><ele>293.0</ele><time>2026-04-12T10:49:55.587Z</time></trkpt><trkpt lat="42.7480337" lon="12.1635225"><ele>293.0</ele><time>2026-04-12T10:49:56.591Z</time></trkpt><trkpt lat="42.7481651" lon="12.1635228"><ele>293.0</ele><time>2026-04-12T10:49:57.586Z</time></trkpt><trkpt lat="42.7482987" lon="12.1634292"><ele>293.0</ele><time>2026-04-12T10:49:58.601Z</time></trkpt><trkpt lat="42.748373" lon="12.1632292"><ele>293.0</ele><time>2026-04-12T10:49:59.588Z</time></trkpt><trkpt lat="42.7484379" lon="12.1629974"><ele>289.0</ele><time>2026-04-12T10:50:00.585Z</time></trkpt><trkpt lat="42.7484691" lon="12.1627401"><ele>285.0</ele><time>2026-04-12T10:50:01.59Z</time></trkpt><trkpt lat="42.7485142" lon="12.162507"><ele>281.0</ele><time>2026-04-12T10:50:02.588Z</time></trkpt><trkpt lat="42.7485996" lon="12.1623136"><ele>279.0</ele><time>2026-04-12T10:50:03.585Z</time></trkpt><trkpt lat="42.7487002" lon="12.1621552"><ele>277.0</ele><time>2026-04-12T10:50:04.585Z</time></trkpt><trkpt lat="42.7487922" lon="12.1620082"><ele>275.0</ele><time>2026-04-12T10:50:05.583Z</time></trkpt><trkpt lat="42.748828" lon="12.1618269"><ele>273.0</ele><time>2026-04-12T10:50:06.587Z</time></trkpt><trkpt lat="42.7488073" lon="12.1616166"><ele>271.0</ele><time>2026-04-12T10:50:07.583Z</time></trkpt><trkpt lat="42.7487387" lon="12.1613868"><ele>269.0</ele><time>2026-04-12T10:50:08.59Z</time></trkpt><trkpt lat="42.7486571" lon="12.1611303"><ele>267.0</ele><time>2026-04-12T10:50:09.585Z</time></trkpt><trkpt lat="42.7485819" lon="12.1608727"><ele>268.3333333333333</ele><time>2026-04-12T10:50:10.586Z</time></trkpt><trkpt lat="42.7485014" lon="12.1606319"><ele>269.66666666666663</ele><time>2026-04-12T10:50:11.59Z</time></trkpt><trkpt lat="42.7483972" lon="12.1603902"><ele>271.0</ele><time>2026-04-12T10:50:12.586Z</time></trkpt><trkpt lat="42.748259" lon="12.1601882"><ele>271.0</ele><time>2026-04-12T10:50:13.59Z</time></trkpt><trkpt lat="42.7481064" lon="12.1600109"><ele>271.0</ele><time>2026-04-12T10:50:14.589Z</time></trkpt><trkpt lat="42.7479365" lon="12.1598707"><ele>271.0</ele><time>2026-04-12T10:50:15.59Z</time></trkpt><trkpt lat="42.7477665" lon="12.1597558"><ele>269.75</ele><time>2026-04-12T10:50:16.59Z</time></trkpt><trkpt lat="42.7476155" lon="12.1596634"><ele>268.5</ele><time>2026-04-12T10:50:17.59Z</time></trkpt><trkpt lat="42.7474855" lon="12.1595716"><ele>267.25</ele><time>2026-04-12T10:50:18.615Z</time></trkpt><trkpt lat="42.747378" lon="12.1594581"><ele>266.0</ele><time>2026-04-12T10:50:19.588Z</time></trkpt><trkpt lat="42.7473087" lon="12.1593067"><ele>266.0</ele><time>2026-04-12T10:50:20.585Z</time></trkpt><trkpt lat="42.7472795" lon="12.159121"><ele>266.0</ele><time>2026-04-12T10:50:21.585Z</time></trkpt><trkpt lat="42.7472583" lon="12.1589119"><ele>266.0</ele><time>2026-04-12T10:50:22.581Z</time></trkpt><trkpt lat="42.7472572" lon="12.1586703"><ele>265.0</ele><time>2026-04-12T10:50:23.587Z</time></trkpt><trkpt lat="42.7472562" lon="12.1584069"><ele>264.0</ele><time>2026-04-12T10:50:24.588Z</time></trkpt><trkpt lat="42.7472343" lon="12.1581344"><ele>263.0</ele><time>2026-04-12T10:50:25.585Z</time></trkpt><trkpt lat="42.7471921" lon="12.1578772"><ele>262.6666666666667</ele><time>2026-04-12T10:50:26.583Z</time></trkpt><trkpt lat="42.7471533" lon="12.1576322"><ele>262.3333333333333</ele><time>2026-04-12T10:50:27.586Z</time></trkpt><trkpt lat="42.7471201" lon="12.1574145"><ele>262.0</ele><time>2026-04-12T10:50:28.585Z</time></trkpt><trkpt lat="42.7470735" lon="12.1572151"><ele>260.66666666666663</ele><time>2026-04-12T10:50:29.585Z</time></trkpt><trkpt lat="42.7469861" lon="12.1570448"><ele>259.3333333333333</ele><time>2026-04-12T10:50:30.587Z</time></trkpt><trkpt lat="42.746853" lon="12.1569211"><ele>258.0</ele><time>2026-04-12T10:50:31.587Z</time></trkpt><trkpt lat="42.7466827" lon="12.1568498"><ele>258.0</ele><time>2026-04-12T10:50:32.583Z</time></trkpt><trkpt lat="42.746502" lon="12.1567902"><ele>258.0</ele><time>2026-04-12T10:50:33.583Z</time></trkpt><trkpt lat="42.746334" lon="12.1567082"><ele>258.0</ele><time>2026-04-12T10:50:34.584Z</time></trkpt><trkpt lat="42.7461841" lon="12.1566024"><ele>255.33333333333331</ele><time>2026-04-12T10:50:35.586Z</time></trkpt><trkpt lat="42.7460457" lon="12.1564884"><ele>252.66666666666666</ele><time>2026-04-12T10:50:36.588Z</time></trkpt><trkpt lat="42.7459193" lon="12.1563631"><ele>250.0</ele><time>2026-04-12T10:50:37.593Z</time></trkpt><trkpt lat="42.7457965" lon="12.1562122"><ele>250.0</ele><time>2026-04-12T10:50:38.587Z</time></trkpt><trkpt lat="42.7456792" lon="12.1560423"><ele>250.0</ele><time>2026-04-12T10:50:39.592Z</time></trkpt><trkpt lat="42.745569" lon="12.1558789"><ele>250.0</ele><time>2026-04-12T10:50:40.588Z</time></trkpt><trkpt lat="42.7454637" lon="12.1557221"><ele>249.0</ele><time>2026-04-12T10:50:41.589Z</time></trkpt><trkpt lat="42.745371" lon="12.1555734"><ele>248.0</ele><time>2026-04-12T10:50:42.586Z</time></trkpt><trkpt lat="42.7452871" lon="12.1554125"><ele>247.0</ele><time>2026-04-12T10:50:43.592Z</time></trkpt><trkpt lat="42.7452109" lon="12.1552596"><ele>246.0</ele><time>2026-04-12T10:50:44.592Z</time></trkpt><trkpt lat="42.7451434" lon="12.1551132"><ele>246.0</ele><time>2026-04-12T10:50:45.586Z</time></trkpt><trkpt lat="42.745094" lon="12.154952"><ele>246.0</ele><time>2026-04-12T10:50:46.587Z</time></trkpt><trkpt lat="42.7450748" lon="12.1547882"><ele>246.0</ele><time>2026-04-12T10:50:47.59Z</time></trkpt><trkpt lat="42.7450731" lon="12.1546365"><ele>246.0</ele><time>2026-04-12T10:50:48.588Z</time></trkpt><trkpt lat="42.7450759" lon="12.1544995"><ele>245.8</ele><time>2026-04-12T10:50:49.593Z</time></trkpt><trkpt lat="42.7450853" lon="12.1543673"><ele>245.60000000000002</ele><time>2026-04-12T10:50:50.59Z</time></trkpt><trkpt lat="42.7451105" lon="12.1542423"><ele>245.4</ele><time>2026-04-12T10:50:51.589Z</time></trkpt><trkpt lat="42.7451638" lon="12.1541224"><ele>245.2</ele><time>2026-04-12T10:50:52.587Z</time></trkpt><trkpt lat="42.7452496" lon="12.1540192"><ele>245.0</ele><time>2026-04-12T10:50:53.589Z</time></trkpt><trkpt lat="42.745348" lon="12.1539384"><ele>244.8</ele><time>2026-04-12T10:50:54.585Z</time></trkpt><trkpt lat="42.7454439" lon="12.1538701"><ele>244.6</ele><time>2026-04-12T10:50:55.587Z</time></trkpt><trkpt lat="42.7455358" lon="12.1538059"><ele>244.39999999999998</ele><time>2026-04-12T10:50:56.588Z</time></trkpt><trkpt lat="42.7456294" lon="12.153745"><ele>244.2</ele><time>2026-04-12T10:50:57.59Z</time></trkpt><trkpt lat="42.745714" lon="12.1536816"><ele>244.0</ele><time>2026-04-12T10:50:58.591Z</time></trkpt><trkpt lat="42.7457851" lon="12.153597"><ele>244.0</ele><time>2026-04-12T10:50:59.591Z</time></trkpt><trkpt lat="42.7458223" lon="12.1534807"><ele>243.99999999999997</ele><time>2026-04-12T10:51:00.591Z</time></trkpt><trkpt lat="42.7458156" lon="12.1533446"><ele>243.99999999999997</ele><time>2026-04-12T10:51:01.592Z</time></trkpt><trkpt lat="42.7457741" lon="12.1532052"><ele>244.0</ele><time>2026-04-12T10:51:02.627Z</time></trkpt><trkpt lat="42.7457116" lon="12.1530695"><ele>244.0</ele><time>2026-04-12T10:51:03.591Z</time></trkpt><trkpt lat="42.7456441" lon="12.1529399"><ele>242.2</ele><time>2026-04-12T10:51:04.59Z</time></trkpt><trkpt lat="42.7455809" lon="12.1528099"><ele>240.39999999999998</ele><time>2026-04-12T10:51:05.585Z</time></trkpt><trkpt lat="42.7455233" lon="12.1526832"><ele>238.6</ele><time>2026-04-12T10:51:06.586Z</time></trkpt><trkpt lat="42.7454674" lon="12.1525609"><ele>236.8</ele><time>2026-04-12T10:51:07.586Z</time></trkpt><trkpt lat="42.7454142" lon="12.1524337"><ele>235.0</ele><time>2026-04-12T10:51:08.585Z</time></trkpt><trkpt lat="42.7453761" lon="12.1522821"><ele>234.25</ele><time>2026-04-12T10:51:09.589Z</time></trkpt><trkpt lat="42.7453722" lon="12.1521147"><ele>233.5</ele><time>2026-04-12T10:51:10.586Z</time></trkpt><trkpt lat="42.7454021" lon="12.151957"><ele>232.75</ele><time>2026-04-12T10:51:11.585Z</time></trkpt><trkpt lat="42.7454527" lon="12.1518092"><ele>232.0</ele><time>2026-04-12T10:51:12.585Z</time></trkpt><trkpt lat="42.7455184" lon="12.1516698"><ele>232.0</ele><time>2026-04-12T10:51:13.586Z</time></trkpt><trkpt lat="42.7456017" lon="12.1515555"><ele>232.0</ele><time>2026-04-12T10:51:14.586Z</time></trkpt><trkpt lat="42.7456969" lon="12.1514672"><ele>232.0</ele><time>2026-04-12T10:51:15.588Z</time></trkpt><trkpt lat="42.7457894" lon="12.1513841"><ele>232.0</ele><time>2026-04-12T10:51:16.597Z</time></trkpt><trkpt lat="42.745869" lon="12.1512951"><ele>232.0</ele><time>2026-04-12T10:51:17.586Z</time></trkpt><trkpt lat="42.7459221" lon="12.1511886"><ele>232.6</ele><time>2026-04-12T10:51:18.63Z</time></trkpt><trkpt lat="42.7459341" lon="12.1510607"><ele>233.2</ele><time>2026-04-12T10:51:19.588Z</time></trkpt><trkpt lat="42.7459323" lon="12.1509397"><ele>233.8</ele><time>2026-04-12T10:51:20.587Z</time></trkpt><trkpt lat="42.7458459" lon="12.1508438"><ele>234.4</ele><time>2026-04-12T10:51:21.586Z</time></trkpt><trkpt lat="42.7457415" lon="12.150751"><ele>235.0</ele><time>2026-04-12T10:51:22.599Z</time></trkpt><trkpt lat="42.7456523" lon="12.1506393"><ele>233.0</ele><time>2026-04-12T10:51:23.588Z</time></trkpt><trkpt lat="42.7455695" lon="12.1504975"><ele>231.0</ele><time>2026-04-12T10:51:24.587Z</time></trkpt><trkpt lat="42.7454848" lon="12.1503058"><ele>229.0</ele><time>2026-04-12T10:51:25.586Z</time></trkpt><trkpt lat="42.7453979" lon="12.1500749"><ele>228.0</ele><time>2026-04-12T10:51:26.587Z</time></trkpt><trkpt lat="42.7452993" lon="12.1498408"><ele>227.0</ele><time>2026-04-12T10:51:27.594Z</time></trkpt><trkpt lat="42.7452049" lon="12.1496256"><ele>226.0</ele><time>2026-04-12T10:51:28.595Z</time></trkpt><trkpt lat="42.7450695" lon="12.1494464"><ele>224.66666666666666</ele><time>2026-04-12T10:51:29.613Z</time></trkpt><trkpt lat="42.7448894" lon="12.1493245"><ele>223.33333333333331</ele><time>2026-04-12T10:51:30.595Z</time></trkpt><trkpt lat="42.7446758" lon="12.1492403"><ele>222.0</ele><time>2026-04-12T10:51:31.595Z</time></trkpt><trkpt lat="42.7444437" lon="12.1491585"><ele>220.5</ele><time>2026-04-12T10:51:32.596Z</time></trkpt><trkpt lat="42.744201" lon="12.1490649"><ele>219.0</ele><time>2026-04-12T10:51:33.587Z</time></trkpt><trkpt lat="42.7439491" lon="12.148968"><ele>216.0</ele><time>2026-04-12T10:51:34.589Z</time></trkpt><trkpt lat="42.7436973" lon="12.1488735"><ele>213.0</ele><time>2026-04-12T10:51:35.584Z</time></trkpt><trkpt lat="42.7434456" lon="12.1487783"><ele>213.0</ele><time>2026-04-12T10:51:36.587Z</time></trkpt><trkpt lat="42.7431957" lon="12.1486856"><ele>213.0</ele><time>2026-04-12T10:51:37.59Z</time></trkpt><trkpt lat="42.7429455" lon="12.1486009"><ele>213.0</ele><time>2026-04-12T10:51:38.597Z</time></trkpt><trkpt lat="42.7426929" lon="12.1485301"><ele>213.0</ele><time>2026-04-12T10:51:39.588Z</time></trkpt><trkpt lat="42.7424395" lon="12.1484726"><ele>213.0</ele><time>2026-04-12T10:51:40.587Z</time></trkpt><trkpt lat="42.7421863" lon="12.14842"><ele>213.0</ele><time>2026-04-12T10:51:41.591Z</time></trkpt><trkpt lat="42.7419353" lon="12.1483699"><ele>212.0</ele><time>2026-04-12T10:51:42.593Z</time></trkpt><trkpt lat="42.7416895" lon="12.1483262"><ele>211.0</ele><time>2026-04-12T10:51:43.588Z</time></trkpt><trkpt lat="42.7414545" lon="12.1482846"><ele>211.0</ele><time>2026-04-12T10:51:44.625Z</time></trkpt><trkpt lat="42.7412204" lon="12.1482359"><ele>211.0</ele><time>2026-04-12T10:51:45.595Z</time></trkpt><trkpt lat="42.740987" lon="12.1481635"><ele>208.0</ele><time>2026-04-12T10:51:46.59Z</time></trkpt><trkpt lat="42.7407573" lon="12.1480571"><ele>205.0</ele><time>2026-04-12T10:51:47.593Z</time></trkpt><trkpt lat="42.7405256" lon="12.1479232"><ele>205.0</ele><time>2026-04-12T10:51:48.591Z</time></trkpt><trkpt lat="42.7402842" lon="12.1477774"><ele>205.0</ele><time>2026-04-12T10:51:49.604Z</time></trkpt><trkpt lat="42.7400344" lon="12.1476274"><ele>202.5</ele><time>2026-04-12T10:51:50.595Z</time></trkpt><trkpt lat="42.7397773" lon="12.1474729"><ele>200.0</ele><time>2026-04-12T10:51:51.587Z</time></trkpt><trkpt lat="42.7395137" lon="12.1473133"><ele>196.0</ele><time>2026-04-12T10:51:52.593Z</time></trkpt><trkpt lat="42.7392471" lon="12.1471536"><ele>192.0</ele><time>2026-04-12T10:51:53.59Z</time></trkpt><trkpt lat="42.7389784" lon="12.1469942"><ele>192.0</ele><time>2026-04-12T10:51:54.589Z</time></trkpt><trkpt lat="42.7387098" lon="12.1468339"><ele>192.0</ele><time>2026-04-12T10:51:55.59Z</time></trkpt><trkpt lat="42.7384416" lon="12.146676"><ele>188.5</ele><time>2026-04-12T10:51:56.588Z</time></trkpt><trkpt lat="42.7381758" lon="12.1465217"><ele>185.0</ele><time>2026-04-12T10:51:57.589Z</time></trkpt><trkpt lat="42.7379105" lon="12.1463656"><ele>183.5</ele><time>2026-04-12T10:51:58.585Z</time></trkpt><trkpt lat="42.7376489" lon="12.146194"><ele>182.0</ele><time>2026-04-12T10:51:59.593Z</time></trkpt><trkpt lat="42.7373942" lon="12.1460046"><ele>182.0</ele><time>2026-04-12T10:52:00.597Z</time></trkpt><trkpt lat="42.7371516" lon="12.1458104"><ele>182.0</ele><time>2026-04-12T10:52:01.588Z</time></trkpt><trkpt lat="42.736922" lon="12.1456262"><ele>181.0</ele><time>2026-04-12T10:52:02.587Z</time></trkpt><trkpt lat="42.7366992" lon="12.1454661"><ele>180.0</ele><time>2026-04-12T10:52:03.586Z</time></trkpt><trkpt lat="42.7364818" lon="12.145329"><ele>180.0</ele><time>2026-04-12T10:52:04.587Z</time></trkpt><trkpt lat="42.7362792" lon="12.1452098"><ele>180.0</ele><time>2026-04-12T10:52:05.591Z</time></trkpt><trkpt lat="42.7361002" lon="12.1451084"><ele>180.0</ele><time>2026-04-12T10:52:06.587Z</time></trkpt><trkpt lat="42.7359354" lon="12.1450155"><ele>177.0</ele><time>2026-04-12T10:52:07.589Z</time></trkpt><trkpt lat="42.7357891" lon="12.1449221"><ele>174.0</ele><time>2026-04-12T10:52:08.591Z</time></trkpt><trkpt lat="42.7356519" lon="12.1448221"><ele>171.0</ele><time>2026-04-12T10:52:09.588Z</time></trkpt><trkpt lat="42.7355619" lon="12.1446314"><ele>171.0</ele><time>2026-04-12T10:52:10.584Z</time></trkpt><trkpt lat="42.7355119" lon="12.1443724"><ele>171.0</ele><time>2026-04-12T10:52:11.604Z</time></trkpt><trkpt lat="42.7354829" lon="12.1440827"><ele>171.0</ele><time>2026-04-12T10:52:12.587Z</time></trkpt><trkpt lat="42.7354612" lon="12.1437838"><ele>171.0</ele><time>2026-04-12T10:52:13.584Z</time></trkpt><trkpt lat="42.7354315" lon="12.1435027"><ele>171.0</ele><time>2026-04-12T10:52:14.591Z</time></trkpt><trkpt lat="42.7353723" lon="12.1432511"><ele>171.0</ele><time>2026-04-12T10:52:15.586Z</time></trkpt><trkpt lat="42.7353003" lon="12.1430099"><ele>165.0</ele><time>2026-04-12T10:52:16.587Z</time></trkpt><trkpt lat="42.7351247" lon="12.1428094"><ele>159.0</ele><time>2026-04-12T10:52:17.589Z</time></trkpt><trkpt lat="42.7349481" lon="12.1426077"><ele>159.0</ele><time>2026-04-12T10:52:18.587Z</time></trkpt><trkpt lat="42.7347949" lon="12.142404"><ele>159.0</ele><time>2026-04-12T10:52:19.585Z</time></trkpt><trkpt lat="42.7346642" lon="12.142212"><ele>159.0</ele><time>2026-04-12T10:52:20.584Z</time></trkpt><trkpt lat="42.7345453" lon="12.1420137"><ele>159.33333333333334</ele><time>2026-04-12T10:52:21.587Z</time></trkpt><trkpt lat="42.7344145" lon="12.1418306"><ele>159.66666666666669</ele><time>2026-04-12T10:52:22.59Z</time></trkpt><trkpt lat="42.734273" lon="12.1416631"><ele>160.0</ele><time>2026-04-12T10:52:23.59Z</time></trkpt><trkpt lat="42.7341233" lon="12.1415127"><ele>156.33333333333334</ele><time>2026-04-12T10:52:24.596Z</time></trkpt><trkpt lat="42.7339772" lon="12.1413692"><ele>152.66666666666666</ele><time>2026-04-12T10:52:25.593Z</time></trkpt><trkpt lat="42.7338347" lon="12.141233"><ele>149.0</ele><time>2026-04-12T10:52:26.585Z</time></trkpt><trkpt lat="42.7337019" lon="12.1411183"><ele>149.0</ele><time>2026-04-12T10:52:27.585Z</time></trkpt><trkpt lat="42.7335954" lon="12.1410163"><ele>149.0</ele><time>2026-04-12T10:52:28.584Z</time></trkpt><trkpt lat="42.7335058" lon="12.1409212"><ele>149.0</ele><time>2026-04-12T10:52:29.59Z</time></trkpt><trkpt lat="42.7334338" lon="12.1408361"><ele>149.0</ele><time>2026-04-12T10:52:30.586Z</time></trkpt><trkpt lat="42.7333676" lon="12.1407506"><ele>149.0</ele><time>2026-04-12T10:52:31.615Z</time></trkpt><trkpt lat="42.7333089" lon="12.1406677"><ele>147.0</ele><time>2026-04-12T10:52:32.592Z</time></trkpt><trkpt lat="42.7332483" lon="12.1406127"><ele>145.0</ele><time>2026-04-12T10:52:33.589Z</time></trkpt><trkpt lat="42.7331868" lon="12.1405759"><ele>143.0</ele><time>2026-04-12T10:52:34.587Z</time></trkpt><trkpt lat="42.7330736" lon="12.1405431"><ele>141.0</ele><time>2026-04-12T10:52:36.587Z</time></trkpt><trkpt lat="42.7329543" lon="12.1404853"><ele>139.0</ele><time>2026-04-12T10:52:38.594Z</time></trkpt><trkpt lat="42.7328952" lon="12.1404358"><ele>139.0</ele><time>2026-04-12T10:52:39.597Z</time></trkpt><trkpt lat="42.7328353" lon="12.1403796"><ele>139.0</ele><time>2026-04-12T10:52:40.597Z</time></trkpt><trkpt lat="42.7327763" lon="12.1403233"><ele>139.0</ele><time>2026-04-12T10:52:41.608Z</time></trkpt><trkpt lat="42.7327032" lon="12.140257"><ele>139.0</ele><time>2026-04-12T10:52:42.588Z</time></trkpt><trkpt lat="42.7326222" lon="12.1401882"><ele>139.0</ele><time>2026-04-12T10:52:43.59Z</time></trkpt><trkpt lat="42.7325317" lon="12.1401188"><ele>139.0</ele><time>2026-04-12T10:52:44.588Z</time></trkpt><trkpt lat="42.7324389" lon="12.1400549"><ele>138.6</ele><time>2026-04-12T10:52:45.586Z</time></trkpt><trkpt lat="42.7323363" lon="12.1399947"><ele>138.2</ele><time>2026-04-12T10:52:46.59Z</time></trkpt><trkpt lat="42.7322309" lon="12.1399422"><ele>137.79999999999998</ele><time>2026-04-12T10:52:47.583Z</time></trkpt><trkpt lat="42.7321297" lon="12.1398921"><ele>137.4</ele><time>2026-04-12T10:52:48.585Z</time></trkpt><trkpt lat="42.732036" lon="12.1398471"><ele>137.0</ele><time>2026-04-12T10:52:49.59Z</time></trkpt><trkpt lat="42.7319492" lon="12.1398083"><ele>136.16666666666666</ele><time>2026-04-12T10:52:50.587Z</time></trkpt><trkpt lat="42.7318674" lon="12.1397719"><ele>135.33333333333331</ele><time>2026-04-12T10:52:51.589Z</time></trkpt><trkpt lat="42.7317885" lon="12.1397371"><ele>134.5</ele><time>2026-04-12T10:52:52.584Z</time></trkpt><trkpt lat="42.7317046" lon="12.1397018"><ele>133.66666666666666</ele><time>2026-04-12T10:52:53.584Z</time></trkpt><trkpt lat="42.7316144" lon="12.1396668"><ele>132.83333333333334</ele><time>2026-04-12T10:52:54.586Z</time></trkpt><trkpt lat="42.7315193" lon="12.1396348"><ele>132.0</ele><time>2026-04-12T10:52:55.59Z</time></trkpt><trkpt lat="42.7314281" lon="12.1396095"><ele>132.0</ele><time>2026-04-12T10:52:56.586Z</time></trkpt><trkpt lat="42.7313441" lon="12.1395888"><ele>132.0</ele><time>2026-04-12T10:52:57.592Z</time></trkpt><trkpt lat="42.7312656" lon="12.139574"><ele>132.0</ele><time>2026-04-12T10:52:58.587Z</time></trkpt><trkpt lat="42.7311932" lon="12.1395614"><ele>132.0</ele><time>2026-04-12T10:52:59.588Z</time></trkpt><trkpt lat="42.7311245" lon="12.1395502"><ele>132.0</ele><time>2026-04-12T10:53:00.589Z</time></trkpt><trkpt lat="42.7310575" lon="12.1395366"><ele>132.0</ele><time>2026-04-12T10:53:01.59Z</time></trkpt><trkpt lat="42.730991" lon="12.1395341"><ele>132.0</ele><time>2026-04-12T10:53:02.604Z</time></trkpt><trkpt lat="42.7308808" lon="12.1395325"><ele>131.79999999999998</ele><time>2026-04-12T10:53:04.59Z</time></trkpt><trkpt lat="42.7307565" lon="12.1394955"><ele>131.6</ele><time>2026-04-12T10:53:06.585Z</time></trkpt><trkpt lat="42.7306766" lon="12.1394521"><ele>131.39999999999998</ele><time>2026-04-12T10:53:07.594Z</time></trkpt><trkpt lat="42.7305938" lon="12.1393979"><ele>131.2</ele><time>2026-04-12T10:53:08.585Z</time></trkpt><trkpt lat="42.7305216" lon="12.1393467"><ele>131.0</ele><time>2026-04-12T10:53:09.587Z</time></trkpt><trkpt lat="42.730453" lon="12.139296"><ele>131.0</ele><time>2026-04-12T10:53:10.588Z</time></trkpt><trkpt lat="42.730383" lon="12.1392421"><ele>131.0</ele><time>2026-04-12T10:53:11.587Z</time></trkpt><trkpt lat="42.7303185" lon="12.1391903"><ele>131.0</ele><time>2026-04-12T10:53:12.584Z</time></trkpt><trkpt lat="42.7302572" lon="12.1391401"><ele>131.0</ele><time>2026-04-12T10:53:13.587Z</time></trkpt><trkpt lat="42.7301962" lon="12.1390879"><ele>131.0</ele><time>2026-04-12T10:53:14.594Z</time></trkpt><trkpt lat="42.7301313" lon="12.1390325"><ele>131.0</ele><time>2026-04-12T10:53:15.586Z</time></trkpt><trkpt lat="42.7300598" lon="12.1389717"><ele>130.33333333333331</ele><time>2026-04-12T10:53:16.588Z</time></trkpt><trkpt lat="42.7299861" lon="12.1389077"><ele>129.66666666666666</ele><time>2026-04-12T10:53:17.587Z</time></trkpt><trkpt lat="42.7299174" lon="12.1388482"><ele>129.0</ele><time>2026-04-12T10:53:18.586Z</time></trkpt><trkpt lat="42.7298544" lon="12.1387964"><ele>128.33333333333334</ele><time>2026-04-12T10:53:19.591Z</time></trkpt><trkpt lat="42.7298006" lon="12.1387516"><ele>127.66666666666667</ele><time>2026-04-12T10:53:20.59Z</time></trkpt><trkpt lat="42.7297272" lon="12.1386916"><ele>127.0</ele><time>2026-04-12T10:53:22.593Z</time></trkpt><trkpt lat="42.7296426" lon="12.1386297"><ele>127.0</ele><time>2026-04-12T10:53:43.591Z</time></trkpt><trkpt lat="42.7295547" lon="12.1386158"><ele>126.99999999999999</ele><time>2026-04-12T10:53:47.602Z</time></trkpt><trkpt lat="42.729441" lon="12.1386684"><ele>126.99999999999999</ele><time>2026-04-12T10:53:49.601Z</time></trkpt><trkpt lat="42.7293768" lon="12.138723"><ele>127.0</ele><time>2026-04-12T10:53:50.598Z</time></trkpt><trkpt lat="42.729327" lon="12.1388112"><ele>127.0</ele><time>2026-04-12T10:53:51.592Z</time></trkpt><trkpt lat="42.729274" lon="12.1389028"><ele>126.83333333333334</ele><time>2026-04-12T10:53:52.592Z</time></trkpt><trkpt lat="42.7292259" lon="12.1389815"><ele>126.66666666666667</ele><time>2026-04-12T10:53:53.599Z</time></trkpt><trkpt lat="42.7291794" lon="12.1390544"><ele>126.5</ele><time>2026-04-12T10:53:54.591Z</time></trkpt><trkpt lat="42.7291019" lon="12.1391774"><ele>126.33333333333334</ele><time>2026-04-12T10:53:56.595Z</time></trkpt><trkpt lat="42.7290593" lon="12.1392548"><ele>126.16666666666667</ele><time>2026-04-12T10:53:57.601Z</time></trkpt><trkpt lat="42.7290163" lon="12.1393373"><ele>126.0</ele><time>2026-04-12T10:53:58.588Z</time></trkpt><trkpt lat="42.7289813" lon="12.1394176"><ele>126.0</ele><time>2026-04-12T10:53:59.603Z</time></trkpt><trkpt lat="42.7289511" lon="12.1394993"><ele>126.0</ele><time>2026-04-12T10:54:00.592Z</time></trkpt><trkpt lat="42.7289241" lon="12.1395793"><ele>126.0</ele><time>2026-04-12T10:54:01.605Z</time></trkpt><trkpt lat="42.7288969" lon="12.1396668"><ele>126.0</ele><time>2026-04-12T10:54:02.595Z</time></trkpt><trkpt lat="42.7288699" lon="12.1397619"><ele>126.0</ele><time>2026-04-12T10:54:03.601Z</time></trkpt><trkpt lat="42.7288453" lon="12.1398667"><ele>126.0</ele><time>2026-04-12T10:54:04.606Z</time></trkpt><trkpt lat="42.7288198" lon="12.1399752"><ele>126.0</ele><time>2026-04-12T10:54:05.608Z</time></trkpt><trkpt lat="42.7288032" lon="12.1400899"><ele>126.0</ele><time>2026-04-12T10:54:06.597Z</time></trkpt><trkpt lat="42.7287783" lon="12.1402155"><ele>126.0</ele><time>2026-04-12T10:54:07.608Z</time></trkpt><trkpt lat="42.7287485" lon="12.140343"><ele>126.0</ele><time>2026-04-12T10:54:08.6Z</time></trkpt><trkpt lat="42.7287175" lon="12.1404668"><ele>126.0</ele><time>2026-04-12T10:54:09.604Z</time></trkpt><trkpt lat="42.7286808" lon="12.1405972"><ele>126.0</ele><time>2026-04-12T10:54:10.604Z</time></trkpt><trkpt lat="42.7286398" lon="12.1407322"><ele>126.25</ele><time>2026-04-12T10:54:11.611Z</time></trkpt><trkpt lat="42.7285877" lon="12.1408697"><ele>126.5</ele><time>2026-04-12T10:54:12.599Z</time></trkpt><trkpt lat="42.7285166" lon="12.1410069"><ele>126.75</ele><time>2026-04-12T10:54:13.617Z</time></trkpt><trkpt lat="42.7284421" lon="12.1411477"><ele>127.0</ele><time>2026-04-12T10:54:14.595Z</time></trkpt><trkpt lat="42.7283468" lon="12.1413031"><ele>126.0</ele><time>2026-04-12T10:54:15.593Z</time></trkpt><trkpt lat="42.7282507" lon="12.1414679"><ele>125.0</ele><time>2026-04-12T10:54:16.6Z</time></trkpt><trkpt lat="42.7281542" lon="12.1416433"><ele>124.0</ele><time>2026-04-12T10:54:17.604Z</time></trkpt><trkpt lat="42.7280558" lon="12.1418105"><ele>124.0</ele><time>2026-04-12T10:54:18.592Z</time></trkpt><trkpt lat="42.7279644" lon="12.1419647"><ele>124.0</ele><time>2026-04-12T10:54:19.598Z</time></trkpt><trkpt lat="42.7278794" lon="12.1421047"><ele>124.0</ele><time>2026-04-12T10:54:20.592Z</time></trkpt><trkpt lat="42.7277978" lon="12.1422421"><ele>124.0</ele><time>2026-04-12T10:54:21.613Z</time></trkpt><trkpt lat="42.7277153" lon="12.1423843"><ele>122.75</ele><time>2026-04-12T10:54:22.604Z</time></trkpt><trkpt lat="42.7276303" lon="12.1425352"><ele>121.5</ele><time>2026-04-12T10:54:23.603Z</time></trkpt><trkpt lat="42.7275457" lon="12.1426961"><ele>120.25</ele><time>2026-04-12T10:54:24.6Z</time></trkpt><trkpt lat="42.7274642" lon="12.1428645"><ele>119.0</ele><time>2026-04-12T10:54:25.605Z</time></trkpt><trkpt lat="42.7273852" lon="12.1430369"><ele>119.0</ele><time>2026-04-12T10:54:26.602Z</time></trkpt><trkpt lat="42.7273063" lon="12.1432105"><ele>119.0</ele><time>2026-04-12T10:54:27.598Z</time></trkpt><trkpt lat="42.727226" lon="12.1433892"><ele>119.0</ele><time>2026-04-12T10:54:28.608Z</time></trkpt><trkpt lat="42.7271464" lon="12.1435759"><ele>119.66666666666666</ele><time>2026-04-12T10:54:29.595Z</time></trkpt><trkpt lat="42.7270638" lon="12.1437666"><ele>120.33333333333334</ele><time>2026-04-12T10:54:30.608Z</time></trkpt><trkpt lat="42.7269732" lon="12.1439647"><ele>121.0</ele><time>2026-04-12T10:54:31.596Z</time></trkpt><trkpt lat="42.7268808" lon="12.1441745"><ele>121.0</ele><time>2026-04-12T10:54:32.598Z</time></trkpt><trkpt lat="42.7267881" lon="12.1443848"><ele>121.0</ele><time>2026-04-12T10:54:33.594Z</time></trkpt><trkpt lat="42.726692" lon="12.1445992"><ele>121.0</ele><time>2026-04-12T10:54:34.591Z</time></trkpt><trkpt lat="42.7265966" lon="12.1448129"><ele>121.33333333333334</ele><time>2026-04-12T10:54:35.602Z</time></trkpt><trkpt lat="42.7265022" lon="12.1450262"><ele>121.66666666666666</ele><time>2026-04-12T10:54:36.603Z</time></trkpt><trkpt lat="42.726408" lon="12.1452395"><ele>122.0</ele><time>2026-04-12T10:54:37.596Z</time></trkpt><trkpt lat="42.7263114" lon="12.1454539"><ele>122.0</ele><time>2026-04-12T10:54:38.599Z</time></trkpt><trkpt lat="42.7262137" lon="12.1456755"><ele>122.0</ele><time>2026-04-12T10:54:39.605Z</time></trkpt><trkpt lat="42.7261146" lon="12.1459003"><ele>122.0</ele><time>2026-04-12T10:54:40.603Z</time></trkpt><trkpt lat="42.7260135" lon="12.1461245"><ele>121.33333333333333</ele><time>2026-04-12T10:54:41.604Z</time></trkpt><trkpt lat="42.725916" lon="12.1463439"><ele>120.66666666666666</ele><time>2026-04-12T10:54:42.598Z</time></trkpt><trkpt lat="42.7258198" lon="12.1465596"><ele>120.0</ele><time>2026-04-12T10:54:43.604Z</time></trkpt><trkpt lat="42.7257251" lon="12.1467748"><ele>120.0</ele><time>2026-04-12T10:54:44.601Z</time></trkpt><trkpt lat="42.7256296" lon="12.1469901"><ele>120.0</ele><time>2026-04-12T10:54:45.601Z</time></trkpt><trkpt lat="42.7255343" lon="12.1472066"><ele>120.0</ele><time>2026-04-12T10:54:46.597Z</time></trkpt><trkpt lat="42.7254374" lon="12.1474231"><ele>120.33333333333334</ele><time>2026-04-12T10:54:47.599Z</time></trkpt><trkpt lat="42.72534" lon="12.1476428"><ele>120.66666666666667</ele><time>2026-04-12T10:54:48.599Z</time></trkpt><trkpt lat="42.7252426" lon="12.1478662"><ele>121.0</ele><time>2026-04-12T10:54:49.607Z</time></trkpt><trkpt lat="42.7251446" lon="12.1480918"><ele>120.66666666666667</ele><time>2026-04-12T10:54:50.599Z</time></trkpt><trkpt lat="42.7250446" lon="12.1483198"><ele>120.33333333333334</ele><time>2026-04-12T10:54:51.596Z</time></trkpt><trkpt lat="42.7249422" lon="12.1485507"><ele>120.0</ele><time>2026-04-12T10:54:52.6Z</time></trkpt><trkpt lat="42.7248386" lon="12.1487819"><ele>120.0</ele><time>2026-04-12T10:54:53.598Z</time></trkpt><trkpt lat="42.724733" lon="12.1490155"><ele>120.0</ele><time>2026-04-12T10:54:54.602Z</time></trkpt><trkpt lat="42.7246238" lon="12.1492478"><ele>120.0</ele><time>2026-04-12T10:54:55.593Z</time></trkpt><trkpt lat="42.7245086" lon="12.1494736"><ele>120.33333333333334</ele><time>2026-04-12T10:54:56.598Z</time></trkpt><trkpt lat="42.7243899" lon="12.149689"><ele>120.66666666666667</ele><time>2026-04-12T10:54:57.601Z</time></trkpt><trkpt lat="42.7242706" lon="12.149895"><ele>121.0</ele><time>2026-04-12T10:54:58.602Z</time></trkpt><trkpt lat="42.7241518" lon="12.1500979"><ele>121.66666666666667</ele><time>2026-04-12T10:54:59.594Z</time></trkpt><trkpt lat="42.7240335" lon="12.1502994"><ele>122.33333333333334</ele><time>2026-04-12T10:55:00.605Z</time></trkpt><trkpt lat="42.7239151" lon="12.150497"><ele>123.0</ele><time>2026-04-12T10:55:01.596Z</time></trkpt><trkpt lat="42.7237993" lon="12.1506898"><ele>123.0</ele><time>2026-04-12T10:55:02.594Z</time></trkpt><trkpt lat="42.7236881" lon="12.1508773"><ele>123.0</ele><time>2026-04-12T10:55:03.596Z</time></trkpt><trkpt lat="42.72358" lon="12.1510607"><ele>123.0</ele><time>2026-04-12T10:55:04.599Z</time></trkpt><trkpt lat="42.7234723" lon="12.1512421"><ele>123.0</ele><time>2026-04-12T10:55:05.592Z</time></trkpt><trkpt lat="42.7233643" lon="12.1514231"><ele>123.0</ele><time>2026-04-12T10:55:06.602Z</time></trkpt><trkpt lat="42.7232552" lon="12.1516077"><ele>123.0</ele><time>2026-04-12T10:55:07.602Z</time></trkpt><trkpt lat="42.7231447" lon="12.1517959"><ele>124.0</ele><time>2026-04-12T10:55:08.606Z</time></trkpt><trkpt lat="42.7230333" lon="12.1519839"><ele>125.0</ele><time>2026-04-12T10:55:09.595Z</time></trkpt><trkpt lat="42.7229226" lon="12.1521719"><ele>126.0</ele><time>2026-04-12T10:55:10.598Z</time></trkpt><trkpt lat="42.7228129" lon="12.1523603"><ele>125.33333333333334</ele><time>2026-04-12T10:55:11.6Z</time></trkpt><trkpt lat="42.7227032" lon="12.1525489"><ele>124.66666666666667</ele><time>2026-04-12T10:55:12.597Z</time></trkpt><trkpt lat="42.7225937" lon="12.152737"><ele>124.0</ele><time>2026-04-12T10:55:13.604Z</time></trkpt><trkpt lat="42.7224841" lon="12.1529247"><ele>124.0</ele><time>2026-04-12T10:55:14.596Z</time></trkpt><trkpt lat="42.7223739" lon="12.1531118"><ele>124.0</ele><time>2026-04-12T10:55:15.597Z</time></trkpt><trkpt lat="42.7222683" lon="12.1532928"><ele>124.0</ele><time>2026-04-12T10:55:16.596Z</time></trkpt><trkpt lat="42.7221712" lon="12.1534649"><ele>124.25</ele><time>2026-04-12T10:55:17.604Z</time></trkpt><trkpt lat="42.7220753" lon="12.1536223"><ele>124.5</ele><time>2026-04-12T10:55:18.604Z</time></trkpt><trkpt lat="42.7219685" lon="12.1537465"><ele>124.75</ele><time>2026-04-12T10:55:19.6Z</time></trkpt><trkpt lat="42.7218414" lon="12.1538177"><ele>125.0</ele><time>2026-04-12T10:55:20.6Z</time></trkpt><trkpt lat="42.7216914" lon="12.1538282"><ele>125.0</ele><time>2026-04-12T10:55:21.6Z</time></trkpt><trkpt lat="42.7215267" lon="12.1537884"><ele>125.0</ele><time>2026-04-12T10:55:22.594Z</time></trkpt><trkpt lat="42.7213662" lon="12.1537546"><ele>125.0</ele><time>2026-04-12T10:55:23.601Z</time></trkpt><trkpt lat="42.721207" lon="12.153745"><ele>124.5</ele><time>2026-04-12T10:55:24.593Z</time></trkpt><trkpt lat="42.7210551" lon="12.1537493"><ele>124.0</ele><time>2026-04-12T10:55:25.593Z</time></trkpt><trkpt lat="42.7209162" lon="12.1537829"><ele>123.5</ele><time>2026-04-12T10:55:26.595Z</time></trkpt><trkpt lat="42.7207891" lon="12.1538601"><ele>123.0</ele><time>2026-04-12T10:55:27.59Z</time></trkpt><trkpt lat="42.7206763" lon="12.1539768"><ele>124.25</ele><time>2026-04-12T10:55:28.6Z</time></trkpt><trkpt lat="42.7205783" lon="12.1541075"><ele>125.5</ele><time>2026-04-12T10:55:29.601Z</time></trkpt><trkpt lat="42.7204789" lon="12.1542474"><ele>126.75</ele><time>2026-04-12T10:55:30.604Z</time></trkpt><trkpt lat="42.720374" lon="12.1544025"><ele>128.0</ele><time>2026-04-12T10:55:31.6Z</time></trkpt><trkpt lat="42.720263" lon="12.1545657"><ele>127.0</ele><time>2026-04-12T10:55:32.596Z</time></trkpt><trkpt lat="42.7201446" lon="12.1547307"><ele>126.0</ele><time>2026-04-12T10:55:33.592Z</time></trkpt><trkpt lat="42.720022" lon="12.1549002"><ele>125.0</ele><time>2026-04-12T10:55:34.6Z</time></trkpt><trkpt lat="42.7199" lon="12.1550749"><ele>125.0</ele><time>2026-04-12T10:55:35.595Z</time></trkpt><trkpt lat="42.7197808" lon="12.1552593"><ele>125.0</ele><time>2026-04-12T10:55:36.599Z</time></trkpt><trkpt lat="42.7196695" lon="12.1554444"><ele>125.0</ele><time>2026-04-12T10:55:37.596Z</time></trkpt><trkpt lat="42.7195632" lon="12.1556351"><ele>127.66666666666666</ele><time>2026-04-12T10:55:38.599Z</time></trkpt><trkpt lat="42.7194565" lon="12.1558357"><ele>130.33333333333334</ele><time>2026-04-12T10:55:39.594Z</time></trkpt><trkpt lat="42.7193467" lon="12.1560442"><ele>133.0</ele><time>2026-04-12T10:55:40.595Z</time></trkpt><trkpt lat="42.7192342" lon="12.1562588"><ele>129.33333333333334</ele><time>2026-04-12T10:55:41.59Z</time></trkpt><trkpt lat="42.7191187" lon="12.1564805"><ele>125.66666666666666</ele><time>2026-04-12T10:55:42.597Z</time></trkpt><trkpt lat="42.7190001" lon="12.1567051"><ele>122.0</ele><time>2026-04-12T10:55:43.599Z</time></trkpt><trkpt lat="42.7188793" lon="12.1569305"><ele>122.0</ele><time>2026-04-12T10:55:44.604Z</time></trkpt><trkpt lat="42.7187608" lon="12.1571534"><ele>122.0</ele><time>2026-04-12T10:55:45.602Z</time></trkpt><trkpt lat="42.7186449" lon="12.1573704"><ele>122.0</ele><time>2026-04-12T10:55:46.588Z</time></trkpt><trkpt lat="42.71853" lon="12.1575842"><ele>121.66666666666666</ele><time>2026-04-12T10:55:47.595Z</time></trkpt><trkpt lat="42.7184174" lon="12.1577946"><ele>121.33333333333334</ele><time>2026-04-12T10:55:48.602Z</time></trkpt><trkpt lat="42.7183076" lon="12.1580012"><ele>121.0</ele><time>2026-04-12T10:55:49.597Z</time></trkpt><trkpt lat="42.7181994" lon="12.1582038"><ele>122.66666666666667</ele><time>2026-04-12T10:55:50.595Z</time></trkpt><trkpt lat="42.7180917" lon="12.1584033"><ele>124.33333333333334</ele><time>2026-04-12T10:55:51.598Z</time></trkpt><trkpt lat="42.7179858" lon="12.1585867"><ele>126.0</ele><time>2026-04-12T10:55:52.594Z</time></trkpt><trkpt lat="42.717881" lon="12.1587746"><ele>126.0</ele><time>2026-04-12T10:55:53.598Z</time></trkpt><trkpt lat="42.7177724" lon="12.1589628"><ele>126.0</ele><time>2026-04-12T10:55:54.596Z</time></trkpt><trkpt lat="42.717667" lon="12.1591546"><ele>126.0</ele><time>2026-04-12T10:55:55.601Z</time></trkpt><trkpt lat="42.7175627" lon="12.1593485"><ele>125.0</ele><time>2026-04-12T10:55:56.601Z</time></trkpt><trkpt lat="42.7174586" lon="12.1595404"><ele>124.0</ele><time>2026-04-12T10:55:57.606Z</time></trkpt><trkpt lat="42.7173544" lon="12.1597302"><ele>123.0</ele><time>2026-04-12T10:55:58.595Z</time></trkpt><trkpt lat="42.7172524" lon="12.1599229"><ele>126.0</ele><time>2026-04-12T10:55:59.602Z</time></trkpt><trkpt lat="42.7171499" lon="12.1601133"><ele>129.0</ele><time>2026-04-12T10:56:00.601Z</time></trkpt><trkpt lat="42.7170505" lon="12.1603006"><ele>132.0</ele><time>2026-04-12T10:56:01.595Z</time></trkpt><trkpt lat="42.716953" lon="12.1604839"><ele>130.0</ele><time>2026-04-12T10:56:02.595Z</time></trkpt><trkpt lat="42.7168484" lon="12.1606795"><ele>128.0</ele><time>2026-04-12T10:56:03.606Z</time></trkpt><trkpt lat="42.7167472" lon="12.1608745"><ele>126.0</ele><time>2026-04-12T10:56:04.593Z</time></trkpt><trkpt lat="42.7166506" lon="12.1610679"><ele>126.0</ele><time>2026-04-12T10:56:05.589Z</time></trkpt><trkpt lat="42.716553" lon="12.1612486"><ele>126.0</ele><time>2026-04-12T10:56:06.599Z</time></trkpt><trkpt lat="42.7164432" lon="12.1614096"><ele>126.0</ele><time>2026-04-12T10:56:07.592Z</time></trkpt><trkpt lat="42.716315" lon="12.1615381"><ele>126.0</ele><time>2026-04-12T10:56:08.595Z</time></trkpt><trkpt lat="42.7161752" lon="12.1616418"><ele>126.0</ele><time>2026-04-12T10:56:09.595Z</time></trkpt><trkpt lat="42.7160339" lon="12.1617465"><ele>126.0</ele><time>2026-04-12T10:56:10.597Z</time></trkpt><trkpt lat="42.7159026" lon="12.1618809"><ele>126.0</ele><time>2026-04-12T10:56:11.606Z</time></trkpt><trkpt lat="42.7157836" lon="12.1620483"><ele>126.0</ele><time>2026-04-12T10:56:12.59Z</time></trkpt><trkpt lat="42.7156718" lon="12.1622323"><ele>126.0</ele><time>2026-04-12T10:56:13.593Z</time></trkpt><trkpt lat="42.7155591" lon="12.1624241"><ele>130.66666666666666</ele><time>2026-04-12T10:56:14.597Z</time></trkpt><trkpt lat="42.715448" lon="12.1626134"><ele>135.33333333333331</ele><time>2026-04-12T10:56:15.593Z</time></trkpt><trkpt lat="42.7153538" lon="12.1627978"><ele>140.0</ele><time>2026-04-12T10:56:16.602Z</time></trkpt><trkpt lat="42.7152775" lon="12.1629811"><ele>137.0</ele><time>2026-04-12T10:56:17.588Z</time></trkpt><trkpt lat="42.7152126" lon="12.1631654"><ele>134.0</ele><time>2026-04-12T10:56:18.599Z</time></trkpt><trkpt lat="42.7151543" lon="12.1633582"><ele>131.0</ele><time>2026-04-12T10:56:19.597Z</time></trkpt><trkpt lat="42.7151008" lon="12.1635543"><ele>131.0</ele><time>2026-04-12T10:56:20.589Z</time></trkpt><trkpt lat="42.7150523" lon="12.1637485"><ele>131.0</ele><time>2026-04-12T10:56:21.593Z</time></trkpt><trkpt lat="42.7150263" lon="12.1639683"><ele>131.0</ele><time>2026-04-12T10:56:22.594Z</time></trkpt><trkpt lat="42.7150048" lon="12.1641871"><ele>132.33333333333331</ele><time>2026-04-12T10:56:23.592Z</time></trkpt><trkpt lat="42.7150288" lon="12.1644173"><ele>133.66666666666666</ele><time>2026-04-12T10:56:24.594Z</time></trkpt><trkpt lat="42.7150127" lon="12.1646504"><ele>135.0</ele><time>2026-04-12T10:56:25.6Z</time></trkpt><trkpt lat="42.7150003" lon="12.1648743"><ele>135.0</ele><time>2026-04-12T10:56:26.59Z</time></trkpt><trkpt lat="42.714986" lon="12.1651038"><ele>135.0</ele><time>2026-04-12T10:56:27.594Z</time></trkpt><trkpt lat="42.7149772" lon="12.1653354"><ele>135.0</ele><time>2026-04-12T10:56:28.596Z</time></trkpt><trkpt lat="42.7149797" lon="12.1655711"><ele>134.66666666666666</ele><time>2026-04-12T10:56:29.595Z</time></trkpt><trkpt lat="42.7149862" lon="12.1657941"><ele>134.33333333333331</ele><time>2026-04-12T10:56:30.595Z</time></trkpt><trkpt lat="42.7149936" lon="12.166001"><ele>134.0</ele><time>2026-04-12T10:56:31.59Z</time></trkpt><trkpt lat="42.7149973" lon="12.1661899"><ele>134.0</ele><time>2026-04-12T10:56:32.593Z</time></trkpt><trkpt lat="42.714997" lon="12.1663516"><ele>134.0</ele><time>2026-04-12T10:56:33.591Z</time></trkpt><trkpt lat="42.7149866" lon="12.1664957"><ele>134.0</ele><time>2026-04-12T10:56:34.593Z</time></trkpt><trkpt lat="42.714948" lon="12.166621"><ele>134.0</ele><time>2026-04-12T10:56:35.602Z</time></trkpt><trkpt lat="42.7148707" lon="12.1667261"><ele>134.0</ele><time>2026-04-12T10:56:36.593Z</time></trkpt><trkpt lat="42.7147831" lon="12.166806"><ele>134.2</ele><time>2026-04-12T10:56:37.592Z</time></trkpt><trkpt lat="42.7146718" lon="12.1668227"><ele>134.4</ele><time>2026-04-12T10:56:38.602Z</time></trkpt><trkpt lat="42.7145634" lon="12.1668015"><ele>134.6</ele><time>2026-04-12T10:56:39.6Z</time></trkpt><trkpt lat="42.7144613" lon="12.166765"><ele>134.8</ele><time>2026-04-12T10:56:40.598Z</time></trkpt><trkpt lat="42.7143696" lon="12.1666612"><ele>135.0</ele><time>2026-04-12T10:56:41.596Z</time></trkpt><trkpt lat="42.7143044" lon="12.1664931"><ele>134.25</ele><time>2026-04-12T10:56:42.599Z</time></trkpt><trkpt lat="42.7142429" lon="12.1663298"><ele>133.5</ele><time>2026-04-12T10:56:43.608Z</time></trkpt><trkpt lat="42.7141804" lon="12.1661466"><ele>132.75</ele><time>2026-04-12T10:56:44.6Z</time></trkpt><trkpt lat="42.7141066" lon="12.1659709"><ele>132.0</ele><time>2026-04-12T10:56:45.598Z</time></trkpt><trkpt lat="42.7140364" lon="12.1658261"><ele>130.5</ele><time>2026-04-12T10:56:46.599Z</time></trkpt><trkpt lat="42.7139596" lon="12.1656923"><ele>129.0</ele><time>2026-04-12T10:56:47.603Z</time></trkpt><trkpt lat="42.7138762" lon="12.1655602"><ele>127.5</ele><time>2026-04-12T10:56:48.602Z</time></trkpt><trkpt lat="42.7137876" lon="12.1654383"><ele>126.0</ele><time>2026-04-12T10:56:49.596Z</time></trkpt><trkpt lat="42.7137021" lon="12.1653135"><ele>126.0</ele><time>2026-04-12T10:56:50.61Z</time></trkpt><trkpt lat="42.7136303" lon="12.1651743"><ele>126.0</ele><time>2026-04-12T10:56:51.594Z</time></trkpt><trkpt lat="42.7135829" lon="12.1650137"><ele>126.0</ele><time>2026-04-12T10:56:52.6Z</time></trkpt><trkpt lat="42.7135525" lon="12.1648593"><ele>126.0</ele><time>2026-04-12T10:56:53.597Z</time></trkpt><trkpt lat="42.7135108" lon="12.164725"><ele>128.75</ele><time>2026-04-12T10:56:54.599Z</time></trkpt><trkpt lat="42.7134459" lon="12.164606"><ele>131.5</ele><time>2026-04-12T10:56:55.6Z</time></trkpt><trkpt lat="42.7133656" lon="12.1644994"><ele>134.25</ele><time>2026-04-12T10:56:56.592Z</time></trkpt><trkpt lat="42.713275" lon="12.1643991"><ele>137.0</ele><time>2026-04-12T10:56:57.604Z</time></trkpt><trkpt lat="42.7131742" lon="12.164295"><ele>137.0</ele><time>2026-04-12T10:56:58.595Z</time></trkpt><trkpt lat="42.7130657" lon="12.1641875"><ele>137.0</ele><time>2026-04-12T10:56:59.596Z</time></trkpt><trkpt lat="42.7129529" lon="12.1640775"><ele>137.0</ele><time>2026-04-12T10:57:00.597Z</time></trkpt><trkpt lat="42.7128416" lon="12.1639738"><ele>137.0</ele><time>2026-04-12T10:57:01.596Z</time></trkpt><trkpt lat="42.7127343" lon="12.1638793"><ele>136.5</ele><time>2026-04-12T10:57:02.609Z</time></trkpt><trkpt lat="42.7126196" lon="12.1637986"><ele>136.0</ele><time>2026-04-12T10:57:03.608Z</time></trkpt><trkpt lat="42.7125039" lon="12.1637539"><ele>135.5</ele><time>2026-04-12T10:57:04.6Z</time></trkpt><trkpt lat="42.7123897" lon="12.1637527"><ele>135.0</ele><time>2026-04-12T10:57:05.596Z</time></trkpt><trkpt lat="42.7122967" lon="12.1637915"><ele>135.0</ele><time>2026-04-12T10:57:06.591Z</time></trkpt><trkpt lat="42.7122363" lon="12.163881"><ele>135.0</ele><time>2026-04-12T10:57:07.597Z</time></trkpt><trkpt lat="42.7121831" lon="12.1639827"><ele>135.0</ele><time>2026-04-12T10:57:08.602Z</time></trkpt><trkpt lat="42.7122006" lon="12.1641436"><ele>135.0</ele><time>2026-04-12T10:57:09.591Z</time></trkpt><trkpt lat="42.7122514" lon="12.1642997"><ele>135.0</ele><time>2026-04-12T10:57:10.594Z</time></trkpt><trkpt lat="42.7122909" lon="12.1644407"><ele>138.75</ele><time>2026-04-12T10:57:11.592Z</time></trkpt><trkpt lat="42.7123349" lon="12.1645865"><ele>142.5</ele><time>2026-04-12T10:57:12.595Z</time></trkpt><trkpt lat="42.7123655" lon="12.1647443"><ele>146.25</ele><time>2026-04-12T10:57:13.604Z</time></trkpt><trkpt lat="42.7123953" lon="12.1648907"><ele>150.0</ele><time>2026-04-12T10:57:14.595Z</time></trkpt><trkpt lat="42.7124014" lon="12.1650475"><ele>151.2</ele><time>2026-04-12T10:57:15.613Z</time></trkpt><trkpt lat="42.7123898" lon="12.1651963"><ele>152.4</ele><time>2026-04-12T10:57:16.591Z</time></trkpt><trkpt lat="42.7123698" lon="12.1653236"><ele>153.6</ele><time>2026-04-12T10:57:17.6Z</time></trkpt><trkpt lat="42.7123409" lon="12.165428"><ele>154.8</ele><time>2026-04-12T10:57:18.592Z</time></trkpt><trkpt lat="42.7122921" lon="12.16553"><ele>156.0</ele><time>2026-04-12T10:57:19.593Z</time></trkpt><trkpt lat="42.7122359" lon="12.1656219"><ele>156.0</ele><time>2026-04-12T10:57:20.6Z</time></trkpt><trkpt lat="42.7121604" lon="12.1656798"><ele>156.0</ele><time>2026-04-12T10:57:21.595Z</time></trkpt><trkpt lat="42.7120697" lon="12.1656877"><ele>156.0</ele><time>2026-04-12T10:57:22.594Z</time></trkpt><trkpt lat="42.7119832" lon="12.1656387"><ele>156.0</ele><time>2026-04-12T10:57:23.592Z</time></trkpt><trkpt lat="42.7119015" lon="12.1655722"><ele>156.0</ele><time>2026-04-12T10:57:24.595Z</time></trkpt><trkpt lat="42.7118512" lon="12.1654537"><ele>156.4</ele><time>2026-04-12T10:57:25.595Z</time></trkpt><trkpt lat="42.7117914" lon="12.1653334"><ele>156.8</ele><time>2026-04-12T10:57:26.592Z</time></trkpt><trkpt lat="42.7117189" lon="12.1652293"><ele>157.20000000000002</ele><time>2026-04-12T10:57:27.595Z</time></trkpt><trkpt lat="42.7116387" lon="12.1651227"><ele>157.6</ele><time>2026-04-12T10:57:28.591Z</time></trkpt><trkpt lat="42.7115304" lon="12.1650621"><ele>158.0</ele><time>2026-04-12T10:57:29.599Z</time></trkpt><trkpt lat="42.7114096" lon="12.1650346"><ele>158.0</ele><time>2026-04-12T10:57:30.592Z</time></trkpt><trkpt lat="42.7112981" lon="12.165018"><ele>158.0</ele><time>2026-04-12T10:57:31.591Z</time></trkpt><trkpt lat="42.7111836" lon="12.1649833"><ele>158.0</ele><time>2026-04-12T10:57:32.6Z</time></trkpt><trkpt lat="42.7110695" lon="12.1649176"><ele>158.0</ele><time>2026-04-12T10:57:33.592Z</time></trkpt><trkpt lat="42.7109656" lon="12.164821"><ele>158.25</ele><time>2026-04-12T10:57:34.59Z</time></trkpt><trkpt lat="42.710861" lon="12.1647106"><ele>158.5</ele><time>2026-04-12T10:57:35.596Z</time></trkpt><trkpt lat="42.710764" lon="12.1645756"><ele>158.75</ele><time>2026-04-12T10:57:36.589Z</time></trkpt><trkpt lat="42.7106694" lon="12.1644308"><ele>159.0</ele><time>2026-04-12T10:57:37.599Z</time></trkpt><trkpt lat="42.7105623" lon="12.1642935"><ele>159.0</ele><time>2026-04-12T10:57:38.592Z</time></trkpt><trkpt lat="42.7104572" lon="12.164158"><ele>159.0</ele><time>2026-04-12T10:57:39.597Z</time></trkpt><trkpt lat="42.7103657" lon="12.1640491"><ele>159.0</ele><time>2026-04-12T10:57:40.592Z</time></trkpt><trkpt lat="42.710274" lon="12.1639611"><ele>159.0</ele><time>2026-04-12T10:57:41.597Z</time></trkpt><trkpt lat="42.710173" lon="12.1638838"><ele>157.0</ele><time>2026-04-12T10:57:42.597Z</time></trkpt><trkpt lat="42.7100783" lon="12.1638133"><ele>155.0</ele><time>2026-04-12T10:57:43.602Z</time></trkpt><trkpt lat="42.7099844" lon="12.1637868"><ele>153.0</ele><time>2026-04-12T10:57:44.598Z</time></trkpt><trkpt lat="42.7098896" lon="12.1637729"><ele>151.0</ele><time>2026-04-12T10:57:45.591Z</time></trkpt><trkpt lat="42.709804" lon="12.1637984"><ele>149.0</ele><time>2026-04-12T10:57:46.595Z</time></trkpt><trkpt lat="42.7097269" lon="12.1638465"><ele>149.0</ele><time>2026-04-12T10:57:47.599Z</time></trkpt><trkpt lat="42.7096924" lon="12.1639779"><ele>149.0</ele><time>2026-04-12T10:57:48.591Z</time></trkpt><trkpt lat="42.7096717" lon="12.1641323"><ele>149.0</ele><time>2026-04-12T10:57:49.592Z</time></trkpt><trkpt lat="42.7096498" lon="12.1643037"><ele>149.0</ele><time>2026-04-12T10:57:50.606Z</time></trkpt><trkpt lat="42.7096308" lon="12.1644767"><ele>155.25</ele><time>2026-04-12T10:57:51.607Z</time></trkpt><trkpt lat="42.7096025" lon="12.1646623"><ele>161.5</ele><time>2026-04-12T10:57:52.603Z</time></trkpt><trkpt lat="42.7095699" lon="12.1648609"><ele>167.75</ele><time>2026-04-12T10:57:53.591Z</time></trkpt><trkpt lat="42.7095352" lon="12.165067"><ele>174.0</ele><time>2026-04-12T10:57:54.594Z</time></trkpt><trkpt lat="42.7095069" lon="12.1652576"><ele>177.0</ele><time>2026-04-12T10:57:55.598Z</time></trkpt><trkpt lat="42.7094821" lon="12.1654287"><ele>180.0</ele><time>2026-04-12T10:57:56.61Z</time></trkpt><trkpt lat="42.7094565" lon="12.1655882"><ele>183.0</ele><time>2026-04-12T10:57:57.6Z</time></trkpt><trkpt lat="42.7094514" lon="12.1657331"><ele>186.0</ele><time>2026-04-12T10:57:58.598Z</time></trkpt><trkpt lat="42.7094554" lon="12.1658778"><ele>186.8</ele><time>2026-04-12T10:57:59.595Z</time></trkpt><trkpt lat="42.7095118" lon="12.1659984"><ele>187.60000000000002</ele><time>2026-04-12T10:58:00.599Z</time></trkpt><trkpt lat="42.7095575" lon="12.1661127"><ele>188.4</ele><time>2026-04-12T10:58:01.596Z</time></trkpt><trkpt lat="42.709562" lon="12.1662394"><ele>189.2</ele><time>2026-04-12T10:58:02.604Z</time></trkpt><trkpt lat="42.7095296" lon="12.1663437"><ele>190.0</ele><time>2026-04-12T10:58:03.598Z</time></trkpt><trkpt lat="42.7094598" lon="12.1664151"><ele>190.6</ele><time>2026-04-12T10:58:04.597Z</time></trkpt><trkpt lat="42.7093776" lon="12.1664907"><ele>191.2</ele><time>2026-04-12T10:58:05.597Z</time></trkpt><trkpt lat="42.7092739" lon="12.1665351"><ele>191.8</ele><time>2026-04-12T10:58:06.598Z</time></trkpt><trkpt lat="42.70917" lon="12.1665939"><ele>192.4</ele><time>2026-04-12T10:58:07.594Z</time></trkpt><trkpt lat="42.7090591" lon="12.1666572"><ele>193.0</ele><time>2026-04-12T10:58:08.594Z</time></trkpt><trkpt lat="42.708941" lon="12.1667191"><ele>193.0</ele><time>2026-04-12T10:58:09.594Z</time></trkpt><trkpt lat="42.7088161" lon="12.1667889"><ele>193.0</ele><time>2026-04-12T10:58:10.594Z</time></trkpt><trkpt lat="42.7086916" lon="12.1668552"><ele>193.0</ele><time>2026-04-12T10:58:11.594Z</time></trkpt><trkpt lat="42.708578" lon="12.166918"><ele>193.0</ele><time>2026-04-12T10:58:12.595Z</time></trkpt><trkpt lat="42.7084702" lon="12.1669786"><ele>193.25</ele><time>2026-04-12T10:58:13.592Z</time></trkpt><trkpt lat="42.7083715" lon="12.1670454"><ele>193.5</ele><time>2026-04-12T10:58:14.598Z</time></trkpt><trkpt lat="42.7082788" lon="12.1671273"><ele>193.75</ele><time>2026-04-12T10:58:15.601Z</time></trkpt><trkpt lat="42.7081917" lon="12.1672345"><ele>194.0</ele><time>2026-04-12T10:58:16.597Z</time></trkpt><trkpt lat="42.7081125" lon="12.1673621"><ele>194.25</ele><time>2026-04-12T10:58:17.597Z</time></trkpt><trkpt lat="42.708049" lon="12.1674999"><ele>194.5</ele><time>2026-04-12T10:58:18.598Z</time></trkpt><trkpt lat="42.7079984" lon="12.1676557"><ele>194.75</ele><time>2026-04-12T10:58:19.592Z</time></trkpt><trkpt lat="42.7079574" lon="12.1678292"><ele>195.0</ele><time>2026-04-12T10:58:20.6Z</time></trkpt><trkpt lat="42.7079258" lon="12.1680008"><ele>195.0</ele><time>2026-04-12T10:58:21.596Z</time></trkpt><trkpt lat="42.7078995" lon="12.1681755"><ele>195.0</ele><time>2026-04-12T10:58:22.611Z</time></trkpt><trkpt lat="42.7078717" lon="12.1683538"><ele>195.0</ele><time>2026-04-12T10:58:23.602Z</time></trkpt><trkpt lat="42.7078416" lon="12.168535"><ele>195.0</ele><time>2026-04-12T10:58:24.598Z</time></trkpt><trkpt lat="42.7078092" lon="12.1687171"><ele>195.5</ele><time>2026-04-12T10:58:25.606Z</time></trkpt><trkpt lat="42.7077769" lon="12.1688982"><ele>196.0</ele><time>2026-04-12T10:58:26.6Z</time></trkpt><trkpt lat="42.7077438" lon="12.1690828"><ele>196.5</ele><time>2026-04-12T10:58:27.598Z</time></trkpt><trkpt lat="42.7077167" lon="12.1692651"><ele>197.0</ele><time>2026-04-12T10:58:28.608Z</time></trkpt><trkpt lat="42.7076958" lon="12.1694375"><ele>196.25</ele><time>2026-04-12T10:58:29.603Z</time></trkpt><trkpt lat="42.7076903" lon="12.1696069"><ele>195.5</ele><time>2026-04-12T10:58:30.599Z</time></trkpt><trkpt lat="42.7077065" lon="12.1697823"><ele>194.75</ele><time>2026-04-12T10:58:31.601Z</time></trkpt><trkpt lat="42.7077503" lon="12.1699571"><ele>194.0</ele><time>2026-04-12T10:58:32.603Z</time></trkpt><trkpt lat="42.7078173" lon="12.1701299"><ele>194.0</ele><time>2026-04-12T10:58:33.6Z</time></trkpt><trkpt lat="42.7079063" lon="12.1703001"><ele>194.0</ele><time>2026-04-12T10:58:34.599Z</time></trkpt><trkpt lat="42.7080038" lon="12.1704566"><ele>194.0</ele><time>2026-04-12T10:58:35.599Z</time></trkpt><trkpt lat="42.7080998" lon="12.1706051"><ele>190.25</ele><time>2026-04-12T10:58:36.597Z</time></trkpt><trkpt lat="42.7081917" lon="12.1707478"><ele>186.5</ele><time>2026-04-12T10:58:37.6Z</time></trkpt><trkpt lat="42.708279" lon="12.1708886"><ele>182.75</ele><time>2026-04-12T10:58:38.596Z</time></trkpt><trkpt lat="42.7083649" lon="12.1710277"><ele>179.0</ele><time>2026-04-12T10:58:39.607Z</time></trkpt><trkpt lat="42.7084537" lon="12.1711664"><ele>179.0</ele><time>2026-04-12T10:58:40.605Z</time></trkpt><trkpt lat="42.7085449" lon="12.1713028"><ele>179.0</ele><time>2026-04-12T10:58:41.596Z</time></trkpt><trkpt lat="42.7086328" lon="12.1714385"><ele>179.0</ele><time>2026-04-12T10:58:42.597Z</time></trkpt><trkpt lat="42.7087113" lon="12.1715625"><ele>179.0</ele><time>2026-04-12T10:58:43.604Z</time></trkpt><trkpt lat="42.7087746" lon="12.1716728"><ele>179.66666666666666</ele><time>2026-04-12T10:58:44.593Z</time></trkpt><trkpt lat="42.7088139" lon="12.1717779"><ele>180.33333333333331</ele><time>2026-04-12T10:58:45.591Z</time></trkpt><trkpt lat="42.7088205" lon="12.1718864"><ele>181.0</ele><time>2026-04-12T10:58:46.601Z</time></trkpt><trkpt lat="42.7087894" lon="12.1719919"><ele>181.66666666666666</ele><time>2026-04-12T10:58:47.592Z</time></trkpt><trkpt lat="42.7087227" lon="12.1720723"><ele>182.33333333333334</ele><time>2026-04-12T10:58:48.594Z</time></trkpt><trkpt lat="42.7086301" lon="12.172102"><ele>183.0</ele><time>2026-04-12T10:58:49.588Z</time></trkpt><trkpt lat="42.708537" lon="12.172063"><ele>179.25</ele><time>2026-04-12T10:58:50.599Z</time></trkpt><trkpt lat="42.7084475" lon="12.1719748"><ele>175.5</ele><time>2026-04-12T10:58:51.599Z</time></trkpt><trkpt lat="42.7083491" lon="12.171865"><ele>171.75</ele><time>2026-04-12T10:58:52.597Z</time></trkpt><trkpt lat="42.708248" lon="12.171755"><ele>168.0</ele><time>2026-04-12T10:58:53.591Z</time></trkpt><trkpt lat="42.7081485" lon="12.1716498"><ele>168.0</ele><time>2026-04-12T10:58:54.6Z</time></trkpt><trkpt lat="42.7080438" lon="12.1715488"><ele>168.0</ele><time>2026-04-12T10:58:55.602Z</time></trkpt><trkpt lat="42.7079362" lon="12.17146"><ele>168.0</ele><time>2026-04-12T10:58:56.596Z</time></trkpt><trkpt lat="42.7078267" lon="12.1713767"><ele>168.0</ele><time>2026-04-12T10:58:57.594Z</time></trkpt><trkpt lat="42.7077229" lon="12.1712957"><ele>166.75</ele><time>2026-04-12T10:58:58.6Z</time></trkpt><trkpt lat="42.7076233" lon="12.1712023"><ele>165.5</ele><time>2026-04-12T10:58:59.594Z</time></trkpt><trkpt lat="42.7075286" lon="12.1710882"><ele>164.25</ele><time>2026-04-12T10:59:00.601Z</time></trkpt><trkpt lat="42.7074362" lon="12.1709601"><ele>163.0</ele><time>2026-04-12T10:59:01.594Z</time></trkpt><trkpt lat="42.707341" lon="12.1708344"><ele>163.0</ele><time>2026-04-12T10:59:02.596Z</time></trkpt><trkpt lat="42.7072453" lon="12.1707224"><ele>163.0</ele><time>2026-04-12T10:59:03.596Z</time></trkpt><trkpt lat="42.7071466" lon="12.1706274"><ele>163.0</ele><time>2026-04-12T10:59:04.599Z</time></trkpt><trkpt lat="42.7070427" lon="12.1705464"><ele>163.0</ele><time>2026-04-12T10:59:05.592Z</time></trkpt><trkpt lat="42.7069392" lon="12.1704752"><ele>161.4</ele><time>2026-04-12T10:59:06.592Z</time></trkpt><trkpt lat="42.706841" lon="12.1704083"><ele>159.8</ele><time>2026-04-12T10:59:07.589Z</time></trkpt><trkpt lat="42.7067492" lon="12.1703413"><ele>158.2</ele><time>2026-04-12T10:59:08.598Z</time></trkpt><trkpt lat="42.7066567" lon="12.1702667"><ele>156.6</ele><time>2026-04-12T10:59:09.597Z</time></trkpt><trkpt lat="42.706565" lon="12.1701799"><ele>155.0</ele><time>2026-04-12T10:59:10.6Z</time></trkpt><trkpt lat="42.7064777" lon="12.170088"><ele>155.0</ele><time>2026-04-12T10:59:11.6Z</time></trkpt><trkpt lat="42.706397" lon="12.1699912"><ele>155.0</ele><time>2026-04-12T10:59:12.592Z</time></trkpt><trkpt lat="42.7063144" lon="12.169882"><ele>155.0</ele><time>2026-04-12T10:59:13.6Z</time></trkpt><trkpt lat="42.7062268" lon="12.1697683"><ele>155.0</ele><time>2026-04-12T10:59:14.601Z</time></trkpt><trkpt lat="42.7061415" lon="12.1696612"><ele>151.25</ele><time>2026-04-12T10:59:15.603Z</time></trkpt><trkpt lat="42.7060577" lon="12.169556"><ele>147.5</ele><time>2026-04-12T10:59:16.601Z</time></trkpt><trkpt lat="42.7059772" lon="12.1694529"><ele>143.75</ele><time>2026-04-12T10:59:17.599Z</time></trkpt><trkpt lat="42.7058988" lon="12.1693422"><ele>140.0</ele><time>2026-04-12T10:59:18.594Z</time></trkpt><trkpt lat="42.7058315" lon="12.169217"><ele>140.0</ele><time>2026-04-12T10:59:19.595Z</time></trkpt><trkpt lat="42.7057912" lon="12.1690791"><ele>140.0</ele><time>2026-04-12T10:59:20.602Z</time></trkpt><trkpt lat="42.7057752" lon="12.1689243"><ele>140.0</ele><time>2026-04-12T10:59:21.595Z</time></trkpt><trkpt lat="42.7057766" lon="12.1687568"><ele>140.0</ele><time>2026-04-12T10:59:22.592Z</time></trkpt><trkpt lat="42.7057894" lon="12.1685812"><ele>139.0</ele><time>2026-04-12T10:59:23.591Z</time></trkpt><trkpt lat="42.7058114" lon="12.1684085"><ele>138.0</ele><time>2026-04-12T10:59:24.595Z</time></trkpt><trkpt lat="42.7058411" lon="12.1682472"><ele>137.0</ele><time>2026-04-12T10:59:25.59Z</time></trkpt><trkpt lat="42.7058769" lon="12.1680971"><ele>136.0</ele><time>2026-04-12T10:59:26.597Z</time></trkpt><trkpt lat="42.705912" lon="12.1679606"><ele>135.33333333333334</ele><time>2026-04-12T10:59:27.598Z</time></trkpt><trkpt lat="42.7059428" lon="12.1678435"><ele>134.66666666666669</ele><time>2026-04-12T10:59:28.589Z</time></trkpt><trkpt lat="42.705971" lon="12.1677293"><ele>134.0</ele><time>2026-04-12T10:59:29.591Z</time></trkpt><trkpt lat="42.7059935" lon="12.1676307"><ele>133.33333333333334</ele><time>2026-04-12T10:59:30.598Z</time></trkpt><trkpt lat="42.7060155" lon="12.167523"><ele>132.66666666666666</ele><time>2026-04-12T10:59:31.595Z</time></trkpt><trkpt lat="42.7060153" lon="12.1674232"><ele>132.0</ele><time>2026-04-12T10:59:32.595Z</time></trkpt><trkpt lat="42.7060026" lon="12.1673376"><ele>132.0</ele><time>2026-04-12T10:59:33.595Z</time></trkpt><trkpt lat="42.7059364" lon="12.1672893"><ele>132.0</ele><time>2026-04-12T10:59:34.595Z</time></trkpt><trkpt lat="42.7058587" lon="12.1672801"><ele>132.0</ele><time>2026-04-12T10:59:35.591Z</time></trkpt><trkpt lat="42.7057891" lon="12.1673428"><ele>132.0</ele><time>2026-04-12T10:59:36.595Z</time></trkpt><trkpt lat="42.7057361" lon="12.16745"><ele>132.0</ele><time>2026-04-12T10:59:37.594Z</time></trkpt><trkpt lat="42.7056895" lon="12.1675757"><ele>132.0</ele><time>2026-04-12T10:59:38.588Z</time></trkpt><trkpt lat="42.7056424" lon="12.1677062"><ele>132.0</ele><time>2026-04-12T10:59:39.595Z</time></trkpt><trkpt lat="42.7055918" lon="12.1678347"><ele>132.0</ele><time>2026-04-12T10:59:40.592Z</time></trkpt><trkpt lat="42.705544" lon="12.1679581"><ele>132.0</ele><time>2026-04-12T10:59:41.594Z</time></trkpt><trkpt lat="42.7054952" lon="12.1680823"><ele>132.0</ele><time>2026-04-12T10:59:42.602Z</time></trkpt><trkpt lat="42.7054506" lon="12.168206"><ele>132.0</ele><time>2026-04-12T10:59:43.599Z</time></trkpt><trkpt lat="42.7054059" lon="12.1683317"><ele>132.79999999999998</ele><time>2026-04-12T10:59:44.604Z</time></trkpt><trkpt lat="42.7053592" lon="12.1684564"><ele>133.6</ele><time>2026-04-12T10:59:45.593Z</time></trkpt><trkpt lat="42.7053118" lon="12.168575"><ele>134.39999999999998</ele><time>2026-04-12T10:59:46.594Z</time></trkpt><trkpt lat="42.705263" lon="12.1687023"><ele>135.2</ele><time>2026-04-12T10:59:47.597Z</time></trkpt><trkpt lat="42.7052098" lon="12.1688467"><ele>136.0</ele><time>2026-04-12T10:59:48.594Z</time></trkpt><trkpt lat="42.7051586" lon="12.1689891"><ele>133.0</ele><time>2026-04-12T10:59:49.59Z</time></trkpt><trkpt lat="42.7051103" lon="12.1691183"><ele>130.0</ele><time>2026-04-12T10:59:50.599Z</time></trkpt><trkpt lat="42.7050653" lon="12.1692384"><ele>127.0</ele><time>2026-04-12T10:59:51.595Z</time></trkpt><trkpt lat="42.7050204" lon="12.1693588"><ele>124.0</ele><time>2026-04-12T10:59:52.595Z</time></trkpt><trkpt lat="42.7049748" lon="12.1694875"><ele>121.0</ele><time>2026-04-12T10:59:53.597Z</time></trkpt><trkpt lat="42.7049272" lon="12.1696231"><ele>121.0</ele><time>2026-04-12T10:59:54.601Z</time></trkpt><trkpt lat="42.7048791" lon="12.1697607"><ele>121.0</ele><time>2026-04-12T10:59:55.595Z</time></trkpt><trkpt lat="42.7048357" lon="12.1698981"><ele>121.0</ele><time>2026-04-12T10:59:56.595Z</time></trkpt><trkpt lat="42.7047989" lon="12.170041"><ele>121.0</ele><time>2026-04-12T10:59:57.598Z</time></trkpt><trkpt lat="42.7047595" lon="12.170196"><ele>123.75</ele><time>2026-04-12T10:59:58.597Z</time></trkpt><trkpt lat="42.7047012" lon="12.1703625"><ele>126.5</ele><time>2026-04-12T10:59:59.598Z</time></trkpt><trkpt lat="42.7046149" lon="12.170525"><ele>129.25</ele><time>2026-04-12T11:00:00.595Z</time></trkpt><trkpt lat="42.7045177" lon="12.1706721"><ele>132.0</ele><time>2026-04-12T11:00:01.612Z</time></trkpt><trkpt lat="42.7044251" lon="12.1708153"><ele>128.0</ele><time>2026-04-12T11:00:02.6Z</time></trkpt><trkpt lat="42.7043351" lon="12.1709607"><ele>124.0</ele><time>2026-04-12T11:00:03.588Z</time></trkpt><trkpt lat="42.7042514" lon="12.1711018"><ele>120.0</ele><time>2026-04-12T11:00:04.599Z</time></trkpt><trkpt lat="42.7041716" lon="12.1712351"><ele>116.0</ele><time>2026-04-12T11:00:05.596Z</time></trkpt><trkpt lat="42.7040994" lon="12.171366"><ele>116.0</ele><time>2026-04-12T11:00:06.598Z</time></trkpt><trkpt lat="42.7040315" lon="12.1715013"><ele>116.0</ele><time>2026-04-12T11:00:07.594Z</time></trkpt><trkpt lat="42.7039722" lon="12.1716362"><ele>116.0</ele><time>2026-04-12T11:00:08.611Z</time></trkpt><trkpt lat="42.7039241" lon="12.1717723"><ele>116.0</ele><time>2026-04-12T11:00:09.592Z</time></trkpt><trkpt lat="42.7038723" lon="12.1719076"><ele>119.0</ele><time>2026-04-12T11:00:10.603Z</time></trkpt><trkpt lat="42.7038178" lon="12.1720416"><ele>122.0</ele><time>2026-04-12T11:00:11.59Z</time></trkpt><trkpt lat="42.7037667" lon="12.1721729"><ele>125.0</ele><time>2026-04-12T11:00:12.595Z</time></trkpt><trkpt lat="42.703713" lon="12.1723015"><ele>128.0</ele><time>2026-04-12T11:00:13.596Z</time></trkpt><trkpt lat="42.7036899" lon="12.1724377"><ele>131.0</ele><time>2026-04-12T11:00:14.603Z</time></trkpt><trkpt lat="42.7036985" lon="12.1725744"><ele>132.0</ele><time>2026-04-12T11:00:15.591Z</time></trkpt><trkpt lat="42.7037449" lon="12.1727033"><ele>133.0</ele><time>2026-04-12T11:00:16.599Z</time></trkpt><trkpt lat="42.7038142" lon="12.1728367"><ele>134.0</ele><time>2026-04-12T11:00:17.597Z</time></trkpt><trkpt lat="42.7038986" lon="12.1729753"><ele>135.0</ele><time>2026-04-12T11:00:18.593Z</time></trkpt><trkpt lat="42.7039848" lon="12.1731108"><ele>132.0</ele><time>2026-04-12T11:00:19.606Z</time></trkpt><trkpt lat="42.7040537" lon="12.1732472"><ele>129.0</ele><time>2026-04-12T11:00:20.595Z</time></trkpt><trkpt lat="42.7040841" lon="12.1734242"><ele>126.0</ele><time>2026-04-12T11:00:21.597Z</time></trkpt><trkpt lat="42.7040852" lon="12.1735924"><ele>123.0</ele><time>2026-04-12T11:00:22.597Z</time></trkpt><trkpt lat="42.7040693" lon="12.1737572"><ele>123.0</ele><time>2026-04-12T11:00:23.602Z</time></trkpt><trkpt lat="42.7040629" lon="12.1739118"><ele>123.00000000000001</ele><time>2026-04-12T11:00:24.594Z</time></trkpt><trkpt lat="42.704062" lon="12.1740649"><ele>123.00000000000001</ele><time>2026-04-12T11:00:25.596Z</time></trkpt><trkpt lat="42.7040729" lon="12.1742172"><ele>123.0</ele><time>2026-04-12T11:00:26.597Z</time></trkpt><trkpt lat="42.7040902" lon="12.1743555"><ele>123.0</ele><time>2026-04-12T11:00:27.598Z</time></trkpt><trkpt lat="42.7041044" lon="12.1744871"><ele>122.0</ele><time>2026-04-12T11:00:28.597Z</time></trkpt><trkpt lat="42.7041105" lon="12.1746121"><ele>121.00000000000001</ele><time>2026-04-12T11:00:29.595Z</time></trkpt><trkpt lat="42.7041175" lon="12.1747456"><ele>120.00000000000001</ele><time>2026-04-12T11:00:30.597Z</time></trkpt><trkpt lat="42.7040925" lon="12.1748931"><ele>119.0</ele><time>2026-04-12T11:00:31.599Z</time></trkpt><trkpt lat="42.7040633" lon="12.1750239"><ele>118.0</ele><time>2026-04-12T11:00:32.601Z</time></trkpt><trkpt lat="42.7040249" lon="12.1751455"><ele>117.2</ele><time>2026-04-12T11:00:33.592Z</time></trkpt><trkpt lat="42.7039757" lon="12.1752609"><ele>116.4</ele><time>2026-04-12T11:00:34.591Z</time></trkpt><trkpt lat="42.7039207" lon="12.1753698"><ele>115.60000000000001</ele><time>2026-04-12T11:00:35.596Z</time></trkpt><trkpt lat="42.703872" lon="12.1754667"><ele>114.80000000000001</ele><time>2026-04-12T11:00:36.596Z</time></trkpt><trkpt lat="42.7038221" lon="12.1755588"><ele>114.0</ele><time>2026-04-12T11:00:37.598Z</time></trkpt><trkpt lat="42.7037746" lon="12.1756553"><ele>112.2</ele><time>2026-04-12T11:00:38.594Z</time></trkpt><trkpt lat="42.7037234" lon="12.1757521"><ele>110.4</ele><time>2026-04-12T11:00:39.589Z</time></trkpt><trkpt lat="42.703672" lon="12.1758506"><ele>108.6</ele><time>2026-04-12T11:00:40.594Z</time></trkpt><trkpt lat="42.7036228" lon="12.1759612"><ele>106.8</ele><time>2026-04-12T11:00:41.6Z</time></trkpt><trkpt lat="42.7035804" lon="12.176074"><ele>105.0</ele><time>2026-04-12T11:00:42.591Z</time></trkpt><trkpt lat="42.7035421" lon="12.1761934"><ele>105.0</ele><time>2026-04-12T11:00:43.598Z</time></trkpt><trkpt lat="42.7035068" lon="12.1763109"><ele>105.0</ele><time>2026-04-12T11:00:44.615Z</time></trkpt><trkpt lat="42.7034697" lon="12.1764316"><ele>105.0</ele><time>2026-04-12T11:00:45.595Z</time></trkpt><trkpt lat="42.7034284" lon="12.1765526"><ele>105.0</ele><time>2026-04-12T11:00:46.592Z</time></trkpt><trkpt lat="42.7033882" lon="12.1766613"><ele>105.0</ele><time>2026-04-12T11:00:47.599Z</time></trkpt><trkpt lat="42.7033459" lon="12.1767654"><ele>107.0</ele><time>2026-04-12T11:00:48.601Z</time></trkpt><trkpt lat="42.7033045" lon="12.1768701"><ele>109.0</ele><time>2026-04-12T11:00:49.593Z</time></trkpt><trkpt lat="42.7032653" lon="12.1769794"><ele>111.0</ele><time>2026-04-12T11:00:50.617Z</time></trkpt><trkpt lat="42.7032338" lon="12.1770947"><ele>113.0</ele><time>2026-04-12T11:00:51.602Z</time></trkpt><trkpt lat="42.7032232" lon="12.1772189"><ele>115.0</ele><time>2026-04-12T11:00:52.598Z</time></trkpt><trkpt lat="42.7032448" lon="12.1773469"><ele>117.0</ele><time>2026-04-12T11:00:53.596Z</time></trkpt><trkpt lat="42.7032933" lon="12.177468"><ele>119.0</ele><time>2026-04-12T11:00:54.603Z</time></trkpt><trkpt lat="42.7033544" lon="12.1775821"><ele>121.0</ele><time>2026-04-12T11:00:55.601Z</time></trkpt><trkpt lat="42.7034145" lon="12.1776893"><ele>123.0</ele><time>2026-04-12T11:00:56.599Z</time></trkpt><trkpt lat="42.7034544" lon="12.1778032"><ele>125.0</ele><time>2026-04-12T11:00:57.596Z</time></trkpt><trkpt lat="42.7034945" lon="12.1779159"><ele>125.0</ele><time>2026-04-12T11:00:58.594Z</time></trkpt><trkpt lat="42.7035036" lon="12.1780443"><ele>125.0</ele><time>2026-04-12T11:00:59.591Z</time></trkpt><trkpt lat="42.7034979" lon="12.1781769"><ele>125.0</ele><time>2026-04-12T11:01:00.598Z</time></trkpt><trkpt lat="42.7034844" lon="12.1783107"><ele>125.0</ele><time>2026-04-12T11:01:01.595Z</time></trkpt><trkpt lat="42.7034688" lon="12.178446"><ele>125.0</ele><time>2026-04-12T11:01:02.601Z</time></trkpt><trkpt lat="42.703453" lon="12.1785789"><ele>124.8</ele><time>2026-04-12T11:01:03.599Z</time></trkpt><trkpt lat="42.7034356" lon="12.1787103"><ele>124.6</ele><time>2026-04-12T11:01:04.6Z</time></trkpt><trkpt lat="42.7034188" lon="12.1788425"><ele>124.4</ele><time>2026-04-12T11:01:05.598Z</time></trkpt><trkpt lat="42.7034033" lon="12.1789789"><ele>124.2</ele><time>2026-04-12T11:01:06.599Z</time></trkpt><trkpt lat="42.7033883" lon="12.1791185"><ele>124.0</ele><time>2026-04-12T11:01:07.6Z</time></trkpt><trkpt lat="42.7033727" lon="12.1792535"><ele>124.00000000000001</ele><time>2026-04-12T11:01:08.595Z</time></trkpt><trkpt lat="42.703359" lon="12.1793797"><ele>124.0</ele><time>2026-04-12T11:01:09.593Z</time></trkpt><trkpt lat="42.703345" lon="12.179498"><ele>124.0</ele><time>2026-04-12T11:01:10.606Z</time></trkpt><trkpt lat="42.703332" lon="12.1796085"><ele>124.0</ele><time>2026-04-12T11:01:11.594Z</time></trkpt><trkpt lat="42.703318" lon="12.1797133"><ele>124.00000000000001</ele><time>2026-04-12T11:01:12.592Z</time></trkpt><trkpt lat="42.7033036" lon="12.1798263"><ele>124.0</ele><time>2026-04-12T11:01:13.604Z</time></trkpt><trkpt lat="42.703292" lon="12.1799391"><ele>124.16666666666667</ele><time>2026-04-12T11:01:14.599Z</time></trkpt><trkpt lat="42.70329" lon="12.1800493"><ele>124.33333333333334</ele><time>2026-04-12T11:01:15.598Z</time></trkpt><trkpt lat="42.703303" lon="12.1801662"><ele>124.5</ele><time>2026-04-12T11:01:16.596Z</time></trkpt><trkpt lat="42.7033419" lon="12.1802707"><ele>124.66666666666666</ele><time>2026-04-12T11:01:17.6Z</time></trkpt><trkpt lat="42.7033811" lon="12.1803701"><ele>124.83333333333333</ele><time>2026-04-12T11:01:18.594Z</time></trkpt><trkpt lat="42.703461" lon="12.1804156"><ele>125.0</ele><time>2026-04-12T11:01:19.597Z</time></trkpt><trkpt lat="42.7035471" lon="12.1804426"><ele>125.33333333333333</ele><time>2026-04-12T11:01:20.596Z</time></trkpt><trkpt lat="42.7036296" lon="12.18046"><ele>125.66666666666666</ele><time>2026-04-12T11:01:21.594Z</time></trkpt><trkpt lat="42.7037082" lon="12.1804867"><ele>126.0</ele><time>2026-04-12T11:01:22.602Z</time></trkpt><trkpt lat="42.7037855" lon="12.1805352"><ele>126.33333333333334</ele><time>2026-04-12T11:01:23.596Z</time></trkpt><trkpt lat="42.7038501" lon="12.1806178"><ele>126.66666666666667</ele><time>2026-04-12T11:01:24.593Z</time></trkpt><trkpt lat="42.7038905" lon="12.1807346"><ele>127.0</ele><time>2026-04-12T11:01:25.596Z</time></trkpt><trkpt lat="42.7039033" lon="12.1808604"><ele>126.33333333333334</ele><time>2026-04-12T11:01:26.594Z</time></trkpt><trkpt lat="42.703901" lon="12.1809811"><ele>125.66666666666667</ele><time>2026-04-12T11:01:27.594Z</time></trkpt><trkpt lat="42.7038905" lon="12.181092"><ele>125.0</ele><time>2026-04-12T11:01:28.595Z</time></trkpt><trkpt lat="42.7038762" lon="12.1811978"><ele>124.33333333333334</ele><time>2026-04-12T11:01:29.599Z</time></trkpt><trkpt lat="42.7038568" lon="12.1813081"><ele>123.66666666666667</ele><time>2026-04-12T11:01:30.596Z</time></trkpt><trkpt lat="42.7038308" lon="12.1814228"><ele>123.0</ele><time>2026-04-12T11:01:31.594Z</time></trkpt><trkpt lat="42.7038036" lon="12.1815377"><ele>123.0</ele><time>2026-04-12T11:01:32.594Z</time></trkpt><trkpt lat="42.7037489" lon="12.1816387"><ele>123.0</ele><time>2026-04-12T11:01:33.599Z</time></trkpt><trkpt lat="42.7036787" lon="12.1817182"><ele>123.0</ele><time>2026-04-12T11:01:34.593Z</time></trkpt><trkpt lat="42.7036087" lon="12.1817916"><ele>123.0</ele><time>2026-04-12T11:01:35.595Z</time></trkpt><trkpt lat="42.703534" lon="12.1818459"><ele>123.0</ele><time>2026-04-12T11:01:36.601Z</time></trkpt><trkpt lat="42.7034667" lon="12.1818951"><ele>123.0</ele><time>2026-04-12T11:01:37.601Z</time></trkpt><trkpt lat="42.7033999" lon="12.1819441"><ele>122.42857142857144</ele><time>2026-04-12T11:01:38.594Z</time></trkpt><trkpt lat="42.7033423" lon="12.1819871"><ele>121.85714285714286</ele><time>2026-04-12T11:01:39.611Z</time></trkpt><trkpt lat="42.7032845" lon="12.18203"><ele>121.28571428571429</ele><time>2026-04-12T11:01:40.597Z</time></trkpt><trkpt lat="42.7032228" lon="12.1820757"><ele>120.71428571428572</ele><time>2026-04-12T11:01:41.596Z</time></trkpt><trkpt lat="42.7031582" lon="12.1821229"><ele>120.14285714285714</ele><time>2026-04-12T11:01:42.594Z</time></trkpt><trkpt lat="42.7030905" lon="12.1821839"><ele>119.57142857142857</ele><time>2026-04-12T11:01:43.603Z</time></trkpt><trkpt lat="42.7030307" lon="12.182262"><ele>119.0</ele><time>2026-04-12T11:01:44.593Z</time></trkpt><trkpt lat="42.7029753" lon="12.1823401"><ele>120.33333333333333</ele><time>2026-04-12T11:01:45.604Z</time></trkpt><trkpt lat="42.7029733" lon="12.1824521"><ele>121.66666666666666</ele><time>2026-04-12T11:01:46.608Z</time></trkpt><trkpt lat="42.7029997" lon="12.1825629"><ele>123.0</ele><time>2026-04-12T11:01:47.597Z</time></trkpt><trkpt lat="42.7030312" lon="12.182667"><ele>124.33333333333334</ele><time>2026-04-12T11:01:48.61Z</time></trkpt><trkpt lat="42.703096" lon="12.1827626"><ele>125.66666666666667</ele><time>2026-04-12T11:01:49.602Z</time></trkpt><trkpt lat="42.7031667" lon="12.1828575"><ele>127.0</ele><time>2026-04-12T11:01:50.603Z</time></trkpt><trkpt lat="42.7032366" lon="12.182951"><ele>127.0</ele><time>2026-04-12T11:01:51.602Z</time></trkpt><trkpt lat="42.703311" lon="12.183052"><ele>126.99999999999999</ele><time>2026-04-12T11:01:52.599Z</time></trkpt><trkpt lat="42.703385" lon="12.1831552"><ele>126.99999999999999</ele><time>2026-04-12T11:01:53.6Z</time></trkpt><trkpt lat="42.7034627" lon="12.1832574"><ele>127.0</ele><time>2026-04-12T11:01:54.596Z</time></trkpt><trkpt lat="42.7035424" lon="12.1833634"><ele>127.0</ele><time>2026-04-12T11:01:55.597Z</time></trkpt><trkpt lat="42.703622" lon="12.1834702"><ele>128.4</ele><time>2026-04-12T11:01:56.599Z</time></trkpt><trkpt lat="42.7037013" lon="12.1835761"><ele>129.79999999999998</ele><time>2026-04-12T11:01:57.6Z</time></trkpt><trkpt lat="42.7037813" lon="12.183686"><ele>131.2</ele><time>2026-04-12T11:01:58.594Z</time></trkpt><trkpt lat="42.7038587" lon="12.1837898"><ele>132.6</ele><time>2026-04-12T11:01:59.6Z</time></trkpt><trkpt lat="42.7039301" lon="12.1838838"><ele>134.0</ele><time>2026-04-12T11:02:00.599Z</time></trkpt><trkpt lat="42.704001" lon="12.1839752"><ele>133.83333333333331</ele><time>2026-04-12T11:02:01.604Z</time></trkpt><trkpt lat="42.7040715" lon="12.1840685"><ele>133.66666666666666</ele><time>2026-04-12T11:02:02.591Z</time></trkpt><trkpt lat="42.7041296" lon="12.1841555"><ele>133.5</ele><time>2026-04-12T11:02:03.607Z</time></trkpt><trkpt lat="42.7041677" lon="12.1842572"><ele>133.33333333333334</ele><time>2026-04-12T11:02:04.605Z</time></trkpt><trkpt lat="42.7041756" lon="12.1843689"><ele>133.16666666666669</ele><time>2026-04-12T11:02:05.592Z</time></trkpt><trkpt lat="42.7041473" lon="12.1844796"><ele>133.0</ele><time>2026-04-12T11:02:06.589Z</time></trkpt><trkpt lat="42.7040943" lon="12.1845763"><ele>133.0</ele><time>2026-04-12T11:02:07.603Z</time></trkpt><trkpt lat="42.7040226" lon="12.1846629"><ele>133.0</ele><time>2026-04-12T11:02:08.599Z</time></trkpt><trkpt lat="42.7039407" lon="12.1847517"><ele>133.0</ele><time>2026-04-12T11:02:09.609Z</time></trkpt><trkpt lat="42.7038527" lon="12.1848455"><ele>133.0</ele><time>2026-04-12T11:02:10.598Z</time></trkpt><trkpt lat="42.7037644" lon="12.1849395"><ele>133.0</ele><time>2026-04-12T11:02:11.597Z</time></trkpt><trkpt lat="42.70368" lon="12.1850452"><ele>132.6</ele><time>2026-04-12T11:02:12.595Z</time></trkpt><trkpt lat="42.7036054" lon="12.1851695"><ele>132.20000000000002</ele><time>2026-04-12T11:02:13.6Z</time></trkpt><trkpt lat="42.7035352" lon="12.1852884"><ele>131.8</ele><time>2026-04-12T11:02:14.59Z</time></trkpt><trkpt lat="42.7034684" lon="12.1854049"><ele>131.4</ele><time>2026-04-12T11:02:15.593Z</time></trkpt><trkpt lat="42.703408" lon="12.1855044"><ele>131.0</ele><time>2026-04-12T11:02:16.597Z</time></trkpt><trkpt lat="42.7033532" lon="12.1855969"><ele>132.16666666666666</ele><time>2026-04-12T11:02:17.6Z</time></trkpt><trkpt lat="42.7033065" lon="12.1856798"><ele>133.33333333333331</ele><time>2026-04-12T11:02:18.61Z</time></trkpt><trkpt lat="42.7032644" lon="12.1857552"><ele>134.5</ele><time>2026-04-12T11:02:19.6Z</time></trkpt><trkpt lat="42.7031993" lon="12.1858769"><ele>135.66666666666666</ele><time>2026-04-12T11:02:21.602Z</time></trkpt><trkpt lat="42.7031473" lon="12.1859628"><ele>136.83333333333334</ele><time>2026-04-12T11:02:23.6Z</time></trkpt><trkpt lat="42.7031001" lon="12.1860426"><ele>138.0</ele><time>2026-04-12T11:02:25.609Z</time></trkpt><trkpt lat="42.7030612" lon="12.1861139"><ele>138.0</ele><time>2026-04-12T11:02:27.601Z</time></trkpt><trkpt lat="42.7030268" lon="12.1861944"><ele>138.0</ele><time>2026-04-12T11:02:29.601Z</time></trkpt><trkpt lat="42.7030029" lon="12.186283"><ele>138.0</ele><time>2026-04-12T11:02:31.593Z</time></trkpt><trkpt lat="42.7029991" lon="12.1864125"><ele>138.0</ele><time>2026-04-12T11:02:34.604Z</time></trkpt><trkpt lat="42.7030266" lon="12.1865382"><ele>138.0</ele><time>2026-04-12T11:02:37.606Z</time></trkpt><trkpt lat="42.7030586" lon="12.1866326"><ele>138.0</ele><time>2026-04-12T11:02:40.596Z</time></trkpt><trkpt lat="42.70309" lon="12.186709"><ele>137.83333333333334</ele><time>2026-04-12T11:02:43.595Z</time></trkpt><trkpt lat="42.7031483" lon="12.1867451"><ele>137.66666666666666</ele><time>2026-04-12T11:10:04.517Z</time></trkpt><trkpt lat="42.7032173" lon="12.1867851"><ele>137.5</ele><time>2026-04-12T11:10:11.572Z</time></trkpt><trkpt lat="42.7032652" lon="12.1868514"><ele>137.33333333333331</ele><time>2026-04-12T11:10:15.565Z</time></trkpt><trkpt lat="42.7033792" lon="12.186928"><ele>137.16666666666666</ele><time>2026-04-12T11:11:30.58Z</time></trkpt><trkpt lat="42.7034702" lon="12.1869946"><ele>137.0</ele><time>2026-04-12T11:11:31.57Z</time></trkpt><trkpt lat="42.7035708" lon="12.1870746"><ele>137.75</ele><time>2026-04-12T11:11:32.589Z</time></trkpt><trkpt lat="42.7036839" lon="12.1871615"><ele>138.5</ele><time>2026-04-12T11:11:33.571Z</time></trkpt><trkpt lat="42.7037903" lon="12.1872497"><ele>139.25</ele><time>2026-04-12T11:11:34.566Z</time></trkpt><trkpt lat="42.7038875" lon="12.1873344"><ele>140.0</ele><time>2026-04-12T11:11:35.562Z</time></trkpt><trkpt lat="42.7039816" lon="12.1874184"><ele>138.6</ele><time>2026-04-12T11:11:36.56Z</time></trkpt><trkpt lat="42.7040401" lon="12.1875358"><ele>137.2</ele><time>2026-04-12T11:11:37.571Z</time></trkpt><trkpt lat="42.7040665" lon="12.1876683"><ele>135.8</ele><time>2026-04-12T11:11:38.572Z</time></trkpt><trkpt lat="42.7040636" lon="12.1878168"><ele>134.4</ele><time>2026-04-12T11:11:39.564Z</time></trkpt><trkpt lat="42.7040553" lon="12.1879585"><ele>133.0</ele><time>2026-04-12T11:11:40.565Z</time></trkpt><trkpt lat="42.7039866" lon="12.1880604"><ele>133.0</ele><time>2026-04-12T11:11:41.568Z</time></trkpt><trkpt lat="42.70391" lon="12.1881588"><ele>133.0</ele><time>2026-04-12T11:11:42.567Z</time></trkpt><trkpt lat="42.7037813" lon="12.1881701"><ele>133.0</ele><time>2026-04-12T11:11:43.559Z</time></trkpt><trkpt lat="42.7036466" lon="12.1881669"><ele>133.0</ele><time>2026-04-12T11:11:44.576Z</time></trkpt><trkpt lat="42.7035108" lon="12.1881644"><ele>133.25</ele><time>2026-04-12T11:11:45.573Z</time></trkpt><trkpt lat="42.7033675" lon="12.1881622"><ele>133.5</ele><time>2026-04-12T11:11:46.568Z</time></trkpt><trkpt lat="42.7032225" lon="12.1881541"><ele>133.75</ele><time>2026-04-12T11:11:47.572Z</time></trkpt><trkpt lat="42.7030921" lon="12.1881507"><ele>134.0</ele><time>2026-04-12T11:11:48.573Z</time></trkpt><trkpt lat="42.7029729" lon="12.1881529"><ele>134.0</ele><time>2026-04-12T11:11:49.573Z</time></trkpt><trkpt lat="42.7028574" lon="12.1881561"><ele>134.0</ele><time>2026-04-12T11:11:50.574Z</time></trkpt><trkpt lat="42.7027469" lon="12.1882093"><ele>134.0</ele><time>2026-04-12T11:11:51.56Z</time></trkpt><trkpt lat="42.7026563" lon="12.188309"><ele>134.0</ele><time>2026-04-12T11:11:52.567Z</time></trkpt><trkpt lat="42.7025874" lon="12.1884462"><ele>135.0</ele><time>2026-04-12T11:11:53.572Z</time></trkpt><trkpt lat="42.7025342" lon="12.1886048"><ele>136.0</ele><time>2026-04-12T11:11:54.57Z</time></trkpt><trkpt lat="42.7024824" lon="12.1887736"><ele>137.0</ele><time>2026-04-12T11:11:55.578Z</time></trkpt><trkpt lat="42.7024287" lon="12.1889512"><ele>138.0</ele><time>2026-04-12T11:11:56.584Z</time></trkpt><trkpt lat="42.7023745" lon="12.1891368"><ele>139.33333333333334</ele><time>2026-04-12T11:11:57.573Z</time></trkpt><trkpt lat="42.702321" lon="12.1893265"><ele>140.66666666666669</ele><time>2026-04-12T11:11:58.578Z</time></trkpt><trkpt lat="42.7022665" lon="12.1895162"><ele>142.0</ele><time>2026-04-12T11:11:59.573Z</time></trkpt><trkpt lat="42.7022126" lon="12.1897109"><ele>141.33333333333334</ele><time>2026-04-12T11:12:00.578Z</time></trkpt><trkpt lat="42.7021571" lon="12.1899104"><ele>140.66666666666666</ele><time>2026-04-12T11:12:01.578Z</time></trkpt><trkpt lat="42.7021" lon="12.1901112"><ele>140.0</ele><time>2026-04-12T11:12:02.579Z</time></trkpt><trkpt lat="42.7020437" lon="12.1903071"><ele>140.0</ele><time>2026-04-12T11:12:03.578Z</time></trkpt><trkpt lat="42.7019828" lon="12.1904978"><ele>140.0</ele><time>2026-04-12T11:12:04.578Z</time></trkpt><trkpt lat="42.7019156" lon="12.1906756"><ele>140.0</ele><time>2026-04-12T11:12:05.571Z</time></trkpt><trkpt lat="42.7018412" lon="12.1908317"><ele>140.0</ele><time>2026-04-12T11:12:06.576Z</time></trkpt><trkpt lat="42.7017635" lon="12.1909783"><ele>139.0</ele><time>2026-04-12T11:12:07.58Z</time></trkpt><trkpt lat="42.7016569" lon="12.1911086"><ele>138.0</ele><time>2026-04-12T11:12:08.573Z</time></trkpt><trkpt lat="42.7015356" lon="12.1912229"><ele>137.0</ele><time>2026-04-12T11:12:09.581Z</time></trkpt><trkpt lat="42.7014091" lon="12.1913328"><ele>136.0</ele><time>2026-04-12T11:12:10.591Z</time></trkpt><trkpt lat="42.7012836" lon="12.1914327"><ele>136.25</ele><time>2026-04-12T11:12:11.564Z</time></trkpt><trkpt lat="42.7011693" lon="12.1915367"><ele>136.5</ele><time>2026-04-12T11:12:12.584Z</time></trkpt><trkpt lat="42.70106" lon="12.1916343"><ele>136.75</ele><time>2026-04-12T11:12:13.578Z</time></trkpt><trkpt lat="42.7009642" lon="12.1917486"><ele>137.0</ele><time>2026-04-12T11:12:14.573Z</time></trkpt><trkpt lat="42.7008898" lon="12.1918941"><ele>133.66666666666666</ele><time>2026-04-12T11:12:15.575Z</time></trkpt><trkpt lat="42.7008375" lon="12.1920706"><ele>130.33333333333334</ele><time>2026-04-12T11:12:16.569Z</time></trkpt><trkpt lat="42.7007975" lon="12.1922699"><ele>127.0</ele><time>2026-04-12T11:12:17.569Z</time></trkpt><trkpt lat="42.7007511" lon="12.1924862"><ele>127.0</ele><time>2026-04-12T11:12:18.576Z</time></trkpt><trkpt lat="42.7007017" lon="12.1927138"><ele>127.0</ele><time>2026-04-12T11:12:19.574Z</time></trkpt><trkpt lat="42.7006441" lon="12.1929438"><ele>127.0</ele><time>2026-04-12T11:12:20.583Z</time></trkpt><trkpt lat="42.700593" lon="12.1931543"><ele>126.33333333333334</ele><time>2026-04-12T11:12:21.586Z</time></trkpt><trkpt lat="42.7005449" lon="12.1933717"><ele>125.66666666666666</ele><time>2026-04-12T11:12:22.564Z</time></trkpt><trkpt lat="42.7004955" lon="12.1935896"><ele>125.0</ele><time>2026-04-12T11:12:23.562Z</time></trkpt><trkpt lat="42.7004427" lon="12.1938056"><ele>125.0</ele><time>2026-04-12T11:12:24.579Z</time></trkpt><trkpt lat="42.7003959" lon="12.1940196"><ele>125.0</ele><time>2026-04-12T11:12:25.577Z</time></trkpt><trkpt lat="42.7003629" lon="12.1942406"><ele>125.0</ele><time>2026-04-12T11:12:26.581Z</time></trkpt><trkpt lat="42.7003513" lon="12.1944742"><ele>125.0</ele><time>2026-04-12T11:12:27.582Z</time></trkpt><trkpt lat="42.7003598" lon="12.1947148"><ele>125.0</ele><time>2026-04-12T11:12:28.565Z</time></trkpt><trkpt lat="42.7003789" lon="12.194963"><ele>125.0</ele><time>2026-04-12T11:12:29.573Z</time></trkpt><trkpt lat="42.7003981" lon="12.1952163"><ele>125.33333333333333</ele><time>2026-04-12T11:12:30.578Z</time></trkpt><trkpt lat="42.7004079" lon="12.1954633"><ele>125.66666666666666</ele><time>2026-04-12T11:12:31.564Z</time></trkpt><trkpt lat="42.7004083" lon="12.1957055"><ele>126.0</ele><time>2026-04-12T11:12:32.582Z</time></trkpt><trkpt lat="42.7004007" lon="12.1959438"><ele>125.66666666666666</ele><time>2026-04-12T11:12:33.581Z</time></trkpt><trkpt lat="42.7003857" lon="12.1961767"><ele>125.33333333333333</ele><time>2026-04-12T11:12:34.581Z</time></trkpt><trkpt lat="42.7003626" lon="12.1963997"><ele>125.0</ele><time>2026-04-12T11:12:35.567Z</time></trkpt><trkpt lat="42.7003263" lon="12.1966247"><ele>125.0</ele><time>2026-04-12T11:12:36.577Z</time></trkpt><trkpt lat="42.7002838" lon="12.1968535"><ele>125.0</ele><time>2026-04-12T11:12:37.578Z</time></trkpt><trkpt lat="42.7002386" lon="12.1970769"><ele>125.0</ele><time>2026-04-12T11:12:38.572Z</time></trkpt><trkpt lat="42.700181" lon="12.197305"><ele>121.33333333333333</ele><time>2026-04-12T11:12:39.583Z</time></trkpt><trkpt lat="42.7001165" lon="12.1975336"><ele>117.66666666666666</ele><time>2026-04-12T11:12:40.575Z</time></trkpt><trkpt lat="42.7000531" lon="12.1977652"><ele>114.0</ele><time>2026-04-12T11:12:41.562Z</time></trkpt><trkpt lat="42.6999907" lon="12.197979"><ele>114.33333333333334</ele><time>2026-04-12T11:12:42.584Z</time></trkpt><trkpt lat="42.6999243" lon="12.1981837"><ele>114.66666666666667</ele><time>2026-04-12T11:12:43.579Z</time></trkpt><trkpt lat="42.6998616" lon="12.1983826"><ele>115.0</ele><time>2026-04-12T11:12:44.566Z</time></trkpt><trkpt lat="42.6998069" lon="12.1985835"><ele>115.0</ele><time>2026-04-12T11:12:45.574Z</time></trkpt><trkpt lat="42.6997618" lon="12.1987926"><ele>115.0</ele><time>2026-04-12T11:12:46.559Z</time></trkpt><trkpt lat="42.6997508" lon="12.1990306"><ele>115.0</ele><time>2026-04-12T11:12:47.573Z</time></trkpt><trkpt lat="42.6997524" lon="12.1992431"><ele>115.25</ele><time>2026-04-12T11:12:48.573Z</time></trkpt><trkpt lat="42.6997645" lon="12.199426"><ele>115.5</ele><time>2026-04-12T11:12:49.567Z</time></trkpt><trkpt lat="42.699797" lon="12.1995968"><ele>115.75</ele><time>2026-04-12T11:12:50.563Z</time></trkpt><trkpt lat="42.6998433" lon="12.1997553"><ele>116.0</ele><time>2026-04-12T11:12:51.572Z</time></trkpt><trkpt lat="42.6999027" lon="12.1999144"><ele>113.25</ele><time>2026-04-12T11:12:52.561Z</time></trkpt><trkpt lat="42.6999762" lon="12.2000861"><ele>110.5</ele><time>2026-04-12T11:12:53.578Z</time></trkpt><trkpt lat="42.7000514" lon="12.2002589"><ele>107.75</ele><time>2026-04-12T11:12:54.577Z</time></trkpt><trkpt lat="42.7000915" lon="12.2004544"><ele>105.0</ele><time>2026-04-12T11:12:55.574Z</time></trkpt><trkpt lat="42.7001186" lon="12.200681"><ele>103.66666666666666</ele><time>2026-04-12T11:12:56.577Z</time></trkpt><trkpt lat="42.700141" lon="12.200915"><ele>102.33333333333333</ele><time>2026-04-12T11:12:57.565Z</time></trkpt><trkpt lat="42.700165" lon="12.2011479"><ele>101.0</ele><time>2026-04-12T11:12:58.576Z</time></trkpt><trkpt lat="42.7001875" lon="12.2013755"><ele>100.25</ele><time>2026-04-12T11:12:59.575Z</time></trkpt><trkpt lat="42.7002089" lon="12.2015874"><ele>99.5</ele><time>2026-04-12T11:13:00.575Z</time></trkpt><trkpt lat="42.70023" lon="12.2017865"><ele>98.75</ele><time>2026-04-12T11:13:01.576Z</time></trkpt><trkpt lat="42.7002507" lon="12.2019728"><ele>98.0</ele><time>2026-04-12T11:13:02.581Z</time></trkpt><trkpt lat="42.70027" lon="12.2021519"><ele>101.75</ele><time>2026-04-12T11:13:03.576Z</time></trkpt><trkpt lat="42.7002887" lon="12.2023318"><ele>105.5</ele><time>2026-04-12T11:13:04.576Z</time></trkpt><trkpt lat="42.7003083" lon="12.2025135"><ele>109.25</ele><time>2026-04-12T11:13:05.578Z</time></trkpt><trkpt lat="42.7003284" lon="12.2026948"><ele>113.0</ele><time>2026-04-12T11:13:06.578Z</time></trkpt><trkpt lat="42.7003479" lon="12.20287"><ele>113.0</ele><time>2026-04-12T11:13:07.587Z</time></trkpt><trkpt lat="42.7003665" lon="12.2030346"><ele>113.0</ele><time>2026-04-12T11:13:08.576Z</time></trkpt><trkpt lat="42.7003858" lon="12.2031999"><ele>113.0</ele><time>2026-04-12T11:13:09.576Z</time></trkpt><trkpt lat="42.7004066" lon="12.2033697"><ele>113.0</ele><time>2026-04-12T11:13:10.576Z</time></trkpt><trkpt lat="42.7004258" lon="12.2035441"><ele>111.25</ele><time>2026-04-12T11:13:11.571Z</time></trkpt><trkpt lat="42.7004453" lon="12.2037333"><ele>109.5</ele><time>2026-04-12T11:13:12.573Z</time></trkpt><trkpt lat="42.7004654" lon="12.2039331"><ele>107.75</ele><time>2026-04-12T11:13:13.576Z</time></trkpt><trkpt lat="42.7004878" lon="12.2041416"><ele>106.0</ele><time>2026-04-12T11:13:14.574Z</time></trkpt><trkpt lat="42.700511" lon="12.2043582"><ele>105.0</ele><time>2026-04-12T11:13:15.567Z</time></trkpt><trkpt lat="42.7005348" lon="12.2045823"><ele>104.0</ele><time>2026-04-12T11:13:16.575Z</time></trkpt><trkpt lat="42.7005597" lon="12.2048241"><ele>103.0</ele><time>2026-04-12T11:13:17.579Z</time></trkpt><trkpt lat="42.7005902" lon="12.2050834"><ele>103.0</ele><time>2026-04-12T11:13:18.572Z</time></trkpt><trkpt lat="42.7006266" lon="12.2053436"><ele>103.0</ele><time>2026-04-12T11:13:19.571Z</time></trkpt><trkpt lat="42.7006672" lon="12.2055846"><ele>103.0</ele><time>2026-04-12T11:13:20.566Z</time></trkpt><trkpt lat="42.7007096" lon="12.2058083"><ele>103.0</ele><time>2026-04-12T11:13:21.579Z</time></trkpt><trkpt lat="42.7007516" lon="12.2060171"><ele>103.0</ele><time>2026-04-12T11:13:22.575Z</time></trkpt><trkpt lat="42.7007915" lon="12.2062106"><ele>103.0</ele><time>2026-04-12T11:13:23.583Z</time></trkpt><trkpt lat="42.7008278" lon="12.2063779"><ele>103.0</ele><time>2026-04-12T11:13:24.581Z</time></trkpt><trkpt lat="42.70086" lon="12.206515"><ele>103.33333333333334</ele><time>2026-04-12T11:13:25.572Z</time></trkpt><trkpt lat="42.7008855" lon="12.2066278"><ele>103.66666666666667</ele><time>2026-04-12T11:13:26.566Z</time></trkpt><trkpt lat="42.7009109" lon="12.2067123"><ele>104.0</ele><time>2026-04-12T11:13:27.573Z</time></trkpt><trkpt lat="42.7009864" lon="12.2068283"><ele>104.33333333333334</ele><time>2026-04-12T11:13:29.558Z</time></trkpt><trkpt lat="42.7010393" lon="12.206878"><ele>104.66666666666667</ele><time>2026-04-12T11:13:30.565Z</time></trkpt><trkpt lat="42.7011268" lon="12.2069794"><ele>105.0</ele><time>2026-04-12T11:13:32.559Z</time></trkpt><trkpt lat="42.7011966" lon="12.2070531"><ele>105.6</ele><time>2026-04-12T11:13:34.578Z</time></trkpt><trkpt lat="42.701265" lon="12.2070901"><ele>106.2</ele><time>2026-04-12T11:13:36.582Z</time></trkpt><trkpt lat="42.7013834" lon="12.2071041"><ele>106.80000000000001</ele><time>2026-04-12T11:13:38.573Z</time></trkpt><trkpt lat="42.701473" lon="12.2071016"><ele>107.4</ele><time>2026-04-12T11:13:39.576Z</time></trkpt><trkpt lat="42.7015763" lon="12.2070966"><ele>108.0</ele><time>2026-04-12T11:13:40.583Z</time></trkpt><trkpt lat="42.7016945" lon="12.2070882"><ele>108.0</ele><time>2026-04-12T11:13:41.573Z</time></trkpt><trkpt lat="42.7018211" lon="12.2070762"><ele>108.0</ele><time>2026-04-12T11:13:42.585Z</time></trkpt><trkpt lat="42.7019604" lon="12.2070658"><ele>108.0</ele><time>2026-04-12T11:13:43.572Z</time></trkpt><trkpt lat="42.7021149" lon="12.207055"><ele>108.0</ele><time>2026-04-12T11:13:44.572Z</time></trkpt><trkpt lat="42.7022764" lon="12.2070733"><ele>110.66666666666666</ele><time>2026-04-12T11:13:45.578Z</time></trkpt><trkpt lat="42.7024386" lon="12.2071079"><ele>113.33333333333333</ele><time>2026-04-12T11:13:46.584Z</time></trkpt><trkpt lat="42.7025893" lon="12.2071327"><ele>116.0</ele><time>2026-04-12T11:13:47.576Z</time></trkpt><trkpt lat="42.7027358" lon="12.207155"><ele>120.75</ele><time>2026-04-12T11:13:48.567Z</time></trkpt><trkpt lat="42.7028645" lon="12.2071703"><ele>125.5</ele><time>2026-04-12T11:13:49.566Z</time></trkpt><trkpt lat="42.7029784" lon="12.2071775"><ele>130.25</ele><time>2026-04-12T11:13:50.567Z</time></trkpt><trkpt lat="42.7030859" lon="12.2071632"><ele>135.0</ele><time>2026-04-12T11:13:51.576Z</time></trkpt><trkpt lat="42.703191" lon="12.2071271"><ele>135.0</ele><time>2026-04-12T11:13:52.563Z</time></trkpt><trkpt lat="42.7032904" lon="12.2070796"><ele>135.0</ele><time>2026-04-12T11:13:53.569Z</time></trkpt><trkpt lat="42.7033844" lon="12.2070302"><ele>135.0</ele><time>2026-04-12T11:13:54.56Z</time></trkpt><trkpt lat="42.7034711" lon="12.2069761"><ele>135.0</ele><time>2026-04-12T11:13:55.565Z</time></trkpt><trkpt lat="42.7035529" lon="12.2069162"><ele>135.0</ele><time>2026-04-12T11:13:56.568Z</time></trkpt><trkpt lat="42.7036189" lon="12.2068337"><ele>135.0</ele><time>2026-04-12T11:13:57.56Z</time></trkpt><trkpt lat="42.7036696" lon="12.206752"><ele>135.0</ele><time>2026-04-12T11:13:58.566Z</time></trkpt><trkpt lat="42.7036875" lon="12.2066688"><ele>135.0</ele><time>2026-04-12T11:13:59.569Z</time></trkpt><trkpt lat="42.7036773" lon="12.2065796"><ele>135.0</ele><time>2026-04-12T11:14:00.574Z</time></trkpt><trkpt lat="42.7036325" lon="12.206507"><ele>135.0</ele><time>2026-04-12T11:14:01.573Z</time></trkpt><trkpt lat="42.7035686" lon="12.2064709"><ele>135.0</ele><time>2026-04-12T11:14:02.57Z</time></trkpt><trkpt lat="42.7034958" lon="12.2064527"><ele>135.0</ele><time>2026-04-12T11:14:03.57Z</time></trkpt><trkpt lat="42.7034102" lon="12.2064848"><ele>137.2</ele><time>2026-04-12T11:14:04.572Z</time></trkpt><trkpt lat="42.7033315" lon="12.2063861"><ele>139.4</ele><time>2026-04-12T11:14:06.571Z</time></trkpt><trkpt lat="42.7033289" lon="12.2061992"><ele>141.6</ele><time>2026-04-12T11:14:08.56Z</time></trkpt><trkpt lat="42.7033545" lon="12.2060801"><ele>143.8</ele><time>2026-04-12T11:14:09.569Z</time></trkpt><trkpt lat="42.7033837" lon="12.2059547"><ele>146.0</ele><time>2026-04-12T11:14:10.575Z</time></trkpt><trkpt lat="42.7034332" lon="12.205809"><ele>147.75</ele><time>2026-04-12T11:14:11.581Z</time></trkpt><trkpt lat="42.7034807" lon="12.2056591"><ele>149.5</ele><time>2026-04-12T11:14:12.576Z</time></trkpt><trkpt lat="42.7035327" lon="12.2054754"><ele>151.25</ele><time>2026-04-12T11:14:13.565Z</time></trkpt><trkpt lat="42.7035833" lon="12.2052832"><ele>153.0</ele><time>2026-04-12T11:14:14.575Z</time></trkpt><trkpt lat="42.7036351" lon="12.2050856"><ele>153.0</ele><time>2026-04-12T11:14:15.577Z</time></trkpt><trkpt lat="42.703699" lon="12.2048885"><ele>153.0</ele><time>2026-04-12T11:14:16.559Z</time></trkpt><trkpt lat="42.7037584" lon="12.2046835"><ele>153.0</ele><time>2026-04-12T11:14:17.59Z</time></trkpt><trkpt lat="42.7038181" lon="12.2044916"><ele>156.66666666666666</ele><time>2026-04-12T11:14:18.566Z</time></trkpt><trkpt lat="42.7038672" lon="12.2042897"><ele>160.33333333333331</ele><time>2026-04-12T11:14:19.577Z</time></trkpt><trkpt lat="42.703899" lon="12.2040846"><ele>164.0</ele><time>2026-04-12T11:14:20.573Z</time></trkpt><trkpt lat="42.7039188" lon="12.2038824"><ele>167.5</ele><time>2026-04-12T11:14:21.567Z</time></trkpt><trkpt lat="42.703934" lon="12.2036925"><ele>171.0</ele><time>2026-04-12T11:14:22.58Z</time></trkpt><trkpt lat="42.7039456" lon="12.2035178"><ele>174.5</ele><time>2026-04-12T11:14:23.575Z</time></trkpt><trkpt lat="42.7039551" lon="12.2033526"><ele>178.0</ele><time>2026-04-12T11:14:24.571Z</time></trkpt><trkpt lat="42.703967" lon="12.2031948"><ele>179.2</ele><time>2026-04-12T11:14:25.576Z</time></trkpt><trkpt lat="42.703986" lon="12.2030407"><ele>180.4</ele><time>2026-04-12T11:14:26.565Z</time></trkpt><trkpt lat="42.7040092" lon="12.2029003"><ele>181.6</ele><time>2026-04-12T11:14:27.562Z</time></trkpt><trkpt lat="42.7040409" lon="12.2027797"><ele>182.79999999999998</ele><time>2026-04-12T11:14:28.579Z</time></trkpt><trkpt lat="42.7040857" lon="12.2026805"><ele>184.0</ele><time>2026-04-12T11:14:29.56Z</time></trkpt><trkpt lat="42.704142" lon="12.202607"><ele>184.0</ele><time>2026-04-12T11:14:30.568Z</time></trkpt><trkpt lat="42.7042094" lon="12.2025532"><ele>184.0</ele><time>2026-04-12T11:14:31.572Z</time></trkpt><trkpt lat="42.7042874" lon="12.2024973"><ele>184.0</ele><time>2026-04-12T11:14:32.58Z</time></trkpt><trkpt lat="42.7043794" lon="12.2024506"><ele>184.0</ele><time>2026-04-12T11:14:33.585Z</time></trkpt><trkpt lat="42.7044828" lon="12.2024034"><ele>184.0</ele><time>2026-04-12T11:14:34.583Z</time></trkpt><trkpt lat="42.7045854" lon="12.2023438"><ele>186.75</ele><time>2026-04-12T11:14:35.569Z</time></trkpt><trkpt lat="42.7046926" lon="12.2022817"><ele>189.5</ele><time>2026-04-12T11:14:36.589Z</time></trkpt><trkpt lat="42.7048072" lon="12.2022178"><ele>192.25</ele><time>2026-04-12T11:14:37.583Z</time></trkpt><trkpt lat="42.704919" lon="12.2021554"><ele>195.0</ele><time>2026-04-12T11:14:38.578Z</time></trkpt><trkpt lat="42.7050319" lon="12.2020898"><ele>195.0</ele><time>2026-04-12T11:14:39.584Z</time></trkpt><trkpt lat="42.7051466" lon="12.202026"><ele>195.0</ele><time>2026-04-12T11:14:40.58Z</time></trkpt><trkpt lat="42.7052533" lon="12.2019685"><ele>195.0</ele><time>2026-04-12T11:14:41.582Z</time></trkpt><trkpt lat="42.7053492" lon="12.2019152"><ele>195.0</ele><time>2026-04-12T11:14:42.58Z</time></trkpt><trkpt lat="42.7054392" lon="12.2018667"><ele>195.0</ele><time>2026-04-12T11:14:43.589Z</time></trkpt><trkpt lat="42.7055241" lon="12.2018202"><ele>195.66666666666666</ele><time>2026-04-12T11:14:44.585Z</time></trkpt><trkpt lat="42.7056083" lon="12.2017738"><ele>196.33333333333331</ele><time>2026-04-12T11:14:45.578Z</time></trkpt><trkpt lat="42.7056915" lon="12.2017285"><ele>197.0</ele><time>2026-04-12T11:14:46.582Z</time></trkpt><trkpt lat="42.705771" lon="12.2016829"><ele>197.66666666666666</ele><time>2026-04-12T11:14:47.572Z</time></trkpt><trkpt lat="42.7058414" lon="12.2016448"><ele>198.33333333333331</ele><time>2026-04-12T11:14:48.577Z</time></trkpt><trkpt lat="42.7059005" lon="12.2016149"><ele>199.0</ele><time>2026-04-12T11:14:49.581Z</time></trkpt><trkpt lat="42.7059596" lon="12.201583"><ele>198.99999999999997</ele><time>2026-04-12T11:14:50.584Z</time></trkpt><trkpt lat="42.7060247" lon="12.2015512"><ele>199.0</ele><time>2026-04-12T11:14:51.573Z</time></trkpt><trkpt lat="42.7060933" lon="12.2015143"><ele>199.0</ele><time>2026-04-12T11:14:52.582Z</time></trkpt><trkpt lat="42.7061575" lon="12.201478"><ele>199.0</ele><time>2026-04-12T11:14:53.576Z</time></trkpt><trkpt lat="42.7062598" lon="12.2014071"><ele>198.99999999999997</ele><time>2026-04-12T11:14:55.571Z</time></trkpt><trkpt lat="42.7063601" lon="12.201358"><ele>199.0</ele><time>2026-04-12T11:14:57.573Z</time></trkpt><trkpt lat="42.7064946" lon="12.2013527"><ele>199.16666666666666</ele><time>2026-04-12T11:14:59.572Z</time></trkpt><trkpt lat="42.7065785" lon="12.2013536"><ele>199.33333333333331</ele><time>2026-04-12T11:15:00.59Z</time></trkpt><trkpt lat="42.7066696" lon="12.2013544"><ele>199.5</ele><time>2026-04-12T11:15:01.571Z</time></trkpt><trkpt lat="42.706767" lon="12.2013474"><ele>199.66666666666669</ele><time>2026-04-12T11:15:02.58Z</time></trkpt><trkpt lat="42.7068573" lon="12.201322"><ele>199.83333333333334</ele><time>2026-04-12T11:15:03.58Z</time></trkpt><trkpt lat="42.7069298" lon="12.2012911"><ele>200.0</ele><time>2026-04-12T11:15:04.58Z</time></trkpt><trkpt lat="42.706997" lon="12.2012516"><ele>200.4</ele><time>2026-04-12T11:15:05.569Z</time></trkpt><trkpt lat="42.7070912" lon="12.2012178"><ele>200.8</ele><time>2026-04-12T11:15:06.578Z</time></trkpt><trkpt lat="42.7071883" lon="12.2011918"><ele>201.2</ele><time>2026-04-12T11:15:07.594Z</time></trkpt><trkpt lat="42.7073074" lon="12.2011666"><ele>201.6</ele><time>2026-04-12T11:15:08.577Z</time></trkpt><trkpt lat="42.7074163" lon="12.2011468"><ele>202.0</ele><time>2026-04-12T11:15:09.582Z</time></trkpt><trkpt lat="42.7075231" lon="12.2011329"><ele>202.0</ele><time>2026-04-12T11:15:10.566Z</time></trkpt><trkpt lat="42.7076364" lon="12.2011186"><ele>202.0</ele><time>2026-04-12T11:15:11.577Z</time></trkpt><trkpt lat="42.7077504" lon="12.201103"><ele>202.0</ele><time>2026-04-12T11:15:12.585Z</time></trkpt><trkpt lat="42.7078704" lon="12.2010883"><ele>202.0</ele><time>2026-04-12T11:15:13.577Z</time></trkpt><trkpt lat="42.7079927" lon="12.2010726"><ele>203.75</ele><time>2026-04-12T11:15:14.574Z</time></trkpt><trkpt lat="42.7081189" lon="12.2010716"><ele>205.5</ele><time>2026-04-12T11:15:15.58Z</time></trkpt><trkpt lat="42.7082535" lon="12.2010722"><ele>207.25</ele><time>2026-04-12T11:15:16.575Z</time></trkpt><trkpt lat="42.7083892" lon="12.2010757"><ele>209.0</ele><time>2026-04-12T11:15:17.578Z</time></trkpt><trkpt lat="42.7085196" lon="12.2010921"><ele>210.75</ele><time>2026-04-12T11:15:18.574Z</time></trkpt><trkpt lat="42.7086461" lon="12.2011238"><ele>212.5</ele><time>2026-04-12T11:15:19.576Z</time></trkpt><trkpt lat="42.708759" lon="12.2011788"><ele>214.25</ele><time>2026-04-12T11:15:20.575Z</time></trkpt><trkpt lat="42.7088678" lon="12.2012578"><ele>216.0</ele><time>2026-04-12T11:15:21.576Z</time></trkpt><trkpt lat="42.7089793" lon="12.201351"><ele>216.0</ele><time>2026-04-12T11:15:22.585Z</time></trkpt><trkpt lat="42.709094" lon="12.2014474"><ele>216.0</ele><time>2026-04-12T11:15:23.576Z</time></trkpt><trkpt lat="42.7092143" lon="12.2015434"><ele>216.0</ele><time>2026-04-12T11:15:24.574Z</time></trkpt><trkpt lat="42.7093323" lon="12.2016413"><ele>216.0</ele><time>2026-04-12T11:15:25.571Z</time></trkpt><trkpt lat="42.7094496" lon="12.2017376"><ele>218.5</ele><time>2026-04-12T11:15:26.591Z</time></trkpt><trkpt lat="42.7095671" lon="12.2018352"><ele>221.0</ele><time>2026-04-12T11:15:27.58Z</time></trkpt><trkpt lat="42.7096821" lon="12.2019297"><ele>223.5</ele><time>2026-04-12T11:15:28.58Z</time></trkpt><trkpt lat="42.709803" lon="12.2020262"><ele>226.0</ele><time>2026-04-12T11:15:29.591Z</time></trkpt><trkpt lat="42.7099358" lon="12.2021328"><ele>226.0</ele><time>2026-04-12T11:15:30.586Z</time></trkpt><trkpt lat="42.7100676" lon="12.2022454"><ele>226.0</ele><time>2026-04-12T11:15:31.57Z</time></trkpt><trkpt lat="42.7101919" lon="12.2023518"><ele>226.0</ele><time>2026-04-12T11:15:32.569Z</time></trkpt><trkpt lat="42.7103087" lon="12.2024527"><ele>226.0</ele><time>2026-04-12T11:15:33.583Z</time></trkpt><trkpt lat="42.7104183" lon="12.2025517"><ele>230.0</ele><time>2026-04-12T11:15:34.587Z</time></trkpt><trkpt lat="42.7105287" lon="12.2026488"><ele>234.0</ele><time>2026-04-12T11:15:35.58Z</time></trkpt><trkpt lat="42.710636" lon="12.2027415"><ele>238.0</ele><time>2026-04-12T11:15:36.57Z</time></trkpt><trkpt lat="42.7107357" lon="12.2028074"><ele>242.0</ele><time>2026-04-12T11:15:37.585Z</time></trkpt><trkpt lat="42.7108416" lon="12.2028476"><ele>242.0</ele><time>2026-04-12T11:15:38.585Z</time></trkpt><trkpt lat="42.7109515" lon="12.2028866"><ele>242.0</ele><time>2026-04-12T11:15:39.582Z</time></trkpt><trkpt lat="42.7110635" lon="12.2029255"><ele>242.0</ele><time>2026-04-12T11:15:40.584Z</time></trkpt><trkpt lat="42.7111769" lon="12.2029596"><ele>242.0</ele><time>2026-04-12T11:15:41.583Z</time></trkpt><trkpt lat="42.7113024" lon="12.202994"><ele>243.0</ele><time>2026-04-12T11:15:42.588Z</time></trkpt><trkpt lat="42.711439" lon="12.2030329"><ele>244.0</ele><time>2026-04-12T11:15:43.587Z</time></trkpt><trkpt lat="42.7115761" lon="12.2030732"><ele>245.0</ele><time>2026-04-12T11:15:44.579Z</time></trkpt><trkpt lat="42.7117073" lon="12.2031129"><ele>246.0</ele><time>2026-04-12T11:15:45.575Z</time></trkpt><trkpt lat="42.7118394" lon="12.2031527"><ele>248.75</ele><time>2026-04-12T11:15:46.58Z</time></trkpt><trkpt lat="42.7119661" lon="12.2031906"><ele>251.5</ele><time>2026-04-12T11:15:47.581Z</time></trkpt><trkpt lat="42.7120922" lon="12.2032263"><ele>254.25</ele><time>2026-04-12T11:15:48.58Z</time></trkpt><trkpt lat="42.7122179" lon="12.2032629"><ele>257.0</ele><time>2026-04-12T11:15:49.576Z</time></trkpt><trkpt lat="42.7123457" lon="12.2033007"><ele>257.0</ele><time>2026-04-12T11:15:50.579Z</time></trkpt><trkpt lat="42.7124732" lon="12.2033391"><ele>257.0</ele><time>2026-04-12T11:15:51.579Z</time></trkpt><trkpt lat="42.7125997" lon="12.203378"><ele>257.0</ele><time>2026-04-12T11:15:52.577Z</time></trkpt><trkpt lat="42.7127231" lon="12.2034166"><ele>257.0</ele><time>2026-04-12T11:15:53.594Z</time></trkpt><trkpt lat="42.7128429" lon="12.2034512"><ele>259.75</ele><time>2026-04-12T11:15:54.578Z</time></trkpt><trkpt lat="42.7129574" lon="12.2034896"><ele>262.5</ele><time>2026-04-12T11:15:55.583Z</time></trkpt><trkpt lat="42.7130682" lon="12.203544"><ele>265.25</ele><time>2026-04-12T11:15:56.584Z</time></trkpt><trkpt lat="42.7131708" lon="12.2036137"><ele>268.0</ele><time>2026-04-12T11:15:57.58Z</time></trkpt><trkpt lat="42.7132671" lon="12.2036999"><ele>268.0</ele><time>2026-04-12T11:15:58.58Z</time></trkpt><trkpt lat="42.713358" lon="12.2038036"><ele>268.0</ele><time>2026-04-12T11:15:59.578Z</time></trkpt><trkpt lat="42.7134432" lon="12.2039229"><ele>268.0</ele><time>2026-04-12T11:16:00.575Z</time></trkpt><trkpt lat="42.713527" lon="12.2040501"><ele>268.0</ele><time>2026-04-12T11:16:01.578Z</time></trkpt><trkpt lat="42.7136121" lon="12.2041844"><ele>269.2</ele><time>2026-04-12T11:16:02.58Z</time></trkpt><trkpt lat="42.7136931" lon="12.2043174"><ele>270.4</ele><time>2026-04-12T11:16:03.582Z</time></trkpt><trkpt lat="42.7137669" lon="12.2044373"><ele>271.59999999999997</ele><time>2026-04-12T11:16:04.583Z</time></trkpt><trkpt lat="42.7138352" lon="12.2045465"><ele>272.8</ele><time>2026-04-12T11:16:05.585Z</time></trkpt><trkpt lat="42.7139018" lon="12.2046489"><ele>274.0</ele><time>2026-04-12T11:16:06.578Z</time></trkpt><trkpt lat="42.713962" lon="12.2047412"><ele>275.16666666666663</ele><time>2026-04-12T11:16:07.565Z</time></trkpt><trkpt lat="42.7140198" lon="12.2048315"><ele>276.3333333333333</ele><time>2026-04-12T11:16:08.581Z</time></trkpt><trkpt lat="42.7140689" lon="12.2049122"><ele>277.5</ele><time>2026-04-12T11:16:09.576Z</time></trkpt><trkpt lat="42.7141131" lon="12.2049935"><ele>278.6666666666667</ele><time>2026-04-12T11:16:10.574Z</time></trkpt><trkpt lat="42.7141475" lon="12.20508"><ele>279.83333333333337</ele><time>2026-04-12T11:16:11.571Z</time></trkpt><trkpt lat="42.7141684" lon="12.2051735"><ele>281.0</ele><time>2026-04-12T11:16:12.573Z</time></trkpt><trkpt lat="42.714175" lon="12.2052741"><ele>281.0</ele><time>2026-04-12T11:16:13.583Z</time></trkpt><trkpt lat="42.7141755" lon="12.2053809"><ele>281.0</ele><time>2026-04-12T11:16:14.581Z</time></trkpt><trkpt lat="42.7141781" lon="12.205489"><ele>281.0</ele><time>2026-04-12T11:16:15.573Z</time></trkpt><trkpt lat="42.7141815" lon="12.205597"><ele>281.0</ele><time>2026-04-12T11:16:16.575Z</time></trkpt><trkpt lat="42.7141893" lon="12.2057009"><ele>281.0</ele><time>2026-04-12T11:16:17.58Z</time></trkpt><trkpt lat="42.7142114" lon="12.2058447"><ele>281.0</ele><time>2026-04-12T11:16:19.564Z</time></trkpt><trkpt lat="42.7143009" lon="12.2059573"><ele>281.33333333333337</ele><time>2026-04-12T11:16:24.578Z</time></trkpt><trkpt lat="42.7143904" lon="12.2059665"><ele>281.6666666666667</ele><time>2026-04-12T11:16:26.572Z</time></trkpt><trkpt lat="42.7144819" lon="12.2059603"><ele>282.0</ele><time>2026-04-12T11:16:28.575Z</time></trkpt><trkpt lat="42.7145584" lon="12.2059424"><ele>282.3333333333333</ele><time>2026-04-12T11:16:31.577Z</time></trkpt><trkpt lat="42.7145183" lon="12.2058723"><ele>282.66666666666663</ele><time>2026-04-12T11:16:36.58Z</time></trkpt><trkpt lat="42.7144331" lon="12.2059371"><ele>283.0</ele><time>2026-04-12T11:16:39.561Z</time></trkpt><trkpt lat="42.7143645" lon="12.2059296"><ele>283.0</ele><time>2026-04-12T11:16:41.566Z</time></trkpt><trkpt lat="42.7142845" lon="12.2059573"><ele>283.0</ele><time>2026-04-12T11:16:47.574Z</time></trkpt><trkpt lat="42.7143044" lon="12.2060565"><ele>283.0</ele><time>2026-04-12T11:16:49.566Z</time></trkpt><trkpt lat="42.7144029" lon="12.2060692"><ele>283.0</ele><time>2026-04-12T11:16:52.567Z</time></trkpt><trkpt lat="42.714339" lon="12.2060277"><ele>283.0</ele><time>2026-04-12T11:22:15.607Z</time></trkpt><trkpt lat="42.7143901" lon="12.2059662"><ele>283.0</ele><time>2026-04-12T11:23:03.596Z</time></trkpt><trkpt lat="42.714461" lon="12.2059456"><ele>283.42857142857144</ele><time>2026-04-12T11:23:21.775Z</time></trkpt><trkpt lat="42.714524" lon="12.2059051"><ele>283.8571428571429</ele><time>2026-04-12T11:23:27.61Z</time></trkpt><trkpt lat="42.7145722" lon="12.2058353"><ele>284.2857142857143</ele><time>2026-04-12T11:23:34.565Z</time></trkpt><trkpt lat="42.7146214" lon="12.2057773"><ele>284.7142857142857</ele><time>2026-04-12T11:23:42.611Z</time></trkpt><trkpt lat="42.7146859" lon="12.2057632"><ele>285.1428571428571</ele><time>2026-04-12T11:23:50.857Z</time></trkpt><trkpt lat="42.7147102" lon="12.205845"><ele>285.57142857142856</ele><time>2026-04-12T11:24:22.6Z</time></trkpt><trkpt lat="42.7147759" lon="12.205842"><ele>286.0</ele><time>2026-04-12T11:24:55.612Z</time></trkpt><trkpt lat="42.714745" lon="12.2059187"><ele>285.99999999999994</ele><time>2026-04-12T11:30:34.595Z</time></trkpt><trkpt lat="42.7146823" lon="12.205906"><ele>286.0</ele><time>2026-04-12T11:31:00.638Z</time></trkpt><trkpt lat="42.7147475" lon="12.2058978"><ele>286.0</ele><time>2026-04-12T11:31:43.595Z</time></trkpt><trkpt lat="42.7147878" lon="12.2058165"><ele>286.0</ele><time>2026-04-12T11:37:56.585Z</time></trkpt><trkpt lat="42.7147795" lon="12.205902"><ele>286.0</ele><time>2026-04-12T11:40:07.573Z</time></trkpt><trkpt lat="42.7148504" lon="12.205913"><ele>285.99999999999994</ele><time>2026-04-12T12:34:12.626Z</time></trkpt><trkpt lat="42.7147744" lon="12.2058807"><ele>286.0</ele><time>2026-04-12T12:35:25.664Z</time></trkpt><trkpt lat="42.7148309" lon="12.2059216"><ele>286.0</ele><time>2026-04-12T12:40:53.65Z</time></trkpt><trkpt lat="42.7147704" lon="12.2058972"><ele>286.0</ele><time>2026-04-12T12:43:02.673Z</time></trkpt><trkpt lat="42.7147962" lon="12.2060245"><ele>286.0</ele><time>2026-04-12T13:04:46.197Z</time></trkpt><trkpt lat="42.7147953" lon="12.2059307"><ele>286.0</ele><time>2026-04-12T13:04:48.478Z</time></trkpt><trkpt lat="42.7147598" lon="12.2058174"><ele>286.0</ele><time>2026-04-12T13:05:17.093Z</time></trkpt><trkpt lat="42.7146919" lon="12.2057616"><ele>286.0</ele><time>2026-04-12T13:05:20.114Z</time></trkpt><trkpt lat="42.7146279" lon="12.2057833"><ele>285.99999999999994</ele><time>2026-04-12T13:05:22.993Z</time></trkpt><trkpt lat="42.7145547" lon="12.2057973"><ele>286.0</ele><time>2026-04-12T13:05:27.093Z</time></trkpt><trkpt lat="42.7145233" lon="12.2058949"><ele>286.0</ele><time>2026-04-12T13:05:31.318Z</time></trkpt><trkpt lat="42.7144488" lon="12.2059145"><ele>286.0</ele><time>2026-04-12T13:05:37.074Z</time></trkpt><trkpt lat="42.7143809" lon="12.205937"><ele>286.0</ele><time>2026-04-12T13:05:43.059Z</time></trkpt><trkpt lat="42.7143157" lon="12.2059286"><ele>285.99999999999994</ele><time>2026-04-12T13:05:48.095Z</time></trkpt><trkpt lat="42.7143227" lon="12.2060242"><ele>286.0</ele><time>2026-04-12T13:05:56.108Z</time></trkpt><trkpt lat="42.714385" lon="12.2060665"><ele>286.0</ele><time>2026-04-12T13:06:00.013Z</time></trkpt><trkpt lat="42.7144565" lon="12.2060503"><ele>286.0</ele><time>2026-04-12T13:06:22.144Z</time></trkpt><trkpt lat="42.7143213" lon="12.2060577"><ele>286.0</ele><time>2026-04-12T13:12:14.031Z</time></trkpt><trkpt lat="42.7142942" lon="12.2059731"><ele>286.0</ele><time>2026-04-12T13:12:20.028Z</time></trkpt><trkpt lat="42.7142508" lon="12.2058931"><ele>286.0</ele><time>2026-04-12T13:13:35.032Z</time></trkpt><trkpt lat="42.714222" lon="12.2057851"><ele>286.0</ele><time>2026-04-12T13:13:37.033Z</time></trkpt><trkpt lat="42.7142068" lon="12.2056618"><ele>285.16666666666663</ele><time>2026-04-12T13:13:39.03Z</time></trkpt><trkpt lat="42.7142026" lon="12.2054999"><ele>284.3333333333333</ele><time>2026-04-12T13:13:41.032Z</time></trkpt><trkpt lat="42.7142017" lon="12.2054113"><ele>283.5</ele><time>2026-04-12T13:13:42.031Z</time></trkpt><trkpt lat="42.7142003" lon="12.2053228"><ele>282.6666666666667</ele><time>2026-04-12T13:13:43.031Z</time></trkpt><trkpt lat="42.714194" lon="12.2052295"><ele>281.83333333333337</ele><time>2026-04-12T13:13:44.036Z</time></trkpt><trkpt lat="42.7141781" lon="12.2051361"><ele>281.0</ele><time>2026-04-12T13:13:45.037Z</time></trkpt><trkpt lat="42.7141518" lon="12.2050502"><ele>281.0</ele><time>2026-04-12T13:13:46.026Z</time></trkpt><trkpt lat="42.7141143" lon="12.2049659"><ele>281.0</ele><time>2026-04-12T13:13:47.036Z</time></trkpt><trkpt lat="42.7140654" lon="12.2048788"><ele>281.0</ele><time>2026-04-12T13:13:48.033Z</time></trkpt><trkpt lat="42.714016" lon="12.2047979"><ele>281.0</ele><time>2026-04-12T13:13:49.027Z</time></trkpt><trkpt lat="42.7139608" lon="12.2047153"><ele>281.0</ele><time>2026-04-12T13:13:50.034Z</time></trkpt><trkpt lat="42.7138858" lon="12.2046038"><ele>281.0</ele><time>2026-04-12T13:13:51.026Z</time></trkpt><trkpt lat="42.7138105" lon="12.2044853"><ele>279.6</ele><time>2026-04-12T13:13:52.027Z</time></trkpt><trkpt lat="42.7137435" lon="12.2043755"><ele>278.20000000000005</ele><time>2026-04-12T13:13:53.033Z</time></trkpt><trkpt lat="42.7136865" lon="12.2042738"><ele>276.79999999999995</ele><time>2026-04-12T13:13:54.027Z</time></trkpt><trkpt lat="42.7136335" lon="12.2041828"><ele>275.4</ele><time>2026-04-12T13:13:55.025Z</time></trkpt><trkpt lat="42.7135804" lon="12.2040943"><ele>274.0</ele><time>2026-04-12T13:13:56.027Z</time></trkpt><trkpt lat="42.7135272" lon="12.2040045"><ele>273.0</ele><time>2026-04-12T13:13:57.033Z</time></trkpt><trkpt lat="42.7134694" lon="12.2039153"><ele>272.0</ele><time>2026-04-12T13:13:58.026Z</time></trkpt><trkpt lat="42.7134107" lon="12.2038314"><ele>271.0</ele><time>2026-04-12T13:13:59.03Z</time></trkpt><trkpt lat="42.7133456" lon="12.2037503"><ele>270.0</ele><time>2026-04-12T13:14:00.033Z</time></trkpt><trkpt lat="42.7132739" lon="12.2036727"><ele>269.0</ele><time>2026-04-12T13:14:01.031Z</time></trkpt><trkpt lat="42.7131945" lon="12.2036027"><ele>268.0</ele><time>2026-04-12T13:14:02.033Z</time></trkpt><trkpt lat="42.713111" lon="12.2035427"><ele>268.0</ele><time>2026-04-12T13:14:03.024Z</time></trkpt><trkpt lat="42.71302" lon="12.2034924"><ele>268.0</ele><time>2026-04-12T13:14:04.041Z</time></trkpt><trkpt lat="42.7129257" lon="12.2034533"><ele>268.0</ele><time>2026-04-12T13:14:05.029Z</time></trkpt><trkpt lat="42.7128216" lon="12.2034156"><ele>268.0</ele><time>2026-04-12T13:14:06.036Z</time></trkpt><trkpt lat="42.7127065" lon="12.2033741"><ele>268.0</ele><time>2026-04-12T13:14:07.033Z</time></trkpt><trkpt lat="42.7125796" lon="12.2033367"><ele>265.25</ele><time>2026-04-12T13:14:08.035Z</time></trkpt><trkpt lat="42.7124533" lon="12.2032995"><ele>262.5</ele><time>2026-04-12T13:14:09.032Z</time></trkpt><trkpt lat="42.71233" lon="12.2032619"><ele>259.75</ele><time>2026-04-12T13:14:10.029Z</time></trkpt><trkpt lat="42.7122083" lon="12.203225"><ele>257.0</ele><time>2026-04-12T13:14:11.033Z</time></trkpt><trkpt lat="42.7120853" lon="12.2031836"><ele>255.5</ele><time>2026-04-12T13:14:12.032Z</time></trkpt><trkpt lat="42.7119617" lon="12.2031452"><ele>254.0</ele><time>2026-04-12T13:14:13.037Z</time></trkpt><trkpt lat="42.7118323" lon="12.2031086"><ele>252.5</ele><time>2026-04-12T13:14:14.031Z</time></trkpt><trkpt lat="42.7116894" lon="12.2030679"><ele>251.0</ele><time>2026-04-12T13:14:15.033Z</time></trkpt><trkpt lat="42.7115491" lon="12.2030289"><ele>249.75</ele><time>2026-04-12T13:14:16.033Z</time></trkpt><trkpt lat="42.7114105" lon="12.2029896"><ele>248.5</ele><time>2026-04-12T13:14:17.031Z</time></trkpt><trkpt lat="42.7112839" lon="12.202955"><ele>247.25</ele><time>2026-04-12T13:14:18.031Z</time></trkpt><trkpt lat="42.7111634" lon="12.2029215"><ele>246.0</ele><time>2026-04-12T13:14:19.032Z</time></trkpt><trkpt lat="42.7110509" lon="12.2028904"><ele>245.20000000000002</ele><time>2026-04-12T13:14:20.032Z</time></trkpt><trkpt lat="42.7109444" lon="12.20286"><ele>244.40000000000003</ele><time>2026-04-12T13:14:21.033Z</time></trkpt><trkpt lat="42.710846" lon="12.2028273"><ele>243.6</ele><time>2026-04-12T13:14:22.032Z</time></trkpt><trkpt lat="42.7107478" lon="12.2027934"><ele>242.8</ele><time>2026-04-12T13:14:23.032Z</time></trkpt><trkpt lat="42.7106516" lon="12.2027357"><ele>242.0</ele><time>2026-04-12T13:14:24.032Z</time></trkpt><trkpt lat="42.710556" lon="12.202662"><ele>242.0</ele><time>2026-04-12T13:14:25.035Z</time></trkpt><trkpt lat="42.7104596" lon="12.2025863"><ele>242.0</ele><time>2026-04-12T13:14:26.06Z</time></trkpt><trkpt lat="42.7103681" lon="12.2025076"><ele>242.0</ele><time>2026-04-12T13:14:27.03Z</time></trkpt><trkpt lat="42.7102796" lon="12.202431"><ele>242.0</ele><time>2026-04-12T13:14:28.032Z</time></trkpt><trkpt lat="42.7101934" lon="12.2023597"><ele>242.0</ele><time>2026-04-12T13:14:29.029Z</time></trkpt><trkpt lat="42.7100996" lon="12.2022796"><ele>238.0</ele><time>2026-04-12T13:14:30.035Z</time></trkpt><trkpt lat="42.709995" lon="12.2021914"><ele>234.0</ele><time>2026-04-12T13:14:31.032Z</time></trkpt><trkpt lat="42.7098838" lon="12.2021003"><ele>230.0</ele><time>2026-04-12T13:14:32.032Z</time></trkpt><trkpt lat="42.709778" lon="12.2020119"><ele>226.0</ele><time>2026-04-12T13:14:33.052Z</time></trkpt><trkpt lat="42.7096762" lon="12.2019256"><ele>226.0</ele><time>2026-04-12T13:14:34.031Z</time></trkpt><trkpt lat="42.709571" lon="12.2018372"><ele>226.0</ele><time>2026-04-12T13:14:35.03Z</time></trkpt><trkpt lat="42.7094688" lon="12.2017517"><ele>226.0</ele><time>2026-04-12T13:14:36.032Z</time></trkpt><trkpt lat="42.7093695" lon="12.2016703"><ele>226.0</ele><time>2026-04-12T13:14:37.034Z</time></trkpt><trkpt lat="42.7092727" lon="12.2015921"><ele>225.0</ele><time>2026-04-12T13:14:38.034Z</time></trkpt><trkpt lat="42.7091792" lon="12.2015154"><ele>224.00000000000003</ele><time>2026-04-12T13:14:39.034Z</time></trkpt><trkpt lat="42.7090865" lon="12.2014358"><ele>223.00000000000003</ele><time>2026-04-12T13:14:40.033Z</time></trkpt><trkpt lat="42.7089919" lon="12.2013533"><ele>222.0</ele><time>2026-04-12T13:14:41.028Z</time></trkpt><trkpt lat="42.7088947" lon="12.2012693"><ele>221.0</ele><time>2026-04-12T13:14:42.028Z</time></trkpt><trkpt lat="42.7087993" lon="12.2011868"><ele>219.75</ele><time>2026-04-12T13:14:43.028Z</time></trkpt><trkpt lat="42.7086982" lon="12.2011294"><ele>218.5</ele><time>2026-04-12T13:14:44.029Z</time></trkpt><trkpt lat="42.7085834" lon="12.2010905"><ele>217.25</ele><time>2026-04-12T13:14:45.029Z</time></trkpt><trkpt lat="42.7084653" lon="12.2010741"><ele>216.0</ele><time>2026-04-12T13:14:46.034Z</time></trkpt><trkpt lat="42.708343" lon="12.2010672"><ele>214.25</ele><time>2026-04-12T13:14:47.038Z</time></trkpt><trkpt lat="42.7082159" lon="12.2010639"><ele>212.5</ele><time>2026-04-12T13:14:48.041Z</time></trkpt><trkpt lat="42.708088" lon="12.2010637"><ele>210.75</ele><time>2026-04-12T13:14:49.033Z</time></trkpt><trkpt lat="42.7079632" lon="12.2010697"><ele>209.0</ele><time>2026-04-12T13:14:50.034Z</time></trkpt><trkpt lat="42.7078491" lon="12.2010784"><ele>207.6</ele><time>2026-04-12T13:14:51.033Z</time></trkpt><trkpt lat="42.7077395" lon="12.2010907"><ele>206.2</ele><time>2026-04-12T13:14:52.038Z</time></trkpt><trkpt lat="42.7076367" lon="12.2011051"><ele>204.79999999999998</ele><time>2026-04-12T13:14:53.03Z</time></trkpt><trkpt lat="42.7075307" lon="12.2011226"><ele>203.39999999999998</ele><time>2026-04-12T13:14:54.033Z</time></trkpt><trkpt lat="42.7074203" lon="12.2011459"><ele>202.0</ele><time>2026-04-12T13:14:55.032Z</time></trkpt><trkpt lat="42.7073139" lon="12.2011684"><ele>202.0</ele><time>2026-04-12T13:14:56.028Z</time></trkpt><trkpt lat="42.7072112" lon="12.201191"><ele>202.0</ele><time>2026-04-12T13:14:57.045Z</time></trkpt><trkpt lat="42.7071112" lon="12.201215"><ele>202.0</ele><time>2026-04-12T13:14:58.034Z</time></trkpt><trkpt lat="42.7070167" lon="12.2012424"><ele>202.0</ele><time>2026-04-12T13:14:59.03Z</time></trkpt><trkpt lat="42.7069097" lon="12.20128"><ele>202.0</ele><time>2026-04-12T13:15:00.033Z</time></trkpt><trkpt lat="42.7067989" lon="12.2013196"><ele>201.6</ele><time>2026-04-12T13:15:01.025Z</time></trkpt><trkpt lat="42.7066823" lon="12.2013625"><ele>201.2</ele><time>2026-04-12T13:15:02.031Z</time></trkpt><trkpt lat="42.7065824" lon="12.2013776"><ele>200.8</ele><time>2026-04-12T13:15:03.03Z</time></trkpt><trkpt lat="42.7065068" lon="12.2013727"><ele>200.4</ele><time>2026-04-12T13:15:04.033Z</time></trkpt><trkpt lat="42.7064217" lon="12.2013659"><ele>200.0</ele><time>2026-04-12T13:15:05.029Z</time></trkpt><trkpt lat="42.7063475" lon="12.2013818"><ele>200.0</ele><time>2026-04-12T13:15:06.033Z</time></trkpt><trkpt lat="42.706269" lon="12.2014058"><ele>200.0</ele><time>2026-04-12T13:15:07.04Z</time></trkpt><trkpt lat="42.7061939" lon="12.2014501"><ele>200.0</ele><time>2026-04-12T13:15:08.03Z</time></trkpt><trkpt lat="42.7061076" lon="12.2015028"><ele>200.0</ele><time>2026-04-12T13:15:09.028Z</time></trkpt><trkpt lat="42.7059971" lon="12.2015685"><ele>200.0</ele><time>2026-04-12T13:15:10.029Z</time></trkpt><trkpt lat="42.7058712" lon="12.2016296"><ele>199.75</ele><time>2026-04-12T13:15:11.031Z</time></trkpt><trkpt lat="42.7057474" lon="12.2016972"><ele>199.5</ele><time>2026-04-12T13:15:12.029Z</time></trkpt><trkpt lat="42.7056398" lon="12.201757"><ele>199.25</ele><time>2026-04-12T13:15:13.032Z</time></trkpt><trkpt lat="42.7055377" lon="12.2018114"><ele>199.0</ele><time>2026-04-12T13:15:14.035Z</time></trkpt><trkpt lat="42.7054137" lon="12.2018797"><ele>199.0</ele><time>2026-04-12T13:15:15.031Z</time></trkpt><trkpt lat="42.7052943" lon="12.2019474"><ele>199.0</ele><time>2026-04-12T13:15:16.037Z</time></trkpt><trkpt lat="42.7051887" lon="12.2020059"><ele>199.0</ele><time>2026-04-12T13:15:17.037Z</time></trkpt><trkpt lat="42.7050899" lon="12.2020592"><ele>199.0</ele><time>2026-04-12T13:15:18.029Z</time></trkpt><trkpt lat="42.7049905" lon="12.2021142"><ele>198.2</ele><time>2026-04-12T13:15:19.037Z</time></trkpt><trkpt lat="42.7048959" lon="12.202167"><ele>197.39999999999998</ele><time>2026-04-12T13:15:20.032Z</time></trkpt><trkpt lat="42.7048075" lon="12.2022167"><ele>196.6</ele><time>2026-04-12T13:15:21.037Z</time></trkpt><trkpt lat="42.7047256" lon="12.2022652"><ele>195.8</ele><time>2026-04-12T13:15:22.029Z</time></trkpt><trkpt lat="42.7046395" lon="12.2023128"><ele>195.0</ele><time>2026-04-12T13:15:23.037Z</time></trkpt><trkpt lat="42.7045575" lon="12.2023541"><ele>194.16666666666666</ele><time>2026-04-12T13:15:24.031Z</time></trkpt><trkpt lat="42.7044709" lon="12.2024007"><ele>193.33333333333334</ele><time>2026-04-12T13:15:25.033Z</time></trkpt><trkpt lat="42.7043865" lon="12.2024467"><ele>192.5</ele><time>2026-04-12T13:15:26.03Z</time></trkpt><trkpt lat="42.7043023" lon="12.2024926"><ele>191.66666666666669</ele><time>2026-04-12T13:15:27.025Z</time></trkpt><trkpt lat="42.7042206" lon="12.2025375"><ele>190.83333333333334</ele><time>2026-04-12T13:15:28.033Z</time></trkpt><trkpt lat="42.7041445" lon="12.2025927"><ele>190.0</ele><time>2026-04-12T13:15:29.025Z</time></trkpt><trkpt lat="42.7040824" lon="12.2026695"><ele>188.8</ele><time>2026-04-12T13:15:30.027Z</time></trkpt><trkpt lat="42.7040365" lon="12.2027668"><ele>187.6</ele><time>2026-04-12T13:15:31.034Z</time></trkpt><trkpt lat="42.7040027" lon="12.2028858"><ele>186.39999999999998</ele><time>2026-04-12T13:15:32.031Z</time></trkpt><trkpt lat="42.7039694" lon="12.203009"><ele>185.2</ele><time>2026-04-12T13:15:33.052Z</time></trkpt><trkpt lat="42.7039529" lon="12.203153"><ele>184.0</ele><time>2026-04-12T13:15:34.032Z</time></trkpt><trkpt lat="42.7039412" lon="12.2032944"><ele>182.79999999999998</ele><time>2026-04-12T13:15:35.032Z</time></trkpt><trkpt lat="42.7039311" lon="12.2034379"><ele>181.6</ele><time>2026-04-12T13:15:36.027Z</time></trkpt><trkpt lat="42.7039208" lon="12.203581"><ele>180.4</ele><time>2026-04-12T13:15:37.034Z</time></trkpt><trkpt lat="42.7039126" lon="12.2037318"><ele>179.2</ele><time>2026-04-12T13:15:38.03Z</time></trkpt><trkpt lat="42.703902" lon="12.2038827"><ele>178.0</ele><time>2026-04-12T13:15:39.032Z</time></trkpt><trkpt lat="42.7038872" lon="12.2040342"><ele>174.5</ele><time>2026-04-12T13:15:40.033Z</time></trkpt><trkpt lat="42.7038678" lon="12.2041842"><ele>171.0</ele><time>2026-04-12T13:15:41.032Z</time></trkpt><trkpt lat="42.7038392" lon="12.2043377"><ele>167.5</ele><time>2026-04-12T13:15:42.029Z</time></trkpt><trkpt lat="42.7038" lon="12.2044923"><ele>164.0</ele><time>2026-04-12T13:15:43.032Z</time></trkpt><trkpt lat="42.7037559" lon="12.2046366"><ele>164.0</ele><time>2026-04-12T13:15:44.029Z</time></trkpt><trkpt lat="42.7037136" lon="12.2047708"><ele>164.0</ele><time>2026-04-12T13:15:45.036Z</time></trkpt><trkpt lat="42.7036755" lon="12.2049011"><ele>164.0</ele><time>2026-04-12T13:15:46.032Z</time></trkpt><trkpt lat="42.7036373" lon="12.205031"><ele>164.0</ele><time>2026-04-12T13:15:47.032Z</time></trkpt><trkpt lat="42.7035988" lon="12.2051679"><ele>164.0</ele><time>2026-04-12T13:15:48.028Z</time></trkpt><trkpt lat="42.7035589" lon="12.2053092"><ele>161.79999999999998</ele><time>2026-04-12T13:15:49.029Z</time></trkpt><trkpt lat="42.7035215" lon="12.2054442"><ele>159.6</ele><time>2026-04-12T13:15:50.033Z</time></trkpt><trkpt lat="42.7034865" lon="12.2055693"><ele>157.4</ele><time>2026-04-12T13:15:51.035Z</time></trkpt><trkpt lat="42.7034532" lon="12.2056884"><ele>155.2</ele><time>2026-04-12T13:15:52.031Z</time></trkpt><trkpt lat="42.7034207" lon="12.2058044"><ele>153.0</ele><time>2026-04-12T13:15:53.031Z</time></trkpt><trkpt lat="42.7033898" lon="12.2059135"><ele>151.6</ele><time>2026-04-12T13:15:54.032Z</time></trkpt><trkpt lat="42.7033595" lon="12.2060322"><ele>150.20000000000002</ele><time>2026-04-12T13:15:55.031Z</time></trkpt><trkpt lat="42.7033385" lon="12.2061588"><ele>148.8</ele><time>2026-04-12T13:15:56.039Z</time></trkpt><trkpt lat="42.7033137" lon="12.2062707"><ele>147.4</ele><time>2026-04-12T13:15:57.035Z</time></trkpt><trkpt lat="42.7033158" lon="12.2063703"><ele>146.0</ele><time>2026-04-12T13:15:58.039Z</time></trkpt><trkpt lat="42.7033846" lon="12.2064867"><ele>143.25</ele><time>2026-04-12T13:16:00.033Z</time></trkpt><trkpt lat="42.7034754" lon="12.2064998"><ele>140.5</ele><time>2026-04-12T13:16:02.031Z</time></trkpt><trkpt lat="42.7035983" lon="12.206519"><ele>137.75</ele><time>2026-04-12T13:16:04.037Z</time></trkpt><trkpt lat="42.7036505" lon="12.2066633"><ele>135.0</ele><time>2026-04-12T13:16:06.027Z</time></trkpt><trkpt lat="42.7035877" lon="12.2068233"><ele>135.0</ele><time>2026-04-12T13:16:08.028Z</time></trkpt><trkpt lat="42.7035253" lon="12.2068992"><ele>135.0</ele><time>2026-04-12T13:16:09.031Z</time></trkpt><trkpt lat="42.7034482" lon="12.2069578"><ele>135.0</ele><time>2026-04-12T13:16:10.024Z</time></trkpt><trkpt lat="42.7033633" lon="12.2070093"><ele>135.0</ele><time>2026-04-12T13:16:11.034Z</time></trkpt><trkpt lat="42.7032778" lon="12.2070585"><ele>135.0</ele><time>2026-04-12T13:16:12.033Z</time></trkpt><trkpt lat="42.7031937" lon="12.2071012"><ele>135.0</ele><time>2026-04-12T13:16:13.028Z</time></trkpt><trkpt lat="42.7031066" lon="12.2071292"><ele>135.0</ele><time>2026-04-12T13:16:14.029Z</time></trkpt><trkpt lat="42.7030159" lon="12.2071421"><ele>135.0</ele><time>2026-04-12T13:16:15.029Z</time></trkpt><trkpt lat="42.7029244" lon="12.2071475"><ele>135.0</ele><time>2026-04-12T13:16:16.029Z</time></trkpt><trkpt lat="42.7028323" lon="12.2071501"><ele>135.0</ele><time>2026-04-12T13:16:17.032Z</time></trkpt><trkpt lat="42.7027267" lon="12.2071348"><ele>135.0</ele><time>2026-04-12T13:16:18.033Z</time></trkpt><trkpt lat="42.7026126" lon="12.20712"><ele>130.25</ele><time>2026-04-12T13:16:19.026Z</time></trkpt><trkpt lat="42.7024993" lon="12.2071008"><ele>125.5</ele><time>2026-04-12T13:16:20.034Z</time></trkpt><trkpt lat="42.702386" lon="12.2070808"><ele>120.75</ele><time>2026-04-12T13:16:21.031Z</time></trkpt><trkpt lat="42.7022719" lon="12.2070625"><ele>116.0</ele><time>2026-04-12T13:16:22.041Z</time></trkpt><trkpt lat="42.7021605" lon="12.2070436"><ele>116.0</ele><time>2026-04-12T13:16:23.03Z</time></trkpt><trkpt lat="42.7020509" lon="12.2070407"><ele>116.0</ele><time>2026-04-12T13:16:24.032Z</time></trkpt><trkpt lat="42.7019405" lon="12.2070493"><ele>116.0</ele><time>2026-04-12T13:16:25.034Z</time></trkpt><trkpt lat="42.7018296" lon="12.2070625"><ele>116.0</ele><time>2026-04-12T13:16:26.031Z</time></trkpt><trkpt lat="42.7017169" lon="12.207073"><ele>116.0</ele><time>2026-04-12T13:16:27.051Z</time></trkpt><trkpt lat="42.7016052" lon="12.2070753"><ele>114.66666666666666</ele><time>2026-04-12T13:16:28.031Z</time></trkpt><trkpt lat="42.7014918" lon="12.2070795"><ele>113.33333333333333</ele><time>2026-04-12T13:16:29.031Z</time></trkpt><trkpt lat="42.7013916" lon="12.2070858"><ele>112.0</ele><time>2026-04-12T13:16:30.029Z</time></trkpt><trkpt lat="42.7013086" lon="12.2070811"><ele>110.66666666666666</ele><time>2026-04-12T13:16:31.032Z</time></trkpt><trkpt lat="42.7012373" lon="12.2070582"><ele>109.33333333333333</ele><time>2026-04-12T13:16:32.03Z</time></trkpt><trkpt lat="42.7011774" lon="12.2070116"><ele>108.0</ele><time>2026-04-12T13:16:33.03Z</time></trkpt><trkpt lat="42.7011283" lon="12.2069564"><ele>107.4</ele><time>2026-04-12T13:16:34.025Z</time></trkpt><trkpt lat="42.7010532" lon="12.2068598"><ele>106.80000000000001</ele><time>2026-04-12T13:16:36.029Z</time></trkpt><trkpt lat="42.7009891" lon="12.206789"><ele>106.2</ele><time>2026-04-12T13:16:39.042Z</time></trkpt><trkpt lat="42.7009168" lon="12.2068184"><ele>105.6</ele><time>2026-04-12T13:17:27.035Z</time></trkpt><trkpt lat="42.7008888" lon="12.2069462"><ele>105.0</ele><time>2026-04-12T13:17:30.034Z</time></trkpt><trkpt lat="42.7008417" lon="12.2070995"><ele>105.0</ele><time>2026-04-12T13:17:32.03Z</time></trkpt><trkpt lat="42.7008152" lon="12.2071947"><ele>105.0</ele><time>2026-04-12T13:17:33.037Z</time></trkpt><trkpt lat="42.7007901" lon="12.2072975"><ele>105.0</ele><time>2026-04-12T13:17:34.037Z</time></trkpt><trkpt lat="42.70077" lon="12.2074026"><ele>105.0</ele><time>2026-04-12T13:17:35.033Z</time></trkpt><trkpt lat="42.700755" lon="12.2075154"><ele>105.0</ele><time>2026-04-12T13:17:36.035Z</time></trkpt><trkpt lat="42.700743" lon="12.2076384"><ele>105.0</ele><time>2026-04-12T13:17:37.029Z</time></trkpt><trkpt lat="42.7007338" lon="12.2077752"><ele>105.25</ele><time>2026-04-12T13:17:38.035Z</time></trkpt><trkpt lat="42.7007258" lon="12.207925"><ele>105.5</ele><time>2026-04-12T13:17:39.033Z</time></trkpt><trkpt lat="42.7007189" lon="12.2080797"><ele>105.75</ele><time>2026-04-12T13:17:40.032Z</time></trkpt><trkpt lat="42.700713" lon="12.2082403"><ele>106.0</ele><time>2026-04-12T13:17:41.026Z</time></trkpt><trkpt lat="42.7007083" lon="12.2084055"><ele>106.0</ele><time>2026-04-12T13:17:42.03Z</time></trkpt><trkpt lat="42.7007027" lon="12.2085781"><ele>106.0</ele><time>2026-04-12T13:17:43.031Z</time></trkpt><trkpt lat="42.700697" lon="12.2087628"><ele>106.0</ele><time>2026-04-12T13:17:44.029Z</time></trkpt><trkpt lat="42.7006975" lon="12.2089638"><ele>106.0</ele><time>2026-04-12T13:17:45.03Z</time></trkpt><trkpt lat="42.7007195" lon="12.2091776"><ele>106.33333333333334</ele><time>2026-04-12T13:17:46.032Z</time></trkpt><trkpt lat="42.7007679" lon="12.2093968"><ele>106.66666666666666</ele><time>2026-04-12T13:17:47.03Z</time></trkpt><trkpt lat="42.700828" lon="12.2096147"><ele>107.0</ele><time>2026-04-12T13:17:48.035Z</time></trkpt><trkpt lat="42.7008902" lon="12.2098372"><ele>107.0</ele><time>2026-04-12T13:17:49.029Z</time></trkpt><trkpt lat="42.7009526" lon="12.2100655"><ele>107.0</ele><time>2026-04-12T13:17:50.033Z</time></trkpt><trkpt lat="42.7010171" lon="12.2102982"><ele>107.0</ele><time>2026-04-12T13:17:51.032Z</time></trkpt><trkpt lat="42.7010835" lon="12.2105353"><ele>107.33333333333333</ele><time>2026-04-12T13:17:52.032Z</time></trkpt><trkpt lat="42.7011476" lon="12.2107716"><ele>107.66666666666666</ele><time>2026-04-12T13:17:53.025Z</time></trkpt><trkpt lat="42.7012012" lon="12.2109952"><ele>108.0</ele><time>2026-04-12T13:17:54.035Z</time></trkpt><trkpt lat="42.7012457" lon="12.2112154"><ele>108.0</ele><time>2026-04-12T13:17:55.036Z</time></trkpt><trkpt lat="42.7012701" lon="12.2114474"><ele>108.0</ele><time>2026-04-12T13:17:56.043Z</time></trkpt><trkpt lat="42.701291" lon="12.2116746"><ele>108.0</ele><time>2026-04-12T13:17:57.035Z</time></trkpt><trkpt lat="42.7013126" lon="12.2118937"><ele>109.33333333333334</ele><time>2026-04-12T13:17:58.039Z</time></trkpt><trkpt lat="42.7013328" lon="12.2121116"><ele>110.66666666666667</ele><time>2026-04-12T13:17:59.039Z</time></trkpt><trkpt lat="42.7013551" lon="12.212331"><ele>112.0</ele><time>2026-04-12T13:18:00.033Z</time></trkpt><trkpt lat="42.7013783" lon="12.2125519"><ele>112.0</ele><time>2026-04-12T13:18:01.034Z</time></trkpt><trkpt lat="42.7014024" lon="12.2127733"><ele>112.0</ele><time>2026-04-12T13:18:02.033Z</time></trkpt><trkpt lat="42.7014235" lon="12.2129938"><ele>112.0</ele><time>2026-04-12T13:18:03.032Z</time></trkpt><trkpt lat="42.7014457" lon="12.2132147"><ele>111.66666666666667</ele><time>2026-04-12T13:18:04.036Z</time></trkpt><trkpt lat="42.7014671" lon="12.2134397"><ele>111.33333333333334</ele><time>2026-04-12T13:18:05.033Z</time></trkpt><trkpt lat="42.7014907" lon="12.2136662"><ele>111.0</ele><time>2026-04-12T13:18:06.037Z</time></trkpt><trkpt lat="42.7015125" lon="12.2138964"><ele>111.0</ele><time>2026-04-12T13:18:07.034Z</time></trkpt><trkpt lat="42.7015341" lon="12.2141271"><ele>111.0</ele><time>2026-04-12T13:18:08.034Z</time></trkpt><trkpt lat="42.701555" lon="12.2143581"><ele>111.0</ele><time>2026-04-12T13:18:09.029Z</time></trkpt><trkpt lat="42.7015763" lon="12.2145892"><ele>111.0</ele><time>2026-04-12T13:18:10.029Z</time></trkpt><trkpt lat="42.7015979" lon="12.2148214"><ele>111.0</ele><time>2026-04-12T13:18:11.032Z</time></trkpt><trkpt lat="42.7016193" lon="12.2150536"><ele>111.0</ele><time>2026-04-12T13:18:12.035Z</time></trkpt><trkpt lat="42.7016404" lon="12.2152876"><ele>111.0</ele><time>2026-04-12T13:18:13.029Z</time></trkpt><trkpt lat="42.7016605" lon="12.215523"><ele>111.0</ele><time>2026-04-12T13:18:14.054Z</time></trkpt><trkpt lat="42.7016833" lon="12.215762"><ele>111.0</ele><time>2026-04-12T13:18:15.045Z</time></trkpt><trkpt lat="42.7017062" lon="12.2160057"><ele>110.33333333333334</ele><time>2026-04-12T13:18:16.042Z</time></trkpt><trkpt lat="42.7017293" lon="12.2162529"><ele>109.66666666666667</ele><time>2026-04-12T13:18:17.036Z</time></trkpt><trkpt lat="42.7017524" lon="12.2165013"><ele>109.0</ele><time>2026-04-12T13:18:18.037Z</time></trkpt><trkpt lat="42.7017767" lon="12.2167511"><ele>108.66666666666667</ele><time>2026-04-12T13:18:19.039Z</time></trkpt><trkpt lat="42.7018016" lon="12.2170025"><ele>108.33333333333334</ele><time>2026-04-12T13:18:20.036Z</time></trkpt><trkpt lat="42.7018253" lon="12.217256"><ele>108.0</ele><time>2026-04-12T13:18:21.041Z</time></trkpt><trkpt lat="42.7018476" lon="12.2175105"><ele>108.0</ele><time>2026-04-12T13:18:22.042Z</time></trkpt><trkpt lat="42.7018697" lon="12.217766"><ele>108.0</ele><time>2026-04-12T13:18:23.033Z</time></trkpt><trkpt lat="42.7018917" lon="12.2180223"><ele>108.0</ele><time>2026-04-12T13:18:24.038Z</time></trkpt><trkpt lat="42.701915" lon="12.2182782"><ele>109.33333333333334</ele><time>2026-04-12T13:18:25.041Z</time></trkpt><trkpt lat="42.7019388" lon="12.2185334"><ele>110.66666666666667</ele><time>2026-04-12T13:18:26.036Z</time></trkpt><trkpt lat="42.7019627" lon="12.2187889"><ele>112.0</ele><time>2026-04-12T13:18:27.037Z</time></trkpt><trkpt lat="42.7019877" lon="12.2190453"><ele>112.66666666666667</ele><time>2026-04-12T13:18:28.042Z</time></trkpt><trkpt lat="42.7020107" lon="12.2193043"><ele>113.33333333333334</ele><time>2026-04-12T13:18:29.045Z</time></trkpt><trkpt lat="42.7020334" lon="12.2195648"><ele>114.0</ele><time>2026-04-12T13:18:30.044Z</time></trkpt><trkpt lat="42.7020555" lon="12.2198246"><ele>114.0</ele><time>2026-04-12T13:18:31.039Z</time></trkpt><trkpt lat="42.7020767" lon="12.2200845"><ele>114.0</ele><time>2026-04-12T13:18:32.047Z</time></trkpt><trkpt lat="42.7020982" lon="12.2203317"><ele>114.0</ele><time>2026-04-12T13:18:33.049Z</time></trkpt><trkpt lat="42.7021219" lon="12.2205892"><ele>114.33333333333334</ele><time>2026-04-12T13:18:34.044Z</time></trkpt><trkpt lat="42.7021455" lon="12.2208477"><ele>114.66666666666667</ele><time>2026-04-12T13:18:35.04Z</time></trkpt><trkpt lat="42.7021676" lon="12.2211001"><ele>115.0</ele><time>2026-04-12T13:18:36.045Z</time></trkpt><trkpt lat="42.7021875" lon="12.2213429"><ele>114.33333333333334</ele><time>2026-04-12T13:18:37.038Z</time></trkpt><trkpt lat="42.7022133" lon="12.2215775"><ele>113.66666666666666</ele><time>2026-04-12T13:18:38.042Z</time></trkpt><trkpt lat="42.7022601" lon="12.2218078"><ele>113.0</ele><time>2026-04-12T13:18:39.05Z</time></trkpt><trkpt lat="42.7023334" lon="12.2220305"><ele>113.0</ele><time>2026-04-12T13:18:40.046Z</time></trkpt><trkpt lat="42.702421" lon="12.2222469"><ele>113.0</ele><time>2026-04-12T13:18:41.046Z</time></trkpt><trkpt lat="42.7025005" lon="12.222453"><ele>113.0</ele><time>2026-04-12T13:18:42.038Z</time></trkpt><trkpt lat="42.7025787" lon="12.2226265"><ele>112.5</ele><time>2026-04-12T13:18:43.039Z</time></trkpt><trkpt lat="42.702659" lon="12.2228022"><ele>112.0</ele><time>2026-04-12T13:18:44.044Z</time></trkpt><trkpt lat="42.7027214" lon="12.2229696"><ele>111.5</ele><time>2026-04-12T13:18:45.041Z</time></trkpt><trkpt lat="42.7027759" lon="12.223139"><ele>111.0</ele><time>2026-04-12T13:18:46.047Z</time></trkpt><trkpt lat="42.7028006" lon="12.2232997"><ele>110.75</ele><time>2026-04-12T13:18:47.038Z</time></trkpt><trkpt lat="42.702785" lon="12.2234618"><ele>110.5</ele><time>2026-04-12T13:18:48.038Z</time></trkpt><trkpt lat="42.7027588" lon="12.2236241"><ele>110.25</ele><time>2026-04-12T13:18:49.041Z</time></trkpt><trkpt lat="42.702721" lon="12.2237961"><ele>110.0</ele><time>2026-04-12T13:18:50.041Z</time></trkpt><trkpt lat="42.7026902" lon="12.2239714"><ele>110.4</ele><time>2026-04-12T13:18:51.038Z</time></trkpt><trkpt lat="42.7026736" lon="12.2241442"><ele>110.8</ele><time>2026-04-12T13:18:52.052Z</time></trkpt><trkpt lat="42.7026775" lon="12.2243016"><ele>111.19999999999999</ele><time>2026-04-12T13:18:53.046Z</time></trkpt><trkpt lat="42.7026906" lon="12.2244338"><ele>111.6</ele><time>2026-04-12T13:18:54.034Z</time></trkpt><trkpt lat="42.7027082" lon="12.2245351"><ele>112.0</ele><time>2026-04-12T13:18:55.037Z</time></trkpt><trkpt lat="42.7027249" lon="12.2246781"><ele>112.0</ele><time>2026-04-12T13:18:57.056Z</time></trkpt><trkpt lat="42.7026902" lon="12.2247913"><ele>111.99999999999999</ele><time>2026-04-12T13:18:59.044Z</time></trkpt><trkpt lat="42.7026489" lon="12.2249621"><ele>111.99999999999999</ele><time>2026-04-12T13:19:01.036Z</time></trkpt><trkpt lat="42.7026644" lon="12.2250664"><ele>112.0</ele><time>2026-04-12T13:19:02.039Z</time></trkpt><trkpt lat="42.7027034" lon="12.2251727"><ele>112.0</ele><time>2026-04-12T13:19:03.044Z</time></trkpt><trkpt lat="42.7027461" lon="12.2252827"><ele>112.6</ele><time>2026-04-12T13:19:04.042Z</time></trkpt><trkpt lat="42.702801" lon="12.225398"><ele>113.19999999999999</ele><time>2026-04-12T13:19:05.052Z</time></trkpt><trkpt lat="42.7028577" lon="12.2255143"><ele>113.8</ele><time>2026-04-12T13:19:06.036Z</time></trkpt><trkpt lat="42.7029184" lon="12.225632"><ele>114.4</ele><time>2026-04-12T13:19:07.038Z</time></trkpt><trkpt lat="42.7029852" lon="12.2257495"><ele>115.0</ele><time>2026-04-12T13:19:08.04Z</time></trkpt><trkpt lat="42.7030553" lon="12.2258644"><ele>115.0</ele><time>2026-04-12T13:19:09.034Z</time></trkpt><trkpt lat="42.7031188" lon="12.2259714"><ele>115.0</ele><time>2026-04-12T13:19:10.037Z</time></trkpt><trkpt lat="42.7031658" lon="12.2260873"><ele>115.0</ele><time>2026-04-12T13:19:11.041Z</time></trkpt><trkpt lat="42.7031854" lon="12.2262137"><ele>115.0</ele><time>2026-04-12T13:19:12.033Z</time></trkpt><trkpt lat="42.7031798" lon="12.2263423"><ele>115.0</ele><time>2026-04-12T13:19:13.034Z</time></trkpt><trkpt lat="42.7031464" lon="12.2264597"><ele>114.4</ele><time>2026-04-12T13:19:14.034Z</time></trkpt><trkpt lat="42.7030973" lon="12.2265674"><ele>113.8</ele><time>2026-04-12T13:19:15.036Z</time></trkpt><trkpt lat="42.7030477" lon="12.2266694"><ele>113.19999999999999</ele><time>2026-04-12T13:19:16.033Z</time></trkpt><trkpt lat="42.7030133" lon="12.2267827"><ele>112.6</ele><time>2026-04-12T13:19:17.04Z</time></trkpt><trkpt lat="42.7030004" lon="12.226915"><ele>112.0</ele><time>2026-04-12T13:19:18.042Z</time></trkpt><trkpt lat="42.7029966" lon="12.2270508"><ele>112.0</ele><time>2026-04-12T13:19:19.039Z</time></trkpt><trkpt lat="42.7030286" lon="12.2272104"><ele>112.0</ele><time>2026-04-12T13:19:20.037Z</time></trkpt><trkpt lat="42.7030653" lon="12.2273694"><ele>112.0</ele><time>2026-04-12T13:19:21.035Z</time></trkpt><trkpt lat="42.7031121" lon="12.2275062"><ele>112.0</ele><time>2026-04-12T13:19:22.041Z</time></trkpt><trkpt lat="42.7031621" lon="12.2276359"><ele>111.50000000000001</ele><time>2026-04-12T13:19:23.038Z</time></trkpt><trkpt lat="42.7032116" lon="12.227761"><ele>111.0</ele><time>2026-04-12T13:19:24.045Z</time></trkpt><trkpt lat="42.7032463" lon="12.227879"><ele>110.5</ele><time>2026-04-12T13:19:25.045Z</time></trkpt><trkpt lat="42.7032607" lon="12.2279901"><ele>110.0</ele><time>2026-04-12T13:19:26.062Z</time></trkpt><trkpt lat="42.7032462" lon="12.2280835"><ele>109.50000000000001</ele><time>2026-04-12T13:19:27.037Z</time></trkpt><trkpt lat="42.7032028" lon="12.2281516"><ele>109.0</ele><time>2026-04-12T13:19:28.036Z</time></trkpt><trkpt lat="42.7031376" lon="12.2281907"><ele>107.4</ele><time>2026-04-12T13:19:29.042Z</time></trkpt><trkpt lat="42.7030528" lon="12.2282017"><ele>105.80000000000001</ele><time>2026-04-12T13:19:30.036Z</time></trkpt><trkpt lat="42.7029616" lon="12.2281826"><ele>104.19999999999999</ele><time>2026-04-12T13:19:31.037Z</time></trkpt><trkpt lat="42.7028542" lon="12.2281549"><ele>102.6</ele><time>2026-04-12T13:19:32.04Z</time></trkpt><trkpt lat="42.7027405" lon="12.2281271"><ele>101.0</ele><time>2026-04-12T13:19:33.036Z</time></trkpt><trkpt lat="42.7026376" lon="12.2281013"><ele>100.19999999999999</ele><time>2026-04-12T13:19:34.055Z</time></trkpt><trkpt lat="42.7025459" lon="12.228077"><ele>99.39999999999999</ele><time>2026-04-12T13:19:35.031Z</time></trkpt><trkpt lat="42.7024601" lon="12.2280548"><ele>98.6</ele><time>2026-04-12T13:19:36.037Z</time></trkpt><trkpt lat="42.7023705" lon="12.2280345"><ele>97.8</ele><time>2026-04-12T13:19:37.035Z</time></trkpt><trkpt lat="42.7022735" lon="12.2280094"><ele>97.0</ele><time>2026-04-12T13:19:38.036Z</time></trkpt><trkpt lat="42.7021721" lon="12.227995"><ele>97.0</ele><time>2026-04-12T13:19:39.038Z</time></trkpt><trkpt lat="42.7020694" lon="12.2280082"><ele>97.0</ele><time>2026-04-12T13:19:40.034Z</time></trkpt><trkpt lat="42.7019691" lon="12.2280498"><ele>97.0</ele><time>2026-04-12T13:19:41.033Z</time></trkpt><trkpt lat="42.7018787" lon="12.2281034"><ele>97.0</ele><time>2026-04-12T13:19:42.032Z</time></trkpt><trkpt lat="42.7017916" lon="12.2281592"><ele>97.0</ele><time>2026-04-12T13:19:43.033Z</time></trkpt><trkpt lat="42.7017043" lon="12.2282167"><ele>98.6</ele><time>2026-04-12T13:19:44.036Z</time></trkpt><trkpt lat="42.7016113" lon="12.2282697"><ele>100.19999999999999</ele><time>2026-04-12T13:19:45.043Z</time></trkpt><trkpt lat="42.7015117" lon="12.2283279"><ele>101.8</ele><time>2026-04-12T13:19:46.043Z</time></trkpt><trkpt lat="42.7013994" lon="12.2283784"><ele>103.4</ele><time>2026-04-12T13:19:47.033Z</time></trkpt><trkpt lat="42.7012866" lon="12.2284387"><ele>105.0</ele><time>2026-04-12T13:19:48.035Z</time></trkpt><trkpt lat="42.7011744" lon="12.2285085"><ele>106.0</ele><time>2026-04-12T13:19:49.042Z</time></trkpt><trkpt lat="42.701059" lon="12.2285727"><ele>107.0</ele><time>2026-04-12T13:19:50.041Z</time></trkpt><trkpt lat="42.7009347" lon="12.2286298"><ele>108.0</ele><time>2026-04-12T13:19:51.044Z</time></trkpt><trkpt lat="42.7008104" lon="12.2286808"><ele>109.0</ele><time>2026-04-12T13:19:52.045Z</time></trkpt><trkpt lat="42.700687" lon="12.2287245"><ele>109.0</ele><time>2026-04-12T13:19:53.042Z</time></trkpt><trkpt lat="42.7005629" lon="12.2287624"><ele>109.0</ele><time>2026-04-12T13:19:54.04Z</time></trkpt><trkpt lat="42.700422" lon="12.2288038"><ele>109.0</ele><time>2026-04-12T13:19:55.035Z</time></trkpt><trkpt lat="42.7002853" lon="12.2288418"><ele>109.0</ele><time>2026-04-12T13:19:56.042Z</time></trkpt><trkpt lat="42.7001546" lon="12.2288855"><ele>109.5</ele><time>2026-04-12T13:19:57.037Z</time></trkpt><trkpt lat="42.7000188" lon="12.2289341"><ele>110.0</ele><time>2026-04-12T13:19:58.039Z</time></trkpt><trkpt lat="42.6998875" lon="12.2289866"><ele>110.5</ele><time>2026-04-12T13:19:59.034Z</time></trkpt><trkpt lat="42.6997604" lon="12.2290365"><ele>111.0</ele><time>2026-04-12T13:20:00.037Z</time></trkpt><trkpt lat="42.6996471" lon="12.2290804"><ele>111.6</ele><time>2026-04-12T13:20:01.041Z</time></trkpt><trkpt lat="42.6995536" lon="12.2290843"><ele>112.19999999999999</ele><time>2026-04-12T13:20:02.049Z</time></trkpt><trkpt lat="42.6994721" lon="12.2290431"><ele>112.80000000000001</ele><time>2026-04-12T13:20:03.049Z</time></trkpt><trkpt lat="42.6994031" lon="12.2289527"><ele>113.4</ele><time>2026-04-12T13:20:04.051Z</time></trkpt><trkpt lat="42.6993438" lon="12.228831"><ele>114.0</ele><time>2026-04-12T13:20:05.039Z</time></trkpt><trkpt lat="42.6992759" lon="12.2287025"><ele>116.80000000000001</ele><time>2026-04-12T13:20:06.038Z</time></trkpt><trkpt lat="42.6992059" lon="12.2285615"><ele>119.60000000000001</ele><time>2026-04-12T13:20:07.041Z</time></trkpt><trkpt lat="42.6991439" lon="12.2284186"><ele>122.4</ele><time>2026-04-12T13:20:08.045Z</time></trkpt><trkpt lat="42.6990941" lon="12.2282905"><ele>125.2</ele><time>2026-04-12T13:20:09.041Z</time></trkpt><trkpt lat="42.6990569" lon="12.2281759"><ele>128.0</ele><time>2026-04-12T13:20:10.037Z</time></trkpt><trkpt lat="42.6990266" lon="12.2280711"><ele>127.99999999999999</ele><time>2026-04-12T13:20:11.042Z</time></trkpt><trkpt lat="42.6990026" lon="12.2279705"><ele>128.0</ele><time>2026-04-12T13:20:12.045Z</time></trkpt><trkpt lat="42.6989847" lon="12.2278838"><ele>128.0</ele><time>2026-04-12T13:20:13.035Z</time></trkpt><trkpt lat="42.6989552" lon="12.2277829"><ele>128.0</ele><time>2026-04-12T13:20:15.036Z</time></trkpt><trkpt lat="42.6988966" lon="12.2277403"><ele>127.99999999999999</ele><time>2026-04-12T13:20:22.046Z</time></trkpt><trkpt lat="42.6988467" lon="12.2278521"><ele>128.0</ele><time>2026-04-12T13:20:24.048Z</time></trkpt><trkpt lat="42.6988403" lon="12.2279722"><ele>128.0</ele><time>2026-04-12T13:20:25.043Z</time></trkpt><trkpt lat="42.6988535" lon="12.2281258"><ele>128.0</ele><time>2026-04-12T13:20:26.037Z</time></trkpt><trkpt lat="42.6988806" lon="12.2283087"><ele>128.0</ele><time>2026-04-12T13:20:27.046Z</time></trkpt><trkpt lat="42.6989095" lon="12.2285114"><ele>128.0</ele><time>2026-04-12T13:20:28.038Z</time></trkpt><trkpt lat="42.6989308" lon="12.2287152"><ele>128.25</ele><time>2026-04-12T13:20:29.036Z</time></trkpt><trkpt lat="42.6989373" lon="12.2289122"><ele>128.5</ele><time>2026-04-12T13:20:30.034Z</time></trkpt><trkpt lat="42.6989309" lon="12.2291064"><ele>128.75</ele><time>2026-04-12T13:20:31.047Z</time></trkpt><trkpt lat="42.698918" lon="12.2292958"><ele>129.0</ele><time>2026-04-12T13:20:32.035Z</time></trkpt><trkpt lat="42.6989093" lon="12.2294799"><ele>130.0</ele><time>2026-04-12T13:20:33.036Z</time></trkpt><trkpt lat="42.6989175" lon="12.2296612"><ele>131.0</ele><time>2026-04-12T13:20:34.044Z</time></trkpt><trkpt lat="42.6989511" lon="12.2298342"><ele>132.0</ele><time>2026-04-12T13:20:35.039Z</time></trkpt><trkpt lat="42.6990032" lon="12.2299942"><ele>133.0</ele><time>2026-04-12T13:20:36.05Z</time></trkpt><trkpt lat="42.6990616" lon="12.2301532"><ele>134.0</ele><time>2026-04-12T13:20:37.036Z</time></trkpt><trkpt lat="42.69911" lon="12.230319"><ele>135.0</ele><time>2026-04-12T13:20:38.037Z</time></trkpt><trkpt lat="42.6991428" lon="12.2304905"><ele>136.0</ele><time>2026-04-12T13:20:39.046Z</time></trkpt><trkpt lat="42.6991648" lon="12.2306632"><ele>137.0</ele><time>2026-04-12T13:20:40.042Z</time></trkpt><trkpt lat="42.6991823" lon="12.2308294"><ele>138.75</ele><time>2026-04-12T13:20:41.046Z</time></trkpt><trkpt lat="42.6991967" lon="12.230989"><ele>140.5</ele><time>2026-04-12T13:20:42.038Z</time></trkpt><trkpt lat="42.6992079" lon="12.2311476"><ele>142.25</ele><time>2026-04-12T13:20:43.041Z</time></trkpt><trkpt lat="42.6992184" lon="12.231306"><ele>144.0</ele><time>2026-04-12T13:20:44.029Z</time></trkpt><trkpt lat="42.6992248" lon="12.2314652"><ele>144.0</ele><time>2026-04-12T13:20:45.036Z</time></trkpt><trkpt lat="42.6992217" lon="12.2316246"><ele>144.0</ele><time>2026-04-12T13:20:46.035Z</time></trkpt><trkpt lat="42.6991972" lon="12.2317804"><ele>144.0</ele><time>2026-04-12T13:20:47.033Z</time></trkpt><trkpt lat="42.6991479" lon="12.2319266"><ele>144.0</ele><time>2026-04-12T13:20:48.036Z</time></trkpt><trkpt lat="42.6990852" lon="12.2320654"><ele>144.0</ele><time>2026-04-12T13:20:49.038Z</time></trkpt><trkpt lat="42.6990158" lon="12.2322042"><ele>144.0</ele><time>2026-04-12T13:20:50.038Z</time></trkpt><trkpt lat="42.6989417" lon="12.2323519"><ele>144.0</ele><time>2026-04-12T13:20:51.035Z</time></trkpt><trkpt lat="42.6988607" lon="12.2325144"><ele>144.0</ele><time>2026-04-12T13:20:52.048Z</time></trkpt><trkpt lat="42.6987733" lon="12.2326978"><ele>143.33333333333334</ele><time>2026-04-12T13:20:53.04Z</time></trkpt><trkpt lat="42.6986763" lon="12.2328937"><ele>142.66666666666669</ele><time>2026-04-12T13:20:54.033Z</time></trkpt><trkpt lat="42.6985738" lon="12.233079"><ele>142.0</ele><time>2026-04-12T13:20:55.037Z</time></trkpt><trkpt lat="42.6984705" lon="12.2332428"><ele>145.33333333333334</ele><time>2026-04-12T13:20:56.042Z</time></trkpt><trkpt lat="42.698365" lon="12.233396"><ele>148.66666666666666</ele><time>2026-04-12T13:20:57.034Z</time></trkpt><trkpt lat="42.6982699" lon="12.2335544"><ele>152.0</ele><time>2026-04-12T13:20:58.029Z</time></trkpt><trkpt lat="42.6981992" lon="12.2337365"><ele>152.0</ele><time>2026-04-12T13:20:59.039Z</time></trkpt><trkpt lat="42.6981539" lon="12.2339459"><ele>152.0</ele><time>2026-04-12T13:21:00.037Z</time></trkpt><trkpt lat="42.6981215" lon="12.2341767"><ele>152.0</ele><time>2026-04-12T13:21:01.037Z</time></trkpt><trkpt lat="42.6980883" lon="12.2344289"><ele>149.0</ele><time>2026-04-12T13:21:02.035Z</time></trkpt><trkpt lat="42.6980512" lon="12.2347043"><ele>146.0</ele><time>2026-04-12T13:21:03.037Z</time></trkpt><trkpt lat="42.698007" lon="12.235"><ele>143.0</ele><time>2026-04-12T13:21:04.034Z</time></trkpt><trkpt lat="42.6979609" lon="12.2353134"><ele>139.5</ele><time>2026-04-12T13:21:05.041Z</time></trkpt><trkpt lat="42.697921" lon="12.2356354"><ele>136.0</ele><time>2026-04-12T13:21:06.041Z</time></trkpt><trkpt lat="42.6978871" lon="12.2359614"><ele>136.0</ele><time>2026-04-12T13:21:07.035Z</time></trkpt><trkpt lat="42.6978602" lon="12.2362923"><ele>136.0</ele><time>2026-04-12T13:21:08.036Z</time></trkpt><trkpt lat="42.6978519" lon="12.2366286"><ele>136.0</ele><time>2026-04-12T13:21:09.035Z</time></trkpt><trkpt lat="42.6978656" lon="12.2369693"><ele>136.0</ele><time>2026-04-12T13:21:10.05Z</time></trkpt><trkpt lat="42.6978876" lon="12.2373052"><ele>136.0</ele><time>2026-04-12T13:21:11.033Z</time></trkpt><trkpt lat="42.6978945" lon="12.2376225"><ele>136.0</ele><time>2026-04-12T13:21:12.035Z</time></trkpt><trkpt lat="42.6978811" lon="12.2379211"><ele>136.33333333333334</ele><time>2026-04-12T13:21:13.037Z</time></trkpt><trkpt lat="42.697861" lon="12.2381998"><ele>136.66666666666666</ele><time>2026-04-12T13:21:14.044Z</time></trkpt><trkpt lat="42.6978414" lon="12.2384599"><ele>137.0</ele><time>2026-04-12T13:21:15.036Z</time></trkpt><trkpt lat="42.6978302" lon="12.2387013"><ele>137.0</ele><time>2026-04-12T13:21:16.054Z</time></trkpt><trkpt lat="42.6978405" lon="12.2389246"><ele>137.0</ele><time>2026-04-12T13:21:17.041Z</time></trkpt><trkpt lat="42.6978746" lon="12.2391271"><ele>137.0</ele><time>2026-04-12T13:21:18.037Z</time></trkpt><trkpt lat="42.6979269" lon="12.239314"><ele>136.5</ele><time>2026-04-12T13:21:19.038Z</time></trkpt><trkpt lat="42.6979941" lon="12.2394937"><ele>136.0</ele><time>2026-04-12T13:21:20.038Z</time></trkpt><trkpt lat="42.6980652" lon="12.2396554"><ele>135.5</ele><time>2026-04-12T13:21:21.034Z</time></trkpt><trkpt lat="42.6981333" lon="12.2398031"><ele>135.0</ele><time>2026-04-12T13:21:22.044Z</time></trkpt><trkpt lat="42.6981939" lon="12.2399281"><ele>135.0</ele><time>2026-04-12T13:21:23.038Z</time></trkpt><trkpt lat="42.6982612" lon="12.2400669"><ele>135.0</ele><time>2026-04-12T13:21:24.04Z</time></trkpt><trkpt lat="42.6983303" lon="12.2402135"><ele>135.0</ele><time>2026-04-12T13:21:25.041Z</time></trkpt><trkpt lat="42.6983989" lon="12.2403614"><ele>135.0</ele><time>2026-04-12T13:21:26.051Z</time></trkpt><trkpt lat="42.6984719" lon="12.2405141"><ele>135.0</ele><time>2026-04-12T13:21:27.046Z</time></trkpt><trkpt lat="42.6985434" lon="12.2406659"><ele>135.0</ele><time>2026-04-12T13:21:28.04Z</time></trkpt><trkpt lat="42.6986167" lon="12.2408214"><ele>135.0</ele><time>2026-04-12T13:21:29.044Z</time></trkpt><trkpt lat="42.6986913" lon="12.24098"><ele>135.0</ele><time>2026-04-12T13:21:30.032Z</time></trkpt><trkpt lat="42.6987618" lon="12.2411421"><ele>136.0</ele><time>2026-04-12T13:21:31.038Z</time></trkpt><trkpt lat="42.6988126" lon="12.2413192"><ele>137.0</ele><time>2026-04-12T13:21:32.042Z</time></trkpt><trkpt lat="42.6988275" lon="12.2415091"><ele>138.0</ele><time>2026-04-12T13:21:33.043Z</time></trkpt><trkpt lat="42.6987996" lon="12.2417024"><ele>139.0</ele><time>2026-04-12T13:21:34.035Z</time></trkpt><trkpt lat="42.6987459" lon="12.241892"><ele>141.0</ele><time>2026-04-12T13:21:35.044Z</time></trkpt><trkpt lat="42.698687" lon="12.2420808"><ele>143.0</ele><time>2026-04-12T13:21:36.039Z</time></trkpt><trkpt lat="42.6986261" lon="12.2422709"><ele>145.0</ele><time>2026-04-12T13:21:37.056Z</time></trkpt><trkpt lat="42.6985634" lon="12.2424667"><ele>145.0</ele><time>2026-04-12T13:21:38.037Z</time></trkpt><trkpt lat="42.6984987" lon="12.2426735"><ele>145.0</ele><time>2026-04-12T13:21:39.036Z</time></trkpt><trkpt lat="42.6984316" lon="12.2428866"><ele>145.0</ele><time>2026-04-12T13:21:40.041Z</time></trkpt><trkpt lat="42.6983605" lon="12.2431031"><ele>146.33333333333334</ele><time>2026-04-12T13:21:41.037Z</time></trkpt><trkpt lat="42.6982889" lon="12.2433191"><ele>147.66666666666666</ele><time>2026-04-12T13:21:42.039Z</time></trkpt><trkpt lat="42.6982217" lon="12.2435272"><ele>149.0</ele><time>2026-04-12T13:21:43.045Z</time></trkpt><trkpt lat="42.6981582" lon="12.2437268"><ele>149.0</ele><time>2026-04-12T13:21:44.042Z</time></trkpt><trkpt lat="42.6980944" lon="12.2439288"><ele>149.0</ele><time>2026-04-12T13:21:45.045Z</time></trkpt><trkpt lat="42.6980344" lon="12.2441476"><ele>149.0</ele><time>2026-04-12T13:21:46.039Z</time></trkpt><trkpt lat="42.6979853" lon="12.2443892"><ele>149.33333333333331</ele><time>2026-04-12T13:21:47.04Z</time></trkpt><trkpt lat="42.6979513" lon="12.2446516"><ele>149.66666666666666</ele><time>2026-04-12T13:21:48.034Z</time></trkpt><trkpt lat="42.6979354" lon="12.244928"><ele>150.0</ele><time>2026-04-12T13:21:49.046Z</time></trkpt><trkpt lat="42.6979412" lon="12.2452121"><ele>149.33333333333334</ele><time>2026-04-12T13:21:50.035Z</time></trkpt><trkpt lat="42.6979736" lon="12.245499"><ele>148.66666666666669</ele><time>2026-04-12T13:21:51.036Z</time></trkpt><trkpt lat="42.698026" lon="12.2457862"><ele>148.0</ele><time>2026-04-12T13:21:52.038Z</time></trkpt><trkpt lat="42.6980856" lon="12.2460681"><ele>147.33333333333334</ele><time>2026-04-12T13:21:53.04Z</time></trkpt><trkpt lat="42.6981398" lon="12.2463348"><ele>146.66666666666666</ele><time>2026-04-12T13:21:54.034Z</time></trkpt><trkpt lat="42.6981894" lon="12.2465868"><ele>146.0</ele><time>2026-04-12T13:21:55.035Z</time></trkpt><trkpt lat="42.6982346" lon="12.2468251"><ele>147.33333333333331</ele><time>2026-04-12T13:21:56.035Z</time></trkpt><trkpt lat="42.698278" lon="12.2470464"><ele>148.66666666666666</ele><time>2026-04-12T13:21:57.04Z</time></trkpt><trkpt lat="42.6983366" lon="12.2472432"><ele>150.0</ele><time>2026-04-12T13:21:58.033Z</time></trkpt><trkpt lat="42.6984347" lon="12.2474004"><ele>150.33333333333334</ele><time>2026-04-12T13:21:59.031Z</time></trkpt><trkpt lat="42.6985375" lon="12.2475325"><ele>150.66666666666669</ele><time>2026-04-12T13:22:00.032Z</time></trkpt><trkpt lat="42.698698" lon="12.2475234"><ele>151.0</ele><time>2026-04-12T13:22:01.034Z</time></trkpt><trkpt lat="42.6988327" lon="12.2474369"><ele>152.66666666666669</ele><time>2026-04-12T13:22:02.034Z</time></trkpt><trkpt lat="42.6989775" lon="12.2473235"><ele>154.33333333333334</ele><time>2026-04-12T13:22:03.035Z</time></trkpt><trkpt lat="42.6991318" lon="12.2472215"><ele>156.0</ele><time>2026-04-12T13:22:04.036Z</time></trkpt><trkpt lat="42.6992666" lon="12.2471719"><ele>156.5</ele><time>2026-04-12T13:22:05.039Z</time></trkpt><trkpt lat="42.6993893" lon="12.2471882"><ele>157.0</ele><time>2026-04-12T13:22:06.033Z</time></trkpt><trkpt lat="42.6994761" lon="12.2472687"><ele>157.5</ele><time>2026-04-12T13:22:07.036Z</time></trkpt><trkpt lat="42.699519" lon="12.2474121"><ele>158.0</ele><time>2026-04-12T13:22:08.045Z</time></trkpt><trkpt lat="42.6995352" lon="12.2475822"><ele>158.33333333333331</ele><time>2026-04-12T13:22:09.035Z</time></trkpt><trkpt lat="42.6994813" lon="12.247786"><ele>158.66666666666666</ele><time>2026-04-12T13:22:10.034Z</time></trkpt><trkpt lat="42.6994128" lon="12.2480099"><ele>159.0</ele><time>2026-04-12T13:22:11.038Z</time></trkpt><trkpt lat="42.6993419" lon="12.2482466"><ele>161.0</ele><time>2026-04-12T13:22:12.036Z</time></trkpt><trkpt lat="42.6992698" lon="12.2485059"><ele>163.0</ele><time>2026-04-12T13:22:13.037Z</time></trkpt><trkpt lat="42.6991931" lon="12.2487792"><ele>165.0</ele><time>2026-04-12T13:22:14.038Z</time></trkpt><trkpt lat="42.699114" lon="12.2490612"><ele>166.5</ele><time>2026-04-12T13:22:15.037Z</time></trkpt><trkpt lat="42.699033" lon="12.2493517"><ele>168.0</ele><time>2026-04-12T13:22:16.033Z</time></trkpt><trkpt lat="42.6989633" lon="12.2496509"><ele>168.33333333333334</ele><time>2026-04-12T13:22:17.038Z</time></trkpt><trkpt lat="42.6989174" lon="12.2499546"><ele>168.66666666666669</ele><time>2026-04-12T13:22:18.034Z</time></trkpt><trkpt lat="42.698897" lon="12.2502504"><ele>169.0</ele><time>2026-04-12T13:22:19.046Z</time></trkpt><trkpt lat="42.6988844" lon="12.2505405"><ele>168.66666666666669</ele><time>2026-04-12T13:22:20.038Z</time></trkpt><trkpt lat="42.6988598" lon="12.2508078"><ele>168.33333333333334</ele><time>2026-04-12T13:22:21.033Z</time></trkpt><trkpt lat="42.6988144" lon="12.2510452"><ele>168.0</ele><time>2026-04-12T13:22:22.037Z</time></trkpt><trkpt lat="42.6987727" lon="12.2512673"><ele>168.66666666666666</ele><time>2026-04-12T13:22:23.034Z</time></trkpt><trkpt lat="42.6987622" lon="12.2515021"><ele>169.33333333333331</ele><time>2026-04-12T13:22:24.037Z</time></trkpt><trkpt lat="42.6987586" lon="12.2517419"><ele>170.0</ele><time>2026-04-12T13:22:25.035Z</time></trkpt><trkpt lat="42.6988264" lon="12.2519875"><ele>170.0</ele><time>2026-04-12T13:22:26.041Z</time></trkpt><trkpt lat="42.6989316" lon="12.2522079"><ele>170.0</ele><time>2026-04-12T13:22:27.032Z</time></trkpt><trkpt lat="42.6990799" lon="12.2523999"><ele>170.0</ele><time>2026-04-12T13:22:28.03Z</time></trkpt><trkpt lat="42.6992433" lon="12.2525699"><ele>170.0</ele><time>2026-04-12T13:22:29.043Z</time></trkpt><trkpt lat="42.6994105" lon="12.2527346"><ele>170.0</ele><time>2026-04-12T13:22:30.034Z</time></trkpt><trkpt lat="42.699578" lon="12.2529014"><ele>170.0</ele><time>2026-04-12T13:22:31.035Z</time></trkpt><trkpt lat="42.6997465" lon="12.2530428"><ele>176.66666666666666</ele><time>2026-04-12T13:22:32.034Z</time></trkpt><trkpt lat="42.6999179" lon="12.2531477"><ele>183.33333333333334</ele><time>2026-04-12T13:22:33.033Z</time></trkpt><trkpt lat="42.7000794" lon="12.2532478"><ele>190.0</ele><time>2026-04-12T13:22:34.034Z</time></trkpt><trkpt lat="42.7002217" lon="12.2533865"><ele>186.33333333333334</ele><time>2026-04-12T13:22:35.031Z</time></trkpt><trkpt lat="42.7003479" lon="12.2535655"><ele>182.66666666666666</ele><time>2026-04-12T13:22:36.034Z</time></trkpt><trkpt lat="42.7004837" lon="12.2537463"><ele>179.0</ele><time>2026-04-12T13:22:37.037Z</time></trkpt><trkpt lat="42.7005811" lon="12.2539841"><ele>179.0</ele><time>2026-04-12T13:22:38.036Z</time></trkpt><trkpt lat="42.7006409" lon="12.2542504"><ele>179.0</ele><time>2026-04-12T13:22:39.04Z</time></trkpt><trkpt lat="42.7006871" lon="12.254532"><ele>179.0</ele><time>2026-04-12T13:22:40.033Z</time></trkpt><trkpt lat="42.7007286" lon="12.2547911"><ele>181.66666666666666</ele><time>2026-04-12T13:22:41.029Z</time></trkpt><trkpt lat="42.7007826" lon="12.2550267"><ele>184.33333333333334</ele><time>2026-04-12T13:22:42.033Z</time></trkpt><trkpt lat="42.7008665" lon="12.255231"><ele>187.0</ele><time>2026-04-12T13:22:43.037Z</time></trkpt><trkpt lat="42.7009578" lon="12.2554177"><ele>186.33333333333334</ele><time>2026-04-12T13:22:44.037Z</time></trkpt><trkpt lat="42.701109" lon="12.25552"><ele>185.66666666666666</ele><time>2026-04-12T13:22:45.032Z</time></trkpt><trkpt lat="42.7012631" lon="12.2555729"><ele>185.0</ele><time>2026-04-12T13:22:46.035Z</time></trkpt><trkpt lat="42.7014243" lon="12.2556317"><ele>185.0</ele><time>2026-04-12T13:22:47.032Z</time></trkpt><trkpt lat="42.7015728" lon="12.2557533"><ele>185.0</ele><time>2026-04-12T13:22:48.034Z</time></trkpt><trkpt lat="42.701667" lon="12.2559639"><ele>185.0</ele><time>2026-04-12T13:22:49.034Z</time></trkpt><trkpt lat="42.7017242" lon="12.2561829"><ele>185.0</ele><time>2026-04-12T13:22:50.033Z</time></trkpt><trkpt lat="42.7017924" lon="12.2564028"><ele>185.0</ele><time>2026-04-12T13:22:51.035Z</time></trkpt><trkpt lat="42.7019059" lon="12.2565973"><ele>185.0</ele><time>2026-04-12T13:22:52.03Z</time></trkpt><trkpt lat="42.7020659" lon="12.2567097"><ele>180.0</ele><time>2026-04-12T13:22:53.032Z</time></trkpt><trkpt lat="42.7022307" lon="12.2567833"><ele>175.0</ele><time>2026-04-12T13:22:54.032Z</time></trkpt><trkpt lat="42.7023933" lon="12.256862"><ele>170.0</ele><time>2026-04-12T13:22:55.038Z</time></trkpt><trkpt lat="42.7025554" lon="12.2569596"><ele>170.0</ele><time>2026-04-12T13:22:56.034Z</time></trkpt><trkpt lat="42.7027141" lon="12.2570719"><ele>170.0</ele><time>2026-04-12T13:22:57.037Z</time></trkpt><trkpt lat="42.7028746" lon="12.2571889"><ele>170.0</ele><time>2026-04-12T13:22:58.034Z</time></trkpt><trkpt lat="42.703036" lon="12.2572979"><ele>170.33333333333331</ele><time>2026-04-12T13:22:59.038Z</time></trkpt><trkpt lat="42.7032098" lon="12.2573976"><ele>170.66666666666666</ele><time>2026-04-12T13:23:00.031Z</time></trkpt><trkpt lat="42.7033931" lon="12.2574937"><ele>171.0</ele><time>2026-04-12T13:23:01.051Z</time></trkpt><trkpt lat="42.7035781" lon="12.2575922"><ele>167.0</ele><time>2026-04-12T13:23:02.036Z</time></trkpt><trkpt lat="42.7037649" lon="12.2576929"><ele>163.0</ele><time>2026-04-12T13:23:03.038Z</time></trkpt><trkpt lat="42.7039574" lon="12.2577867"><ele>159.0</ele><time>2026-04-12T13:23:04.037Z</time></trkpt><trkpt lat="42.7041529" lon="12.2578525"><ele>159.0</ele><time>2026-04-12T13:23:05.033Z</time></trkpt><trkpt lat="42.7043384" lon="12.2578805"><ele>159.0</ele><time>2026-04-12T13:23:06.032Z</time></trkpt><trkpt lat="42.7045152" lon="12.2579238"><ele>159.0</ele><time>2026-04-12T13:23:07.04Z</time></trkpt><trkpt lat="42.7046866" lon="12.2580129"><ele>156.0</ele><time>2026-04-12T13:23:08.033Z</time></trkpt><trkpt lat="42.7048568" lon="12.2581073"><ele>153.0</ele><time>2026-04-12T13:23:09.035Z</time></trkpt><trkpt lat="42.7050202" lon="12.2582341"><ele>150.0</ele><time>2026-04-12T13:23:10.038Z</time></trkpt><trkpt lat="42.7051887" lon="12.25837"><ele>153.0</ele><time>2026-04-12T13:23:11.045Z</time></trkpt><trkpt lat="42.7053546" lon="12.2584867"><ele>156.0</ele><time>2026-04-12T13:23:12.035Z</time></trkpt><trkpt lat="42.7055372" lon="12.2585838"><ele>159.0</ele><time>2026-04-12T13:23:13.038Z</time></trkpt><trkpt lat="42.7057257" lon="12.2586672"><ele>159.0</ele><time>2026-04-12T13:23:14.039Z</time></trkpt><trkpt lat="42.7059159" lon="12.2587477"><ele>159.0</ele><time>2026-04-12T13:23:15.038Z</time></trkpt><trkpt lat="42.7061139" lon="12.2588285"><ele>159.0</ele><time>2026-04-12T13:23:16.036Z</time></trkpt><trkpt lat="42.7063128" lon="12.2589091"><ele>163.66666666666666</ele><time>2026-04-12T13:23:17.037Z</time></trkpt><trkpt lat="42.7065073" lon="12.258986"><ele>168.33333333333331</ele><time>2026-04-12T13:23:18.038Z</time></trkpt><trkpt lat="42.7066907" lon="12.2590614"><ele>173.0</ele><time>2026-04-12T13:23:19.035Z</time></trkpt><trkpt lat="42.7068684" lon="12.2591336"><ele>169.66666666666666</ele><time>2026-04-12T13:23:20.035Z</time></trkpt><trkpt lat="42.7070388" lon="12.2592041"><ele>166.33333333333334</ele><time>2026-04-12T13:23:21.036Z</time></trkpt><trkpt lat="42.7072074" lon="12.2592682"><ele>163.0</ele><time>2026-04-12T13:23:22.038Z</time></trkpt><trkpt lat="42.7073707" lon="12.259331"><ele>163.0</ele><time>2026-04-12T13:23:23.033Z</time></trkpt><trkpt lat="42.7075294" lon="12.2593905"><ele>163.0</ele><time>2026-04-12T13:23:24.031Z</time></trkpt><trkpt lat="42.7076897" lon="12.2594516"><ele>163.0</ele><time>2026-04-12T13:23:25.034Z</time></trkpt><trkpt lat="42.7078382" lon="12.2595066"><ele>163.5</ele><time>2026-04-12T13:23:26.04Z</time></trkpt><trkpt lat="42.7079759" lon="12.2595606"><ele>164.0</ele><time>2026-04-12T13:23:27.039Z</time></trkpt><trkpt lat="42.708111" lon="12.2596221"><ele>164.5</ele><time>2026-04-12T13:23:28.034Z</time></trkpt><trkpt lat="42.7082396" lon="12.2597182"><ele>165.0</ele><time>2026-04-12T13:23:29.035Z</time></trkpt><trkpt lat="42.7083482" lon="12.2598576"><ele>165.0</ele><time>2026-04-12T13:23:30.037Z</time></trkpt><trkpt lat="42.7084287" lon="12.2600332"><ele>165.0</ele><time>2026-04-12T13:23:31.041Z</time></trkpt><trkpt lat="42.7084715" lon="12.2602295"><ele>165.0</ele><time>2026-04-12T13:23:32.04Z</time></trkpt><trkpt lat="42.7085078" lon="12.2604199"><ele>165.0</ele><time>2026-04-12T13:23:33.04Z</time></trkpt><trkpt lat="42.7084621" lon="12.26062"><ele>164.33333333333334</ele><time>2026-04-12T13:23:34.036Z</time></trkpt><trkpt lat="42.7083842" lon="12.2608057"><ele>163.66666666666669</ele><time>2026-04-12T13:23:35.038Z</time></trkpt><trkpt lat="42.7083029" lon="12.2609771"><ele>163.0</ele><time>2026-04-12T13:23:36.037Z</time></trkpt><trkpt lat="42.7082215" lon="12.2611507"><ele>163.0</ele><time>2026-04-12T13:23:37.035Z</time></trkpt><trkpt lat="42.7081417" lon="12.261327"><ele>163.0</ele><time>2026-04-12T13:23:38.036Z</time></trkpt><trkpt lat="42.7080673" lon="12.261494"><ele>163.0</ele><time>2026-04-12T13:23:39.04Z</time></trkpt><trkpt lat="42.7079968" lon="12.2616555"><ele>163.0</ele><time>2026-04-12T13:23:40.04Z</time></trkpt><trkpt lat="42.7079277" lon="12.2618114"><ele>162.5</ele><time>2026-04-12T13:23:41.047Z</time></trkpt><trkpt lat="42.7078567" lon="12.2619725"><ele>162.0</ele><time>2026-04-12T13:23:42.039Z</time></trkpt><trkpt lat="42.7077862" lon="12.2621323"><ele>161.5</ele><time>2026-04-12T13:23:43.043Z</time></trkpt><trkpt lat="42.707721" lon="12.2622835"><ele>161.0</ele><time>2026-04-12T13:23:44.038Z</time></trkpt><trkpt lat="42.7076586" lon="12.2624272"><ele>161.0</ele><time>2026-04-12T13:23:45.039Z</time></trkpt><trkpt lat="42.7076036" lon="12.2625722"><ele>161.0</ele><time>2026-04-12T13:23:46.037Z</time></trkpt><trkpt lat="42.7075741" lon="12.2627275"><ele>161.0</ele><time>2026-04-12T13:23:47.038Z</time></trkpt><trkpt lat="42.7075773" lon="12.2628816"><ele>161.0</ele><time>2026-04-12T13:23:48.041Z</time></trkpt><trkpt lat="42.7076161" lon="12.2630255"><ele>159.25</ele><time>2026-04-12T13:23:49.033Z</time></trkpt><trkpt lat="42.7076884" lon="12.2631549"><ele>157.5</ele><time>2026-04-12T13:23:50.036Z</time></trkpt><trkpt lat="42.7077934" lon="12.2632562"><ele>155.75</ele><time>2026-04-12T13:23:51.037Z</time></trkpt><trkpt lat="42.7079236" lon="12.2633278"><ele>154.0</ele><time>2026-04-12T13:23:52.043Z</time></trkpt><trkpt lat="42.7080662" lon="12.2633755"><ele>153.0</ele><time>2026-04-12T13:23:53.034Z</time></trkpt><trkpt lat="42.7082087" lon="12.2634091"><ele>152.0</ele><time>2026-04-12T13:23:54.037Z</time></trkpt><trkpt lat="42.708344" lon="12.2634552"><ele>151.0</ele><time>2026-04-12T13:23:55.041Z</time></trkpt><trkpt lat="42.7084736" lon="12.2634891"><ele>150.0</ele><time>2026-04-12T13:23:56.037Z</time></trkpt><trkpt lat="42.7086034" lon="12.2635265"><ele>148.66666666666666</ele><time>2026-04-12T13:23:57.035Z</time></trkpt><trkpt lat="42.7087402" lon="12.2635623"><ele>147.33333333333331</ele><time>2026-04-12T13:23:58.039Z</time></trkpt><trkpt lat="42.7088923" lon="12.2635977"><ele>146.0</ele><time>2026-04-12T13:23:59.044Z</time></trkpt><trkpt lat="42.7090683" lon="12.2636451"><ele>146.0</ele><time>2026-04-12T13:24:00.04Z</time></trkpt><trkpt lat="42.7092673" lon="12.2636959"><ele>146.0</ele><time>2026-04-12T13:24:01.038Z</time></trkpt><trkpt lat="42.7094919" lon="12.2637527"><ele>146.0</ele><time>2026-04-12T13:24:02.038Z</time></trkpt><trkpt lat="42.709733" lon="12.2638155"><ele>145.0</ele><time>2026-04-12T13:24:03.037Z</time></trkpt><trkpt lat="42.7099901" lon="12.263888"><ele>144.0</ele><time>2026-04-12T13:24:04.038Z</time></trkpt><trkpt lat="42.7102615" lon="12.2639651"><ele>148.5</ele><time>2026-04-12T13:24:05.036Z</time></trkpt><trkpt lat="42.7105438" lon="12.264048"><ele>153.0</ele><time>2026-04-12T13:24:06.055Z</time></trkpt><trkpt lat="42.7108243" lon="12.2641301"><ele>150.5</ele><time>2026-04-12T13:24:07.036Z</time></trkpt><trkpt lat="42.711092" lon="12.2642242"><ele>148.0</ele><time>2026-04-12T13:24:08.036Z</time></trkpt><trkpt lat="42.7113521" lon="12.2643258"><ele>148.0</ele><time>2026-04-12T13:24:09.038Z</time></trkpt><trkpt lat="42.7116032" lon="12.2644497"><ele>148.0</ele><time>2026-04-12T13:24:10.038Z</time></trkpt><trkpt lat="42.7118517" lon="12.2645722"><ele>148.0</ele><time>2026-04-12T13:24:11.035Z</time></trkpt><trkpt lat="42.7120925" lon="12.2646942"><ele>148.0</ele><time>2026-04-12T13:24:12.037Z</time></trkpt><trkpt lat="42.7123383" lon="12.2648176"><ele>148.0</ele><time>2026-04-12T13:24:13.035Z</time></trkpt><trkpt lat="42.7125859" lon="12.2649412"><ele>148.0</ele><time>2026-04-12T13:24:14.038Z</time></trkpt><trkpt lat="42.7128393" lon="12.2650719"><ele>147.5</ele><time>2026-04-12T13:24:15.035Z</time></trkpt><trkpt lat="42.7130962" lon="12.2652045"><ele>147.0</ele><time>2026-04-12T13:24:16.037Z</time></trkpt><trkpt lat="42.71335" lon="12.2653331"><ele>148.5</ele><time>2026-04-12T13:24:17.044Z</time></trkpt><trkpt lat="42.7135988" lon="12.2654604"><ele>150.0</ele><time>2026-04-12T13:24:18.035Z</time></trkpt><trkpt lat="42.7138366" lon="12.2655826"><ele>152.0</ele><time>2026-04-12T13:24:19.037Z</time></trkpt><trkpt lat="42.714059" lon="12.2656992"><ele>154.0</ele><time>2026-04-12T13:24:20.037Z</time></trkpt><trkpt lat="42.7142671" lon="12.2658057"><ele>152.66666666666669</ele><time>2026-04-12T13:24:21.038Z</time></trkpt><trkpt lat="42.7144602" lon="12.2658878"><ele>151.33333333333334</ele><time>2026-04-12T13:24:22.036Z</time></trkpt><trkpt lat="42.7146485" lon="12.2659226"><ele>150.0</ele><time>2026-04-12T13:24:23.034Z</time></trkpt><trkpt lat="42.7148422" lon="12.2658854"><ele>150.0</ele><time>2026-04-12T13:24:24.033Z</time></trkpt><trkpt lat="42.7150377" lon="12.2657797"><ele>150.0</ele><time>2026-04-12T13:24:25.039Z</time></trkpt><trkpt lat="42.7152319" lon="12.2656476"><ele>150.0</ele><time>2026-04-12T13:24:26.036Z</time></trkpt><trkpt lat="42.715424" lon="12.2655179"><ele>149.0</ele><time>2026-04-12T13:24:27.037Z</time></trkpt><trkpt lat="42.7156144" lon="12.2653915"><ele>148.0</ele><time>2026-04-12T13:24:28.04Z</time></trkpt><trkpt lat="42.7158064" lon="12.2652648"><ele>147.0</ele><time>2026-04-12T13:24:29.039Z</time></trkpt><trkpt lat="42.7160016" lon="12.2651333"><ele>147.33333333333334</ele><time>2026-04-12T13:24:30.033Z</time></trkpt><trkpt lat="42.7161983" lon="12.264999"><ele>147.66666666666669</ele><time>2026-04-12T13:24:31.043Z</time></trkpt><trkpt lat="42.7163932" lon="12.2648641"><ele>148.0</ele><time>2026-04-12T13:24:32.044Z</time></trkpt><trkpt lat="42.7165898" lon="12.2647287"><ele>148.0</ele><time>2026-04-12T13:24:33.048Z</time></trkpt><trkpt lat="42.7167888" lon="12.2645932"><ele>148.0</ele><time>2026-04-12T13:24:34.033Z</time></trkpt><trkpt lat="42.7169919" lon="12.2644573"><ele>148.0</ele><time>2026-04-12T13:24:35.037Z</time></trkpt><trkpt lat="42.7172" lon="12.2643178"><ele>149.5</ele><time>2026-04-12T13:24:36.031Z</time></trkpt><trkpt lat="42.717414" lon="12.2641737"><ele>151.0</ele><time>2026-04-12T13:24:37.041Z</time></trkpt><trkpt lat="42.7176302" lon="12.2640257"><ele>151.0</ele><time>2026-04-12T13:24:38.042Z</time></trkpt><trkpt lat="42.7178491" lon="12.2638778"><ele>151.0</ele><time>2026-04-12T13:24:39.037Z</time></trkpt><trkpt lat="42.7180706" lon="12.2637281"><ele>151.0</ele><time>2026-04-12T13:24:40.041Z</time></trkpt><trkpt lat="42.7182953" lon="12.263576"><ele>151.0</ele><time>2026-04-12T13:24:41.036Z</time></trkpt><trkpt lat="42.7185219" lon="12.2634211"><ele>152.0</ele><time>2026-04-12T13:24:42.039Z</time></trkpt><trkpt lat="42.7187492" lon="12.2632666"><ele>153.0</ele><time>2026-04-12T13:24:43.036Z</time></trkpt><trkpt lat="42.7189755" lon="12.2631137"><ele>153.0</ele><time>2026-04-12T13:24:44.033Z</time></trkpt><trkpt lat="42.7192006" lon="12.2629623"><ele>153.0</ele><time>2026-04-12T13:24:45.037Z</time></trkpt><trkpt lat="42.7194212" lon="12.2628135"><ele>155.33333333333334</ele><time>2026-04-12T13:24:46.04Z</time></trkpt><trkpt lat="42.7196288" lon="12.2626727"><ele>157.66666666666669</ele><time>2026-04-12T13:24:47.041Z</time></trkpt><trkpt lat="42.7198226" lon="12.26254"><ele>160.0</ele><time>2026-04-12T13:24:48.038Z</time></trkpt><trkpt lat="42.7200093" lon="12.2624116"><ele>160.0</ele><time>2026-04-12T13:24:49.047Z</time></trkpt><trkpt lat="42.7201944" lon="12.2622861"><ele>160.0</ele><time>2026-04-12T13:24:50.04Z</time></trkpt><trkpt lat="42.7203826" lon="12.2621754"><ele>160.0</ele><time>2026-04-12T13:24:51.04Z</time></trkpt><trkpt lat="42.7205789" lon="12.2620958"><ele>159.66666666666669</ele><time>2026-04-12T13:24:52.04Z</time></trkpt><trkpt lat="42.7207822" lon="12.26205"><ele>159.33333333333334</ele><time>2026-04-12T13:24:53.04Z</time></trkpt><trkpt lat="42.7209869" lon="12.2620276"><ele>159.0</ele><time>2026-04-12T13:24:54.036Z</time></trkpt><trkpt lat="42.7211911" lon="12.2620121"><ele>160.33333333333334</ele><time>2026-04-12T13:24:55.039Z</time></trkpt><trkpt lat="42.7213977" lon="12.2619962"><ele>161.66666666666669</ele><time>2026-04-12T13:24:56.029Z</time></trkpt><trkpt lat="42.7216074" lon="12.2619812"><ele>163.0</ele><time>2026-04-12T13:24:57.042Z</time></trkpt><trkpt lat="42.7218208" lon="12.261965"><ele>165.0</ele><time>2026-04-12T13:24:58.039Z</time></trkpt><trkpt lat="42.7220419" lon="12.261947"><ele>167.0</ele><time>2026-04-12T13:24:59.043Z</time></trkpt><trkpt lat="42.7222695" lon="12.2619256"><ele>167.0</ele><time>2026-04-12T13:25:00.04Z</time></trkpt><trkpt lat="42.7225027" lon="12.261903"><ele>167.0</ele><time>2026-04-12T13:25:01.041Z</time></trkpt><trkpt lat="42.7227392" lon="12.2618808"><ele>167.5</ele><time>2026-04-12T13:25:02.033Z</time></trkpt><trkpt lat="42.7229748" lon="12.2618589"><ele>168.0</ele><time>2026-04-12T13:25:03.035Z</time></trkpt><trkpt lat="42.7232007" lon="12.2618372"><ele>168.0</ele><time>2026-04-12T13:25:04.036Z</time></trkpt><trkpt lat="42.7234112" lon="12.2618186"><ele>168.0</ele><time>2026-04-12T13:25:05.032Z</time></trkpt><trkpt lat="42.7236137" lon="12.2618169"><ele>168.0</ele><time>2026-04-12T13:25:06.034Z</time></trkpt><trkpt lat="42.7238156" lon="12.2618357"><ele>168.33333333333334</ele><time>2026-04-12T13:25:07.043Z</time></trkpt><trkpt lat="42.7240124" lon="12.2619444"><ele>168.66666666666669</ele><time>2026-04-12T13:25:08.032Z</time></trkpt><trkpt lat="42.7241942" lon="12.2621039"><ele>169.0</ele><time>2026-04-12T13:25:09.036Z</time></trkpt><trkpt lat="42.7243633" lon="12.2623147"><ele>168.0</ele><time>2026-04-12T13:25:10.037Z</time></trkpt><trkpt lat="42.7245114" lon="12.2625644"><ele>167.0</ele><time>2026-04-12T13:25:11.04Z</time></trkpt><trkpt lat="42.7246584" lon="12.2628344"><ele>167.0</ele><time>2026-04-12T13:25:12.033Z</time></trkpt><trkpt lat="42.7248103" lon="12.2631066"><ele>167.0</ele><time>2026-04-12T13:25:13.039Z</time></trkpt><trkpt lat="42.7249665" lon="12.2633842"><ele>169.5</ele><time>2026-04-12T13:25:14.036Z</time></trkpt><trkpt lat="42.7251221" lon="12.2636662"><ele>172.0</ele><time>2026-04-12T13:25:15.031Z</time></trkpt><trkpt lat="42.725278" lon="12.2639493"><ele>172.0</ele><time>2026-04-12T13:25:16.035Z</time></trkpt><trkpt lat="42.7254367" lon="12.2642286"><ele>172.0</ele><time>2026-04-12T13:25:17.038Z</time></trkpt><trkpt lat="42.7255939" lon="12.2645143"><ele>178.0</ele><time>2026-04-12T13:25:18.036Z</time></trkpt><trkpt lat="42.7257498" lon="12.2648011"><ele>184.0</ele><time>2026-04-12T13:25:19.033Z</time></trkpt><trkpt lat="42.7259064" lon="12.2650846"><ele>184.0</ele><time>2026-04-12T13:25:20.039Z</time></trkpt><trkpt lat="42.7260613" lon="12.2653651"><ele>184.0</ele><time>2026-04-12T13:25:21.032Z</time></trkpt><trkpt lat="42.7262164" lon="12.2656399"><ele>180.0</ele><time>2026-04-12T13:25:22.036Z</time></trkpt><trkpt lat="42.7263686" lon="12.2659127"><ele>176.0</ele><time>2026-04-12T13:25:23.032Z</time></trkpt><trkpt lat="42.7265172" lon="12.2661814"><ele>181.5</ele><time>2026-04-12T13:25:24.035Z</time></trkpt><trkpt lat="42.7266627" lon="12.2664468"><ele>187.0</ele><time>2026-04-12T13:25:25.043Z</time></trkpt><trkpt lat="42.7268077" lon="12.2667088"><ele>179.5</ele><time>2026-04-12T13:25:26.033Z</time></trkpt><trkpt lat="42.7269486" lon="12.2669669"><ele>172.0</ele><time>2026-04-12T13:25:27.033Z</time></trkpt><trkpt lat="42.7270934" lon="12.2672261"><ele>179.0</ele><time>2026-04-12T13:25:28.037Z</time></trkpt><trkpt lat="42.7272413" lon="12.2674789"><ele>186.0</ele><time>2026-04-12T13:25:29.037Z</time></trkpt><trkpt lat="42.7273879" lon="12.2677383"><ele>186.0</ele><time>2026-04-12T13:25:30.035Z</time></trkpt><trkpt lat="42.7275334" lon="12.2680034"><ele>186.0</ele><time>2026-04-12T13:25:31.041Z</time></trkpt><trkpt lat="42.7276787" lon="12.2682723"><ele>184.0</ele><time>2026-04-12T13:25:32.041Z</time></trkpt><trkpt lat="42.7278143" lon="12.268548"><ele>182.0</ele><time>2026-04-12T13:25:33.039Z</time></trkpt><trkpt lat="42.72794" lon="12.2688291"><ele>188.0</ele><time>2026-04-12T13:25:34.038Z</time></trkpt><trkpt lat="42.7280532" lon="12.2691088"><ele>194.0</ele><time>2026-04-12T13:25:35.035Z</time></trkpt><trkpt lat="42.7281599" lon="12.2693852"><ele>194.0</ele><time>2026-04-12T13:25:36.037Z</time></trkpt><trkpt lat="42.7282646" lon="12.2696558"><ele>194.0</ele><time>2026-04-12T13:25:37.035Z</time></trkpt><trkpt lat="42.7283671" lon="12.2699209"><ele>194.0</ele><time>2026-04-12T13:25:38.039Z</time></trkpt><trkpt lat="42.7284628" lon="12.2701676"><ele>195.66666666666669</ele><time>2026-04-12T13:25:39.033Z</time></trkpt><trkpt lat="42.7285511" lon="12.2703995"><ele>197.33333333333331</ele><time>2026-04-12T13:25:40.038Z</time></trkpt><trkpt lat="42.7286399" lon="12.2706289"><ele>199.0</ele><time>2026-04-12T13:25:41.035Z</time></trkpt><trkpt lat="42.7287266" lon="12.2708711"><ele>199.0</ele><time>2026-04-12T13:25:42.039Z</time></trkpt><trkpt lat="42.7288016" lon="12.2711316"><ele>199.0</ele><time>2026-04-12T13:25:43.037Z</time></trkpt><trkpt lat="42.7288518" lon="12.2714028"><ele>199.0</ele><time>2026-04-12T13:25:44.034Z</time></trkpt><trkpt lat="42.7288865" lon="12.2716779"><ele>202.0</ele><time>2026-04-12T13:25:45.024Z</time></trkpt><trkpt lat="42.7289366" lon="12.2719481"><ele>205.0</ele><time>2026-04-12T13:25:46.027Z</time></trkpt><trkpt lat="42.7290216" lon="12.2722047"><ele>208.0</ele><time>2026-04-12T13:25:47.029Z</time></trkpt><trkpt lat="42.7291284" lon="12.2724253"><ele>211.0</ele><time>2026-04-12T13:25:48.052Z</time></trkpt><trkpt lat="42.7292363" lon="12.2726171"><ele>214.0</ele><time>2026-04-12T13:25:49.028Z</time></trkpt><trkpt lat="42.72934" lon="12.2727998"><ele>217.0</ele><time>2026-04-12T13:25:50.041Z</time></trkpt><trkpt lat="42.72943" lon="12.2730035"><ele>212.33333333333331</ele><time>2026-04-12T13:25:51.032Z</time></trkpt><trkpt lat="42.7294845" lon="12.273242"><ele>207.66666666666669</ele><time>2026-04-12T13:25:52.027Z</time></trkpt><trkpt lat="42.7294979" lon="12.2734999"><ele>203.0</ele><time>2026-04-12T13:25:53.024Z</time></trkpt><trkpt lat="42.7295" lon="12.2737654"><ele>205.66666666666669</ele><time>2026-04-12T13:25:54.023Z</time></trkpt><trkpt lat="42.7295107" lon="12.2740185"><ele>208.33333333333331</ele><time>2026-04-12T13:25:55.026Z</time></trkpt><trkpt lat="42.7295555" lon="12.2742626"><ele>211.0</ele><time>2026-04-12T13:25:56.023Z</time></trkpt><trkpt lat="42.729652" lon="12.2744796"><ele>211.0</ele><time>2026-04-12T13:25:57.029Z</time></trkpt><trkpt lat="42.7297986" lon="12.2746667"><ele>211.0</ele><time>2026-04-12T13:25:58.025Z</time></trkpt><trkpt lat="42.7299841" lon="12.2748423"><ele>211.0</ele><time>2026-04-12T13:25:59.024Z</time></trkpt><trkpt lat="42.7301859" lon="12.2750356"><ele>211.5</ele><time>2026-04-12T13:26:00.025Z</time></trkpt><trkpt lat="42.7303892" lon="12.2752482"><ele>212.0</ele><time>2026-04-12T13:26:01.028Z</time></trkpt><trkpt lat="42.7305964" lon="12.2754761"><ele>215.5</ele><time>2026-04-12T13:26:02.029Z</time></trkpt><trkpt lat="42.7308037" lon="12.2756983"><ele>219.0</ele><time>2026-04-12T13:26:03.025Z</time></trkpt><trkpt lat="42.7310047" lon="12.2758986"><ele>210.5</ele><time>2026-04-12T13:26:04.027Z</time></trkpt><trkpt lat="42.7311938" lon="12.2760877"><ele>202.0</ele><time>2026-04-12T13:26:05.027Z</time></trkpt><trkpt lat="42.7313673" lon="12.2762723"><ele>205.66666666666666</ele><time>2026-04-12T13:26:06.022Z</time></trkpt><trkpt lat="42.7315131" lon="12.2764798"><ele>209.33333333333331</ele><time>2026-04-12T13:26:07.024Z</time></trkpt><trkpt lat="42.7316184" lon="12.2767322"><ele>213.0</ele><time>2026-04-12T13:26:08.025Z</time></trkpt><trkpt lat="42.7317199" lon="12.2770029"><ele>216.0</ele><time>2026-04-12T13:26:09.024Z</time></trkpt><trkpt lat="42.7317453" lon="12.2773224"><ele>219.0</ele><time>2026-04-12T13:26:10.024Z</time></trkpt><trkpt lat="42.7317617" lon="12.2776377"><ele>219.0</ele><time>2026-04-12T13:26:11.027Z</time></trkpt><trkpt lat="42.7317763" lon="12.2779447"><ele>219.0</ele><time>2026-04-12T13:26:12.025Z</time></trkpt><trkpt lat="42.7318264" lon="12.2782283"><ele>219.0</ele><time>2026-04-12T13:26:13.026Z</time></trkpt><trkpt lat="42.7318854" lon="12.2785125"><ele>217.0</ele><time>2026-04-12T13:26:14.026Z</time></trkpt><trkpt lat="42.7320483" lon="12.2787413"><ele>215.0</ele><time>2026-04-12T13:26:15.026Z</time></trkpt><trkpt lat="42.732242" lon="12.2789582"><ele>215.0</ele><time>2026-04-12T13:26:16.024Z</time></trkpt><trkpt lat="42.7324468" lon="12.2791845"><ele>215.0</ele><time>2026-04-12T13:26:17.022Z</time></trkpt><trkpt lat="42.7326339" lon="12.279422"><ele>215.0</ele><time>2026-04-12T13:26:18.026Z</time></trkpt><trkpt lat="42.732813" lon="12.2796413"><ele>215.0</ele><time>2026-04-12T13:26:19.03Z</time></trkpt><trkpt lat="42.7329975" lon="12.2798556"><ele>215.0</ele><time>2026-04-12T13:26:20.03Z</time></trkpt><trkpt lat="42.733173" lon="12.2800748"><ele>215.0</ele><time>2026-04-12T13:26:21.026Z</time></trkpt><trkpt lat="42.7333318" lon="12.2803018"><ele>215.0</ele><time>2026-04-12T13:26:22.028Z</time></trkpt><trkpt lat="42.7334632" lon="12.2805367"><ele>215.0</ele><time>2026-04-12T13:26:23.027Z</time></trkpt><trkpt lat="42.7335566" lon="12.2807805"><ele>215.0</ele><time>2026-04-12T13:26:24.025Z</time></trkpt><trkpt lat="42.7336028" lon="12.281042"><ele>212.33333333333334</ele><time>2026-04-12T13:26:25.029Z</time></trkpt><trkpt lat="42.7335874" lon="12.2812996"><ele>209.66666666666669</ele><time>2026-04-12T13:26:26.026Z</time></trkpt><trkpt lat="42.7335158" lon="12.2815224"><ele>207.0</ele><time>2026-04-12T13:26:27.025Z</time></trkpt><trkpt lat="42.7334181" lon="12.2817109"><ele>212.33333333333331</ele><time>2026-04-12T13:26:28.024Z</time></trkpt><trkpt lat="42.7333461" lon="12.2818987"><ele>217.66666666666666</ele><time>2026-04-12T13:26:29.029Z</time></trkpt><trkpt lat="42.7333278" lon="12.2821124"><ele>223.0</ele><time>2026-04-12T13:26:30.023Z</time></trkpt><trkpt lat="42.7333795" lon="12.2823389"><ele>223.0</ele><time>2026-04-12T13:26:31.03Z</time></trkpt><trkpt lat="42.7334947" lon="12.2825621"><ele>223.0</ele><time>2026-04-12T13:26:32.022Z</time></trkpt><trkpt lat="42.7336085" lon="12.2827733"><ele>223.0</ele><time>2026-04-12T13:26:33.023Z</time></trkpt><trkpt lat="42.7337978" lon="12.2829781"><ele>219.5</ele><time>2026-04-12T13:26:34.02Z</time></trkpt><trkpt lat="42.7339889" lon="12.283171"><ele>216.0</ele><time>2026-04-12T13:26:35.03Z</time></trkpt><trkpt lat="42.7341656" lon="12.2833667"><ele>216.0</ele><time>2026-04-12T13:26:36.03Z</time></trkpt><trkpt lat="42.7343253" lon="12.2835589"><ele>216.0</ele><time>2026-04-12T13:26:37.025Z</time></trkpt><trkpt lat="42.7344769" lon="12.2837625"><ele>216.0</ele><time>2026-04-12T13:26:38.025Z</time></trkpt><trkpt lat="42.734608" lon="12.2839989"><ele>213.5</ele><time>2026-04-12T13:26:39.026Z</time></trkpt><trkpt lat="42.734713" lon="12.2842692"><ele>211.0</ele><time>2026-04-12T13:26:40.023Z</time></trkpt><trkpt lat="42.7347867" lon="12.2845615"><ele>212.66666666666666</ele><time>2026-04-12T13:26:41.032Z</time></trkpt><trkpt lat="42.7348389" lon="12.2848665"><ele>214.33333333333331</ele><time>2026-04-12T13:26:42.025Z</time></trkpt><trkpt lat="42.7348782" lon="12.285159"><ele>216.0</ele><time>2026-04-12T13:26:43.025Z</time></trkpt><trkpt lat="42.7349167" lon="12.2854378"><ele>217.66666666666669</ele><time>2026-04-12T13:26:44.023Z</time></trkpt><trkpt lat="42.7349564" lon="12.2856986"><ele>219.33333333333334</ele><time>2026-04-12T13:26:45.023Z</time></trkpt><trkpt lat="42.7349916" lon="12.2859521"><ele>221.0</ele><time>2026-04-12T13:26:46.03Z</time></trkpt><trkpt lat="42.7350129" lon="12.2862027"><ele>219.33333333333334</ele><time>2026-04-12T13:26:47.03Z</time></trkpt><trkpt lat="42.7349962" lon="12.2864597"><ele>217.66666666666669</ele><time>2026-04-12T13:26:48.029Z</time></trkpt><trkpt lat="42.7349377" lon="12.2867156"><ele>216.0</ele><time>2026-04-12T13:26:49.052Z</time></trkpt><trkpt lat="42.7348472" lon="12.2869692"><ele>216.0</ele><time>2026-04-12T13:26:50.024Z</time></trkpt><trkpt lat="42.7347355" lon="12.2872123"><ele>216.0</ele><time>2026-04-12T13:26:51.031Z</time></trkpt><trkpt lat="42.7346049" lon="12.2874345"><ele>216.0</ele><time>2026-04-12T13:26:52.024Z</time></trkpt><trkpt lat="42.734472" lon="12.2876244"><ele>222.0</ele><time>2026-04-12T13:26:53.028Z</time></trkpt><trkpt lat="42.7343512" lon="12.2878078"><ele>228.0</ele><time>2026-04-12T13:26:54.023Z</time></trkpt><trkpt lat="42.7342651" lon="12.2880189"><ele>234.0</ele><time>2026-04-12T13:26:55.025Z</time></trkpt><trkpt lat="42.7342159" lon="12.2882565"><ele>234.0</ele><time>2026-04-12T13:26:56.023Z</time></trkpt><trkpt lat="42.7341803" lon="12.2884954"><ele>234.0</ele><time>2026-04-12T13:26:57.024Z</time></trkpt><trkpt lat="42.7341616" lon="12.2887149"><ele>234.0</ele><time>2026-04-12T13:26:58.024Z</time></trkpt><trkpt lat="42.734182" lon="12.2889149"><ele>236.0</ele><time>2026-04-12T13:26:59.022Z</time></trkpt><trkpt lat="42.7342654" lon="12.2890859"><ele>238.0</ele><time>2026-04-12T13:27:00.022Z</time></trkpt><trkpt lat="42.7343965" lon="12.2891998"><ele>240.0</ele><time>2026-04-12T13:27:01.019Z</time></trkpt><trkpt lat="42.7345378" lon="12.2892893"><ele>230.66666666666669</ele><time>2026-04-12T13:27:02.024Z</time></trkpt><trkpt lat="42.7347022" lon="12.2893134"><ele>221.33333333333334</ele><time>2026-04-12T13:27:03.027Z</time></trkpt><trkpt lat="42.7348431" lon="12.2893554"><ele>212.0</ele><time>2026-04-12T13:27:04.025Z</time></trkpt><trkpt lat="42.7349648" lon="12.2894804"><ele>212.0</ele><time>2026-04-12T13:27:05.025Z</time></trkpt><trkpt lat="42.7350364" lon="12.2896608"><ele>212.0</ele><time>2026-04-12T13:27:06.021Z</time></trkpt><trkpt lat="42.7350671" lon="12.2898587"><ele>212.0</ele><time>2026-04-12T13:27:07.023Z</time></trkpt><trkpt lat="42.7350784" lon="12.2900892"><ele>218.33333333333334</ele><time>2026-04-12T13:27:08.03Z</time></trkpt><trkpt lat="42.7350837" lon="12.290324"><ele>224.66666666666669</ele><time>2026-04-12T13:27:09.028Z</time></trkpt><trkpt lat="42.735066" lon="12.2905702"><ele>231.0</ele><time>2026-04-12T13:27:10.029Z</time></trkpt><trkpt lat="42.7350298" lon="12.2907957"><ele>233.33333333333331</ele><time>2026-04-12T13:27:11.021Z</time></trkpt><trkpt lat="42.7350103" lon="12.2910065"><ele>235.66666666666666</ele><time>2026-04-12T13:27:12.026Z</time></trkpt><trkpt lat="42.7350325" lon="12.2912335"><ele>238.0</ele><time>2026-04-12T13:27:13.021Z</time></trkpt><trkpt lat="42.7350648" lon="12.2914764"><ele>239.33333333333331</ele><time>2026-04-12T13:27:14.021Z</time></trkpt><trkpt lat="42.7351671" lon="12.2917222"><ele>240.66666666666669</ele><time>2026-04-12T13:27:15.024Z</time></trkpt><trkpt lat="42.7352581" lon="12.2919313"><ele>242.0</ele><time>2026-04-12T13:27:16.023Z</time></trkpt><trkpt lat="42.7352773" lon="12.2921743"><ele>226.66666666666669</ele><time>2026-04-12T13:27:17.024Z</time></trkpt><trkpt lat="42.7353" lon="12.2924094"><ele>211.33333333333331</ele><time>2026-04-12T13:27:18.022Z</time></trkpt><trkpt lat="42.7352935" lon="12.2926605"><ele>196.0</ele><time>2026-04-12T13:27:19.028Z</time></trkpt><trkpt lat="42.7352345" lon="12.2929334"><ele>211.33333333333331</ele><time>2026-04-12T13:27:20.024Z</time></trkpt><trkpt lat="42.7351825" lon="12.293206"><ele>226.66666666666669</ele><time>2026-04-12T13:27:21.027Z</time></trkpt><trkpt lat="42.7351448" lon="12.2934699"><ele>242.0</ele><time>2026-04-12T13:27:22.021Z</time></trkpt><trkpt lat="42.7351387" lon="12.2937109"><ele>236.33333333333334</ele><time>2026-04-12T13:27:23.025Z</time></trkpt><trkpt lat="42.735144" lon="12.2939378"><ele>230.66666666666669</ele><time>2026-04-12T13:27:24.024Z</time></trkpt><trkpt lat="42.735121" lon="12.2941514"><ele>225.0</ele><time>2026-04-12T13:27:25.023Z</time></trkpt><trkpt lat="42.7350558" lon="12.2943501"><ele>225.0</ele><time>2026-04-12T13:27:26.021Z</time></trkpt><trkpt lat="42.734954" lon="12.29453"><ele>225.0</ele><time>2026-04-12T13:27:27.028Z</time></trkpt><trkpt lat="42.7348557" lon="12.2947033"><ele>225.0</ele><time>2026-04-12T13:27:28.023Z</time></trkpt><trkpt lat="42.7348029" lon="12.2949013"><ele>221.33333333333331</ele><time>2026-04-12T13:27:29.022Z</time></trkpt><trkpt lat="42.7347957" lon="12.2951392"><ele>217.66666666666666</ele><time>2026-04-12T13:27:30.025Z</time></trkpt><trkpt lat="42.7347907" lon="12.2953726"><ele>214.0</ele><time>2026-04-12T13:27:31.024Z</time></trkpt><trkpt lat="42.7348105" lon="12.2955996"><ele>213.0</ele><time>2026-04-12T13:27:32.023Z</time></trkpt><trkpt lat="42.7348321" lon="12.2958035"><ele>212.0</ele><time>2026-04-12T13:27:33.023Z</time></trkpt><trkpt lat="42.7348467" lon="12.2959857"><ele>211.0</ele><time>2026-04-12T13:27:34.019Z</time></trkpt><trkpt lat="42.7348652" lon="12.2961448"><ele>210.0</ele><time>2026-04-12T13:27:35.023Z</time></trkpt><trkpt lat="42.7348854" lon="12.2962937"><ele>211.2</ele><time>2026-04-12T13:27:36.026Z</time></trkpt><trkpt lat="42.7349148" lon="12.2964403"><ele>212.4</ele><time>2026-04-12T13:27:37.025Z</time></trkpt><trkpt lat="42.734945" lon="12.2965876"><ele>213.60000000000002</ele><time>2026-04-12T13:27:38.026Z</time></trkpt><trkpt lat="42.7349763" lon="12.2967388"><ele>214.8</ele><time>2026-04-12T13:27:39.03Z</time></trkpt><trkpt lat="42.7350046" lon="12.2968822"><ele>216.0</ele><time>2026-04-12T13:27:40.028Z</time></trkpt><trkpt lat="42.7350197" lon="12.2970256"><ele>216.0</ele><time>2026-04-12T13:27:41.025Z</time></trkpt><trkpt lat="42.7350168" lon="12.2971799"><ele>216.0</ele><time>2026-04-12T13:27:42.027Z</time></trkpt><trkpt lat="42.7349892" lon="12.297345"><ele>216.0</ele><time>2026-04-12T13:27:43.026Z</time></trkpt><trkpt lat="42.7349463" lon="12.2975021"><ele>216.0</ele><time>2026-04-12T13:27:44.022Z</time></trkpt><trkpt lat="42.7348836" lon="12.2976487"><ele>215.25</ele><time>2026-04-12T13:27:45.028Z</time></trkpt><trkpt lat="42.734805" lon="12.2977878"><ele>214.5</ele><time>2026-04-12T13:27:46.027Z</time></trkpt><trkpt lat="42.734731" lon="12.2979248"><ele>213.75</ele><time>2026-04-12T13:27:47.029Z</time></trkpt><trkpt lat="42.7346818" lon="12.2980687"><ele>213.0</ele><time>2026-04-12T13:27:48.03Z</time></trkpt><trkpt lat="42.7346668" lon="12.2982257"><ele>211.0</ele><time>2026-04-12T13:27:49.033Z</time></trkpt><trkpt lat="42.7346907" lon="12.2983905"><ele>209.0</ele><time>2026-04-12T13:27:50.029Z</time></trkpt><trkpt lat="42.7347343" lon="12.2985523"><ele>207.0</ele><time>2026-04-12T13:27:51.023Z</time></trkpt><trkpt lat="42.7347759" lon="12.2987048"><ele>205.0</ele><time>2026-04-12T13:27:52.029Z</time></trkpt><trkpt lat="42.7347877" lon="12.2988611"><ele>203.75</ele><time>2026-04-12T13:27:53.025Z</time></trkpt><trkpt lat="42.7347712" lon="12.2990269"><ele>202.5</ele><time>2026-04-12T13:27:54.031Z</time></trkpt><trkpt lat="42.734702" lon="12.2992089"><ele>201.25</ele><time>2026-04-12T13:27:55.028Z</time></trkpt><trkpt lat="42.7346133" lon="12.2993701"><ele>200.0</ele><time>2026-04-12T13:27:56.028Z</time></trkpt><trkpt lat="42.7345199" lon="12.2995124"><ele>200.0</ele><time>2026-04-12T13:27:57.042Z</time></trkpt><trkpt lat="42.7344302" lon="12.2996431"><ele>200.0</ele><time>2026-04-12T13:27:58.025Z</time></trkpt><trkpt lat="42.7343414" lon="12.2997666"><ele>200.0</ele><time>2026-04-12T13:27:59.035Z</time></trkpt><trkpt lat="42.7342462" lon="12.2998823"><ele>200.0</ele><time>2026-04-12T13:28:00.026Z</time></trkpt><trkpt lat="42.7341383" lon="12.299981"><ele>200.75</ele><time>2026-04-12T13:28:01.025Z</time></trkpt><trkpt lat="42.7340248" lon="12.3000536"><ele>201.5</ele><time>2026-04-12T13:28:02.027Z</time></trkpt><trkpt lat="42.733915" lon="12.300122"><ele>202.25</ele><time>2026-04-12T13:28:03.032Z</time></trkpt><trkpt lat="42.7338059" lon="12.3001837"><ele>203.0</ele><time>2026-04-12T13:28:04.025Z</time></trkpt><trkpt lat="42.7336969" lon="12.3002721"><ele>203.0</ele><time>2026-04-12T13:28:05.026Z</time></trkpt><trkpt lat="42.7336026" lon="12.3004028"><ele>203.0</ele><time>2026-04-12T13:28:06.025Z</time></trkpt><trkpt lat="42.7335264" lon="12.3005786"><ele>203.0</ele><time>2026-04-12T13:28:07.027Z</time></trkpt><trkpt lat="42.7334693" lon="12.3007533"><ele>203.0</ele><time>2026-04-12T13:28:08.027Z</time></trkpt><trkpt lat="42.7334208" lon="12.3009128"><ele>205.5</ele><time>2026-04-12T13:28:09.028Z</time></trkpt><trkpt lat="42.7333709" lon="12.3010584"><ele>208.0</ele><time>2026-04-12T13:28:10.026Z</time></trkpt><trkpt lat="42.7333186" lon="12.3011942"><ele>210.5</ele><time>2026-04-12T13:28:11.031Z</time></trkpt><trkpt lat="42.7332528" lon="12.3013222"><ele>213.0</ele><time>2026-04-12T13:28:12.03Z</time></trkpt><trkpt lat="42.7331827" lon="12.3014398"><ele>210.75</ele><time>2026-04-12T13:28:13.023Z</time></trkpt><trkpt lat="42.7330858" lon="12.3015187"><ele>208.5</ele><time>2026-04-12T13:28:14.027Z</time></trkpt><trkpt lat="42.7329726" lon="12.3015989"><ele>206.25</ele><time>2026-04-12T13:28:15.031Z</time></trkpt><trkpt lat="42.7328276" lon="12.3016655"><ele>204.0</ele><time>2026-04-12T13:28:16.027Z</time></trkpt><trkpt lat="42.7326545" lon="12.3017199"><ele>204.0</ele><time>2026-04-12T13:28:17.028Z</time></trkpt><trkpt lat="42.7324776" lon="12.3017472"><ele>204.0</ele><time>2026-04-12T13:28:18.03Z</time></trkpt><trkpt lat="42.7323237" lon="12.301764"><ele>204.0</ele><time>2026-04-12T13:28:19.027Z</time></trkpt><trkpt lat="42.7321985" lon="12.3017894"><ele>204.0</ele><time>2026-04-12T13:28:20.027Z</time></trkpt><trkpt lat="42.7320862" lon="12.3018477"><ele>204.0</ele><time>2026-04-12T13:28:21.024Z</time></trkpt><trkpt lat="42.731983" lon="12.3019577"><ele>204.0</ele><time>2026-04-12T13:28:22.024Z</time></trkpt><trkpt lat="42.7318973" lon="12.3021157"><ele>204.0</ele><time>2026-04-12T13:28:23.024Z</time></trkpt><trkpt lat="42.7318334" lon="12.3023165"><ele>204.0</ele><time>2026-04-12T13:28:24.025Z</time></trkpt><trkpt lat="42.731796" lon="12.3025205"><ele>204.0</ele><time>2026-04-12T13:28:25.027Z</time></trkpt><trkpt lat="42.7317714" lon="12.3027097"><ele>204.0</ele><time>2026-04-12T13:28:26.028Z</time></trkpt><trkpt lat="42.7317465" lon="12.3028848"><ele>204.0</ele><time>2026-04-12T13:28:27.023Z</time></trkpt><trkpt lat="42.7317033" lon="12.3030524"><ele>199.75</ele><time>2026-04-12T13:28:28.03Z</time></trkpt><trkpt lat="42.7316112" lon="12.3031964"><ele>195.5</ele><time>2026-04-12T13:28:29.022Z</time></trkpt><trkpt lat="42.7314903" lon="12.303299"><ele>191.25</ele><time>2026-04-12T13:28:30.024Z</time></trkpt><trkpt lat="42.7313738" lon="12.3033808"><ele>187.0</ele><time>2026-04-12T13:28:31.024Z</time></trkpt><trkpt lat="42.7312639" lon="12.3034608"><ele>187.0</ele><time>2026-04-12T13:28:32.029Z</time></trkpt><trkpt lat="42.731159" lon="12.3035612"><ele>187.0</ele><time>2026-04-12T13:28:33.026Z</time></trkpt><trkpt lat="42.7310726" lon="12.303695"><ele>187.0</ele><time>2026-04-12T13:28:34.027Z</time></trkpt><trkpt lat="42.7310109" lon="12.3038615"><ele>187.0</ele><time>2026-04-12T13:28:35.025Z</time></trkpt><trkpt lat="42.7309685" lon="12.3040401"><ele>195.66666666666669</ele><time>2026-04-12T13:28:36.024Z</time></trkpt><trkpt lat="42.7309259" lon="12.304223"><ele>204.33333333333334</ele><time>2026-04-12T13:28:37.023Z</time></trkpt><trkpt lat="42.7309013" lon="12.3044425"><ele>213.0</ele><time>2026-04-12T13:28:38.028Z</time></trkpt><trkpt lat="42.7308727" lon="12.3046988"><ele>207.0</ele><time>2026-04-12T13:28:39.027Z</time></trkpt><trkpt lat="42.7308303" lon="12.3050015"><ele>201.0</ele><time>2026-04-12T13:28:40.024Z</time></trkpt><trkpt lat="42.7307901" lon="12.3053241"><ele>197.5</ele><time>2026-04-12T13:28:41.028Z</time></trkpt><trkpt lat="42.7307537" lon="12.3056652"><ele>194.0</ele><time>2026-04-12T13:28:42.026Z</time></trkpt><trkpt lat="42.7307687" lon="12.3060162"><ele>194.0</ele><time>2026-04-12T13:28:43.022Z</time></trkpt><trkpt lat="42.7307872" lon="12.3063408"><ele>194.0</ele><time>2026-04-12T13:28:44.023Z</time></trkpt><trkpt lat="42.7307855" lon="12.3066471"><ele>192.66666666666669</ele><time>2026-04-12T13:28:45.021Z</time></trkpt><trkpt lat="42.7307243" lon="12.3069505"><ele>191.33333333333334</ele><time>2026-04-12T13:28:46.023Z</time></trkpt><trkpt lat="42.7306424" lon="12.307209"><ele>190.0</ele><time>2026-04-12T13:28:47.021Z</time></trkpt><trkpt lat="42.7306443" lon="12.3074455"><ele>184.0</ele><time>2026-04-12T13:28:48.023Z</time></trkpt><trkpt lat="42.7307298" lon="12.3076473"><ele>178.0</ele><time>2026-04-12T13:28:49.024Z</time></trkpt><trkpt lat="42.7305859" lon="12.3077858"><ele>172.0</ele><time>2026-04-12T13:28:50.019Z</time></trkpt><trkpt lat="42.7303921" lon="12.3078822"><ele>170.0</ele><time>2026-04-12T13:28:51.047Z</time></trkpt><trkpt lat="42.7301855" lon="12.3079619"><ele>168.0</ele><time>2026-04-12T13:28:52.023Z</time></trkpt><trkpt lat="42.7299825" lon="12.308053"><ele>166.0</ele><time>2026-04-12T13:28:53.023Z</time></trkpt><trkpt lat="42.7297816" lon="12.3081296"><ele>166.0</ele><time>2026-04-12T13:28:54.023Z</time></trkpt><trkpt lat="42.7296068" lon="12.3082271"><ele>166.0</ele><time>2026-04-12T13:28:55.031Z</time></trkpt><trkpt lat="42.7294552" lon="12.3083681"><ele>166.0</ele><time>2026-04-12T13:28:56.024Z</time></trkpt><trkpt lat="42.7293198" lon="12.308557"><ele>164.66666666666669</ele><time>2026-04-12T13:28:57.025Z</time></trkpt><trkpt lat="42.7292132" lon="12.3087699"><ele>163.33333333333334</ele><time>2026-04-12T13:28:58.026Z</time></trkpt><trkpt lat="42.7291244" lon="12.3089634"><ele>162.0</ele><time>2026-04-12T13:28:59.034Z</time></trkpt><trkpt lat="42.7290663" lon="12.3091396"><ele>165.75</ele><time>2026-04-12T13:29:00.023Z</time></trkpt><trkpt lat="42.729064" lon="12.3093313"><ele>169.5</ele><time>2026-04-12T13:29:01.025Z</time></trkpt><trkpt lat="42.7291147" lon="12.3095143"><ele>173.25</ele><time>2026-04-12T13:29:02.025Z</time></trkpt><trkpt lat="42.7291714" lon="12.3097033"><ele>177.0</ele><time>2026-04-12T13:29:03.024Z</time></trkpt><trkpt lat="42.7293307" lon="12.3098301"><ele>178.0</ele><time>2026-04-12T13:29:04.026Z</time></trkpt><trkpt lat="42.7295257" lon="12.3099129"><ele>179.0</ele><time>2026-04-12T13:29:05.028Z</time></trkpt><trkpt lat="42.7297431" lon="12.3100139"><ele>180.0</ele><time>2026-04-12T13:29:06.023Z</time></trkpt><trkpt lat="42.7299511" lon="12.3101255"><ele>180.0</ele><time>2026-04-12T13:29:07.023Z</time></trkpt><trkpt lat="42.7301652" lon="12.3102826"><ele>180.0</ele><time>2026-04-12T13:29:08.022Z</time></trkpt><trkpt lat="42.7303861" lon="12.3104381"><ele>183.5</ele><time>2026-04-12T13:29:09.022Z</time></trkpt><trkpt lat="42.7306384" lon="12.3105607"><ele>187.0</ele><time>2026-04-12T13:29:10.025Z</time></trkpt><trkpt lat="42.730902" lon="12.3106645"><ele>183.0</ele><time>2026-04-12T13:29:11.025Z</time></trkpt><trkpt lat="42.7311521" lon="12.3107798"><ele>179.0</ele><time>2026-04-12T13:29:12.028Z</time></trkpt><trkpt lat="42.7313987" lon="12.3108776"><ele>179.0</ele><time>2026-04-12T13:29:13.024Z</time></trkpt><trkpt lat="42.7316183" lon="12.3109726"><ele>179.0</ele><time>2026-04-12T13:29:14.025Z</time></trkpt><trkpt lat="42.7318284" lon="12.3110653"><ele>169.66666666666666</ele><time>2026-04-12T13:29:15.019Z</time></trkpt><trkpt lat="42.7320299" lon="12.311131"><ele>160.33333333333334</ele><time>2026-04-12T13:29:16.023Z</time></trkpt><trkpt lat="42.7321607" lon="12.3112076"><ele>151.0</ele><time>2026-04-12T13:29:17.023Z</time></trkpt><trkpt lat="42.7323056" lon="12.3112571"><ele>151.0</ele><time>2026-04-12T13:29:18.024Z</time></trkpt><trkpt lat="42.7324243" lon="12.311353"><ele>151.0</ele><time>2026-04-12T13:29:19.02Z</time></trkpt><trkpt lat="42.7324832" lon="12.3115139"><ele>151.0</ele><time>2026-04-12T13:29:20.027Z</time></trkpt><trkpt lat="42.7324944" lon="12.3117048"><ele>151.0</ele><time>2026-04-12T13:29:21.028Z</time></trkpt><trkpt lat="42.7324938" lon="12.3119146"><ele>156.0</ele><time>2026-04-12T13:29:22.023Z</time></trkpt><trkpt lat="42.7325323" lon="12.3121694"><ele>161.0</ele><time>2026-04-12T13:29:23.024Z</time></trkpt><trkpt lat="42.7327228" lon="12.3126551"><ele>161.0</ele><time>2026-04-12T13:29:25.022Z</time></trkpt><trkpt lat="42.7329565" lon="12.3127876"><ele>161.0</ele><time>2026-04-12T13:29:26.022Z</time></trkpt><trkpt lat="42.7332479" lon="12.312866"><ele>161.0</ele><time>2026-04-12T13:29:27.025Z</time></trkpt><trkpt lat="42.7334839" lon="12.3129589"><ele>161.0</ele><time>2026-04-12T13:29:28.029Z</time></trkpt><trkpt lat="42.7337101" lon="12.3130599"><ele>159.0</ele><time>2026-04-12T13:29:29.02Z</time></trkpt><trkpt lat="42.7338753" lon="12.3131922"><ele>157.0</ele><time>2026-04-12T13:29:30.029Z</time></trkpt><trkpt lat="42.7339793" lon="12.3133671"><ele>155.0</ele><time>2026-04-12T13:29:31.022Z</time></trkpt><trkpt lat="42.7340312" lon="12.3135851"><ele>155.0</ele><time>2026-04-12T13:29:32.026Z</time></trkpt><trkpt lat="42.7340317" lon="12.3138522"><ele>155.0</ele><time>2026-04-12T13:29:33.023Z</time></trkpt><trkpt lat="42.734011" lon="12.3141395"><ele>155.0</ele><time>2026-04-12T13:29:34.028Z</time></trkpt><trkpt lat="42.7340131" lon="12.3144399"><ele>163.0</ele><time>2026-04-12T13:29:35.021Z</time></trkpt><trkpt lat="42.7340657" lon="12.3147458"><ele>171.0</ele><time>2026-04-12T13:29:36.029Z</time></trkpt><trkpt lat="42.7341673" lon="12.3150234"><ele>171.0</ele><time>2026-04-12T13:29:37.027Z</time></trkpt><trkpt lat="42.7342929" lon="12.3152916"><ele>171.0</ele><time>2026-04-12T13:29:38.03Z</time></trkpt><trkpt lat="42.7344229" lon="12.3155521"><ele>168.33333333333334</ele><time>2026-04-12T13:29:39.028Z</time></trkpt><trkpt lat="42.7345647" lon="12.3157829"><ele>165.66666666666669</ele><time>2026-04-12T13:29:40.027Z</time></trkpt><trkpt lat="42.7347333" lon="12.3159631"><ele>163.0</ele><time>2026-04-12T13:29:41.028Z</time></trkpt><trkpt lat="42.7349179" lon="12.3160767"><ele>163.0</ele><time>2026-04-12T13:29:42.025Z</time></trkpt><trkpt lat="42.7350952" lon="12.3161519"><ele>163.0</ele><time>2026-04-12T13:29:43.028Z</time></trkpt><trkpt lat="42.7352516" lon="12.3162187"><ele>163.0</ele><time>2026-04-12T13:29:44.027Z</time></trkpt><trkpt lat="42.7353938" lon="12.3162799"><ele>164.0</ele><time>2026-04-12T13:29:45.029Z</time></trkpt><trkpt lat="42.7355162" lon="12.3163258"><ele>165.0</ele><time>2026-04-12T13:29:46.026Z</time></trkpt><trkpt lat="42.7356177" lon="12.3163674"><ele>166.0</ele><time>2026-04-12T13:29:47.027Z</time></trkpt><trkpt lat="42.7357058" lon="12.3163989"><ele>167.0</ele><time>2026-04-12T13:29:48.026Z</time></trkpt><trkpt lat="42.7357783" lon="12.3164239"><ele>168.0</ele><time>2026-04-12T13:29:49.028Z</time></trkpt><trkpt lat="42.7358788" lon="12.3164087"><ele>165.8</ele><time>2026-04-12T13:29:51.028Z</time></trkpt><trkpt lat="42.7358986" lon="12.3163057"><ele>163.60000000000002</ele><time>2026-04-12T13:29:54.036Z</time></trkpt><trkpt lat="42.7358469" lon="12.3162347"><ele>161.39999999999998</ele><time>2026-04-12T13:29:57.024Z</time></trkpt><trkpt lat="42.7357341" lon="12.3161505"><ele>159.2</ele><time>2026-04-12T13:30:12.031Z</time></trkpt><trkpt lat="42.7356585" lon="12.3161172"><ele>157.0</ele><time>2026-04-12T13:30:14.027Z</time></trkpt><trkpt lat="42.7355638" lon="12.3160984"><ele>157.0</ele><time>2026-04-12T13:30:16.03Z</time></trkpt><trkpt lat="42.7354938" lon="12.3161638"><ele>157.0</ele><time>2026-04-12T13:30:19.026Z</time></trkpt><trkpt lat="42.735504" lon="12.316263"><ele>157.0</ele><time>2026-04-12T13:30:28.023Z</time></trkpt><trkpt lat="42.7355888" lon="12.3163514"><ele>157.0</ele><time>2026-04-12T13:30:30.028Z</time></trkpt><trkpt lat="42.7356646" lon="12.3163934"><ele>157.0</ele><time>2026-04-12T13:30:31.032Z</time></trkpt><trkpt lat="42.735757" lon="12.3164352"><ele>157.0</ele><time>2026-04-12T13:30:32.03Z</time></trkpt><trkpt lat="42.7358612" lon="12.3164768"><ele>157.75</ele><time>2026-04-12T13:30:33.027Z</time></trkpt><trkpt lat="42.7359756" lon="12.3165201"><ele>158.5</ele><time>2026-04-12T13:30:34.03Z</time></trkpt><trkpt lat="42.7360989" lon="12.3165649"><ele>159.25</ele><time>2026-04-12T13:30:35.029Z</time></trkpt><trkpt lat="42.7362305" lon="12.3166123"><ele>160.0</ele><time>2026-04-12T13:30:36.025Z</time></trkpt><trkpt lat="42.7363702" lon="12.3166633"><ele>160.0</ele><time>2026-04-12T13:30:37.028Z</time></trkpt><trkpt lat="42.7365172" lon="12.3167162"><ele>160.0</ele><time>2026-04-12T13:30:38.024Z</time></trkpt><trkpt lat="42.7366713" lon="12.3167661"><ele>160.0</ele><time>2026-04-12T13:30:39.025Z</time></trkpt><trkpt lat="42.7368363" lon="12.3168106"><ele>157.66666666666669</ele><time>2026-04-12T13:30:40.033Z</time></trkpt><trkpt lat="42.7370091" lon="12.3168438"><ele>155.33333333333334</ele><time>2026-04-12T13:30:41.029Z</time></trkpt><trkpt lat="42.7371797" lon="12.31686"><ele>153.0</ele><time>2026-04-12T13:30:42.027Z</time></trkpt><trkpt lat="42.7373483" lon="12.3168479"><ele>153.0</ele><time>2026-04-12T13:30:43.033Z</time></trkpt><trkpt lat="42.737514" lon="12.3167899"><ele>153.0</ele><time>2026-04-12T13:30:44.027Z</time></trkpt><trkpt lat="42.7376724" lon="12.3166834"><ele>153.0</ele><time>2026-04-12T13:30:45.03Z</time></trkpt><trkpt lat="42.7378223" lon="12.3165406"><ele>151.0</ele><time>2026-04-12T13:30:46.028Z</time></trkpt><trkpt lat="42.7379797" lon="12.3163825"><ele>149.0</ele><time>2026-04-12T13:30:47.029Z</time></trkpt><trkpt lat="42.7381524" lon="12.3162422"><ele>147.0</ele><time>2026-04-12T13:30:48.025Z</time></trkpt><trkpt lat="42.7383301" lon="12.3161356"><ele>147.0</ele><time>2026-04-12T13:30:49.028Z</time></trkpt><trkpt lat="42.738511" lon="12.3160746"><ele>147.0</ele><time>2026-04-12T13:30:50.025Z</time></trkpt><trkpt lat="42.7386968" lon="12.3160594"><ele>147.0</ele><time>2026-04-12T13:30:51.027Z</time></trkpt><trkpt lat="42.7388845" lon="12.3160913"><ele>147.0</ele><time>2026-04-12T13:30:52.031Z</time></trkpt><trkpt lat="42.7390732" lon="12.3161427"><ele>147.0</ele><time>2026-04-12T13:30:53.026Z</time></trkpt><trkpt lat="42.7392449" lon="12.3162815"><ele>147.0</ele><time>2026-04-12T13:30:54.03Z</time></trkpt><trkpt lat="42.7394043" lon="12.3164494"><ele>145.33333333333334</ele><time>2026-04-12T13:30:55.027Z</time></trkpt><trkpt lat="42.7395401" lon="12.3166488"><ele>143.66666666666669</ele><time>2026-04-12T13:30:56.025Z</time></trkpt><trkpt lat="42.7396525" lon="12.3168704"><ele>142.0</ele><time>2026-04-12T13:30:57.027Z</time></trkpt><trkpt lat="42.7397294" lon="12.3171136"><ele>142.66666666666669</ele><time>2026-04-12T13:30:58.027Z</time></trkpt><trkpt lat="42.7397712" lon="12.317379"><ele>143.33333333333334</ele><time>2026-04-12T13:30:59.028Z</time></trkpt><trkpt lat="42.7397938" lon="12.3176581"><ele>144.0</ele><time>2026-04-12T13:31:00.025Z</time></trkpt><trkpt lat="42.7398086" lon="12.3179467"><ele>143.66666666666666</ele><time>2026-04-12T13:31:01.035Z</time></trkpt><trkpt lat="42.7398273" lon="12.3182368"><ele>143.33333333333331</ele><time>2026-04-12T13:31:02.027Z</time></trkpt><trkpt lat="42.7398446" lon="12.3185136"><ele>143.0</ele><time>2026-04-12T13:31:03.026Z</time></trkpt><trkpt lat="42.7398583" lon="12.3187763"><ele>143.33333333333331</ele><time>2026-04-12T13:31:04.028Z</time></trkpt><trkpt lat="42.7398712" lon="12.319027"><ele>143.66666666666666</ele><time>2026-04-12T13:31:05.033Z</time></trkpt><trkpt lat="42.7398953" lon="12.3192626"><ele>144.0</ele><time>2026-04-12T13:31:06.027Z</time></trkpt><trkpt lat="42.7399531" lon="12.3194778"><ele>144.0</ele><time>2026-04-12T13:31:07.029Z</time></trkpt><trkpt lat="42.7400283" lon="12.3196845"><ele>144.0</ele><time>2026-04-12T13:31:08.026Z</time></trkpt><trkpt lat="42.7401884" lon="12.3198373"><ele>144.0</ele><time>2026-04-12T13:31:09.032Z</time></trkpt><trkpt lat="42.7403594" lon="12.3199883"><ele>144.0</ele><time>2026-04-12T13:31:10.025Z</time></trkpt><trkpt lat="42.7405723" lon="12.3200959"><ele>144.0</ele><time>2026-04-12T13:31:11.025Z</time></trkpt><trkpt lat="42.7407888" lon="12.320231"><ele>144.0</ele><time>2026-04-12T13:31:12.024Z</time></trkpt><trkpt lat="42.7410028" lon="12.3204005"><ele>144.0</ele><time>2026-04-12T13:31:13.026Z</time></trkpt><trkpt lat="42.7411654" lon="12.3206457"><ele>142.66666666666666</ele><time>2026-04-12T13:31:14.03Z</time></trkpt><trkpt lat="42.7412955" lon="12.3208967"><ele>141.33333333333331</ele><time>2026-04-12T13:31:15.032Z</time></trkpt><trkpt lat="42.7413895" lon="12.321135"><ele>140.0</ele><time>2026-04-12T13:31:16.029Z</time></trkpt><trkpt lat="42.7414713" lon="12.3213454"><ele>143.33333333333331</ele><time>2026-04-12T13:31:17.031Z</time></trkpt><trkpt lat="42.7415463" lon="12.3215323"><ele>146.66666666666666</ele><time>2026-04-12T13:31:18.024Z</time></trkpt><trkpt lat="42.7416616" lon="12.3216486"><ele>150.0</ele><time>2026-04-12T13:31:19.03Z</time></trkpt><trkpt lat="42.7418387" lon="12.3216652"><ele>145.66666666666666</ele><time>2026-04-12T13:31:20.026Z</time></trkpt><trkpt lat="42.7420263" lon="12.3217025"><ele>141.33333333333331</ele><time>2026-04-12T13:31:21.023Z</time></trkpt><trkpt lat="42.7422267" lon="12.3218056"><ele>137.0</ele><time>2026-04-12T13:31:22.028Z</time></trkpt><trkpt lat="42.7424056" lon="12.3219908"><ele>137.0</ele><time>2026-04-12T13:31:23.031Z</time></trkpt><trkpt lat="42.7425766" lon="12.3221751"><ele>137.0</ele><time>2026-04-12T13:31:24.029Z</time></trkpt><trkpt lat="42.742741" lon="12.3223431"><ele>137.0</ele><time>2026-04-12T13:31:25.028Z</time></trkpt><trkpt lat="42.7429206" lon="12.3224986"><ele>137.66666666666666</ele><time>2026-04-12T13:31:26.03Z</time></trkpt><trkpt lat="42.7431069" lon="12.3226312"><ele>138.33333333333334</ele><time>2026-04-12T13:31:27.024Z</time></trkpt><trkpt lat="42.7433076" lon="12.3227426"><ele>139.0</ele><time>2026-04-12T13:31:28.029Z</time></trkpt><trkpt lat="42.7435161" lon="12.3228497"><ele>137.0</ele><time>2026-04-12T13:31:29.026Z</time></trkpt><trkpt lat="42.7437243" lon="12.3229803"><ele>135.0</ele><time>2026-04-12T13:31:30.031Z</time></trkpt><trkpt lat="42.7439216" lon="12.3231441"><ele>140.0</ele><time>2026-04-12T13:31:31.03Z</time></trkpt><trkpt lat="42.7441062" lon="12.3233479"><ele>145.0</ele><time>2026-04-12T13:31:32.035Z</time></trkpt><trkpt lat="42.7442709" lon="12.3235891"><ele>141.5</ele><time>2026-04-12T13:31:33.024Z</time></trkpt><trkpt lat="42.7444205" lon="12.3238593"><ele>138.0</ele><time>2026-04-12T13:31:34.023Z</time></trkpt><trkpt lat="42.7445741" lon="12.3241347"><ele>138.0</ele><time>2026-04-12T13:31:35.027Z</time></trkpt><trkpt lat="42.7447457" lon="12.3244013"><ele>138.0</ele><time>2026-04-12T13:31:36.036Z</time></trkpt><trkpt lat="42.7449318" lon="12.3246615"><ele>136.5</ele><time>2026-04-12T13:31:37.025Z</time></trkpt><trkpt lat="42.745126" lon="12.3249188"><ele>135.0</ele><time>2026-04-12T13:31:38.027Z</time></trkpt><trkpt lat="42.7453242" lon="12.3251763"><ele>135.0</ele><time>2026-04-12T13:31:39.027Z</time></trkpt><trkpt lat="42.7455268" lon="12.3254308"><ele>135.0</ele><time>2026-04-12T13:31:40.022Z</time></trkpt><trkpt lat="42.7457414" lon="12.3256731"><ele>136.0</ele><time>2026-04-12T13:31:41.027Z</time></trkpt><trkpt lat="42.7459663" lon="12.325899"><ele>137.0</ele><time>2026-04-12T13:31:42.027Z</time></trkpt><trkpt lat="42.7461909" lon="12.3261081"><ele>137.0</ele><time>2026-04-12T13:31:43.036Z</time></trkpt><trkpt lat="42.7464282" lon="12.3263061"><ele>137.0</ele><time>2026-04-12T13:31:44.027Z</time></trkpt><trkpt lat="42.7466567" lon="12.3265011"><ele>138.0</ele><time>2026-04-12T13:31:45.023Z</time></trkpt><trkpt lat="42.7468936" lon="12.3267029"><ele>139.0</ele><time>2026-04-12T13:31:46.029Z</time></trkpt><trkpt lat="42.7471239" lon="12.3268978"><ele>139.0</ele><time>2026-04-12T13:31:47.025Z</time></trkpt><trkpt lat="42.7473546" lon="12.3271002"><ele>139.0</ele><time>2026-04-12T13:31:48.028Z</time></trkpt><trkpt lat="42.7475865" lon="12.3272912"><ele>138.5</ele><time>2026-04-12T13:31:49.025Z</time></trkpt><trkpt lat="42.7478157" lon="12.3274789"><ele>138.0</ele><time>2026-04-12T13:31:50.027Z</time></trkpt><trkpt lat="42.7480317" lon="12.3276608"><ele>138.0</ele><time>2026-04-12T13:31:51.022Z</time></trkpt><trkpt lat="42.7482413" lon="12.3278299"><ele>138.0</ele><time>2026-04-12T13:31:52.025Z</time></trkpt><trkpt lat="42.7484349" lon="12.3279923"><ele>138.33333333333334</ele><time>2026-04-12T13:31:53.026Z</time></trkpt><trkpt lat="42.7486206" lon="12.328141"><ele>138.66666666666669</ele><time>2026-04-12T13:31:54.032Z</time></trkpt><trkpt lat="42.7487933" lon="12.3282956"><ele>139.0</ele><time>2026-04-12T13:31:55.024Z</time></trkpt><trkpt lat="42.7489517" lon="12.3284726"><ele>139.0</ele><time>2026-04-12T13:31:56.029Z</time></trkpt><trkpt lat="42.7490869" lon="12.328689"><ele>139.0</ele><time>2026-04-12T13:31:57.024Z</time></trkpt><trkpt lat="42.7491988" lon="12.3289444"><ele>139.0</ele><time>2026-04-12T13:31:58.022Z</time></trkpt><trkpt lat="42.7493027" lon="12.3292223"><ele>139.0</ele><time>2026-04-12T13:31:59.029Z</time></trkpt><trkpt lat="42.7494254" lon="12.3294919"><ele>139.0</ele><time>2026-04-12T13:32:00.025Z</time></trkpt><trkpt lat="42.7495766" lon="12.3297324"><ele>140.0</ele><time>2026-04-12T13:32:01.025Z</time></trkpt><trkpt lat="42.7497649" lon="12.329936"><ele>141.0</ele><time>2026-04-12T13:32:02.023Z</time></trkpt><trkpt lat="42.7499796" lon="12.3301164"><ele>141.0</ele><time>2026-04-12T13:32:03.027Z</time></trkpt><trkpt lat="42.7502004" lon="12.3303033"><ele>141.0</ele><time>2026-04-12T13:32:04.029Z</time></trkpt><trkpt lat="42.7504265" lon="12.330502"><ele>142.5</ele><time>2026-04-12T13:32:05.024Z</time></trkpt><trkpt lat="42.750655" lon="12.3306959"><ele>144.0</ele><time>2026-04-12T13:32:06.029Z</time></trkpt><trkpt lat="42.7508877" lon="12.3308956"><ele>144.5</ele><time>2026-04-12T13:32:07.028Z</time></trkpt><trkpt lat="42.7511191" lon="12.3310978"><ele>145.0</ele><time>2026-04-12T13:32:08.024Z</time></trkpt><trkpt lat="42.7513366" lon="12.3312867"><ele>149.0</ele><time>2026-04-12T13:32:09.032Z</time></trkpt><trkpt lat="42.7515445" lon="12.3314546"><ele>153.0</ele><time>2026-04-12T13:32:10.029Z</time></trkpt><trkpt lat="42.7517478" lon="12.3316133"><ele>152.5</ele><time>2026-04-12T13:32:11.025Z</time></trkpt><trkpt lat="42.7519514" lon="12.3317636"><ele>152.0</ele><time>2026-04-12T13:32:12.031Z</time></trkpt><trkpt lat="42.7521567" lon="12.3319103"><ele>152.0</ele><time>2026-04-12T13:32:13.031Z</time></trkpt><trkpt lat="42.7523628" lon="12.3320525"><ele>152.0</ele><time>2026-04-12T13:32:14.028Z</time></trkpt><trkpt lat="42.7525673" lon="12.3321919"><ele>153.66666666666666</ele><time>2026-04-12T13:32:15.024Z</time></trkpt><trkpt lat="42.7527721" lon="12.3323281"><ele>155.33333333333334</ele><time>2026-04-12T13:32:16.026Z</time></trkpt><trkpt lat="42.7529696" lon="12.3324621"><ele>157.0</ele><time>2026-04-12T13:32:17.029Z</time></trkpt><trkpt lat="42.7531524" lon="12.33259"><ele>157.0</ele><time>2026-04-12T13:32:18.03Z</time></trkpt><trkpt lat="42.7533242" lon="12.3327201"><ele>157.0</ele><time>2026-04-12T13:32:19.026Z</time></trkpt><trkpt lat="42.7534836" lon="12.3328633"><ele>157.0</ele><time>2026-04-12T13:32:20.028Z</time></trkpt><trkpt lat="42.7536286" lon="12.3330249"><ele>157.33333333333334</ele><time>2026-04-12T13:32:21.033Z</time></trkpt><trkpt lat="42.753763" lon="12.333216"><ele>157.66666666666666</ele><time>2026-04-12T13:32:22.028Z</time></trkpt><trkpt lat="42.7538889" lon="12.3334407"><ele>158.0</ele><time>2026-04-12T13:32:23.029Z</time></trkpt><trkpt lat="42.7540083" lon="12.3336971"><ele>165.0</ele><time>2026-04-12T13:32:24.034Z</time></trkpt><trkpt lat="42.7541228" lon="12.3339752"><ele>172.0</ele><time>2026-04-12T13:32:25.027Z</time></trkpt><trkpt lat="42.7542281" lon="12.3342541"><ele>172.0</ele><time>2026-04-12T13:32:26.024Z</time></trkpt><trkpt lat="42.754322" lon="12.3345182"><ele>172.0</ele><time>2026-04-12T13:32:27.029Z</time></trkpt><trkpt lat="42.7544061" lon="12.3347644"><ele>172.0</ele><time>2026-04-12T13:32:28.028Z</time></trkpt><trkpt lat="42.7544812" lon="12.3349962"><ele>172.33333333333334</ele><time>2026-04-12T13:32:29.024Z</time></trkpt><trkpt lat="42.7545517" lon="12.335214"><ele>172.66666666666666</ele><time>2026-04-12T13:32:30.026Z</time></trkpt><trkpt lat="42.7546229" lon="12.3354204"><ele>173.0</ele><time>2026-04-12T13:32:31.029Z</time></trkpt><trkpt lat="42.754697" lon="12.3356277"><ele>173.0</ele><time>2026-04-12T13:32:32.031Z</time></trkpt><trkpt lat="42.7547746" lon="12.3358441"><ele>173.0</ele><time>2026-04-12T13:32:33.031Z</time></trkpt><trkpt lat="42.7548595" lon="12.3360775"><ele>173.0</ele><time>2026-04-12T13:32:34.03Z</time></trkpt><trkpt lat="42.7549519" lon="12.3363307"><ele>175.66666666666666</ele><time>2026-04-12T13:32:35.031Z</time></trkpt><trkpt lat="42.7550475" lon="12.3365962"><ele>178.33333333333334</ele><time>2026-04-12T13:32:36.023Z</time></trkpt><trkpt lat="42.7551413" lon="12.3368657"><ele>181.0</ele><time>2026-04-12T13:32:37.023Z</time></trkpt><trkpt lat="42.7552295" lon="12.3371268"><ele>174.0</ele><time>2026-04-12T13:32:38.028Z</time></trkpt><trkpt lat="42.7553173" lon="12.3373852"><ele>167.0</ele><time>2026-04-12T13:32:39.031Z</time></trkpt><trkpt lat="42.7554076" lon="12.3376442"><ele>160.0</ele><time>2026-04-12T13:32:40.029Z</time></trkpt><trkpt lat="42.7554966" lon="12.3378973"><ele>164.66666666666669</ele><time>2026-04-12T13:32:41.025Z</time></trkpt><trkpt lat="42.7555824" lon="12.3381399"><ele>169.33333333333334</ele><time>2026-04-12T13:32:42.028Z</time></trkpt><trkpt lat="42.7556671" lon="12.3383836"><ele>174.0</ele><time>2026-04-12T13:32:43.022Z</time></trkpt><trkpt lat="42.7557527" lon="12.3386291"><ele>174.0</ele><time>2026-04-12T13:32:44.025Z</time></trkpt><trkpt lat="42.7558326" lon="12.3388586"><ele>174.0</ele><time>2026-04-12T13:32:45.021Z</time></trkpt><trkpt lat="42.755903" lon="12.3390666"><ele>174.0</ele><time>2026-04-12T13:32:46.024Z</time></trkpt><trkpt lat="42.75597" lon="12.3392629"><ele>169.66666666666666</ele><time>2026-04-12T13:32:47.029Z</time></trkpt><trkpt lat="42.7560375" lon="12.3394575"><ele>165.33333333333331</ele><time>2026-04-12T13:32:48.029Z</time></trkpt><trkpt lat="42.7561052" lon="12.3396502"><ele>161.0</ele><time>2026-04-12T13:32:49.027Z</time></trkpt><trkpt lat="42.7561735" lon="12.3398328"><ele>161.0</ele><time>2026-04-12T13:32:50.023Z</time></trkpt><trkpt lat="42.7562488" lon="12.3400129"><ele>161.0</ele><time>2026-04-12T13:32:51.03Z</time></trkpt><trkpt lat="42.7563401" lon="12.3401929"><ele>161.0</ele><time>2026-04-12T13:32:52.023Z</time></trkpt><trkpt lat="42.7564631" lon="12.3403856"><ele>167.5</ele><time>2026-04-12T13:32:53.027Z</time></trkpt><trkpt lat="42.7566184" lon="12.340592"><ele>174.0</ele><time>2026-04-12T13:32:54.024Z</time></trkpt><trkpt lat="42.7567937" lon="12.3408161"><ele>163.5</ele><time>2026-04-12T13:32:55.024Z</time></trkpt><trkpt lat="42.7569851" lon="12.341059"><ele>153.0</ele><time>2026-04-12T13:32:56.02Z</time></trkpt><trkpt lat="42.757191" lon="12.3413149"><ele>158.0</ele><time>2026-04-12T13:32:57.024Z</time></trkpt><trkpt lat="42.757403" lon="12.341582"><ele>163.0</ele><time>2026-04-12T13:32:58.026Z</time></trkpt><trkpt lat="42.7576035" lon="12.3418452"><ele>158.0</ele><time>2026-04-12T13:32:59.024Z</time></trkpt><trkpt lat="42.7577824" lon="12.3421119"><ele>153.0</ele><time>2026-04-12T13:33:00.024Z</time></trkpt><trkpt lat="42.7579311" lon="12.3423988"><ele>153.0</ele><time>2026-04-12T13:33:01.025Z</time></trkpt><trkpt lat="42.7580551" lon="12.3427122"><ele>153.0</ele><time>2026-04-12T13:33:02.023Z</time></trkpt><trkpt lat="42.7581499" lon="12.3430458"><ele>152.0</ele><time>2026-04-12T13:33:03.023Z</time></trkpt><trkpt lat="42.758214" lon="12.3433958"><ele>151.0</ele><time>2026-04-12T13:33:04.021Z</time></trkpt><trkpt lat="42.7582581" lon="12.3437583"><ele>150.0</ele><time>2026-04-12T13:33:05.03Z</time></trkpt><trkpt lat="42.7582933" lon="12.3441224"><ele>149.0</ele><time>2026-04-12T13:33:06.022Z</time></trkpt><trkpt lat="42.7583236" lon="12.3444669"><ele>148.5</ele><time>2026-04-12T13:33:07.021Z</time></trkpt><trkpt lat="42.7583487" lon="12.3447847"><ele>148.0</ele><time>2026-04-12T13:33:08.024Z</time></trkpt><trkpt lat="42.7583694" lon="12.3450766"><ele>148.0</ele><time>2026-04-12T13:33:09.021Z</time></trkpt><trkpt lat="42.7583893" lon="12.3453499"><ele>148.0</ele><time>2026-04-12T13:33:10.029Z</time></trkpt><trkpt lat="42.7584165" lon="12.3456042"><ele>148.0</ele><time>2026-04-12T13:33:11.024Z</time></trkpt><trkpt lat="42.7584539" lon="12.3458367"><ele>148.5</ele><time>2026-04-12T13:33:12.028Z</time></trkpt><trkpt lat="42.7585015" lon="12.3460477"><ele>149.0</ele><time>2026-04-12T13:33:13.026Z</time></trkpt><trkpt lat="42.7585544" lon="12.3462358"><ele>149.5</ele><time>2026-04-12T13:33:14.02Z</time></trkpt><trkpt lat="42.7586075" lon="12.3464061"><ele>150.0</ele><time>2026-04-12T13:33:15.024Z</time></trkpt><trkpt lat="42.7586559" lon="12.3465645"><ele>148.8</ele><time>2026-04-12T13:33:16.024Z</time></trkpt><trkpt lat="42.7587" lon="12.3467129"><ele>147.6</ele><time>2026-04-12T13:33:17.026Z</time></trkpt><trkpt lat="42.7587406" lon="12.3468496"><ele>146.4</ele><time>2026-04-12T13:33:18.028Z</time></trkpt><trkpt lat="42.7587728" lon="12.3469645"><ele>145.2</ele><time>2026-04-12T13:33:19.028Z</time></trkpt><trkpt lat="42.758799" lon="12.3470675"><ele>144.0</ele><time>2026-04-12T13:33:20.028Z</time></trkpt><trkpt lat="42.7588236" lon="12.3471635"><ele>144.4</ele><time>2026-04-12T13:33:21.027Z</time></trkpt><trkpt lat="42.7588533" lon="12.3472727"><ele>144.8</ele><time>2026-04-12T13:33:22.024Z</time></trkpt><trkpt lat="42.7588933" lon="12.3473942"><ele>145.2</ele><time>2026-04-12T13:33:23.028Z</time></trkpt><trkpt lat="42.7589435" lon="12.3475142"><ele>145.6</ele><time>2026-04-12T13:33:24.033Z</time></trkpt><trkpt lat="42.758999" lon="12.3476182"><ele>146.0</ele><time>2026-04-12T13:33:25.027Z</time></trkpt><trkpt lat="42.7590682" lon="12.3477158"><ele>146.0</ele><time>2026-04-12T13:33:26.028Z</time></trkpt><trkpt lat="42.7591528" lon="12.3478108"><ele>146.0</ele><time>2026-04-12T13:33:27.027Z</time></trkpt><trkpt lat="42.759247" lon="12.3479075"><ele>146.0</ele><time>2026-04-12T13:33:28.032Z</time></trkpt><trkpt lat="42.7593457" lon="12.3480069"><ele>146.0</ele><time>2026-04-12T13:33:29.029Z</time></trkpt><trkpt lat="42.7594469" lon="12.3481115"><ele>144.25</ele><time>2026-04-12T13:33:30.028Z</time></trkpt><trkpt lat="42.75955" lon="12.348224"><ele>142.5</ele><time>2026-04-12T13:33:31.037Z</time></trkpt><trkpt lat="42.7596517" lon="12.3483462"><ele>140.75</ele><time>2026-04-12T13:33:32.029Z</time></trkpt><trkpt lat="42.759751" lon="12.3484823"><ele>139.0</ele><time>2026-04-12T13:33:33.032Z</time></trkpt><trkpt lat="42.7598468" lon="12.3486317"><ele>139.0</ele><time>2026-04-12T13:33:34.031Z</time></trkpt><trkpt lat="42.7599419" lon="12.3487951"><ele>139.0</ele><time>2026-04-12T13:33:35.031Z</time></trkpt><trkpt lat="42.7600401" lon="12.348973"><ele>139.0</ele><time>2026-04-12T13:33:36.03Z</time></trkpt><trkpt lat="42.7601416" lon="12.3491628"><ele>140.0</ele><time>2026-04-12T13:33:37.028Z</time></trkpt><trkpt lat="42.7602448" lon="12.3493573"><ele>141.0</ele><time>2026-04-12T13:33:38.03Z</time></trkpt><trkpt lat="42.7603478" lon="12.3495607"><ele>142.0</ele><time>2026-04-12T13:33:39.027Z</time></trkpt><trkpt lat="42.7604557" lon="12.3497671"><ele>144.66666666666669</ele><time>2026-04-12T13:33:40.052Z</time></trkpt><trkpt lat="42.7605689" lon="12.3499796"><ele>147.33333333333334</ele><time>2026-04-12T13:33:41.036Z</time></trkpt><trkpt lat="42.7606827" lon="12.3501935"><ele>150.0</ele><time>2026-04-12T13:33:42.028Z</time></trkpt><trkpt lat="42.7607945" lon="12.3504062"><ele>149.33333333333334</ele><time>2026-04-12T13:33:43.034Z</time></trkpt><trkpt lat="42.7609018" lon="12.3506196"><ele>148.66666666666669</ele><time>2026-04-12T13:33:44.028Z</time></trkpt><trkpt lat="42.7610048" lon="12.3508227"><ele>148.0</ele><time>2026-04-12T13:33:45.032Z</time></trkpt><trkpt lat="42.761108" lon="12.3510191"><ele>148.0</ele><time>2026-04-12T13:33:46.035Z</time></trkpt><trkpt lat="42.7612135" lon="12.3512149"><ele>148.0</ele><time>2026-04-12T13:33:47.031Z</time></trkpt><trkpt lat="42.7613202" lon="12.3514182"><ele>148.0</ele><time>2026-04-12T13:33:48.026Z</time></trkpt><trkpt lat="42.7614284" lon="12.3516292"><ele>150.33333333333334</ele><time>2026-04-12T13:33:49.027Z</time></trkpt><trkpt lat="42.7615442" lon="12.3518455"><ele>152.66666666666666</ele><time>2026-04-12T13:33:50.033Z</time></trkpt><trkpt lat="42.7616612" lon="12.3520658"><ele>155.0</ele><time>2026-04-12T13:33:51.031Z</time></trkpt><trkpt lat="42.7617785" lon="12.3522915"><ele>151.33333333333331</ele><time>2026-04-12T13:33:52.026Z</time></trkpt><trkpt lat="42.7618961" lon="12.3525229"><ele>147.66666666666666</ele><time>2026-04-12T13:33:53.028Z</time></trkpt><trkpt lat="42.7620179" lon="12.3527597"><ele>144.0</ele><time>2026-04-12T13:33:54.038Z</time></trkpt><trkpt lat="42.762146" lon="12.352977"><ele>146.33333333333334</ele><time>2026-04-12T13:33:55.027Z</time></trkpt><trkpt lat="42.7622796" lon="12.3532075"><ele>148.66666666666669</ele><time>2026-04-12T13:33:56.026Z</time></trkpt><trkpt lat="42.7624097" lon="12.3534192"><ele>151.0</ele><time>2026-04-12T13:33:57.03Z</time></trkpt><trkpt lat="42.762534" lon="12.353607"><ele>151.0</ele><time>2026-04-12T13:33:58.027Z</time></trkpt><trkpt lat="42.7626479" lon="12.3537669"><ele>151.0</ele><time>2026-04-12T13:33:59.03Z</time></trkpt><trkpt lat="42.7627437" lon="12.3538938"><ele>151.0</ele><time>2026-04-12T13:34:00.032Z</time></trkpt><trkpt lat="42.7628308" lon="12.3540028"><ele>151.0</ele><time>2026-04-12T13:34:01.031Z</time></trkpt><trkpt lat="42.7629065" lon="12.3540984"><ele>151.0</ele><time>2026-04-12T13:34:02.028Z</time></trkpt><trkpt lat="42.7629721" lon="12.3541905"><ele>151.0</ele><time>2026-04-12T13:34:03.028Z</time></trkpt><trkpt lat="42.7630367" lon="12.3542836"><ele>151.0</ele><time>2026-04-12T13:34:04.029Z</time></trkpt><trkpt lat="42.7631048" lon="12.3543752"><ele>151.0</ele><time>2026-04-12T13:34:05.029Z</time></trkpt><trkpt lat="42.7631826" lon="12.3544837"><ele>151.0</ele><time>2026-04-12T13:34:06.032Z</time></trkpt><trkpt lat="42.7632709" lon="12.354593"><ele>150.5</ele><time>2026-04-12T13:34:07.029Z</time></trkpt><trkpt lat="42.7633613" lon="12.3547065"><ele>150.0</ele><time>2026-04-12T13:34:08.029Z</time></trkpt><trkpt lat="42.7634519" lon="12.3548192"><ele>149.5</ele><time>2026-04-12T13:34:09.027Z</time></trkpt><trkpt lat="42.7635462" lon="12.3549388"><ele>149.0</ele><time>2026-04-12T13:34:10.028Z</time></trkpt><trkpt lat="42.7636433" lon="12.355067"><ele>149.0</ele><time>2026-04-12T13:34:11.029Z</time></trkpt><trkpt lat="42.7637449" lon="12.3552031"><ele>149.0</ele><time>2026-04-12T13:34:12.03Z</time></trkpt><trkpt lat="42.7638554" lon="12.3553467"><ele>149.0</ele><time>2026-04-12T13:34:13.031Z</time></trkpt><trkpt lat="42.763975" lon="12.3554991"><ele>153.0</ele><time>2026-04-12T13:34:14.036Z</time></trkpt><trkpt lat="42.7641011" lon="12.3556602"><ele>157.0</ele><time>2026-04-12T13:34:15.027Z</time></trkpt><trkpt lat="42.7642303" lon="12.3558262"><ele>161.0</ele><time>2026-04-12T13:34:16.028Z</time></trkpt><trkpt lat="42.764363" lon="12.3560048"><ele>158.0</ele><time>2026-04-12T13:34:17.029Z</time></trkpt><trkpt lat="42.7644927" lon="12.3561905"><ele>155.0</ele><time>2026-04-12T13:34:18.028Z</time></trkpt><trkpt lat="42.764618" lon="12.356384"><ele>152.0</ele><time>2026-04-12T13:34:19.035Z</time></trkpt><trkpt lat="42.7647181" lon="12.3566009"><ele>152.0</ele><time>2026-04-12T13:34:20.029Z</time></trkpt><trkpt lat="42.7648005" lon="12.3568314"><ele>152.0</ele><time>2026-04-12T13:34:21.033Z</time></trkpt><trkpt lat="42.764863" lon="12.3570772"><ele>152.0</ele><time>2026-04-12T13:34:22.031Z</time></trkpt><trkpt lat="42.7649091" lon="12.3573346"><ele>155.0</ele><time>2026-04-12T13:34:23.026Z</time></trkpt><trkpt lat="42.7649423" lon="12.3575953"><ele>158.0</ele><time>2026-04-12T13:34:24.029Z</time></trkpt><trkpt lat="42.7649737" lon="12.3578577"><ele>161.0</ele><time>2026-04-12T13:34:25.026Z</time></trkpt><trkpt lat="42.7650054" lon="12.3581238"><ele>163.33333333333331</ele><time>2026-04-12T13:34:26.025Z</time></trkpt><trkpt lat="42.7650371" lon="12.3583971"><ele>165.66666666666666</ele><time>2026-04-12T13:34:27.028Z</time></trkpt><trkpt lat="42.7650701" lon="12.3586796"><ele>168.0</ele><time>2026-04-12T13:34:28.034Z</time></trkpt><trkpt lat="42.7651024" lon="12.3589736"><ele>168.33333333333334</ele><time>2026-04-12T13:34:29.025Z</time></trkpt><trkpt lat="42.765136" lon="12.3592718"><ele>168.66666666666669</ele><time>2026-04-12T13:34:30.029Z</time></trkpt><trkpt lat="42.7651677" lon="12.3595565"><ele>169.0</ele><time>2026-04-12T13:34:31.028Z</time></trkpt><trkpt lat="42.7651984" lon="12.3598356"><ele>161.66666666666669</ele><time>2026-04-12T13:34:32.028Z</time></trkpt><trkpt lat="42.7652364" lon="12.360113"><ele>154.33333333333334</ele><time>2026-04-12T13:34:33.028Z</time></trkpt><trkpt lat="42.7652916" lon="12.3603883"><ele>147.0</ele><time>2026-04-12T13:34:34.029Z</time></trkpt><trkpt lat="42.7653621" lon="12.3606581"><ele>147.0</ele><time>2026-04-12T13:34:35.033Z</time></trkpt><trkpt lat="42.7654449" lon="12.360922"><ele>147.0</ele><time>2026-04-12T13:34:36.031Z</time></trkpt><trkpt lat="42.7655381" lon="12.3611834"><ele>147.0</ele><time>2026-04-12T13:34:37.027Z</time></trkpt><trkpt lat="42.7656364" lon="12.3614417"><ele>149.66666666666666</ele><time>2026-04-12T13:34:38.032Z</time></trkpt><trkpt lat="42.7657394" lon="12.3616981"><ele>152.33333333333331</ele><time>2026-04-12T13:34:39.029Z</time></trkpt><trkpt lat="42.7658404" lon="12.3619543"><ele>155.0</ele><time>2026-04-12T13:34:40.025Z</time></trkpt><trkpt lat="42.7659406" lon="12.3622091"><ele>150.66666666666666</ele><time>2026-04-12T13:34:41.03Z</time></trkpt><trkpt lat="42.7660419" lon="12.362461"><ele>146.33333333333334</ele><time>2026-04-12T13:34:42.028Z</time></trkpt><trkpt lat="42.7661393" lon="12.3627143"><ele>142.0</ele><time>2026-04-12T13:34:43.027Z</time></trkpt><trkpt lat="42.7662235" lon="12.3629761"><ele>143.0</ele><time>2026-04-12T13:34:44.032Z</time></trkpt><trkpt lat="42.7662899" lon="12.3632477"><ele>144.0</ele><time>2026-04-12T13:34:45.032Z</time></trkpt><trkpt lat="42.7663419" lon="12.3635298"><ele>145.0</ele><time>2026-04-12T13:34:46.028Z</time></trkpt><trkpt lat="42.766386" lon="12.3638199"><ele>145.33333333333334</ele><time>2026-04-12T13:34:47.034Z</time></trkpt><trkpt lat="42.7664311" lon="12.3641132"><ele>145.66666666666666</ele><time>2026-04-12T13:34:48.028Z</time></trkpt><trkpt lat="42.7664747" lon="12.3644084"><ele>146.0</ele><time>2026-04-12T13:34:49.032Z</time></trkpt><trkpt lat="42.7665197" lon="12.3647045"><ele>146.33333333333331</ele><time>2026-04-12T13:34:50.036Z</time></trkpt><trkpt lat="42.7665608" lon="12.365003"><ele>146.66666666666666</ele><time>2026-04-12T13:34:51.03Z</time></trkpt><trkpt lat="42.7665943" lon="12.3652966"><ele>147.0</ele><time>2026-04-12T13:34:52.051Z</time></trkpt><trkpt lat="42.7666058" lon="12.3655952"><ele>147.66666666666666</ele><time>2026-04-12T13:34:53.029Z</time></trkpt><trkpt lat="42.7666002" lon="12.3658853"><ele>148.33333333333331</ele><time>2026-04-12T13:34:54.029Z</time></trkpt><trkpt lat="42.7665884" lon="12.3661732"><ele>149.0</ele><time>2026-04-12T13:34:55.033Z</time></trkpt><trkpt lat="42.7665757" lon="12.3664602"><ele>149.0</ele><time>2026-04-12T13:34:56.027Z</time></trkpt><trkpt lat="42.7665658" lon="12.3667475"><ele>149.0</ele><time>2026-04-12T13:34:57.034Z</time></trkpt><trkpt lat="42.7665653" lon="12.3670256"><ele>149.0</ele><time>2026-04-12T13:34:58.03Z</time></trkpt><trkpt lat="42.7665709" lon="12.3672985"><ele>148.33333333333331</ele><time>2026-04-12T13:34:59.031Z</time></trkpt><trkpt lat="42.7666051" lon="12.3675557"><ele>147.66666666666666</ele><time>2026-04-12T13:35:00.03Z</time></trkpt><trkpt lat="42.7666535" lon="12.3677819"><ele>147.0</ele><time>2026-04-12T13:35:01.026Z</time></trkpt><trkpt lat="42.7667019" lon="12.3679729"><ele>147.6</ele><time>2026-04-12T13:35:02.028Z</time></trkpt><trkpt lat="42.7667459" lon="12.3681326"><ele>148.2</ele><time>2026-04-12T13:35:03.027Z</time></trkpt><trkpt lat="42.7667809" lon="12.3682733"><ele>148.8</ele><time>2026-04-12T13:35:04.033Z</time></trkpt><trkpt lat="42.766811" lon="12.368387"><ele>149.4</ele><time>2026-04-12T13:35:05.032Z</time></trkpt><trkpt lat="42.7668356" lon="12.3684707"><ele>150.0</ele><time>2026-04-12T13:35:06.038Z</time></trkpt><trkpt lat="42.7668607" lon="12.3685687"><ele>148.0</ele><time>2026-04-12T13:35:08.031Z</time></trkpt><trkpt lat="42.7669058" lon="12.3686649"><ele>146.0</ele><time>2026-04-12T13:36:58.036Z</time></trkpt><trkpt lat="42.7669502" lon="12.3688147"><ele>144.0</ele><time>2026-04-12T13:37:00.034Z</time></trkpt><trkpt lat="42.7669845" lon="12.368931"><ele>142.0</ele><time>2026-04-12T13:37:01.034Z</time></trkpt><trkpt lat="42.7670259" lon="12.3690686"><ele>140.0</ele><time>2026-04-12T13:37:02.032Z</time></trkpt><trkpt lat="42.7670752" lon="12.3692299"><ele>140.0</ele><time>2026-04-12T13:37:03.083Z</time></trkpt><trkpt lat="42.7671302" lon="12.3694106"><ele>140.0</ele><time>2026-04-12T13:37:04.032Z</time></trkpt><trkpt lat="42.7671865" lon="12.3695934"><ele>140.0</ele><time>2026-04-12T13:37:05.047Z</time></trkpt><trkpt lat="42.7673023" lon="12.369983"><ele>142.33333333333331</ele><time>2026-04-12T13:37:07.04Z</time></trkpt><trkpt lat="42.7673578" lon="12.3701864"><ele>144.66666666666666</ele><time>2026-04-12T13:37:08.036Z</time></trkpt><trkpt lat="42.7673988" lon="12.3703952"><ele>147.0</ele><time>2026-04-12T13:37:09.028Z</time></trkpt><trkpt lat="42.7674124" lon="12.3706131"><ele>148.0</ele><time>2026-04-12T13:37:10.032Z</time></trkpt><trkpt lat="42.7673898" lon="12.3708306"><ele>149.0</ele><time>2026-04-12T13:37:11.031Z</time></trkpt><trkpt lat="42.7673272" lon="12.3710566"><ele>150.0</ele><time>2026-04-12T13:37:12.031Z</time></trkpt><trkpt lat="42.7672301" lon="12.3712917"><ele>148.66666666666666</ele><time>2026-04-12T13:37:13.027Z</time></trkpt><trkpt lat="42.7671185" lon="12.3715331"><ele>147.33333333333331</ele><time>2026-04-12T13:37:14.039Z</time></trkpt><trkpt lat="42.7670082" lon="12.3717919"><ele>146.0</ele><time>2026-04-12T13:37:15.037Z</time></trkpt><trkpt lat="42.7668969" lon="12.3720563"><ele>146.66666666666666</ele><time>2026-04-12T13:37:16.033Z</time></trkpt><trkpt lat="42.7667865" lon="12.3723154"><ele>147.33333333333334</ele><time>2026-04-12T13:37:17.032Z</time></trkpt><trkpt lat="42.7666829" lon="12.3725898"><ele>148.0</ele><time>2026-04-12T13:37:18.031Z</time></trkpt><trkpt lat="42.7665924" lon="12.3728838"><ele>146.5</ele><time>2026-04-12T13:37:19.037Z</time></trkpt><trkpt lat="42.766517" lon="12.373189"><ele>145.0</ele><time>2026-04-12T13:37:20.029Z</time></trkpt><trkpt lat="42.766448" lon="12.373504"><ele>145.0</ele><time>2026-04-12T13:37:21.035Z</time></trkpt><trkpt lat="42.7663812" lon="12.3738257"><ele>145.0</ele><time>2026-04-12T13:37:22.034Z</time></trkpt><trkpt lat="42.7663156" lon="12.3741519"><ele>144.0</ele><time>2026-04-12T13:37:23.032Z</time></trkpt><trkpt lat="42.7662507" lon="12.3744784"><ele>143.0</ele><time>2026-04-12T13:37:24.037Z</time></trkpt><trkpt lat="42.7661884" lon="12.3747881"><ele>143.0</ele><time>2026-04-12T13:37:25.031Z</time></trkpt><trkpt lat="42.7661306" lon="12.3750776"><ele>143.0</ele><time>2026-04-12T13:37:26.035Z</time></trkpt><trkpt lat="42.7660738" lon="12.375348"><ele>143.0</ele><time>2026-04-12T13:37:27.031Z</time></trkpt><trkpt lat="42.7660139" lon="12.3756057"><ele>143.66666666666666</ele><time>2026-04-12T13:37:28.033Z</time></trkpt><trkpt lat="42.7659389" lon="12.3758726"><ele>144.33333333333334</ele><time>2026-04-12T13:37:29.033Z</time></trkpt><trkpt lat="42.7658464" lon="12.3761432"><ele>145.0</ele><time>2026-04-12T13:37:30.031Z</time></trkpt><trkpt lat="42.7657394" lon="12.3764185"><ele>145.0</ele><time>2026-04-12T13:37:31.036Z</time></trkpt><trkpt lat="42.7656254" lon="12.3766962"><ele>145.0</ele><time>2026-04-12T13:37:32.032Z</time></trkpt><trkpt lat="42.7655161" lon="12.3769596"><ele>144.66666666666669</ele><time>2026-04-12T13:37:33.029Z</time></trkpt><trkpt lat="42.7654107" lon="12.3772224"><ele>144.33333333333334</ele><time>2026-04-12T13:37:34.043Z</time></trkpt><trkpt lat="42.7653199" lon="12.3774749"><ele>144.0</ele><time>2026-04-12T13:37:35.034Z</time></trkpt><trkpt lat="42.7652489" lon="12.3777304"><ele>144.0</ele><time>2026-04-12T13:37:36.031Z</time></trkpt><trkpt lat="42.7652023" lon="12.3779982"><ele>144.0</ele><time>2026-04-12T13:37:37.033Z</time></trkpt><trkpt lat="42.765185" lon="12.3782812"><ele>144.0</ele><time>2026-04-12T13:37:38.031Z</time></trkpt><trkpt lat="42.765198" lon="12.3785746"><ele>144.66666666666666</ele><time>2026-04-12T13:37:39.056Z</time></trkpt><trkpt lat="42.7652308" lon="12.3788741"><ele>145.33333333333331</ele><time>2026-04-12T13:37:40.035Z</time></trkpt><trkpt lat="42.7652706" lon="12.3791786"><ele>146.0</ele><time>2026-04-12T13:37:41.028Z</time></trkpt><trkpt lat="42.7653095" lon="12.3794841"><ele>146.0</ele><time>2026-04-12T13:37:42.04Z</time></trkpt><trkpt lat="42.765343" lon="12.3797619"><ele>146.0</ele><time>2026-04-12T13:37:43.036Z</time></trkpt><trkpt lat="42.7653707" lon="12.3800362"><ele>146.0</ele><time>2026-04-12T13:37:44.04Z</time></trkpt><trkpt lat="42.7654041" lon="12.3803056"><ele>146.0</ele><time>2026-04-12T13:37:45.035Z</time></trkpt><trkpt lat="42.7654336" lon="12.3805846"><ele>146.0</ele><time>2026-04-12T13:37:46.037Z</time></trkpt><trkpt lat="42.7654542" lon="12.3808671"><ele>146.0</ele><time>2026-04-12T13:37:47.027Z</time></trkpt><trkpt lat="42.7654625" lon="12.381154"><ele>146.0</ele><time>2026-04-12T13:37:48.039Z</time></trkpt><trkpt lat="42.7654552" lon="12.3814445"><ele>146.0</ele><time>2026-04-12T13:37:49.033Z</time></trkpt><trkpt lat="42.7654412" lon="12.3817263"><ele>146.0</ele><time>2026-04-12T13:37:50.031Z</time></trkpt><trkpt lat="42.765427" lon="12.3819904"><ele>146.0</ele><time>2026-04-12T13:37:51.033Z</time></trkpt><trkpt lat="42.7654323" lon="12.3822407"><ele>146.0</ele><time>2026-04-12T13:37:52.031Z</time></trkpt><trkpt lat="42.7654778" lon="12.382477"><ele>146.0</ele><time>2026-04-12T13:37:53.042Z</time></trkpt><trkpt lat="42.7655732" lon="12.3827029"><ele>146.0</ele><time>2026-04-12T13:37:54.032Z</time></trkpt><trkpt lat="42.7656976" lon="12.3829258"><ele>146.0</ele><time>2026-04-12T13:37:55.034Z</time></trkpt><trkpt lat="42.7658336" lon="12.3831464"><ele>146.0</ele><time>2026-04-12T13:37:56.032Z</time></trkpt><trkpt lat="42.7659707" lon="12.3833752"><ele>146.66666666666666</ele><time>2026-04-12T13:37:57.028Z</time></trkpt><trkpt lat="42.7660999" lon="12.3836"><ele>147.33333333333334</ele><time>2026-04-12T13:37:58.027Z</time></trkpt><trkpt lat="42.7662256" lon="12.3838204"><ele>148.0</ele><time>2026-04-12T13:37:59.028Z</time></trkpt><trkpt lat="42.7663455" lon="12.3840273"><ele>148.33333333333334</ele><time>2026-04-12T13:38:00.029Z</time></trkpt><trkpt lat="42.7664577" lon="12.3842211"><ele>148.66666666666666</ele><time>2026-04-12T13:38:01.028Z</time></trkpt><trkpt lat="42.7665615" lon="12.3844043"><ele>149.0</ele><time>2026-04-12T13:38:02.029Z</time></trkpt><trkpt lat="42.766659" lon="12.3845759"><ele>149.25</ele><time>2026-04-12T13:38:03.032Z</time></trkpt><trkpt lat="42.7667509" lon="12.3847359"><ele>149.5</ele><time>2026-04-12T13:38:04.029Z</time></trkpt><trkpt lat="42.7668331" lon="12.3848813"><ele>149.75</ele><time>2026-04-12T13:38:05.03Z</time></trkpt><trkpt lat="42.7668983" lon="12.3850202"><ele>150.0</ele><time>2026-04-12T13:38:06.036Z</time></trkpt><trkpt lat="42.7669429" lon="12.3851518"><ele>150.0</ele><time>2026-04-12T13:38:07.031Z</time></trkpt><trkpt lat="42.7669739" lon="12.3852714"><ele>150.0</ele><time>2026-04-12T13:38:08.043Z</time></trkpt><trkpt lat="42.7669998" lon="12.3853712"><ele>150.0</ele><time>2026-04-12T13:38:09.037Z</time></trkpt><trkpt lat="42.7670497" lon="12.3854898"><ele>150.0</ele><time>2026-04-12T13:38:11.039Z</time></trkpt><trkpt lat="42.7671445" lon="12.3855329"><ele>150.0</ele><time>2026-04-12T13:38:13.04Z</time></trkpt><trkpt lat="42.7672261" lon="12.3854968"><ele>150.0</ele><time>2026-04-12T13:38:14.04Z</time></trkpt><trkpt lat="42.7673306" lon="12.3854195"><ele>150.0</ele><time>2026-04-12T13:38:15.047Z</time></trkpt><trkpt lat="42.767455" lon="12.3853171"><ele>150.0</ele><time>2026-04-12T13:38:16.029Z</time></trkpt><trkpt lat="42.7675902" lon="12.3852065"><ele>150.0</ele><time>2026-04-12T13:38:17.036Z</time></trkpt><trkpt lat="42.7677312" lon="12.3850896"><ele>151.33333333333334</ele><time>2026-04-12T13:38:18.033Z</time></trkpt><trkpt lat="42.7678765" lon="12.3849708"><ele>152.66666666666669</ele><time>2026-04-12T13:38:19.04Z</time></trkpt><trkpt lat="42.7680206" lon="12.3848522"><ele>154.0</ele><time>2026-04-12T13:38:20.029Z</time></trkpt><trkpt lat="42.7681579" lon="12.3847383"><ele>154.0</ele><time>2026-04-12T13:38:21.029Z</time></trkpt><trkpt lat="42.7682842" lon="12.3846112"><ele>154.0</ele><time>2026-04-12T13:38:22.032Z</time></trkpt><trkpt lat="42.768382" lon="12.3844437"><ele>154.0</ele><time>2026-04-12T13:38:23.03Z</time></trkpt><trkpt lat="42.7684503" lon="12.3842316"><ele>154.0</ele><time>2026-04-12T13:38:24.029Z</time></trkpt><trkpt lat="42.7685076" lon="12.3839916"><ele>154.0</ele><time>2026-04-12T13:38:25.028Z</time></trkpt><trkpt lat="42.7685677" lon="12.383746"><ele>154.0</ele><time>2026-04-12T13:38:26.032Z</time></trkpt><trkpt lat="42.7686318" lon="12.3834961"><ele>156.33333333333334</ele><time>2026-04-12T13:38:27.035Z</time></trkpt><trkpt lat="42.7687018" lon="12.3832426"><ele>158.66666666666666</ele><time>2026-04-12T13:38:28.029Z</time></trkpt><trkpt lat="42.7687821" lon="12.3829858"><ele>161.0</ele><time>2026-04-12T13:38:29.038Z</time></trkpt><trkpt lat="42.7688748" lon="12.3827299"><ele>161.0</ele><time>2026-04-12T13:38:30.037Z</time></trkpt><trkpt lat="42.7689815" lon="12.382478"><ele>161.0</ele><time>2026-04-12T13:38:31.031Z</time></trkpt><trkpt lat="42.7690972" lon="12.3822296"><ele>161.0</ele><time>2026-04-12T13:38:32.035Z</time></trkpt><trkpt lat="42.7692168" lon="12.3819853"><ele>161.0</ele><time>2026-04-12T13:38:33.029Z</time></trkpt><trkpt lat="42.7693335" lon="12.3817515"><ele>161.0</ele><time>2026-04-12T13:38:34.043Z</time></trkpt><trkpt lat="42.7694415" lon="12.381543"><ele>161.0</ele><time>2026-04-12T13:38:35.028Z</time></trkpt><trkpt lat="42.7695351" lon="12.3813723"><ele>162.20000000000002</ele><time>2026-04-12T13:38:36.029Z</time></trkpt><trkpt lat="42.7696237" lon="12.3812421"><ele>163.4</ele><time>2026-04-12T13:38:37.036Z</time></trkpt><trkpt lat="42.7697198" lon="12.3811702"><ele>164.6</ele><time>2026-04-12T13:38:38.031Z</time></trkpt><trkpt lat="42.7698174" lon="12.3811705"><ele>165.8</ele><time>2026-04-12T13:38:39.041Z</time></trkpt><trkpt lat="42.7698985" lon="12.3812464"><ele>167.0</ele><time>2026-04-12T13:38:40.033Z</time></trkpt><trkpt lat="42.7699474" lon="12.3813867"><ele>168.66666666666666</ele><time>2026-04-12T13:38:41.028Z</time></trkpt><trkpt lat="42.7699607" lon="12.3815742"><ele>170.33333333333334</ele><time>2026-04-12T13:38:42.028Z</time></trkpt><trkpt lat="42.7699575" lon="12.3817869"><ele>172.0</ele><time>2026-04-12T13:38:43.033Z</time></trkpt><trkpt lat="42.7699546" lon="12.3820065"><ele>172.66666666666669</ele><time>2026-04-12T13:38:44.028Z</time></trkpt><trkpt lat="42.7699533" lon="12.3822356"><ele>173.33333333333334</ele><time>2026-04-12T13:38:45.032Z</time></trkpt><trkpt lat="42.7699509" lon="12.3824762"><ele>174.0</ele><time>2026-04-12T13:38:46.035Z</time></trkpt><trkpt lat="42.7699488" lon="12.3827302"><ele>174.0</ele><time>2026-04-12T13:38:47.031Z</time></trkpt><trkpt lat="42.7699494" lon="12.3829925"><ele>174.0</ele><time>2026-04-12T13:38:48.028Z</time></trkpt><trkpt lat="42.7699509" lon="12.3832646"><ele>174.0</ele><time>2026-04-12T13:38:49.031Z</time></trkpt><trkpt lat="42.7699473" lon="12.3835428"><ele>175.33333333333334</ele><time>2026-04-12T13:38:50.03Z</time></trkpt><trkpt lat="42.7699328" lon="12.3838223"><ele>176.66666666666669</ele><time>2026-04-12T13:38:51.034Z</time></trkpt><trkpt lat="42.7699053" lon="12.3840984"><ele>178.0</ele><time>2026-04-12T13:38:52.041Z</time></trkpt><trkpt lat="42.7698669" lon="12.3843636"><ele>179.66666666666669</ele><time>2026-04-12T13:38:53.031Z</time></trkpt><trkpt lat="42.7698246" lon="12.3846048"><ele>181.33333333333334</ele><time>2026-04-12T13:38:54.028Z</time></trkpt><trkpt lat="42.7697869" lon="12.3848322"><ele>183.0</ele><time>2026-04-12T13:38:55.032Z</time></trkpt><trkpt lat="42.7697739" lon="12.3850587"><ele>185.0</ele><time>2026-04-12T13:38:56.034Z</time></trkpt><trkpt lat="42.7697998" lon="12.3852836"><ele>187.0</ele><time>2026-04-12T13:38:57.028Z</time></trkpt><trkpt lat="42.7698397" lon="12.3854903"><ele>189.0</ele><time>2026-04-12T13:38:58.039Z</time></trkpt><trkpt lat="42.7699469" lon="12.3856821"><ele>190.33333333333331</ele><time>2026-04-12T13:38:59.033Z</time></trkpt><trkpt lat="42.7700353" lon="12.3858664"><ele>191.66666666666666</ele><time>2026-04-12T13:39:00.031Z</time></trkpt><trkpt lat="42.7700899" lon="12.386058"><ele>193.0</ele><time>2026-04-12T13:39:01.034Z</time></trkpt><trkpt lat="42.7700932" lon="12.3862717"><ele>195.66666666666666</ele><time>2026-04-12T13:39:02.03Z</time></trkpt><trkpt lat="42.7700516" lon="12.3864875"><ele>198.33333333333331</ele><time>2026-04-12T13:39:03.029Z</time></trkpt><trkpt lat="42.7699679" lon="12.3866904"><ele>201.0</ele><time>2026-04-12T13:39:04.03Z</time></trkpt><trkpt lat="42.7698549" lon="12.3868788"><ele>201.0</ele><time>2026-04-12T13:39:05.032Z</time></trkpt><trkpt lat="42.7697355" lon="12.3870537"><ele>201.0</ele><time>2026-04-12T13:39:06.039Z</time></trkpt><trkpt lat="42.7696376" lon="12.3872228"><ele>201.0</ele><time>2026-04-12T13:39:07.027Z</time></trkpt><trkpt lat="42.7695703" lon="12.387401"><ele>203.0</ele><time>2026-04-12T13:39:08.027Z</time></trkpt><trkpt lat="42.7695513" lon="12.3875999"><ele>205.0</ele><time>2026-04-12T13:39:09.03Z</time></trkpt><trkpt lat="42.7695882" lon="12.3878144"><ele>207.0</ele><time>2026-04-12T13:39:10.03Z</time></trkpt><trkpt lat="42.7696637" lon="12.3880344"><ele>207.0</ele><time>2026-04-12T13:39:11.042Z</time></trkpt><trkpt lat="42.7697441" lon="12.3882356"><ele>207.0</ele><time>2026-04-12T13:39:12.027Z</time></trkpt><trkpt lat="42.7698298" lon="12.3883962"><ele>207.0</ele><time>2026-04-12T13:39:13.044Z</time></trkpt><trkpt lat="42.7699312" lon="12.3884846"><ele>207.0</ele><time>2026-04-12T13:39:14.034Z</time></trkpt><trkpt lat="42.7700276" lon="12.3885452"><ele>207.0</ele><time>2026-04-12T13:39:15.034Z</time></trkpt><trkpt lat="42.7701275" lon="12.3884329"><ele>207.0</ele><time>2026-04-12T13:39:16.028Z</time></trkpt><trkpt lat="42.770199" lon="12.3882486"><ele>207.0</ele><time>2026-04-12T13:39:17.028Z</time></trkpt><trkpt lat="42.7702649" lon="12.3880273"><ele>209.33333333333331</ele><time>2026-04-12T13:39:18.033Z</time></trkpt><trkpt lat="42.770331" lon="12.3877805"><ele>211.66666666666666</ele><time>2026-04-12T13:39:19.033Z</time></trkpt><trkpt lat="42.7704171" lon="12.3875588"><ele>214.0</ele><time>2026-04-12T13:39:20.029Z</time></trkpt><trkpt lat="42.7704994" lon="12.3873487"><ele>215.33333333333331</ele><time>2026-04-12T13:39:21.037Z</time></trkpt><trkpt lat="42.7705706" lon="12.3871574"><ele>216.66666666666669</ele><time>2026-04-12T13:39:22.03Z</time></trkpt><trkpt lat="42.7706569" lon="12.3869851"><ele>218.0</ele><time>2026-04-12T13:39:23.029Z</time></trkpt><trkpt lat="42.7707763" lon="12.3868552"><ele>218.0</ele><time>2026-04-12T13:39:24.032Z</time></trkpt><trkpt lat="42.7709212" lon="12.3867965"><ele>218.0</ele><time>2026-04-12T13:39:25.031Z</time></trkpt><trkpt lat="42.7710702" lon="12.3868107"><ele>218.0</ele><time>2026-04-12T13:39:26.033Z</time></trkpt><trkpt lat="42.7712131" lon="12.3868956"><ele>222.0</ele><time>2026-04-12T13:39:27.031Z</time></trkpt><trkpt lat="42.7713348" lon="12.3870411"><ele>226.0</ele><time>2026-04-12T13:39:28.029Z</time></trkpt><trkpt lat="42.7714187" lon="12.387235"><ele>230.0</ele><time>2026-04-12T13:39:29.035Z</time></trkpt><trkpt lat="42.771465" lon="12.3874557"><ele>230.0</ele><time>2026-04-12T13:39:30.036Z</time></trkpt><trkpt lat="42.7714928" lon="12.3876881"><ele>230.0</ele><time>2026-04-12T13:39:31.031Z</time></trkpt><trkpt lat="42.7715217" lon="12.3879267"><ele>230.0</ele><time>2026-04-12T13:39:32.036Z</time></trkpt><trkpt lat="42.7715683" lon="12.3881763"><ele>230.0</ele><time>2026-04-12T13:39:33.036Z</time></trkpt><trkpt lat="42.7716314" lon="12.3884228"><ele>230.0</ele><time>2026-04-12T13:39:34.034Z</time></trkpt><trkpt lat="42.7716907" lon="12.3886626"><ele>230.0</ele><time>2026-04-12T13:39:35.028Z</time></trkpt><trkpt lat="42.7717464" lon="12.388899"><ele>229.33333333333334</ele><time>2026-04-12T13:39:36.031Z</time></trkpt><trkpt lat="42.7717504" lon="12.3891252"><ele>228.66666666666669</ele><time>2026-04-12T13:39:37.028Z</time></trkpt><trkpt lat="42.7717361" lon="12.3893374"><ele>228.0</ele><time>2026-04-12T13:39:38.037Z</time></trkpt><trkpt lat="42.7717616" lon="12.389555"><ele>226.66666666666669</ele><time>2026-04-12T13:39:39.037Z</time></trkpt><trkpt lat="42.7718257" lon="12.3897661"><ele>225.33333333333334</ele><time>2026-04-12T13:39:40.028Z</time></trkpt><trkpt lat="42.7719051" lon="12.3899615"><ele>224.0</ele><time>2026-04-12T13:39:41.035Z</time></trkpt><trkpt lat="42.7720451" lon="12.3901517"><ele>228.33333333333334</ele><time>2026-04-12T13:39:42.038Z</time></trkpt><trkpt lat="42.7721878" lon="12.390346"><ele>232.66666666666669</ele><time>2026-04-12T13:39:43.04Z</time></trkpt><trkpt lat="42.7723199" lon="12.3905366"><ele>237.0</ele><time>2026-04-12T13:39:44.029Z</time></trkpt><trkpt lat="42.7724437" lon="12.390706"><ele>237.0</ele><time>2026-04-12T13:39:45.038Z</time></trkpt><trkpt lat="42.7725672" lon="12.390847"><ele>237.0</ele><time>2026-04-12T13:39:46.028Z</time></trkpt><trkpt lat="42.7727042" lon="12.390946"><ele>237.0</ele><time>2026-04-12T13:39:47.03Z</time></trkpt><trkpt lat="42.7728584" lon="12.390989"><ele>240.66666666666669</ele><time>2026-04-12T13:39:48.035Z</time></trkpt><trkpt lat="42.7730255" lon="12.3909738"><ele>244.33333333333334</ele><time>2026-04-12T13:39:49.032Z</time></trkpt><trkpt lat="42.7732023" lon="12.3909142"><ele>248.0</ele><time>2026-04-12T13:39:50.03Z</time></trkpt><trkpt lat="42.7733872" lon="12.3908289"><ele>249.33333333333334</ele><time>2026-04-12T13:39:51.046Z</time></trkpt><trkpt lat="42.7735658" lon="12.3907529"><ele>250.66666666666669</ele><time>2026-04-12T13:39:52.029Z</time></trkpt><trkpt lat="42.7737444" lon="12.3906954"><ele>252.0</ele><time>2026-04-12T13:39:53.037Z</time></trkpt><trkpt lat="42.7739277" lon="12.3906628"><ele>252.0</ele><time>2026-04-12T13:39:54.028Z</time></trkpt><trkpt lat="42.7741134" lon="12.3906547"><ele>252.0</ele><time>2026-04-12T13:39:55.029Z</time></trkpt><trkpt lat="42.7742984" lon="12.3906669"><ele>252.0</ele><time>2026-04-12T13:39:56.033Z</time></trkpt><trkpt lat="42.7744743" lon="12.3906909"><ele>253.66666666666669</ele><time>2026-04-12T13:39:57.032Z</time></trkpt><trkpt lat="42.7746352" lon="12.3907166"><ele>255.33333333333334</ele><time>2026-04-12T13:39:58.036Z</time></trkpt><trkpt lat="42.7747861" lon="12.3907396"><ele>257.0</ele><time>2026-04-12T13:39:59.03Z</time></trkpt><trkpt lat="42.7749271" lon="12.3907599"><ele>257.0</ele><time>2026-04-12T13:40:00.031Z</time></trkpt><trkpt lat="42.7750635" lon="12.3907704"><ele>257.0</ele><time>2026-04-12T13:40:01.027Z</time></trkpt><trkpt lat="42.7752024" lon="12.3907623"><ele>257.0</ele><time>2026-04-12T13:40:02.029Z</time></trkpt><trkpt lat="42.7753403" lon="12.3907296"><ele>257.0</ele><time>2026-04-12T13:40:03.048Z</time></trkpt><trkpt lat="42.7754737" lon="12.3906668"><ele>258.75</ele><time>2026-04-12T13:40:04.028Z</time></trkpt><trkpt lat="42.7755935" lon="12.3905819"><ele>260.5</ele><time>2026-04-12T13:40:05.027Z</time></trkpt><trkpt lat="42.7756982" lon="12.3904941"><ele>262.25</ele><time>2026-04-12T13:40:06.036Z</time></trkpt><trkpt lat="42.7758009" lon="12.3904091"><ele>264.0</ele><time>2026-04-12T13:40:07.036Z</time></trkpt><trkpt lat="42.7759103" lon="12.3903301"><ele>267.0</ele><time>2026-04-12T13:40:08.029Z</time></trkpt><trkpt lat="42.7760243" lon="12.3902592"><ele>270.0</ele><time>2026-04-12T13:40:09.03Z</time></trkpt><trkpt lat="42.7761532" lon="12.3902614"><ele>273.0</ele><time>2026-04-12T13:40:10.033Z</time></trkpt><trkpt lat="42.7762739" lon="12.3903152"><ele>276.0</ele><time>2026-04-12T13:40:11.032Z</time></trkpt><trkpt lat="42.7763732" lon="12.3903925"><ele>276.0</ele><time>2026-04-12T13:40:12.045Z</time></trkpt><trkpt lat="42.7764571" lon="12.3904616"><ele>276.0</ele><time>2026-04-12T13:40:13.035Z</time></trkpt><trkpt lat="42.776537" lon="12.3905155"><ele>276.0</ele><time>2026-04-12T13:40:14.033Z</time></trkpt><trkpt lat="42.77662" lon="12.3905539"><ele>276.0</ele><time>2026-04-12T13:40:15.032Z</time></trkpt><trkpt lat="42.7767043" lon="12.3905477"><ele>276.0</ele><time>2026-04-12T13:40:16.028Z</time></trkpt><trkpt lat="42.7767846" lon="12.3904923"><ele>276.0</ele><time>2026-04-12T13:40:17.037Z</time></trkpt><trkpt lat="42.776842" lon="12.3903952"><ele>276.0</ele><time>2026-04-12T13:40:18.033Z</time></trkpt><trkpt lat="42.7768622" lon="12.3902702"><ele>276.0</ele><time>2026-04-12T13:40:19.044Z</time></trkpt><trkpt lat="42.7768397" lon="12.3901357"><ele>276.0</ele><time>2026-04-12T13:40:20.028Z</time></trkpt><trkpt lat="42.7767901" lon="12.3900082"><ele>276.0</ele><time>2026-04-12T13:40:21.031Z</time></trkpt><trkpt lat="42.7767288" lon="12.3898827"><ele>276.0</ele><time>2026-04-12T13:40:22.028Z</time></trkpt><trkpt lat="42.776668" lon="12.3897583"><ele>277.6</ele><time>2026-04-12T13:40:23.032Z</time></trkpt><trkpt lat="42.776615" lon="12.3896438"><ele>279.20000000000005</ele><time>2026-04-12T13:40:24.033Z</time></trkpt><trkpt lat="42.776577" lon="12.3895325"><ele>280.79999999999995</ele><time>2026-04-12T13:40:25.035Z</time></trkpt><trkpt lat="42.7765681" lon="12.3894155"><ele>282.4</ele><time>2026-04-12T13:40:26.029Z</time></trkpt><trkpt lat="42.7765972" lon="12.3892976"><ele>284.0</ele><time>2026-04-12T13:40:27.05Z</time></trkpt><trkpt lat="42.7766633" lon="12.3892103"><ele>284.0</ele><time>2026-04-12T13:40:28.029Z</time></trkpt><trkpt lat="42.7767557" lon="12.3891865"><ele>284.0</ele><time>2026-04-12T13:40:29.028Z</time></trkpt><trkpt lat="42.7768666" lon="12.3892162"><ele>284.0</ele><time>2026-04-12T13:40:30.031Z</time></trkpt><trkpt lat="42.777001" lon="12.3892762"><ele>284.0</ele><time>2026-04-12T13:40:31.032Z</time></trkpt><trkpt lat="42.7771573" lon="12.3893578"><ele>285.6666666666667</ele><time>2026-04-12T13:40:32.031Z</time></trkpt><trkpt lat="42.7773255" lon="12.3894478"><ele>287.3333333333333</ele><time>2026-04-12T13:40:33.031Z</time></trkpt><trkpt lat="42.7775138" lon="12.3895615"><ele>289.0</ele><time>2026-04-12T13:40:34.034Z</time></trkpt><trkpt lat="42.7776963" lon="12.3896822"><ele>291.0</ele><time>2026-04-12T13:40:35.035Z</time></trkpt><trkpt lat="42.7778625" lon="12.3897988"><ele>293.0</ele><time>2026-04-12T13:40:36.034Z</time></trkpt><trkpt lat="42.7780174" lon="12.3899004"><ele>295.0</ele><time>2026-04-12T13:40:37.036Z</time></trkpt><trkpt lat="42.7781556" lon="12.3899882"><ele>295.0</ele><time>2026-04-12T13:40:38.031Z</time></trkpt><trkpt lat="42.7782786" lon="12.3900703"><ele>295.0</ele><time>2026-04-12T13:40:39.035Z</time></trkpt><trkpt lat="42.7784018" lon="12.3901152"><ele>295.0</ele><time>2026-04-12T13:40:40.034Z</time></trkpt><trkpt lat="42.7784994" lon="12.390179"><ele>295.0</ele><time>2026-04-12T13:40:41.029Z</time></trkpt><trkpt lat="42.7785883" lon="12.3902493"><ele>295.16666666666663</ele><time>2026-04-12T13:40:42.035Z</time></trkpt><trkpt lat="42.7786638" lon="12.3903378"><ele>295.3333333333333</ele><time>2026-04-12T13:40:43.031Z</time></trkpt><trkpt lat="42.7787316" lon="12.3904338"><ele>295.5</ele><time>2026-04-12T13:40:44.047Z</time></trkpt><trkpt lat="42.7787872" lon="12.3905323"><ele>295.6666666666667</ele><time>2026-04-12T13:40:45.032Z</time></trkpt><trkpt lat="42.7788232" lon="12.3906219"><ele>295.83333333333337</ele><time>2026-04-12T13:40:46.035Z</time></trkpt><trkpt lat="42.7788452" lon="12.3907078"><ele>296.0</ele><time>2026-04-12T13:40:47.032Z</time></trkpt><trkpt lat="42.7788687" lon="12.3908134"><ele>296.0</ele><time>2026-04-12T13:40:48.034Z</time></trkpt><trkpt lat="42.7788846" lon="12.3909351"><ele>296.0</ele><time>2026-04-12T13:40:49.036Z</time></trkpt><trkpt lat="42.7788924" lon="12.391043"><ele>296.0</ele><time>2026-04-12T13:40:50.037Z</time></trkpt><trkpt lat="42.7788922" lon="12.3911724"><ele>296.0</ele><time>2026-04-12T13:40:52.033Z</time></trkpt><trkpt lat="42.7788976" lon="12.39126"><ele>296.0</ele><time>2026-04-12T13:40:54.032Z</time></trkpt><trkpt lat="42.7789062" lon="12.3913592"><ele>296.0</ele><time>2026-04-12T13:48:36.026Z</time></trkpt><trkpt lat="42.7789459" lon="12.3915022"><ele>296.5</ele><time>2026-04-12T13:48:38.038Z</time></trkpt><trkpt lat="42.7789683" lon="12.3916273"><ele>297.0</ele><time>2026-04-12T13:48:39.038Z</time></trkpt><trkpt lat="42.7789906" lon="12.3918199"><ele>297.5</ele><time>2026-04-12T13:48:40.043Z</time></trkpt><trkpt lat="42.7790135" lon="12.3920202"><ele>298.0</ele><time>2026-04-12T13:48:41.037Z</time></trkpt><trkpt lat="42.779036" lon="12.3922242"><ele>299.0</ele><time>2026-04-12T13:48:42.04Z</time></trkpt><trkpt lat="42.7790683" lon="12.3924452"><ele>300.0</ele><time>2026-04-12T13:48:43.036Z</time></trkpt><trkpt lat="42.7791039" lon="12.3926795"><ele>301.0</ele><time>2026-04-12T13:48:44.035Z</time></trkpt><trkpt lat="42.7791412" lon="12.3929304"><ele>302.3333333333333</ele><time>2026-04-12T13:48:45.037Z</time></trkpt><trkpt lat="42.7791837" lon="12.3931907"><ele>303.6666666666667</ele><time>2026-04-12T13:48:46.039Z</time></trkpt><trkpt lat="42.7792244" lon="12.3934472"><ele>305.0</ele><time>2026-04-12T13:48:47.038Z</time></trkpt><trkpt lat="42.7792673" lon="12.3937093"><ele>306.0</ele><time>2026-04-12T13:48:48.044Z</time></trkpt><trkpt lat="42.7793119" lon="12.3939761"><ele>307.0</ele><time>2026-04-12T13:48:49.041Z</time></trkpt><trkpt lat="42.7793585" lon="12.3942488"><ele>308.0</ele><time>2026-04-12T13:48:50.041Z</time></trkpt><trkpt lat="42.7794049" lon="12.3945293"><ele>314.33333333333337</ele><time>2026-04-12T13:48:51.053Z</time></trkpt><trkpt lat="42.7794505" lon="12.3948147"><ele>320.6666666666667</ele><time>2026-04-12T13:48:52.049Z</time></trkpt><trkpt lat="42.7794997" lon="12.3951004"><ele>327.0</ele><time>2026-04-12T13:48:53.037Z</time></trkpt><trkpt lat="42.7795507" lon="12.3953804"><ele>325.0</ele><time>2026-04-12T13:48:54.038Z</time></trkpt><trkpt lat="42.7795985" lon="12.3956494"><ele>323.0</ele><time>2026-04-12T13:48:55.042Z</time></trkpt><trkpt lat="42.7796425" lon="12.3958951"><ele>321.0</ele><time>2026-04-12T13:48:56.04Z</time></trkpt><trkpt lat="42.7796826" lon="12.396115"><ele>321.0</ele><time>2026-04-12T13:48:57.039Z</time></trkpt><trkpt lat="42.7797163" lon="12.3963104"><ele>321.0</ele><time>2026-04-12T13:48:58.039Z</time></trkpt><trkpt lat="42.7797362" lon="12.3964938"><ele>321.0</ele><time>2026-04-12T13:48:59.045Z</time></trkpt><trkpt lat="42.7797259" lon="12.3966697"><ele>321.0</ele><time>2026-04-12T13:49:00.034Z</time></trkpt><trkpt lat="42.7797065" lon="12.3968369"><ele>321.0</ele><time>2026-04-12T13:49:01.04Z</time></trkpt><trkpt lat="42.7796211" lon="12.3969834"><ele>321.0</ele><time>2026-04-12T13:49:02.035Z</time></trkpt><trkpt lat="42.779515" lon="12.3971228"><ele>321.0</ele><time>2026-04-12T13:49:03.04Z</time></trkpt><trkpt lat="42.779388" lon="12.3972796"><ele>319.3333333333333</ele><time>2026-04-12T13:49:04.038Z</time></trkpt><trkpt lat="42.7792378" lon="12.3974658"><ele>317.66666666666663</ele><time>2026-04-12T13:49:05.037Z</time></trkpt><trkpt lat="42.7790731" lon="12.3976623"><ele>316.0</ele><time>2026-04-12T13:49:06.041Z</time></trkpt><trkpt lat="42.778913" lon="12.397856"><ele>320.3333333333333</ele><time>2026-04-12T13:49:07.042Z</time></trkpt><trkpt lat="42.7787763" lon="12.398046"><ele>324.6666666666667</ele><time>2026-04-12T13:49:08.05Z</time></trkpt><trkpt lat="42.778662" lon="12.3982251"><ele>329.0</ele><time>2026-04-12T13:49:09.044Z</time></trkpt><trkpt lat="42.7785785" lon="12.398383"><ele>329.0</ele><time>2026-04-12T13:49:10.038Z</time></trkpt><trkpt lat="42.778508" lon="12.3985321"><ele>329.0</ele><time>2026-04-12T13:49:11.04Z</time></trkpt><trkpt lat="42.7784337" lon="12.3986878"><ele>329.0</ele><time>2026-04-12T13:49:12.041Z</time></trkpt><trkpt lat="42.7783562" lon="12.3988483"><ele>329.0</ele><time>2026-04-12T13:49:13.053Z</time></trkpt><trkpt lat="42.7782793" lon="12.3990173"><ele>329.0</ele><time>2026-04-12T13:49:14.042Z</time></trkpt><trkpt lat="42.7781962" lon="12.3991918"><ele>329.0</ele><time>2026-04-12T13:49:15.038Z</time></trkpt><trkpt lat="42.7781123" lon="12.3993713"><ele>329.0</ele><time>2026-04-12T13:49:16.041Z</time></trkpt><trkpt lat="42.7780311" lon="12.3995438"><ele>331.25</ele><time>2026-04-12T13:49:17.036Z</time></trkpt><trkpt lat="42.777971" lon="12.3997124"><ele>333.5</ele><time>2026-04-12T13:49:18.04Z</time></trkpt><trkpt lat="42.7779246" lon="12.3998962"><ele>335.75</ele><time>2026-04-12T13:49:19.041Z</time></trkpt><trkpt lat="42.7778884" lon="12.400081"><ele>338.0</ele><time>2026-04-12T13:49:20.038Z</time></trkpt><trkpt lat="42.7778964" lon="12.4002894"><ele>338.0</ele><time>2026-04-12T13:49:21.039Z</time></trkpt><trkpt lat="42.777901" lon="12.4004914"><ele>338.0</ele><time>2026-04-12T13:49:22.037Z</time></trkpt><trkpt lat="42.7779061" lon="12.4007035"><ele>338.0</ele><time>2026-04-12T13:49:23.041Z</time></trkpt><trkpt lat="42.7779065" lon="12.4009109"><ele>339.5</ele><time>2026-04-12T13:49:24.035Z</time></trkpt><trkpt lat="42.7779047" lon="12.4010984"><ele>341.0</ele><time>2026-04-12T13:49:25.047Z</time></trkpt><trkpt lat="42.777888" lon="12.4012646"><ele>342.5</ele><time>2026-04-12T13:49:26.036Z</time></trkpt><trkpt lat="42.7778185" lon="12.4014115"><ele>344.0</ele><time>2026-04-12T13:49:27.042Z</time></trkpt><trkpt lat="42.7777479" lon="12.4015535"><ele>343.5</ele><time>2026-04-12T13:49:28.042Z</time></trkpt><trkpt lat="42.7776914" lon="12.4016943"><ele>343.0</ele><time>2026-04-12T13:49:29.042Z</time></trkpt><trkpt lat="42.7776603" lon="12.4018488"><ele>342.5</ele><time>2026-04-12T13:49:30.041Z</time></trkpt><trkpt lat="42.777648" lon="12.4020186"><ele>342.0</ele><time>2026-04-12T13:49:31.038Z</time></trkpt><trkpt lat="42.777662" lon="12.4022061"><ele>341.0</ele><time>2026-04-12T13:49:32.045Z</time></trkpt><trkpt lat="42.7776831" lon="12.4024082"><ele>340.0</ele><time>2026-04-12T13:49:33.037Z</time></trkpt><trkpt lat="42.7777043" lon="12.4026227"><ele>339.0</ele><time>2026-04-12T13:49:34.041Z</time></trkpt><trkpt lat="42.7777236" lon="12.4028384"><ele>343.6666666666667</ele><time>2026-04-12T13:49:35.045Z</time></trkpt><trkpt lat="42.7777422" lon="12.4030515"><ele>348.33333333333337</ele><time>2026-04-12T13:49:36.038Z</time></trkpt><trkpt lat="42.7777632" lon="12.4032698"><ele>353.0</ele><time>2026-04-12T13:49:37.04Z</time></trkpt><trkpt lat="42.7777807" lon="12.403496"><ele>353.0</ele><time>2026-04-12T13:49:38.049Z</time></trkpt><trkpt lat="42.7777987" lon="12.4037274"><ele>353.0</ele><time>2026-04-12T13:49:39.04Z</time></trkpt><trkpt lat="42.7778205" lon="12.4039616"><ele>353.0</ele><time>2026-04-12T13:49:40.038Z</time></trkpt><trkpt lat="42.7778507" lon="12.4041982"><ele>352.6666666666667</ele><time>2026-04-12T13:49:41.046Z</time></trkpt><trkpt lat="42.7778861" lon="12.4044333"><ele>352.3333333333333</ele><time>2026-04-12T13:49:42.037Z</time></trkpt><trkpt lat="42.7779463" lon="12.4046751"><ele>352.0</ele><time>2026-04-12T13:49:43.072Z</time></trkpt><trkpt lat="42.7779976" lon="12.4049119"><ele>351.20000000000005</ele><time>2026-04-12T13:49:44.034Z</time></trkpt><trkpt lat="42.7780409" lon="12.4051182"><ele>350.4</ele><time>2026-04-12T13:49:45.039Z</time></trkpt><trkpt lat="42.778058" lon="12.4052793"><ele>349.6</ele><time>2026-04-12T13:49:46.041Z</time></trkpt><trkpt lat="42.7780641" lon="12.4053983"><ele>348.79999999999995</ele><time>2026-04-12T13:49:47.042Z</time></trkpt><trkpt lat="42.7780383" lon="12.4054926"><ele>348.0</ele><time>2026-04-12T13:49:49.042Z</time></trkpt><trkpt lat="42.7780097" lon="12.4054066"><ele>348.0</ele><time>2026-04-12T13:49:53.036Z</time></trkpt><trkpt lat="42.7779654" lon="12.4053218"><ele>348.0</ele><time>2026-04-12T13:50:40.042Z</time></trkpt><trkpt lat="42.7779307" lon="12.4054213"><ele>348.0</ele><time>2026-04-12T13:51:39.043Z</time></trkpt><trkpt lat="42.7779524" lon="12.4055126"><ele>348.0</ele><time>2026-04-12T13:52:40.039Z</time></trkpt><trkpt lat="42.7780062" lon="12.4055592"><ele>348.0</ele><time>2026-04-12T13:54:17.041Z</time></trkpt><trkpt lat="42.7780629" lon="12.4056531"><ele>348.0</ele><time>2026-04-12T13:54:20.038Z</time></trkpt><trkpt lat="42.7780658" lon="12.4058084"><ele>347.0</ele><time>2026-04-12T13:54:22.042Z</time></trkpt><trkpt lat="42.7780566" lon="12.405903"><ele>346.0</ele><time>2026-04-12T13:54:23.044Z</time></trkpt><trkpt lat="42.778049" lon="12.406014"><ele>345.0</ele><time>2026-04-12T13:54:24.032Z</time></trkpt><trkpt lat="42.7780405" lon="12.4061257"><ele>344.0</ele><time>2026-04-12T13:54:25.037Z</time></trkpt><trkpt lat="42.7780287" lon="12.4062485"><ele>343.0</ele><time>2026-04-12T13:54:26.039Z</time></trkpt><trkpt lat="42.7780199" lon="12.4063821"><ele>342.0</ele><time>2026-04-12T13:54:27.039Z</time></trkpt><trkpt lat="42.7780106" lon="12.4065275"><ele>341.0</ele><time>2026-04-12T13:54:28.045Z</time></trkpt><trkpt lat="42.7779973" lon="12.4066802"><ele>340.0</ele><time>2026-04-12T13:54:29.041Z</time></trkpt><trkpt lat="42.7779833" lon="12.4068377"><ele>339.0</ele><time>2026-04-12T13:54:30.039Z</time></trkpt><trkpt lat="42.7779706" lon="12.4069922"><ele>338.0</ele><time>2026-04-12T13:54:31.048Z</time></trkpt><trkpt lat="42.7779585" lon="12.4071448"><ele>337.0</ele><time>2026-04-12T13:54:32.044Z</time></trkpt><trkpt lat="42.7779464" lon="12.4072989"><ele>336.0</ele><time>2026-04-12T13:54:33.044Z</time></trkpt><trkpt lat="42.7779387" lon="12.4074469"><ele>335.0</ele><time>2026-04-12T13:54:34.051Z</time></trkpt><trkpt lat="42.7779474" lon="12.4075964"><ele>334.0</ele><time>2026-04-12T13:54:35.038Z</time></trkpt><trkpt lat="42.7779816" lon="12.4077438"><ele>333.0</ele><time>2026-04-12T13:54:36.045Z</time></trkpt><trkpt lat="42.7780342" lon="12.4078885"><ele>331.5</ele><time>2026-04-12T13:54:37.04Z</time></trkpt><trkpt lat="42.7780969" lon="12.4080294"><ele>330.0</ele><time>2026-04-12T13:54:38.04Z</time></trkpt><trkpt lat="42.7781503" lon="12.4081717"><ele>328.5</ele><time>2026-04-12T13:54:39.043Z</time></trkpt><trkpt lat="42.7782042" lon="12.408317"><ele>327.0</ele><time>2026-04-12T13:54:40.03Z</time></trkpt><trkpt lat="42.778256" lon="12.4084743"><ele>327.0</ele><time>2026-04-12T13:54:41.053Z</time></trkpt><trkpt lat="42.7783037" lon="12.4086423"><ele>327.0</ele><time>2026-04-12T13:54:42.038Z</time></trkpt><trkpt lat="42.7783459" lon="12.4088156"><ele>327.0</ele><time>2026-04-12T13:54:43.038Z</time></trkpt><trkpt lat="42.7783841" lon="12.4089927"><ele>327.0</ele><time>2026-04-12T13:54:44.039Z</time></trkpt><trkpt lat="42.7784237" lon="12.4091692"><ele>326.0</ele><time>2026-04-12T13:54:45.038Z</time></trkpt><trkpt lat="42.7784631" lon="12.4093393"><ele>325.0</ele><time>2026-04-12T13:54:46.039Z</time></trkpt><trkpt lat="42.7784995" lon="12.4095034"><ele>324.0</ele><time>2026-04-12T13:54:47.034Z</time></trkpt><trkpt lat="42.7785335" lon="12.4096614"><ele>323.0</ele><time>2026-04-12T13:54:48.041Z</time></trkpt><trkpt lat="42.7785644" lon="12.4098169"><ele>326.79999999999995</ele><time>2026-04-12T13:54:49.037Z</time></trkpt><trkpt lat="42.7785912" lon="12.4099675"><ele>330.6</ele><time>2026-04-12T13:54:50.058Z</time></trkpt><trkpt lat="42.7786172" lon="12.4101153"><ele>334.4</ele><time>2026-04-12T13:54:51.041Z</time></trkpt><trkpt lat="42.7786372" lon="12.410264"><ele>338.20000000000005</ele><time>2026-04-12T13:54:52.039Z</time></trkpt><trkpt lat="42.7786538" lon="12.4104135"><ele>342.0</ele><time>2026-04-12T13:54:53.042Z</time></trkpt><trkpt lat="42.7786714" lon="12.4105674"><ele>342.0</ele><time>2026-04-12T13:54:54.035Z</time></trkpt><trkpt lat="42.7786788" lon="12.4107371"><ele>342.0</ele><time>2026-04-12T13:54:55.036Z</time></trkpt><trkpt lat="42.7786759" lon="12.410916"><ele>342.0</ele><time>2026-04-12T13:54:56.044Z</time></trkpt><trkpt lat="42.7786566" lon="12.4110983"><ele>342.0</ele><time>2026-04-12T13:54:57.037Z</time></trkpt><trkpt lat="42.778625" lon="12.4112684"><ele>341.5</ele><time>2026-04-12T13:54:58.047Z</time></trkpt><trkpt lat="42.7785865" lon="12.4114322"><ele>341.0</ele><time>2026-04-12T13:54:59.034Z</time></trkpt><trkpt lat="42.7785477" lon="12.4115915"><ele>340.5</ele><time>2026-04-12T13:55:00.037Z</time></trkpt><trkpt lat="42.7785099" lon="12.411752"><ele>340.0</ele><time>2026-04-12T13:55:01.033Z</time></trkpt><trkpt lat="42.778479" lon="12.4119137"><ele>336.25</ele><time>2026-04-12T13:55:02.044Z</time></trkpt><trkpt lat="42.7784577" lon="12.4120771"><ele>332.5</ele><time>2026-04-12T13:55:03.043Z</time></trkpt><trkpt lat="42.7784423" lon="12.4122357"><ele>328.75</ele><time>2026-04-12T13:55:04.044Z</time></trkpt><trkpt lat="42.778431" lon="12.4123848"><ele>325.0</ele><time>2026-04-12T13:55:05.037Z</time></trkpt><trkpt lat="42.7784211" lon="12.4125341"><ele>325.0</ele><time>2026-04-12T13:55:06.04Z</time></trkpt><trkpt lat="42.7784103" lon="12.4126809"><ele>325.0</ele><time>2026-04-12T13:55:07.038Z</time></trkpt><trkpt lat="42.7783988" lon="12.4128283"><ele>325.0</ele><time>2026-04-12T13:55:08.039Z</time></trkpt><trkpt lat="42.7783872" lon="12.4129746"><ele>325.0</ele><time>2026-04-12T13:55:09.037Z</time></trkpt><trkpt lat="42.7783763" lon="12.4131229"><ele>325.0</ele><time>2026-04-12T13:55:10.065Z</time></trkpt><trkpt lat="42.7783662" lon="12.4132717"><ele>325.0</ele><time>2026-04-12T13:55:11.035Z</time></trkpt><trkpt lat="42.7783595" lon="12.4134109"><ele>325.0</ele><time>2026-04-12T13:55:12.036Z</time></trkpt><trkpt lat="42.7783596" lon="12.413536"><ele>325.0</ele><time>2026-04-12T13:55:13.045Z</time></trkpt><trkpt lat="42.77837" lon="12.4136443"><ele>325.0</ele><time>2026-04-12T13:55:14.045Z</time></trkpt><trkpt lat="42.7783897" lon="12.4137365"><ele>325.0</ele><time>2026-04-12T13:55:15.046Z</time></trkpt><trkpt lat="42.778417" lon="12.4138145"><ele>325.0</ele><time>2026-04-12T13:55:16.042Z</time></trkpt><trkpt lat="42.7784937" lon="12.4139485"><ele>325.85714285714283</ele><time>2026-04-12T13:55:18.041Z</time></trkpt><trkpt lat="42.7785448" lon="12.4140093"><ele>326.7142857142857</ele><time>2026-04-12T13:55:19.04Z</time></trkpt><trkpt lat="42.7786026" lon="12.4140696"><ele>327.57142857142856</ele><time>2026-04-12T13:55:20.036Z</time></trkpt><trkpt lat="42.7786657" lon="12.414132"><ele>328.42857142857144</ele><time>2026-04-12T13:55:21.034Z</time></trkpt><trkpt lat="42.778727" lon="12.4141946"><ele>329.2857142857143</ele><time>2026-04-12T13:55:22.043Z</time></trkpt><trkpt lat="42.7787786" lon="12.4142637"><ele>330.14285714285717</ele><time>2026-04-12T13:55:23.031Z</time></trkpt><trkpt lat="42.778814" lon="12.4143484"><ele>331.0</ele><time>2026-04-12T13:55:24.036Z</time></trkpt><trkpt lat="42.7788272" lon="12.4144492"><ele>331.0</ele><time>2026-04-12T13:55:25.037Z</time></trkpt><trkpt lat="42.7788133" lon="12.4145587"><ele>331.0</ele><time>2026-04-12T13:55:26.039Z</time></trkpt><trkpt lat="42.7787776" lon="12.4146688"><ele>331.0</ele><time>2026-04-12T13:55:27.038Z</time></trkpt><trkpt lat="42.7787304" lon="12.4147859"><ele>331.0</ele><time>2026-04-12T13:55:28.04Z</time></trkpt><trkpt lat="42.7786783" lon="12.4149057"><ele>331.0</ele><time>2026-04-12T13:55:29.038Z</time></trkpt><trkpt lat="42.7786242" lon="12.4150309"><ele>330.25</ele><time>2026-04-12T13:55:30.034Z</time></trkpt><trkpt lat="42.7785688" lon="12.4151598"><ele>329.5</ele><time>2026-04-12T13:55:31.038Z</time></trkpt><trkpt lat="42.7785096" lon="12.4153016"><ele>328.75</ele><time>2026-04-12T13:55:32.036Z</time></trkpt><trkpt lat="42.7784436" lon="12.4154549"><ele>328.0</ele><time>2026-04-12T13:55:33.042Z</time></trkpt><trkpt lat="42.7783776" lon="12.4156131"><ele>328.0</ele><time>2026-04-12T13:55:34.04Z</time></trkpt><trkpt lat="42.7783107" lon="12.4157689"><ele>328.0</ele><time>2026-04-12T13:55:35.038Z</time></trkpt><trkpt lat="42.7782481" lon="12.415919"><ele>328.0</ele><time>2026-04-12T13:55:36.042Z</time></trkpt><trkpt lat="42.7781872" lon="12.416066"><ele>328.0</ele><time>2026-04-12T13:55:37.047Z</time></trkpt><trkpt lat="42.7781211" lon="12.4162136"><ele>326.0</ele><time>2026-04-12T13:55:38.046Z</time></trkpt><trkpt lat="42.7780451" lon="12.4163679"><ele>324.0</ele><time>2026-04-12T13:55:39.044Z</time></trkpt><trkpt lat="42.7779549" lon="12.4165205"><ele>322.0</ele><time>2026-04-12T13:55:40.041Z</time></trkpt><trkpt lat="42.777843" lon="12.4166618"><ele>320.0</ele><time>2026-04-12T13:55:41.042Z</time></trkpt><trkpt lat="42.7777306" lon="12.4168013"><ele>319.0</ele><time>2026-04-12T13:55:42.044Z</time></trkpt><trkpt lat="42.777581" lon="12.416859"><ele>318.0</ele><time>2026-04-12T13:55:43.039Z</time></trkpt><trkpt lat="42.777432" lon="12.4168973"><ele>317.0</ele><time>2026-04-12T13:55:44.043Z</time></trkpt><trkpt lat="42.7772791" lon="12.4169135"><ele>317.0</ele><time>2026-04-12T13:55:45.041Z</time></trkpt><trkpt lat="42.7771382" lon="12.4169403"><ele>317.0</ele><time>2026-04-12T13:55:46.047Z</time></trkpt><trkpt lat="42.7770139" lon="12.4169697"><ele>317.0</ele><time>2026-04-12T13:55:47.053Z</time></trkpt><trkpt lat="42.7768968" lon="12.417024"><ele>317.0</ele><time>2026-04-12T13:55:48.049Z</time></trkpt><trkpt lat="42.7768065" lon="12.4171421"><ele>314.5</ele><time>2026-04-12T13:55:49.041Z</time></trkpt><trkpt lat="42.7767522" lon="12.4173002"><ele>312.0</ele><time>2026-04-12T13:55:50.041Z</time></trkpt><trkpt lat="42.7767154" lon="12.4174793"><ele>309.5</ele><time>2026-04-12T13:55:51.035Z</time></trkpt><trkpt lat="42.7767297" lon="12.4176716"><ele>307.0</ele><time>2026-04-12T13:55:52.049Z</time></trkpt><trkpt lat="42.7767382" lon="12.4178672"><ele>307.66666666666663</ele><time>2026-04-12T13:55:53.046Z</time></trkpt><trkpt lat="42.7767892" lon="12.41806"><ele>308.3333333333333</ele><time>2026-04-12T13:55:54.045Z</time></trkpt><trkpt lat="42.7768381" lon="12.418255"><ele>309.0</ele><time>2026-04-12T13:55:55.055Z</time></trkpt><trkpt lat="42.7768943" lon="12.4184577"><ele>309.0</ele><time>2026-04-12T13:55:56.045Z</time></trkpt><trkpt lat="42.7769526" lon="12.4186564"><ele>309.0</ele><time>2026-04-12T13:55:57.052Z</time></trkpt><trkpt lat="42.7770201" lon="12.4188652"><ele>309.0</ele><time>2026-04-12T13:55:58.046Z</time></trkpt><trkpt lat="42.7770889" lon="12.4190721"><ele>307.3333333333333</ele><time>2026-04-12T13:55:59.043Z</time></trkpt><trkpt lat="42.7771583" lon="12.4192769"><ele>305.66666666666663</ele><time>2026-04-12T13:56:00.045Z</time></trkpt><trkpt lat="42.7772273" lon="12.4194831"><ele>304.0</ele><time>2026-04-12T13:56:01.04Z</time></trkpt><trkpt lat="42.7772985" lon="12.419701"><ele>302.3333333333333</ele><time>2026-04-12T13:56:02.039Z</time></trkpt><trkpt lat="42.7773694" lon="12.4199115"><ele>300.6666666666667</ele><time>2026-04-12T13:56:03.041Z</time></trkpt><trkpt lat="42.7774381" lon="12.4201188"><ele>299.0</ele><time>2026-04-12T13:56:04.042Z</time></trkpt><trkpt lat="42.7775041" lon="12.4203231"><ele>297.6666666666667</ele><time>2026-04-12T13:56:05.05Z</time></trkpt><trkpt lat="42.7775703" lon="12.420523"><ele>296.3333333333333</ele><time>2026-04-12T13:56:06.041Z</time></trkpt><trkpt lat="42.7776108" lon="12.4207342"><ele>295.0</ele><time>2026-04-12T13:56:07.041Z</time></trkpt><trkpt lat="42.777624" lon="12.4209448"><ele>295.0</ele><time>2026-04-12T13:56:08.045Z</time></trkpt><trkpt lat="42.7776281" lon="12.4211591"><ele>295.0</ele><time>2026-04-12T13:56:09.043Z</time></trkpt><trkpt lat="42.777576" lon="12.4213696"><ele>295.0</ele><time>2026-04-12T13:56:10.049Z</time></trkpt><trkpt lat="42.7775096" lon="12.4215686"><ele>295.3333333333333</ele><time>2026-04-12T13:56:11.04Z</time></trkpt><trkpt lat="42.7774454" lon="12.4217678"><ele>295.6666666666667</ele><time>2026-04-12T13:56:12.046Z</time></trkpt><trkpt lat="42.777379" lon="12.4219649"><ele>296.0</ele><time>2026-04-12T13:56:13.038Z</time></trkpt><trkpt lat="42.7773202" lon="12.4221499"><ele>296.25</ele><time>2026-04-12T13:56:14.043Z</time></trkpt><trkpt lat="42.7772722" lon="12.4223238"><ele>296.5</ele><time>2026-04-12T13:56:15.046Z</time></trkpt><trkpt lat="42.7772193" lon="12.422499"><ele>296.75</ele><time>2026-04-12T13:56:16.038Z</time></trkpt><trkpt lat="42.7771716" lon="12.4226719"><ele>297.0</ele><time>2026-04-12T13:56:17.042Z</time></trkpt><trkpt lat="42.7771229" lon="12.4228383"><ele>295.4</ele><time>2026-04-12T13:56:18.045Z</time></trkpt><trkpt lat="42.7770787" lon="12.4229902"><ele>293.79999999999995</ele><time>2026-04-12T13:56:19.041Z</time></trkpt><trkpt lat="42.7770357" lon="12.4231296"><ele>292.2</ele><time>2026-04-12T13:56:20.044Z</time></trkpt><trkpt lat="42.7769936" lon="12.4232496"><ele>290.59999999999997</ele><time>2026-04-12T13:56:21.046Z</time></trkpt><trkpt lat="42.7769535" lon="12.423357"><ele>289.0</ele><time>2026-04-12T13:56:22.05Z</time></trkpt><trkpt lat="42.7769099" lon="12.4234623"><ele>289.0</ele><time>2026-04-12T13:56:23.045Z</time></trkpt><trkpt lat="42.7768591" lon="12.4235812"><ele>289.0</ele><time>2026-04-12T13:56:24.04Z</time></trkpt><trkpt lat="42.7767928" lon="12.4237063"><ele>289.0</ele><time>2026-04-12T13:56:25.038Z</time></trkpt><trkpt lat="42.7767066" lon="12.423825"><ele>289.0</ele><time>2026-04-12T13:56:26.04Z</time></trkpt><trkpt lat="42.7766054" lon="12.4239321"><ele>289.75</ele><time>2026-04-12T13:56:27.05Z</time></trkpt><trkpt lat="42.7764934" lon="12.4240304"><ele>290.5</ele><time>2026-04-12T13:56:28.038Z</time></trkpt><trkpt lat="42.7763847" lon="12.4241228"><ele>291.25</ele><time>2026-04-12T13:56:29.04Z</time></trkpt><trkpt lat="42.7762834" lon="12.4242073"><ele>292.0</ele><time>2026-04-12T13:56:30.038Z</time></trkpt><trkpt lat="42.7761884" lon="12.424273"><ele>292.0</ele><time>2026-04-12T13:56:31.034Z</time></trkpt><trkpt lat="42.7761009" lon="12.4243205"><ele>292.0</ele><time>2026-04-12T13:56:32.038Z</time></trkpt><trkpt lat="42.7760219" lon="12.4243526"><ele>292.0</ele><time>2026-04-12T13:56:33.047Z</time></trkpt><trkpt lat="42.7759481" lon="12.4243808"><ele>292.0</ele><time>2026-04-12T13:56:34.05Z</time></trkpt><trkpt lat="42.7758733" lon="12.4244333"><ele>292.0</ele><time>2026-04-12T13:56:35.046Z</time></trkpt><trkpt lat="42.7757966" lon="12.4245332"><ele>292.0</ele><time>2026-04-12T13:56:36.042Z</time></trkpt><trkpt lat="42.7757187" lon="12.4246675"><ele>294.25</ele><time>2026-04-12T13:56:37.042Z</time></trkpt><trkpt lat="42.775636" lon="12.424784"><ele>296.5</ele><time>2026-04-12T13:56:38.044Z</time></trkpt><trkpt lat="42.7755369" lon="12.4248835"><ele>298.75</ele><time>2026-04-12T13:56:39.044Z</time></trkpt><trkpt lat="42.7754324" lon="12.4249761"><ele>301.0</ele><time>2026-04-12T13:56:40.057Z</time></trkpt><trkpt lat="42.7753289" lon="12.4250727"><ele>301.0</ele><time>2026-04-12T13:56:41.044Z</time></trkpt><trkpt lat="42.7752241" lon="12.425175"><ele>301.0</ele><time>2026-04-12T13:56:42.043Z</time></trkpt><trkpt lat="42.7751205" lon="12.4252892"><ele>301.0</ele><time>2026-04-12T13:56:43.045Z</time></trkpt><trkpt lat="42.7750228" lon="12.4254194"><ele>301.0</ele><time>2026-04-12T13:56:44.045Z</time></trkpt><trkpt lat="42.7749329" lon="12.425568"><ele>301.0</ele><time>2026-04-12T13:56:45.046Z</time></trkpt><trkpt lat="42.7748505" lon="12.425738"><ele>301.0</ele><time>2026-04-12T13:56:46.052Z</time></trkpt><trkpt lat="42.7747725" lon="12.4259211"><ele>301.0</ele><time>2026-04-12T13:56:47.049Z</time></trkpt><trkpt lat="42.7746918" lon="12.4261114"><ele>301.0</ele><time>2026-04-12T13:56:48.05Z</time></trkpt><trkpt lat="42.7746071" lon="12.4263076"><ele>301.0</ele><time>2026-04-12T13:56:49.044Z</time></trkpt><trkpt lat="42.7745212" lon="12.4265069"><ele>301.0</ele><time>2026-04-12T13:56:50.045Z</time></trkpt><trkpt lat="42.7744365" lon="12.4267044"><ele>300.66666666666663</ele><time>2026-04-12T13:56:51.041Z</time></trkpt><trkpt lat="42.774354" lon="12.4268973"><ele>300.3333333333333</ele><time>2026-04-12T13:56:52.043Z</time></trkpt><trkpt lat="42.7742738" lon="12.4270859"><ele>300.0</ele><time>2026-04-12T13:56:53.042Z</time></trkpt><trkpt lat="42.7741946" lon="12.4272741"><ele>300.0</ele><time>2026-04-12T13:56:54.047Z</time></trkpt><trkpt lat="42.7741144" lon="12.427464"><ele>300.0</ele><time>2026-04-12T13:56:55.042Z</time></trkpt><trkpt lat="42.7740371" lon="12.4276464"><ele>300.0</ele><time>2026-04-12T13:56:56.046Z</time></trkpt><trkpt lat="42.7739626" lon="12.4278194"><ele>299.25</ele><time>2026-04-12T13:56:57.045Z</time></trkpt><trkpt lat="42.773888" lon="12.4279904"><ele>298.5</ele><time>2026-04-12T13:56:58.045Z</time></trkpt><trkpt lat="42.7738128" lon="12.4281668"><ele>297.75</ele><time>2026-04-12T13:56:59.037Z</time></trkpt><trkpt lat="42.7737353" lon="12.4283464"><ele>297.0</ele><time>2026-04-12T13:57:00.036Z</time></trkpt><trkpt lat="42.7736571" lon="12.4285298"><ele>297.0</ele><time>2026-04-12T13:57:01.038Z</time></trkpt><trkpt lat="42.7735783" lon="12.4287157"><ele>297.0</ele><time>2026-04-12T13:57:02.04Z</time></trkpt><trkpt lat="42.7734988" lon="12.4289043"><ele>297.0</ele><time>2026-04-12T13:57:03.041Z</time></trkpt><trkpt lat="42.7734182" lon="12.4290934"><ele>295.6666666666667</ele><time>2026-04-12T13:57:04.045Z</time></trkpt><trkpt lat="42.7733381" lon="12.4292837"><ele>294.33333333333337</ele><time>2026-04-12T13:57:05.049Z</time></trkpt><trkpt lat="42.7732582" lon="12.4294717"><ele>293.0</ele><time>2026-04-12T13:57:06.047Z</time></trkpt><trkpt lat="42.773181" lon="12.4296523"><ele>291.33333333333337</ele><time>2026-04-12T13:57:07.046Z</time></trkpt><trkpt lat="42.7731037" lon="12.4298341"><ele>289.6666666666667</ele><time>2026-04-12T13:57:08.045Z</time></trkpt><trkpt lat="42.7730218" lon="12.4300071"><ele>288.0</ele><time>2026-04-12T13:57:09.037Z</time></trkpt><trkpt lat="42.7729406" lon="12.4301999"><ele>288.0</ele><time>2026-04-12T13:57:10.048Z</time></trkpt><trkpt lat="42.7728512" lon="12.4304004"><ele>288.0</ele><time>2026-04-12T13:57:11.044Z</time></trkpt><trkpt lat="42.7727626" lon="12.4305954"><ele>288.0</ele><time>2026-04-12T13:57:12.046Z</time></trkpt><trkpt lat="42.7726793" lon="12.4307875"><ele>287.6666666666667</ele><time>2026-04-12T13:57:13.038Z</time></trkpt><trkpt lat="42.7725941" lon="12.4309812"><ele>287.33333333333337</ele><time>2026-04-12T13:57:14.041Z</time></trkpt><trkpt lat="42.772508" lon="12.4311785"><ele>287.0</ele><time>2026-04-12T13:57:15.045Z</time></trkpt><trkpt lat="42.7724235" lon="12.4313814"><ele>286.6666666666667</ele><time>2026-04-12T13:57:16.037Z</time></trkpt><trkpt lat="42.7723365" lon="12.4315853"><ele>286.3333333333333</ele><time>2026-04-12T13:57:17.039Z</time></trkpt><trkpt lat="42.7722478" lon="12.4317924"><ele>286.0</ele><time>2026-04-12T13:57:18.034Z</time></trkpt><trkpt lat="42.7721596" lon="12.4320007"><ele>286.0</ele><time>2026-04-12T13:57:19.042Z</time></trkpt><trkpt lat="42.7720697" lon="12.4322085"><ele>286.0</ele><time>2026-04-12T13:57:20.049Z</time></trkpt><trkpt lat="42.7719821" lon="12.4324198"><ele>286.0</ele><time>2026-04-12T13:57:21.043Z</time></trkpt><trkpt lat="42.7718966" lon="12.4326342"><ele>286.0</ele><time>2026-04-12T13:57:22.042Z</time></trkpt><trkpt lat="42.7718181" lon="12.432838"><ele>286.0</ele><time>2026-04-12T13:57:23.045Z</time></trkpt><trkpt lat="42.7717403" lon="12.4330356"><ele>286.0</ele><time>2026-04-12T13:57:24.05Z</time></trkpt><trkpt lat="42.7716633" lon="12.4332339"><ele>286.66666666666663</ele><time>2026-04-12T13:57:25.041Z</time></trkpt><trkpt lat="42.7715821" lon="12.4334337"><ele>287.3333333333333</ele><time>2026-04-12T13:57:26.049Z</time></trkpt><trkpt lat="42.7714904" lon="12.4336338"><ele>288.0</ele><time>2026-04-12T13:57:27.044Z</time></trkpt><trkpt lat="42.7713842" lon="12.4338377"><ele>289.6666666666667</ele><time>2026-04-12T13:57:28.05Z</time></trkpt><trkpt lat="42.7712637" lon="12.4340413"><ele>291.33333333333337</ele><time>2026-04-12T13:57:29.048Z</time></trkpt><trkpt lat="42.7711321" lon="12.4342435"><ele>293.0</ele><time>2026-04-12T13:57:30.045Z</time></trkpt><trkpt lat="42.7709949" lon="12.4344418"><ele>293.0</ele><time>2026-04-12T13:57:31.042Z</time></trkpt><trkpt lat="42.7708524" lon="12.4346358"><ele>293.0</ele><time>2026-04-12T13:57:32.042Z</time></trkpt><trkpt lat="42.7707054" lon="12.4348304"><ele>293.0</ele><time>2026-04-12T13:57:33.039Z</time></trkpt><trkpt lat="42.7705537" lon="12.4350241"><ele>294.33333333333337</ele><time>2026-04-12T13:57:34.04Z</time></trkpt><trkpt lat="42.7704067" lon="12.435204"><ele>295.6666666666667</ele><time>2026-04-12T13:57:35.047Z</time></trkpt><trkpt lat="42.7702724" lon="12.4353704"><ele>297.0</ele><time>2026-04-12T13:57:36.045Z</time></trkpt><trkpt lat="42.7701472" lon="12.435522"><ele>297.6666666666667</ele><time>2026-04-12T13:57:37.046Z</time></trkpt><trkpt lat="42.7700298" lon="12.4356668"><ele>298.33333333333337</ele><time>2026-04-12T13:57:38.049Z</time></trkpt><trkpt lat="42.7699145" lon="12.4358106"><ele>299.0</ele><time>2026-04-12T13:57:39.048Z</time></trkpt><trkpt lat="42.7697945" lon="12.4359564"><ele>299.0</ele><time>2026-04-12T13:57:40.061Z</time></trkpt><trkpt lat="42.7696671" lon="12.4361004"><ele>299.0</ele><time>2026-04-12T13:57:41.043Z</time></trkpt><trkpt lat="42.7695293" lon="12.436235"><ele>299.0</ele><time>2026-04-12T13:57:42.042Z</time></trkpt><trkpt lat="42.7693798" lon="12.4363511"><ele>302.0</ele><time>2026-04-12T13:57:43.041Z</time></trkpt><trkpt lat="42.769222" lon="12.4364471"><ele>305.0</ele><time>2026-04-12T13:57:44.054Z</time></trkpt><trkpt lat="42.7690582" lon="12.4365293"><ele>308.0</ele><time>2026-04-12T13:57:45.039Z</time></trkpt><trkpt lat="42.7688927" lon="12.4366093"><ele>308.0</ele><time>2026-04-12T13:57:46.049Z</time></trkpt><trkpt lat="42.7687285" lon="12.4366982"><ele>308.0</ele><time>2026-04-12T13:57:47.044Z</time></trkpt><trkpt lat="42.7685674" lon="12.4368012"><ele>308.0</ele><time>2026-04-12T13:57:48.045Z</time></trkpt><trkpt lat="42.768415" lon="12.4369237"><ele>309.0</ele><time>2026-04-12T13:57:49.043Z</time></trkpt><trkpt lat="42.7682809" lon="12.4370603"><ele>310.0</ele><time>2026-04-12T13:57:50.044Z</time></trkpt><trkpt lat="42.7681676" lon="12.4372124"><ele>311.0</ele><time>2026-04-12T13:57:51.049Z</time></trkpt><trkpt lat="42.7680657" lon="12.4373727"><ele>311.0</ele><time>2026-04-12T13:57:52.044Z</time></trkpt><trkpt lat="42.7679627" lon="12.4375294"><ele>311.0</ele><time>2026-04-12T13:57:53.045Z</time></trkpt><trkpt lat="42.7678514" lon="12.4376779"><ele>311.0</ele><time>2026-04-12T13:57:54.053Z</time></trkpt><trkpt lat="42.7677305" lon="12.4378188"><ele>310.6666666666667</ele><time>2026-04-12T13:57:55.042Z</time></trkpt><trkpt lat="42.7675983" lon="12.4379518"><ele>310.3333333333333</ele><time>2026-04-12T13:57:56.047Z</time></trkpt><trkpt lat="42.7674553" lon="12.4380758"><ele>310.0</ele><time>2026-04-12T13:57:57.038Z</time></trkpt><trkpt lat="42.7673086" lon="12.438186"><ele>309.66666666666663</ele><time>2026-04-12T13:57:58.055Z</time></trkpt><trkpt lat="42.7671654" lon="12.4382829"><ele>309.3333333333333</ele><time>2026-04-12T13:57:59.04Z</time></trkpt><trkpt lat="42.7670164" lon="12.4383597"><ele>309.0</ele><time>2026-04-12T13:58:00.048Z</time></trkpt><trkpt lat="42.7668725" lon="12.4384401"><ele>308.0</ele><time>2026-04-12T13:58:01.044Z</time></trkpt><trkpt lat="42.7667253" lon="12.4385081"><ele>307.0</ele><time>2026-04-12T13:58:02.048Z</time></trkpt><trkpt lat="42.7665717" lon="12.4385635"><ele>306.0</ele><time>2026-04-12T13:58:03.051Z</time></trkpt><trkpt lat="42.7664233" lon="12.4386112"><ele>306.0</ele><time>2026-04-12T13:58:04.043Z</time></trkpt><trkpt lat="42.7662837" lon="12.4386516"><ele>306.0</ele><time>2026-04-12T13:58:05.041Z</time></trkpt><trkpt lat="42.7661521" lon="12.4386913"><ele>306.0</ele><time>2026-04-12T13:58:06.048Z</time></trkpt><trkpt lat="42.7660207" lon="12.4387322"><ele>306.0</ele><time>2026-04-12T13:58:07.041Z</time></trkpt><trkpt lat="42.7658844" lon="12.4387784"><ele>305.6666666666667</ele><time>2026-04-12T13:58:08.056Z</time></trkpt><trkpt lat="42.7657393" lon="12.4388255"><ele>305.33333333333337</ele><time>2026-04-12T13:58:09.044Z</time></trkpt><trkpt lat="42.7655805" lon="12.4388804"><ele>305.0</ele><time>2026-04-12T13:58:10.051Z</time></trkpt><trkpt lat="42.7654063" lon="12.4389399"><ele>305.0</ele><time>2026-04-12T13:58:11.046Z</time></trkpt><trkpt lat="42.7652268" lon="12.4389989"><ele>305.0</ele><time>2026-04-12T13:58:12.052Z</time></trkpt><trkpt lat="42.7650353" lon="12.4390462"><ele>305.0</ele><time>2026-04-12T13:58:13.048Z</time></trkpt><trkpt lat="42.7648534" lon="12.4390695"><ele>305.0</ele><time>2026-04-12T13:58:14.046Z</time></trkpt><trkpt lat="42.7646851" lon="12.4390792"><ele>305.0</ele><time>2026-04-12T13:58:15.05Z</time></trkpt><trkpt lat="42.7645276" lon="12.4390842"><ele>305.0</ele><time>2026-04-12T13:58:16.046Z</time></trkpt><trkpt lat="42.7643759" lon="12.4390938"><ele>306.33333333333337</ele><time>2026-04-12T13:58:17.048Z</time></trkpt><trkpt lat="42.7642255" lon="12.4391118"><ele>307.6666666666667</ele><time>2026-04-12T13:58:18.04Z</time></trkpt><trkpt lat="42.7640728" lon="12.4391408"><ele>309.0</ele><time>2026-04-12T13:58:19.049Z</time></trkpt><trkpt lat="42.7639206" lon="12.4391834"><ele>309.0</ele><time>2026-04-12T13:58:20.043Z</time></trkpt><trkpt lat="42.763762" lon="12.4392352"><ele>309.0</ele><time>2026-04-12T13:58:21.04Z</time></trkpt><trkpt lat="42.7636049" lon="12.4393159"><ele>309.0</ele><time>2026-04-12T13:58:22.046Z</time></trkpt><trkpt lat="42.7634516" lon="12.4393982"><ele>309.0</ele><time>2026-04-12T13:58:23.046Z</time></trkpt><trkpt lat="42.7632969" lon="12.4394834"><ele>309.0</ele><time>2026-04-12T13:58:24.048Z</time></trkpt><trkpt lat="42.763138" lon="12.4395685"><ele>309.0</ele><time>2026-04-12T13:58:25.047Z</time></trkpt><trkpt lat="42.7629788" lon="12.4396534"><ele>309.0</ele><time>2026-04-12T13:58:26.051Z</time></trkpt><trkpt lat="42.7628204" lon="12.4397388"><ele>309.0</ele><time>2026-04-12T13:58:27.054Z</time></trkpt><trkpt lat="42.7626643" lon="12.4398215"><ele>309.0</ele><time>2026-04-12T13:58:28.041Z</time></trkpt><trkpt lat="42.7625043" lon="12.4399077"><ele>309.6666666666667</ele><time>2026-04-12T13:58:29.043Z</time></trkpt><trkpt lat="42.7623473" lon="12.4399977"><ele>310.33333333333337</ele><time>2026-04-12T13:58:30.052Z</time></trkpt><trkpt lat="42.7621916" lon="12.44009"><ele>311.0</ele><time>2026-04-12T13:58:31.042Z</time></trkpt><trkpt lat="42.7620374" lon="12.4401883"><ele>311.0</ele><time>2026-04-12T13:58:32.06Z</time></trkpt><trkpt lat="42.7618869" lon="12.4402984"><ele>311.0</ele><time>2026-04-12T13:58:33.041Z</time></trkpt><trkpt lat="42.7617455" lon="12.4404277"><ele>311.0</ele><time>2026-04-12T13:58:34.046Z</time></trkpt><trkpt lat="42.761601" lon="12.4405716"><ele>311.6666666666667</ele><time>2026-04-12T13:58:35.044Z</time></trkpt><trkpt lat="42.7614838" lon="12.4407486"><ele>312.3333333333333</ele><time>2026-04-12T13:58:36.045Z</time></trkpt><trkpt lat="42.7613783" lon="12.4409373"><ele>313.0</ele><time>2026-04-12T13:58:37.043Z</time></trkpt><trkpt lat="42.7612758" lon="12.4411437"><ele>312.0</ele><time>2026-04-12T13:58:38.049Z</time></trkpt><trkpt lat="42.7611765" lon="12.4413581"><ele>311.0</ele><time>2026-04-12T13:58:39.041Z</time></trkpt><trkpt lat="42.761082" lon="12.441583"><ele>310.0</ele><time>2026-04-12T13:58:40.048Z</time></trkpt><trkpt lat="42.7609935" lon="12.4418212"><ele>310.0</ele><time>2026-04-12T13:58:41.047Z</time></trkpt><trkpt lat="42.760912" lon="12.4420706"><ele>310.0</ele><time>2026-04-12T13:58:42.046Z</time></trkpt><trkpt lat="42.7608307" lon="12.4423229"><ele>310.0</ele><time>2026-04-12T13:58:43.04Z</time></trkpt><trkpt lat="42.7607519" lon="12.4425705"><ele>309.3333333333333</ele><time>2026-04-12T13:58:44.045Z</time></trkpt><trkpt lat="42.7606742" lon="12.4428265"><ele>308.6666666666667</ele><time>2026-04-12T13:58:45.046Z</time></trkpt><trkpt lat="42.7605959" lon="12.4430819"><ele>308.0</ele><time>2026-04-12T13:58:46.044Z</time></trkpt><trkpt lat="42.7605174" lon="12.4433491"><ele>308.0</ele><time>2026-04-12T13:58:47.038Z</time></trkpt><trkpt lat="42.7604367" lon="12.4436073"><ele>308.0</ele><time>2026-04-12T13:58:48.047Z</time></trkpt><trkpt lat="42.7603542" lon="12.4438629"><ele>308.0</ele><time>2026-04-12T13:58:49.038Z</time></trkpt><trkpt lat="42.7602659" lon="12.4441266"><ele>306.0</ele><time>2026-04-12T13:58:50.063Z</time></trkpt><trkpt lat="42.7601847" lon="12.4443768"><ele>304.0</ele><time>2026-04-12T13:58:51.037Z</time></trkpt><trkpt lat="42.7600977" lon="12.4446169"><ele>302.0</ele><time>2026-04-12T13:58:52.04Z</time></trkpt><trkpt lat="42.7600118" lon="12.4448476"><ele>302.0</ele><time>2026-04-12T13:58:53.044Z</time></trkpt><trkpt lat="42.7599197" lon="12.4450724"><ele>302.0</ele><time>2026-04-12T13:58:54.042Z</time></trkpt><trkpt lat="42.7598183" lon="12.4452937"><ele>302.0</ele><time>2026-04-12T13:58:55.039Z</time></trkpt><trkpt lat="42.7596991" lon="12.4455063"><ele>301.6666666666667</ele><time>2026-04-12T13:58:56.056Z</time></trkpt><trkpt lat="42.7595699" lon="12.4457044"><ele>301.3333333333333</ele><time>2026-04-12T13:58:57.042Z</time></trkpt><trkpt lat="42.7594259" lon="12.4458961"><ele>301.0</ele><time>2026-04-12T13:58:58.041Z</time></trkpt><trkpt lat="42.7592701" lon="12.44608"><ele>300.66666666666663</ele><time>2026-04-12T13:58:59.046Z</time></trkpt><trkpt lat="42.7591042" lon="12.4462804"><ele>300.3333333333333</ele><time>2026-04-12T13:59:00.041Z</time></trkpt><trkpt lat="42.7589421" lon="12.4464801"><ele>300.0</ele><time>2026-04-12T13:59:01.041Z</time></trkpt><trkpt lat="42.7587782" lon="12.4466828"><ele>300.0</ele><time>2026-04-12T13:59:02.038Z</time></trkpt><trkpt lat="42.7586106" lon="12.4468839"><ele>300.0</ele><time>2026-04-12T13:59:03.041Z</time></trkpt><trkpt lat="42.7584407" lon="12.4470917"><ele>300.5</ele><time>2026-04-12T13:59:04.038Z</time></trkpt><trkpt lat="42.7582651" lon="12.4473069"><ele>301.0</ele><time>2026-04-12T13:59:05.041Z</time></trkpt><trkpt lat="42.7580838" lon="12.4475377"><ele>301.0</ele><time>2026-04-12T13:59:06.042Z</time></trkpt><trkpt lat="42.7578912" lon="12.4477758"><ele>301.0</ele><time>2026-04-12T13:59:07.044Z</time></trkpt><trkpt lat="42.7576981" lon="12.4480096"><ele>300.0</ele><time>2026-04-12T13:59:08.063Z</time></trkpt><trkpt lat="42.7575112" lon="12.4482265"><ele>299.0</ele><time>2026-04-12T13:59:09.043Z</time></trkpt><trkpt lat="42.757331" lon="12.4484288"><ele>299.0</ele><time>2026-04-12T13:59:10.038Z</time></trkpt><trkpt lat="42.7571487" lon="12.4486338"><ele>299.0</ele><time>2026-04-12T13:59:11.038Z</time></trkpt><trkpt lat="42.7569798" lon="12.4488286"><ele>299.6666666666667</ele><time>2026-04-12T13:59:12.035Z</time></trkpt><trkpt lat="42.7568207" lon="12.4490235"><ele>300.3333333333333</ele><time>2026-04-12T13:59:13.038Z</time></trkpt><trkpt lat="42.7566627" lon="12.4492116"><ele>301.0</ele><time>2026-04-12T13:59:14.03Z</time></trkpt><trkpt lat="42.7565086" lon="12.4493977"><ele>301.0</ele><time>2026-04-12T13:59:15.043Z</time></trkpt><trkpt lat="42.7563549" lon="12.4495744"><ele>301.0</ele><time>2026-04-12T13:59:16.03Z</time></trkpt><trkpt lat="42.7562071" lon="12.4497314"><ele>301.0</ele><time>2026-04-12T13:59:17.037Z</time></trkpt><trkpt lat="42.7560525" lon="12.4498816"><ele>301.66666666666663</ele><time>2026-04-12T13:59:18.032Z</time></trkpt><trkpt lat="42.7558921" lon="12.4500328"><ele>302.3333333333333</ele><time>2026-04-12T13:59:19.035Z</time></trkpt><trkpt lat="42.7557213" lon="12.4501876"><ele>303.0</ele><time>2026-04-12T13:59:20.025Z</time></trkpt><trkpt lat="42.755542" lon="12.4503482"><ele>301.0</ele><time>2026-04-12T13:59:21.031Z</time></trkpt><trkpt lat="42.7553581" lon="12.4505069"><ele>299.0</ele><time>2026-04-12T13:59:22.03Z</time></trkpt><trkpt lat="42.755166" lon="12.4506774"><ele>297.0</ele><time>2026-04-12T13:59:23.032Z</time></trkpt><trkpt lat="42.7549748" lon="12.4508447"><ele>297.0</ele><time>2026-04-12T13:59:24.028Z</time></trkpt><trkpt lat="42.7547857" lon="12.4510243"><ele>297.0</ele><time>2026-04-12T13:59:25.032Z</time></trkpt><trkpt lat="42.7546014" lon="12.4512043"><ele>295.3333333333333</ele><time>2026-04-12T13:59:26.027Z</time></trkpt><trkpt lat="42.7544216" lon="12.4513839"><ele>293.66666666666663</ele><time>2026-04-12T13:59:27.029Z</time></trkpt><trkpt lat="42.7542432" lon="12.4515708"><ele>292.0</ele><time>2026-04-12T13:59:28.032Z</time></trkpt><trkpt lat="42.7540637" lon="12.4517611"><ele>292.0</ele><time>2026-04-12T13:59:29.032Z</time></trkpt><trkpt lat="42.7538844" lon="12.4519512"><ele>292.0</ele><time>2026-04-12T13:59:30.031Z</time></trkpt><trkpt lat="42.7537094" lon="12.452142"><ele>291.0</ele><time>2026-04-12T13:59:31.058Z</time></trkpt><trkpt lat="42.7535233" lon="12.4523405"><ele>290.0</ele><time>2026-04-12T13:59:32.035Z</time></trkpt><trkpt lat="42.7533489" lon="12.4525441"><ele>290.0</ele><time>2026-04-12T13:59:33.029Z</time></trkpt><trkpt lat="42.753168" lon="12.4527491"><ele>290.0</ele><time>2026-04-12T13:59:34.026Z</time></trkpt><trkpt lat="42.7529806" lon="12.4529579"><ele>290.0</ele><time>2026-04-12T13:59:35.034Z</time></trkpt><trkpt lat="42.7527929" lon="12.4531687"><ele>290.0</ele><time>2026-04-12T13:59:36.032Z</time></trkpt><trkpt lat="42.7526104" lon="12.4533818"><ele>290.0</ele><time>2026-04-12T13:59:37.028Z</time></trkpt><trkpt lat="42.7524334" lon="12.4536066"><ele>290.0</ele><time>2026-04-12T13:59:38.031Z</time></trkpt><trkpt lat="42.7522749" lon="12.4538515"><ele>291.0</ele><time>2026-04-12T13:59:39.032Z</time></trkpt><trkpt lat="42.7521437" lon="12.4541146"><ele>292.0</ele><time>2026-04-12T13:59:40.033Z</time></trkpt><trkpt lat="42.7520429" lon="12.4543997"><ele>291.3333333333333</ele><time>2026-04-12T13:59:41.039Z</time></trkpt><trkpt lat="42.751979" lon="12.454696"><ele>290.6666666666667</ele><time>2026-04-12T13:59:42.031Z</time></trkpt><trkpt lat="42.7519395" lon="12.4549808"><ele>290.0</ele><time>2026-04-12T13:59:43.037Z</time></trkpt><trkpt lat="42.7519057" lon="12.4552416"><ele>294.33333333333337</ele><time>2026-04-12T13:59:44.028Z</time></trkpt><trkpt lat="42.7518554" lon="12.4554797"><ele>298.6666666666667</ele><time>2026-04-12T13:59:45.032Z</time></trkpt><trkpt lat="42.7517744" lon="12.4557037"><ele>303.0</ele><time>2026-04-12T13:59:46.029Z</time></trkpt><trkpt lat="42.7516696" lon="12.4559179"><ele>303.0</ele><time>2026-04-12T13:59:47.034Z</time></trkpt><trkpt lat="42.751549" lon="12.4561301"><ele>303.0</ele><time>2026-04-12T13:59:48.033Z</time></trkpt><trkpt lat="42.7514232" lon="12.456341"><ele>303.0</ele><time>2026-04-12T13:59:49.035Z</time></trkpt><trkpt lat="42.7512938" lon="12.4565571"><ele>302.0</ele><time>2026-04-12T13:59:50.058Z</time></trkpt><trkpt lat="42.7511598" lon="12.4567718"><ele>301.0</ele><time>2026-04-12T13:59:51.032Z</time></trkpt><trkpt lat="42.7510241" lon="12.4570008"><ele>300.0</ele><time>2026-04-12T13:59:52.023Z</time></trkpt><trkpt lat="42.7508789" lon="12.4572345"><ele>303.5</ele><time>2026-04-12T13:59:53.035Z</time></trkpt><trkpt lat="42.7507341" lon="12.4574769"><ele>307.0</ele><time>2026-04-12T13:59:54.029Z</time></trkpt><trkpt lat="42.7505738" lon="12.4577252"><ele>304.5</ele><time>2026-04-12T13:59:55.048Z</time></trkpt><trkpt lat="42.750414" lon="12.4579663"><ele>302.0</ele><time>2026-04-12T13:59:56.032Z</time></trkpt><trkpt lat="42.7502617" lon="12.4582192"><ele>305.5</ele><time>2026-04-12T13:59:57.032Z</time></trkpt><trkpt lat="42.7501198" lon="12.4584882"><ele>309.0</ele><time>2026-04-12T13:59:58.026Z</time></trkpt><trkpt lat="42.7499944" lon="12.4587659"><ele>308.0</ele><time>2026-04-12T13:59:59.026Z</time></trkpt><trkpt lat="42.7498776" lon="12.4590432"><ele>307.0</ele><time>2026-04-12T14:00:00.025Z</time></trkpt><trkpt lat="42.7497651" lon="12.4593081"><ele>307.0</ele><time>2026-04-12T14:00:01.031Z</time></trkpt><trkpt lat="42.7496593" lon="12.45956"><ele>307.0</ele><time>2026-04-12T14:00:02.027Z</time></trkpt><trkpt lat="42.7495465" lon="12.4597891"><ele>307.0</ele><time>2026-04-12T14:00:03.04Z</time></trkpt><trkpt lat="42.7494482" lon="12.4600187"><ele>306.66666666666663</ele><time>2026-04-12T14:00:04.034Z</time></trkpt><trkpt lat="42.749346" lon="12.4602456"><ele>306.3333333333333</ele><time>2026-04-12T14:00:05.033Z</time></trkpt><trkpt lat="42.7492408" lon="12.460466"><ele>306.0</ele><time>2026-04-12T14:00:06.03Z</time></trkpt><trkpt lat="42.7491275" lon="12.4606868"><ele>307.6666666666667</ele><time>2026-04-12T14:00:07.031Z</time></trkpt><trkpt lat="42.7489971" lon="12.4608949"><ele>309.33333333333337</ele><time>2026-04-12T14:00:08.032Z</time></trkpt><trkpt lat="42.7488579" lon="12.4610878"><ele>311.0</ele><time>2026-04-12T14:00:09.033Z</time></trkpt><trkpt lat="42.7487098" lon="12.4612707"><ele>311.6666666666667</ele><time>2026-04-12T14:00:10.036Z</time></trkpt><trkpt lat="42.7485579" lon="12.4614501"><ele>312.3333333333333</ele><time>2026-04-12T14:00:11.029Z</time></trkpt><trkpt lat="42.7483919" lon="12.4616141"><ele>313.0</ele><time>2026-04-12T14:00:12.034Z</time></trkpt><trkpt lat="42.7482253" lon="12.4617861"><ele>313.3333333333333</ele><time>2026-04-12T14:00:13.029Z</time></trkpt><trkpt lat="42.7480476" lon="12.4619587"><ele>313.6666666666667</ele><time>2026-04-12T14:00:14.033Z</time></trkpt><trkpt lat="42.7478701" lon="12.4621331"><ele>314.0</ele><time>2026-04-12T14:00:15.032Z</time></trkpt><trkpt lat="42.7476887" lon="12.4623105"><ele>315.33333333333337</ele><time>2026-04-12T14:00:16.03Z</time></trkpt><trkpt lat="42.7475066" lon="12.4624883"><ele>316.6666666666667</ele><time>2026-04-12T14:00:17.029Z</time></trkpt><trkpt lat="42.7473266" lon="12.4626646"><ele>318.0</ele><time>2026-04-12T14:00:18.031Z</time></trkpt><trkpt lat="42.7471502" lon="12.4628407"><ele>317.3333333333333</ele><time>2026-04-12T14:00:19.036Z</time></trkpt><trkpt lat="42.7469852" lon="12.4630146"><ele>316.66666666666663</ele><time>2026-04-12T14:00:20.031Z</time></trkpt><trkpt lat="42.7468279" lon="12.4631995"><ele>316.0</ele><time>2026-04-12T14:00:21.035Z</time></trkpt><trkpt lat="42.7466948" lon="12.4634112"><ele>317.0</ele><time>2026-04-12T14:00:22.035Z</time></trkpt><trkpt lat="42.746574" lon="12.4636428"><ele>318.0</ele><time>2026-04-12T14:00:23.03Z</time></trkpt><trkpt lat="42.7464594" lon="12.4638848"><ele>319.0</ele><time>2026-04-12T14:00:24.028Z</time></trkpt><trkpt lat="42.746345" lon="12.4641314"><ele>319.0</ele><time>2026-04-12T14:00:25.034Z</time></trkpt><trkpt lat="42.7462275" lon="12.4643812"><ele>319.0</ele><time>2026-04-12T14:00:26.033Z</time></trkpt><trkpt lat="42.7461067" lon="12.4646374"><ele>319.0</ele><time>2026-04-12T14:00:27.032Z</time></trkpt><trkpt lat="42.7459846" lon="12.4648972"><ele>319.5</ele><time>2026-04-12T14:00:28.031Z</time></trkpt><trkpt lat="42.7458598" lon="12.4651617"><ele>320.0</ele><time>2026-04-12T14:00:29.03Z</time></trkpt><trkpt lat="42.7457331" lon="12.4654249"><ele>320.5</ele><time>2026-04-12T14:00:30.031Z</time></trkpt><trkpt lat="42.7456063" lon="12.465686"><ele>321.0</ele><time>2026-04-12T14:00:31.032Z</time></trkpt><trkpt lat="42.7454731" lon="12.4659293"><ele>321.0</ele><time>2026-04-12T14:00:32.032Z</time></trkpt><trkpt lat="42.7453123" lon="12.4661506"><ele>321.0</ele><time>2026-04-12T14:00:33.035Z</time></trkpt><trkpt lat="42.7451254" lon="12.4663377"><ele>322.0</ele><time>2026-04-12T14:00:34.03Z</time></trkpt><trkpt lat="42.7449387" lon="12.4665007"><ele>323.0</ele><time>2026-04-12T14:00:35.033Z</time></trkpt><trkpt lat="42.7447586" lon="12.4666685"><ele>324.0</ele><time>2026-04-12T14:00:36.028Z</time></trkpt><trkpt lat="42.7445935" lon="12.4668649"><ele>324.0</ele><time>2026-04-12T14:00:37.025Z</time></trkpt><trkpt lat="42.7444492" lon="12.4671066"><ele>324.0</ele><time>2026-04-12T14:00:38.034Z</time></trkpt><trkpt lat="42.7443358" lon="12.4673735"><ele>324.5</ele><time>2026-04-12T14:00:39.032Z</time></trkpt><trkpt lat="42.7442512" lon="12.4676598"><ele>325.0</ele><time>2026-04-12T14:00:40.033Z</time></trkpt><trkpt lat="42.7441984" lon="12.467963"><ele>325.0</ele><time>2026-04-12T14:00:41.024Z</time></trkpt><trkpt lat="42.7441862" lon="12.4682792"><ele>325.0</ele><time>2026-04-12T14:00:42.03Z</time></trkpt><trkpt lat="42.7442048" lon="12.4685997"><ele>323.5</ele><time>2026-04-12T14:00:43.025Z</time></trkpt><trkpt lat="42.7442389" lon="12.468926"><ele>322.0</ele><time>2026-04-12T14:00:44.031Z</time></trkpt><trkpt lat="42.7442746" lon="12.4692563"><ele>322.0</ele><time>2026-04-12T14:00:45.025Z</time></trkpt><trkpt lat="42.7443078" lon="12.4695942"><ele>322.0</ele><time>2026-04-12T14:00:46.026Z</time></trkpt><trkpt lat="42.7443433" lon="12.4699342"><ele>313.0</ele><time>2026-04-12T14:00:47.025Z</time></trkpt><trkpt lat="42.7443821" lon="12.4702727"><ele>304.0</ele><time>2026-04-12T14:00:48.028Z</time></trkpt><trkpt lat="42.7444179" lon="12.4705989"><ele>304.0</ele><time>2026-04-12T14:00:49.034Z</time></trkpt><trkpt lat="42.7444537" lon="12.470919"><ele>304.0</ele><time>2026-04-12T14:00:50.032Z</time></trkpt><trkpt lat="42.7444868" lon="12.4712286"><ele>304.0</ele><time>2026-04-12T14:00:51.033Z</time></trkpt><trkpt lat="42.7445205" lon="12.4715348"><ele>304.0</ele><time>2026-04-12T14:00:52.033Z</time></trkpt><trkpt lat="42.7445536" lon="12.4718358"><ele>304.0</ele><time>2026-04-12T14:00:53.03Z</time></trkpt><trkpt lat="42.7445856" lon="12.472133"><ele>304.0</ele><time>2026-04-12T14:00:54.032Z</time></trkpt><trkpt lat="42.7446182" lon="12.4724231"><ele>304.0</ele><time>2026-04-12T14:00:55.034Z</time></trkpt><trkpt lat="42.7446589" lon="12.4727115"><ele>304.0</ele><time>2026-04-12T14:00:56.032Z</time></trkpt><trkpt lat="42.7447119" lon="12.4729956"><ele>304.0</ele><time>2026-04-12T14:00:57.031Z</time></trkpt><trkpt lat="42.7447817" lon="12.4732765"><ele>304.0</ele><time>2026-04-12T14:00:58.055Z</time></trkpt><trkpt lat="42.7448595" lon="12.4735586"><ele>304.3333333333333</ele><time>2026-04-12T14:00:59.038Z</time></trkpt><trkpt lat="42.7449365" lon="12.4738447"><ele>304.6666666666667</ele><time>2026-04-12T14:01:00.031Z</time></trkpt><trkpt lat="42.7450117" lon="12.4741228"><ele>305.0</ele><time>2026-04-12T14:01:01.031Z</time></trkpt><trkpt lat="42.7450735" lon="12.4744092"><ele>305.6666666666667</ele><time>2026-04-12T14:01:02.032Z</time></trkpt><trkpt lat="42.7451144" lon="12.4747018"><ele>306.3333333333333</ele><time>2026-04-12T14:01:03.038Z</time></trkpt><trkpt lat="42.7451598" lon="12.4749879"><ele>307.0</ele><time>2026-04-12T14:01:04.033Z</time></trkpt><trkpt lat="42.7452031" lon="12.4752644"><ele>310.0</ele><time>2026-04-12T14:01:05.057Z</time></trkpt><trkpt lat="42.7452541" lon="12.4755386"><ele>313.0</ele><time>2026-04-12T14:01:06.036Z</time></trkpt><trkpt lat="42.745304" lon="12.4758109"><ele>316.0</ele><time>2026-04-12T14:01:07.035Z</time></trkpt><trkpt lat="42.7453521" lon="12.4760829"><ele>317.3333333333333</ele><time>2026-04-12T14:01:08.031Z</time></trkpt><trkpt lat="42.7454025" lon="12.4763466"><ele>318.6666666666667</ele><time>2026-04-12T14:01:09.032Z</time></trkpt><trkpt lat="42.7454545" lon="12.4766081"><ele>320.0</ele><time>2026-04-12T14:01:10.03Z</time></trkpt><trkpt lat="42.7455061" lon="12.4768674"><ele>321.33333333333337</ele><time>2026-04-12T14:01:11.031Z</time></trkpt><trkpt lat="42.7455561" lon="12.4771241"><ele>322.6666666666667</ele><time>2026-04-12T14:01:12.038Z</time></trkpt><trkpt lat="42.7456059" lon="12.4773803"><ele>324.0</ele><time>2026-04-12T14:01:13.029Z</time></trkpt><trkpt lat="42.7456565" lon="12.4776349"><ele>324.0</ele><time>2026-04-12T14:01:14.028Z</time></trkpt><trkpt lat="42.7457057" lon="12.4778875"><ele>324.0</ele><time>2026-04-12T14:01:15.031Z</time></trkpt><trkpt lat="42.7457543" lon="12.4781371"><ele>324.0</ele><time>2026-04-12T14:01:16.029Z</time></trkpt><trkpt lat="42.7458031" lon="12.4783827"><ele>324.6666666666667</ele><time>2026-04-12T14:01:17.048Z</time></trkpt><trkpt lat="42.7458546" lon="12.478625"><ele>325.33333333333337</ele><time>2026-04-12T14:01:18.029Z</time></trkpt><trkpt lat="42.7459053" lon="12.4788638"><ele>326.0</ele><time>2026-04-12T14:01:19.033Z</time></trkpt><trkpt lat="42.7459489" lon="12.4790962"><ele>326.0</ele><time>2026-04-12T14:01:20.029Z</time></trkpt><trkpt lat="42.7459829" lon="12.479316"><ele>326.0</ele><time>2026-04-12T14:01:21.026Z</time></trkpt><trkpt lat="42.7460082" lon="12.4795243"><ele>326.0</ele><time>2026-04-12T14:01:22.073Z</time></trkpt><trkpt lat="42.7460301" lon="12.4797337"><ele>330.33333333333337</ele><time>2026-04-12T14:01:23.026Z</time></trkpt><trkpt lat="42.7460503" lon="12.4799437"><ele>334.6666666666667</ele><time>2026-04-12T14:01:24.027Z</time></trkpt><trkpt lat="42.7460688" lon="12.4801536"><ele>339.0</ele><time>2026-04-12T14:01:25.03Z</time></trkpt><trkpt lat="42.7460867" lon="12.4803601"><ele>339.3333333333333</ele><time>2026-04-12T14:01:26.03Z</time></trkpt><trkpt lat="42.7461043" lon="12.4805687"><ele>339.66666666666663</ele><time>2026-04-12T14:01:27.032Z</time></trkpt><trkpt lat="42.7461215" lon="12.4807818"><ele>340.0</ele><time>2026-04-12T14:01:28.032Z</time></trkpt><trkpt lat="42.7461406" lon="12.4810003"><ele>340.0</ele><time>2026-04-12T14:01:29.029Z</time></trkpt><trkpt lat="42.7461604" lon="12.4812174"><ele>340.0</ele><time>2026-04-12T14:01:30.032Z</time></trkpt><trkpt lat="42.7461821" lon="12.481443"><ele>340.0</ele><time>2026-04-12T14:01:31.031Z</time></trkpt><trkpt lat="42.7461909" lon="12.4816655"><ele>340.0</ele><time>2026-04-12T14:01:32.036Z</time></trkpt><trkpt lat="42.7461867" lon="12.4819001"><ele>340.0</ele><time>2026-04-12T14:01:33.026Z</time></trkpt><trkpt lat="42.746168" lon="12.4821401"><ele>340.0</ele><time>2026-04-12T14:01:34.03Z</time></trkpt><trkpt lat="42.7461386" lon="12.4823774"><ele>340.0</ele><time>2026-04-12T14:01:35.031Z</time></trkpt><trkpt lat="42.7461073" lon="12.4826088"><ele>340.0</ele><time>2026-04-12T14:01:36.03Z</time></trkpt><trkpt lat="42.7460792" lon="12.4828283"><ele>340.0</ele><time>2026-04-12T14:01:37.057Z</time></trkpt><trkpt lat="42.7460593" lon="12.4830425"><ele>340.3333333333333</ele><time>2026-04-12T14:01:38.03Z</time></trkpt><trkpt lat="42.7460585" lon="12.483257"><ele>340.6666666666667</ele><time>2026-04-12T14:01:39.029Z</time></trkpt><trkpt lat="42.7460886" lon="12.4834612"><ele>341.0</ele><time>2026-04-12T14:01:40.032Z</time></trkpt><trkpt lat="42.7461402" lon="12.4836512"><ele>340.75</ele><time>2026-04-12T14:01:41.026Z</time></trkpt><trkpt lat="42.7462027" lon="12.4838265"><ele>340.5</ele><time>2026-04-12T14:01:42.057Z</time></trkpt><trkpt lat="42.7462655" lon="12.483993"><ele>340.25</ele><time>2026-04-12T14:01:43.032Z</time></trkpt><trkpt lat="42.7463274" lon="12.4841513"><ele>340.0</ele><time>2026-04-12T14:01:44.03Z</time></trkpt><trkpt lat="42.7463901" lon="12.4843075"><ele>340.0</ele><time>2026-04-12T14:01:45.043Z</time></trkpt><trkpt lat="42.7464496" lon="12.4844602"><ele>340.0</ele><time>2026-04-12T14:01:46.032Z</time></trkpt><trkpt lat="42.7465061" lon="12.4846074"><ele>340.0</ele><time>2026-04-12T14:01:47.048Z</time></trkpt><trkpt lat="42.746563" lon="12.4847556"><ele>340.0</ele><time>2026-04-12T14:01:48.03Z</time></trkpt><trkpt lat="42.746617" lon="12.4848955"><ele>341.0</ele><time>2026-04-12T14:01:49.036Z</time></trkpt><trkpt lat="42.7466651" lon="12.4850255"><ele>342.0</ele><time>2026-04-12T14:01:50.034Z</time></trkpt><trkpt lat="42.7467072" lon="12.4851508"><ele>343.0</ele><time>2026-04-12T14:01:51.035Z</time></trkpt><trkpt lat="42.7467499" lon="12.4852827"><ele>344.0</ele><time>2026-04-12T14:01:52.036Z</time></trkpt><trkpt lat="42.746793" lon="12.4854265"><ele>345.0</ele><time>2026-04-12T14:01:53.034Z</time></trkpt><trkpt lat="42.7468344" lon="12.4855857"><ele>345.75</ele><time>2026-04-12T14:01:54.037Z</time></trkpt><trkpt lat="42.7468735" lon="12.4857635"><ele>346.5</ele><time>2026-04-12T14:01:55.038Z</time></trkpt><trkpt lat="42.7469105" lon="12.4859612"><ele>347.25</ele><time>2026-04-12T14:01:56.033Z</time></trkpt><trkpt lat="42.7469488" lon="12.4861645"><ele>348.0</ele><time>2026-04-12T14:01:57.031Z</time></trkpt><trkpt lat="42.7469788" lon="12.4863869"><ele>341.3333333333333</ele><time>2026-04-12T14:01:58.04Z</time></trkpt><trkpt lat="42.7470112" lon="12.486606"><ele>334.66666666666663</ele><time>2026-04-12T14:01:59.032Z</time></trkpt><trkpt lat="42.7470511" lon="12.4868187"><ele>328.0</ele><time>2026-04-12T14:02:00.041Z</time></trkpt><trkpt lat="42.7471081" lon="12.487011"><ele>329.5</ele><time>2026-04-12T14:02:01.037Z</time></trkpt><trkpt lat="42.7471748" lon="12.4871856"><ele>331.0</ele><time>2026-04-12T14:02:02.032Z</time></trkpt><trkpt lat="42.7472431" lon="12.4873469"><ele>332.5</ele><time>2026-04-12T14:02:03.028Z</time></trkpt><trkpt lat="42.7473223" lon="12.4874956"><ele>334.0</ele><time>2026-04-12T14:02:04.036Z</time></trkpt><trkpt lat="42.7473986" lon="12.4876314"><ele>334.0</ele><time>2026-04-12T14:02:05.032Z</time></trkpt><trkpt lat="42.7474818" lon="12.4877567"><ele>334.0</ele><time>2026-04-12T14:02:06.034Z</time></trkpt><trkpt lat="42.7475787" lon="12.4878757"><ele>334.0</ele><time>2026-04-12T14:02:07.035Z</time></trkpt><trkpt lat="42.7476844" lon="12.4879897"><ele>334.0</ele><time>2026-04-12T14:02:08.032Z</time></trkpt><trkpt lat="42.7478015" lon="12.4881054"><ele>334.75</ele><time>2026-04-12T14:02:09.044Z</time></trkpt><trkpt lat="42.7479213" lon="12.488219"><ele>335.5</ele><time>2026-04-12T14:02:10.032Z</time></trkpt><trkpt lat="42.748045" lon="12.4883356"><ele>336.25</ele><time>2026-04-12T14:02:11.036Z</time></trkpt><trkpt lat="42.7481652" lon="12.488449"><ele>337.0</ele><time>2026-04-12T14:02:12.038Z</time></trkpt><trkpt lat="42.7482804" lon="12.4885567"><ele>337.0</ele><time>2026-04-12T14:02:13.03Z</time></trkpt><trkpt lat="42.7483935" lon="12.4886643"><ele>337.0</ele><time>2026-04-12T14:02:14.062Z</time></trkpt><trkpt lat="42.7485054" lon="12.4887792"><ele>337.0</ele><time>2026-04-12T14:02:15.031Z</time></trkpt><trkpt lat="42.7486254" lon="12.4888895"><ele>337.0</ele><time>2026-04-12T14:02:16.035Z</time></trkpt><trkpt lat="42.7487548" lon="12.4890125"><ele>337.3333333333333</ele><time>2026-04-12T14:02:17.039Z</time></trkpt><trkpt lat="42.7488934" lon="12.4891369"><ele>337.6666666666667</ele><time>2026-04-12T14:02:18.034Z</time></trkpt><trkpt lat="42.7490407" lon="12.4892658"><ele>338.0</ele><time>2026-04-12T14:02:19.043Z</time></trkpt><trkpt lat="42.7492015" lon="12.4894036"><ele>337.33333333333337</ele><time>2026-04-12T14:02:20.03Z</time></trkpt><trkpt lat="42.7493802" lon="12.4895528"><ele>336.6666666666667</ele><time>2026-04-12T14:02:21.039Z</time></trkpt><trkpt lat="42.7495686" lon="12.4897133"><ele>336.0</ele><time>2026-04-12T14:02:22.033Z</time></trkpt><trkpt lat="42.7497467" lon="12.4898838"><ele>336.0</ele><time>2026-04-12T14:02:23.034Z</time></trkpt><trkpt lat="42.7499221" lon="12.490058"><ele>336.0</ele><time>2026-04-12T14:02:24.033Z</time></trkpt><trkpt lat="42.7500922" lon="12.4902291"><ele>336.0</ele><time>2026-04-12T14:02:25.038Z</time></trkpt><trkpt lat="42.7502573" lon="12.4903887"><ele>337.6666666666667</ele><time>2026-04-12T14:02:26.042Z</time></trkpt><trkpt lat="42.7504142" lon="12.4905362"><ele>339.33333333333337</ele><time>2026-04-12T14:02:27.036Z</time></trkpt><trkpt lat="42.750569" lon="12.4906809"><ele>341.0</ele><time>2026-04-12T14:02:28.036Z</time></trkpt><trkpt lat="42.7507227" lon="12.4908232"><ele>341.0</ele><time>2026-04-12T14:02:29.037Z</time></trkpt><trkpt lat="42.7508749" lon="12.4909602"><ele>341.0</ele><time>2026-04-12T14:02:30.036Z</time></trkpt><trkpt lat="42.7510234" lon="12.4910939"><ele>341.0</ele><time>2026-04-12T14:02:31.032Z</time></trkpt><trkpt lat="42.751171" lon="12.4912241"><ele>342.6666666666667</ele><time>2026-04-12T14:02:32.038Z</time></trkpt><trkpt lat="42.7513135" lon="12.4913611"><ele>344.3333333333333</ele><time>2026-04-12T14:02:33.028Z</time></trkpt><trkpt lat="42.7514449" lon="12.4915127"><ele>346.0</ele><time>2026-04-12T14:02:34.029Z</time></trkpt><trkpt lat="42.7515683" lon="12.4916827"><ele>346.0</ele><time>2026-04-12T14:02:35.031Z</time></trkpt><trkpt lat="42.7516916" lon="12.4918662"><ele>346.0</ele><time>2026-04-12T14:02:36.034Z</time></trkpt><trkpt lat="42.7517847" lon="12.4920556"><ele>346.0</ele><time>2026-04-12T14:02:37.031Z</time></trkpt><trkpt lat="42.7518802" lon="12.4922624"><ele>348.3333333333333</ele><time>2026-04-12T14:02:38.028Z</time></trkpt><trkpt lat="42.7519647" lon="12.4924824"><ele>350.6666666666667</ele><time>2026-04-12T14:02:39.035Z</time></trkpt><trkpt lat="42.7520503" lon="12.4927028"><ele>353.0</ele><time>2026-04-12T14:02:40.033Z</time></trkpt><trkpt lat="42.7521389" lon="12.4929427"><ele>353.0</ele><time>2026-04-12T14:02:41.052Z</time></trkpt><trkpt lat="42.752246" lon="12.4931714"><ele>353.0</ele><time>2026-04-12T14:02:42.027Z</time></trkpt><trkpt lat="42.7523536" lon="12.4933888"><ele>353.0</ele><time>2026-04-12T14:02:43.031Z</time></trkpt><trkpt lat="42.7524622" lon="12.4935819"><ele>352.0</ele><time>2026-04-12T14:02:44.03Z</time></trkpt><trkpt lat="42.7525693" lon="12.4937757"><ele>351.0</ele><time>2026-04-12T14:02:45.029Z</time></trkpt><trkpt lat="42.7526775" lon="12.4939805"><ele>350.0</ele><time>2026-04-12T14:02:46.033Z</time></trkpt><trkpt lat="42.7527894" lon="12.4941921"><ele>350.0</ele><time>2026-04-12T14:02:47.034Z</time></trkpt><trkpt lat="42.7529075" lon="12.4944108"><ele>350.0</ele><time>2026-04-12T14:02:48.035Z</time></trkpt><trkpt lat="42.7530358" lon="12.4946337"><ele>350.0</ele><time>2026-04-12T14:02:49.036Z</time></trkpt><trkpt lat="42.7531678" lon="12.4948566"><ele>350.6666666666667</ele><time>2026-04-12T14:02:50.046Z</time></trkpt><trkpt lat="42.7533038" lon="12.4950772"><ele>351.3333333333333</ele><time>2026-04-12T14:02:51.029Z</time></trkpt><trkpt lat="42.7534413" lon="12.4952982"><ele>352.0</ele><time>2026-04-12T14:02:52.035Z</time></trkpt><trkpt lat="42.7535766" lon="12.4955169"><ele>353.0</ele><time>2026-04-12T14:02:53.03Z</time></trkpt><trkpt lat="42.7537127" lon="12.4957341"><ele>354.0</ele><time>2026-04-12T14:02:54.035Z</time></trkpt><trkpt lat="42.7538489" lon="12.4959496"><ele>355.0</ele><time>2026-04-12T14:02:55.034Z</time></trkpt><trkpt lat="42.7539872" lon="12.4961675"><ele>355.0</ele><time>2026-04-12T14:02:56.035Z</time></trkpt><trkpt lat="42.7541262" lon="12.4963912"><ele>355.0</ele><time>2026-04-12T14:02:57.038Z</time></trkpt><trkpt lat="42.7542634" lon="12.4966218"><ele>355.0</ele><time>2026-04-12T14:02:58.027Z</time></trkpt><trkpt lat="42.754398" lon="12.4968612"><ele>354.5</ele><time>2026-04-12T14:02:59.032Z</time></trkpt><trkpt lat="42.754531" lon="12.4971086"><ele>354.0</ele><time>2026-04-12T14:03:00.036Z</time></trkpt><trkpt lat="42.7546641" lon="12.4973613"><ele>354.0</ele><time>2026-04-12T14:03:01.032Z</time></trkpt><trkpt lat="42.7547988" lon="12.4976162"><ele>354.0</ele><time>2026-04-12T14:03:02.052Z</time></trkpt><trkpt lat="42.7549363" lon="12.497869"><ele>353.5</ele><time>2026-04-12T14:03:03.031Z</time></trkpt><trkpt lat="42.7550797" lon="12.4981284"><ele>353.0</ele><time>2026-04-12T14:03:04.031Z</time></trkpt><trkpt lat="42.7552305" lon="12.4983949"><ele>354.5</ele><time>2026-04-12T14:03:05.032Z</time></trkpt><trkpt lat="42.7553828" lon="12.4986591"><ele>356.0</ele><time>2026-04-12T14:03:06.029Z</time></trkpt><trkpt lat="42.7555474" lon="12.4989128"><ele>356.0</ele><time>2026-04-12T14:03:07.031Z</time></trkpt><trkpt lat="42.7557202" lon="12.4991486"><ele>356.0</ele><time>2026-04-12T14:03:08.03Z</time></trkpt><trkpt lat="42.7559032" lon="12.4993718"><ele>357.0</ele><time>2026-04-12T14:03:09.031Z</time></trkpt><trkpt lat="42.756094" lon="12.4995807"><ele>358.0</ele><time>2026-04-12T14:03:10.027Z</time></trkpt><trkpt lat="42.7562926" lon="12.4997718"><ele>358.0</ele><time>2026-04-12T14:03:11.031Z</time></trkpt><trkpt lat="42.756492" lon="12.4999484"><ele>358.0</ele><time>2026-04-12T14:03:12.047Z</time></trkpt><trkpt lat="42.7566838" lon="12.5001076"><ele>357.66666666666663</ele><time>2026-04-12T14:03:13.031Z</time></trkpt><trkpt lat="42.7568751" lon="12.5002409"><ele>357.3333333333333</ele><time>2026-04-12T14:03:14.034Z</time></trkpt><trkpt lat="42.757086" lon="12.5003335"><ele>357.0</ele><time>2026-04-12T14:03:15.03Z</time></trkpt><trkpt lat="42.7573125" lon="12.5003873"><ele>358.0</ele><time>2026-04-12T14:03:16.027Z</time></trkpt><trkpt lat="42.7575465" lon="12.5004303"><ele>359.0</ele><time>2026-04-12T14:03:17.03Z</time></trkpt><trkpt lat="42.7577946" lon="12.5004629"><ele>359.0</ele><time>2026-04-12T14:03:18.029Z</time></trkpt><trkpt lat="42.7580459" lon="12.5005031"><ele>359.0</ele><time>2026-04-12T14:03:19.029Z</time></trkpt><trkpt lat="42.7582991" lon="12.50054"><ele>359.0</ele><time>2026-04-12T14:03:20.037Z</time></trkpt><trkpt lat="42.758552" lon="12.500579"><ele>359.0</ele><time>2026-04-12T14:03:21.035Z</time></trkpt><trkpt lat="42.7588067" lon="12.5006291"><ele>359.0</ele><time>2026-04-12T14:03:22.029Z</time></trkpt><trkpt lat="42.7590602" lon="12.5006676"><ele>359.0</ele><time>2026-04-12T14:03:23.044Z</time></trkpt><trkpt lat="42.7593136" lon="12.5007089"><ele>358.0</ele><time>2026-04-12T14:03:24.035Z</time></trkpt><trkpt lat="42.7595642" lon="12.5007526"><ele>357.0</ele><time>2026-04-12T14:03:25.03Z</time></trkpt><trkpt lat="42.7598177" lon="12.5007972"><ele>357.0</ele><time>2026-04-12T14:03:26.03Z</time></trkpt><trkpt lat="42.760072" lon="12.5008387"><ele>357.0</ele><time>2026-04-12T14:03:27.032Z</time></trkpt><trkpt lat="42.7603301" lon="12.5008794"><ele>356.0</ele><time>2026-04-12T14:03:28.032Z</time></trkpt><trkpt lat="42.7605916" lon="12.5009227"><ele>355.0</ele><time>2026-04-12T14:03:29.029Z</time></trkpt><trkpt lat="42.7608585" lon="12.5009653"><ele>355.5</ele><time>2026-04-12T14:03:30.031Z</time></trkpt><trkpt lat="42.7611297" lon="12.5010093"><ele>356.0</ele><time>2026-04-12T14:03:31.034Z</time></trkpt><trkpt lat="42.7614027" lon="12.5010533"><ele>356.0</ele><time>2026-04-12T14:03:32.033Z</time></trkpt><trkpt lat="42.7616793" lon="12.5010979"><ele>356.0</ele><time>2026-04-12T14:03:33.031Z</time></trkpt><trkpt lat="42.7619573" lon="12.5011434"><ele>357.0</ele><time>2026-04-12T14:03:34.03Z</time></trkpt><trkpt lat="42.7622355" lon="12.501189"><ele>358.0</ele><time>2026-04-12T14:03:35.028Z</time></trkpt><trkpt lat="42.76251" lon="12.5012344"><ele>353.5</ele><time>2026-04-12T14:03:36.032Z</time></trkpt><trkpt lat="42.7627825" lon="12.5012807"><ele>349.0</ele><time>2026-04-12T14:03:37.031Z</time></trkpt><trkpt lat="42.7630517" lon="12.5013256"><ele>349.0</ele><time>2026-04-12T14:03:38.03Z</time></trkpt><trkpt lat="42.7633195" lon="12.5013705"><ele>349.0</ele><time>2026-04-12T14:03:39.047Z</time></trkpt><trkpt lat="42.7635861" lon="12.5014133"><ele>349.5</ele><time>2026-04-12T14:03:40.029Z</time></trkpt><trkpt lat="42.7638557" lon="12.5014566"><ele>350.0</ele><time>2026-04-12T14:03:41.033Z</time></trkpt><trkpt lat="42.7641266" lon="12.5015003"><ele>352.0</ele><time>2026-04-12T14:03:42.03Z</time></trkpt><trkpt lat="42.7643983" lon="12.5015455"><ele>354.0</ele><time>2026-04-12T14:03:43.033Z</time></trkpt><trkpt lat="42.7646687" lon="12.5015903"><ele>354.0</ele><time>2026-04-12T14:03:44.031Z</time></trkpt><trkpt lat="42.764929" lon="12.5016342"><ele>354.0</ele><time>2026-04-12T14:03:45.027Z</time></trkpt><trkpt lat="42.7651868" lon="12.501675"><ele>353.5</ele><time>2026-04-12T14:03:46.033Z</time></trkpt><trkpt lat="42.7654443" lon="12.5017082"><ele>353.0</ele><time>2026-04-12T14:03:47.036Z</time></trkpt><trkpt lat="42.7657002" lon="12.5017309"><ele>353.0</ele><time>2026-04-12T14:03:48.053Z</time></trkpt><trkpt lat="42.7659552" lon="12.5017468"><ele>353.0</ele><time>2026-04-12T14:03:49.031Z</time></trkpt><trkpt lat="42.7662098" lon="12.5017607"><ele>353.5</ele><time>2026-04-12T14:03:50.031Z</time></trkpt><trkpt lat="42.7664648" lon="12.5017741"><ele>354.0</ele><time>2026-04-12T14:03:51.028Z</time></trkpt><trkpt lat="42.7667203" lon="12.501788"><ele>354.0</ele><time>2026-04-12T14:03:52.029Z</time></trkpt><trkpt lat="42.7669757" lon="12.5018018"><ele>354.0</ele><time>2026-04-12T14:03:53.03Z</time></trkpt><trkpt lat="42.7672318" lon="12.5018174"><ele>354.0</ele><time>2026-04-12T14:03:54.033Z</time></trkpt><trkpt lat="42.7674895" lon="12.5018334"><ele>354.0</ele><time>2026-04-12T14:03:55.035Z</time></trkpt><trkpt lat="42.7677492" lon="12.5018486"><ele>354.5</ele><time>2026-04-12T14:03:56.031Z</time></trkpt><trkpt lat="42.7680107" lon="12.501865"><ele>355.0</ele><time>2026-04-12T14:03:57.052Z</time></trkpt><trkpt lat="42.7682723" lon="12.501885"><ele>354.5</ele><time>2026-04-12T14:03:58.03Z</time></trkpt><trkpt lat="42.7685345" lon="12.5019073"><ele>354.0</ele><time>2026-04-12T14:03:59.027Z</time></trkpt><trkpt lat="42.7687973" lon="12.5019301"><ele>354.0</ele><time>2026-04-12T14:04:00.028Z</time></trkpt><trkpt lat="42.7690581" lon="12.5019488"><ele>354.0</ele><time>2026-04-12T14:04:01.027Z</time></trkpt><trkpt lat="42.7693047" lon="12.501966"><ele>353.5</ele><time>2026-04-12T14:04:02.043Z</time></trkpt><trkpt lat="42.76954" lon="12.5019852"><ele>353.0</ele><time>2026-04-12T14:04:03.027Z</time></trkpt><trkpt lat="42.769777" lon="12.5020189"><ele>355.5</ele><time>2026-04-12T14:04:04.033Z</time></trkpt><trkpt lat="42.77001" lon="12.5020823"><ele>358.0</ele><time>2026-04-12T14:04:05.024Z</time></trkpt><trkpt lat="42.7702392" lon="12.5021724"><ele>359.0</ele><time>2026-04-12T14:04:06.03Z</time></trkpt><trkpt lat="42.7704685" lon="12.5022754"><ele>360.0</ele><time>2026-04-12T14:04:07.03Z</time></trkpt><trkpt lat="42.770703" lon="12.502384"><ele>360.0</ele><time>2026-04-12T14:04:08.035Z</time></trkpt><trkpt lat="42.770942" lon="12.502492"><ele>360.0</ele><time>2026-04-12T14:04:09.031Z</time></trkpt><trkpt lat="42.7711816" lon="12.5026008"><ele>360.0</ele><time>2026-04-12T14:04:10.032Z</time></trkpt><trkpt lat="42.7714203" lon="12.5027127"><ele>360.0</ele><time>2026-04-12T14:04:11.028Z</time></trkpt><trkpt lat="42.7716575" lon="12.5028218"><ele>364.5</ele><time>2026-04-12T14:04:12.031Z</time></trkpt><trkpt lat="42.7718952" lon="12.5029288"><ele>369.0</ele><time>2026-04-12T14:04:13.033Z</time></trkpt><trkpt lat="42.7721373" lon="12.503029"><ele>369.0</ele><time>2026-04-12T14:04:14.034Z</time></trkpt><trkpt lat="42.7723837" lon="12.5031189"><ele>369.0</ele><time>2026-04-12T14:04:15.033Z</time></trkpt><trkpt lat="42.7726343" lon="12.5031962"><ele>369.5</ele><time>2026-04-12T14:04:16.041Z</time></trkpt><trkpt lat="42.7728903" lon="12.5032602"><ele>370.0</ele><time>2026-04-12T14:04:17.031Z</time></trkpt><trkpt lat="42.7731497" lon="12.5033135"><ele>370.0</ele><time>2026-04-12T14:04:18.031Z</time></trkpt><trkpt lat="42.7734127" lon="12.5033568"><ele>370.0</ele><time>2026-04-12T14:04:19.03Z</time></trkpt><trkpt lat="42.7736711" lon="12.5034016"><ele>370.0</ele><time>2026-04-12T14:04:20.031Z</time></trkpt><trkpt lat="42.7739281" lon="12.503453"><ele>370.0</ele><time>2026-04-12T14:04:21.027Z</time></trkpt><trkpt lat="42.7741842" lon="12.5035016"><ele>370.5</ele><time>2026-04-12T14:04:22.036Z</time></trkpt><trkpt lat="42.7744391" lon="12.5035498"><ele>371.0</ele><time>2026-04-12T14:04:23.027Z</time></trkpt><trkpt lat="42.774692" lon="12.5035964"><ele>371.0</ele><time>2026-04-12T14:04:24.034Z</time></trkpt><trkpt lat="42.7749305" lon="12.5036398"><ele>371.0</ele><time>2026-04-12T14:04:25.029Z</time></trkpt><trkpt lat="42.7751526" lon="12.5036815"><ele>371.6666666666667</ele><time>2026-04-12T14:04:26.027Z</time></trkpt><trkpt lat="42.775369" lon="12.5037209"><ele>372.3333333333333</ele><time>2026-04-12T14:04:27.03Z</time></trkpt><trkpt lat="42.7755756" lon="12.50376"><ele>373.0</ele><time>2026-04-12T14:04:28.032Z</time></trkpt><trkpt lat="42.775764" lon="12.5037986"><ele>374.3333333333333</ele><time>2026-04-12T14:04:29.031Z</time></trkpt><trkpt lat="42.7759338" lon="12.5038403"><ele>375.6666666666667</ele><time>2026-04-12T14:04:30.03Z</time></trkpt><trkpt lat="42.7760809" lon="12.5039109"><ele>377.0</ele><time>2026-04-12T14:04:31.032Z</time></trkpt><trkpt lat="42.7761898" lon="12.5040272"><ele>379.25</ele><time>2026-04-12T14:04:32.033Z</time></trkpt><trkpt lat="42.7762488" lon="12.5041863"><ele>381.5</ele><time>2026-04-12T14:04:33.029Z</time></trkpt><trkpt lat="42.7762609" lon="12.5043777"><ele>383.75</ele><time>2026-04-12T14:04:34.04Z</time></trkpt><trkpt lat="42.7762447" lon="12.5045911"><ele>386.0</ele><time>2026-04-12T14:04:35.028Z</time></trkpt><trkpt lat="42.776218" lon="12.5048184"><ele>386.3333333333333</ele><time>2026-04-12T14:04:36.027Z</time></trkpt><trkpt lat="42.776191" lon="12.5050553"><ele>386.66666666666663</ele><time>2026-04-12T14:04:37.024Z</time></trkpt><trkpt lat="42.7761689" lon="12.5052739"><ele>387.0</ele><time>2026-04-12T14:04:38.03Z</time></trkpt><trkpt lat="42.7761545" lon="12.5054771"><ele>386.33333333333337</ele><time>2026-04-12T14:04:39.024Z</time></trkpt><trkpt lat="42.7761915" lon="12.5056749"><ele>385.6666666666667</ele><time>2026-04-12T14:04:40.032Z</time></trkpt><trkpt lat="42.7762845" lon="12.5058725"><ele>385.0</ele><time>2026-04-12T14:04:41.027Z</time></trkpt><trkpt lat="42.7764022" lon="12.5060599"><ele>385.0</ele><time>2026-04-12T14:04:42.028Z</time></trkpt><trkpt lat="42.7765684" lon="12.5062334"><ele>385.0</ele><time>2026-04-12T14:04:43.028Z</time></trkpt><trkpt lat="42.776739" lon="12.5064119"><ele>385.0</ele><time>2026-04-12T14:04:44.029Z</time></trkpt><trkpt lat="42.7769124" lon="12.5066045"><ele>386.0</ele><time>2026-04-12T14:04:45.032Z</time></trkpt><trkpt lat="42.7770719" lon="12.5067908"><ele>387.0</ele><time>2026-04-12T14:04:46.032Z</time></trkpt><trkpt lat="42.7772236" lon="12.5069718"><ele>388.0</ele><time>2026-04-12T14:04:47.038Z</time></trkpt><trkpt lat="42.7773762" lon="12.5071512"><ele>388.0</ele><time>2026-04-12T14:04:48.056Z</time></trkpt><trkpt lat="42.7775224" lon="12.5073134"><ele>388.0</ele><time>2026-04-12T14:04:49.029Z</time></trkpt><trkpt lat="42.7776802" lon="12.5074458"><ele>388.0</ele><time>2026-04-12T14:04:50.031Z</time></trkpt><trkpt lat="42.7778513" lon="12.5075428"><ele>390.6666666666667</ele><time>2026-04-12T14:04:51.032Z</time></trkpt><trkpt lat="42.7780354" lon="12.5075991"><ele>393.33333333333337</ele><time>2026-04-12T14:04:52.032Z</time></trkpt><trkpt lat="42.7782281" lon="12.5076045"><ele>396.0</ele><time>2026-04-12T14:04:53.046Z</time></trkpt><trkpt lat="42.7784375" lon="12.5075808"><ele>396.66666666666663</ele><time>2026-04-12T14:04:54.027Z</time></trkpt><trkpt lat="42.7786402" lon="12.5075203"><ele>397.3333333333333</ele><time>2026-04-12T14:04:55.029Z</time></trkpt><trkpt lat="42.7788304" lon="12.5074642"><ele>398.0</ele><time>2026-04-12T14:04:56.031Z</time></trkpt><trkpt lat="42.7790266" lon="12.507426"><ele>398.0</ele><time>2026-04-12T14:04:57.031Z</time></trkpt><trkpt lat="42.7792338" lon="12.5074182"><ele>398.0</ele><time>2026-04-12T14:04:58.031Z</time></trkpt><trkpt lat="42.7794489" lon="12.5074347"><ele>398.0</ele><time>2026-04-12T14:04:59.032Z</time></trkpt><trkpt lat="42.779668" lon="12.5074742"><ele>400.66666666666663</ele><time>2026-04-12T14:05:00.029Z</time></trkpt><trkpt lat="42.7798869" lon="12.5075242"><ele>403.33333333333337</ele><time>2026-04-12T14:05:01.027Z</time></trkpt><trkpt lat="42.780107" lon="12.5075711"><ele>406.0</ele><time>2026-04-12T14:05:02.032Z</time></trkpt><trkpt lat="42.7803358" lon="12.5076147"><ele>407.0</ele><time>2026-04-12T14:05:03.023Z</time></trkpt><trkpt lat="42.7805745" lon="12.5076537"><ele>408.0</ele><time>2026-04-12T14:05:04.029Z</time></trkpt><trkpt lat="42.7808168" lon="12.5076863"><ele>409.0</ele><time>2026-04-12T14:05:05.031Z</time></trkpt><trkpt lat="42.7810637" lon="12.5077152"><ele>410.0</ele><time>2026-04-12T14:05:06.026Z</time></trkpt><trkpt lat="42.7813161" lon="12.507738"><ele>410.0</ele><time>2026-04-12T14:05:07.034Z</time></trkpt><trkpt lat="42.7815722" lon="12.5077556"><ele>410.0</ele><time>2026-04-12T14:05:08.035Z</time></trkpt><trkpt lat="42.7818286" lon="12.5077439"><ele>411.5</ele><time>2026-04-12T14:05:09.03Z</time></trkpt><trkpt lat="42.7820665" lon="12.5077237"><ele>413.0</ele><time>2026-04-12T14:05:10.042Z</time></trkpt><trkpt lat="42.78228" lon="12.5076945"><ele>413.0</ele><time>2026-04-12T14:05:11.026Z</time></trkpt><trkpt lat="42.7824856" lon="12.507632"><ele>413.0</ele><time>2026-04-12T14:05:12.029Z</time></trkpt><trkpt lat="42.7826845" lon="12.5075236"><ele>413.0</ele><time>2026-04-12T14:05:13.021Z</time></trkpt><trkpt lat="42.7828723" lon="12.5073833"><ele>414.3333333333333</ele><time>2026-04-12T14:05:14.029Z</time></trkpt><trkpt lat="42.7830572" lon="12.5072361"><ele>415.66666666666663</ele><time>2026-04-12T14:05:15.029Z</time></trkpt><trkpt lat="42.7832433" lon="12.5070915"><ele>417.0</ele><time>2026-04-12T14:05:16.028Z</time></trkpt><trkpt lat="42.7834314" lon="12.5069437"><ele>417.33333333333337</ele><time>2026-04-12T14:05:17.029Z</time></trkpt><trkpt lat="42.7836219" lon="12.5067912"><ele>417.6666666666667</ele><time>2026-04-12T14:05:18.032Z</time></trkpt><trkpt lat="42.783812" lon="12.5066362"><ele>418.0</ele><time>2026-04-12T14:05:19.031Z</time></trkpt><trkpt lat="42.7840027" lon="12.5064865"><ele>418.0</ele><time>2026-04-12T14:05:20.03Z</time></trkpt><trkpt lat="42.7841975" lon="12.5063311"><ele>418.0</ele><time>2026-04-12T14:05:21.029Z</time></trkpt><trkpt lat="42.7843874" lon="12.5061791"><ele>418.0</ele><time>2026-04-12T14:05:22.029Z</time></trkpt><trkpt lat="42.7845815" lon="12.506026"><ele>420.6666666666667</ele><time>2026-04-12T14:05:23.031Z</time></trkpt><trkpt lat="42.78477" lon="12.5058744"><ele>423.33333333333337</ele><time>2026-04-12T14:05:24.029Z</time></trkpt><trkpt lat="42.7849577" lon="12.5057262"><ele>426.0</ele><time>2026-04-12T14:05:25.036Z</time></trkpt><trkpt lat="42.7851538" lon="12.5055714"><ele>426.0</ele><time>2026-04-12T14:05:26.028Z</time></trkpt><trkpt lat="42.7853501" lon="12.5054129"><ele>426.0</ele><time>2026-04-12T14:05:27.028Z</time></trkpt><trkpt lat="42.7855534" lon="12.5052495"><ele>425.5</ele><time>2026-04-12T14:05:28.03Z</time></trkpt><trkpt lat="42.7857655" lon="12.5050745"><ele>425.0</ele><time>2026-04-12T14:05:29.031Z</time></trkpt><trkpt lat="42.7859811" lon="12.5048931"><ele>426.0</ele><time>2026-04-12T14:05:30.031Z</time></trkpt><trkpt lat="42.7861993" lon="12.5047048"><ele>427.0</ele><time>2026-04-12T14:05:31.04Z</time></trkpt><trkpt lat="42.786416" lon="12.5045092"><ele>427.5</ele><time>2026-04-12T14:05:32.027Z</time></trkpt><trkpt lat="42.7866337" lon="12.5043009"><ele>428.0</ele><time>2026-04-12T14:05:33.031Z</time></trkpt><trkpt lat="42.7868501" lon="12.5040727"><ele>430.0</ele><time>2026-04-12T14:05:34.03Z</time></trkpt><trkpt lat="42.7870653" lon="12.5038394"><ele>432.0</ele><time>2026-04-12T14:05:35.032Z</time></trkpt><trkpt lat="42.7872828" lon="12.5036131"><ele>432.0</ele><time>2026-04-12T14:05:36.032Z</time></trkpt><trkpt lat="42.7875074" lon="12.5033959"><ele>432.0</ele><time>2026-04-12T14:05:37.032Z</time></trkpt><trkpt lat="42.7877341" lon="12.5031837"><ele>434.0</ele><time>2026-04-12T14:05:38.038Z</time></trkpt><trkpt lat="42.7879608" lon="12.5029725"><ele>436.0</ele><time>2026-04-12T14:05:39.031Z</time></trkpt><trkpt lat="42.7881869" lon="12.5027579"><ele>436.0</ele><time>2026-04-12T14:05:40.028Z</time></trkpt><trkpt lat="42.788411" lon="12.5025414"><ele>436.0</ele><time>2026-04-12T14:05:41.031Z</time></trkpt><trkpt lat="42.7886351" lon="12.5023253"><ele>436.5</ele><time>2026-04-12T14:05:42.034Z</time></trkpt><trkpt lat="42.7888603" lon="12.5021096"><ele>437.0</ele><time>2026-04-12T14:05:43.032Z</time></trkpt><trkpt lat="42.7890864" lon="12.5018977"><ele>437.0</ele><time>2026-04-12T14:05:44.054Z</time></trkpt><trkpt lat="42.7893172" lon="12.5016968"><ele>437.0</ele><time>2026-04-12T14:05:45.026Z</time></trkpt><trkpt lat="42.7895544" lon="12.5015132"><ele>437.5</ele><time>2026-04-12T14:05:46.032Z</time></trkpt><trkpt lat="42.7897972" lon="12.5013482"><ele>438.0</ele><time>2026-04-12T14:05:47.033Z</time></trkpt><trkpt lat="42.7900413" lon="12.5011965"><ele>439.5</ele><time>2026-04-12T14:05:48.033Z</time></trkpt><trkpt lat="42.790275" lon="12.5010583"><ele>441.0</ele><time>2026-04-12T14:05:49.061Z</time></trkpt><trkpt lat="42.790507" lon="12.5009228"><ele>441.0</ele><time>2026-04-12T14:05:50.028Z</time></trkpt><trkpt lat="42.7907408" lon="12.5007931"><ele>441.0</ele><time>2026-04-12T14:05:51.031Z</time></trkpt><trkpt lat="42.7909814" lon="12.5006897"><ele>441.0</ele><time>2026-04-12T14:05:52.028Z</time></trkpt><trkpt lat="42.7912309" lon="12.5006222"><ele>441.0</ele><time>2026-04-12T14:05:53.031Z</time></trkpt><trkpt lat="42.791473" lon="12.5005818"><ele>441.0</ele><time>2026-04-12T14:05:54.035Z</time></trkpt><trkpt lat="42.7916967" lon="12.5005514"><ele>441.0</ele><time>2026-04-12T14:05:55.033Z</time></trkpt><trkpt lat="42.791908" lon="12.5005216"><ele>441.0</ele><time>2026-04-12T14:05:56.039Z</time></trkpt><trkpt lat="42.7921215" lon="12.5004904"><ele>442.66666666666663</ele><time>2026-04-12T14:05:57.033Z</time></trkpt><trkpt lat="42.7923391" lon="12.5004573"><ele>444.3333333333333</ele><time>2026-04-12T14:05:58.035Z</time></trkpt><trkpt lat="42.7925472" lon="12.5004178"><ele>446.0</ele><time>2026-04-12T14:05:59.036Z</time></trkpt><trkpt lat="42.7927446" lon="12.5003606"><ele>446.66666666666663</ele><time>2026-04-12T14:06:00.035Z</time></trkpt><trkpt lat="42.7929393" lon="12.5002728"><ele>447.33333333333337</ele><time>2026-04-12T14:06:01.037Z</time></trkpt><trkpt lat="42.7931412" lon="12.500156"><ele>448.0</ele><time>2026-04-12T14:06:02.036Z</time></trkpt><trkpt lat="42.7933564" lon="12.5000292"><ele>447.5</ele><time>2026-04-12T14:06:03.03Z</time></trkpt><trkpt lat="42.7935888" lon="12.499893"><ele>447.0</ele><time>2026-04-12T14:06:04.04Z</time></trkpt><trkpt lat="42.7938346" lon="12.4997443"><ele>447.0</ele><time>2026-04-12T14:06:05.032Z</time></trkpt><trkpt lat="42.7940902" lon="12.499587"><ele>447.0</ele><time>2026-04-12T14:06:06.045Z</time></trkpt><trkpt lat="42.7943549" lon="12.4994273"><ele>446.0</ele><time>2026-04-12T14:06:07.035Z</time></trkpt><trkpt lat="42.7946183" lon="12.4992768"><ele>445.0</ele><time>2026-04-12T14:06:08.036Z</time></trkpt><trkpt lat="42.7948649" lon="12.4991485"><ele>445.0</ele><time>2026-04-12T14:06:09.038Z</time></trkpt><trkpt lat="42.7951017" lon="12.4990253"><ele>445.0</ele><time>2026-04-12T14:06:10.031Z</time></trkpt><trkpt lat="42.7953252" lon="12.4988736"><ele>447.0</ele><time>2026-04-12T14:06:11.034Z</time></trkpt><trkpt lat="42.7955357" lon="12.4986939"><ele>449.0</ele><time>2026-04-12T14:06:12.032Z</time></trkpt><trkpt lat="42.7957354" lon="12.4984971"><ele>449.0</ele><time>2026-04-12T14:06:13.038Z</time></trkpt><trkpt lat="42.7959275" lon="12.49829"><ele>449.0</ele><time>2026-04-12T14:06:14.036Z</time></trkpt><trkpt lat="42.7961194" lon="12.4980867"><ele>449.0</ele><time>2026-04-12T14:06:15.036Z</time></trkpt><trkpt lat="42.7963164" lon="12.4978866"><ele>449.0</ele><time>2026-04-12T14:06:16.034Z</time></trkpt><trkpt lat="42.7965166" lon="12.4976811"><ele>449.0</ele><time>2026-04-12T14:06:17.036Z</time></trkpt><trkpt lat="42.796719" lon="12.4974731"><ele>449.0</ele><time>2026-04-12T14:06:18.038Z</time></trkpt><trkpt lat="42.7969254" lon="12.4972712"><ele>450.5</ele><time>2026-04-12T14:06:19.039Z</time></trkpt><trkpt lat="42.7971385" lon="12.4970821"><ele>452.0</ele><time>2026-04-12T14:06:20.039Z</time></trkpt><trkpt lat="42.7973574" lon="12.496905"><ele>452.0</ele><time>2026-04-12T14:06:21.036Z</time></trkpt><trkpt lat="42.7975791" lon="12.4967386"><ele>452.0</ele><time>2026-04-12T14:06:22.036Z</time></trkpt><trkpt lat="42.7977996" lon="12.496563"><ele>452.0</ele><time>2026-04-12T14:06:23.033Z</time></trkpt><trkpt lat="42.7980221" lon="12.4963796"><ele>452.0</ele><time>2026-04-12T14:06:24.032Z</time></trkpt><trkpt lat="42.7982442" lon="12.4962001"><ele>451.5</ele><time>2026-04-12T14:06:25.032Z</time></trkpt><trkpt lat="42.7984667" lon="12.4960355"><ele>451.0</ele><time>2026-04-12T14:06:26.037Z</time></trkpt><trkpt lat="42.7986871" lon="12.4959035"><ele>453.0</ele><time>2026-04-12T14:06:27.028Z</time></trkpt><trkpt lat="42.7989097" lon="12.4957861"><ele>455.0</ele><time>2026-04-12T14:06:28.033Z</time></trkpt><trkpt lat="42.7991337" lon="12.4956665"><ele>457.5</ele><time>2026-04-12T14:06:29.034Z</time></trkpt><trkpt lat="42.7993586" lon="12.4955537"><ele>460.0</ele><time>2026-04-12T14:06:30.032Z</time></trkpt><trkpt lat="42.7995793" lon="12.4954372"><ele>458.0</ele><time>2026-04-12T14:06:31.045Z</time></trkpt><trkpt lat="42.7997933" lon="12.495325"><ele>456.0</ele><time>2026-04-12T14:06:32.032Z</time></trkpt><trkpt lat="42.8000189" lon="12.4952065"><ele>457.0</ele><time>2026-04-12T14:06:33.036Z</time></trkpt><trkpt lat="42.8002348" lon="12.4950893"><ele>458.0</ele><time>2026-04-12T14:06:34.033Z</time></trkpt><trkpt lat="42.8004555" lon="12.4949732"><ele>458.0</ele><time>2026-04-12T14:06:35.034Z</time></trkpt><trkpt lat="42.8006815" lon="12.4948578"><ele>458.0</ele><time>2026-04-12T14:06:36.036Z</time></trkpt><trkpt lat="42.8009105" lon="12.4947468"><ele>458.5</ele><time>2026-04-12T14:06:37.037Z</time></trkpt><trkpt lat="42.8011443" lon="12.4946356"><ele>459.0</ele><time>2026-04-12T14:06:38.037Z</time></trkpt><trkpt lat="42.8013776" lon="12.4945214"><ele>459.0</ele><time>2026-04-12T14:06:39.029Z</time></trkpt><trkpt lat="42.8016113" lon="12.4944105"><ele>459.0</ele><time>2026-04-12T14:06:40.043Z</time></trkpt><trkpt lat="42.8018501" lon="12.4942885"><ele>458.0</ele><time>2026-04-12T14:06:41.031Z</time></trkpt><trkpt lat="42.8020884" lon="12.494172"><ele>457.0</ele><time>2026-04-12T14:06:42.034Z</time></trkpt><trkpt lat="42.8023307" lon="12.4940626"><ele>457.0</ele><time>2026-04-12T14:06:43.032Z</time></trkpt><trkpt lat="42.8025666" lon="12.4939609"><ele>457.0</ele><time>2026-04-12T14:06:44.036Z</time></trkpt><trkpt lat="42.8028021" lon="12.4938576"><ele>456.5</ele><time>2026-04-12T14:06:45.037Z</time></trkpt><trkpt lat="42.8030413" lon="12.4937492"><ele>456.0</ele><time>2026-04-12T14:06:46.033Z</time></trkpt><trkpt lat="42.8032807" lon="12.4936385"><ele>457.5</ele><time>2026-04-12T14:06:47.032Z</time></trkpt><trkpt lat="42.8035215" lon="12.4935301"><ele>459.0</ele><time>2026-04-12T14:06:48.038Z</time></trkpt><trkpt lat="42.8037631" lon="12.4934239"><ele>459.0</ele><time>2026-04-12T14:06:49.036Z</time></trkpt><trkpt lat="42.804008" lon="12.4933326"><ele>459.0</ele><time>2026-04-12T14:06:50.039Z</time></trkpt><trkpt lat="42.8042568" lon="12.4932625"><ele>459.5</ele><time>2026-04-12T14:06:51.035Z</time></trkpt><trkpt lat="42.8045083" lon="12.4932135"><ele>460.0</ele><time>2026-04-12T14:06:52.04Z</time></trkpt><trkpt lat="42.8047618" lon="12.4931836"><ele>460.0</ele><time>2026-04-12T14:06:53.03Z</time></trkpt><trkpt lat="42.8050178" lon="12.4931716"><ele>460.0</ele><time>2026-04-12T14:06:54.036Z</time></trkpt><trkpt lat="42.8052733" lon="12.4931704"><ele>459.5</ele><time>2026-04-12T14:06:55.03Z</time></trkpt><trkpt lat="42.8055244" lon="12.4931747"><ele>459.0</ele><time>2026-04-12T14:06:56.03Z</time></trkpt><trkpt lat="42.8057614" lon="12.4931815"><ele>459.0</ele><time>2026-04-12T14:06:57.036Z</time></trkpt><trkpt lat="42.8059831" lon="12.4932013"><ele>459.0</ele><time>2026-04-12T14:06:58.035Z</time></trkpt><trkpt lat="42.8061862" lon="12.4932702"><ele>459.0</ele><time>2026-04-12T14:06:59.038Z</time></trkpt><trkpt lat="42.8063746" lon="12.4934046"><ele>459.5</ele><time>2026-04-12T14:07:00.032Z</time></trkpt><trkpt lat="42.8065458" lon="12.4935962"><ele>460.0</ele><time>2026-04-12T14:07:01.033Z</time></trkpt><trkpt lat="42.8067068" lon="12.4938191"><ele>458.5</ele><time>2026-04-12T14:07:02.032Z</time></trkpt><trkpt lat="42.8068682" lon="12.4940614"><ele>457.0</ele><time>2026-04-12T14:07:03.036Z</time></trkpt><trkpt lat="42.8070357" lon="12.4943086"><ele>457.0</ele><time>2026-04-12T14:07:04.039Z</time></trkpt><trkpt lat="42.8072112" lon="12.4945628"><ele>457.0</ele><time>2026-04-12T14:07:05.035Z</time></trkpt><trkpt lat="42.807391" lon="12.4948258"><ele>456.0</ele><time>2026-04-12T14:07:06.038Z</time></trkpt><trkpt lat="42.8075654" lon="12.4950809"><ele>455.0</ele><time>2026-04-12T14:07:07.032Z</time></trkpt><trkpt lat="42.8077376" lon="12.4953278"><ele>456.0</ele><time>2026-04-12T14:07:08.033Z</time></trkpt><trkpt lat="42.8079054" lon="12.4955702"><ele>457.0</ele><time>2026-04-12T14:07:09.031Z</time></trkpt><trkpt lat="42.8080722" lon="12.4958123"><ele>457.0</ele><time>2026-04-12T14:07:10.033Z</time></trkpt><trkpt lat="42.8082403" lon="12.4960538"><ele>457.0</ele><time>2026-04-12T14:07:11.03Z</time></trkpt><trkpt lat="42.8084089" lon="12.4962971"><ele>458.0</ele><time>2026-04-12T14:07:12.037Z</time></trkpt><trkpt lat="42.808578" lon="12.4965403"><ele>459.0</ele><time>2026-04-12T14:07:13.032Z</time></trkpt><trkpt lat="42.8087516" lon="12.4967751"><ele>459.0</ele><time>2026-04-12T14:07:14.036Z</time></trkpt><trkpt lat="42.8089388" lon="12.4969874"><ele>459.0</ele><time>2026-04-12T14:07:15.032Z</time></trkpt><trkpt lat="42.8091438" lon="12.4971714"><ele>458.5</ele><time>2026-04-12T14:07:16.037Z</time></trkpt><trkpt lat="42.8093618" lon="12.4973349"><ele>458.0</ele><time>2026-04-12T14:07:17.035Z</time></trkpt><trkpt lat="42.8095835" lon="12.4974888"><ele>458.0</ele><time>2026-04-12T14:07:18.034Z</time></trkpt><trkpt lat="42.8098065" lon="12.4976408"><ele>458.0</ele><time>2026-04-12T14:07:19.034Z</time></trkpt><trkpt lat="42.8100313" lon="12.4977907"><ele>459.0</ele><time>2026-04-12T14:07:20.034Z</time></trkpt><trkpt lat="42.8102601" lon="12.4979321"><ele>460.0</ele><time>2026-04-12T14:07:21.033Z</time></trkpt><trkpt lat="42.8104968" lon="12.4980515"><ele>460.0</ele><time>2026-04-12T14:07:22.034Z</time></trkpt><trkpt lat="42.8107412" lon="12.4981453"><ele>460.0</ele><time>2026-04-12T14:07:23.033Z</time></trkpt><trkpt lat="42.8109886" lon="12.498224"><ele>461.0</ele><time>2026-04-12T14:07:24.034Z</time></trkpt><trkpt lat="42.8112368" lon="12.4982968"><ele>462.0</ele><time>2026-04-12T14:07:25.032Z</time></trkpt><trkpt lat="42.8114854" lon="12.4983687"><ele>462.0</ele><time>2026-04-12T14:07:26.037Z</time></trkpt><trkpt lat="42.8117335" lon="12.4984413"><ele>462.0</ele><time>2026-04-12T14:07:27.033Z</time></trkpt><trkpt lat="42.8119816" lon="12.4985141"><ele>463.0</ele><time>2026-04-12T14:07:28.035Z</time></trkpt><trkpt lat="42.8122292" lon="12.4985879"><ele>464.0</ele><time>2026-04-12T14:07:29.031Z</time></trkpt><trkpt lat="42.8124757" lon="12.498662"><ele>465.0</ele><time>2026-04-12T14:07:30.033Z</time></trkpt><trkpt lat="42.8127213" lon="12.4987339"><ele>466.0</ele><time>2026-04-12T14:07:31.035Z</time></trkpt><trkpt lat="42.8129667" lon="12.4988052"><ele>466.0</ele><time>2026-04-12T14:07:32.032Z</time></trkpt><trkpt lat="42.8132104" lon="12.4988782"><ele>466.0</ele><time>2026-04-12T14:07:33.038Z</time></trkpt><trkpt lat="42.813454" lon="12.4989581"><ele>467.5</ele><time>2026-04-12T14:07:34.031Z</time></trkpt><trkpt lat="42.8136958" lon="12.4990513"><ele>469.0</ele><time>2026-04-12T14:07:35.03Z</time></trkpt><trkpt lat="42.8139318" lon="12.4991622"><ele>469.0</ele><time>2026-04-12T14:07:36.037Z</time></trkpt><trkpt lat="42.8141606" lon="12.499288"><ele>469.0</ele><time>2026-04-12T14:07:37.029Z</time></trkpt><trkpt lat="42.8143883" lon="12.4994182"><ele>468.5</ele><time>2026-04-12T14:07:38.06Z</time></trkpt><trkpt lat="42.814617" lon="12.4995458"><ele>468.0</ele><time>2026-04-12T14:07:39.029Z</time></trkpt><trkpt lat="42.8148511" lon="12.4996732"><ele>468.0</ele><time>2026-04-12T14:07:40.032Z</time></trkpt><trkpt lat="42.8150906" lon="12.4998044"><ele>468.0</ele><time>2026-04-12T14:07:41.033Z</time></trkpt><trkpt lat="42.815336" lon="12.4999384"><ele>468.0</ele><time>2026-04-12T14:07:42.039Z</time></trkpt><trkpt lat="42.815586" lon="12.5000742"><ele>468.0</ele><time>2026-04-12T14:07:43.035Z</time></trkpt><trkpt lat="42.8158394" lon="12.5002118"><ele>467.0</ele><time>2026-04-12T14:07:44.032Z</time></trkpt><trkpt lat="42.816095" lon="12.5003527"><ele>466.0</ele><time>2026-04-12T14:07:45.034Z</time></trkpt><trkpt lat="42.816352" lon="12.5004928"><ele>466.0</ele><time>2026-04-12T14:07:46.03Z</time></trkpt><trkpt lat="42.8166092" lon="12.5006328"><ele>466.0</ele><time>2026-04-12T14:07:47.04Z</time></trkpt><trkpt lat="42.8168668" lon="12.5007724"><ele>465.5</ele><time>2026-04-12T14:07:48.032Z</time></trkpt><trkpt lat="42.8171247" lon="12.5009116"><ele>465.0</ele><time>2026-04-12T14:07:49.032Z</time></trkpt><trkpt lat="42.817382" lon="12.501052"><ele>465.0</ele><time>2026-04-12T14:07:50.031Z</time></trkpt><trkpt lat="42.8176388" lon="12.501193"><ele>465.0</ele><time>2026-04-12T14:07:51.033Z</time></trkpt><trkpt lat="42.8178958" lon="12.501334"><ele>466.0</ele><time>2026-04-12T14:07:52.037Z</time></trkpt><trkpt lat="42.8181519" lon="12.5014736"><ele>467.0</ele><time>2026-04-12T14:07:53.031Z</time></trkpt><trkpt lat="42.8184074" lon="12.5016112"><ele>468.0</ele><time>2026-04-12T14:07:54.028Z</time></trkpt><trkpt lat="42.8186624" lon="12.5017488"><ele>469.0</ele><time>2026-04-12T14:07:55.042Z</time></trkpt><trkpt lat="42.818917" lon="12.501888"><ele>469.0</ele><time>2026-04-12T14:07:56.032Z</time></trkpt><trkpt lat="42.8191716" lon="12.5020235"><ele>469.0</ele><time>2026-04-12T14:07:57.029Z</time></trkpt><trkpt lat="42.8194263" lon="12.5021521"><ele>469.0</ele><time>2026-04-12T14:07:58.033Z</time></trkpt><trkpt lat="42.8196811" lon="12.5022659"><ele>469.0</ele><time>2026-04-12T14:07:59.039Z</time></trkpt><trkpt lat="42.8199342" lon="12.5023837"><ele>470.5</ele><time>2026-04-12T14:08:00.032Z</time></trkpt><trkpt lat="42.820186" lon="12.5025011"><ele>472.0</ele><time>2026-04-12T14:08:01.032Z</time></trkpt><trkpt lat="42.8204377" lon="12.5026164"><ele>472.0</ele><time>2026-04-12T14:08:02.036Z</time></trkpt><trkpt lat="42.8206842" lon="12.5027344"><ele>472.0</ele><time>2026-04-12T14:08:03.034Z</time></trkpt><trkpt lat="42.8209185" lon="12.5028446"><ele>471.5</ele><time>2026-04-12T14:08:04.041Z</time></trkpt><trkpt lat="42.8211489" lon="12.5029533"><ele>471.0</ele><time>2026-04-12T14:08:05.034Z</time></trkpt><trkpt lat="42.8213681" lon="12.5030568"><ele>471.0</ele><time>2026-04-12T14:08:06.034Z</time></trkpt><trkpt lat="42.8215802" lon="12.5031591"><ele>471.0</ele><time>2026-04-12T14:08:07.034Z</time></trkpt><trkpt lat="42.8217888" lon="12.5032786"><ele>472.0</ele><time>2026-04-12T14:08:08.032Z</time></trkpt><trkpt lat="42.82198" lon="12.5034351"><ele>473.0</ele><time>2026-04-12T14:08:09.035Z</time></trkpt><trkpt lat="42.8221464" lon="12.5036357"><ele>474.0</ele><time>2026-04-12T14:08:10.035Z</time></trkpt><trkpt lat="42.8222927" lon="12.5038697"><ele>474.0</ele><time>2026-04-12T14:08:11.034Z</time></trkpt><trkpt lat="42.822417" lon="12.5041299"><ele>474.0</ele><time>2026-04-12T14:08:12.035Z</time></trkpt><trkpt lat="42.8225238" lon="12.5044001"><ele>473.66666666666663</ele><time>2026-04-12T14:08:13.034Z</time></trkpt><trkpt lat="42.8226175" lon="12.5046559"><ele>473.3333333333333</ele><time>2026-04-12T14:08:14.053Z</time></trkpt><trkpt lat="42.8227101" lon="12.5049068"><ele>473.0</ele><time>2026-04-12T14:08:15.031Z</time></trkpt><trkpt lat="42.8227958" lon="12.5051713"><ele>474.0</ele><time>2026-04-12T14:08:16.029Z</time></trkpt><trkpt lat="42.822864" lon="12.5054547"><ele>475.0</ele><time>2026-04-12T14:08:17.034Z</time></trkpt><trkpt lat="42.8229127" lon="12.5057513"><ele>476.0</ele><time>2026-04-12T14:08:18.033Z</time></trkpt><trkpt lat="42.8229476" lon="12.5060487"><ele>476.3333333333333</ele><time>2026-04-12T14:08:19.032Z</time></trkpt><trkpt lat="42.8229782" lon="12.506325"><ele>476.66666666666663</ele><time>2026-04-12T14:08:20.04Z</time></trkpt><trkpt lat="42.8230106" lon="12.5065789"><ele>477.0</ele><time>2026-04-12T14:08:21.035Z</time></trkpt><trkpt lat="42.8230451" lon="12.5068153"><ele>477.0</ele><time>2026-04-12T14:08:22.035Z</time></trkpt><trkpt lat="42.8230779" lon="12.5070365"><ele>477.0</ele><time>2026-04-12T14:08:23.033Z</time></trkpt><trkpt lat="42.8231178" lon="12.50724"><ele>477.0</ele><time>2026-04-12T14:08:24.032Z</time></trkpt><trkpt lat="42.82317" lon="12.5074207"><ele>477.25</ele><time>2026-04-12T14:08:25.037Z</time></trkpt><trkpt lat="42.8232336" lon="12.5075901"><ele>477.5</ele><time>2026-04-12T14:08:26.033Z</time></trkpt><trkpt lat="42.8233027" lon="12.5077381"><ele>477.75</ele><time>2026-04-12T14:08:27.032Z</time></trkpt><trkpt lat="42.8233701" lon="12.5078654"><ele>478.0</ele><time>2026-04-12T14:08:28.038Z</time></trkpt><trkpt lat="42.8234344" lon="12.5079786"><ele>478.1666666666667</ele><time>2026-04-12T14:08:29.037Z</time></trkpt><trkpt lat="42.8234939" lon="12.5080823"><ele>478.33333333333337</ele><time>2026-04-12T14:08:30.036Z</time></trkpt><trkpt lat="42.8235535" lon="12.5081606"><ele>478.5</ele><time>2026-04-12T14:08:31.037Z</time></trkpt><trkpt lat="42.8236171" lon="12.5082011"><ele>478.66666666666663</ele><time>2026-04-12T14:08:32.039Z</time></trkpt><trkpt lat="42.8237334" lon="12.5081676"><ele>478.8333333333333</ele><time>2026-04-12T14:08:34.041Z</time></trkpt><trkpt lat="42.8237994" lon="12.5081216"><ele>479.0</ele><time>2026-04-12T14:08:35.036Z</time></trkpt><trkpt lat="42.823886" lon="12.5080706"><ele>479.0</ele><time>2026-04-12T14:08:36.039Z</time></trkpt><trkpt lat="42.8239982" lon="12.5080145"><ele>479.0</ele><time>2026-04-12T14:08:37.035Z</time></trkpt><trkpt lat="42.8241318" lon="12.5079456"><ele>479.0</ele><time>2026-04-12T14:08:38.041Z</time></trkpt><trkpt lat="42.8242733" lon="12.5078537"><ele>479.0</ele><time>2026-04-12T14:08:39.036Z</time></trkpt><trkpt lat="42.8244159" lon="12.507732"><ele>479.0</ele><time>2026-04-12T14:08:40.034Z</time></trkpt><trkpt lat="42.8245528" lon="12.5075879"><ele>479.0</ele><time>2026-04-12T14:08:41.039Z</time></trkpt><trkpt lat="42.8246839" lon="12.507427"><ele>479.0</ele><time>2026-04-12T14:08:42.037Z</time></trkpt><trkpt lat="42.8248129" lon="12.5072572"><ele>479.0</ele><time>2026-04-12T14:08:43.034Z</time></trkpt><trkpt lat="42.8249457" lon="12.507087"><ele>479.0</ele><time>2026-04-12T14:08:44.03Z</time></trkpt><trkpt lat="42.8250815" lon="12.5069195"><ele>479.0</ele><time>2026-04-12T14:08:45.032Z</time></trkpt><trkpt lat="42.8252168" lon="12.5067523"><ele>480.0</ele><time>2026-04-12T14:08:46.034Z</time></trkpt><trkpt lat="42.8253498" lon="12.5065843"><ele>481.0</ele><time>2026-04-12T14:08:47.036Z</time></trkpt><trkpt lat="42.8254804" lon="12.5064167"><ele>482.0</ele><time>2026-04-12T14:08:48.036Z</time></trkpt><trkpt lat="42.8256098" lon="12.5062479"><ele>482.3333333333333</ele><time>2026-04-12T14:08:49.033Z</time></trkpt><trkpt lat="42.8257393" lon="12.5060795"><ele>482.66666666666663</ele><time>2026-04-12T14:08:50.036Z</time></trkpt><trkpt lat="42.8258656" lon="12.5059179"><ele>483.0</ele><time>2026-04-12T14:08:51.028Z</time></trkpt><trkpt lat="42.8259879" lon="12.5057727"><ele>483.0</ele><time>2026-04-12T14:08:52.042Z</time></trkpt><trkpt lat="42.8261228" lon="12.5056473"><ele>483.0</ele><time>2026-04-12T14:08:53.035Z</time></trkpt><trkpt lat="42.8262716" lon="12.5055443"><ele>483.0</ele><time>2026-04-12T14:08:54.033Z</time></trkpt><trkpt lat="42.8264296" lon="12.5054592"><ele>483.33333333333337</ele><time>2026-04-12T14:08:55.037Z</time></trkpt><trkpt lat="42.8265937" lon="12.5053796"><ele>483.6666666666667</ele><time>2026-04-12T14:08:56.032Z</time></trkpt><trkpt lat="42.8267584" lon="12.5052972"><ele>484.0</ele><time>2026-04-12T14:08:57.041Z</time></trkpt><trkpt lat="42.8269234" lon="12.5052086"><ele>484.0</ele><time>2026-04-12T14:08:58.037Z</time></trkpt><trkpt lat="42.8270907" lon="12.5051167"><ele>484.0</ele><time>2026-04-12T14:08:59.034Z</time></trkpt><trkpt lat="42.82726" lon="12.5050217"><ele>484.0</ele><time>2026-04-12T14:09:00.034Z</time></trkpt><trkpt lat="42.8274324" lon="12.5049279"><ele>484.0</ele><time>2026-04-12T14:09:01.041Z</time></trkpt><trkpt lat="42.8276098" lon="12.5048348"><ele>484.0</ele><time>2026-04-12T14:09:02.036Z</time></trkpt><trkpt lat="42.8277901" lon="12.50474"><ele>484.0</ele><time>2026-04-12T14:09:03.04Z</time></trkpt><trkpt lat="42.8279726" lon="12.5046425"><ele>484.33333333333337</ele><time>2026-04-12T14:09:04.034Z</time></trkpt><trkpt lat="42.8281565" lon="12.5045444"><ele>484.66666666666663</ele><time>2026-04-12T14:09:05.042Z</time></trkpt><trkpt lat="42.8283414" lon="12.5044453"><ele>485.0</ele><time>2026-04-12T14:09:06.039Z</time></trkpt><trkpt lat="42.8285246" lon="12.5043473"><ele>486.0</ele><time>2026-04-12T14:09:07.036Z</time></trkpt><trkpt lat="42.8287036" lon="12.504252"><ele>487.0</ele><time>2026-04-12T14:09:08.031Z</time></trkpt><trkpt lat="42.8288815" lon="12.5041589"><ele>488.0</ele><time>2026-04-12T14:09:09.032Z</time></trkpt><trkpt lat="42.8290584" lon="12.5040634"><ele>488.0</ele><time>2026-04-12T14:09:10.035Z</time></trkpt><trkpt lat="42.8292333" lon="12.5039645"><ele>488.0</ele><time>2026-04-12T14:09:11.03Z</time></trkpt><trkpt lat="42.8294042" lon="12.503858"><ele>488.0</ele><time>2026-04-12T14:09:12.051Z</time></trkpt><trkpt lat="42.8295561" lon="12.5037344"><ele>487.3333333333333</ele><time>2026-04-12T14:09:13.032Z</time></trkpt><trkpt lat="42.82968" lon="12.5035822"><ele>486.66666666666663</ele><time>2026-04-12T14:09:14.031Z</time></trkpt><trkpt lat="42.8297784" lon="12.5034112"><ele>486.0</ele><time>2026-04-12T14:09:15.028Z</time></trkpt><trkpt lat="42.8298601" lon="12.5032383"><ele>486.0</ele><time>2026-04-12T14:09:16.031Z</time></trkpt><trkpt lat="42.829934" lon="12.5030698"><ele>486.0</ele><time>2026-04-12T14:09:17.032Z</time></trkpt><trkpt lat="42.830005" lon="12.5029142"><ele>486.0</ele><time>2026-04-12T14:09:18.032Z</time></trkpt><trkpt lat="42.830076" lon="12.5027805"><ele>486.0</ele><time>2026-04-12T14:09:19.038Z</time></trkpt><trkpt lat="42.8301502" lon="12.5026707"><ele>486.20000000000005</ele><time>2026-04-12T14:09:20.027Z</time></trkpt><trkpt lat="42.8302284" lon="12.5025812"><ele>486.40000000000003</ele><time>2026-04-12T14:09:21.029Z</time></trkpt><trkpt lat="42.8302935" lon="12.5024835"><ele>486.6</ele><time>2026-04-12T14:09:22.03Z</time></trkpt><trkpt lat="42.8303309" lon="12.5023545"><ele>486.8</ele><time>2026-04-12T14:09:23.028Z</time></trkpt><trkpt lat="42.8303453" lon="12.5021934"><ele>487.0</ele><time>2026-04-12T14:09:24.035Z</time></trkpt><trkpt lat="42.8303672" lon="12.5020219"><ele>488.33333333333337</ele><time>2026-04-12T14:09:25.034Z</time></trkpt><trkpt lat="42.8304134" lon="12.5018479"><ele>489.66666666666663</ele><time>2026-04-12T14:09:26.029Z</time></trkpt><trkpt lat="42.830477" lon="12.5016617"><ele>491.0</ele><time>2026-04-12T14:09:27.037Z</time></trkpt><trkpt lat="42.8305525" lon="12.5014472"><ele>489.3333333333333</ele><time>2026-04-12T14:09:28.029Z</time></trkpt><trkpt lat="42.8306312" lon="12.5012221"><ele>487.66666666666663</ele><time>2026-04-12T14:09:29.03Z</time></trkpt><trkpt lat="42.830707" lon="12.5010056"><ele>486.0</ele><time>2026-04-12T14:09:30.033Z</time></trkpt><trkpt lat="42.8307848" lon="12.5007989"><ele>486.0</ele><time>2026-04-12T14:09:31.033Z</time></trkpt><trkpt lat="42.8308737" lon="12.5006095"><ele>486.0</ele><time>2026-04-12T14:09:32.031Z</time></trkpt><trkpt lat="42.8309779" lon="12.5004394"><ele>486.0</ele><time>2026-04-12T14:09:33.033Z</time></trkpt><trkpt lat="42.8310967" lon="12.500282"><ele>484.33333333333337</ele><time>2026-04-12T14:09:34.055Z</time></trkpt><trkpt lat="42.8312229" lon="12.5001341"><ele>482.6666666666667</ele><time>2026-04-12T14:09:35.033Z</time></trkpt><trkpt lat="42.8313475" lon="12.5000034"><ele>481.0</ele><time>2026-04-12T14:09:36.031Z</time></trkpt><trkpt lat="42.8314639" lon="12.4998973"><ele>481.00000000000006</ele><time>2026-04-12T14:09:37.033Z</time></trkpt><trkpt lat="42.8315628" lon="12.4998281"><ele>481.0</ele><time>2026-04-12T14:09:38.044Z</time></trkpt><trkpt lat="42.83165" lon="12.4997988"><ele>481.0</ele><time>2026-04-12T14:09:39.032Z</time></trkpt><trkpt lat="42.8317218" lon="12.4998032"><ele>481.0</ele><time>2026-04-12T14:09:40.038Z</time></trkpt><trkpt lat="42.8317935" lon="12.4998358"><ele>481.00000000000006</ele><time>2026-04-12T14:09:41.035Z</time></trkpt><trkpt lat="42.8318698" lon="12.4999059"><ele>481.0</ele><time>2026-04-12T14:09:42.034Z</time></trkpt><trkpt lat="42.8319525" lon="12.5000088"><ele>482.25</ele><time>2026-04-12T14:09:43.037Z</time></trkpt><trkpt lat="42.832045" lon="12.5001305"><ele>483.5</ele><time>2026-04-12T14:09:44.033Z</time></trkpt><trkpt lat="42.8321472" lon="12.5002806"><ele>484.75</ele><time>2026-04-12T14:09:45.038Z</time></trkpt><trkpt lat="42.8322676" lon="12.5004444"><ele>486.0</ele><time>2026-04-12T14:09:46.028Z</time></trkpt><trkpt lat="42.8323978" lon="12.5006243"><ele>487.33333333333337</ele><time>2026-04-12T14:09:47.053Z</time></trkpt><trkpt lat="42.8325396" lon="12.5008189"><ele>488.6666666666667</ele><time>2026-04-12T14:09:48.035Z</time></trkpt><trkpt lat="42.8326904" lon="12.5010315"><ele>490.0</ele><time>2026-04-12T14:09:49.043Z</time></trkpt><trkpt lat="42.8328515" lon="12.5012494"><ele>493.0</ele><time>2026-04-12T14:09:50.035Z</time></trkpt><trkpt lat="42.8330155" lon="12.5014811"><ele>496.0</ele><time>2026-04-12T14:09:51.037Z</time></trkpt><trkpt lat="42.8331861" lon="12.5017164"><ele>496.0</ele><time>2026-04-12T14:09:52.032Z</time></trkpt><trkpt lat="42.8333594" lon="12.5019495"><ele>496.0</ele><time>2026-04-12T14:09:53.031Z</time></trkpt><trkpt lat="42.8335324" lon="12.5021853"><ele>497.5</ele><time>2026-04-12T14:09:54.028Z</time></trkpt><trkpt lat="42.8337046" lon="12.5024212"><ele>499.0</ele><time>2026-04-12T14:09:55.037Z</time></trkpt><trkpt lat="42.8338744" lon="12.5026578"><ele>499.0</ele><time>2026-04-12T14:09:56.032Z</time></trkpt><trkpt lat="42.8340448" lon="12.5028933"><ele>499.0</ele><time>2026-04-12T14:09:57.032Z</time></trkpt><trkpt lat="42.8342138" lon="12.503129"><ele>491.5</ele><time>2026-04-12T14:09:58.029Z</time></trkpt><trkpt lat="42.8343846" lon="12.5033594"><ele>484.0</ele><time>2026-04-12T14:09:59.036Z</time></trkpt><trkpt lat="42.8345538" lon="12.5035893"><ele>479.5</ele><time>2026-04-12T14:10:00.032Z</time></trkpt><trkpt lat="42.834727" lon="12.5038194"><ele>475.0</ele><time>2026-04-12T14:10:01.032Z</time></trkpt><trkpt lat="42.8348958" lon="12.5040536"><ele>475.0</ele><time>2026-04-12T14:10:02.035Z</time></trkpt><trkpt lat="42.8350648" lon="12.5042912"><ele>475.0</ele><time>2026-04-12T14:10:03.033Z</time></trkpt><trkpt lat="42.8352334" lon="12.5045348"><ele>470.0</ele><time>2026-04-12T14:10:04.031Z</time></trkpt><trkpt lat="42.8354092" lon="12.5047746"><ele>465.0</ele><time>2026-04-12T14:10:05.031Z</time></trkpt><trkpt lat="42.8355849" lon="12.505018"><ele>465.0</ele><time>2026-04-12T14:10:06.032Z</time></trkpt><trkpt lat="42.8357609" lon="12.5052629"><ele>465.0</ele><time>2026-04-12T14:10:07.027Z</time></trkpt><trkpt lat="42.835937" lon="12.5055117"><ele>465.0</ele><time>2026-04-12T14:10:08.036Z</time></trkpt><trkpt lat="42.836115" lon="12.5057588"><ele>465.0</ele><time>2026-04-12T14:10:09.03Z</time></trkpt><trkpt lat="42.8362979" lon="12.5060053"><ele>473.0</ele><time>2026-04-12T14:10:10.031Z</time></trkpt><trkpt lat="42.8364816" lon="12.5062528"><ele>481.0</ele><time>2026-04-12T14:10:11.032Z</time></trkpt><trkpt lat="42.8366622" lon="12.5065053"><ele>481.0</ele><time>2026-04-12T14:10:12.034Z</time></trkpt><trkpt lat="42.8368344" lon="12.5067445"><ele>481.0</ele><time>2026-04-12T14:10:13.031Z</time></trkpt><trkpt lat="42.837002" lon="12.506984"><ele>485.0</ele><time>2026-04-12T14:10:14.039Z</time></trkpt><trkpt lat="42.8371676" lon="12.5072186"><ele>489.0</ele><time>2026-04-12T14:10:15.029Z</time></trkpt><trkpt lat="42.8373344" lon="12.507444"><ele>489.0</ele><time>2026-04-12T14:10:16.03Z</time></trkpt><trkpt lat="42.8374969" lon="12.5076624"><ele>489.0</ele><time>2026-04-12T14:10:17.03Z</time></trkpt><trkpt lat="42.8376692" lon="12.5078687"><ele>489.5</ele><time>2026-04-12T14:10:18.031Z</time></trkpt><trkpt lat="42.83785" lon="12.5080621"><ele>490.0</ele><time>2026-04-12T14:10:19.034Z</time></trkpt><trkpt lat="42.8380427" lon="12.5082389"><ele>490.0</ele><time>2026-04-12T14:10:20.029Z</time></trkpt><trkpt lat="42.8382465" lon="12.5083948"><ele>490.0</ele><time>2026-04-12T14:10:21.03Z</time></trkpt><trkpt lat="42.8384614" lon="12.5085261"><ele>490.0</ele><time>2026-04-12T14:10:22.032Z</time></trkpt><trkpt lat="42.8386841" lon="12.5086294"><ele>490.0</ele><time>2026-04-12T14:10:23.032Z</time></trkpt><trkpt lat="42.8389137" lon="12.5087041"><ele>480.5</ele><time>2026-04-12T14:10:24.03Z</time></trkpt><trkpt lat="42.8391483" lon="12.5087557"><ele>471.0</ele><time>2026-04-12T14:10:25.034Z</time></trkpt><trkpt lat="42.8393915" lon="12.5087838"><ele>468.5</ele><time>2026-04-12T14:10:26.028Z</time></trkpt><trkpt lat="42.8396346" lon="12.5087953"><ele>466.0</ele><time>2026-04-12T14:10:27.027Z</time></trkpt><trkpt lat="42.8398801" lon="12.5087962"><ele>466.0</ele><time>2026-04-12T14:10:28.029Z</time></trkpt><trkpt lat="42.8401281" lon="12.5087911"><ele>466.0</ele><time>2026-04-12T14:10:29.027Z</time></trkpt><trkpt lat="42.8403799" lon="12.5087832"><ele>462.5</ele><time>2026-04-12T14:10:30.05Z</time></trkpt><trkpt lat="42.8406358" lon="12.5087745"><ele>459.0</ele><time>2026-04-12T14:10:31.029Z</time></trkpt><trkpt lat="42.8408962" lon="12.5087663"><ele>455.5</ele><time>2026-04-12T14:10:32.031Z</time></trkpt><trkpt lat="42.8411589" lon="12.5087572"><ele>452.0</ele><time>2026-04-12T14:10:33.032Z</time></trkpt><trkpt lat="42.8414209" lon="12.5087482"><ele>452.0</ele><time>2026-04-12T14:10:34.032Z</time></trkpt><trkpt lat="42.8416792" lon="12.5087429"><ele>452.0</ele><time>2026-04-12T14:10:35.029Z</time></trkpt><trkpt lat="42.8419359" lon="12.508742"><ele>449.5</ele><time>2026-04-12T14:10:36.03Z</time></trkpt><trkpt lat="42.8421856" lon="12.5087478"><ele>447.0</ele><time>2026-04-12T14:10:37.046Z</time></trkpt><trkpt lat="42.8424278" lon="12.5087645"><ele>445.5</ele><time>2026-04-12T14:10:38.032Z</time></trkpt><trkpt lat="42.8426665" lon="12.508785"><ele>444.0</ele><time>2026-04-12T14:10:39.039Z</time></trkpt><trkpt lat="42.8428906" lon="12.5088238"><ele>444.0</ele><time>2026-04-12T14:10:40.036Z</time></trkpt><trkpt lat="42.8431062" lon="12.5088815"><ele>444.0</ele><time>2026-04-12T14:10:41.035Z</time></trkpt><trkpt lat="42.8433181" lon="12.5089597"><ele>444.0</ele><time>2026-04-12T14:10:42.032Z</time></trkpt><trkpt lat="42.8435269" lon="12.5090624"><ele>443.33333333333337</ele><time>2026-04-12T14:10:43.038Z</time></trkpt><trkpt lat="42.8437305" lon="12.5091913"><ele>442.6666666666667</ele><time>2026-04-12T14:10:44.036Z</time></trkpt><trkpt lat="42.8439256" lon="12.5093378"><ele>442.0</ele><time>2026-04-12T14:10:45.028Z</time></trkpt><trkpt lat="42.8441155" lon="12.5094985"><ele>441.6666666666667</ele><time>2026-04-12T14:10:46.034Z</time></trkpt><trkpt lat="42.8443014" lon="12.5096676"><ele>441.33333333333337</ele><time>2026-04-12T14:10:47.033Z</time></trkpt><trkpt lat="42.844484" lon="12.5098433"><ele>441.0</ele><time>2026-04-12T14:10:48.03Z</time></trkpt><trkpt lat="42.8446626" lon="12.5100294"><ele>441.0</ele><time>2026-04-12T14:10:49.06Z</time></trkpt><trkpt lat="42.844842" lon="12.5102245"><ele>441.0</ele><time>2026-04-12T14:10:50.033Z</time></trkpt><trkpt lat="42.8450218" lon="12.5104248"><ele>439.0</ele><time>2026-04-12T14:10:51.042Z</time></trkpt><trkpt lat="42.8452024" lon="12.5106315"><ele>437.0</ele><time>2026-04-12T14:10:52.036Z</time></trkpt><trkpt lat="42.8453831" lon="12.510845"><ele>437.0</ele><time>2026-04-12T14:10:53.033Z</time></trkpt><trkpt lat="42.8455633" lon="12.5110689"><ele>437.0</ele><time>2026-04-12T14:10:54.04Z</time></trkpt><trkpt lat="42.8457428" lon="12.5113042"><ele>437.0</ele><time>2026-04-12T14:10:55.032Z</time></trkpt><trkpt lat="42.8459201" lon="12.5115458"><ele>437.0</ele><time>2026-04-12T14:10:56.036Z</time></trkpt><trkpt lat="42.8460898" lon="12.5117936"><ele>437.0</ele><time>2026-04-12T14:10:57.035Z</time></trkpt><trkpt lat="42.8462451" lon="12.5120447"><ele>437.0</ele><time>2026-04-12T14:10:58.032Z</time></trkpt><trkpt lat="42.8463851" lon="12.5123049"><ele>436.3333333333333</ele><time>2026-04-12T14:10:59.036Z</time></trkpt><trkpt lat="42.8465071" lon="12.5125618"><ele>435.66666666666663</ele><time>2026-04-12T14:11:00.034Z</time></trkpt><trkpt lat="42.8466163" lon="12.5128039"><ele>435.0</ele><time>2026-04-12T14:11:01.031Z</time></trkpt><trkpt lat="42.8467135" lon="12.5130199"><ele>432.66666666666663</ele><time>2026-04-12T14:11:02.035Z</time></trkpt><trkpt lat="42.8468137" lon="12.5132048"><ele>430.3333333333333</ele><time>2026-04-12T14:11:03.031Z</time></trkpt><trkpt lat="42.8469268" lon="12.5133436"><ele>428.0</ele><time>2026-04-12T14:11:04.036Z</time></trkpt><trkpt lat="42.8470529" lon="12.5134292"><ele>428.0</ele><time>2026-04-12T14:11:05.031Z</time></trkpt><trkpt lat="42.847192" lon="12.5134527"><ele>428.0</ele><time>2026-04-12T14:11:06.03Z</time></trkpt><trkpt lat="42.8473392" lon="12.5134118"><ele>428.0</ele><time>2026-04-12T14:11:07.03Z</time></trkpt><trkpt lat="42.8474927" lon="12.5133211"><ele>426.66666666666663</ele><time>2026-04-12T14:11:08.033Z</time></trkpt><trkpt lat="42.8476409" lon="12.5132186"><ele>425.33333333333337</ele><time>2026-04-12T14:11:09.032Z</time></trkpt><trkpt lat="42.8477863" lon="12.513115"><ele>424.0</ele><time>2026-04-12T14:11:10.052Z</time></trkpt><trkpt lat="42.8479282" lon="12.5130158"><ele>424.0</ele><time>2026-04-12T14:11:11.035Z</time></trkpt><trkpt lat="42.8480543" lon="12.5129266"><ele>424.0</ele><time>2026-04-12T14:11:12.029Z</time></trkpt><trkpt lat="42.8481725" lon="12.5128669"><ele>424.0</ele><time>2026-04-12T14:11:13.036Z</time></trkpt><trkpt lat="42.8482844" lon="12.5128646"><ele>424.0</ele><time>2026-04-12T14:11:14.03Z</time></trkpt><trkpt lat="42.8483712" lon="12.5129354"><ele>424.0</ele><time>2026-04-12T14:11:15.044Z</time></trkpt><trkpt lat="42.8484167" lon="12.5130492"><ele>424.0</ele><time>2026-04-12T14:11:16.032Z</time></trkpt><trkpt lat="42.8484221" lon="12.5131874"><ele>424.0</ele><time>2026-04-12T14:11:17.031Z</time></trkpt><trkpt lat="42.8484023" lon="12.5133451"><ele>424.0</ele><time>2026-04-12T14:11:18.034Z</time></trkpt><trkpt lat="42.8483803" lon="12.5135303"><ele>423.0</ele><time>2026-04-12T14:11:19.03Z</time></trkpt><trkpt lat="42.8483585" lon="12.5137493"><ele>422.0</ele><time>2026-04-12T14:11:20.042Z</time></trkpt><trkpt lat="42.8483342" lon="12.5139923"><ele>421.0</ele><time>2026-04-12T14:11:21.033Z</time></trkpt><trkpt lat="42.8483064" lon="12.514257"><ele>421.0</ele><time>2026-04-12T14:11:22.027Z</time></trkpt><trkpt lat="42.8482778" lon="12.5145128"><ele>421.0</ele><time>2026-04-12T14:11:23.034Z</time></trkpt><trkpt lat="42.8482519" lon="12.5147579"><ele>421.0</ele><time>2026-04-12T14:11:24.033Z</time></trkpt><trkpt lat="42.8482385" lon="12.5149903"><ele>420.6666666666667</ele><time>2026-04-12T14:11:25.033Z</time></trkpt><trkpt lat="42.8482628" lon="12.5152073"><ele>420.33333333333337</ele><time>2026-04-12T14:11:26.037Z</time></trkpt><trkpt lat="42.8483363" lon="12.5154071"><ele>420.0</ele><time>2026-04-12T14:11:27.034Z</time></trkpt><trkpt lat="42.8484503" lon="12.5155829"><ele>417.33333333333337</ele><time>2026-04-12T14:11:28.04Z</time></trkpt><trkpt lat="42.8485957" lon="12.5157263"><ele>414.6666666666667</ele><time>2026-04-12T14:11:29.035Z</time></trkpt><trkpt lat="42.848766" lon="12.5158235"><ele>412.0</ele><time>2026-04-12T14:11:30.037Z</time></trkpt><trkpt lat="42.8489543" lon="12.5158642"><ele>412.0</ele><time>2026-04-12T14:11:31.034Z</time></trkpt><trkpt lat="42.849142" lon="12.5158611"><ele>412.0</ele><time>2026-04-12T14:11:32.035Z</time></trkpt><trkpt lat="42.8493137" lon="12.5158393"><ele>412.0</ele><time>2026-04-12T14:11:33.032Z</time></trkpt><trkpt lat="42.8494623" lon="12.5158148"><ele>413.20000000000005</ele><time>2026-04-12T14:11:34.033Z</time></trkpt><trkpt lat="42.8495923" lon="12.5157967"><ele>414.4</ele><time>2026-04-12T14:11:35.031Z</time></trkpt><trkpt lat="42.8497034" lon="12.5158016"><ele>415.6</ele><time>2026-04-12T14:11:36.032Z</time></trkpt><trkpt lat="42.8497893" lon="12.5158459"><ele>416.79999999999995</ele><time>2026-04-12T14:11:37.034Z</time></trkpt><trkpt lat="42.8498385" lon="12.5159307"><ele>418.0</ele><time>2026-04-12T14:11:38.035Z</time></trkpt><trkpt lat="42.8498413" lon="12.5160404"><ele>418.0</ele><time>2026-04-12T14:11:39.042Z</time></trkpt><trkpt lat="42.8497983" lon="12.5161565"><ele>418.0</ele><time>2026-04-12T14:11:40.031Z</time></trkpt><trkpt lat="42.8497242" lon="12.5162764"><ele>418.0</ele><time>2026-04-12T14:11:41.035Z</time></trkpt><trkpt lat="42.849638" lon="12.5164067"><ele>418.0</ele><time>2026-04-12T14:11:42.034Z</time></trkpt><trkpt lat="42.8495467" lon="12.5165505"><ele>417.75</ele><time>2026-04-12T14:11:43.034Z</time></trkpt><trkpt lat="42.8494615" lon="12.5166945"><ele>417.5</ele><time>2026-04-12T14:11:44.058Z</time></trkpt><trkpt lat="42.8493884" lon="12.5168363"><ele>417.25</ele><time>2026-04-12T14:11:45.041Z</time></trkpt><trkpt lat="42.8493395" lon="12.5169836"><ele>417.0</ele><time>2026-04-12T14:11:46.034Z</time></trkpt><trkpt lat="42.8493242" lon="12.5171446"><ele>415.25</ele><time>2026-04-12T14:11:47.035Z</time></trkpt><trkpt lat="42.8493531" lon="12.517309"><ele>413.5</ele><time>2026-04-12T14:11:48.032Z</time></trkpt><trkpt lat="42.8494327" lon="12.5174584"><ele>411.75</ele><time>2026-04-12T14:11:49.037Z</time></trkpt><trkpt lat="42.8495551" lon="12.5175901"><ele>410.0</ele><time>2026-04-12T14:11:50.039Z</time></trkpt><trkpt lat="42.8496982" lon="12.5177246"><ele>410.0</ele><time>2026-04-12T14:11:51.034Z</time></trkpt><trkpt lat="42.8498589" lon="12.5178792"><ele>410.0</ele><time>2026-04-12T14:11:52.037Z</time></trkpt><trkpt lat="42.8500304" lon="12.5180529"><ele>410.0</ele><time>2026-04-12T14:11:53.033Z</time></trkpt><trkpt lat="42.8502088" lon="12.5182358"><ele>408.3333333333333</ele><time>2026-04-12T14:11:54.044Z</time></trkpt><trkpt lat="42.8503895" lon="12.5184026"><ele>406.66666666666663</ele><time>2026-04-12T14:11:55.035Z</time></trkpt><trkpt lat="42.8505745" lon="12.5185449"><ele>405.0</ele><time>2026-04-12T14:11:56.052Z</time></trkpt><trkpt lat="42.8507637" lon="12.5186802"><ele>404.0</ele><time>2026-04-12T14:11:57.034Z</time></trkpt><trkpt lat="42.8509493" lon="12.5188376"><ele>403.0</ele><time>2026-04-12T14:11:58.033Z</time></trkpt><trkpt lat="42.8511222" lon="12.5190266"><ele>402.0</ele><time>2026-04-12T14:11:59.031Z</time></trkpt><trkpt lat="42.8512846" lon="12.5192375"><ele>402.0</ele><time>2026-04-12T14:12:00.035Z</time></trkpt><trkpt lat="42.8514421" lon="12.5194391"><ele>402.0</ele><time>2026-04-12T14:12:01.036Z</time></trkpt><trkpt lat="42.8516119" lon="12.5196531"><ele>402.0</ele><time>2026-04-12T14:12:02.038Z</time></trkpt><trkpt lat="42.8517819" lon="12.519874"><ele>400.0</ele><time>2026-04-12T14:12:03.032Z</time></trkpt><trkpt lat="42.8519555" lon="12.5200932"><ele>398.0</ele><time>2026-04-12T14:12:04.033Z</time></trkpt><trkpt lat="42.8521253" lon="12.5203122"><ele>393.0</ele><time>2026-04-12T14:12:05.031Z</time></trkpt><trkpt lat="42.8522934" lon="12.5205324"><ele>388.0</ele><time>2026-04-12T14:12:06.038Z</time></trkpt><trkpt lat="42.8524565" lon="12.5207609"><ele>388.0</ele><time>2026-04-12T14:12:07.045Z</time></trkpt><trkpt lat="42.852608" lon="12.5209764"><ele>388.0</ele><time>2026-04-12T14:12:08.034Z</time></trkpt><trkpt lat="42.8527552" lon="12.5211635"><ele>388.0</ele><time>2026-04-12T14:12:09.067Z</time></trkpt><trkpt lat="42.852896" lon="12.5213317"><ele>386.6666666666667</ele><time>2026-04-12T14:12:10.037Z</time></trkpt><trkpt lat="42.8530322" lon="12.5214883"><ele>385.33333333333337</ele><time>2026-04-12T14:12:11.036Z</time></trkpt><trkpt lat="42.8531593" lon="12.5216416"><ele>384.0</ele><time>2026-04-12T14:12:12.031Z</time></trkpt><trkpt lat="42.8532818" lon="12.5217836"><ele>384.0</ele><time>2026-04-12T14:12:13.035Z</time></trkpt><trkpt lat="42.853415" lon="12.5218924"><ele>384.0</ele><time>2026-04-12T14:12:14.037Z</time></trkpt><trkpt lat="42.8535694" lon="12.52196"><ele>384.0</ele><time>2026-04-12T14:12:15.035Z</time></trkpt><trkpt lat="42.853739" lon="12.521987"><ele>383.3333333333333</ele><time>2026-04-12T14:12:16.056Z</time></trkpt><trkpt lat="42.8539194" lon="12.5219852"><ele>382.66666666666663</ele><time>2026-04-12T14:12:17.032Z</time></trkpt><trkpt lat="42.8540965" lon="12.5219813"><ele>382.0</ele><time>2026-04-12T14:12:18.032Z</time></trkpt><trkpt lat="42.8542788" lon="12.5219836"><ele>381.66666666666663</ele><time>2026-04-12T14:12:19.037Z</time></trkpt><trkpt lat="42.8544668" lon="12.5219988"><ele>381.3333333333333</ele><time>2026-04-12T14:12:20.038Z</time></trkpt><trkpt lat="42.8546523" lon="12.5220336"><ele>381.0</ele><time>2026-04-12T14:12:21.037Z</time></trkpt><trkpt lat="42.8548339" lon="12.5220918"><ele>378.0</ele><time>2026-04-12T14:12:22.029Z</time></trkpt><trkpt lat="42.8550176" lon="12.522166"><ele>375.0</ele><time>2026-04-12T14:12:23.041Z</time></trkpt><trkpt lat="42.8551968" lon="12.5222431"><ele>372.0</ele><time>2026-04-12T14:12:24.036Z</time></trkpt><trkpt lat="42.8553784" lon="12.5223212"><ele>371.3333333333333</ele><time>2026-04-12T14:12:25.037Z</time></trkpt><trkpt lat="42.8555666" lon="12.5224016"><ele>370.66666666666663</ele><time>2026-04-12T14:12:26.038Z</time></trkpt><trkpt lat="42.8557559" lon="12.5224873"><ele>370.0</ele><time>2026-04-12T14:12:27.04Z</time></trkpt><trkpt lat="42.8559499" lon="12.5225841"><ele>369.66666666666663</ele><time>2026-04-12T14:12:28.031Z</time></trkpt><trkpt lat="42.8561428" lon="12.5227035"><ele>369.3333333333333</ele><time>2026-04-12T14:12:29.062Z</time></trkpt><trkpt lat="42.856315" lon="12.5228599"><ele>369.0</ele><time>2026-04-12T14:12:30.033Z</time></trkpt><trkpt lat="42.8564643" lon="12.523047"><ele>367.3333333333333</ele><time>2026-04-12T14:12:31.034Z</time></trkpt><trkpt lat="42.8565859" lon="12.5232381"><ele>365.66666666666663</ele><time>2026-04-12T14:12:32.032Z</time></trkpt><trkpt lat="42.856684" lon="12.5234169"><ele>364.0</ele><time>2026-04-12T14:12:33.039Z</time></trkpt><trkpt lat="42.8567689" lon="12.5235816"><ele>362.75</ele><time>2026-04-12T14:12:34.031Z</time></trkpt><trkpt lat="42.8568469" lon="12.5237325"><ele>361.5</ele><time>2026-04-12T14:12:35.053Z</time></trkpt><trkpt lat="42.8569132" lon="12.5238719"><ele>360.25</ele><time>2026-04-12T14:12:36.028Z</time></trkpt><trkpt lat="42.8569437" lon="12.5240189"><ele>359.0</ele><time>2026-04-12T14:12:37.036Z</time></trkpt><trkpt lat="42.8569221" lon="12.5241593"><ele>359.0</ele><time>2026-04-12T14:12:38.029Z</time></trkpt><trkpt lat="42.8568506" lon="12.52427"><ele>359.0</ele><time>2026-04-12T14:12:39.033Z</time></trkpt><trkpt lat="42.8567382" lon="12.5243251"><ele>359.0</ele><time>2026-04-12T14:12:40.031Z</time></trkpt><trkpt lat="42.8565967" lon="12.5243199"><ele>359.0</ele><time>2026-04-12T14:12:41.031Z</time></trkpt><trkpt lat="42.8564336" lon="12.5242816"><ele>359.0</ele><time>2026-04-12T14:12:42.028Z</time></trkpt><trkpt lat="42.8562537" lon="12.5242555"><ele>359.0</ele><time>2026-04-12T14:12:43.036Z</time></trkpt><trkpt lat="42.8560552" lon="12.5242716"><ele>359.0</ele><time>2026-04-12T14:12:44.029Z</time></trkpt><trkpt lat="42.8558475" lon="12.5243336"><ele>358.33333333333337</ele><time>2026-04-12T14:12:45.033Z</time></trkpt><trkpt lat="42.8556377" lon="12.5244186"><ele>357.6666666666667</ele><time>2026-04-12T14:12:46.033Z</time></trkpt><trkpt lat="42.855441" lon="12.5245025"><ele>357.0</ele><time>2026-04-12T14:12:47.039Z</time></trkpt><trkpt lat="42.8552556" lon="12.5245792"><ele>355.6666666666667</ele><time>2026-04-12T14:12:48.036Z</time></trkpt><trkpt lat="42.8550836" lon="12.5246472"><ele>354.33333333333337</ele><time>2026-04-12T14:12:49.055Z</time></trkpt><trkpt lat="42.8549242" lon="12.52471"><ele>353.0</ele><time>2026-04-12T14:12:50.033Z</time></trkpt><trkpt lat="42.8547804" lon="12.5247662"><ele>353.0</ele><time>2026-04-12T14:12:51.035Z</time></trkpt><trkpt lat="42.8546531" lon="12.524831"><ele>353.0</ele><time>2026-04-12T14:12:52.04Z</time></trkpt><trkpt lat="42.8545563" lon="12.5249336"><ele>353.0</ele><time>2026-04-12T14:12:53.037Z</time></trkpt><trkpt lat="42.8545125" lon="12.5250738"><ele>353.0</ele><time>2026-04-12T14:12:54.051Z</time></trkpt><trkpt lat="42.8545336" lon="12.5252217"><ele>353.0</ele><time>2026-04-12T14:12:55.031Z</time></trkpt><trkpt lat="42.8546154" lon="12.5253445"><ele>353.0</ele><time>2026-04-12T14:12:56.033Z</time></trkpt><trkpt lat="42.8547453" lon="12.5254198"><ele>353.0</ele><time>2026-04-12T14:12:57.036Z</time></trkpt><trkpt lat="42.8549076" lon="12.5254655"><ele>353.0</ele><time>2026-04-12T14:12:58.033Z</time></trkpt><trkpt lat="42.855089" lon="12.5255022"><ele>350.0</ele><time>2026-04-12T14:12:59.035Z</time></trkpt><trkpt lat="42.8552761" lon="12.5255421"><ele>347.0</ele><time>2026-04-12T14:13:00.038Z</time></trkpt><trkpt lat="42.8554528" lon="12.5255864"><ele>344.0</ele><time>2026-04-12T14:13:01.031Z</time></trkpt><trkpt lat="42.8556157" lon="12.525633"><ele>344.0</ele><time>2026-04-12T14:13:02.051Z</time></trkpt><trkpt lat="42.8557729" lon="12.5256976"><ele>344.0</ele><time>2026-04-12T14:13:03.03Z</time></trkpt><trkpt lat="42.8559106" lon="12.5257892"><ele>344.0</ele><time>2026-04-12T14:13:04.031Z</time></trkpt><trkpt lat="42.8560192" lon="12.5259277"><ele>344.6666666666667</ele><time>2026-04-12T14:13:05.034Z</time></trkpt><trkpt lat="42.8561" lon="12.5261118"><ele>345.3333333333333</ele><time>2026-04-12T14:13:06.039Z</time></trkpt><trkpt lat="42.8561522" lon="12.5263128"><ele>346.0</ele><time>2026-04-12T14:13:07.035Z</time></trkpt><trkpt lat="42.8561918" lon="12.5265239"><ele>344.3333333333333</ele><time>2026-04-12T14:13:08.036Z</time></trkpt><trkpt lat="42.8562319" lon="12.5267427"><ele>342.6666666666667</ele><time>2026-04-12T14:13:09.034Z</time></trkpt><trkpt lat="42.8562747" lon="12.52695"><ele>341.0</ele><time>2026-04-12T14:13:10.031Z</time></trkpt><trkpt lat="42.8563185" lon="12.5271425"><ele>339.5</ele><time>2026-04-12T14:13:11.036Z</time></trkpt><trkpt lat="42.8563805" lon="12.5273164"><ele>338.0</ele><time>2026-04-12T14:13:12.035Z</time></trkpt><trkpt lat="42.8564825" lon="12.5274588"><ele>336.5</ele><time>2026-04-12T14:13:13.037Z</time></trkpt><trkpt lat="42.8566084" lon="12.5275846"><ele>335.0</ele><time>2026-04-12T14:13:14.036Z</time></trkpt><trkpt lat="42.8567946" lon="12.5276528"><ele>334.33333333333337</ele><time>2026-04-12T14:13:15.039Z</time></trkpt><trkpt lat="42.8569902" lon="12.5277097"><ele>333.6666666666667</ele><time>2026-04-12T14:13:16.034Z</time></trkpt><trkpt lat="42.8571851" lon="12.5277776"><ele>333.0</ele><time>2026-04-12T14:13:17.034Z</time></trkpt><trkpt lat="42.8573767" lon="12.5278518"><ele>329.3333333333333</ele><time>2026-04-12T14:13:18.033Z</time></trkpt><trkpt lat="42.8575722" lon="12.5279348"><ele>325.66666666666663</ele><time>2026-04-12T14:13:19.038Z</time></trkpt><trkpt lat="42.8577747" lon="12.5280187"><ele>322.0</ele><time>2026-04-12T14:13:20.032Z</time></trkpt><trkpt lat="42.8579835" lon="12.5280996"><ele>322.0</ele><time>2026-04-12T14:13:21.041Z</time></trkpt><trkpt lat="42.8581952" lon="12.5281797"><ele>322.0</ele><time>2026-04-12T14:13:22.035Z</time></trkpt><trkpt lat="42.8584022" lon="12.5282572"><ele>322.0</ele><time>2026-04-12T14:13:23.037Z</time></trkpt><trkpt lat="42.8586003" lon="12.5283328"><ele>321.0</ele><time>2026-04-12T14:13:24.035Z</time></trkpt><trkpt lat="42.858797" lon="12.5284106"><ele>320.0</ele><time>2026-04-12T14:13:25.033Z</time></trkpt><trkpt lat="42.8589867" lon="12.5284808"><ele>319.0</ele><time>2026-04-12T14:13:26.039Z</time></trkpt><trkpt lat="42.8591685" lon="12.5285517"><ele>319.0</ele><time>2026-04-12T14:13:27.037Z</time></trkpt><trkpt lat="42.8593391" lon="12.5286227"><ele>319.0</ele><time>2026-04-12T14:13:28.035Z</time></trkpt><trkpt lat="42.8594967" lon="12.52872"><ele>319.0</ele><time>2026-04-12T14:13:29.037Z</time></trkpt><trkpt lat="42.8596186" lon="12.5288626"><ele>317.66666666666663</ele><time>2026-04-12T14:13:30.04Z</time></trkpt><trkpt lat="42.8597072" lon="12.5290328"><ele>316.3333333333333</ele><time>2026-04-12T14:13:31.037Z</time></trkpt><trkpt lat="42.8597593" lon="12.5292326"><ele>315.0</ele><time>2026-04-12T14:13:32.04Z</time></trkpt><trkpt lat="42.8597797" lon="12.5294656"><ele>315.0</ele><time>2026-04-12T14:13:33.044Z</time></trkpt><trkpt lat="42.8597685" lon="12.5297232"><ele>315.0</ele><time>2026-04-12T14:13:34.032Z</time></trkpt><trkpt lat="42.8597292" lon="12.5299993"><ele>315.0</ele><time>2026-04-12T14:13:35.039Z</time></trkpt><trkpt lat="42.8596757" lon="12.5303009"><ele>314.5</ele><time>2026-04-12T14:13:36.039Z</time></trkpt><trkpt lat="42.8596165" lon="12.5306274"><ele>314.0</ele><time>2026-04-12T14:13:37.032Z</time></trkpt><trkpt lat="42.8595548" lon="12.5309719"><ele>313.5</ele><time>2026-04-12T14:13:38.044Z</time></trkpt><trkpt lat="42.8594931" lon="12.5313296"><ele>313.0</ele><time>2026-04-12T14:13:39.035Z</time></trkpt><trkpt lat="42.8594309" lon="12.5316965"><ele>312.5</ele><time>2026-04-12T14:13:40.035Z</time></trkpt><trkpt lat="42.8593686" lon="12.532066"><ele>312.0</ele><time>2026-04-12T14:13:41.033Z</time></trkpt><trkpt lat="42.8593051" lon="12.532433"><ele>311.5</ele><time>2026-04-12T14:13:42.031Z</time></trkpt><trkpt lat="42.8592416" lon="12.5327981"><ele>311.0</ele><time>2026-04-12T14:13:43.035Z</time></trkpt><trkpt lat="42.8591777" lon="12.5331629"><ele>310.5</ele><time>2026-04-12T14:13:44.032Z</time></trkpt><trkpt lat="42.8591168" lon="12.5335145"><ele>310.0</ele><time>2026-04-12T14:13:45.036Z</time></trkpt><trkpt lat="42.8590599" lon="12.5338455"><ele>309.5</ele><time>2026-04-12T14:13:46.034Z</time></trkpt><trkpt lat="42.8590066" lon="12.5341556"><ele>309.0</ele><time>2026-04-12T14:13:47.04Z</time></trkpt><trkpt lat="42.8589552" lon="12.5344488"><ele>309.0</ele><time>2026-04-12T14:13:48.032Z</time></trkpt><trkpt lat="42.8589061" lon="12.5347324"><ele>309.0</ele><time>2026-04-12T14:13:49.032Z</time></trkpt><trkpt lat="42.8588576" lon="12.5350059"><ele>309.0</ele><time>2026-04-12T14:13:50.036Z</time></trkpt><trkpt lat="42.858806" lon="12.5352772"><ele>308.6666666666667</ele><time>2026-04-12T14:13:51.036Z</time></trkpt><trkpt lat="42.8587581" lon="12.5355386"><ele>308.33333333333337</ele><time>2026-04-12T14:13:52.05Z</time></trkpt><trkpt lat="42.8587239" lon="12.5358033"><ele>308.0</ele><time>2026-04-12T14:13:53.03Z</time></trkpt><trkpt lat="42.8587243" lon="12.5360814"><ele>307.6666666666667</ele><time>2026-04-12T14:13:54.031Z</time></trkpt><trkpt lat="42.8587694" lon="12.5363646"><ele>307.3333333333333</ele><time>2026-04-12T14:13:55.029Z</time></trkpt><trkpt lat="42.8588527" lon="12.5366292"><ele>307.0</ele><time>2026-04-12T14:13:56.037Z</time></trkpt><trkpt lat="42.8589416" lon="12.5368662"><ele>308.66666666666663</ele><time>2026-04-12T14:13:57.031Z</time></trkpt><trkpt lat="42.8590459" lon="12.5370835"><ele>310.3333333333333</ele><time>2026-04-12T14:13:58.032Z</time></trkpt><trkpt lat="42.8591425" lon="12.5373049"><ele>312.0</ele><time>2026-04-12T14:13:59.033Z</time></trkpt><trkpt lat="42.859235" lon="12.5375218"><ele>310.0</ele><time>2026-04-12T14:14:00.032Z</time></trkpt><trkpt lat="42.8593238" lon="12.5377306"><ele>308.0</ele><time>2026-04-12T14:14:01.032Z</time></trkpt><trkpt lat="42.8594072" lon="12.5379312"><ele>306.0</ele><time>2026-04-12T14:14:02.036Z</time></trkpt><trkpt lat="42.859488" lon="12.5381217"><ele>306.0</ele><time>2026-04-12T14:14:03.038Z</time></trkpt><trkpt lat="42.8595659" lon="12.5383006"><ele>306.0</ele><time>2026-04-12T14:14:04.06Z</time></trkpt><trkpt lat="42.8596442" lon="12.5384812"><ele>306.0</ele><time>2026-04-12T14:14:05.03Z</time></trkpt><trkpt lat="42.8597241" lon="12.5386691"><ele>306.3333333333333</ele><time>2026-04-12T14:14:06.036Z</time></trkpt><trkpt lat="42.8598052" lon="12.5388619"><ele>306.66666666666663</ele><time>2026-04-12T14:14:07.03Z</time></trkpt><trkpt lat="42.859886" lon="12.5390593"><ele>307.0</ele><time>2026-04-12T14:14:08.028Z</time></trkpt><trkpt lat="42.8599653" lon="12.539263"><ele>307.0</ele><time>2026-04-12T14:14:09.036Z</time></trkpt><trkpt lat="42.8600404" lon="12.5394704"><ele>307.0</ele><time>2026-04-12T14:14:10.037Z</time></trkpt><trkpt lat="42.8601089" lon="12.5396774"><ele>307.0</ele><time>2026-04-12T14:14:11.037Z</time></trkpt><trkpt lat="42.8601737" lon="12.5398867"><ele>306.0</ele><time>2026-04-12T14:14:12.061Z</time></trkpt><trkpt lat="42.8602351" lon="12.5400916"><ele>305.0</ele><time>2026-04-12T14:14:13.031Z</time></trkpt><trkpt lat="42.8602921" lon="12.5402845"><ele>304.0</ele><time>2026-04-12T14:14:14.038Z</time></trkpt><trkpt lat="42.8603456" lon="12.5404664"><ele>304.0</ele><time>2026-04-12T14:14:15.035Z</time></trkpt><trkpt lat="42.8603952" lon="12.540639"><ele>304.0</ele><time>2026-04-12T14:14:16.037Z</time></trkpt><trkpt lat="42.8604434" lon="12.5408073"><ele>304.0</ele><time>2026-04-12T14:14:17.032Z</time></trkpt><trkpt lat="42.8604937" lon="12.5409801"><ele>304.0</ele><time>2026-04-12T14:14:18.04Z</time></trkpt><trkpt lat="42.8605444" lon="12.5411565"><ele>304.0</ele><time>2026-04-12T14:14:19.04Z</time></trkpt><trkpt lat="42.8605961" lon="12.5413344"><ele>304.0</ele><time>2026-04-12T14:14:20.041Z</time></trkpt><trkpt lat="42.8606472" lon="12.5415156"><ele>304.0</ele><time>2026-04-12T14:14:21.036Z</time></trkpt><trkpt lat="42.8606998" lon="12.5416996"><ele>304.0</ele><time>2026-04-12T14:14:22.042Z</time></trkpt><trkpt lat="42.8607559" lon="12.5418853"><ele>303.66666666666663</ele><time>2026-04-12T14:14:23.039Z</time></trkpt><trkpt lat="42.8608174" lon="12.5420704"><ele>303.3333333333333</ele><time>2026-04-12T14:14:24.036Z</time></trkpt><trkpt lat="42.8608795" lon="12.5422546"><ele>303.0</ele><time>2026-04-12T14:14:25.032Z</time></trkpt><trkpt lat="42.8609571" lon="12.5424337"><ele>302.3333333333333</ele><time>2026-04-12T14:14:26.035Z</time></trkpt><trkpt lat="42.8610377" lon="12.5426219"><ele>301.66666666666663</ele><time>2026-04-12T14:14:27.035Z</time></trkpt><trkpt lat="42.8611242" lon="12.5428244"><ele>301.0</ele><time>2026-04-12T14:14:28.04Z</time></trkpt><trkpt lat="42.8612168" lon="12.5430312"><ele>299.66666666666663</ele><time>2026-04-12T14:14:29.034Z</time></trkpt><trkpt lat="42.8613127" lon="12.5432512"><ele>298.3333333333333</ele><time>2026-04-12T14:14:30.032Z</time></trkpt><trkpt lat="42.8614098" lon="12.5434721"><ele>297.0</ele><time>2026-04-12T14:14:31.033Z</time></trkpt><trkpt lat="42.8615069" lon="12.5436913"><ele>296.6666666666667</ele><time>2026-04-12T14:14:32.036Z</time></trkpt><trkpt lat="42.8616035" lon="12.5439098"><ele>296.33333333333337</ele><time>2026-04-12T14:14:33.039Z</time></trkpt><trkpt lat="42.8617012" lon="12.5441293"><ele>296.0</ele><time>2026-04-12T14:14:34.038Z</time></trkpt><trkpt lat="42.8617997" lon="12.54435"><ele>295.6666666666667</ele><time>2026-04-12T14:14:35.038Z</time></trkpt><trkpt lat="42.8619005" lon="12.5445736"><ele>295.3333333333333</ele><time>2026-04-12T14:14:36.04Z</time></trkpt><trkpt lat="42.8620013" lon="12.5447999"><ele>295.0</ele><time>2026-04-12T14:14:37.036Z</time></trkpt><trkpt lat="42.8621051" lon="12.5450323"><ele>295.0</ele><time>2026-04-12T14:14:38.028Z</time></trkpt><trkpt lat="42.8622109" lon="12.5452712"><ele>295.0</ele><time>2026-04-12T14:14:39.032Z</time></trkpt><trkpt lat="42.8623179" lon="12.5455159"><ele>295.0</ele><time>2026-04-12T14:14:40.037Z</time></trkpt><trkpt lat="42.8624292" lon="12.5457701"><ele>294.66666666666663</ele><time>2026-04-12T14:14:41.028Z</time></trkpt><trkpt lat="42.8625393" lon="12.5460248"><ele>294.3333333333333</ele><time>2026-04-12T14:14:42.04Z</time></trkpt><trkpt lat="42.8626471" lon="12.546276"><ele>294.0</ele><time>2026-04-12T14:14:43.034Z</time></trkpt><trkpt lat="42.8627572" lon="12.5465279"><ele>294.0</ele><time>2026-04-12T14:14:44.031Z</time></trkpt><trkpt lat="42.86287" lon="12.5467833"><ele>294.0</ele><time>2026-04-12T14:14:45.037Z</time></trkpt><trkpt lat="42.8629872" lon="12.5470423"><ele>294.0</ele><time>2026-04-12T14:14:46.033Z</time></trkpt><trkpt lat="42.8631027" lon="12.547295"><ele>293.6666666666667</ele><time>2026-04-12T14:14:47.042Z</time></trkpt><trkpt lat="42.863215" lon="12.5475456"><ele>293.33333333333337</ele><time>2026-04-12T14:14:48.032Z</time></trkpt><trkpt lat="42.8633258" lon="12.5477998"><ele>293.0</ele><time>2026-04-12T14:14:49.032Z</time></trkpt><trkpt lat="42.8634355" lon="12.548051"><ele>292.6666666666667</ele><time>2026-04-12T14:14:50.032Z</time></trkpt><trkpt lat="42.8635459" lon="12.548302"><ele>292.3333333333333</ele><time>2026-04-12T14:14:51.032Z</time></trkpt><trkpt lat="42.8636566" lon="12.5485524"><ele>292.0</ele><time>2026-04-12T14:14:52.035Z</time></trkpt><trkpt lat="42.8637674" lon="12.5488048"><ele>292.66666666666663</ele><time>2026-04-12T14:14:53.036Z</time></trkpt><trkpt lat="42.8638798" lon="12.5490606"><ele>293.3333333333333</ele><time>2026-04-12T14:14:54.034Z</time></trkpt><trkpt lat="42.8639921" lon="12.5493226"><ele>294.0</ele><time>2026-04-12T14:14:55.028Z</time></trkpt><trkpt lat="42.8641055" lon="12.5495895"><ele>294.0</ele><time>2026-04-12T14:14:56.029Z</time></trkpt><trkpt lat="42.8642191" lon="12.5498534"><ele>294.0</ele><time>2026-04-12T14:14:57.032Z</time></trkpt><trkpt lat="42.864334" lon="12.5501158"><ele>294.0</ele><time>2026-04-12T14:14:58.032Z</time></trkpt><trkpt lat="42.8644512" lon="12.5503686"><ele>292.5</ele><time>2026-04-12T14:14:59.032Z</time></trkpt><trkpt lat="42.8645912" lon="12.5506161"><ele>291.0</ele><time>2026-04-12T14:15:00.035Z</time></trkpt><trkpt lat="42.8647401" lon="12.5508466"><ele>291.0</ele><time>2026-04-12T14:15:01.041Z</time></trkpt><trkpt lat="42.8649035" lon="12.5510709"><ele>291.0</ele><time>2026-04-12T14:15:02.031Z</time></trkpt><trkpt lat="42.8650718" lon="12.5512898"><ele>289.5</ele><time>2026-04-12T14:15:03.035Z</time></trkpt><trkpt lat="42.8652419" lon="12.5515094"><ele>288.0</ele><time>2026-04-12T14:15:04.038Z</time></trkpt><trkpt lat="42.8654109" lon="12.5517268"><ele>288.0</ele><time>2026-04-12T14:15:05.035Z</time></trkpt><trkpt lat="42.8655796" lon="12.5519422"><ele>288.0</ele><time>2026-04-12T14:15:06.051Z</time></trkpt><trkpt lat="42.8657414" lon="12.5521508"><ele>289.0</ele><time>2026-04-12T14:15:07.025Z</time></trkpt><trkpt lat="42.8658983" lon="12.5523546"><ele>290.0</ele><time>2026-04-12T14:15:08.033Z</time></trkpt><trkpt lat="42.8660479" lon="12.55255"><ele>291.0</ele><time>2026-04-12T14:15:09.033Z</time></trkpt><trkpt lat="42.8661902" lon="12.552736"><ele>289.6666666666667</ele><time>2026-04-12T14:15:10.033Z</time></trkpt><trkpt lat="42.8663265" lon="12.5529132"><ele>288.33333333333337</ele><time>2026-04-12T14:15:11.059Z</time></trkpt><trkpt lat="42.8664631" lon="12.553091"><ele>287.0</ele><time>2026-04-12T14:15:12.035Z</time></trkpt><trkpt lat="42.8666001" lon="12.5532719"><ele>287.0</ele><time>2026-04-12T14:15:13.032Z</time></trkpt><trkpt lat="42.8667382" lon="12.5534579"><ele>287.0</ele><time>2026-04-12T14:15:14.028Z</time></trkpt><trkpt lat="42.8668773" lon="12.553645"><ele>287.0</ele><time>2026-04-12T14:15:15.033Z</time></trkpt><trkpt lat="42.8670153" lon="12.5538283"><ele>287.33333333333337</ele><time>2026-04-12T14:15:16.033Z</time></trkpt><trkpt lat="42.867151" lon="12.5540029"><ele>287.6666666666667</ele><time>2026-04-12T14:15:17.033Z</time></trkpt><trkpt lat="42.8672808" lon="12.5541673"><ele>288.0</ele><time>2026-04-12T14:15:18.036Z</time></trkpt><trkpt lat="42.8674079" lon="12.5543219"><ele>288.0</ele><time>2026-04-12T14:15:19.034Z</time></trkpt><trkpt lat="42.8675418" lon="12.5544674"><ele>288.0</ele><time>2026-04-12T14:15:20.04Z</time></trkpt><trkpt lat="42.8676907" lon="12.5545936"><ele>288.0</ele><time>2026-04-12T14:15:21.038Z</time></trkpt><trkpt lat="42.8678581" lon="12.5546894"><ele>290.0</ele><time>2026-04-12T14:15:22.042Z</time></trkpt><trkpt lat="42.868039" lon="12.5547576"><ele>292.0</ele><time>2026-04-12T14:15:23.035Z</time></trkpt><trkpt lat="42.8682271" lon="12.5548045"><ele>294.0</ele><time>2026-04-12T14:15:24.035Z</time></trkpt><trkpt lat="42.8684113" lon="12.5548376"><ele>293.3333333333333</ele><time>2026-04-12T14:15:25.034Z</time></trkpt><trkpt lat="42.8685856" lon="12.5548678"><ele>292.66666666666663</ele><time>2026-04-12T14:15:26.03Z</time></trkpt><trkpt lat="42.8687499" lon="12.5548993"><ele>292.0</ele><time>2026-04-12T14:15:27.031Z</time></trkpt><trkpt lat="42.8689088" lon="12.5549442"><ele>292.0</ele><time>2026-04-12T14:15:28.033Z</time></trkpt><trkpt lat="42.8690591" lon="12.5550216"><ele>292.0</ele><time>2026-04-12T14:15:29.031Z</time></trkpt><trkpt lat="42.8691986" lon="12.5551301"><ele>292.0</ele><time>2026-04-12T14:15:30.04Z</time></trkpt><trkpt lat="42.8693172" lon="12.5552593"><ele>290.75</ele><time>2026-04-12T14:15:31.032Z</time></trkpt><trkpt lat="42.869417" lon="12.5553994"><ele>289.5</ele><time>2026-04-12T14:15:32.037Z</time></trkpt><trkpt lat="42.8695024" lon="12.5555416"><ele>288.25</ele><time>2026-04-12T14:15:33.028Z</time></trkpt><trkpt lat="42.8695831" lon="12.5556887"><ele>287.0</ele><time>2026-04-12T14:15:34.027Z</time></trkpt><trkpt lat="42.8696641" lon="12.5558421"><ele>287.0</ele><time>2026-04-12T14:15:35.03Z</time></trkpt><trkpt lat="42.8697378" lon="12.5559889"><ele>287.0</ele><time>2026-04-12T14:15:36.037Z</time></trkpt><trkpt lat="42.8698041" lon="12.5561275"><ele>287.0</ele><time>2026-04-12T14:15:37.031Z</time></trkpt><trkpt lat="42.869862" lon="12.5562566"><ele>287.0</ele><time>2026-04-12T14:15:38.042Z</time></trkpt><trkpt lat="42.8699131" lon="12.5563768"><ele>287.83333333333337</ele><time>2026-04-12T14:15:39.038Z</time></trkpt><trkpt lat="42.8699577" lon="12.5564889"><ele>288.6666666666667</ele><time>2026-04-12T14:15:40.035Z</time></trkpt><trkpt lat="42.8699917" lon="12.5565982"><ele>289.5</ele><time>2026-04-12T14:15:41.029Z</time></trkpt><trkpt lat="42.8700083" lon="12.5567118"><ele>290.3333333333333</ele><time>2026-04-12T14:15:42.032Z</time></trkpt><trkpt lat="42.8700053" lon="12.556816"><ele>291.16666666666663</ele><time>2026-04-12T14:15:43.037Z</time></trkpt><trkpt lat="42.8700099" lon="12.5569173"><ele>292.0</ele><time>2026-04-12T14:15:44.032Z</time></trkpt><trkpt lat="42.8700289" lon="12.5570019"><ele>292.4</ele><time>2026-04-12T14:15:45.038Z</time></trkpt><trkpt lat="42.8700854" lon="12.5570669"><ele>292.79999999999995</ele><time>2026-04-12T14:15:46.034Z</time></trkpt><trkpt lat="42.8701442" lon="12.557146"><ele>293.2</ele><time>2026-04-12T14:15:47.036Z</time></trkpt><trkpt lat="42.870182" lon="12.5572779"><ele>293.59999999999997</ele><time>2026-04-12T14:15:48.033Z</time></trkpt><trkpt lat="42.8701987" lon="12.5574592"><ele>294.0</ele><time>2026-04-12T14:15:49.033Z</time></trkpt><trkpt lat="42.8701901" lon="12.5576458"><ele>293.0</ele><time>2026-04-12T14:15:50.039Z</time></trkpt><trkpt lat="42.8701795" lon="12.5578217"><ele>292.0</ele><time>2026-04-12T14:15:51.034Z</time></trkpt><trkpt lat="42.8701748" lon="12.5580054"><ele>291.0</ele><time>2026-04-12T14:15:52.032Z</time></trkpt><trkpt lat="42.8701783" lon="12.5581905"><ele>290.0</ele><time>2026-04-12T14:15:53.032Z</time></trkpt><trkpt lat="42.8701966" lon="12.5583776"><ele>290.0</ele><time>2026-04-12T14:15:54.033Z</time></trkpt><trkpt lat="42.8702381" lon="12.5585669"><ele>290.0</ele><time>2026-04-12T14:15:55.037Z</time></trkpt><trkpt lat="42.8703013" lon="12.5587472"><ele>290.0</ele><time>2026-04-12T14:15:56.035Z</time></trkpt><trkpt lat="42.870371" lon="12.5589137"><ele>290.0</ele><time>2026-04-12T14:15:57.055Z</time></trkpt><trkpt lat="42.8704408" lon="12.5590714"><ele>289.5</ele><time>2026-04-12T14:15:58.033Z</time></trkpt><trkpt lat="42.8705096" lon="12.559222"><ele>289.0</ele><time>2026-04-12T14:15:59.033Z</time></trkpt><trkpt lat="42.8705797" lon="12.5593711"><ele>288.5</ele><time>2026-04-12T14:16:00.036Z</time></trkpt><trkpt lat="42.8706555" lon="12.5595176"><ele>288.0</ele><time>2026-04-12T14:16:01.032Z</time></trkpt><trkpt lat="42.8707371" lon="12.5596597"><ele>288.0</ele><time>2026-04-12T14:16:02.036Z</time></trkpt><trkpt lat="42.8708241" lon="12.5597882"><ele>288.0</ele><time>2026-04-12T14:16:03.035Z</time></trkpt><trkpt lat="42.8709169" lon="12.5598997"><ele>288.0</ele><time>2026-04-12T14:16:04.047Z</time></trkpt><trkpt lat="42.8710102" lon="12.5599963"><ele>288.0</ele><time>2026-04-12T14:16:05.032Z</time></trkpt><trkpt lat="42.8710956" lon="12.5600803"><ele>288.0</ele><time>2026-04-12T14:16:06.04Z</time></trkpt><trkpt lat="42.8711711" lon="12.5601512"><ele>288.0</ele><time>2026-04-12T14:16:07.034Z</time></trkpt><trkpt lat="42.8712339" lon="12.5602126"><ele>288.0</ele><time>2026-04-12T14:16:08.043Z</time></trkpt><trkpt lat="42.871285" lon="12.5602663"><ele>288.0</ele><time>2026-04-12T14:16:09.036Z</time></trkpt><trkpt lat="42.87136" lon="12.5603562"><ele>288.0</ele><time>2026-04-12T14:16:11.031Z</time></trkpt><trkpt lat="42.8714331" lon="12.5604257"><ele>288.0</ele><time>2026-04-12T14:16:13.034Z</time></trkpt><trkpt lat="42.8714914" lon="12.560465"><ele>288.3333333333333</ele><time>2026-04-12T14:16:14.04Z</time></trkpt><trkpt lat="42.871555" lon="12.5605113"><ele>288.6666666666667</ele><time>2026-04-12T14:16:15.044Z</time></trkpt><trkpt lat="42.8716167" lon="12.5605608"><ele>289.0</ele><time>2026-04-12T14:16:16.035Z</time></trkpt><trkpt lat="42.8716803" lon="12.5606178"><ele>289.33333333333337</ele><time>2026-04-12T14:16:17.032Z</time></trkpt><trkpt lat="42.8717491" lon="12.5606849"><ele>289.6666666666667</ele><time>2026-04-12T14:16:18.039Z</time></trkpt><trkpt lat="42.8718233" lon="12.5607588"><ele>290.0</ele><time>2026-04-12T14:16:19.04Z</time></trkpt><trkpt lat="42.8719058" lon="12.5608401"><ele>290.0</ele><time>2026-04-12T14:16:20.041Z</time></trkpt><trkpt lat="42.8719971" lon="12.5609263"><ele>290.0</ele><time>2026-04-12T14:16:21.037Z</time></trkpt><trkpt lat="42.8721033" lon="12.5610225"><ele>290.0</ele><time>2026-04-12T14:16:22.036Z</time></trkpt><trkpt lat="42.872214" lon="12.5611229"><ele>290.0</ele><time>2026-04-12T14:16:23.036Z</time></trkpt><trkpt lat="42.8723254" lon="12.5612271"><ele>290.75</ele><time>2026-04-12T14:16:24.035Z</time></trkpt><trkpt lat="42.8724402" lon="12.5613338"><ele>291.5</ele><time>2026-04-12T14:16:25.033Z</time></trkpt><trkpt lat="42.8725545" lon="12.5614477"><ele>292.25</ele><time>2026-04-12T14:16:26.035Z</time></trkpt><trkpt lat="42.8726675" lon="12.5615822"><ele>293.0</ele><time>2026-04-12T14:16:27.037Z</time></trkpt><trkpt lat="42.8727922" lon="12.5617091"><ele>292.0</ele><time>2026-04-12T14:16:28.034Z</time></trkpt><trkpt lat="42.8729151" lon="12.5618417"><ele>291.0</ele><time>2026-04-12T14:16:29.065Z</time></trkpt><trkpt lat="42.873028" lon="12.5619958"><ele>290.0</ele><time>2026-04-12T14:16:30.038Z</time></trkpt><trkpt lat="42.8731175" lon="12.5621707"><ele>290.0</ele><time>2026-04-12T14:16:31.04Z</time></trkpt><trkpt lat="42.873175" lon="12.5623547"><ele>290.0</ele><time>2026-04-12T14:16:32.035Z</time></trkpt><trkpt lat="42.8731928" lon="12.56254"><ele>290.0</ele><time>2026-04-12T14:16:33.034Z</time></trkpt><trkpt lat="42.8731647" lon="12.5627004"><ele>290.0</ele><time>2026-04-12T14:16:34.035Z</time></trkpt><trkpt lat="42.8730955" lon="12.5628456"><ele>288.6666666666667</ele><time>2026-04-12T14:16:35.033Z</time></trkpt><trkpt lat="42.8729905" lon="12.5629783"><ele>287.3333333333333</ele><time>2026-04-12T14:16:36.038Z</time></trkpt><trkpt lat="42.8728635" lon="12.5631029"><ele>286.0</ele><time>2026-04-12T14:16:37.034Z</time></trkpt><trkpt lat="42.872723" lon="12.5632244"><ele>288.3333333333333</ele><time>2026-04-12T14:16:38.039Z</time></trkpt><trkpt lat="42.8725709" lon="12.5633446"><ele>290.6666666666667</ele><time>2026-04-12T14:16:39.036Z</time></trkpt><trkpt lat="42.8724075" lon="12.563469"><ele>293.0</ele><time>2026-04-12T14:16:40.033Z</time></trkpt><trkpt lat="42.8722339" lon="12.5635982"><ele>293.0</ele><time>2026-04-12T14:16:41.038Z</time></trkpt><trkpt lat="42.8720497" lon="12.5637343"><ele>293.0</ele><time>2026-04-12T14:16:42.036Z</time></trkpt><trkpt lat="42.8718586" lon="12.5638757"><ele>293.0</ele><time>2026-04-12T14:16:43.033Z</time></trkpt><trkpt lat="42.8716606" lon="12.5640206"><ele>293.0</ele><time>2026-04-12T14:16:44.056Z</time></trkpt><trkpt lat="42.8714585" lon="12.5641693"><ele>293.0</ele><time>2026-04-12T14:16:45.037Z</time></trkpt><trkpt lat="42.8712536" lon="12.564322"><ele>293.0</ele><time>2026-04-12T14:16:46.039Z</time></trkpt><trkpt lat="42.8710459" lon="12.5644758"><ele>293.0</ele><time>2026-04-12T14:16:47.036Z</time></trkpt><trkpt lat="42.8708332" lon="12.5646298"><ele>290.5</ele><time>2026-04-12T14:16:48.038Z</time></trkpt><trkpt lat="42.8706142" lon="12.564781"><ele>288.0</ele><time>2026-04-12T14:16:49.039Z</time></trkpt><trkpt lat="42.8703973" lon="12.5649351"><ele>288.0</ele><time>2026-04-12T14:16:50.031Z</time></trkpt><trkpt lat="42.8701871" lon="12.5650966"><ele>288.0</ele><time>2026-04-12T14:16:51.054Z</time></trkpt><trkpt lat="42.869994" lon="12.5652583"><ele>288.6666666666667</ele><time>2026-04-12T14:16:52.043Z</time></trkpt><trkpt lat="42.8698158" lon="12.5654263"><ele>289.33333333333337</ele><time>2026-04-12T14:16:53.034Z</time></trkpt><trkpt lat="42.8696503" lon="12.5656041"><ele>290.0</ele><time>2026-04-12T14:16:54.036Z</time></trkpt><trkpt lat="42.8694929" lon="12.565784"><ele>290.0</ele><time>2026-04-12T14:16:55.037Z</time></trkpt><trkpt lat="42.869372" lon="12.5660075"><ele>290.0</ele><time>2026-04-12T14:16:56.036Z</time></trkpt><trkpt lat="42.8692769" lon="12.5662666"><ele>290.0</ele><time>2026-04-12T14:16:57.035Z</time></trkpt><trkpt lat="42.8691911" lon="12.5665487"><ele>290.0</ele><time>2026-04-12T14:16:58.042Z</time></trkpt><trkpt lat="42.8691071" lon="12.5668287"><ele>290.0</ele><time>2026-04-12T14:16:59.038Z</time></trkpt><trkpt lat="42.8690246" lon="12.5671084"><ele>290.0</ele><time>2026-04-12T14:17:00.03Z</time></trkpt><trkpt lat="42.8689405" lon="12.5673847"><ele>290.0</ele><time>2026-04-12T14:17:01.036Z</time></trkpt><trkpt lat="42.868857" lon="12.5676607"><ele>290.0</ele><time>2026-04-12T14:17:02.039Z</time></trkpt><trkpt lat="42.8687716" lon="12.5679395"><ele>290.0</ele><time>2026-04-12T14:17:03.033Z</time></trkpt><trkpt lat="42.8686878" lon="12.5682099"><ele>290.0</ele><time>2026-04-12T14:17:04.033Z</time></trkpt><trkpt lat="42.8686024" lon="12.5684801"><ele>290.0</ele><time>2026-04-12T14:17:05.031Z</time></trkpt><trkpt lat="42.8685153" lon="12.5687475"><ele>290.0</ele><time>2026-04-12T14:17:06.036Z</time></trkpt><trkpt lat="42.8684319" lon="12.5690165"><ele>291.0</ele><time>2026-04-12T14:17:07.038Z</time></trkpt><trkpt lat="42.8683466" lon="12.5692892"><ele>292.0</ele><time>2026-04-12T14:17:08.034Z</time></trkpt><trkpt lat="42.8682617" lon="12.5695615"><ele>293.0</ele><time>2026-04-12T14:17:09.035Z</time></trkpt><trkpt lat="42.8681757" lon="12.569835"><ele>293.0</ele><time>2026-04-12T14:17:10.039Z</time></trkpt><trkpt lat="42.8680864" lon="12.5701098"><ele>293.0</ele><time>2026-04-12T14:17:11.04Z</time></trkpt><trkpt lat="42.868004" lon="12.5703852"><ele>293.0</ele><time>2026-04-12T14:17:12.033Z</time></trkpt><trkpt lat="42.8679439" lon="12.5706562"><ele>292.33333333333337</ele><time>2026-04-12T14:17:13.038Z</time></trkpt><trkpt lat="42.8679176" lon="12.5709226"><ele>291.6666666666667</ele><time>2026-04-12T14:17:14.038Z</time></trkpt><trkpt lat="42.8679219" lon="12.5711755"><ele>291.0</ele><time>2026-04-12T14:17:15.034Z</time></trkpt><trkpt lat="42.8679481" lon="12.5714095"><ele>290.75</ele><time>2026-04-12T14:17:16.032Z</time></trkpt><trkpt lat="42.8679867" lon="12.5716219"><ele>290.5</ele><time>2026-04-12T14:17:17.035Z</time></trkpt><trkpt lat="42.8680187" lon="12.5717951"><ele>290.25</ele><time>2026-04-12T14:17:18.031Z</time></trkpt><trkpt lat="42.8680385" lon="12.5719396"><ele>290.0</ele><time>2026-04-12T14:17:19.032Z</time></trkpt><trkpt lat="42.8680358" lon="12.5720817"><ele>290.5</ele><time>2026-04-12T14:17:20.04Z</time></trkpt><trkpt lat="42.8680267" lon="12.5722288"><ele>291.0</ele><time>2026-04-12T14:17:21.033Z</time></trkpt><trkpt lat="42.8680381" lon="12.5723929"><ele>291.5</ele><time>2026-04-12T14:17:22.05Z</time></trkpt><trkpt lat="42.8680563" lon="12.5725782"><ele>292.0</ele><time>2026-04-12T14:17:23.033Z</time></trkpt><trkpt lat="42.8680455" lon="12.5727848"><ele>293.0</ele><time>2026-04-12T14:17:24.038Z</time></trkpt><trkpt lat="42.8680063" lon="12.5730083"><ele>294.0</ele><time>2026-04-12T14:17:25.036Z</time></trkpt><trkpt lat="42.8679556" lon="12.5732475"><ele>295.0</ele><time>2026-04-12T14:17:26.033Z</time></trkpt><trkpt lat="42.8679005" lon="12.5735051"><ele>295.66666666666663</ele><time>2026-04-12T14:17:27.035Z</time></trkpt><trkpt lat="42.8678444" lon="12.5737704"><ele>296.3333333333333</ele><time>2026-04-12T14:17:28.034Z</time></trkpt><trkpt lat="42.8677858" lon="12.5740407"><ele>297.0</ele><time>2026-04-12T14:17:29.034Z</time></trkpt><trkpt lat="42.8677253" lon="12.5743116"><ele>296.3333333333333</ele><time>2026-04-12T14:17:30.034Z</time></trkpt><trkpt lat="42.8676652" lon="12.5745799"><ele>295.66666666666663</ele><time>2026-04-12T14:17:31.046Z</time></trkpt><trkpt lat="42.8676051" lon="12.5748465"><ele>295.0</ele><time>2026-04-12T14:17:32.036Z</time></trkpt><trkpt lat="42.8675472" lon="12.5751094"><ele>296.0</ele><time>2026-04-12T14:17:33.032Z</time></trkpt><trkpt lat="42.8674921" lon="12.5753694"><ele>297.0</ele><time>2026-04-12T14:17:34.035Z</time></trkpt><trkpt lat="42.8674363" lon="12.5756287"><ele>298.0</ele><time>2026-04-12T14:17:35.035Z</time></trkpt><trkpt lat="42.8673787" lon="12.5758896"><ele>298.0</ele><time>2026-04-12T14:17:36.032Z</time></trkpt><trkpt lat="42.8673214" lon="12.5761528"><ele>298.0</ele><time>2026-04-12T14:17:37.038Z</time></trkpt><trkpt lat="42.8672648" lon="12.5764164"><ele>298.0</ele><time>2026-04-12T14:17:38.032Z</time></trkpt><trkpt lat="42.8672114" lon="12.5766828"><ele>298.66666666666663</ele><time>2026-04-12T14:17:39.038Z</time></trkpt><trkpt lat="42.8671696" lon="12.5769526"><ele>299.3333333333333</ele><time>2026-04-12T14:17:40.032Z</time></trkpt><trkpt lat="42.8671422" lon="12.5772265"><ele>300.0</ele><time>2026-04-12T14:17:41.033Z</time></trkpt><trkpt lat="42.8671311" lon="12.5775038"><ele>300.3333333333333</ele><time>2026-04-12T14:17:42.032Z</time></trkpt><trkpt lat="42.8671333" lon="12.577783"><ele>300.66666666666663</ele><time>2026-04-12T14:17:43.034Z</time></trkpt><trkpt lat="42.8671432" lon="12.5780628"><ele>301.0</ele><time>2026-04-12T14:17:44.032Z</time></trkpt><trkpt lat="42.8671557" lon="12.5783383"><ele>300.66666666666663</ele><time>2026-04-12T14:17:45.031Z</time></trkpt><trkpt lat="42.8671692" lon="12.5786139"><ele>300.3333333333333</ele><time>2026-04-12T14:17:46.037Z</time></trkpt><trkpt lat="42.8671824" lon="12.5788929"><ele>300.0</ele><time>2026-04-12T14:17:47.032Z</time></trkpt><trkpt lat="42.867197" lon="12.5791762"><ele>300.0</ele><time>2026-04-12T14:17:48.032Z</time></trkpt><trkpt lat="42.8672132" lon="12.5794626"><ele>300.0</ele><time>2026-04-12T14:17:49.037Z</time></trkpt><trkpt lat="42.8672314" lon="12.5797519"><ele>300.0</ele><time>2026-04-12T14:17:50.031Z</time></trkpt><trkpt lat="42.8672522" lon="12.5800441"><ele>301.3333333333333</ele><time>2026-04-12T14:17:51.034Z</time></trkpt><trkpt lat="42.8672752" lon="12.5803393"><ele>302.66666666666663</ele><time>2026-04-12T14:17:52.029Z</time></trkpt><trkpt lat="42.8673004" lon="12.5806375"><ele>304.0</ele><time>2026-04-12T14:17:53.032Z</time></trkpt><trkpt lat="42.8673257" lon="12.5809372"><ele>304.66666666666663</ele><time>2026-04-12T14:17:54.032Z</time></trkpt><trkpt lat="42.8673514" lon="12.5812392"><ele>305.3333333333333</ele><time>2026-04-12T14:17:55.03Z</time></trkpt><trkpt lat="42.8673773" lon="12.5815288"><ele>306.0</ele><time>2026-04-12T14:17:56.033Z</time></trkpt><trkpt lat="42.8674031" lon="12.5818289"><ele>306.5</ele><time>2026-04-12T14:17:57.037Z</time></trkpt><trkpt lat="42.8674269" lon="12.5821371"><ele>307.0</ele><time>2026-04-12T14:17:58.039Z</time></trkpt><trkpt lat="42.8674447" lon="12.5824514"><ele>307.0</ele><time>2026-04-12T14:17:59.041Z</time></trkpt><trkpt lat="42.8674575" lon="12.5827635"><ele>307.0</ele><time>2026-04-12T14:18:00.038Z</time></trkpt><trkpt lat="42.8674525" lon="12.5830793"><ele>307.5</ele><time>2026-04-12T14:18:01.04Z</time></trkpt><trkpt lat="42.8674157" lon="12.5833904"><ele>308.0</ele><time>2026-04-12T14:18:02.034Z</time></trkpt><trkpt lat="42.8673595" lon="12.5837019"><ele>309.5</ele><time>2026-04-12T14:18:03.032Z</time></trkpt><trkpt lat="42.8672901" lon="12.5840151"><ele>311.0</ele><time>2026-04-12T14:18:04.035Z</time></trkpt><trkpt lat="42.8672148" lon="12.5843317"><ele>313.5</ele><time>2026-04-12T14:18:05.035Z</time></trkpt><trkpt lat="42.8671393" lon="12.5846518"><ele>316.0</ele><time>2026-04-12T14:18:06.032Z</time></trkpt><trkpt lat="42.8670667" lon="12.5849758"><ele>316.0</ele><time>2026-04-12T14:18:07.046Z</time></trkpt><trkpt lat="42.8669948" lon="12.5853015"><ele>316.0</ele><time>2026-04-12T14:18:08.039Z</time></trkpt><trkpt lat="42.8669208" lon="12.585629"><ele>317.0</ele><time>2026-04-12T14:18:09.039Z</time></trkpt><trkpt lat="42.8668482" lon="12.5859545"><ele>318.0</ele><time>2026-04-12T14:18:10.036Z</time></trkpt><trkpt lat="42.8667759" lon="12.5862767"><ele>318.0</ele><time>2026-04-12T14:18:11.035Z</time></trkpt><trkpt lat="42.8667043" lon="12.5865963"><ele>318.0</ele><time>2026-04-12T14:18:12.036Z</time></trkpt><trkpt lat="42.8666314" lon="12.5869161"><ele>319.0</ele><time>2026-04-12T14:18:13.039Z</time></trkpt><trkpt lat="42.8665586" lon="12.5872381"><ele>320.0</ele><time>2026-04-12T14:18:14.036Z</time></trkpt><trkpt lat="42.8664854" lon="12.587562"><ele>320.0</ele><time>2026-04-12T14:18:15.038Z</time></trkpt><trkpt lat="42.8664109" lon="12.5878759"><ele>320.0</ele><time>2026-04-12T14:18:16.037Z</time></trkpt><trkpt lat="42.8663334" lon="12.5881786"><ele>320.0</ele><time>2026-04-12T14:18:17.041Z</time></trkpt><trkpt lat="42.8662491" lon="12.5884781"><ele>320.0</ele><time>2026-04-12T14:18:18.036Z</time></trkpt><trkpt lat="42.866158" lon="12.5887742"><ele>320.0</ele><time>2026-04-12T14:18:19.037Z</time></trkpt><trkpt lat="42.8660629" lon="12.5890655"><ele>320.0</ele><time>2026-04-12T14:18:20.038Z</time></trkpt><trkpt lat="42.8659659" lon="12.5893534"><ele>322.0</ele><time>2026-04-12T14:18:21.037Z</time></trkpt><trkpt lat="42.8658698" lon="12.5896384"><ele>324.0</ele><time>2026-04-12T14:18:22.035Z</time></trkpt><trkpt lat="42.8657736" lon="12.5899197"><ele>324.0</ele><time>2026-04-12T14:18:23.037Z</time></trkpt><trkpt lat="42.8656771" lon="12.5901982"><ele>324.0</ele><time>2026-04-12T14:18:24.036Z</time></trkpt><trkpt lat="42.8655795" lon="12.5904791"><ele>323.5</ele><time>2026-04-12T14:18:25.035Z</time></trkpt><trkpt lat="42.8654812" lon="12.5907648"><ele>323.0</ele><time>2026-04-12T14:18:26.043Z</time></trkpt><trkpt lat="42.8653813" lon="12.591055"><ele>322.5</ele><time>2026-04-12T14:18:27.033Z</time></trkpt><trkpt lat="42.8652794" lon="12.5913479"><ele>322.0</ele><time>2026-04-12T14:18:28.036Z</time></trkpt><trkpt lat="42.865176" lon="12.5916422"><ele>324.0</ele><time>2026-04-12T14:18:29.034Z</time></trkpt><trkpt lat="42.8650723" lon="12.5919387"><ele>326.0</ele><time>2026-04-12T14:18:30.036Z</time></trkpt><trkpt lat="42.864969" lon="12.5922367"><ele>326.5</ele><time>2026-04-12T14:18:31.035Z</time></trkpt><trkpt lat="42.8648682" lon="12.5925341"><ele>327.0</ele><time>2026-04-12T14:18:32.034Z</time></trkpt><trkpt lat="42.8647692" lon="12.5928293"><ele>327.0</ele><time>2026-04-12T14:18:33.038Z</time></trkpt><trkpt lat="42.8646702" lon="12.5931216"><ele>327.0</ele><time>2026-04-12T14:18:34.037Z</time></trkpt><trkpt lat="42.8645707" lon="12.5934147"><ele>327.0</ele><time>2026-04-12T14:18:35.037Z</time></trkpt><trkpt lat="42.864468" lon="12.5937122"><ele>327.0</ele><time>2026-04-12T14:18:36.055Z</time></trkpt><trkpt lat="42.8643648" lon="12.5940137"><ele>328.5</ele><time>2026-04-12T14:18:37.031Z</time></trkpt><trkpt lat="42.8642651" lon="12.5943097"><ele>330.0</ele><time>2026-04-12T14:18:38.039Z</time></trkpt><trkpt lat="42.8641679" lon="12.5945947"><ele>330.0</ele><time>2026-04-12T14:18:39.03Z</time></trkpt><trkpt lat="42.864071" lon="12.5948689"><ele>330.0</ele><time>2026-04-12T14:18:40.04Z</time></trkpt><trkpt lat="42.8639668" lon="12.5951336"><ele>330.0</ele><time>2026-04-12T14:18:41.04Z</time></trkpt><trkpt lat="42.8638371" lon="12.5953884"><ele>329.0</ele><time>2026-04-12T14:18:42.033Z</time></trkpt><trkpt lat="42.8636758" lon="12.5956252"><ele>328.0</ele><time>2026-04-12T14:18:43.052Z</time></trkpt><trkpt lat="42.8634955" lon="12.59584"><ele>327.66666666666663</ele><time>2026-04-12T14:18:44.037Z</time></trkpt><trkpt lat="42.8633175" lon="12.5960351"><ele>327.3333333333333</ele><time>2026-04-12T14:18:45.036Z</time></trkpt><trkpt lat="42.8631468" lon="12.5962241"><ele>327.0</ele><time>2026-04-12T14:18:46.036Z</time></trkpt><trkpt lat="42.8629779" lon="12.5964183"><ele>327.0</ele><time>2026-04-12T14:18:47.043Z</time></trkpt><trkpt lat="42.8628095" lon="12.596621"><ele>327.0</ele><time>2026-04-12T14:18:48.036Z</time></trkpt><trkpt lat="42.8626486" lon="12.5968376"><ele>327.0</ele><time>2026-04-12T14:18:49.044Z</time></trkpt><trkpt lat="42.8624959" lon="12.5970675"><ele>327.0</ele><time>2026-04-12T14:18:50.038Z</time></trkpt><trkpt lat="42.862348" lon="12.5973054"><ele>327.0</ele><time>2026-04-12T14:18:51.035Z</time></trkpt><trkpt lat="42.8622017" lon="12.5975438"><ele>327.0</ele><time>2026-04-12T14:18:52.037Z</time></trkpt><trkpt lat="42.8620574" lon="12.5977781"><ele>328.0</ele><time>2026-04-12T14:18:53.034Z</time></trkpt><trkpt lat="42.8619157" lon="12.5980084"><ele>329.0</ele><time>2026-04-12T14:18:54.032Z</time></trkpt><trkpt lat="42.8617772" lon="12.5982333"><ele>330.0</ele><time>2026-04-12T14:18:55.064Z</time></trkpt><trkpt lat="42.861642" lon="12.5984542"><ele>331.3333333333333</ele><time>2026-04-12T14:18:56.037Z</time></trkpt><trkpt lat="42.8615096" lon="12.5986733"><ele>332.66666666666663</ele><time>2026-04-12T14:18:57.036Z</time></trkpt><trkpt lat="42.8613786" lon="12.5988905"><ele>334.0</ele><time>2026-04-12T14:18:58.037Z</time></trkpt><trkpt lat="42.8612474" lon="12.5991047"><ele>334.0</ele><time>2026-04-12T14:18:59.037Z</time></trkpt><trkpt lat="42.8611147" lon="12.5993181"><ele>334.0</ele><time>2026-04-12T14:19:00.04Z</time></trkpt><trkpt lat="42.8609816" lon="12.5995337"><ele>334.0</ele><time>2026-04-12T14:19:01.035Z</time></trkpt><trkpt lat="42.8608487" lon="12.5997528"><ele>334.0</ele><time>2026-04-12T14:19:02.064Z</time></trkpt><trkpt lat="42.8607148" lon="12.5999742"><ele>334.0</ele><time>2026-04-12T14:19:03.038Z</time></trkpt><trkpt lat="42.8605788" lon="12.6001974"><ele>334.0</ele><time>2026-04-12T14:19:04.035Z</time></trkpt><trkpt lat="42.8604412" lon="12.6004217"><ele>334.0</ele><time>2026-04-12T14:19:05.042Z</time></trkpt><trkpt lat="42.8603034" lon="12.6006467"><ele>334.0</ele><time>2026-04-12T14:19:06.038Z</time></trkpt><trkpt lat="42.8601657" lon="12.6008722"><ele>334.0</ele><time>2026-04-12T14:19:07.04Z</time></trkpt><trkpt lat="42.8600291" lon="12.6010983"><ele>334.66666666666663</ele><time>2026-04-12T14:19:08.034Z</time></trkpt><trkpt lat="42.8598932" lon="12.6013238"><ele>335.3333333333333</ele><time>2026-04-12T14:19:09.034Z</time></trkpt><trkpt lat="42.8597566" lon="12.6015466"><ele>336.0</ele><time>2026-04-12T14:19:10.034Z</time></trkpt><trkpt lat="42.8596194" lon="12.6017671"><ele>336.0</ele><time>2026-04-12T14:19:11.04Z</time></trkpt><trkpt lat="42.8594825" lon="12.6019883"><ele>336.0</ele><time>2026-04-12T14:19:12.031Z</time></trkpt><trkpt lat="42.8593456" lon="12.6022097"><ele>336.0</ele><time>2026-04-12T14:19:13.037Z</time></trkpt><trkpt lat="42.859209" lon="12.6024333"><ele>336.0</ele><time>2026-04-12T14:19:14.037Z</time></trkpt><trkpt lat="42.8590716" lon="12.6026591"><ele>336.0</ele><time>2026-04-12T14:19:15.035Z</time></trkpt><trkpt lat="42.8589324" lon="12.6028868"><ele>336.0</ele><time>2026-04-12T14:19:16.061Z</time></trkpt><trkpt lat="42.8587926" lon="12.6031169"><ele>335.6666666666667</ele><time>2026-04-12T14:19:17.031Z</time></trkpt><trkpt lat="42.8586533" lon="12.603347"><ele>335.33333333333337</ele><time>2026-04-12T14:19:18.036Z</time></trkpt><trkpt lat="42.8585135" lon="12.6035758"><ele>335.0</ele><time>2026-04-12T14:19:19.038Z</time></trkpt><trkpt lat="42.8583735" lon="12.6037993"><ele>336.0</ele><time>2026-04-12T14:19:20.038Z</time></trkpt><trkpt lat="42.8582274" lon="12.6040101"><ele>337.0</ele><time>2026-04-12T14:19:21.049Z</time></trkpt><trkpt lat="42.8580672" lon="12.6041976"><ele>338.0</ele><time>2026-04-12T14:19:22.037Z</time></trkpt><trkpt lat="42.8578933" lon="12.6043614"><ele>337.6666666666667</ele><time>2026-04-12T14:19:23.041Z</time></trkpt><trkpt lat="42.8577081" lon="12.6044998"><ele>337.3333333333333</ele><time>2026-04-12T14:19:24.029Z</time></trkpt><trkpt lat="42.8575129" lon="12.6046064"><ele>337.0</ele><time>2026-04-12T14:19:25.031Z</time></trkpt><trkpt lat="42.8573092" lon="12.6046771"><ele>337.0</ele><time>2026-04-12T14:19:26.028Z</time></trkpt><trkpt lat="42.8570994" lon="12.6047098"><ele>337.0</ele><time>2026-04-12T14:19:27.034Z</time></trkpt><trkpt lat="42.8568876" lon="12.6047041"><ele>337.0</ele><time>2026-04-12T14:19:28.034Z</time></trkpt><trkpt lat="42.856676" lon="12.6046681"><ele>336.3333333333333</ele><time>2026-04-12T14:19:29.028Z</time></trkpt><trkpt lat="42.8564638" lon="12.6046144"><ele>335.6666666666667</ele><time>2026-04-12T14:19:30.039Z</time></trkpt><trkpt lat="42.8562515" lon="12.6045581"><ele>335.0</ele><time>2026-04-12T14:19:31.033Z</time></trkpt><trkpt lat="42.8560482" lon="12.6045045"><ele>334.6666666666667</ele><time>2026-04-12T14:19:32.039Z</time></trkpt><trkpt lat="42.855854" lon="12.6044634"><ele>334.3333333333333</ele><time>2026-04-12T14:19:33.034Z</time></trkpt><trkpt lat="42.8556643" lon="12.604458"><ele>334.0</ele><time>2026-04-12T14:19:34.033Z</time></trkpt><trkpt lat="42.855476" lon="12.6044984"><ele>334.0</ele><time>2026-04-12T14:19:35.035Z</time></trkpt><trkpt lat="42.8552959" lon="12.6045908"><ele>334.0</ele><time>2026-04-12T14:19:36.03Z</time></trkpt><trkpt lat="42.85513" lon="12.604734"><ele>334.0</ele><time>2026-04-12T14:19:37.042Z</time></trkpt><trkpt lat="42.8549788" lon="12.6049194"><ele>335.3333333333333</ele><time>2026-04-12T14:19:38.033Z</time></trkpt><trkpt lat="42.8548415" lon="12.6051357"><ele>336.6666666666667</ele><time>2026-04-12T14:19:39.034Z</time></trkpt><trkpt lat="42.8547191" lon="12.6053549"><ele>338.0</ele><time>2026-04-12T14:19:40.032Z</time></trkpt><trkpt lat="42.8545961" lon="12.6055656"><ele>338.33333333333337</ele><time>2026-04-12T14:19:41.038Z</time></trkpt><trkpt lat="42.854464" lon="12.6057624"><ele>338.6666666666667</ele><time>2026-04-12T14:19:42.036Z</time></trkpt><trkpt lat="42.85432" lon="12.6059567"><ele>339.0</ele><time>2026-04-12T14:19:43.033Z</time></trkpt><trkpt lat="42.8541714" lon="12.6061332"><ele>340.0</ele><time>2026-04-12T14:19:44.031Z</time></trkpt><trkpt lat="42.8540171" lon="12.60632"><ele>341.0</ele><time>2026-04-12T14:19:45.031Z</time></trkpt><trkpt lat="42.8538682" lon="12.6064942"><ele>342.0</ele><time>2026-04-12T14:19:46.038Z</time></trkpt><trkpt lat="42.8537139" lon="12.6066645"><ele>342.0</ele><time>2026-04-12T14:19:47.031Z</time></trkpt><trkpt lat="42.8535565" lon="12.6068431"><ele>342.0</ele><time>2026-04-12T14:19:48.036Z</time></trkpt><trkpt lat="42.8533917" lon="12.607031"><ele>342.0</ele><time>2026-04-12T14:19:49.037Z</time></trkpt><trkpt lat="42.853226" lon="12.6072256"><ele>339.6666666666667</ele><time>2026-04-12T14:19:50.032Z</time></trkpt><trkpt lat="42.853072" lon="12.6074184"><ele>337.33333333333337</ele><time>2026-04-12T14:19:51.056Z</time></trkpt><trkpt lat="42.8529346" lon="12.6076213"><ele>335.0</ele><time>2026-04-12T14:19:52.029Z</time></trkpt><trkpt lat="42.852819" lon="12.6078557"><ele>334.33333333333337</ele><time>2026-04-12T14:19:53.03Z</time></trkpt><trkpt lat="42.8527357" lon="12.6081258"><ele>333.6666666666667</ele><time>2026-04-12T14:19:54.028Z</time></trkpt><trkpt lat="42.8526707" lon="12.6084134"><ele>333.0</ele><time>2026-04-12T14:19:55.031Z</time></trkpt><trkpt lat="42.8526103" lon="12.6087"><ele>333.0</ele><time>2026-04-12T14:19:56.032Z</time></trkpt><trkpt lat="42.8525558" lon="12.6089767"><ele>333.0</ele><time>2026-04-12T14:19:57.029Z</time></trkpt><trkpt lat="42.8525258" lon="12.6092568"><ele>333.0</ele><time>2026-04-12T14:19:58.041Z</time></trkpt><trkpt lat="42.8525305" lon="12.6095421"><ele>333.3333333333333</ele><time>2026-04-12T14:19:59.035Z</time></trkpt><trkpt lat="42.8525641" lon="12.6098236"><ele>333.66666666666663</ele><time>2026-04-12T14:20:00.032Z</time></trkpt><trkpt lat="42.8526114" lon="12.610099"><ele>334.0</ele><time>2026-04-12T14:20:01.037Z</time></trkpt><trkpt lat="42.8526607" lon="12.6103696"><ele>334.3333333333333</ele><time>2026-04-12T14:20:02.032Z</time></trkpt><trkpt lat="42.8527093" lon="12.6106362"><ele>334.6666666666667</ele><time>2026-04-12T14:20:03.044Z</time></trkpt><trkpt lat="42.8527569" lon="12.6108899"><ele>335.0</ele><time>2026-04-12T14:20:04.036Z</time></trkpt><trkpt lat="42.8527995" lon="12.6111295"><ele>336.33333333333337</ele><time>2026-04-12T14:20:05.031Z</time></trkpt><trkpt lat="42.8528381" lon="12.6113639"><ele>337.6666666666667</ele><time>2026-04-12T14:20:06.032Z</time></trkpt><trkpt lat="42.8528629" lon="12.611589"><ele>339.0</ele><time>2026-04-12T14:20:07.036Z</time></trkpt><trkpt lat="42.8528653" lon="12.6118142"><ele>340.3333333333333</ele><time>2026-04-12T14:20:08.035Z</time></trkpt><trkpt lat="42.8528484" lon="12.6120339"><ele>341.66666666666663</ele><time>2026-04-12T14:20:09.037Z</time></trkpt><trkpt lat="42.8528226" lon="12.6122491"><ele>343.0</ele><time>2026-04-12T14:20:10.031Z</time></trkpt><trkpt lat="42.8527922" lon="12.6124647"><ele>343.0</ele><time>2026-04-12T14:20:11.035Z</time></trkpt><trkpt lat="42.8527586" lon="12.6126843"><ele>343.0</ele><time>2026-04-12T14:20:12.031Z</time></trkpt><trkpt lat="42.8527247" lon="12.6129077"><ele>343.0</ele><time>2026-04-12T14:20:13.036Z</time></trkpt><trkpt lat="42.8526866" lon="12.6131361"><ele>343.3333333333333</ele><time>2026-04-12T14:20:14.035Z</time></trkpt><trkpt lat="42.8526363" lon="12.6133658"><ele>343.6666666666667</ele><time>2026-04-12T14:20:15.03Z</time></trkpt><trkpt lat="42.85257" lon="12.6135938"><ele>344.0</ele><time>2026-04-12T14:20:16.028Z</time></trkpt><trkpt lat="42.8524836" lon="12.6138159"><ele>343.33333333333337</ele><time>2026-04-12T14:20:17.032Z</time></trkpt><trkpt lat="42.852374" lon="12.6140205"><ele>342.6666666666667</ele><time>2026-04-12T14:20:18.036Z</time></trkpt><trkpt lat="42.8522438" lon="12.6142015"><ele>342.0</ele><time>2026-04-12T14:20:19.035Z</time></trkpt><trkpt lat="42.8520934" lon="12.6143545"><ele>342.0</ele><time>2026-04-12T14:20:20.048Z</time></trkpt><trkpt lat="42.8519271" lon="12.6144852"><ele>342.0</ele><time>2026-04-12T14:20:21.036Z</time></trkpt><trkpt lat="42.8517571" lon="12.6146074"><ele>342.0</ele><time>2026-04-12T14:20:22.035Z</time></trkpt><trkpt lat="42.8515946" lon="12.6147295"><ele>341.6666666666667</ele><time>2026-04-12T14:20:23.029Z</time></trkpt><trkpt lat="42.8514482" lon="12.61488"><ele>341.33333333333337</ele><time>2026-04-12T14:20:24.038Z</time></trkpt><trkpt lat="42.8513286" lon="12.6150771"><ele>341.0</ele><time>2026-04-12T14:20:25.033Z</time></trkpt><trkpt lat="42.8512427" lon="12.6153167"><ele>341.0</ele><time>2026-04-12T14:20:26.035Z</time></trkpt><trkpt lat="42.8511867" lon="12.6155811"><ele>341.0</ele><time>2026-04-12T14:20:27.03Z</time></trkpt><trkpt lat="42.8511459" lon="12.6158462"><ele>341.0</ele><time>2026-04-12T14:20:28.035Z</time></trkpt><trkpt lat="42.8511041" lon="12.6161058"><ele>341.33333333333337</ele><time>2026-04-12T14:20:29.03Z</time></trkpt><trkpt lat="42.851047" lon="12.6163653"><ele>341.6666666666667</ele><time>2026-04-12T14:20:30.035Z</time></trkpt><trkpt lat="42.8509669" lon="12.6166228"><ele>342.0</ele><time>2026-04-12T14:20:31.034Z</time></trkpt><trkpt lat="42.8508682" lon="12.6168786"><ele>342.6666666666667</ele><time>2026-04-12T14:20:32.034Z</time></trkpt><trkpt lat="42.850756" lon="12.617136"><ele>343.33333333333337</ele><time>2026-04-12T14:20:33.063Z</time></trkpt><trkpt lat="42.8506347" lon="12.6173959"><ele>344.0</ele><time>2026-04-12T14:20:34.033Z</time></trkpt><trkpt lat="42.8505112" lon="12.6176596"><ele>344.0</ele><time>2026-04-12T14:20:35.036Z</time></trkpt><trkpt lat="42.8503882" lon="12.6179247"><ele>344.0</ele><time>2026-04-12T14:20:36.03Z</time></trkpt><trkpt lat="42.8502637" lon="12.6181897"><ele>344.0</ele><time>2026-04-12T14:20:37.033Z</time></trkpt><trkpt lat="42.8501398" lon="12.6184553"><ele>344.0</ele><time>2026-04-12T14:20:38.034Z</time></trkpt><trkpt lat="42.8500215" lon="12.6187253"><ele>344.0</ele><time>2026-04-12T14:20:39.032Z</time></trkpt><trkpt lat="42.8499173" lon="12.6190053"><ele>344.0</ele><time>2026-04-12T14:20:40.058Z</time></trkpt><trkpt lat="42.8498357" lon="12.6192986"><ele>343.5</ele><time>2026-04-12T14:20:41.035Z</time></trkpt><trkpt lat="42.84978" lon="12.6196028"><ele>343.0</ele><time>2026-04-12T14:20:42.033Z</time></trkpt><trkpt lat="42.8497472" lon="12.6199143"><ele>343.0</ele><time>2026-04-12T14:20:43.034Z</time></trkpt><trkpt lat="42.8497305" lon="12.6202282"><ele>343.0</ele><time>2026-04-12T14:20:44.035Z</time></trkpt><trkpt lat="42.8497259" lon="12.6205407"><ele>343.0</ele><time>2026-04-12T14:20:45.033Z</time></trkpt><trkpt lat="42.849731" lon="12.6208516"><ele>343.0</ele><time>2026-04-12T14:20:46.034Z</time></trkpt><trkpt lat="42.8497416" lon="12.6211496"><ele>343.0</ele><time>2026-04-12T14:20:47.029Z</time></trkpt><trkpt lat="42.8497568" lon="12.6214396"><ele>342.66666666666663</ele><time>2026-04-12T14:20:48.028Z</time></trkpt><trkpt lat="42.8497777" lon="12.6217255"><ele>342.3333333333333</ele><time>2026-04-12T14:20:49.036Z</time></trkpt><trkpt lat="42.8498077" lon="12.622013"><ele>342.0</ele><time>2026-04-12T14:20:50.033Z</time></trkpt><trkpt lat="42.8498494" lon="12.6222981"><ele>341.0</ele><time>2026-04-12T14:20:51.032Z</time></trkpt><trkpt lat="42.8499015" lon="12.6225743"><ele>340.0</ele><time>2026-04-12T14:20:52.043Z</time></trkpt><trkpt lat="42.8499596" lon="12.622844"><ele>339.0</ele><time>2026-04-12T14:20:53.032Z</time></trkpt><trkpt lat="42.8500209" lon="12.6231115"><ele>337.6666666666667</ele><time>2026-04-12T14:20:54.034Z</time></trkpt><trkpt lat="42.8500797" lon="12.6233721"><ele>336.33333333333337</ele><time>2026-04-12T14:20:55.035Z</time></trkpt><trkpt lat="42.8501349" lon="12.6236229"><ele>335.0</ele><time>2026-04-12T14:20:56.062Z</time></trkpt><trkpt lat="42.850188" lon="12.62386"><ele>334.0</ele><time>2026-04-12T14:20:57.036Z</time></trkpt><trkpt lat="42.850238" lon="12.6240831"><ele>333.0</ele><time>2026-04-12T14:20:58.033Z</time></trkpt><trkpt lat="42.8502709" lon="12.624304"><ele>332.0</ele><time>2026-04-12T14:20:59.036Z</time></trkpt><trkpt lat="42.8502726" lon="12.6245326"><ele>331.0</ele><time>2026-04-12T14:21:00.033Z</time></trkpt><trkpt lat="42.8502383" lon="12.6247637"><ele>330.0</ele><time>2026-04-12T14:21:01.038Z</time></trkpt><trkpt lat="42.8501744" lon="12.6249872"><ele>329.0</ele><time>2026-04-12T14:21:02.032Z</time></trkpt><trkpt lat="42.8500837" lon="12.6251969"><ele>330.0</ele><time>2026-04-12T14:21:03.04Z</time></trkpt><trkpt lat="42.8499607" lon="12.6253897"><ele>331.0</ele><time>2026-04-12T14:21:04.035Z</time></trkpt><trkpt lat="42.8498096" lon="12.6255553"><ele>332.0</ele><time>2026-04-12T14:21:05.031Z</time></trkpt><trkpt lat="42.849635" lon="12.6256849"><ele>332.0</ele><time>2026-04-12T14:21:06.033Z</time></trkpt><trkpt lat="42.8494408" lon="12.6257728"><ele>332.0</ele><time>2026-04-12T14:21:07.034Z</time></trkpt><trkpt lat="42.8492314" lon="12.6258316"><ele>332.0</ele><time>2026-04-12T14:21:08.056Z</time></trkpt><trkpt lat="42.849012" lon="12.6258825"><ele>333.5</ele><time>2026-04-12T14:21:09.032Z</time></trkpt><trkpt lat="42.8487868" lon="12.6259389"><ele>335.0</ele><time>2026-04-12T14:21:10.034Z</time></trkpt><trkpt lat="42.8485654" lon="12.625996"><ele>335.0</ele><time>2026-04-12T14:21:11.034Z</time></trkpt><trkpt lat="42.8483548" lon="12.6260491"><ele>335.0</ele><time>2026-04-12T14:21:12.033Z</time></trkpt><trkpt lat="42.8481546" lon="12.6260992"><ele>335.0</ele><time>2026-04-12T14:21:13.068Z</time></trkpt><trkpt lat="42.8479722" lon="12.6261445"><ele>337.0</ele><time>2026-04-12T14:21:14.033Z</time></trkpt><trkpt lat="42.8478083" lon="12.6261886"><ele>339.0</ele><time>2026-04-12T14:21:15.036Z</time></trkpt><trkpt lat="42.8476641" lon="12.6262446"><ele>341.0</ele><time>2026-04-12T14:21:16.036Z</time></trkpt><trkpt lat="42.847543" lon="12.6263356"><ele>341.0</ele><time>2026-04-12T14:21:17.032Z</time></trkpt><trkpt lat="42.8474564" lon="12.6264851"><ele>341.0</ele><time>2026-04-12T14:21:18.039Z</time></trkpt><trkpt lat="42.8474154" lon="12.6266793"><ele>341.0</ele><time>2026-04-12T14:21:19.036Z</time></trkpt><trkpt lat="42.8474252" lon="12.6268867"><ele>341.0</ele><time>2026-04-12T14:21:20.037Z</time></trkpt><trkpt lat="42.8474797" lon="12.6270846"><ele>342.0</ele><time>2026-04-12T14:21:21.037Z</time></trkpt><trkpt lat="42.8475583" lon="12.6272892"><ele>343.0</ele><time>2026-04-12T14:21:22.033Z</time></trkpt><trkpt lat="42.8476374" lon="12.6275172"><ele>344.0</ele><time>2026-04-12T14:21:23.035Z</time></trkpt><trkpt lat="42.847694" lon="12.6277521"><ele>344.33333333333337</ele><time>2026-04-12T14:21:24.034Z</time></trkpt><trkpt lat="42.847718" lon="12.6279872"><ele>344.6666666666667</ele><time>2026-04-12T14:21:25.035Z</time></trkpt><trkpt lat="42.8477095" lon="12.6282303"><ele>345.0</ele><time>2026-04-12T14:21:26.038Z</time></trkpt><trkpt lat="42.8476724" lon="12.6284776"><ele>346.3333333333333</ele><time>2026-04-12T14:21:27.029Z</time></trkpt><trkpt lat="42.8476103" lon="12.6287361"><ele>347.66666666666663</ele><time>2026-04-12T14:21:28.048Z</time></trkpt><trkpt lat="42.8475399" lon="12.6290061"><ele>349.0</ele><time>2026-04-12T14:21:29.035Z</time></trkpt><trkpt lat="42.847468" lon="12.6292879"><ele>347.0</ele><time>2026-04-12T14:21:30.029Z</time></trkpt><trkpt lat="42.8473943" lon="12.6295826"><ele>345.0</ele><time>2026-04-12T14:21:31.034Z</time></trkpt><trkpt lat="42.8473179" lon="12.6298909"><ele>345.0</ele><time>2026-04-12T14:21:32.028Z</time></trkpt><trkpt lat="42.8472384" lon="12.6302065"><ele>345.0</ele><time>2026-04-12T14:21:33.032Z</time></trkpt><trkpt lat="42.8471567" lon="12.6305296"><ele>344.0</ele><time>2026-04-12T14:21:34.032Z</time></trkpt><trkpt lat="42.8470727" lon="12.630859"><ele>343.0</ele><time>2026-04-12T14:21:35.032Z</time></trkpt><trkpt lat="42.8469872" lon="12.6311929"><ele>341.5</ele><time>2026-04-12T14:21:36.036Z</time></trkpt><trkpt lat="42.8469005" lon="12.6315302"><ele>340.0</ele><time>2026-04-12T14:21:37.036Z</time></trkpt><trkpt lat="42.8468135" lon="12.6318696"><ele>340.5</ele><time>2026-04-12T14:21:38.036Z</time></trkpt><trkpt lat="42.8467262" lon="12.6322111"><ele>341.0</ele><time>2026-04-12T14:21:39.033Z</time></trkpt><trkpt lat="42.8466393" lon="12.6325536"><ele>340.0</ele><time>2026-04-12T14:21:40.036Z</time></trkpt><trkpt lat="42.846555" lon="12.6328888"><ele>339.0</ele><time>2026-04-12T14:21:41.039Z</time></trkpt><trkpt lat="42.8464747" lon="12.633206"><ele>339.0</ele><time>2026-04-12T14:21:42.031Z</time></trkpt><trkpt lat="42.8463987" lon="12.6335052"><ele>339.0</ele><time>2026-04-12T14:21:43.042Z</time></trkpt><trkpt lat="42.8463267" lon="12.6337891"><ele>338.3333333333333</ele><time>2026-04-12T14:21:44.033Z</time></trkpt><trkpt lat="42.8462586" lon="12.6340593"><ele>337.66666666666663</ele><time>2026-04-12T14:21:45.035Z</time></trkpt><trkpt lat="42.8461952" lon="12.6343153"><ele>337.0</ele><time>2026-04-12T14:21:46.034Z</time></trkpt><trkpt lat="42.8461217" lon="12.634556"><ele>336.66666666666663</ele><time>2026-04-12T14:21:47.039Z</time></trkpt><trkpt lat="42.846017" lon="12.6347804"><ele>336.3333333333333</ele><time>2026-04-12T14:21:48.035Z</time></trkpt><trkpt lat="42.8459078" lon="12.6349693"><ele>336.0</ele><time>2026-04-12T14:21:49.033Z</time></trkpt><trkpt lat="42.8457537" lon="12.6351117"><ele>335.6666666666667</ele><time>2026-04-12T14:21:50.033Z</time></trkpt><trkpt lat="42.8455883" lon="12.6352126"><ele>335.33333333333337</ele><time>2026-04-12T14:21:51.037Z</time></trkpt><trkpt lat="42.8454092" lon="12.6352633"><ele>335.0</ele><time>2026-04-12T14:21:52.037Z</time></trkpt><trkpt lat="42.8452186" lon="12.6352676"><ele>334.6666666666667</ele><time>2026-04-12T14:21:53.036Z</time></trkpt><trkpt lat="42.8450341" lon="12.6352553"><ele>334.3333333333333</ele><time>2026-04-12T14:21:54.031Z</time></trkpt><trkpt lat="42.8448533" lon="12.6352727"><ele>334.0</ele><time>2026-04-12T14:21:55.031Z</time></trkpt><trkpt lat="42.8446695" lon="12.6353373"><ele>334.66666666666663</ele><time>2026-04-12T14:21:56.033Z</time></trkpt><trkpt lat="42.8444845" lon="12.6354462"><ele>335.3333333333333</ele><time>2026-04-12T14:21:57.029Z</time></trkpt><trkpt lat="42.8442983" lon="12.6355802"><ele>336.0</ele><time>2026-04-12T14:21:58.039Z</time></trkpt><trkpt lat="42.844106" lon="12.6357297"><ele>336.0</ele><time>2026-04-12T14:21:59.038Z</time></trkpt><trkpt lat="42.8439117" lon="12.6358879"><ele>336.0</ele><time>2026-04-12T14:22:00.036Z</time></trkpt><trkpt lat="42.8437157" lon="12.6360444"><ele>336.3333333333333</ele><time>2026-04-12T14:22:01.037Z</time></trkpt><trkpt lat="42.8435282" lon="12.6361867"><ele>336.66666666666663</ele><time>2026-04-12T14:22:02.033Z</time></trkpt><trkpt lat="42.8433472" lon="12.6363326"><ele>337.0</ele><time>2026-04-12T14:22:03.039Z</time></trkpt><trkpt lat="42.8431717" lon="12.6365027"><ele>337.3333333333333</ele><time>2026-04-12T14:22:04.029Z</time></trkpt><trkpt lat="42.8430089" lon="12.6367043"><ele>337.6666666666667</ele><time>2026-04-12T14:22:05.036Z</time></trkpt><trkpt lat="42.8428549" lon="12.6369291"><ele>338.0</ele><time>2026-04-12T14:22:06.032Z</time></trkpt><trkpt lat="42.8427058" lon="12.6371711"><ele>338.5</ele><time>2026-04-12T14:22:07.034Z</time></trkpt><trkpt lat="42.8425672" lon="12.6374334"><ele>339.0</ele><time>2026-04-12T14:22:08.035Z</time></trkpt><trkpt lat="42.8424414" lon="12.6377174"><ele>338.5</ele><time>2026-04-12T14:22:09.036Z</time></trkpt><trkpt lat="42.8423291" lon="12.6380209"><ele>338.0</ele><time>2026-04-12T14:22:10.032Z</time></trkpt><trkpt lat="42.8422266" lon="12.6383372"><ele>337.0</ele><time>2026-04-12T14:22:11.035Z</time></trkpt><trkpt lat="42.8421276" lon="12.6386622"><ele>336.0</ele><time>2026-04-12T14:22:12.034Z</time></trkpt><trkpt lat="42.8420282" lon="12.6389892"><ele>336.0</ele><time>2026-04-12T14:22:13.035Z</time></trkpt><trkpt lat="42.8419333" lon="12.639301"><ele>336.0</ele><time>2026-04-12T14:22:14.038Z</time></trkpt><trkpt lat="42.8418435" lon="12.6396044"><ele>337.0</ele><time>2026-04-12T14:22:15.036Z</time></trkpt><trkpt lat="42.8417629" lon="12.6399148"><ele>338.0</ele><time>2026-04-12T14:22:16.032Z</time></trkpt><trkpt lat="42.841696" lon="12.6402339"><ele>339.0</ele><time>2026-04-12T14:22:17.032Z</time></trkpt><trkpt lat="42.8416446" lon="12.6405608"><ele>340.0</ele><time>2026-04-12T14:22:18.034Z</time></trkpt><trkpt lat="42.8416062" lon="12.6408892"><ele>339.5</ele><time>2026-04-12T14:22:19.036Z</time></trkpt><trkpt lat="42.84158" lon="12.6412018"><ele>339.0</ele><time>2026-04-12T14:22:20.039Z</time></trkpt><trkpt lat="42.8415646" lon="12.641503"><ele>339.0</ele><time>2026-04-12T14:22:21.035Z</time></trkpt><trkpt lat="42.8415625" lon="12.6417921"><ele>339.0</ele><time>2026-04-12T14:22:22.065Z</time></trkpt><trkpt lat="42.8415858" lon="12.6420761"><ele>339.0</ele><time>2026-04-12T14:22:23.034Z</time></trkpt><trkpt lat="42.8416402" lon="12.6423598"><ele>339.3333333333333</ele><time>2026-04-12T14:22:24.037Z</time></trkpt><trkpt lat="42.8417238" lon="12.6426376"><ele>339.66666666666663</ele><time>2026-04-12T14:22:25.035Z</time></trkpt><trkpt lat="42.8418315" lon="12.6429017"><ele>340.0</ele><time>2026-04-12T14:22:26.032Z</time></trkpt><trkpt lat="42.841953" lon="12.6431514"><ele>340.0</ele><time>2026-04-12T14:22:27.032Z</time></trkpt><trkpt lat="42.8420779" lon="12.6433883"><ele>340.0</ele><time>2026-04-12T14:22:28.032Z</time></trkpt><trkpt lat="42.8421983" lon="12.6436146"><ele>340.0</ele><time>2026-04-12T14:22:29.038Z</time></trkpt><trkpt lat="42.8423172" lon="12.6438412"><ele>340.66666666666663</ele><time>2026-04-12T14:22:30.036Z</time></trkpt><trkpt lat="42.842437" lon="12.6440728"><ele>341.3333333333333</ele><time>2026-04-12T14:22:31.037Z</time></trkpt><trkpt lat="42.8425572" lon="12.6443091"><ele>342.0</ele><time>2026-04-12T14:22:32.032Z</time></trkpt><trkpt lat="42.8426778" lon="12.6445524"><ele>342.3333333333333</ele><time>2026-04-12T14:22:33.035Z</time></trkpt><trkpt lat="42.8427999" lon="12.6448057"><ele>342.66666666666663</ele><time>2026-04-12T14:22:34.035Z</time></trkpt><trkpt lat="42.8429216" lon="12.6450653"><ele>343.0</ele><time>2026-04-12T14:22:35.035Z</time></trkpt><trkpt lat="42.8430371" lon="12.6453165"><ele>342.0</ele><time>2026-04-12T14:22:36.038Z</time></trkpt><trkpt lat="42.8431568" lon="12.6455641"><ele>341.0</ele><time>2026-04-12T14:22:37.039Z</time></trkpt><trkpt lat="42.8432947" lon="12.6458037"><ele>340.0</ele><time>2026-04-12T14:22:38.038Z</time></trkpt><trkpt lat="42.8434527" lon="12.6460323"><ele>337.5</ele><time>2026-04-12T14:22:39.032Z</time></trkpt><trkpt lat="42.8436289" lon="12.6462434"><ele>335.0</ele><time>2026-04-12T14:22:40.034Z</time></trkpt><trkpt lat="42.8438202" lon="12.6464295"><ele>335.0</ele><time>2026-04-12T14:22:41.03Z</time></trkpt><trkpt lat="42.8440203" lon="12.6465834"><ele>335.0</ele><time>2026-04-12T14:22:42.04Z</time></trkpt><trkpt lat="42.8442247" lon="12.6467039"><ele>331.33333333333337</ele><time>2026-04-12T14:22:43.032Z</time></trkpt><trkpt lat="42.8444307" lon="12.6467864"><ele>327.6666666666667</ele><time>2026-04-12T14:22:44.035Z</time></trkpt><trkpt lat="42.8446362" lon="12.6468299"><ele>324.0</ele><time>2026-04-12T14:22:45.033Z</time></trkpt><trkpt lat="42.8448334" lon="12.6468497"><ele>324.0</ele><time>2026-04-12T14:22:46.035Z</time></trkpt><trkpt lat="42.8450194" lon="12.6468774"><ele>324.0</ele><time>2026-04-12T14:22:47.04Z</time></trkpt><trkpt lat="42.8451943" lon="12.6469427"><ele>324.0</ele><time>2026-04-12T14:22:48.036Z</time></trkpt><trkpt lat="42.8453611" lon="12.6470508"><ele>323.0</ele><time>2026-04-12T14:22:49.057Z</time></trkpt><trkpt lat="42.845508" lon="12.6471944"><ele>322.0</ele><time>2026-04-12T14:22:50.028Z</time></trkpt><trkpt lat="42.8456329" lon="12.6473689"><ele>321.0</ele><time>2026-04-12T14:22:51.03Z</time></trkpt><trkpt lat="42.8457351" lon="12.6475708"><ele>320.3333333333333</ele><time>2026-04-12T14:22:52.033Z</time></trkpt><trkpt lat="42.8458237" lon="12.6477951"><ele>319.66666666666663</ele><time>2026-04-12T14:22:53.034Z</time></trkpt><trkpt lat="42.8459201" lon="12.648026"><ele>319.0</ele><time>2026-04-12T14:22:54.036Z</time></trkpt><trkpt lat="42.8460404" lon="12.6482517"><ele>316.3333333333333</ele><time>2026-04-12T14:22:55.036Z</time></trkpt><trkpt lat="42.8461878" lon="12.6484685"><ele>313.6666666666667</ele><time>2026-04-12T14:22:56.033Z</time></trkpt><trkpt lat="42.8463434" lon="12.6486703"><ele>311.0</ele><time>2026-04-12T14:22:57.035Z</time></trkpt><trkpt lat="42.8464889" lon="12.6488685"><ele>311.0</ele><time>2026-04-12T14:22:58.035Z</time></trkpt><trkpt lat="42.8466177" lon="12.6490738"><ele>311.0</ele><time>2026-04-12T14:22:59.039Z</time></trkpt><trkpt lat="42.846722" lon="12.6492913"><ele>311.0</ele><time>2026-04-12T14:23:00.038Z</time></trkpt><trkpt lat="42.8468042" lon="12.6495288"><ele>309.6666666666667</ele><time>2026-04-12T14:23:01.038Z</time></trkpt><trkpt lat="42.8468713" lon="12.6497769"><ele>308.3333333333333</ele><time>2026-04-12T14:23:02.033Z</time></trkpt><trkpt lat="42.8469333" lon="12.6500286"><ele>307.0</ele><time>2026-04-12T14:23:03.035Z</time></trkpt><trkpt lat="42.8469939" lon="12.6502774"><ele>307.3333333333333</ele><time>2026-04-12T14:23:04.036Z</time></trkpt><trkpt lat="42.8470519" lon="12.6505164"><ele>307.6666666666667</ele><time>2026-04-12T14:23:05.033Z</time></trkpt><trkpt lat="42.8471075" lon="12.6507433"><ele>308.0</ele><time>2026-04-12T14:23:06.034Z</time></trkpt><trkpt lat="42.8471647" lon="12.6509679"><ele>307.0</ele><time>2026-04-12T14:23:07.033Z</time></trkpt><trkpt lat="42.8472215" lon="12.6511874"><ele>306.0</ele><time>2026-04-12T14:23:08.045Z</time></trkpt><trkpt lat="42.8472792" lon="12.6514114"><ele>305.0</ele><time>2026-04-12T14:23:09.035Z</time></trkpt><trkpt lat="42.8473382" lon="12.6516461"><ele>305.0</ele><time>2026-04-12T14:23:10.036Z</time></trkpt><trkpt lat="42.8473976" lon="12.6518875"><ele>305.0</ele><time>2026-04-12T14:23:11.036Z</time></trkpt><trkpt lat="42.8474578" lon="12.6521332"><ele>305.0</ele><time>2026-04-12T14:23:12.038Z</time></trkpt><trkpt lat="42.8475182" lon="12.6523758"><ele>304.0</ele><time>2026-04-12T14:23:13.039Z</time></trkpt><trkpt lat="42.8475806" lon="12.6526095"><ele>303.0</ele><time>2026-04-12T14:23:14.036Z</time></trkpt><trkpt lat="42.8476558" lon="12.6528413"><ele>302.0</ele><time>2026-04-12T14:23:15.042Z</time></trkpt><trkpt lat="42.8477568" lon="12.6530861"><ele>302.33333333333337</ele><time>2026-04-12T14:23:16.034Z</time></trkpt><trkpt lat="42.8478724" lon="12.653342"><ele>302.6666666666667</ele><time>2026-04-12T14:23:17.034Z</time></trkpt><trkpt lat="42.8479855" lon="12.6535936"><ele>303.0</ele><time>2026-04-12T14:23:18.038Z</time></trkpt><trkpt lat="42.8480974" lon="12.6538521"><ele>303.0</ele><time>2026-04-12T14:23:19.03Z</time></trkpt><trkpt lat="42.8482155" lon="12.654119"><ele>303.0</ele><time>2026-04-12T14:23:20.035Z</time></trkpt><trkpt lat="42.8483425" lon="12.6543867"><ele>302.6666666666667</ele><time>2026-04-12T14:23:21.031Z</time></trkpt><trkpt lat="42.8484582" lon="12.6546415"><ele>302.33333333333337</ele><time>2026-04-12T14:23:22.039Z</time></trkpt><trkpt lat="42.8485538" lon="12.6548858"><ele>302.0</ele><time>2026-04-12T14:23:23.031Z</time></trkpt><trkpt lat="42.8486241" lon="12.6551372"><ele>303.33333333333337</ele><time>2026-04-12T14:23:24.031Z</time></trkpt><trkpt lat="42.8486659" lon="12.6554006"><ele>304.6666666666667</ele><time>2026-04-12T14:23:25.029Z</time></trkpt><trkpt lat="42.8486781" lon="12.6556629"><ele>306.0</ele><time>2026-04-12T14:23:26.033Z</time></trkpt><trkpt lat="42.8486597" lon="12.6559269"><ele>305.0</ele><time>2026-04-12T14:23:27.03Z</time></trkpt><trkpt lat="42.8486155" lon="12.6561926"><ele>304.0</ele><time>2026-04-12T14:23:28.033Z</time></trkpt><trkpt lat="42.8485474" lon="12.6564553"><ele>303.0</ele><time>2026-04-12T14:23:29.036Z</time></trkpt><trkpt lat="42.8484586" lon="12.6567105"><ele>299.6666666666667</ele><time>2026-04-12T14:23:30.031Z</time></trkpt><trkpt lat="42.8483558" lon="12.6569565"><ele>296.33333333333337</ele><time>2026-04-12T14:23:31.032Z</time></trkpt><trkpt lat="42.8482407" lon="12.6571999"><ele>293.0</ele><time>2026-04-12T14:23:32.032Z</time></trkpt><trkpt lat="42.8481077" lon="12.6574394"><ele>293.0</ele><time>2026-04-12T14:23:33.031Z</time></trkpt><trkpt lat="42.8479575" lon="12.6576639"><ele>293.0</ele><time>2026-04-12T14:23:34.034Z</time></trkpt><trkpt lat="42.8478005" lon="12.6578624"><ele>293.0</ele><time>2026-04-12T14:23:35.031Z</time></trkpt><trkpt lat="42.8476451" lon="12.6580386"><ele>290.0</ele><time>2026-04-12T14:23:36.039Z</time></trkpt><trkpt lat="42.8475013" lon="12.6582133"><ele>287.0</ele><time>2026-04-12T14:23:37.035Z</time></trkpt><trkpt lat="42.8473802" lon="12.6584034"><ele>284.0</ele><time>2026-04-12T14:23:38.03Z</time></trkpt><trkpt lat="42.8472849" lon="12.6586274"><ele>284.0</ele><time>2026-04-12T14:23:39.03Z</time></trkpt><trkpt lat="42.847224" lon="12.6588816"><ele>284.0</ele><time>2026-04-12T14:23:40.029Z</time></trkpt><trkpt lat="42.8472112" lon="12.6591578"><ele>284.0</ele><time>2026-04-12T14:23:41.028Z</time></trkpt><trkpt lat="42.8472419" lon="12.6594378"><ele>283.33333333333337</ele><time>2026-04-12T14:23:42.035Z</time></trkpt><trkpt lat="42.847292" lon="12.6597037"><ele>282.6666666666667</ele><time>2026-04-12T14:23:43.027Z</time></trkpt><trkpt lat="42.8473307" lon="12.6599739"><ele>282.0</ele><time>2026-04-12T14:23:44.028Z</time></trkpt><trkpt lat="42.847366" lon="12.6602339"><ele>281.0</ele><time>2026-04-12T14:23:45.029Z</time></trkpt><trkpt lat="42.8473596" lon="12.6605325"><ele>280.0</ele><time>2026-04-12T14:23:46.027Z</time></trkpt><trkpt lat="42.847331" lon="12.660855"><ele>279.0</ele><time>2026-04-12T14:23:47.029Z</time></trkpt><trkpt lat="42.8472947" lon="12.661161"><ele>278.0</ele><time>2026-04-12T14:23:48.033Z</time></trkpt><trkpt lat="42.8472347" lon="12.6614514"><ele>277.0</ele><time>2026-04-12T14:23:49.027Z</time></trkpt><trkpt lat="42.8471382" lon="12.6617303"><ele>277.5</ele><time>2026-04-12T14:23:50.031Z</time></trkpt><trkpt lat="42.8470074" lon="12.6619961"><ele>278.0</ele><time>2026-04-12T14:23:51.032Z</time></trkpt><trkpt lat="42.8468672" lon="12.6622486"><ele>272.0</ele><time>2026-04-12T14:23:52.03Z</time></trkpt><trkpt lat="42.8467217" lon="12.6625037"><ele>266.0</ele><time>2026-04-12T14:23:53.051Z</time></trkpt><trkpt lat="42.8465819" lon="12.6627708"><ele>266.5</ele><time>2026-04-12T14:23:54.028Z</time></trkpt><trkpt lat="42.8464485" lon="12.6630507"><ele>267.0</ele><time>2026-04-12T14:23:55.033Z</time></trkpt><trkpt lat="42.8463217" lon="12.6633379"><ele>266.5</ele><time>2026-04-12T14:23:56.033Z</time></trkpt><trkpt lat="42.8462032" lon="12.6636188"><ele>266.0</ele><time>2026-04-12T14:23:57.031Z</time></trkpt><trkpt lat="42.8460913" lon="12.663893"><ele>266.0</ele><time>2026-04-12T14:23:58.038Z</time></trkpt><trkpt lat="42.8459853" lon="12.6641642"><ele>266.0</ele><time>2026-04-12T14:23:59.031Z</time></trkpt><trkpt lat="42.8458871" lon="12.6644381"><ele>266.0</ele><time>2026-04-12T14:24:00.028Z</time></trkpt><trkpt lat="42.8457912" lon="12.6647142"><ele>262.6666666666667</ele><time>2026-04-12T14:24:01.027Z</time></trkpt><trkpt lat="42.8456952" lon="12.664992"><ele>259.3333333333333</ele><time>2026-04-12T14:24:02.029Z</time></trkpt><trkpt lat="42.8456014" lon="12.6652663"><ele>256.0</ele><time>2026-04-12T14:24:03.047Z</time></trkpt><trkpt lat="42.8455136" lon="12.6655316"><ele>256.0</ele><time>2026-04-12T14:24:04.031Z</time></trkpt><trkpt lat="42.8454362" lon="12.6657901"><ele>256.0</ele><time>2026-04-12T14:24:05.029Z</time></trkpt><trkpt lat="42.845376" lon="12.6660457"><ele>256.0</ele><time>2026-04-12T14:24:06.032Z</time></trkpt><trkpt lat="42.8453393" lon="12.6662996"><ele>255.0</ele><time>2026-04-12T14:24:07.03Z</time></trkpt><trkpt lat="42.8453249" lon="12.6665633"><ele>254.0</ele><time>2026-04-12T14:24:08.033Z</time></trkpt><trkpt lat="42.8453339" lon="12.6668338"><ele>253.0</ele><time>2026-04-12T14:24:09.029Z</time></trkpt><trkpt lat="42.8453646" lon="12.6670918"><ele>251.0</ele><time>2026-04-12T14:24:10.028Z</time></trkpt><trkpt lat="42.8454067" lon="12.6673401"><ele>249.0</ele><time>2026-04-12T14:24:11.033Z</time></trkpt><trkpt lat="42.8454438" lon="12.6675874"><ele>247.0</ele><time>2026-04-12T14:24:12.032Z</time></trkpt><trkpt lat="42.8454452" lon="12.6678582"><ele>246.33333333333331</ele><time>2026-04-12T14:24:13.025Z</time></trkpt><trkpt lat="42.8454161" lon="12.6681273"><ele>245.66666666666669</ele><time>2026-04-12T14:24:14.047Z</time></trkpt><trkpt lat="42.8453789" lon="12.6683824"><ele>245.0</ele><time>2026-04-12T14:24:15.028Z</time></trkpt><trkpt lat="42.8452911" lon="12.6686112"><ele>244.0</ele><time>2026-04-12T14:24:16.037Z</time></trkpt><trkpt lat="42.8451758" lon="12.6688132"><ele>243.0</ele><time>2026-04-12T14:24:17.028Z</time></trkpt><trkpt lat="42.8450337" lon="12.6689938"><ele>242.0</ele><time>2026-04-12T14:24:18.029Z</time></trkpt><trkpt lat="42.84487" lon="12.6691434"><ele>241.0</ele><time>2026-04-12T14:24:19.025Z</time></trkpt><trkpt lat="42.8446894" lon="12.6692712"><ele>240.0</ele><time>2026-04-12T14:24:20.032Z</time></trkpt><trkpt lat="42.8444989" lon="12.6693924"><ele>239.0</ele><time>2026-04-12T14:24:21.03Z</time></trkpt><trkpt lat="42.8443019" lon="12.6695163"><ele>239.5</ele><time>2026-04-12T14:24:22.031Z</time></trkpt><trkpt lat="42.8440999" lon="12.669645"><ele>240.0</ele><time>2026-04-12T14:24:23.034Z</time></trkpt><trkpt lat="42.8438946" lon="12.6697797"><ele>240.0</ele><time>2026-04-12T14:24:24.031Z</time></trkpt><trkpt lat="42.8436993" lon="12.6699415"><ele>240.0</ele><time>2026-04-12T14:24:25.029Z</time></trkpt><trkpt lat="42.8435241" lon="12.6701518"><ele>241.5</ele><time>2026-04-12T14:24:26.033Z</time></trkpt><trkpt lat="42.8433688" lon="12.670409"><ele>243.0</ele><time>2026-04-12T14:24:27.03Z</time></trkpt><trkpt lat="42.8432351" lon="12.6707014"><ele>243.0</ele><time>2026-04-12T14:24:28.033Z</time></trkpt><trkpt lat="42.8431145" lon="12.6710081"><ele>243.0</ele><time>2026-04-12T14:24:29.027Z</time></trkpt><trkpt lat="42.8430028" lon="12.6713227"><ele>242.0</ele><time>2026-04-12T14:24:30.027Z</time></trkpt><trkpt lat="42.8428943" lon="12.671636"><ele>241.0</ele><time>2026-04-12T14:24:31.032Z</time></trkpt><trkpt lat="42.8427885" lon="12.6719337"><ele>240.66666666666666</ele><time>2026-04-12T14:24:32.027Z</time></trkpt><trkpt lat="42.8426866" lon="12.6722075"><ele>240.33333333333331</ele><time>2026-04-12T14:24:33.052Z</time></trkpt><trkpt lat="42.8425791" lon="12.67245"><ele>240.0</ele><time>2026-04-12T14:24:34.028Z</time></trkpt><trkpt lat="42.8424559" lon="12.6726525"><ele>242.0</ele><time>2026-04-12T14:24:35.031Z</time></trkpt><trkpt lat="42.8423137" lon="12.672824"><ele>244.0</ele><time>2026-04-12T14:24:36.027Z</time></trkpt><trkpt lat="42.8421498" lon="12.6729636"><ele>246.0</ele><time>2026-04-12T14:24:37.032Z</time></trkpt><trkpt lat="42.8419667" lon="12.6730656"><ele>247.0</ele><time>2026-04-12T14:24:38.034Z</time></trkpt><trkpt lat="42.8417771" lon="12.6731304"><ele>248.0</ele><time>2026-04-12T14:24:39.027Z</time></trkpt><trkpt lat="42.8415947" lon="12.67317"><ele>249.0</ele><time>2026-04-12T14:24:40.028Z</time></trkpt><trkpt lat="42.8414181" lon="12.673206"><ele>249.0</ele><time>2026-04-12T14:24:41.031Z</time></trkpt><trkpt lat="42.8412408" lon="12.6732445"><ele>249.0</ele><time>2026-04-12T14:24:42.027Z</time></trkpt><trkpt lat="42.8410647" lon="12.6732804"><ele>249.0</ele><time>2026-04-12T14:24:43.034Z</time></trkpt><trkpt lat="42.8408914" lon="12.6733138"><ele>250.0</ele><time>2026-04-12T14:24:44.03Z</time></trkpt><trkpt lat="42.8407151" lon="12.6733523"><ele>251.0</ele><time>2026-04-12T14:24:45.025Z</time></trkpt><trkpt lat="42.8405386" lon="12.6734156"><ele>252.0</ele><time>2026-04-12T14:24:46.032Z</time></trkpt><trkpt lat="42.8403628" lon="12.673525"><ele>250.66666666666669</ele><time>2026-04-12T14:24:47.028Z</time></trkpt><trkpt lat="42.8401917" lon="12.6736774"><ele>249.33333333333334</ele><time>2026-04-12T14:24:48.035Z</time></trkpt><trkpt lat="42.8400259" lon="12.673853"><ele>248.0</ele><time>2026-04-12T14:24:49.027Z</time></trkpt><trkpt lat="42.8398573" lon="12.6740353"><ele>248.0</ele><time>2026-04-12T14:24:50.027Z</time></trkpt><trkpt lat="42.8396845" lon="12.6742196"><ele>248.0</ele><time>2026-04-12T14:24:51.028Z</time></trkpt><trkpt lat="42.8395091" lon="12.6744065"><ele>248.0</ele><time>2026-04-12T14:24:52.035Z</time></trkpt><trkpt lat="42.8393393" lon="12.6745894"><ele>246.0</ele><time>2026-04-12T14:24:53.033Z</time></trkpt><trkpt lat="42.8391763" lon="12.6747667"><ele>244.0</ele><time>2026-04-12T14:24:54.027Z</time></trkpt><trkpt lat="42.8390189" lon="12.6749369"><ele>242.0</ele><time>2026-04-12T14:24:55.028Z</time></trkpt><trkpt lat="42.8388679" lon="12.6751006"><ele>242.0</ele><time>2026-04-12T14:24:56.029Z</time></trkpt><trkpt lat="42.8387237" lon="12.6752586"><ele>242.0</ele><time>2026-04-12T14:24:57.03Z</time></trkpt><trkpt lat="42.8385858" lon="12.6754081"><ele>242.0</ele><time>2026-04-12T14:24:58.037Z</time></trkpt><trkpt lat="42.8384543" lon="12.6755497"><ele>240.66666666666669</ele><time>2026-04-12T14:24:59.028Z</time></trkpt><trkpt lat="42.8383275" lon="12.6756878"><ele>239.33333333333331</ele><time>2026-04-12T14:25:00.028Z</time></trkpt><trkpt lat="42.83821" lon="12.675817"><ele>238.0</ele><time>2026-04-12T14:25:01.029Z</time></trkpt><trkpt lat="42.8381026" lon="12.6759336"><ele>238.0</ele><time>2026-04-12T14:25:02.028Z</time></trkpt><trkpt lat="42.8380036" lon="12.6760406"><ele>238.0</ele><time>2026-04-12T14:25:03.032Z</time></trkpt><trkpt lat="42.8379207" lon="12.6761312"><ele>238.0</ele><time>2026-04-12T14:25:04.027Z</time></trkpt><trkpt lat="42.8378561" lon="12.6762023"><ele>238.0</ele><time>2026-04-12T14:25:05.049Z</time></trkpt><trkpt lat="42.8378008" lon="12.6762614"><ele>238.0</ele><time>2026-04-12T14:25:06.037Z</time></trkpt><trkpt lat="42.8377213" lon="12.6763463"><ele>237.60000000000002</ele><time>2026-04-12T14:25:08.031Z</time></trkpt><trkpt lat="42.8376639" lon="12.676414"><ele>237.20000000000002</ele><time>2026-04-12T14:25:11.041Z</time></trkpt><trkpt lat="42.8376691" lon="12.6765463"><ele>236.8</ele><time>2026-04-12T14:25:13.03Z</time></trkpt><trkpt lat="42.8377102" lon="12.6766365"><ele>236.4</ele><time>2026-04-12T14:25:14.033Z</time></trkpt><trkpt lat="42.8377867" lon="12.6767232"><ele>236.0</ele><time>2026-04-12T14:25:15.031Z</time></trkpt><trkpt lat="42.8378941" lon="12.6767926"><ele>236.0</ele><time>2026-04-12T14:25:16.035Z</time></trkpt><trkpt lat="42.8380205" lon="12.6768676"><ele>236.0</ele><time>2026-04-12T14:25:17.029Z</time></trkpt><trkpt lat="42.8381776" lon="12.6769322"><ele>236.0</ele><time>2026-04-12T14:25:18.029Z</time></trkpt><trkpt lat="42.8383533" lon="12.6770081"><ele>236.0</ele><time>2026-04-12T14:25:19.054Z</time></trkpt><trkpt lat="42.8385396" lon="12.6770901"><ele>236.0</ele><time>2026-04-12T14:25:20.03Z</time></trkpt><trkpt lat="42.8387372" lon="12.6771711"><ele>236.0</ele><time>2026-04-12T14:25:21.036Z</time></trkpt><trkpt lat="42.8389461" lon="12.6772523"><ele>236.0</ele><time>2026-04-12T14:25:22.031Z</time></trkpt><trkpt lat="42.8391646" lon="12.6773285"><ele>236.0</ele><time>2026-04-12T14:25:23.031Z</time></trkpt><trkpt lat="42.8393865" lon="12.6773992"><ele>236.0</ele><time>2026-04-12T14:25:24.028Z</time></trkpt><trkpt lat="42.839614" lon="12.6774581"><ele>236.0</ele><time>2026-04-12T14:25:25.032Z</time></trkpt><trkpt lat="42.8398507" lon="12.6775125"><ele>236.0</ele><time>2026-04-12T14:25:26.033Z</time></trkpt><trkpt lat="42.8401002" lon="12.677578"><ele>236.0</ele><time>2026-04-12T14:25:27.028Z</time></trkpt><trkpt lat="42.8403581" lon="12.6776665"><ele>234.5</ele><time>2026-04-12T14:25:28.04Z</time></trkpt><trkpt lat="42.8406201" lon="12.6777786"><ele>233.0</ele><time>2026-04-12T14:25:29.031Z</time></trkpt><trkpt lat="42.8408855" lon="12.6779029"><ele>233.5</ele><time>2026-04-12T14:25:30.034Z</time></trkpt><trkpt lat="42.8411521" lon="12.6780268"><ele>234.0</ele><time>2026-04-12T14:25:31.031Z</time></trkpt><trkpt lat="42.8414109" lon="12.6781415"><ele>234.0</ele><time>2026-04-12T14:25:32.032Z</time></trkpt><trkpt lat="42.8416603" lon="12.6782517"><ele>234.0</ele><time>2026-04-12T14:25:33.054Z</time></trkpt><trkpt lat="42.8419032" lon="12.6783749"><ele>233.5</ele><time>2026-04-12T14:25:34.04Z</time></trkpt><trkpt lat="42.8421415" lon="12.6785142"><ele>233.0</ele><time>2026-04-12T14:25:35.032Z</time></trkpt><trkpt lat="42.8423741" lon="12.6786665"><ele>233.0</ele><time>2026-04-12T14:25:36.03Z</time></trkpt><trkpt lat="42.8426014" lon="12.6788272"><ele>233.0</ele><time>2026-04-12T14:25:37.036Z</time></trkpt><trkpt lat="42.8428247" lon="12.6789933"><ele>231.5</ele><time>2026-04-12T14:25:38.032Z</time></trkpt><trkpt lat="42.843046" lon="12.6791633"><ele>230.0</ele><time>2026-04-12T14:25:39.039Z</time></trkpt><trkpt lat="42.8432658" lon="12.6793349"><ele>230.0</ele><time>2026-04-12T14:25:40.031Z</time></trkpt><trkpt lat="42.843486" lon="12.6795049"><ele>230.0</ele><time>2026-04-12T14:25:41.029Z</time></trkpt><trkpt lat="42.8437063" lon="12.6796742"><ele>230.0</ele><time>2026-04-12T14:25:42.028Z</time></trkpt><trkpt lat="42.8439254" lon="12.6798437"><ele>230.0</ele><time>2026-04-12T14:25:43.032Z</time></trkpt><trkpt lat="42.8441447" lon="12.6800135"><ele>230.0</ele><time>2026-04-12T14:25:44.051Z</time></trkpt><trkpt lat="42.8443622" lon="12.6801834"><ele>230.0</ele><time>2026-04-12T14:25:45.03Z</time></trkpt><trkpt lat="42.8445803" lon="12.6803532"><ele>230.0</ele><time>2026-04-12T14:25:46.031Z</time></trkpt><trkpt lat="42.8447981" lon="12.6805242"><ele>230.0</ele><time>2026-04-12T14:25:47.035Z</time></trkpt><trkpt lat="42.8450163" lon="12.680695"><ele>230.0</ele><time>2026-04-12T14:25:48.036Z</time></trkpt><trkpt lat="42.845235" lon="12.6808654"><ele>230.0</ele><time>2026-04-12T14:25:49.032Z</time></trkpt><trkpt lat="42.845454" lon="12.6810361"><ele>229.5</ele><time>2026-04-12T14:25:50.035Z</time></trkpt><trkpt lat="42.8456727" lon="12.6812071"><ele>229.0</ele><time>2026-04-12T14:25:51.035Z</time></trkpt><trkpt lat="42.8458842" lon="12.6813735"><ele>229.5</ele><time>2026-04-12T14:25:52.045Z</time></trkpt><trkpt lat="42.8460834" lon="12.681531"><ele>230.0</ele><time>2026-04-12T14:25:53.033Z</time></trkpt><trkpt lat="42.8462776" lon="12.6816855"><ele>230.0</ele><time>2026-04-12T14:25:54.031Z</time></trkpt><trkpt lat="42.8464646" lon="12.6818348"><ele>230.0</ele><time>2026-04-12T14:25:55.035Z</time></trkpt><trkpt lat="42.8466419" lon="12.6819765"><ele>230.0</ele><time>2026-04-12T14:25:56.035Z</time></trkpt><trkpt lat="42.8468145" lon="12.6821152"><ele>230.0</ele><time>2026-04-12T14:25:57.038Z</time></trkpt><trkpt lat="42.8469814" lon="12.6822504"><ele>230.0</ele><time>2026-04-12T14:25:58.033Z</time></trkpt><trkpt lat="42.8471403" lon="12.6823801"><ele>230.0</ele><time>2026-04-12T14:25:59.039Z</time></trkpt><trkpt lat="42.8472944" lon="12.6825068"><ele>230.0</ele><time>2026-04-12T14:26:00.034Z</time></trkpt><trkpt lat="42.8474469" lon="12.6826328"><ele>230.0</ele><time>2026-04-12T14:26:01.031Z</time></trkpt><trkpt lat="42.8476047" lon="12.6827534"><ele>230.0</ele><time>2026-04-12T14:26:02.034Z</time></trkpt><trkpt lat="42.8477733" lon="12.6828828"><ele>229.66666666666669</ele><time>2026-04-12T14:26:03.031Z</time></trkpt><trkpt lat="42.8479416" lon="12.6830252"><ele>229.33333333333331</ele><time>2026-04-12T14:26:04.032Z</time></trkpt><trkpt lat="42.8481177" lon="12.6831728"><ele>229.0</ele><time>2026-04-12T14:26:05.031Z</time></trkpt><trkpt lat="42.8483049" lon="12.6833264"><ele>229.0</ele><time>2026-04-12T14:26:06.032Z</time></trkpt><trkpt lat="42.8484865" lon="12.6834772"><ele>229.0</ele><time>2026-04-12T14:26:07.031Z</time></trkpt><trkpt lat="42.8486622" lon="12.6836223"><ele>229.0</ele><time>2026-04-12T14:26:08.033Z</time></trkpt><trkpt lat="42.8488391" lon="12.6837696"><ele>229.0</ele><time>2026-04-12T14:26:09.04Z</time></trkpt><trkpt lat="42.8490175" lon="12.6839196"><ele>229.0</ele><time>2026-04-12T14:26:10.03Z</time></trkpt><trkpt lat="42.8491983" lon="12.6840606"><ele>229.0</ele><time>2026-04-12T14:26:11.041Z</time></trkpt><trkpt lat="42.8493894" lon="12.6842043"><ele>228.0</ele><time>2026-04-12T14:26:12.035Z</time></trkpt><trkpt lat="42.8495822" lon="12.684362"><ele>227.0</ele><time>2026-04-12T14:26:13.032Z</time></trkpt><trkpt lat="42.8497766" lon="12.6845331"><ele>226.5</ele><time>2026-04-12T14:26:14.029Z</time></trkpt><trkpt lat="42.8499732" lon="12.6847099"><ele>226.0</ele><time>2026-04-12T14:26:15.031Z</time></trkpt><trkpt lat="42.8501737" lon="12.6848853"><ele>227.0</ele><time>2026-04-12T14:26:16.035Z</time></trkpt><trkpt lat="42.8503756" lon="12.6850564"><ele>228.0</ele><time>2026-04-12T14:26:17.032Z</time></trkpt><trkpt lat="42.8505784" lon="12.6852239"><ele>228.0</ele><time>2026-04-12T14:26:18.041Z</time></trkpt><trkpt lat="42.8507808" lon="12.6853903"><ele>228.0</ele><time>2026-04-12T14:26:19.034Z</time></trkpt><trkpt lat="42.8509827" lon="12.685555"><ele>228.0</ele><time>2026-04-12T14:26:20.035Z</time></trkpt><trkpt lat="42.8511831" lon="12.6857175"><ele>228.0</ele><time>2026-04-12T14:26:21.032Z</time></trkpt><trkpt lat="42.8513834" lon="12.6858773"><ele>228.0</ele><time>2026-04-12T14:26:22.034Z</time></trkpt><trkpt lat="42.8515809" lon="12.686036"><ele>228.0</ele><time>2026-04-12T14:26:23.037Z</time></trkpt><trkpt lat="42.8517732" lon="12.6861924"><ele>227.33333333333331</ele><time>2026-04-12T14:26:24.033Z</time></trkpt><trkpt lat="42.8519618" lon="12.6863466"><ele>226.66666666666666</ele><time>2026-04-12T14:26:25.033Z</time></trkpt><trkpt lat="42.8521499" lon="12.686501"><ele>226.0</ele><time>2026-04-12T14:26:26.032Z</time></trkpt><trkpt lat="42.8523389" lon="12.6866588"><ele>226.0</ele><time>2026-04-12T14:26:27.034Z</time></trkpt><trkpt lat="42.8525314" lon="12.6868199"><ele>226.0</ele><time>2026-04-12T14:26:28.034Z</time></trkpt><trkpt lat="42.852727" lon="12.6869854"><ele>226.5</ele><time>2026-04-12T14:26:29.034Z</time></trkpt><trkpt lat="42.8529249" lon="12.6871549"><ele>227.0</ele><time>2026-04-12T14:26:30.037Z</time></trkpt><trkpt lat="42.8531237" lon="12.6873271"><ele>227.0</ele><time>2026-04-12T14:26:31.035Z</time></trkpt><trkpt lat="42.8533211" lon="12.6874985"><ele>227.0</ele><time>2026-04-12T14:26:32.035Z</time></trkpt><trkpt lat="42.8535168" lon="12.6876688"><ele>226.0</ele><time>2026-04-12T14:26:33.035Z</time></trkpt><trkpt lat="42.8537117" lon="12.6878391"><ele>225.0</ele><time>2026-04-12T14:26:34.033Z</time></trkpt><trkpt lat="42.8539068" lon="12.6880114"><ele>225.0</ele><time>2026-04-12T14:26:35.033Z</time></trkpt><trkpt lat="42.8541019" lon="12.6881849"><ele>225.0</ele><time>2026-04-12T14:26:36.051Z</time></trkpt><trkpt lat="42.8542982" lon="12.6883582"><ele>225.0</ele><time>2026-04-12T14:26:37.032Z</time></trkpt><trkpt lat="42.8544962" lon="12.6885284"><ele>225.0</ele><time>2026-04-12T14:26:38.034Z</time></trkpt><trkpt lat="42.8546963" lon="12.688697"><ele>225.0</ele><time>2026-04-12T14:26:39.037Z</time></trkpt><trkpt lat="42.8548982" lon="12.6888635"><ele>225.0</ele><time>2026-04-12T14:26:40.029Z</time></trkpt><trkpt lat="42.8551017" lon="12.6890273"><ele>226.0</ele><time>2026-04-12T14:26:41.078Z</time></trkpt><trkpt lat="42.8553082" lon="12.6891871"><ele>227.0</ele><time>2026-04-12T14:26:42.03Z</time></trkpt><trkpt lat="42.8555176" lon="12.6893438"><ele>226.0</ele><time>2026-04-12T14:26:43.032Z</time></trkpt><trkpt lat="42.8557298" lon="12.6894989"><ele>225.0</ele><time>2026-04-12T14:26:44.03Z</time></trkpt><trkpt lat="42.8559431" lon="12.689653"><ele>225.5</ele><time>2026-04-12T14:26:45.039Z</time></trkpt><trkpt lat="42.8561508" lon="12.6898024"><ele>226.0</ele><time>2026-04-12T14:26:46.03Z</time></trkpt><trkpt lat="42.8563504" lon="12.6899461"><ele>226.0</ele><time>2026-04-12T14:26:47.032Z</time></trkpt><trkpt lat="42.8565405" lon="12.6900835"><ele>226.0</ele><time>2026-04-12T14:26:48.033Z</time></trkpt><trkpt lat="42.8567232" lon="12.6902156"><ele>226.0</ele><time>2026-04-12T14:26:49.032Z</time></trkpt><trkpt lat="42.8569018" lon="12.690345"><ele>225.33333333333331</ele><time>2026-04-12T14:26:50.042Z</time></trkpt><trkpt lat="42.8570768" lon="12.690472"><ele>224.66666666666669</ele><time>2026-04-12T14:26:51.034Z</time></trkpt><trkpt lat="42.8572497" lon="12.6905974"><ele>224.0</ele><time>2026-04-12T14:26:52.03Z</time></trkpt><trkpt lat="42.8574209" lon="12.6907205"><ele>224.0</ele><time>2026-04-12T14:26:53.031Z</time></trkpt><trkpt lat="42.8575907" lon="12.6908424"><ele>224.0</ele><time>2026-04-12T14:26:54.028Z</time></trkpt><trkpt lat="42.85776" lon="12.690964"><ele>224.0</ele><time>2026-04-12T14:26:55.046Z</time></trkpt><trkpt lat="42.8579306" lon="12.6910866"><ele>224.33333333333334</ele><time>2026-04-12T14:26:56.039Z</time></trkpt><trkpt lat="42.8581087" lon="12.6912154"><ele>224.66666666666669</ele><time>2026-04-12T14:26:57.032Z</time></trkpt><trkpt lat="42.8582976" lon="12.6913504"><ele>225.0</ele><time>2026-04-12T14:26:58.033Z</time></trkpt><trkpt lat="42.8584926" lon="12.6914894"><ele>223.5</ele><time>2026-04-12T14:26:59.035Z</time></trkpt><trkpt lat="42.858692" lon="12.6916311"><ele>222.0</ele><time>2026-04-12T14:27:00.043Z</time></trkpt><trkpt lat="42.8589015" lon="12.6917793"><ele>222.0</ele><time>2026-04-12T14:27:01.035Z</time></trkpt><trkpt lat="42.8591173" lon="12.6919328"><ele>222.0</ele><time>2026-04-12T14:27:02.036Z</time></trkpt><trkpt lat="42.8593374" lon="12.6920862"><ele>222.0</ele><time>2026-04-12T14:27:03.037Z</time></trkpt><trkpt lat="42.8595599" lon="12.6922421"><ele>222.0</ele><time>2026-04-12T14:27:04.033Z</time></trkpt><trkpt lat="42.8597792" lon="12.6924021"><ele>222.0</ele><time>2026-04-12T14:27:05.038Z</time></trkpt><trkpt lat="42.8599912" lon="12.6925687"><ele>222.0</ele><time>2026-04-12T14:27:06.035Z</time></trkpt><trkpt lat="42.8601874" lon="12.692739"><ele>221.66666666666669</ele><time>2026-04-12T14:27:07.037Z</time></trkpt><trkpt lat="42.8603751" lon="12.6929016"><ele>221.33333333333334</ele><time>2026-04-12T14:27:08.039Z</time></trkpt><trkpt lat="42.8605613" lon="12.6930523"><ele>221.0</ele><time>2026-04-12T14:27:09.029Z</time></trkpt><trkpt lat="42.8607423" lon="12.693193"><ele>221.0</ele><time>2026-04-12T14:27:10.035Z</time></trkpt><trkpt lat="42.8609221" lon="12.6933321"><ele>221.0</ele><time>2026-04-12T14:27:11.038Z</time></trkpt><trkpt lat="42.8611029" lon="12.6934704"><ele>221.0</ele><time>2026-04-12T14:27:12.031Z</time></trkpt><trkpt lat="42.8612854" lon="12.6936097"><ele>221.0</ele><time>2026-04-12T14:27:13.035Z</time></trkpt><trkpt lat="42.8614693" lon="12.6937501"><ele>221.0</ele><time>2026-04-12T14:27:14.036Z</time></trkpt><trkpt lat="42.8616553" lon="12.6938918"><ele>221.0</ele><time>2026-04-12T14:27:15.027Z</time></trkpt><trkpt lat="42.8618429" lon="12.6940318"><ele>221.0</ele><time>2026-04-12T14:27:16.029Z</time></trkpt><trkpt lat="42.8620326" lon="12.6941704"><ele>221.0</ele><time>2026-04-12T14:27:17.032Z</time></trkpt><trkpt lat="42.8622266" lon="12.6943082"><ele>221.0</ele><time>2026-04-12T14:27:18.032Z</time></trkpt><trkpt lat="42.8624245" lon="12.6944408"><ele>220.5</ele><time>2026-04-12T14:27:19.038Z</time></trkpt><trkpt lat="42.862629" lon="12.6945677"><ele>220.0</ele><time>2026-04-12T14:27:20.032Z</time></trkpt><trkpt lat="42.8628411" lon="12.6946982"><ele>220.0</ele><time>2026-04-12T14:27:21.029Z</time></trkpt><trkpt lat="42.8630626" lon="12.6948352"><ele>220.0</ele><time>2026-04-12T14:27:22.036Z</time></trkpt><trkpt lat="42.8632909" lon="12.6949767"><ele>219.0</ele><time>2026-04-12T14:27:23.032Z</time></trkpt><trkpt lat="42.8635187" lon="12.6951236"><ele>218.0</ele><time>2026-04-12T14:27:24.045Z</time></trkpt><trkpt lat="42.8637393" lon="12.6952753"><ele>218.0</ele><time>2026-04-12T14:27:25.03Z</time></trkpt><trkpt lat="42.8639522" lon="12.6954313"><ele>218.0</ele><time>2026-04-12T14:27:26.032Z</time></trkpt><trkpt lat="42.8641654" lon="12.6955852"><ele>219.0</ele><time>2026-04-12T14:27:27.026Z</time></trkpt><trkpt lat="42.8643806" lon="12.6957314"><ele>220.0</ele><time>2026-04-12T14:27:28.03Z</time></trkpt><trkpt lat="42.8645968" lon="12.6958723"><ele>220.0</ele><time>2026-04-12T14:27:29.026Z</time></trkpt><trkpt lat="42.864814" lon="12.6960121"><ele>220.0</ele><time>2026-04-12T14:27:30.035Z</time></trkpt><trkpt lat="42.8650314" lon="12.6961529"><ele>219.5</ele><time>2026-04-12T14:27:31.033Z</time></trkpt><trkpt lat="42.8652487" lon="12.6962949"><ele>219.0</ele><time>2026-04-12T14:27:32.029Z</time></trkpt><trkpt lat="42.8654662" lon="12.6964361"><ele>219.0</ele><time>2026-04-12T14:27:33.031Z</time></trkpt><trkpt lat="42.8656844" lon="12.6965717"><ele>219.0</ele><time>2026-04-12T14:27:34.034Z</time></trkpt><trkpt lat="42.8659047" lon="12.6967005"><ele>219.5</ele><time>2026-04-12T14:27:35.037Z</time></trkpt><trkpt lat="42.8661273" lon="12.6968179"><ele>220.0</ele><time>2026-04-12T14:27:36.032Z</time></trkpt><trkpt lat="42.8663523" lon="12.6969245"><ele>220.0</ele><time>2026-04-12T14:27:37.063Z</time></trkpt><trkpt lat="42.8665799" lon="12.6970253"><ele>220.0</ele><time>2026-04-12T14:27:38.033Z</time></trkpt><trkpt lat="42.8668102" lon="12.6971279"><ele>219.0</ele><time>2026-04-12T14:27:39.031Z</time></trkpt><trkpt lat="42.8670415" lon="12.6972322"><ele>218.0</ele><time>2026-04-12T14:27:40.031Z</time></trkpt><trkpt lat="42.8672742" lon="12.6973359"><ele>218.0</ele><time>2026-04-12T14:27:41.034Z</time></trkpt><trkpt lat="42.8675075" lon="12.6974395"><ele>218.0</ele><time>2026-04-12T14:27:42.043Z</time></trkpt><trkpt lat="42.8677412" lon="12.6975432"><ele>218.0</ele><time>2026-04-12T14:27:43.03Z</time></trkpt><trkpt lat="42.8679746" lon="12.6976475"><ele>218.0</ele><time>2026-04-12T14:27:44.032Z</time></trkpt><trkpt lat="42.8682074" lon="12.6977508"><ele>218.0</ele><time>2026-04-12T14:27:45.028Z</time></trkpt><trkpt lat="42.8684394" lon="12.6978545"><ele>218.0</ele><time>2026-04-12T14:27:46.031Z</time></trkpt><trkpt lat="42.868671" lon="12.697959"><ele>218.0</ele><time>2026-04-12T14:27:47.029Z</time></trkpt><trkpt lat="42.868902" lon="12.6980641"><ele>218.0</ele><time>2026-04-12T14:27:48.031Z</time></trkpt><trkpt lat="42.869125" lon="12.6981667"><ele>218.0</ele><time>2026-04-12T14:27:49.033Z</time></trkpt><trkpt lat="42.869335" lon="12.698265"><ele>218.0</ele><time>2026-04-12T14:27:50.035Z</time></trkpt><trkpt lat="42.8695339" lon="12.6983545"><ele>218.0</ele><time>2026-04-12T14:27:51.035Z</time></trkpt><trkpt lat="42.8697284" lon="12.6984257"><ele>218.0</ele><time>2026-04-12T14:27:52.032Z</time></trkpt><trkpt lat="42.8699265" lon="12.6984622"><ele>218.0</ele><time>2026-04-12T14:27:53.03Z</time></trkpt><trkpt lat="42.8701257" lon="12.6984617"><ele>218.0</ele><time>2026-04-12T14:27:54.029Z</time></trkpt><trkpt lat="42.8703201" lon="12.6984402"><ele>217.66666666666669</ele><time>2026-04-12T14:27:55.028Z</time></trkpt><trkpt lat="42.8705011" lon="12.6984122"><ele>217.33333333333331</ele><time>2026-04-12T14:27:56.032Z</time></trkpt><trkpt lat="42.8706678" lon="12.6983853"><ele>217.0</ele><time>2026-04-12T14:27:57.039Z</time></trkpt><trkpt lat="42.8708187" lon="12.6983626"><ele>217.0</ele><time>2026-04-12T14:27:58.03Z</time></trkpt><trkpt lat="42.8709602" lon="12.6983477"><ele>217.0</ele><time>2026-04-12T14:27:59.033Z</time></trkpt><trkpt lat="42.871094" lon="12.6983585"><ele>217.0</ele><time>2026-04-12T14:28:00.033Z</time></trkpt><trkpt lat="42.8712164" lon="12.6984152"><ele>217.0</ele><time>2026-04-12T14:28:01.033Z</time></trkpt><trkpt lat="42.8713093" lon="12.6985164"><ele>217.0</ele><time>2026-04-12T14:28:02.033Z</time></trkpt><trkpt lat="42.8713679" lon="12.6986522"><ele>217.0</ele><time>2026-04-12T14:28:03.031Z</time></trkpt><trkpt lat="42.8713907" lon="12.698809"><ele>217.0</ele><time>2026-04-12T14:28:04.031Z</time></trkpt><trkpt lat="42.8713836" lon="12.6989814"><ele>217.0</ele><time>2026-04-12T14:28:05.054Z</time></trkpt><trkpt lat="42.8713583" lon="12.6991726"><ele>217.0</ele><time>2026-04-12T14:28:06.034Z</time></trkpt><trkpt lat="42.8713315" lon="12.6993661"><ele>217.0</ele><time>2026-04-12T14:28:07.042Z</time></trkpt><trkpt lat="42.8712943" lon="12.6995864"><ele>217.0</ele><time>2026-04-12T14:28:08.032Z</time></trkpt><trkpt lat="42.8712539" lon="12.6998219"><ele>217.0</ele><time>2026-04-12T14:28:09.039Z</time></trkpt><trkpt lat="42.8712169" lon="12.7000681"><ele>217.0</ele><time>2026-04-12T14:28:10.033Z</time></trkpt><trkpt lat="42.8711731" lon="12.7003162"><ele>217.0</ele><time>2026-04-12T14:28:11.035Z</time></trkpt><trkpt lat="42.8711338" lon="12.7005544"><ele>217.0</ele><time>2026-04-12T14:28:12.037Z</time></trkpt><trkpt lat="42.8710945" lon="12.7007989"><ele>217.0</ele><time>2026-04-12T14:28:13.032Z</time></trkpt><trkpt lat="42.8710526" lon="12.7010671"><ele>217.0</ele><time>2026-04-12T14:28:14.048Z</time></trkpt><trkpt lat="42.8710089" lon="12.7013645"><ele>216.5</ele><time>2026-04-12T14:28:15.032Z</time></trkpt><trkpt lat="42.8709655" lon="12.7016866"><ele>216.0</ele><time>2026-04-12T14:28:16.042Z</time></trkpt><trkpt lat="42.8709133" lon="12.7020258"><ele>216.0</ele><time>2026-04-12T14:28:17.035Z</time></trkpt><trkpt lat="42.8708547" lon="12.7023504"><ele>216.0</ele><time>2026-04-12T14:28:18.039Z</time></trkpt><trkpt lat="42.8707937" lon="12.7026642"><ele>216.5</ele><time>2026-04-12T14:28:19.032Z</time></trkpt><trkpt lat="42.8707369" lon="12.7029756"><ele>217.0</ele><time>2026-04-12T14:28:20.029Z</time></trkpt><trkpt lat="42.8706871" lon="12.7032805"><ele>216.66666666666666</ele><time>2026-04-12T14:28:21.028Z</time></trkpt><trkpt lat="42.8706388" lon="12.7035827"><ele>216.33333333333331</ele><time>2026-04-12T14:28:22.031Z</time></trkpt><trkpt lat="42.8705912" lon="12.7038725"><ele>216.0</ele><time>2026-04-12T14:28:23.03Z</time></trkpt><trkpt lat="42.8705475" lon="12.7041435"><ele>216.0</ele><time>2026-04-12T14:28:24.038Z</time></trkpt><trkpt lat="42.8705053" lon="12.7043999"><ele>216.0</ele><time>2026-04-12T14:28:25.033Z</time></trkpt><trkpt lat="42.8704622" lon="12.7046451"><ele>216.0</ele><time>2026-04-12T14:28:26.032Z</time></trkpt><trkpt lat="42.8704213" lon="12.7048877"><ele>215.66666666666669</ele><time>2026-04-12T14:28:27.032Z</time></trkpt><trkpt lat="42.870381" lon="12.7051475"><ele>215.33333333333334</ele><time>2026-04-12T14:28:28.034Z</time></trkpt><trkpt lat="42.8703404" lon="12.7054192"><ele>215.0</ele><time>2026-04-12T14:28:29.031Z</time></trkpt><trkpt lat="42.8702966" lon="12.7057034"><ele>215.0</ele><time>2026-04-12T14:28:30.032Z</time></trkpt><trkpt lat="42.8702474" lon="12.7059982"><ele>215.0</ele><time>2026-04-12T14:28:31.034Z</time></trkpt><trkpt lat="42.8701976" lon="12.7062992"><ele>215.0</ele><time>2026-04-12T14:28:32.034Z</time></trkpt><trkpt lat="42.8701511" lon="12.7065975"><ele>215.0</ele><time>2026-04-12T14:28:33.035Z</time></trkpt><trkpt lat="42.8701133" lon="12.7068839"><ele>215.0</ele><time>2026-04-12T14:28:34.031Z</time></trkpt><trkpt lat="42.8700841" lon="12.7071585"><ele>215.0</ele><time>2026-04-12T14:28:35.038Z</time></trkpt><trkpt lat="42.8700642" lon="12.7074279"><ele>215.0</ele><time>2026-04-12T14:28:36.035Z</time></trkpt><trkpt lat="42.8700543" lon="12.7076933"><ele>215.0</ele><time>2026-04-12T14:28:37.036Z</time></trkpt><trkpt lat="42.870083" lon="12.7079536"><ele>215.0</ele><time>2026-04-12T14:28:38.036Z</time></trkpt><trkpt lat="42.870133" lon="12.7082041"><ele>214.66666666666669</ele><time>2026-04-12T14:28:39.036Z</time></trkpt><trkpt lat="42.8702001" lon="12.7084542"><ele>214.33333333333331</ele><time>2026-04-12T14:28:40.057Z</time></trkpt><trkpt lat="42.8702743" lon="12.7087053"><ele>214.0</ele><time>2026-04-12T14:28:41.034Z</time></trkpt><trkpt lat="42.8703468" lon="12.708954"><ele>214.0</ele><time>2026-04-12T14:28:42.031Z</time></trkpt><trkpt lat="42.870412" lon="12.709195"><ele>214.0</ele><time>2026-04-12T14:28:43.034Z</time></trkpt><trkpt lat="42.8704747" lon="12.7094313"><ele>214.0</ele><time>2026-04-12T14:28:44.038Z</time></trkpt><trkpt lat="42.8705222" lon="12.7096613"><ele>214.0</ele><time>2026-04-12T14:28:45.037Z</time></trkpt><trkpt lat="42.8705424" lon="12.7099028"><ele>214.0</ele><time>2026-04-12T14:28:46.041Z</time></trkpt><trkpt lat="42.8705326" lon="12.7101581"><ele>214.0</ele><time>2026-04-12T14:28:47.034Z</time></trkpt><trkpt lat="42.8705019" lon="12.7104173"><ele>214.0</ele><time>2026-04-12T14:28:48.036Z</time></trkpt><trkpt lat="42.8704617" lon="12.7106779"><ele>214.0</ele><time>2026-04-12T14:28:49.029Z</time></trkpt><trkpt lat="42.8704198" lon="12.710938"><ele>214.0</ele><time>2026-04-12T14:28:50.037Z</time></trkpt><trkpt lat="42.8703781" lon="12.7112007"><ele>214.0</ele><time>2026-04-12T14:28:51.036Z</time></trkpt><trkpt lat="42.8703375" lon="12.7114653"><ele>214.0</ele><time>2026-04-12T14:28:52.033Z</time></trkpt><trkpt lat="42.8702956" lon="12.7117337"><ele>214.0</ele><time>2026-04-12T14:28:53.03Z</time></trkpt><trkpt lat="42.870254" lon="12.7120047"><ele>213.66666666666666</ele><time>2026-04-12T14:28:54.035Z</time></trkpt><trkpt lat="42.8702125" lon="12.7122765"><ele>213.33333333333331</ele><time>2026-04-12T14:28:55.037Z</time></trkpt><trkpt lat="42.870173" lon="12.7125353"><ele>213.0</ele><time>2026-04-12T14:28:56.03Z</time></trkpt><trkpt lat="42.8701346" lon="12.7127798"><ele>213.33333333333331</ele><time>2026-04-12T14:28:57.037Z</time></trkpt><trkpt lat="42.870097" lon="12.7130117"><ele>213.66666666666666</ele><time>2026-04-12T14:28:58.033Z</time></trkpt><trkpt lat="42.8700623" lon="12.7132338"><ele>214.0</ele><time>2026-04-12T14:28:59.038Z</time></trkpt><trkpt lat="42.8700289" lon="12.7134603"><ele>214.66666666666666</ele><time>2026-04-12T14:29:00.035Z</time></trkpt><trkpt lat="42.8699942" lon="12.7136965"><ele>215.33333333333331</ele><time>2026-04-12T14:29:01.035Z</time></trkpt><trkpt lat="42.8699615" lon="12.7139401"><ele>216.0</ele><time>2026-04-12T14:29:02.053Z</time></trkpt><trkpt lat="42.8699366" lon="12.7141797"><ele>215.66666666666669</ele><time>2026-04-12T14:29:03.03Z</time></trkpt><trkpt lat="42.8699235" lon="12.7144141"><ele>215.33333333333334</ele><time>2026-04-12T14:29:04.034Z</time></trkpt><trkpt lat="42.8699165" lon="12.7146252"><ele>215.0</ele><time>2026-04-12T14:29:05.034Z</time></trkpt><trkpt lat="42.869911" lon="12.7148082"><ele>215.0</ele><time>2026-04-12T14:29:06.031Z</time></trkpt><trkpt lat="42.8699071" lon="12.7149614"><ele>215.0</ele><time>2026-04-12T14:29:07.035Z</time></trkpt><trkpt lat="42.8699059" lon="12.7150899"><ele>215.0</ele><time>2026-04-12T14:29:08.037Z</time></trkpt><trkpt lat="42.8699069" lon="12.7151952"><ele>215.0</ele><time>2026-04-12T14:29:09.031Z</time></trkpt><trkpt lat="42.8699072" lon="12.7153745"><ele>215.0</ele><time>2026-04-12T14:29:11.038Z</time></trkpt><trkpt lat="42.8699319" lon="12.7154772"><ele>214.5</ele><time>2026-04-12T14:29:12.031Z</time></trkpt><trkpt lat="42.8699898" lon="12.7155953"><ele>214.0</ele><time>2026-04-12T14:29:13.035Z</time></trkpt><trkpt lat="42.8700464" lon="12.7157407"><ele>213.5</ele><time>2026-04-12T14:29:14.033Z</time></trkpt><trkpt lat="42.8701027" lon="12.7159055"><ele>213.0</ele><time>2026-04-12T14:29:15.034Z</time></trkpt><trkpt lat="42.870085" lon="12.7161297"><ele>213.0</ele><time>2026-04-12T14:29:16.033Z</time></trkpt><trkpt lat="42.8700654" lon="12.7163769"><ele>213.0</ele><time>2026-04-12T14:29:17.049Z</time></trkpt><trkpt lat="42.8700404" lon="12.7166406"><ele>213.0</ele><time>2026-04-12T14:29:18.035Z</time></trkpt><trkpt lat="42.8700114" lon="12.7169073"><ele>213.0</ele><time>2026-04-12T14:29:19.034Z</time></trkpt><trkpt lat="42.8699816" lon="12.7171707"><ele>213.0</ele><time>2026-04-12T14:29:20.03Z</time></trkpt><trkpt lat="42.8699519" lon="12.7174346"><ele>213.0</ele><time>2026-04-12T14:29:21.031Z</time></trkpt><trkpt lat="42.8699263" lon="12.717699"><ele>212.66666666666669</ele><time>2026-04-12T14:29:22.036Z</time></trkpt><trkpt lat="42.8698994" lon="12.7179657"><ele>212.33333333333334</ele><time>2026-04-12T14:29:23.033Z</time></trkpt><trkpt lat="42.8698717" lon="12.7182362"><ele>212.0</ele><time>2026-04-12T14:29:24.032Z</time></trkpt><trkpt lat="42.8698454" lon="12.7185132"><ele>212.33333333333334</ele><time>2026-04-12T14:29:25.035Z</time></trkpt><trkpt lat="42.8698178" lon="12.7187888"><ele>212.66666666666669</ele><time>2026-04-12T14:29:26.033Z</time></trkpt><trkpt lat="42.8697916" lon="12.7190644"><ele>213.0</ele><time>2026-04-12T14:29:27.067Z</time></trkpt><trkpt lat="42.8697666" lon="12.7193397"><ele>213.33333333333331</ele><time>2026-04-12T14:29:28.035Z</time></trkpt><trkpt lat="42.869748" lon="12.7196152"><ele>213.66666666666666</ele><time>2026-04-12T14:29:29.034Z</time></trkpt><trkpt lat="42.8697345" lon="12.7198865"><ele>214.0</ele><time>2026-04-12T14:29:30.028Z</time></trkpt><trkpt lat="42.8697237" lon="12.7201552"><ele>213.66666666666666</ele><time>2026-04-12T14:29:31.029Z</time></trkpt><trkpt lat="42.8697175" lon="12.7204219"><ele>213.33333333333331</ele><time>2026-04-12T14:29:32.036Z</time></trkpt><trkpt lat="42.86972" lon="12.720691"><ele>213.0</ele><time>2026-04-12T14:29:33.032Z</time></trkpt><trkpt lat="42.8697382" lon="12.7209623"><ele>213.0</ele><time>2026-04-12T14:29:34.05Z</time></trkpt><trkpt lat="42.8697738" lon="12.7212364"><ele>213.0</ele><time>2026-04-12T14:29:35.032Z</time></trkpt><trkpt lat="42.8698263" lon="12.7215114"><ele>213.0</ele><time>2026-04-12T14:29:36.033Z</time></trkpt><trkpt lat="42.8698924" lon="12.7217871"><ele>212.66666666666669</ele><time>2026-04-12T14:29:37.034Z</time></trkpt><trkpt lat="42.869967" lon="12.7220644"><ele>212.33333333333334</ele><time>2026-04-12T14:29:38.032Z</time></trkpt><trkpt lat="42.8700435" lon="12.7223412"><ele>212.0</ele><time>2026-04-12T14:29:39.033Z</time></trkpt><trkpt lat="42.8701173" lon="12.7226129"><ele>212.0</ele><time>2026-04-12T14:29:40.036Z</time></trkpt><trkpt lat="42.8701887" lon="12.7228756"><ele>212.0</ele><time>2026-04-12T14:29:41.036Z</time></trkpt><trkpt lat="42.8702567" lon="12.7231273"><ele>212.0</ele><time>2026-04-12T14:29:42.032Z</time></trkpt><trkpt lat="42.8703182" lon="12.7233678"><ele>212.33333333333334</ele><time>2026-04-12T14:29:43.04Z</time></trkpt><trkpt lat="42.8703723" lon="12.7236069"><ele>212.66666666666669</ele><time>2026-04-12T14:29:44.032Z</time></trkpt><trkpt lat="42.8704173" lon="12.7238506"><ele>213.0</ele><time>2026-04-12T14:29:45.033Z</time></trkpt><trkpt lat="42.8704518" lon="12.7240986"><ele>213.0</ele><time>2026-04-12T14:29:46.033Z</time></trkpt><trkpt lat="42.8704758" lon="12.7243356"><ele>213.0</ele><time>2026-04-12T14:29:47.032Z</time></trkpt><trkpt lat="42.8704903" lon="12.7245401"><ele>213.0</ele><time>2026-04-12T14:29:48.035Z</time></trkpt><trkpt lat="42.8704989" lon="12.7247093"><ele>213.0</ele><time>2026-04-12T14:29:49.035Z</time></trkpt><trkpt lat="42.8705034" lon="12.724841"><ele>213.0</ele><time>2026-04-12T14:29:50.032Z</time></trkpt><trkpt lat="42.8705063" lon="12.724937"><ele>213.0</ele><time>2026-04-12T14:29:51.032Z</time></trkpt><trkpt lat="42.8705146" lon="12.72508"><ele>213.0</ele><time>2026-04-12T14:29:53.031Z</time></trkpt><trkpt lat="42.8705177" lon="12.7251984"><ele>213.0</ele><time>2026-04-12T14:29:55.037Z</time></trkpt><trkpt lat="42.8705159" lon="12.7253522"><ele>213.4</ele><time>2026-04-12T14:30:33.037Z</time></trkpt><trkpt lat="42.8705204" lon="12.7254936"><ele>213.8</ele><time>2026-04-12T14:30:35.033Z</time></trkpt><trkpt lat="42.8705222" lon="12.725586"><ele>214.2</ele><time>2026-04-12T14:30:36.035Z</time></trkpt><trkpt lat="42.8705228" lon="12.7256956"><ele>214.6</ele><time>2026-04-12T14:30:37.052Z</time></trkpt><trkpt lat="42.8705248" lon="12.7258218"><ele>215.0</ele><time>2026-04-12T14:30:38.031Z</time></trkpt><trkpt lat="42.8705292" lon="12.7259705"><ele>215.5</ele><time>2026-04-12T14:30:39.033Z</time></trkpt><trkpt lat="42.870537" lon="12.7261323"><ele>216.0</ele><time>2026-04-12T14:30:40.042Z</time></trkpt><trkpt lat="42.8705507" lon="12.7263049"><ele>216.5</ele><time>2026-04-12T14:30:41.035Z</time></trkpt><trkpt lat="42.8705756" lon="12.7264816"><ele>217.0</ele><time>2026-04-12T14:30:42.043Z</time></trkpt><trkpt lat="42.8706131" lon="12.7266625"><ele>217.0</ele><time>2026-04-12T14:30:43.031Z</time></trkpt><trkpt lat="42.8706594" lon="12.7268471"><ele>217.0</ele><time>2026-04-12T14:30:44.037Z</time></trkpt><trkpt lat="42.8707084" lon="12.7270344"><ele>217.0</ele><time>2026-04-12T14:30:45.031Z</time></trkpt><trkpt lat="42.870758" lon="12.7272221"><ele>217.0</ele><time>2026-04-12T14:30:46.036Z</time></trkpt><trkpt lat="42.8708077" lon="12.7274138"><ele>216.75</ele><time>2026-04-12T14:30:47.043Z</time></trkpt><trkpt lat="42.8708547" lon="12.7275964"><ele>216.5</ele><time>2026-04-12T14:30:48.031Z</time></trkpt><trkpt lat="42.8708984" lon="12.7277695"><ele>216.25</ele><time>2026-04-12T14:30:49.049Z</time></trkpt><trkpt lat="42.8709381" lon="12.7279337"><ele>216.0</ele><time>2026-04-12T14:30:50.035Z</time></trkpt><trkpt lat="42.8709728" lon="12.7280825"><ele>215.20000000000002</ele><time>2026-04-12T14:30:51.031Z</time></trkpt><trkpt lat="42.8710023" lon="12.728216"><ele>214.40000000000003</ele><time>2026-04-12T14:30:52.035Z</time></trkpt><trkpt lat="42.8710223" lon="12.728337"><ele>213.6</ele><time>2026-04-12T14:30:53.035Z</time></trkpt><trkpt lat="42.871025" lon="12.728453"><ele>212.8</ele><time>2026-04-12T14:30:54.036Z</time></trkpt><trkpt lat="42.8710213" lon="12.7285602"><ele>212.0</ele><time>2026-04-12T14:30:55.035Z</time></trkpt><trkpt lat="42.87099" lon="12.7286927"><ele>211.8</ele><time>2026-04-12T14:30:56.034Z</time></trkpt><trkpt lat="42.8709683" lon="12.7288386"><ele>211.6</ele><time>2026-04-12T14:30:57.034Z</time></trkpt><trkpt lat="42.8709644" lon="12.7289939"><ele>211.4</ele><time>2026-04-12T14:30:58.034Z</time></trkpt><trkpt lat="42.8709706" lon="12.729145"><ele>211.20000000000002</ele><time>2026-04-12T14:30:59.036Z</time></trkpt><trkpt lat="42.8709811" lon="12.7292859"><ele>211.0</ele><time>2026-04-12T14:31:00.035Z</time></trkpt><trkpt lat="42.8709938" lon="12.7294172"><ele>211.0</ele><time>2026-04-12T14:31:01.035Z</time></trkpt><trkpt lat="42.8710215" lon="12.729546"><ele>211.0</ele><time>2026-04-12T14:31:02.035Z</time></trkpt><trkpt lat="42.8710742" lon="12.7296534"><ele>211.0</ele><time>2026-04-12T14:31:03.04Z</time></trkpt><trkpt lat="42.8711464" lon="12.7297244"><ele>211.0</ele><time>2026-04-12T14:31:04.034Z</time></trkpt><trkpt lat="42.8712312" lon="12.72975"><ele>211.0</ele><time>2026-04-12T14:31:05.053Z</time></trkpt><trkpt lat="42.871321" lon="12.7297321"><ele>211.0</ele><time>2026-04-12T14:31:06.027Z</time></trkpt><trkpt lat="42.8714082" lon="12.7296662"><ele>211.0</ele><time>2026-04-12T14:31:07.036Z</time></trkpt><trkpt lat="42.8714934" lon="12.7295706"><ele>211.0</ele><time>2026-04-12T14:31:08.042Z</time></trkpt><trkpt lat="42.8715942" lon="12.72948"><ele>211.0</ele><time>2026-04-12T14:31:09.036Z</time></trkpt><trkpt lat="42.8717149" lon="12.7294117"><ele>211.25</ele><time>2026-04-12T14:31:10.046Z</time></trkpt><trkpt lat="42.8718454" lon="12.7293635"><ele>211.5</ele><time>2026-04-12T14:31:11.037Z</time></trkpt><trkpt lat="42.8719914" lon="12.7293616"><ele>211.75</ele><time>2026-04-12T14:31:12.035Z</time></trkpt><trkpt lat="42.8721531" lon="12.7293764"><ele>212.0</ele><time>2026-04-12T14:31:13.029Z</time></trkpt><trkpt lat="42.8723217" lon="12.7293967"><ele>212.33333333333334</ele><time>2026-04-12T14:31:14.037Z</time></trkpt><trkpt lat="42.8725081" lon="12.7294207"><ele>212.66666666666669</ele><time>2026-04-12T14:31:15.037Z</time></trkpt><trkpt lat="42.8727096" lon="12.7294484"><ele>213.0</ele><time>2026-04-12T14:31:16.036Z</time></trkpt><trkpt lat="42.8729219" lon="12.7294802"><ele>213.5</ele><time>2026-04-12T14:31:17.03Z</time></trkpt><trkpt lat="42.8731469" lon="12.729514"><ele>214.0</ele><time>2026-04-12T14:31:18.035Z</time></trkpt><trkpt lat="42.8733736" lon="12.7295578"><ele>213.0</ele><time>2026-04-12T14:31:19.036Z</time></trkpt><trkpt lat="42.8735984" lon="12.7296168"><ele>212.0</ele><time>2026-04-12T14:31:20.04Z</time></trkpt><trkpt lat="42.8738275" lon="12.7296941"><ele>212.0</ele><time>2026-04-12T14:31:21.046Z</time></trkpt><trkpt lat="42.8740589" lon="12.7297858"><ele>212.0</ele><time>2026-04-12T14:31:22.036Z</time></trkpt><trkpt lat="42.8742999" lon="12.7298835"><ele>211.0</ele><time>2026-04-12T14:31:23.036Z</time></trkpt><trkpt lat="42.8745444" lon="12.7299836"><ele>210.0</ele><time>2026-04-12T14:31:24.035Z</time></trkpt><trkpt lat="42.8747901" lon="12.7300842"><ele>210.0</ele><time>2026-04-12T14:31:25.032Z</time></trkpt><trkpt lat="42.8750378" lon="12.7301855"><ele>210.0</ele><time>2026-04-12T14:31:26.064Z</time></trkpt><trkpt lat="42.8752907" lon="12.7302871"><ele>209.5</ele><time>2026-04-12T14:31:27.031Z</time></trkpt><trkpt lat="42.8755481" lon="12.7303806"><ele>209.0</ele><time>2026-04-12T14:31:28.034Z</time></trkpt><trkpt lat="42.8758114" lon="12.7304608"><ele>208.5</ele><time>2026-04-12T14:31:29.033Z</time></trkpt><trkpt lat="42.8760792" lon="12.7305264"><ele>208.0</ele><time>2026-04-12T14:31:30.04Z</time></trkpt><trkpt lat="42.8763512" lon="12.730575"><ele>208.0</ele><time>2026-04-12T14:31:31.034Z</time></trkpt><trkpt lat="42.8766285" lon="12.7306054"><ele>208.0</ele><time>2026-04-12T14:31:32.032Z</time></trkpt><trkpt lat="42.8769087" lon="12.7306201"><ele>208.0</ele><time>2026-04-12T14:31:33.041Z</time></trkpt><trkpt lat="42.8771924" lon="12.7306185"><ele>208.0</ele><time>2026-04-12T14:31:34.033Z</time></trkpt><trkpt lat="42.8774789" lon="12.7306009"><ele>208.0</ele><time>2026-04-12T14:31:35.036Z</time></trkpt><trkpt lat="42.8777664" lon="12.7305646"><ele>208.0</ele><time>2026-04-12T14:31:36.037Z</time></trkpt><trkpt lat="42.878055" lon="12.7305089"><ele>208.0</ele><time>2026-04-12T14:31:37.037Z</time></trkpt><trkpt lat="42.8783422" lon="12.7304364"><ele>208.0</ele><time>2026-04-12T14:31:38.032Z</time></trkpt><trkpt lat="42.8786265" lon="12.7303428"><ele>208.0</ele><time>2026-04-12T14:31:39.031Z</time></trkpt><trkpt lat="42.8789081" lon="12.7302282"><ele>208.0</ele><time>2026-04-12T14:31:40.028Z</time></trkpt><trkpt lat="42.8791866" lon="12.7300995"><ele>208.0</ele><time>2026-04-12T14:31:41.033Z</time></trkpt><trkpt lat="42.8794614" lon="12.7299585"><ele>208.0</ele><time>2026-04-12T14:31:42.037Z</time></trkpt><trkpt lat="42.8797323" lon="12.7298075"><ele>208.0</ele><time>2026-04-12T14:31:43.037Z</time></trkpt><trkpt lat="42.88" lon="12.7296514"><ele>208.0</ele><time>2026-04-12T14:31:44.033Z</time></trkpt><trkpt lat="42.8802652" lon="12.7294926"><ele>207.5</ele><time>2026-04-12T14:31:45.057Z</time></trkpt><trkpt lat="42.8805264" lon="12.7293302"><ele>207.0</ele><time>2026-04-12T14:31:46.033Z</time></trkpt><trkpt lat="42.880786" lon="12.7291662"><ele>208.0</ele><time>2026-04-12T14:31:47.038Z</time></trkpt><trkpt lat="42.8810448" lon="12.7290053"><ele>209.0</ele><time>2026-04-12T14:31:48.035Z</time></trkpt><trkpt lat="42.8813038" lon="12.7288495"><ele>209.0</ele><time>2026-04-12T14:31:49.036Z</time></trkpt><trkpt lat="42.8815582" lon="12.7287022"><ele>209.0</ele><time>2026-04-12T14:31:50.033Z</time></trkpt><trkpt lat="42.8818022" lon="12.7285628"><ele>209.5</ele><time>2026-04-12T14:31:51.033Z</time></trkpt><trkpt lat="42.8820417" lon="12.7284257"><ele>210.0</ele><time>2026-04-12T14:31:52.038Z</time></trkpt><trkpt lat="42.8822817" lon="12.7282888"><ele>210.0</ele><time>2026-04-12T14:31:53.035Z</time></trkpt><trkpt lat="42.8825226" lon="12.7281506"><ele>210.0</ele><time>2026-04-12T14:31:54.038Z</time></trkpt><trkpt lat="42.8827641" lon="12.7280098"><ele>209.5</ele><time>2026-04-12T14:31:55.035Z</time></trkpt><trkpt lat="42.8830055" lon="12.7278661"><ele>209.0</ele><time>2026-04-12T14:31:56.033Z</time></trkpt><trkpt lat="42.8832475" lon="12.7277215"><ele>209.0</ele><time>2026-04-12T14:31:57.031Z</time></trkpt><trkpt lat="42.8834902" lon="12.7275769"><ele>209.0</ele><time>2026-04-12T14:31:58.034Z</time></trkpt><trkpt lat="42.883733" lon="12.7274314"><ele>209.0</ele><time>2026-04-12T14:31:59.045Z</time></trkpt><trkpt lat="42.8839758" lon="12.7272851"><ele>209.0</ele><time>2026-04-12T14:32:00.033Z</time></trkpt><trkpt lat="42.8842184" lon="12.7271385"><ele>209.5</ele><time>2026-04-12T14:32:01.035Z</time></trkpt><trkpt lat="42.8844599" lon="12.7269933"><ele>210.0</ele><time>2026-04-12T14:32:02.035Z</time></trkpt><trkpt lat="42.8846994" lon="12.7268499"><ele>208.5</ele><time>2026-04-12T14:32:03.033Z</time></trkpt><trkpt lat="42.884937" lon="12.7267085"><ele>207.0</ele><time>2026-04-12T14:32:04.033Z</time></trkpt><trkpt lat="42.8851739" lon="12.7265671"><ele>207.0</ele><time>2026-04-12T14:32:05.038Z</time></trkpt><trkpt lat="42.8854102" lon="12.7264239"><ele>207.0</ele><time>2026-04-12T14:32:06.036Z</time></trkpt><trkpt lat="42.8856471" lon="12.7262794"><ele>207.0</ele><time>2026-04-12T14:32:07.039Z</time></trkpt><trkpt lat="42.8858862" lon="12.7261344"><ele>207.0</ele><time>2026-04-12T14:32:08.036Z</time></trkpt><trkpt lat="42.8861287" lon="12.725988"><ele>207.0</ele><time>2026-04-12T14:32:09.035Z</time></trkpt><trkpt lat="42.8863751" lon="12.7258389"><ele>207.0</ele><time>2026-04-12T14:32:10.033Z</time></trkpt><trkpt lat="42.8866261" lon="12.7256881"><ele>208.0</ele><time>2026-04-12T14:32:11.037Z</time></trkpt><trkpt lat="42.8868789" lon="12.7255375"><ele>209.0</ele><time>2026-04-12T14:32:12.033Z</time></trkpt><trkpt lat="42.8871323" lon="12.7253874"><ele>209.0</ele><time>2026-04-12T14:32:13.036Z</time></trkpt><trkpt lat="42.8873867" lon="12.7252367"><ele>209.0</ele><time>2026-04-12T14:32:14.037Z</time></trkpt><trkpt lat="42.8876411" lon="12.7250852"><ele>208.0</ele><time>2026-04-12T14:32:15.036Z</time></trkpt><trkpt lat="42.8878942" lon="12.7249339"><ele>207.0</ele><time>2026-04-12T14:32:16.034Z</time></trkpt><trkpt lat="42.888146" lon="12.7247838"><ele>207.0</ele><time>2026-04-12T14:32:17.033Z</time></trkpt><trkpt lat="42.8883965" lon="12.7246346"><ele>207.0</ele><time>2026-04-12T14:32:18.056Z</time></trkpt><trkpt lat="42.8886469" lon="12.7244861"><ele>206.5</ele><time>2026-04-12T14:32:19.033Z</time></trkpt><trkpt lat="42.8888981" lon="12.7243376"><ele>206.0</ele><time>2026-04-12T14:32:20.028Z</time></trkpt><trkpt lat="42.8891496" lon="12.7241897"><ele>206.5</ele><time>2026-04-12T14:32:21.027Z</time></trkpt><trkpt lat="42.8894019" lon="12.724043"><ele>207.0</ele><time>2026-04-12T14:32:22.036Z</time></trkpt><trkpt lat="42.8896545" lon="12.7238975"><ele>207.0</ele><time>2026-04-12T14:32:23.03Z</time></trkpt><trkpt lat="42.8899083" lon="12.7237523"><ele>207.0</ele><time>2026-04-12T14:32:24.038Z</time></trkpt><trkpt lat="42.8901636" lon="12.7236085"><ele>205.5</ele><time>2026-04-12T14:32:25.031Z</time></trkpt><trkpt lat="42.89042" lon="12.723468"><ele>204.0</ele><time>2026-04-12T14:32:26.032Z</time></trkpt><trkpt lat="42.8906763" lon="12.723331"><ele>205.0</ele><time>2026-04-12T14:32:27.03Z</time></trkpt><trkpt lat="42.890932" lon="12.7231977"><ele>206.0</ele><time>2026-04-12T14:32:28.029Z</time></trkpt><trkpt lat="42.8911877" lon="12.7230676"><ele>206.0</ele><time>2026-04-12T14:32:29.053Z</time></trkpt><trkpt lat="42.8914444" lon="12.7229412"><ele>206.0</ele><time>2026-04-12T14:32:30.036Z</time></trkpt><trkpt lat="42.8917018" lon="12.7228196"><ele>205.5</ele><time>2026-04-12T14:32:31.034Z</time></trkpt><trkpt lat="42.8919592" lon="12.722702"><ele>205.0</ele><time>2026-04-12T14:32:32.038Z</time></trkpt><trkpt lat="42.8922169" lon="12.7225869"><ele>205.0</ele><time>2026-04-12T14:32:33.029Z</time></trkpt><trkpt lat="42.8924752" lon="12.7224762"><ele>205.0</ele><time>2026-04-12T14:32:34.039Z</time></trkpt><trkpt lat="42.8927349" lon="12.7223694"><ele>207.0</ele><time>2026-04-12T14:32:35.032Z</time></trkpt><trkpt lat="42.892994" lon="12.7222659"><ele>209.0</ele><time>2026-04-12T14:32:36.035Z</time></trkpt><trkpt lat="42.8932542" lon="12.7221747"><ele>208.0</ele><time>2026-04-12T14:32:37.034Z</time></trkpt><trkpt lat="42.8935146" lon="12.7220773"><ele>207.0</ele><time>2026-04-12T14:32:38.038Z</time></trkpt><trkpt lat="42.8937742" lon="12.7219874"><ele>207.0</ele><time>2026-04-12T14:32:39.036Z</time></trkpt><trkpt lat="42.8940332" lon="12.7218981"><ele>207.0</ele><time>2026-04-12T14:32:40.032Z</time></trkpt><trkpt lat="42.8942938" lon="12.7218152"><ele>207.0</ele><time>2026-04-12T14:32:41.042Z</time></trkpt><trkpt lat="42.8945553" lon="12.7217302"><ele>207.0</ele><time>2026-04-12T14:32:42.034Z</time></trkpt><trkpt lat="42.8948175" lon="12.7216496"><ele>207.0</ele><time>2026-04-12T14:32:43.035Z</time></trkpt><trkpt lat="42.895081" lon="12.7215721"><ele>207.0</ele><time>2026-04-12T14:32:44.032Z</time></trkpt><trkpt lat="42.8953455" lon="12.7214977"><ele>207.0</ele><time>2026-04-12T14:32:45.029Z</time></trkpt><trkpt lat="42.8956113" lon="12.7214244"><ele>207.0</ele><time>2026-04-12T14:32:46.035Z</time></trkpt><trkpt lat="42.8958787" lon="12.7213547"><ele>206.5</ele><time>2026-04-12T14:32:47.031Z</time></trkpt><trkpt lat="42.8961463" lon="12.7212889"><ele>206.0</ele><time>2026-04-12T14:32:48.036Z</time></trkpt><trkpt lat="42.8964149" lon="12.7212266"><ele>206.0</ele><time>2026-04-12T14:32:49.032Z</time></trkpt><trkpt lat="42.8966837" lon="12.7211699"><ele>206.0</ele><time>2026-04-12T14:32:50.032Z</time></trkpt><trkpt lat="42.8969509" lon="12.7211199"><ele>206.5</ele><time>2026-04-12T14:32:51.034Z</time></trkpt><trkpt lat="42.8972164" lon="12.7210755"><ele>207.0</ele><time>2026-04-12T14:32:52.041Z</time></trkpt><trkpt lat="42.8974813" lon="12.7210349"><ele>205.0</ele><time>2026-04-12T14:32:53.038Z</time></trkpt><trkpt lat="42.8977459" lon="12.7209955"><ele>203.0</ele><time>2026-04-12T14:32:54.031Z</time></trkpt><trkpt lat="42.8980102" lon="12.7209575"><ele>203.0</ele><time>2026-04-12T14:32:55.035Z</time></trkpt><trkpt lat="42.898274" lon="12.7209215"><ele>203.0</ele><time>2026-04-12T14:32:56.034Z</time></trkpt><trkpt lat="42.8985373" lon="12.7208893"><ele>204.5</ele><time>2026-04-12T14:32:57.028Z</time></trkpt><trkpt lat="42.8988015" lon="12.7208587"><ele>206.0</ele><time>2026-04-12T14:32:58.031Z</time></trkpt><trkpt lat="42.8990677" lon="12.7208303"><ele>206.5</ele><time>2026-04-12T14:32:59.036Z</time></trkpt><trkpt lat="42.8993361" lon="12.7208068"><ele>207.0</ele><time>2026-04-12T14:33:00.035Z</time></trkpt><trkpt lat="42.8996056" lon="12.7207881"><ele>207.0</ele><time>2026-04-12T14:33:01.04Z</time></trkpt><trkpt lat="42.8998765" lon="12.7207748"><ele>207.0</ele><time>2026-04-12T14:33:02.044Z</time></trkpt><trkpt lat="42.9001487" lon="12.7207649"><ele>207.0</ele><time>2026-04-12T14:33:03.039Z</time></trkpt><trkpt lat="42.9004188" lon="12.720758"><ele>207.0</ele><time>2026-04-12T14:33:04.054Z</time></trkpt><trkpt lat="42.9006878" lon="12.7207534"><ele>207.5</ele><time>2026-04-12T14:33:05.029Z</time></trkpt><trkpt lat="42.9009548" lon="12.7207529"><ele>208.0</ele><time>2026-04-12T14:33:06.029Z</time></trkpt><trkpt lat="42.9012209" lon="12.720756"><ele>208.0</ele><time>2026-04-12T14:33:07.032Z</time></trkpt><trkpt lat="42.9014855" lon="12.7207633"><ele>208.0</ele><time>2026-04-12T14:33:08.038Z</time></trkpt><trkpt lat="42.9017443" lon="12.7207708"><ele>207.5</ele><time>2026-04-12T14:33:09.035Z</time></trkpt><trkpt lat="42.9020047" lon="12.7207842"><ele>207.0</ele><time>2026-04-12T14:33:10.045Z</time></trkpt><trkpt lat="42.902261" lon="12.7208029"><ele>207.0</ele><time>2026-04-12T14:33:11.034Z</time></trkpt><trkpt lat="42.9025179" lon="12.7208253"><ele>207.0</ele><time>2026-04-12T14:33:12.035Z</time></trkpt><trkpt lat="42.9027709" lon="12.7208507"><ele>206.5</ele><time>2026-04-12T14:33:13.036Z</time></trkpt><trkpt lat="42.9030215" lon="12.7208828"><ele>206.0</ele><time>2026-04-12T14:33:14.032Z</time></trkpt><trkpt lat="42.9032717" lon="12.7209236"><ele>206.5</ele><time>2026-04-12T14:33:15.057Z</time></trkpt><trkpt lat="42.9035241" lon="12.7209759"><ele>207.0</ele><time>2026-04-12T14:33:16.031Z</time></trkpt><trkpt lat="42.9037767" lon="12.7210373"><ele>207.5</ele><time>2026-04-12T14:33:17.028Z</time></trkpt><trkpt lat="42.9040304" lon="12.7211096"><ele>208.0</ele><time>2026-04-12T14:33:18.031Z</time></trkpt><trkpt lat="42.9042839" lon="12.7211915"><ele>208.0</ele><time>2026-04-12T14:33:19.025Z</time></trkpt><trkpt lat="42.9045373" lon="12.7212831"><ele>208.0</ele><time>2026-04-12T14:33:20.037Z</time></trkpt><trkpt lat="42.904792" lon="12.7213828"><ele>208.0</ele><time>2026-04-12T14:33:21.028Z</time></trkpt><trkpt lat="42.9050468" lon="12.7214924"><ele>208.0</ele><time>2026-04-12T14:33:22.048Z</time></trkpt><trkpt lat="42.9053028" lon="12.7216172"><ele>208.0</ele><time>2026-04-12T14:33:23.032Z</time></trkpt><trkpt lat="42.9055614" lon="12.7217565"><ele>208.0</ele><time>2026-04-12T14:33:24.032Z</time></trkpt><trkpt lat="42.9058167" lon="12.7219128"><ele>207.5</ele><time>2026-04-12T14:33:25.027Z</time></trkpt><trkpt lat="42.9060648" lon="12.7220828"><ele>207.0</ele><time>2026-04-12T14:33:26.037Z</time></trkpt><trkpt lat="42.9063066" lon="12.7222609"><ele>207.0</ele><time>2026-04-12T14:33:27.026Z</time></trkpt><trkpt lat="42.9065473" lon="12.7224464"><ele>207.0</ele><time>2026-04-12T14:33:28.031Z</time></trkpt><trkpt lat="42.9067888" lon="12.7226407"><ele>207.0</ele><time>2026-04-12T14:33:29.027Z</time></trkpt><trkpt lat="42.9070311" lon="12.7228414"><ele>207.0</ele><time>2026-04-12T14:33:30.026Z</time></trkpt><trkpt lat="42.9072737" lon="12.723051"><ele>207.0</ele><time>2026-04-12T14:33:31.028Z</time></trkpt><trkpt lat="42.9075146" lon="12.72327"><ele>207.0</ele><time>2026-04-12T14:33:32.042Z</time></trkpt><trkpt lat="42.9077524" lon="12.7234972"><ele>208.5</ele><time>2026-04-12T14:33:33.027Z</time></trkpt><trkpt lat="42.9079846" lon="12.723729"><ele>210.0</ele><time>2026-04-12T14:33:34.055Z</time></trkpt><trkpt lat="42.9082111" lon="12.7239633"><ele>211.0</ele><time>2026-04-12T14:33:35.033Z</time></trkpt><trkpt lat="42.9084254" lon="12.7241889"><ele>212.0</ele><time>2026-04-12T14:33:36.029Z</time></trkpt><trkpt lat="42.9086337" lon="12.7244074"><ele>212.5</ele><time>2026-04-12T14:33:37.032Z</time></trkpt><trkpt lat="42.9088434" lon="12.7246205"><ele>213.0</ele><time>2026-04-12T14:33:38.033Z</time></trkpt><trkpt lat="42.9090561" lon="12.7248281"><ele>213.0</ele><time>2026-04-12T14:33:39.037Z</time></trkpt><trkpt lat="42.9092698" lon="12.7250336"><ele>213.0</ele><time>2026-04-12T14:33:40.036Z</time></trkpt><trkpt lat="42.9094832" lon="12.725238"><ele>215.0</ele><time>2026-04-12T14:33:41.031Z</time></trkpt><trkpt lat="42.9096963" lon="12.7254417"><ele>217.0</ele><time>2026-04-12T14:33:42.031Z</time></trkpt><trkpt lat="42.9099077" lon="12.7256435"><ele>215.0</ele><time>2026-04-12T14:33:43.037Z</time></trkpt><trkpt lat="42.9101166" lon="12.7258448"><ele>213.0</ele><time>2026-04-12T14:33:44.032Z</time></trkpt><trkpt lat="42.9103234" lon="12.7260461"><ele>214.0</ele><time>2026-04-12T14:33:45.057Z</time></trkpt><trkpt lat="42.9105288" lon="12.7262478"><ele>215.0</ele><time>2026-04-12T14:33:46.035Z</time></trkpt><trkpt lat="42.9107336" lon="12.7264467"><ele>213.5</ele><time>2026-04-12T14:33:47.031Z</time></trkpt><trkpt lat="42.9109371" lon="12.7266426"><ele>212.0</ele><time>2026-04-12T14:33:48.034Z</time></trkpt><trkpt lat="42.9111391" lon="12.7268362"><ele>214.0</ele><time>2026-04-12T14:33:49.027Z</time></trkpt><trkpt lat="42.9113408" lon="12.7270288"><ele>216.0</ele><time>2026-04-12T14:33:50.028Z</time></trkpt><trkpt lat="42.911545" lon="12.7272204"><ele>216.5</ele><time>2026-04-12T14:33:51.031Z</time></trkpt><trkpt lat="42.9117547" lon="12.7274083"><ele>217.0</ele><time>2026-04-12T14:33:52.03Z</time></trkpt><trkpt lat="42.9119736" lon="12.7275881"><ele>219.0</ele><time>2026-04-12T14:33:53.034Z</time></trkpt><trkpt lat="42.9122006" lon="12.7277557"><ele>221.0</ele><time>2026-04-12T14:33:54.031Z</time></trkpt><trkpt lat="42.9124335" lon="12.7279099"><ele>222.0</ele><time>2026-04-12T14:33:55.026Z</time></trkpt><trkpt lat="42.9126724" lon="12.72805"><ele>223.0</ele><time>2026-04-12T14:33:56.027Z</time></trkpt><trkpt lat="42.9129166" lon="12.7281772"><ele>223.0</ele><time>2026-04-12T14:33:57.024Z</time></trkpt><trkpt lat="42.913166" lon="12.7282891"><ele>223.0</ele><time>2026-04-12T14:33:58.049Z</time></trkpt><trkpt lat="42.9134197" lon="12.7283866"><ele>222.0</ele><time>2026-04-12T14:33:59.031Z</time></trkpt><trkpt lat="42.9136768" lon="12.7284697"><ele>221.0</ele><time>2026-04-12T14:34:00.027Z</time></trkpt><trkpt lat="42.9139343" lon="12.7285376"><ele>222.5</ele><time>2026-04-12T14:34:01.027Z</time></trkpt><trkpt lat="42.9141899" lon="12.728588"><ele>224.0</ele><time>2026-04-12T14:34:02.029Z</time></trkpt><trkpt lat="42.914444" lon="12.7286191"><ele>224.0</ele><time>2026-04-12T14:34:03.027Z</time></trkpt><trkpt lat="42.9146969" lon="12.7286344"><ele>224.0</ele><time>2026-04-12T14:34:04.031Z</time></trkpt><trkpt lat="42.9149487" lon="12.7286359"><ele>224.5</ele><time>2026-04-12T14:34:05.026Z</time></trkpt><trkpt lat="42.9152012" lon="12.728624"><ele>225.0</ele><time>2026-04-12T14:34:06.027Z</time></trkpt><trkpt lat="42.915454" lon="12.7285996"><ele>225.0</ele><time>2026-04-12T14:34:07.031Z</time></trkpt><trkpt lat="42.9157077" lon="12.7285614"><ele>225.0</ele><time>2026-04-12T14:34:08.029Z</time></trkpt><trkpt lat="42.9159708" lon="12.7285047"><ele>224.0</ele><time>2026-04-12T14:34:09.051Z</time></trkpt><trkpt lat="42.9162459" lon="12.7284349"><ele>223.0</ele><time>2026-04-12T14:34:10.034Z</time></trkpt><trkpt lat="42.916532" lon="12.7283635"><ele>222.5</ele><time>2026-04-12T14:34:11.032Z</time></trkpt><trkpt lat="42.9168229" lon="12.7282971"><ele>222.0</ele><time>2026-04-12T14:34:12.03Z</time></trkpt><trkpt lat="42.9171119" lon="12.7282385"><ele>222.0</ele><time>2026-04-12T14:34:13.027Z</time></trkpt><trkpt lat="42.9173949" lon="12.7281827"><ele>222.0</ele><time>2026-04-12T14:34:14.032Z</time></trkpt><trkpt lat="42.9176756" lon="12.7281265"><ele>223.0</ele><time>2026-04-12T14:34:15.035Z</time></trkpt><trkpt lat="42.9179583" lon="12.7280688"><ele>224.0</ele><time>2026-04-12T14:34:16.036Z</time></trkpt><trkpt lat="42.9182433" lon="12.7280095"><ele>223.0</ele><time>2026-04-12T14:34:17.03Z</time></trkpt><trkpt lat="42.9185299" lon="12.7279502"><ele>222.0</ele><time>2026-04-12T14:34:18.04Z</time></trkpt><trkpt lat="42.9188168" lon="12.7278932"><ele>222.0</ele><time>2026-04-12T14:34:19.03Z</time></trkpt><trkpt lat="42.9191031" lon="12.7278384"><ele>222.0</ele><time>2026-04-12T14:34:20.031Z</time></trkpt><trkpt lat="42.9193878" lon="12.7277837"><ele>222.5</ele><time>2026-04-12T14:34:21.03Z</time></trkpt><trkpt lat="42.9196707" lon="12.7277271"><ele>223.0</ele><time>2026-04-12T14:34:22.027Z</time></trkpt><trkpt lat="42.9199536" lon="12.7276702"><ele>223.5</ele><time>2026-04-12T14:34:23.052Z</time></trkpt><trkpt lat="42.9202362" lon="12.727618"><ele>224.0</ele><time>2026-04-12T14:34:24.032Z</time></trkpt><trkpt lat="42.9205186" lon="12.7275752"><ele>224.0</ele><time>2026-04-12T14:34:25.036Z</time></trkpt><trkpt lat="42.9208007" lon="12.7275427"><ele>224.0</ele><time>2026-04-12T14:34:26.028Z</time></trkpt><trkpt lat="42.9210831" lon="12.727524"><ele>224.0</ele><time>2026-04-12T14:34:27.031Z</time></trkpt><trkpt lat="42.9213651" lon="12.7275201"><ele>224.0</ele><time>2026-04-12T14:34:28.031Z</time></trkpt><trkpt lat="42.9216458" lon="12.727532"><ele>225.0</ele><time>2026-04-12T14:34:29.033Z</time></trkpt><trkpt lat="42.9219236" lon="12.7275579"><ele>226.0</ele><time>2026-04-12T14:34:30.043Z</time></trkpt><trkpt lat="42.9221965" lon="12.7275946"><ele>226.0</ele><time>2026-04-12T14:34:31.036Z</time></trkpt><trkpt lat="42.9224656" lon="12.7276391"><ele>226.0</ele><time>2026-04-12T14:34:32.032Z</time></trkpt><trkpt lat="42.9227315" lon="12.7276854"><ele>227.5</ele><time>2026-04-12T14:34:33.028Z</time></trkpt><trkpt lat="42.9229975" lon="12.7277319"><ele>229.0</ele><time>2026-04-12T14:34:34.032Z</time></trkpt><trkpt lat="42.9232648" lon="12.7277785"><ele>229.0</ele><time>2026-04-12T14:34:35.032Z</time></trkpt><trkpt lat="42.9235328" lon="12.7278246"><ele>229.0</ele><time>2026-04-12T14:34:36.027Z</time></trkpt><trkpt lat="42.9237995" lon="12.7278697"><ele>229.0</ele><time>2026-04-12T14:34:37.031Z</time></trkpt><trkpt lat="42.924064" lon="12.7279138"><ele>229.0</ele><time>2026-04-12T14:34:38.027Z</time></trkpt><trkpt lat="42.9243252" lon="12.7279572"><ele>229.5</ele><time>2026-04-12T14:34:39.037Z</time></trkpt><trkpt lat="42.924583" lon="12.7280007"><ele>230.0</ele><time>2026-04-12T14:34:40.034Z</time></trkpt><trkpt lat="42.9248379" lon="12.7280438"><ele>230.0</ele><time>2026-04-12T14:34:41.032Z</time></trkpt><trkpt lat="42.9250909" lon="12.7280872"><ele>230.0</ele><time>2026-04-12T14:34:42.033Z</time></trkpt><trkpt lat="42.9253438" lon="12.72813"><ele>230.0</ele><time>2026-04-12T14:34:43.027Z</time></trkpt><trkpt lat="42.9255968" lon="12.7281722"><ele>230.0</ele><time>2026-04-12T14:34:44.029Z</time></trkpt><trkpt lat="42.9258495" lon="12.7282146"><ele>231.0</ele><time>2026-04-12T14:34:45.028Z</time></trkpt><trkpt lat="42.9261018" lon="12.7282569"><ele>232.0</ele><time>2026-04-12T14:34:46.048Z</time></trkpt><trkpt lat="42.9263541" lon="12.7282986"><ele>232.0</ele><time>2026-04-12T14:34:47.027Z</time></trkpt><trkpt lat="42.9266067" lon="12.728341"><ele>232.0</ele><time>2026-04-12T14:34:48.03Z</time></trkpt><trkpt lat="42.9268606" lon="12.7283847"><ele>232.0</ele><time>2026-04-12T14:34:49.033Z</time></trkpt><trkpt lat="42.9271165" lon="12.7284293"><ele>232.0</ele><time>2026-04-12T14:34:50.027Z</time></trkpt><trkpt lat="42.9273747" lon="12.7284734"><ele>232.5</ele><time>2026-04-12T14:34:51.033Z</time></trkpt><trkpt lat="42.9276358" lon="12.7285172"><ele>233.0</ele><time>2026-04-12T14:34:52.036Z</time></trkpt><trkpt lat="42.9279005" lon="12.7285598"><ele>236.0</ele><time>2026-04-12T14:34:53.032Z</time></trkpt><trkpt lat="42.9281672" lon="12.7285974"><ele>239.0</ele><time>2026-04-12T14:34:54.033Z</time></trkpt><trkpt lat="42.9284355" lon="12.7286261"><ele>239.0</ele><time>2026-04-12T14:34:55.024Z</time></trkpt><trkpt lat="42.9287051" lon="12.728642"><ele>239.0</ele><time>2026-04-12T14:34:56.03Z</time></trkpt><trkpt lat="42.928975" lon="12.7286432"><ele>240.0</ele><time>2026-04-12T14:34:57.029Z</time></trkpt><trkpt lat="42.9292445" lon="12.7286281"><ele>241.0</ele><time>2026-04-12T14:34:58.045Z</time></trkpt><trkpt lat="42.9295134" lon="12.7285969"><ele>239.0</ele><time>2026-04-12T14:34:59.03Z</time></trkpt><trkpt lat="42.929781" lon="12.7285499"><ele>237.0</ele><time>2026-04-12T14:35:00.037Z</time></trkpt><trkpt lat="42.9300467" lon="12.7284868"><ele>238.5</ele><time>2026-04-12T14:35:01.031Z</time></trkpt><trkpt lat="42.9303096" lon="12.7284094"><ele>240.0</ele><time>2026-04-12T14:35:02.031Z</time></trkpt><trkpt lat="42.9305703" lon="12.7283195"><ele>240.0</ele><time>2026-04-12T14:35:03.056Z</time></trkpt><trkpt lat="42.9308277" lon="12.7282184"><ele>240.0</ele><time>2026-04-12T14:35:04.028Z</time></trkpt><trkpt lat="42.9310819" lon="12.728104"><ele>241.0</ele><time>2026-04-12T14:35:05.037Z</time></trkpt><trkpt lat="42.9313314" lon="12.727975"><ele>242.0</ele><time>2026-04-12T14:35:06.033Z</time></trkpt><trkpt lat="42.9315763" lon="12.7278334"><ele>241.5</ele><time>2026-04-12T14:35:07.036Z</time></trkpt><trkpt lat="42.9318165" lon="12.7276797"><ele>241.0</ele><time>2026-04-12T14:35:08.028Z</time></trkpt><trkpt lat="42.9320515" lon="12.7275151"><ele>241.0</ele><time>2026-04-12T14:35:09.034Z</time></trkpt><trkpt lat="42.9322807" lon="12.7273405"><ele>241.0</ele><time>2026-04-12T14:35:10.03Z</time></trkpt><trkpt lat="42.9325054" lon="12.7271578"><ele>240.5</ele><time>2026-04-12T14:35:11.026Z</time></trkpt><trkpt lat="42.9327274" lon="12.726971"><ele>240.0</ele><time>2026-04-12T14:35:12.031Z</time></trkpt><trkpt lat="42.9329494" lon="12.7267842"><ele>240.0</ele><time>2026-04-12T14:35:13.033Z</time></trkpt><trkpt lat="42.9331717" lon="12.7266002"><ele>240.0</ele><time>2026-04-12T14:35:14.031Z</time></trkpt><trkpt lat="42.9333952" lon="12.7264193"><ele>243.0</ele><time>2026-04-12T14:35:15.053Z</time></trkpt><trkpt lat="42.9336199" lon="12.7262388"><ele>246.0</ele><time>2026-04-12T14:35:16.034Z</time></trkpt><trkpt lat="42.9338447" lon="12.7260554"><ele>246.0</ele><time>2026-04-12T14:35:17.032Z</time></trkpt><trkpt lat="42.9340711" lon="12.7258683"><ele>246.0</ele><time>2026-04-12T14:35:18.032Z</time></trkpt><trkpt lat="42.9342984" lon="12.7256764"><ele>254.0</ele><time>2026-04-12T14:35:19.027Z</time></trkpt><trkpt lat="42.9345271" lon="12.7254785"><ele>262.0</ele><time>2026-04-12T14:35:20.039Z</time></trkpt><trkpt lat="42.934759" lon="12.7252768"><ele>260.0</ele><time>2026-04-12T14:35:21.035Z</time></trkpt><trkpt lat="42.9349934" lon="12.7250729"><ele>258.0</ele><time>2026-04-12T14:35:22.029Z</time></trkpt><trkpt lat="42.9352312" lon="12.7248684"><ele>258.0</ele><time>2026-04-12T14:35:23.028Z</time></trkpt><trkpt lat="42.9354725" lon="12.7246642"><ele>258.0</ele><time>2026-04-12T14:35:24.03Z</time></trkpt><trkpt lat="42.9357178" lon="12.7244612"><ele>255.5</ele><time>2026-04-12T14:35:25.032Z</time></trkpt><trkpt lat="42.9359676" lon="12.7242568"><ele>253.0</ele><time>2026-04-12T14:35:26.032Z</time></trkpt><trkpt lat="42.936222" lon="12.724049"><ele>253.0</ele><time>2026-04-12T14:35:27.041Z</time></trkpt><trkpt lat="42.9364795" lon="12.7238433"><ele>253.0</ele><time>2026-04-12T14:35:28.032Z</time></trkpt><trkpt lat="42.9367417" lon="12.7236488"><ele>252.0</ele><time>2026-04-12T14:35:29.034Z</time></trkpt><trkpt lat="42.9370066" lon="12.723471"><ele>251.0</ele><time>2026-04-12T14:35:30.027Z</time></trkpt><trkpt lat="42.9372734" lon="12.7233129"><ele>251.0</ele><time>2026-04-12T14:35:31.038Z</time></trkpt><trkpt lat="42.9375414" lon="12.7231735"><ele>251.0</ele><time>2026-04-12T14:35:32.028Z</time></trkpt><trkpt lat="42.9378104" lon="12.7230509"><ele>249.5</ele><time>2026-04-12T14:35:33.028Z</time></trkpt><trkpt lat="42.9380798" lon="12.7229426"><ele>248.0</ele><time>2026-04-12T14:35:34.034Z</time></trkpt><trkpt lat="42.9383483" lon="12.722847"><ele>248.0</ele><time>2026-04-12T14:35:35.029Z</time></trkpt><trkpt lat="42.9386154" lon="12.7227637"><ele>248.0</ele><time>2026-04-12T14:35:36.024Z</time></trkpt><trkpt lat="42.938881" lon="12.722695"><ele>248.0</ele><time>2026-04-12T14:35:37.033Z</time></trkpt><trkpt lat="42.9391446" lon="12.7226433"><ele>248.0</ele><time>2026-04-12T14:35:38.031Z</time></trkpt><trkpt lat="42.9394069" lon="12.722608"><ele>249.0</ele><time>2026-04-12T14:35:39.059Z</time></trkpt><trkpt lat="42.9396686" lon="12.7225875"><ele>250.0</ele><time>2026-04-12T14:35:40.029Z</time></trkpt><trkpt lat="42.9399293" lon="12.7225807"><ele>251.0</ele><time>2026-04-12T14:35:41.028Z</time></trkpt><trkpt lat="42.940189" lon="12.7225844"><ele>252.0</ele><time>2026-04-12T14:35:42.031Z</time></trkpt><trkpt lat="42.9404489" lon="12.7225933"><ele>252.0</ele><time>2026-04-12T14:35:43.032Z</time></trkpt><trkpt lat="42.9407078" lon="12.7226021"><ele>252.0</ele><time>2026-04-12T14:35:44.03Z</time></trkpt><trkpt lat="42.9409624" lon="12.7226078"><ele>254.0</ele><time>2026-04-12T14:35:45.035Z</time></trkpt><trkpt lat="42.9412132" lon="12.7226108"><ele>256.0</ele><time>2026-04-12T14:35:46.035Z</time></trkpt><trkpt lat="42.9414605" lon="12.7226139"><ele>256.0</ele><time>2026-04-12T14:35:47.033Z</time></trkpt><trkpt lat="42.9417044" lon="12.7226185"><ele>256.0</ele><time>2026-04-12T14:35:48.028Z</time></trkpt><trkpt lat="42.9419425" lon="12.7226255"><ele>255.5</ele><time>2026-04-12T14:35:49.025Z</time></trkpt><trkpt lat="42.9421739" lon="12.7226352"><ele>255.0</ele><time>2026-04-12T14:35:50.027Z</time></trkpt><trkpt lat="42.9423995" lon="12.7226468"><ele>255.66666666666669</ele><time>2026-04-12T14:35:51.031Z</time></trkpt><trkpt lat="42.9426165" lon="12.7226575"><ele>256.33333333333337</ele><time>2026-04-12T14:35:52.025Z</time></trkpt><trkpt lat="42.9428205" lon="12.7226638"><ele>257.0</ele><time>2026-04-12T14:35:53.032Z</time></trkpt><trkpt lat="42.9430119" lon="12.7226666"><ele>257.0</ele><time>2026-04-12T14:35:54.036Z</time></trkpt><trkpt lat="42.9431986" lon="12.7226658"><ele>257.0</ele><time>2026-04-12T14:35:55.04Z</time></trkpt><trkpt lat="42.9433819" lon="12.7226632"><ele>257.0</ele><time>2026-04-12T14:35:56.031Z</time></trkpt><trkpt lat="42.9435552" lon="12.7226593"><ele>257.6666666666667</ele><time>2026-04-12T14:35:57.029Z</time></trkpt><trkpt lat="42.9437234" lon="12.7226598"><ele>258.3333333333333</ele><time>2026-04-12T14:35:58.029Z</time></trkpt><trkpt lat="42.9438918" lon="12.7226671"><ele>259.0</ele><time>2026-04-12T14:35:59.025Z</time></trkpt><trkpt lat="42.94406" lon="12.7226842"><ele>259.3333333333333</ele><time>2026-04-12T14:36:00.027Z</time></trkpt><trkpt lat="42.9442242" lon="12.72271"><ele>259.6666666666667</ele><time>2026-04-12T14:36:01.028Z</time></trkpt><trkpt lat="42.9443801" lon="12.7227411"><ele>260.0</ele><time>2026-04-12T14:36:02.029Z</time></trkpt><trkpt lat="42.9445331" lon="12.7227734"><ele>263.0</ele><time>2026-04-12T14:36:03.035Z</time></trkpt><trkpt lat="42.9446878" lon="12.722806"><ele>266.0</ele><time>2026-04-12T14:36:04.026Z</time></trkpt><trkpt lat="42.9448429" lon="12.7228378"><ele>269.0</ele><time>2026-04-12T14:36:05.041Z</time></trkpt><trkpt lat="42.9449925" lon="12.7228672"><ele>268.0</ele><time>2026-04-12T14:36:06.028Z</time></trkpt><trkpt lat="42.9451394" lon="12.7228944"><ele>267.0</ele><time>2026-04-12T14:36:07.029Z</time></trkpt><trkpt lat="42.945287" lon="12.7229192"><ele>266.0</ele><time>2026-04-12T14:36:08.039Z</time></trkpt><trkpt lat="42.9454389" lon="12.7229345"><ele>265.0</ele><time>2026-04-12T14:36:09.028Z</time></trkpt><trkpt lat="42.9455973" lon="12.7229322"><ele>265.0</ele><time>2026-04-12T14:36:10.052Z</time></trkpt><trkpt lat="42.9457643" lon="12.7229119"><ele>265.0</ele><time>2026-04-12T14:36:11.025Z</time></trkpt><trkpt lat="42.9459394" lon="12.7228783"><ele>265.0</ele><time>2026-04-12T14:36:12.032Z</time></trkpt><trkpt lat="42.9461219" lon="12.722835"><ele>265.0</ele><time>2026-04-12T14:36:13.024Z</time></trkpt><trkpt lat="42.9463097" lon="12.7227871"><ele>265.0</ele><time>2026-04-12T14:36:14.036Z</time></trkpt><trkpt lat="42.9464936" lon="12.7227424"><ele>265.0</ele><time>2026-04-12T14:36:15.037Z</time></trkpt><trkpt lat="42.9466726" lon="12.7227"><ele>265.3333333333333</ele><time>2026-04-12T14:36:16.036Z</time></trkpt><trkpt lat="42.9468556" lon="12.7226627"><ele>265.6666666666667</ele><time>2026-04-12T14:36:17.057Z</time></trkpt><trkpt lat="42.9470366" lon="12.722632"><ele>266.0</ele><time>2026-04-12T14:36:18.029Z</time></trkpt><trkpt lat="42.9472126" lon="12.7226087"><ele>266.0</ele><time>2026-04-12T14:36:19.026Z</time></trkpt><trkpt lat="42.9473883" lon="12.7225938"><ele>266.0</ele><time>2026-04-12T14:36:20.035Z</time></trkpt><trkpt lat="42.9475638" lon="12.7225826"><ele>266.0</ele><time>2026-04-12T14:36:21.028Z</time></trkpt><trkpt lat="42.9477422" lon="12.7225719"><ele>266.33333333333337</ele><time>2026-04-12T14:36:22.03Z</time></trkpt><trkpt lat="42.9479236" lon="12.722562"><ele>266.6666666666667</ele><time>2026-04-12T14:36:23.03Z</time></trkpt><trkpt lat="42.9481066" lon="12.7225552"><ele>267.0</ele><time>2026-04-12T14:36:24.031Z</time></trkpt><trkpt lat="42.948289" lon="12.722557"><ele>267.3333333333333</ele><time>2026-04-12T14:36:25.033Z</time></trkpt><trkpt lat="42.9484691" lon="12.7225698"><ele>267.66666666666663</ele><time>2026-04-12T14:36:26.027Z</time></trkpt><trkpt lat="42.9486471" lon="12.7225898"><ele>268.0</ele><time>2026-04-12T14:36:27.034Z</time></trkpt><trkpt lat="42.9488237" lon="12.7226121"><ele>268.0</ele><time>2026-04-12T14:36:28.028Z</time></trkpt><trkpt lat="42.9489904" lon="12.7226332"><ele>268.0</ele><time>2026-04-12T14:36:29.052Z</time></trkpt><trkpt lat="42.9491476" lon="12.7226528"><ele>268.0</ele><time>2026-04-12T14:36:30.032Z</time></trkpt><trkpt lat="42.9493031" lon="12.7226722"><ele>268.3333333333333</ele><time>2026-04-12T14:36:31.027Z</time></trkpt><trkpt lat="42.9494577" lon="12.7226902"><ele>268.6666666666667</ele><time>2026-04-12T14:36:32.036Z</time></trkpt><trkpt lat="42.9496123" lon="12.7227031"><ele>269.0</ele><time>2026-04-12T14:36:33.029Z</time></trkpt><trkpt lat="42.949767" lon="12.722709"><ele>269.0</ele><time>2026-04-12T14:36:34.061Z</time></trkpt><trkpt lat="42.9499227" lon="12.7227106"><ele>269.0</ele><time>2026-04-12T14:36:35.03Z</time></trkpt><trkpt lat="42.9500814" lon="12.7227104"><ele>269.0</ele><time>2026-04-12T14:36:36.032Z</time></trkpt><trkpt lat="42.9502441" lon="12.7227098"><ele>269.33333333333337</ele><time>2026-04-12T14:36:37.032Z</time></trkpt><trkpt lat="42.950411" lon="12.7227083"><ele>269.6666666666667</ele><time>2026-04-12T14:36:38.034Z</time></trkpt><trkpt lat="42.9505761" lon="12.7227067"><ele>270.0</ele><time>2026-04-12T14:36:39.035Z</time></trkpt><trkpt lat="42.950735" lon="12.7227056"><ele>272.6666666666667</ele><time>2026-04-12T14:36:40.029Z</time></trkpt><trkpt lat="42.950894" lon="12.7227112"><ele>275.33333333333337</ele><time>2026-04-12T14:36:41.036Z</time></trkpt><trkpt lat="42.9510505" lon="12.7227429"><ele>278.0</ele><time>2026-04-12T14:36:42.031Z</time></trkpt><trkpt lat="42.9512025" lon="12.722811"><ele>278.6666666666667</ele><time>2026-04-12T14:36:43.025Z</time></trkpt><trkpt lat="42.9513471" lon="12.722919"><ele>279.3333333333333</ele><time>2026-04-12T14:36:44.029Z</time></trkpt><trkpt lat="42.9514796" lon="12.7230668"><ele>280.0</ele><time>2026-04-12T14:36:45.027Z</time></trkpt><trkpt lat="42.9515892" lon="12.7232522"><ele>280.0</ele><time>2026-04-12T14:36:46.033Z</time></trkpt><trkpt lat="42.9516706" lon="12.7234688"><ele>280.0</ele><time>2026-04-12T14:36:47.027Z</time></trkpt><trkpt lat="42.9517298" lon="12.7237057"><ele>280.0</ele><time>2026-04-12T14:36:48.05Z</time></trkpt><trkpt lat="42.9517792" lon="12.7239579"><ele>281.0</ele><time>2026-04-12T14:36:49.028Z</time></trkpt><trkpt lat="42.9518296" lon="12.7242219"><ele>282.0</ele><time>2026-04-12T14:36:50.034Z</time></trkpt><trkpt lat="42.9518821" lon="12.7244965"><ele>283.0</ele><time>2026-04-12T14:36:51.026Z</time></trkpt><trkpt lat="42.9519361" lon="12.7247799"><ele>283.66666666666663</ele><time>2026-04-12T14:36:52.031Z</time></trkpt><trkpt lat="42.9519918" lon="12.7250705"><ele>284.3333333333333</ele><time>2026-04-12T14:36:53.036Z</time></trkpt><trkpt lat="42.9520506" lon="12.7253696"><ele>285.0</ele><time>2026-04-12T14:36:54.029Z</time></trkpt><trkpt lat="42.9521111" lon="12.725675"><ele>288.0</ele><time>2026-04-12T14:36:55.06Z</time></trkpt><trkpt lat="42.9521722" lon="12.7259865"><ele>291.0</ele><time>2026-04-12T14:36:56.028Z</time></trkpt><trkpt lat="42.9522333" lon="12.7263036"><ele>291.5</ele><time>2026-04-12T14:36:57.029Z</time></trkpt><trkpt lat="42.9522931" lon="12.7266263"><ele>292.0</ele><time>2026-04-12T14:36:58.033Z</time></trkpt><trkpt lat="42.952348" lon="12.7269555"><ele>293.0</ele><time>2026-04-12T14:36:59.027Z</time></trkpt><trkpt lat="42.9524079" lon="12.727285"><ele>294.0</ele><time>2026-04-12T14:37:00.028Z</time></trkpt><trkpt lat="42.9524444" lon="12.7276282"><ele>297.5</ele><time>2026-04-12T14:37:01.028Z</time></trkpt><trkpt lat="42.9524565" lon="12.7279757"><ele>301.0</ele><time>2026-04-12T14:37:02.032Z</time></trkpt><trkpt lat="42.952449" lon="12.7283244"><ele>302.5</ele><time>2026-04-12T14:37:03.031Z</time></trkpt><trkpt lat="42.9524336" lon="12.7286693"><ele>304.0</ele><time>2026-04-12T14:37:04.029Z</time></trkpt><trkpt lat="42.9524206" lon="12.7290167"><ele>304.0</ele><time>2026-04-12T14:37:05.048Z</time></trkpt><trkpt lat="42.9524147" lon="12.7293648"><ele>304.0</ele><time>2026-04-12T14:37:06.028Z</time></trkpt><trkpt lat="42.9524229" lon="12.7297133"><ele>305.5</ele><time>2026-04-12T14:37:07.031Z</time></trkpt><trkpt lat="42.9524493" lon="12.7300587"><ele>307.0</ele><time>2026-04-12T14:37:08.029Z</time></trkpt><trkpt lat="42.9525045" lon="12.730398"><ele>307.5</ele><time>2026-04-12T14:37:09.023Z</time></trkpt><trkpt lat="42.9525944" lon="12.7307213"><ele>308.0</ele><time>2026-04-12T14:37:10.032Z</time></trkpt><trkpt lat="42.9527178" lon="12.7310252"><ele>310.5</ele><time>2026-04-12T14:37:11.032Z</time></trkpt><trkpt lat="42.952869" lon="12.7313031"><ele>313.0</ele><time>2026-04-12T14:37:12.024Z</time></trkpt><trkpt lat="42.9530481" lon="12.7315501"><ele>313.0</ele><time>2026-04-12T14:37:13.035Z</time></trkpt><trkpt lat="42.9532502" lon="12.7317619"><ele>313.0</ele><time>2026-04-12T14:37:14.029Z</time></trkpt><trkpt lat="42.9534698" lon="12.7319453"><ele>316.0</ele><time>2026-04-12T14:37:15.037Z</time></trkpt><trkpt lat="42.9536998" lon="12.7321087"><ele>319.0</ele><time>2026-04-12T14:37:16.032Z</time></trkpt><trkpt lat="42.9539332" lon="12.7322655"><ele>319.0</ele><time>2026-04-12T14:37:17.032Z</time></trkpt><trkpt lat="42.9541677" lon="12.7324229"><ele>319.0</ele><time>2026-04-12T14:37:18.038Z</time></trkpt><trkpt lat="42.9544025" lon="12.7325839"><ele>321.0</ele><time>2026-04-12T14:37:19.027Z</time></trkpt><trkpt lat="42.954637" lon="12.7327447"><ele>323.0</ele><time>2026-04-12T14:37:20.036Z</time></trkpt><trkpt lat="42.9548655" lon="12.7329253"><ele>319.5</ele><time>2026-04-12T14:37:21.032Z</time></trkpt><trkpt lat="42.9550867" lon="12.7331293"><ele>316.0</ele><time>2026-04-12T14:37:22.033Z</time></trkpt><trkpt lat="42.9553002" lon="12.7333551"><ele>322.0</ele><time>2026-04-12T14:37:23.03Z</time></trkpt><trkpt lat="42.9555047" lon="12.7335937"><ele>328.0</ele><time>2026-04-12T14:37:24.03Z</time></trkpt><trkpt lat="42.9557045" lon="12.7338357"><ele>326.5</ele><time>2026-04-12T14:37:25.032Z</time></trkpt><trkpt lat="42.9559057" lon="12.7340775"><ele>325.0</ele><time>2026-04-12T14:37:26.031Z</time></trkpt><trkpt lat="42.9561097" lon="12.734318"><ele>328.5</ele><time>2026-04-12T14:37:27.033Z</time></trkpt><trkpt lat="42.9563162" lon="12.7345576"><ele>332.0</ele><time>2026-04-12T14:37:28.03Z</time></trkpt><trkpt lat="42.9565309" lon="12.7347884"><ele>331.5</ele><time>2026-04-12T14:37:29.046Z</time></trkpt><trkpt lat="42.9567552" lon="12.7350036"><ele>331.0</ele><time>2026-04-12T14:37:30.029Z</time></trkpt><trkpt lat="42.95699" lon="12.7352002"><ele>335.0</ele><time>2026-04-12T14:37:31.029Z</time></trkpt><trkpt lat="42.9572321" lon="12.7353814"><ele>339.0</ele><time>2026-04-12T14:37:32.032Z</time></trkpt><trkpt lat="42.9574753" lon="12.7355554"><ele>341.0</ele><time>2026-04-12T14:37:33.034Z</time></trkpt><trkpt lat="42.9577291" lon="12.7357047"><ele>343.0</ele><time>2026-04-12T14:37:34.032Z</time></trkpt><trkpt lat="42.9579892" lon="12.7358387"><ele>343.0</ele><time>2026-04-12T14:37:35.05Z</time></trkpt><trkpt lat="42.9582554" lon="12.7359558"><ele>343.0</ele><time>2026-04-12T14:37:36.029Z</time></trkpt><trkpt lat="42.9585276" lon="12.7360601"><ele>348.5</ele><time>2026-04-12T14:37:37.028Z</time></trkpt><trkpt lat="42.9588001" lon="12.7361548"><ele>354.0</ele><time>2026-04-12T14:37:38.033Z</time></trkpt><trkpt lat="42.9590696" lon="12.7362531"><ele>358.0</ele><time>2026-04-12T14:37:39.028Z</time></trkpt><trkpt lat="42.9593371" lon="12.736362"><ele>362.0</ele><time>2026-04-12T14:37:40.038Z</time></trkpt><trkpt lat="42.959602" lon="12.7364866"><ele>360.0</ele><time>2026-04-12T14:37:41.034Z</time></trkpt><trkpt lat="42.9612153" lon="12.7373665"><ele>360.0</ele><time>2026-04-12T14:37:47.028Z</time></trkpt><trkpt lat="42.9614211" lon="12.7376187"><ele>360.0</ele><time>2026-04-12T14:37:48.032Z</time></trkpt><trkpt lat="42.9616256" lon="12.7378935"><ele>353.0</ele><time>2026-04-12T14:37:49.032Z</time></trkpt><trkpt lat="42.9618181" lon="12.7382042"><ele>346.0</ele><time>2026-04-12T14:37:50.031Z</time></trkpt><trkpt lat="42.9619898" lon="12.7385297"><ele>350.0</ele><time>2026-04-12T14:37:51.032Z</time></trkpt><trkpt lat="42.9621831" lon="12.7388146"><ele>354.0</ele><time>2026-04-12T14:37:52.034Z</time></trkpt><trkpt lat="42.9623706" lon="12.7391008"><ele>349.0</ele><time>2026-04-12T14:37:53.037Z</time></trkpt><trkpt lat="42.9625515" lon="12.7393893"><ele>344.0</ele><time>2026-04-12T14:37:54.032Z</time></trkpt><trkpt lat="42.9627333" lon="12.7396734"><ele>344.0</ele><time>2026-04-12T14:37:55.042Z</time></trkpt><trkpt lat="42.9629166" lon="12.739957"><ele>344.0</ele><time>2026-04-12T14:37:56.03Z</time></trkpt><trkpt lat="42.9631034" lon="12.7402375"><ele>344.5</ele><time>2026-04-12T14:37:57.031Z</time></trkpt><trkpt lat="42.9633015" lon="12.7405164"><ele>345.0</ele><time>2026-04-12T14:37:58.027Z</time></trkpt><trkpt lat="42.9635016" lon="12.7407918"><ele>342.0</ele><time>2026-04-12T14:37:59.03Z</time></trkpt><trkpt lat="42.9637083" lon="12.7410594"><ele>339.0</ele><time>2026-04-12T14:38:00.028Z</time></trkpt><trkpt lat="42.9639181" lon="12.7413245"><ele>339.0</ele><time>2026-04-12T14:38:01.026Z</time></trkpt><trkpt lat="42.9641325" lon="12.7415821"><ele>339.0</ele><time>2026-04-12T14:38:02.033Z</time></trkpt><trkpt lat="42.9643525" lon="12.7418335"><ele>345.5</ele><time>2026-04-12T14:38:03.027Z</time></trkpt><trkpt lat="42.9645756" lon="12.7420774"><ele>352.0</ele><time>2026-04-12T14:38:04.045Z</time></trkpt><trkpt lat="42.9648009" lon="12.7423121"><ele>352.0</ele><time>2026-04-12T14:38:05.033Z</time></trkpt><trkpt lat="42.9650276" lon="12.7425364"><ele>352.0</ele><time>2026-04-12T14:38:06.029Z</time></trkpt><trkpt lat="42.965255" lon="12.7427541"><ele>359.5</ele><time>2026-04-12T14:38:07.03Z</time></trkpt><trkpt lat="42.9654805" lon="12.7429642"><ele>367.0</ele><time>2026-04-12T14:38:08.027Z</time></trkpt><trkpt lat="42.9657057" lon="12.7431708"><ele>370.0</ele><time>2026-04-12T14:38:09.041Z</time></trkpt><trkpt lat="42.9659331" lon="12.7433759"><ele>373.0</ele><time>2026-04-12T14:38:10.03Z</time></trkpt><trkpt lat="42.9661614" lon="12.7435768"><ele>377.0</ele><time>2026-04-12T14:38:11.031Z</time></trkpt><trkpt lat="42.9663919" lon="12.7437745"><ele>381.0</ele><time>2026-04-12T14:38:12.027Z</time></trkpt><trkpt lat="42.9666219" lon="12.7439728"><ele>383.5</ele><time>2026-04-12T14:38:13.034Z</time></trkpt><trkpt lat="42.9668519" lon="12.7441707"><ele>386.0</ele><time>2026-04-12T14:38:14.028Z</time></trkpt><trkpt lat="42.9670848" lon="12.7443703"><ele>389.5</ele><time>2026-04-12T14:38:15.03Z</time></trkpt><trkpt lat="42.9673191" lon="12.7445724"><ele>393.0</ele><time>2026-04-12T14:38:16.026Z</time></trkpt><trkpt lat="42.9687073" lon="12.7458128"><ele>395.5</ele><time>2026-04-12T14:38:22.033Z</time></trkpt><trkpt lat="42.9689332" lon="12.7460526"><ele>398.0</ele><time>2026-04-12T14:38:23.048Z</time></trkpt><trkpt lat="42.9691657" lon="12.7463099"><ele>392.5</ele><time>2026-04-12T14:38:24.029Z</time></trkpt><trkpt lat="42.9693725" lon="12.7465478"><ele>387.0</ele><time>2026-04-12T14:38:25.032Z</time></trkpt><trkpt lat="42.9695927" lon="12.7467851"><ele>396.5</ele><time>2026-04-12T14:38:26.034Z</time></trkpt><trkpt lat="42.9698142" lon="12.7470322"><ele>406.0</ele><time>2026-04-12T14:38:27.039Z</time></trkpt><trkpt lat="42.9700245" lon="12.7472763"><ele>399.0</ele><time>2026-04-12T14:38:28.027Z</time></trkpt><trkpt lat="42.9702371" lon="12.7475177"><ele>392.0</ele><time>2026-04-12T14:38:29.028Z</time></trkpt><trkpt lat="42.9710784" lon="12.7485154"><ele>392.5</ele><time>2026-04-12T14:38:33.048Z</time></trkpt><trkpt lat="42.9712798" lon="12.7487951"><ele>393.0</ele><time>2026-04-12T14:38:34.037Z</time></trkpt><trkpt lat="42.9714875" lon="12.7490812"><ele>389.0</ele><time>2026-04-12T14:38:35.027Z</time></trkpt><trkpt lat="42.9716981" lon="12.7493889"><ele>385.0</ele><time>2026-04-12T14:38:36.034Z</time></trkpt><trkpt lat="42.9719101" lon="12.7496933"><ele>385.0</ele><time>2026-04-12T14:38:37.029Z</time></trkpt><trkpt lat="42.9721198" lon="12.7500007"><ele>385.0</ele><time>2026-04-12T14:38:38.052Z</time></trkpt><trkpt lat="42.9723196" lon="12.7503133"><ele>384.0</ele><time>2026-04-12T14:38:39.029Z</time></trkpt><trkpt lat="42.9725094" lon="12.7506343"><ele>383.0</ele><time>2026-04-12T14:38:40.032Z</time></trkpt><trkpt lat="42.9726903" lon="12.7509543"><ele>388.0</ele><time>2026-04-12T14:38:41.03Z</time></trkpt><trkpt lat="42.9728664" lon="12.751272"><ele>393.0</ele><time>2026-04-12T14:38:42.037Z</time></trkpt><trkpt lat="42.9730433" lon="12.7515811"><ele>395.0</ele><time>2026-04-12T14:38:43.035Z</time></trkpt><trkpt lat="42.973217" lon="12.7518885"><ele>397.0</ele><time>2026-04-12T14:38:44.037Z</time></trkpt><trkpt lat="42.9733873" lon="12.7521952"><ele>395.0</ele><time>2026-04-12T14:38:45.029Z</time></trkpt><trkpt lat="42.9735555" lon="12.7525034"><ele>393.0</ele><time>2026-04-12T14:38:46.031Z</time></trkpt><trkpt lat="42.9737204" lon="12.7528135"><ele>393.0</ele><time>2026-04-12T14:38:47.035Z</time></trkpt><trkpt lat="42.9738829" lon="12.7531262"><ele>393.0</ele><time>2026-04-12T14:38:48.04Z</time></trkpt><trkpt lat="42.9740407" lon="12.7534432"><ele>409.5</ele><time>2026-04-12T14:38:49.032Z</time></trkpt><trkpt lat="42.9741987" lon="12.7537641"><ele>426.0</ele><time>2026-04-12T14:38:50.032Z</time></trkpt><trkpt lat="42.9743546" lon="12.7540955"><ele>421.5</ele><time>2026-04-12T14:38:51.036Z</time></trkpt><trkpt lat="42.9745111" lon="12.7544309"><ele>417.0</ele><time>2026-04-12T14:38:52.027Z</time></trkpt><trkpt lat="42.9776591" lon="12.7665761"><ele>421.5</ele><time>2026-04-12T14:39:24.96Z</time></trkpt><trkpt lat="42.9776781" lon="12.7670126"><ele>426.0</ele><time>2026-04-12T14:39:25.984Z</time></trkpt><trkpt lat="42.9777873" lon="12.7674143"><ele>443.5</ele><time>2026-04-12T14:39:27.032Z</time></trkpt><trkpt lat="42.977787" lon="12.7677818"><ele>461.0</ele><time>2026-04-12T14:39:28.033Z</time></trkpt><trkpt lat="42.9776223" lon="12.7962849"><ele>482.5</ele><time>2026-04-12T14:40:41.97Z</time></trkpt><trkpt lat="42.9775998" lon="12.7967411"><ele>504.0</ele><time>2026-04-12T14:40:43.045Z</time></trkpt><trkpt lat="42.9776908" lon="12.7971577"><ele>504.0</ele><time>2026-04-12T14:40:44.028Z</time></trkpt><trkpt lat="42.9777979" lon="12.7975399"><ele>504.0</ele><time>2026-04-12T14:40:45.031Z</time></trkpt><trkpt lat="42.9779085" lon="12.7979089"><ele>504.5</ele><time>2026-04-12T14:40:46.036Z</time></trkpt><trkpt lat="42.9780243" lon="12.7982633"><ele>505.0</ele><time>2026-04-12T14:40:47.03Z</time></trkpt><trkpt lat="42.9781402" lon="12.7986127"><ele>505.5</ele><time>2026-04-12T14:40:48.04Z</time></trkpt><trkpt lat="42.9782574" lon="12.7989626"><ele>506.0</ele><time>2026-04-12T14:40:49.039Z</time></trkpt><trkpt lat="42.9783758" lon="12.7993135"><ele>525.5</ele><time>2026-04-12T14:40:50.034Z</time></trkpt><trkpt lat="42.9784943" lon="12.7996653"><ele>545.0</ele><time>2026-04-12T14:40:51.035Z</time></trkpt><trkpt lat="42.9786149" lon="12.8000155"><ele>553.0</ele><time>2026-04-12T14:40:52.032Z</time></trkpt><trkpt lat="42.9787373" lon="12.8003611"><ele>561.0</ele><time>2026-04-12T14:40:53.029Z</time></trkpt><trkpt lat="42.9788637" lon="12.8007133"><ele>563.5</ele><time>2026-04-12T14:40:54.087Z</time></trkpt><trkpt lat="42.9789932" lon="12.8010724"><ele>566.0</ele><time>2026-04-12T14:40:55.026Z</time></trkpt><trkpt lat="42.9912611" lon="12.8305435"><ele>624.5</ele><time>2026-04-12T14:42:20.964Z</time></trkpt><trkpt lat="42.9913407" lon="12.8310015"><ele>683.0</ele><time>2026-04-12T14:42:22.035Z</time></trkpt><trkpt lat="42.9913647" lon="12.831396"><ele>683.0</ele><time>2026-04-12T14:42:23.034Z</time></trkpt><trkpt lat="42.9914107" lon="12.8317886"><ele>683.0</ele><time>2026-04-12T14:42:24.03Z</time></trkpt><trkpt lat="42.9930115" lon="12.845046"><ele>684.5</ele><time>2026-04-12T14:42:55.994Z</time></trkpt><trkpt lat="42.993105" lon="12.8454373"><ele>686.0</ele><time>2026-04-12T14:42:57.038Z</time></trkpt><trkpt lat="42.9931986" lon="12.8458263"><ele>687.5</ele><time>2026-04-12T14:42:58.032Z</time></trkpt><trkpt lat="42.9932994" lon="12.846215"><ele>689.0</ele><time>2026-04-12T14:42:59.045Z</time></trkpt><trkpt lat="42.9934043" lon="12.8466036"><ele>715.5</ele><time>2026-04-12T14:43:00.041Z</time></trkpt><trkpt lat="42.9935135" lon="12.8469939"><ele>742.0</ele><time>2026-04-12T14:43:01.034Z</time></trkpt><trkpt lat="42.9936286" lon="12.8473872"><ele>817.0</ele><time>2026-04-12T14:43:02.028Z</time></trkpt><trkpt lat="43.0044788" lon="12.8696326"><ele>817.0</ele><time>2026-04-12T14:44:08.991Z</time></trkpt><trkpt lat="43.0046651" lon="12.8698997"><ele>817.0</ele><time>2026-04-12T14:44:10.03Z</time></trkpt><trkpt lat="43.0048464" lon="12.8702208"><ele>821.5</ele><time>2026-04-12T14:44:11.033Z</time></trkpt><trkpt lat="43.0049782" lon="12.870547"><ele>826.0</ele><time>2026-04-12T14:44:12.039Z</time></trkpt><trkpt lat="43.0051411" lon="12.8708719"><ele>820.0</ele><time>2026-04-12T14:44:13.032Z</time></trkpt><trkpt lat="43.0053091" lon="12.8712054"><ele>814.0</ele><time>2026-04-12T14:44:14.04Z</time></trkpt><trkpt lat="43.0054758" lon="12.8715349"><ele>815.0</ele><time>2026-04-12T14:44:15.042Z</time></trkpt><trkpt lat="43.0056401" lon="12.8718687"><ele>816.0</ele><time>2026-04-12T14:44:16.036Z</time></trkpt><trkpt lat="43.0057974" lon="12.8722015"><ele>805.5</ele><time>2026-04-12T14:44:17.036Z</time></trkpt><trkpt lat="43.0059532" lon="12.8725375"><ele>795.0</ele><time>2026-04-12T14:44:18.028Z</time></trkpt><trkpt lat="43.0061101" lon="12.8728797"><ele>794.5</ele><time>2026-04-12T14:44:19.037Z</time></trkpt><trkpt lat="43.0062643" lon="12.8732241"><ele>794.0</ele><time>2026-04-12T14:44:20.038Z</time></trkpt><trkpt lat="43.006414" lon="12.8735719"><ele>793.0</ele><time>2026-04-12T14:44:21.029Z</time></trkpt><trkpt lat="43.0065617" lon="12.8739224"><ele>792.0</ele><time>2026-04-12T14:44:22.041Z</time></trkpt><trkpt lat="43.0067071" lon="12.8742752"><ele>795.0</ele><time>2026-04-12T14:44:23.036Z</time></trkpt><trkpt lat="43.0068476" lon="12.8746289"><ele>798.0</ele><time>2026-04-12T14:44:24.064Z</time></trkpt><trkpt lat="43.0069832" lon="12.8749857"><ele>800.5</ele><time>2026-04-12T14:44:25.032Z</time></trkpt><trkpt lat="43.0071175" lon="12.8753501"><ele>803.0</ele><time>2026-04-12T14:44:26.027Z</time></trkpt><trkpt lat="43.0072501" lon="12.8757128"><ele>773.0</ele><time>2026-04-12T14:44:27.032Z</time></trkpt><trkpt lat="43.0125489" lon="12.8878585"><ele>773.0</ele><time>2026-04-12T14:45:02.987Z</time></trkpt><trkpt lat="43.0127866" lon="12.8881625"><ele>773.0</ele><time>2026-04-12T14:45:04.042Z</time></trkpt><trkpt lat="43.0129798" lon="12.8884059"><ele>772.5</ele><time>2026-04-12T14:45:05.027Z</time></trkpt><trkpt lat="43.013177" lon="12.8886611"><ele>772.0</ele><time>2026-04-12T14:45:06.028Z</time></trkpt><trkpt lat="43.0133921" lon="12.8889126"><ele>772.0</ele><time>2026-04-12T14:45:07.029Z</time></trkpt><trkpt lat="43.0136201" lon="12.8891638"><ele>772.0</ele><time>2026-04-12T14:45:08.041Z</time></trkpt><trkpt lat="43.0138544" lon="12.8893982"><ele>770.5</ele><time>2026-04-12T14:45:09.034Z</time></trkpt><trkpt lat="43.014094" lon="12.8896213"><ele>769.0</ele><time>2026-04-12T14:45:10.028Z</time></trkpt><trkpt lat="43.0143365" lon="12.8898385"><ele>770.0</ele><time>2026-04-12T14:45:11.027Z</time></trkpt><trkpt lat="43.0145811" lon="12.89005"><ele>771.0</ele><time>2026-04-12T14:45:12.028Z</time></trkpt><trkpt lat="43.0148281" lon="12.8902566"><ele>772.0</ele><time>2026-04-12T14:45:13.028Z</time></trkpt><trkpt lat="43.015077" lon="12.8904555"><ele>773.0</ele><time>2026-04-12T14:45:14.034Z</time></trkpt><trkpt lat="43.0153302" lon="12.8906484"><ele>773.0</ele><time>2026-04-12T14:45:15.035Z</time></trkpt><trkpt lat="43.0155871" lon="12.8908336"><ele>773.0</ele><time>2026-04-12T14:45:16.032Z</time></trkpt><trkpt lat="43.0158471" lon="12.8910111"><ele>770.5</ele><time>2026-04-12T14:45:17.05Z</time></trkpt><trkpt lat="43.0161094" lon="12.8911805"><ele>768.0</ele><time>2026-04-12T14:45:18.031Z</time></trkpt><trkpt lat="43.0163725" lon="12.8913405"><ele>768.0</ele><time>2026-04-12T14:45:19.032Z</time></trkpt><trkpt lat="43.0166353" lon="12.8914927"><ele>768.0</ele><time>2026-04-12T14:45:20.031Z</time></trkpt><trkpt lat="43.0168973" lon="12.8916421"><ele>770.0</ele><time>2026-04-12T14:45:21.034Z</time></trkpt><trkpt lat="43.0171577" lon="12.89179"><ele>772.0</ele><time>2026-04-12T14:45:22.035Z</time></trkpt><trkpt lat="43.0174146" lon="12.8919356"><ele>770.5</ele><time>2026-04-12T14:45:23.032Z</time></trkpt><trkpt lat="43.0176686" lon="12.8920817"><ele>769.0</ele><time>2026-04-12T14:45:24.031Z</time></trkpt><trkpt lat="43.017922" lon="12.8922292"><ele>769.0</ele><time>2026-04-12T14:45:25.036Z</time></trkpt><trkpt lat="43.0181758" lon="12.892379"><ele>769.0</ele><time>2026-04-12T14:45:26.032Z</time></trkpt><trkpt lat="43.0184287" lon="12.8925368"><ele>768.5</ele><time>2026-04-12T14:45:27.033Z</time></trkpt><trkpt lat="43.0186794" lon="12.8927025"><ele>768.0</ele><time>2026-04-12T14:45:28.031Z</time></trkpt><trkpt lat="43.0189299" lon="12.8928775"><ele>767.5</ele><time>2026-04-12T14:45:29.031Z</time></trkpt><trkpt lat="43.0191787" lon="12.8930589"><ele>767.0</ele><time>2026-04-12T14:45:30.031Z</time></trkpt><trkpt lat="43.0194255" lon="12.8932489"><ele>768.5</ele><time>2026-04-12T14:45:31.032Z</time></trkpt><trkpt lat="43.0196675" lon="12.8934514"><ele>770.0</ele><time>2026-04-12T14:45:32.037Z</time></trkpt><trkpt lat="43.0199051" lon="12.8936601"><ele>769.0</ele><time>2026-04-12T14:45:33.03Z</time></trkpt><trkpt lat="43.0201392" lon="12.8938798"><ele>768.0</ele><time>2026-04-12T14:45:34.049Z</time></trkpt><trkpt lat="43.0203694" lon="12.894107"><ele>769.0</ele><time>2026-04-12T14:45:35.03Z</time></trkpt><trkpt lat="43.0205942" lon="12.894341"><ele>770.0</ele><time>2026-04-12T14:45:36.037Z</time></trkpt><trkpt lat="43.020814" lon="12.8945839"><ele>767.5</ele><time>2026-04-12T14:45:37.031Z</time></trkpt><trkpt lat="43.0210303" lon="12.894835"><ele>765.0</ele><time>2026-04-12T14:45:38.032Z</time></trkpt><trkpt lat="43.0212423" lon="12.8950918"><ele>765.0</ele><time>2026-04-12T14:45:39.031Z</time></trkpt><trkpt lat="43.0214509" lon="12.8953542"><ele>765.0</ele><time>2026-04-12T14:45:40.037Z</time></trkpt><trkpt lat="43.0216505" lon="12.8956252"><ele>764.5</ele><time>2026-04-12T14:45:41.032Z</time></trkpt><trkpt lat="43.0218432" lon="12.8959036"><ele>764.0</ele><time>2026-04-12T14:45:42.033Z</time></trkpt><trkpt lat="43.0220299" lon="12.896189"><ele>764.0</ele><time>2026-04-12T14:45:43.03Z</time></trkpt><trkpt lat="43.0222124" lon="12.8964816"><ele>764.0</ele><time>2026-04-12T14:45:44.029Z</time></trkpt><trkpt lat="43.0223909" lon="12.896783"><ele>764.5</ele><time>2026-04-12T14:45:45.029Z</time></trkpt><trkpt lat="43.022565" lon="12.8970909"><ele>765.0</ele><time>2026-04-12T14:45:46.035Z</time></trkpt><trkpt lat="43.0227321" lon="12.8974029"><ele>766.5</ele><time>2026-04-12T14:45:47.038Z</time></trkpt><trkpt lat="43.0228908" lon="12.8977195"><ele>768.0</ele><time>2026-04-12T14:45:48.029Z</time></trkpt><trkpt lat="43.0230411" lon="12.8980369"><ele>768.0</ele><time>2026-04-12T14:45:49.039Z</time></trkpt><trkpt lat="43.0231851" lon="12.8983538"><ele>768.0</ele><time>2026-04-12T14:45:50.041Z</time></trkpt><trkpt lat="43.0233204" lon="12.8986762"><ele>768.0</ele><time>2026-04-12T14:45:51.035Z</time></trkpt><trkpt lat="43.0234501" lon="12.8989943"><ele>768.0</ele><time>2026-04-12T14:45:52.04Z</time></trkpt><trkpt lat="43.0235743" lon="12.8993186"><ele>768.0</ele><time>2026-04-12T14:45:53.029Z</time></trkpt><trkpt lat="43.0236884" lon="12.8996452"><ele>768.0</ele><time>2026-04-12T14:45:54.047Z</time></trkpt><trkpt lat="43.0237976" lon="12.899967"><ele>767.5</ele><time>2026-04-12T14:45:55.035Z</time></trkpt><trkpt lat="43.0239013" lon="12.9002936"><ele>767.0</ele><time>2026-04-12T14:45:56.039Z</time></trkpt><trkpt lat="43.0239971" lon="12.9006244"><ele>767.0</ele><time>2026-04-12T14:45:57.029Z</time></trkpt><trkpt lat="43.0240869" lon="12.9009555"><ele>767.0</ele><time>2026-04-12T14:45:58.039Z</time></trkpt><trkpt lat="43.0241709" lon="12.9012882"><ele>766.0</ele><time>2026-04-12T14:45:59.032Z</time></trkpt><trkpt lat="43.0242478" lon="12.9016242"><ele>765.0</ele><time>2026-04-12T14:46:00.037Z</time></trkpt><trkpt lat="43.0243209" lon="12.9019699"><ele>765.0</ele><time>2026-04-12T14:46:01.031Z</time></trkpt><trkpt lat="43.0243986" lon="12.9023258"><ele>765.0</ele><time>2026-04-12T14:46:02.034Z</time></trkpt><trkpt lat="43.0244707" lon="12.9026832"><ele>765.5</ele><time>2026-04-12T14:46:03.029Z</time></trkpt><trkpt lat="43.0245382" lon="12.9030499"><ele>766.0</ele><time>2026-04-12T14:46:04.036Z</time></trkpt><trkpt lat="43.0245932" lon="12.9034174"><ele>766.5</ele><time>2026-04-12T14:46:05.032Z</time></trkpt><trkpt lat="43.0246343" lon="12.9037885"><ele>767.0</ele><time>2026-04-12T14:46:06.038Z</time></trkpt><trkpt lat="43.0246637" lon="12.9041564"><ele>769.0</ele><time>2026-04-12T14:46:07.035Z</time></trkpt><trkpt lat="43.0246834" lon="12.9045199"><ele>771.0</ele><time>2026-04-12T14:46:08.042Z</time></trkpt><trkpt lat="43.0246928" lon="12.9048811"><ele>775.0</ele><time>2026-04-12T14:46:09.034Z</time></trkpt><trkpt lat="43.0246966" lon="12.9052345"><ele>779.0</ele><time>2026-04-12T14:46:10.059Z</time></trkpt><trkpt lat="43.0247005" lon="12.9055858"><ele>782.5</ele><time>2026-04-12T14:46:11.026Z</time></trkpt><trkpt lat="43.0247071" lon="12.9059367"><ele>786.0</ele><time>2026-04-12T14:46:12.032Z</time></trkpt><trkpt lat="43.0247161" lon="12.9062851"><ele>786.0</ele><time>2026-04-12T14:46:13.032Z</time></trkpt><trkpt lat="43.0247258" lon="12.9066271"><ele>786.0</ele><time>2026-04-12T14:46:14.035Z</time></trkpt><trkpt lat="43.0247351" lon="12.9069656"><ele>785.5</ele><time>2026-04-12T14:46:15.031Z</time></trkpt><trkpt lat="43.0247438" lon="12.9073009"><ele>785.0</ele><time>2026-04-12T14:46:16.041Z</time></trkpt><trkpt lat="43.0247509" lon="12.9076366"><ele>790.0</ele><time>2026-04-12T14:46:17.028Z</time></trkpt><trkpt lat="43.0247572" lon="12.9079743"><ele>795.0</ele><time>2026-04-12T14:46:18.038Z</time></trkpt><trkpt lat="43.0247645" lon="12.9083184"><ele>796.0</ele><time>2026-04-12T14:46:19.03Z</time></trkpt><trkpt lat="43.0247692" lon="12.9086702"><ele>797.0</ele><time>2026-04-12T14:46:20.032Z</time></trkpt><trkpt lat="43.0248626" lon="12.9122445"><ele>799.5</ele><time>2026-04-12T14:46:30.029Z</time></trkpt><trkpt lat="43.024861" lon="12.9126008"><ele>802.0</ele><time>2026-04-12T14:46:31.034Z</time></trkpt><trkpt lat="43.0248505" lon="12.9129745"><ele>802.0</ele><time>2026-04-12T14:46:32.03Z</time></trkpt><trkpt lat="43.0248749" lon="12.9133584"><ele>802.0</ele><time>2026-04-12T14:46:33.036Z</time></trkpt><trkpt lat="43.0248973" lon="12.9137181"><ele>803.0</ele><time>2026-04-12T14:46:34.03Z</time></trkpt><trkpt lat="43.0249153" lon="12.9140913"><ele>804.0</ele><time>2026-04-12T14:46:35.031Z</time></trkpt><trkpt lat="43.0250122" lon="12.915124"><ele>789.5</ele><time>2026-04-12T14:46:38.03Z</time></trkpt><trkpt lat="43.0250603" lon="12.9154595"><ele>775.0</ele><time>2026-04-12T14:46:39.035Z</time></trkpt><trkpt lat="43.0251267" lon="12.9157908"><ele>773.0</ele><time>2026-04-12T14:46:40.034Z</time></trkpt><trkpt lat="43.0251929" lon="12.9161335"><ele>771.0</ele><time>2026-04-12T14:46:41.038Z</time></trkpt><trkpt lat="43.0252653" lon="12.9164694"><ele>770.5</ele><time>2026-04-12T14:46:42.026Z</time></trkpt><trkpt lat="43.025341" lon="12.9168066"><ele>770.0</ele><time>2026-04-12T14:46:43.035Z</time></trkpt><trkpt lat="43.0254221" lon="12.9171425"><ele>770.0</ele><time>2026-04-12T14:46:44.031Z</time></trkpt><trkpt lat="43.0255128" lon="12.917478"><ele>770.0</ele><time>2026-04-12T14:46:45.041Z</time></trkpt><trkpt lat="43.0256106" lon="12.9178125"><ele>770.5</ele><time>2026-04-12T14:46:46.033Z</time></trkpt><trkpt lat="43.0257168" lon="12.9181459"><ele>771.0</ele><time>2026-04-12T14:46:47.034Z</time></trkpt><trkpt lat="43.0258274" lon="12.918482"><ele>771.0</ele><time>2026-04-12T14:46:48.03Z</time></trkpt><trkpt lat="43.0259444" lon="12.9188176"><ele>771.0</ele><time>2026-04-12T14:46:49.027Z</time></trkpt><trkpt lat="43.0260686" lon="12.9191482"><ele>772.0</ele><time>2026-04-12T14:46:50.028Z</time></trkpt><trkpt lat="43.0262037" lon="12.9194745"><ele>773.0</ele><time>2026-04-12T14:46:51.038Z</time></trkpt><trkpt lat="43.0263441" lon="12.9197991"><ele>774.5</ele><time>2026-04-12T14:46:52.03Z</time></trkpt><trkpt lat="43.0264908" lon="12.9201195"><ele>776.0</ele><time>2026-04-12T14:46:53.04Z</time></trkpt><trkpt lat="43.0266446" lon="12.9204347"><ele>774.5</ele><time>2026-04-12T14:46:54.035Z</time></trkpt><trkpt lat="43.0268057" lon="12.9207449"><ele>773.0</ele><time>2026-04-12T14:46:55.032Z</time></trkpt><trkpt lat="43.0269738" lon="12.9210501"><ele>773.0</ele><time>2026-04-12T14:46:56.044Z</time></trkpt><trkpt lat="43.0271488" lon="12.921347"><ele>773.0</ele><time>2026-04-12T14:46:57.033Z</time></trkpt><trkpt lat="43.0273296" lon="12.9216361"><ele>772.5</ele><time>2026-04-12T14:46:58.031Z</time></trkpt><trkpt lat="43.027515" lon="12.9219145"><ele>772.0</ele><time>2026-04-12T14:46:59.029Z</time></trkpt><trkpt lat="43.0277041" lon="12.9221836"><ele>772.0</ele><time>2026-04-12T14:47:00.035Z</time></trkpt><trkpt lat="43.0278974" lon="12.9224459"><ele>772.0</ele><time>2026-04-12T14:47:01.034Z</time></trkpt><trkpt lat="43.0280952" lon="12.9226981"><ele>774.0</ele><time>2026-04-12T14:47:02.048Z</time></trkpt><trkpt lat="43.0282978" lon="12.9229413"><ele>776.0</ele><time>2026-04-12T14:47:03.032Z</time></trkpt><trkpt lat="43.0285043" lon="12.9231762"><ele>784.0</ele><time>2026-04-12T14:47:04.032Z</time></trkpt><trkpt lat="43.0287139" lon="12.9234046"><ele>792.0</ele><time>2026-04-12T14:47:05.034Z</time></trkpt><trkpt lat="43.0289283" lon="12.9236242"><ele>790.0</ele><time>2026-04-12T14:47:06.032Z</time></trkpt><trkpt lat="43.0291464" lon="12.9238374"><ele>788.0</ele><time>2026-04-12T14:47:07.036Z</time></trkpt><trkpt lat="43.0293674" lon="12.9240438"><ele>796.0</ele><time>2026-04-12T14:47:08.03Z</time></trkpt><trkpt lat="43.0295888" lon="12.9242431"><ele>804.0</ele><time>2026-04-12T14:47:09.034Z</time></trkpt><trkpt lat="43.0298131" lon="12.9244408"><ele>783.0</ele><time>2026-04-12T14:47:10.027Z</time></trkpt><trkpt lat="43.0309021" lon="12.9254049"><ele>783.0</ele><time>2026-04-12T14:47:15.047Z</time></trkpt><trkpt lat="43.0311012" lon="12.9255912"><ele>783.0</ele><time>2026-04-12T14:47:16.031Z</time></trkpt><trkpt lat="43.0313254" lon="12.9257716"><ele>780.5</ele><time>2026-04-12T14:47:17.036Z</time></trkpt><trkpt lat="43.0315691" lon="12.9259691"><ele>778.0</ele><time>2026-04-12T14:47:18.033Z</time></trkpt><trkpt lat="43.0317876" lon="12.9261505"><ele>775.0</ele><time>2026-04-12T14:47:19.033Z</time></trkpt><trkpt lat="43.032008" lon="12.9263408"><ele>772.0</ele><time>2026-04-12T14:47:20.038Z</time></trkpt><trkpt lat="43.0322293" lon="12.9265358"><ele>772.5</ele><time>2026-04-12T14:47:21.031Z</time></trkpt><trkpt lat="43.032453" lon="12.9267301"><ele>773.0</ele><time>2026-04-12T14:47:22.034Z</time></trkpt><trkpt lat="43.0326804" lon="12.926927"><ele>773.5</ele><time>2026-04-12T14:47:23.03Z</time></trkpt><trkpt lat="43.0329115" lon="12.9271216"><ele>774.0</ele><time>2026-04-12T14:47:24.028Z</time></trkpt><trkpt lat="43.0331476" lon="12.9273161"><ele>773.5</ele><time>2026-04-12T14:47:25.036Z</time></trkpt><trkpt lat="43.0333874" lon="12.9275114"><ele>773.0</ele><time>2026-04-12T14:47:26.028Z</time></trkpt><trkpt lat="43.0336284" lon="12.9277056"><ele>774.0</ele><time>2026-04-12T14:47:27.047Z</time></trkpt><trkpt lat="43.033871" lon="12.9278989"><ele>775.0</ele><time>2026-04-12T14:47:28.031Z</time></trkpt><trkpt lat="43.0341072" lon="12.9280807"><ele>774.5</ele><time>2026-04-12T14:47:29.037Z</time></trkpt><trkpt lat="43.0343493" lon="12.9282541"><ele>774.0</ele><time>2026-04-12T14:47:30.027Z</time></trkpt><trkpt lat="43.0345903" lon="12.9284277"><ele>774.0</ele><time>2026-04-12T14:47:31.032Z</time></trkpt><trkpt lat="43.034831" lon="12.928595"><ele>774.0</ele><time>2026-04-12T14:47:32.034Z</time></trkpt><trkpt lat="43.0350723" lon="12.9287588"><ele>770.0</ele><time>2026-04-12T14:47:33.034Z</time></trkpt><trkpt lat="43.0353127" lon="12.9289175"><ele>766.0</ele><time>2026-04-12T14:47:34.061Z</time></trkpt><trkpt lat="43.0355591" lon="12.9290643"><ele>765.0</ele><time>2026-04-12T14:47:35.031Z</time></trkpt><trkpt lat="43.0358042" lon="12.9292102"><ele>764.0</ele><time>2026-04-12T14:47:36.033Z</time></trkpt><trkpt lat="43.0360495" lon="12.9293453"><ele>767.0</ele><time>2026-04-12T14:47:37.036Z</time></trkpt><trkpt lat="43.0362965" lon="12.9294776"><ele>770.0</ele><time>2026-04-12T14:47:38.033Z</time></trkpt><trkpt lat="43.0365425" lon="12.929604"><ele>769.5</ele><time>2026-04-12T14:47:39.039Z</time></trkpt><trkpt lat="43.0367901" lon="12.9297262"><ele>769.0</ele><time>2026-04-12T14:47:40.03Z</time></trkpt><trkpt lat="43.0370386" lon="12.9298446"><ele>769.0</ele><time>2026-04-12T14:47:41.035Z</time></trkpt><trkpt lat="43.0372897" lon="12.9299585"><ele>769.0</ele><time>2026-04-12T14:47:42.028Z</time></trkpt><trkpt lat="43.0375413" lon="12.9300662"><ele>777.0</ele><time>2026-04-12T14:47:43.034Z</time></trkpt><trkpt lat="43.0377942" lon="12.93017"><ele>785.0</ele><time>2026-04-12T14:47:44.029Z</time></trkpt><trkpt lat="43.038048" lon="12.9302684"><ele>783.5</ele><time>2026-04-12T14:47:45.041Z</time></trkpt><trkpt lat="43.0383029" lon="12.9303608"><ele>782.0</ele><time>2026-04-12T14:47:46.034Z</time></trkpt><trkpt lat="43.0385579" lon="12.9304492"><ele>782.0</ele><time>2026-04-12T14:47:47.037Z</time></trkpt><trkpt lat="43.0388137" lon="12.9305329"><ele>782.0</ele><time>2026-04-12T14:47:48.03Z</time></trkpt><trkpt lat="43.0390695" lon="12.9306105"><ele>780.5</ele><time>2026-04-12T14:47:49.035Z</time></trkpt><trkpt lat="43.0393273" lon="12.9306814"><ele>779.0</ele><time>2026-04-12T14:47:50.029Z</time></trkpt><trkpt lat="43.0395855" lon="12.9307483"><ele>779.0</ele><time>2026-04-12T14:47:51.026Z</time></trkpt><trkpt lat="43.0398429" lon="12.9308112"><ele>779.0</ele><time>2026-04-12T14:47:52.026Z</time></trkpt><trkpt lat="43.0401002" lon="12.930874"><ele>777.0</ele><time>2026-04-12T14:47:53.04Z</time></trkpt><trkpt lat="43.0403584" lon="12.9309354"><ele>775.0</ele><time>2026-04-12T14:47:54.032Z</time></trkpt><trkpt lat="43.040618" lon="12.9309956"><ele>772.5</ele><time>2026-04-12T14:47:55.045Z</time></trkpt><trkpt lat="43.0408779" lon="12.9310554"><ele>770.0</ele><time>2026-04-12T14:47:56.03Z</time></trkpt><trkpt lat="43.0411374" lon="12.9311146"><ele>770.0</ele><time>2026-04-12T14:47:57.037Z</time></trkpt><trkpt lat="43.0413962" lon="12.9311712"><ele>770.0</ele><time>2026-04-12T14:47:58.037Z</time></trkpt><trkpt lat="43.041653" lon="12.931227"><ele>770.0</ele><time>2026-04-12T14:47:59.031Z</time></trkpt><trkpt lat="43.0419102" lon="12.9312786"><ele>770.0</ele><time>2026-04-12T14:48:00.03Z</time></trkpt><trkpt lat="43.04217" lon="12.9313293"><ele>770.0</ele><time>2026-04-12T14:48:01.036Z</time></trkpt><trkpt lat="43.0424337" lon="12.9313773"><ele>770.0</ele><time>2026-04-12T14:48:02.034Z</time></trkpt><trkpt lat="43.0427018" lon="12.9314255"><ele>770.5</ele><time>2026-04-12T14:48:03.033Z</time></trkpt><trkpt lat="43.0429725" lon="12.9314767"><ele>771.0</ele><time>2026-04-12T14:48:04.031Z</time></trkpt><trkpt lat="43.0432433" lon="12.9315316"><ele>773.5</ele><time>2026-04-12T14:48:05.034Z</time></trkpt><trkpt lat="43.0435137" lon="12.9315905"><ele>776.0</ele><time>2026-04-12T14:48:06.032Z</time></trkpt><trkpt lat="43.0437834" lon="12.9316544"><ele>776.0</ele><time>2026-04-12T14:48:07.036Z</time></trkpt><trkpt lat="43.0440512" lon="12.9317206"><ele>776.0</ele><time>2026-04-12T14:48:08.027Z</time></trkpt><trkpt lat="43.0443154" lon="12.9317889"><ele>786.5</ele><time>2026-04-12T14:48:09.042Z</time></trkpt><trkpt lat="43.0445758" lon="12.9318587"><ele>797.0</ele><time>2026-04-12T14:48:10.03Z</time></trkpt><trkpt lat="43.0448378" lon="12.931925"><ele>800.0</ele><time>2026-04-12T14:48:11.029Z</time></trkpt><trkpt lat="43.0451008" lon="12.9319971"><ele>803.0</ele><time>2026-04-12T14:48:12.027Z</time></trkpt><trkpt lat="43.0693739" lon="12.9566677"><ele>739.5</ele><time>2026-04-12T14:49:58.982Z</time></trkpt><trkpt lat="43.0695654" lon="12.9570294"><ele>676.0</ele><time>2026-04-12T14:50:00.036Z</time></trkpt><trkpt lat="43.069709" lon="12.9573572"><ele>686.5</ele><time>2026-04-12T14:50:01.028Z</time></trkpt><trkpt lat="43.0698641" lon="12.9576977"><ele>697.0</ele><time>2026-04-12T14:50:02.057Z</time></trkpt><trkpt lat="43.0735866" lon="12.9733466"><ele>658.5</ele><time>2026-04-12T14:50:43.034Z</time></trkpt><trkpt lat="43.0736138" lon="12.9737558"><ele>620.0</ele><time>2026-04-12T14:50:44.032Z</time></trkpt><trkpt lat="43.0736323" lon="12.9741518"><ele>614.0</ele><time>2026-04-12T14:50:45.035Z</time></trkpt><trkpt lat="43.0736557" lon="12.9745616"><ele>608.0</ele><time>2026-04-12T14:50:46.028Z</time></trkpt><trkpt lat="43.0736761" lon="12.974958"><ele>609.0</ele><time>2026-04-12T14:50:47.031Z</time></trkpt><trkpt lat="43.0736899" lon="12.9753581"><ele>610.0</ele><time>2026-04-12T14:50:48.043Z</time></trkpt><trkpt lat="43.0737011" lon="12.9757523"><ele>614.5</ele><time>2026-04-12T14:50:49.03Z</time></trkpt><trkpt lat="43.0737054" lon="12.9761519"><ele>619.0</ele><time>2026-04-12T14:50:50.05Z</time></trkpt><trkpt lat="43.073703" lon="12.9765376"><ele>630.0</ele><time>2026-04-12T14:50:51.03Z</time></trkpt><trkpt lat="43.0737036" lon="12.9769392"><ele>641.0</ele><time>2026-04-12T14:50:52.041Z</time></trkpt><trkpt lat="43.0737075" lon="12.977341"><ele>596.0</ele><time>2026-04-12T14:50:53.034Z</time></trkpt><trkpt lat="43.0757346" lon="12.9979705"><ele>580.0</ele><time>2026-04-12T14:51:44.961Z</time></trkpt><trkpt lat="43.075883" lon="12.9983816"><ele>564.0</ele><time>2026-04-12T14:51:45.978Z</time></trkpt><trkpt lat="43.0759886" lon="12.9987755"><ele>564.0</ele><time>2026-04-12T14:51:47.037Z</time></trkpt><trkpt lat="43.0760894" lon="12.9991546"><ele>564.0</ele><time>2026-04-12T14:51:48.033Z</time></trkpt><trkpt lat="43.0761756" lon="12.9995292"><ele>561.5</ele><time>2026-04-12T14:51:49.028Z</time></trkpt><trkpt lat="43.0762619" lon="12.9999121"><ele>559.0</ele><time>2026-04-12T14:51:50.036Z</time></trkpt><trkpt lat="43.0763471" lon="13.0002915"><ele>559.0</ele><time>2026-04-12T14:51:51.028Z</time></trkpt><trkpt lat="43.0764331" lon="13.0006747"><ele>559.0</ele><time>2026-04-12T14:51:52.04Z</time></trkpt><trkpt lat="43.076524" lon="13.0010651"><ele>553.5</ele><time>2026-04-12T14:51:53.035Z</time></trkpt><trkpt lat="43.0766145" lon="13.0014502"><ele>548.0</ele><time>2026-04-12T14:51:54.033Z</time></trkpt><trkpt lat="43.0767082" lon="13.0018364"><ele>548.0</ele><time>2026-04-12T14:51:55.038Z</time></trkpt><trkpt lat="43.0767918" lon="13.0022258"><ele>548.0</ele><time>2026-04-12T14:51:56.031Z</time></trkpt><trkpt lat="43.0768763" lon="13.0026189"><ele>548.5</ele><time>2026-04-12T14:51:57.038Z</time></trkpt><trkpt lat="43.0769616" lon="13.0030099"><ele>549.0</ele><time>2026-04-12T14:51:58.035Z</time></trkpt><trkpt lat="43.0770401" lon="13.0033886"><ele>549.0</ele><time>2026-04-12T14:51:59.039Z</time></trkpt><trkpt lat="43.0771209" lon="13.0037664"><ele>549.0</ele><time>2026-04-12T14:52:00.032Z</time></trkpt><trkpt lat="43.0772044" lon="13.0041462"><ele>498.0</ele><time>2026-04-12T14:52:01.039Z</time></trkpt><trkpt lat="43.0784722" lon="13.0305258"><ele>499.5</ele><time>2026-04-12T14:53:10.032Z</time></trkpt><trkpt lat="43.0783502" lon="13.0309127"><ele>501.0</ele><time>2026-04-12T14:53:11.038Z</time></trkpt><trkpt lat="43.0782238" lon="13.0313124"><ele>490.5</ele><time>2026-04-12T14:53:12.046Z</time></trkpt><trkpt lat="43.0781192" lon="13.0317007"><ele>480.0</ele><time>2026-04-12T14:53:13.031Z</time></trkpt><trkpt lat="43.0780209" lon="13.0320711"><ele>480.0</ele><time>2026-04-12T14:53:14.036Z</time></trkpt><trkpt lat="43.0779263" lon="13.0324348"><ele>480.0</ele><time>2026-04-12T14:53:15.029Z</time></trkpt><trkpt lat="43.0778315" lon="13.0328007"><ele>480.5</ele><time>2026-04-12T14:53:16.033Z</time></trkpt><trkpt lat="43.0777411" lon="13.0331677"><ele>481.0</ele><time>2026-04-12T14:53:17.034Z</time></trkpt><trkpt lat="43.077648" lon="13.0335293"><ele>479.0</ele><time>2026-04-12T14:53:18.036Z</time></trkpt><trkpt lat="43.0775587" lon="13.0338915"><ele>477.0</ele><time>2026-04-12T14:53:19.033Z</time></trkpt><trkpt lat="43.077468" lon="13.0342518"><ele>493.0</ele><time>2026-04-12T14:53:20.051Z</time></trkpt><trkpt lat="43.0773782" lon="13.0346056"><ele>509.0</ele><time>2026-04-12T14:53:21.031Z</time></trkpt><trkpt lat="43.077287" lon="13.0349584"><ele>502.5</ele><time>2026-04-12T14:53:22.032Z</time></trkpt><trkpt lat="43.0771947" lon="13.035327"><ele>496.0</ele><time>2026-04-12T14:53:23.032Z</time></trkpt><trkpt lat="43.0758273" lon="13.0419186"><ele>497.5</ele><time>2026-04-12T14:53:40.972Z</time></trkpt><trkpt lat="43.0757616" lon="13.0422585"><ele>499.0</ele><time>2026-04-12T14:53:42.044Z</time></trkpt><trkpt lat="43.0757268" lon="13.0426394"><ele>498.33333333333337</ele><time>2026-04-12T14:53:43.034Z</time></trkpt><trkpt lat="43.0756844" lon="13.0430264"><ele>497.66666666666663</ele><time>2026-04-12T14:53:44.043Z</time></trkpt><trkpt lat="43.0757573" lon="13.0428341"><ele>497.0</ele><time>2026-04-12T14:53:53.163Z</time></trkpt><trkpt lat="43.0756197" lon="13.0507135"><ele>490.0</ele><time>2026-04-12T14:54:03.976Z</time></trkpt><trkpt lat="43.0756157" lon="13.0512097"><ele>483.0</ele><time>2026-04-12T14:54:05.04Z</time></trkpt><trkpt lat="43.0756635" lon="13.0515956"><ele>475.0</ele><time>2026-04-12T14:54:06.044Z</time></trkpt><trkpt lat="43.0757155" lon="13.0519857"><ele>467.0</ele><time>2026-04-12T14:54:07.036Z</time></trkpt><trkpt lat="43.075757" lon="13.0523708"><ele>459.5</ele><time>2026-04-12T14:54:08.052Z</time></trkpt><trkpt lat="43.0758057" lon="13.052757"><ele>452.0</ele><time>2026-04-12T14:54:09.032Z</time></trkpt><trkpt lat="43.0758609" lon="13.0531515"><ele>448.5</ele><time>2026-04-12T14:54:10.04Z</time></trkpt><trkpt lat="43.0759197" lon="13.0535426"><ele>445.0</ele><time>2026-04-12T14:54:11.03Z</time></trkpt><trkpt lat="43.0759813" lon="13.0539346"><ele>443.5</ele><time>2026-04-12T14:54:12.037Z</time></trkpt><trkpt lat="43.0760447" lon="13.0543243"><ele>442.0</ele><time>2026-04-12T14:54:13.032Z</time></trkpt><trkpt lat="43.0761086" lon="13.054712"><ele>440.0</ele><time>2026-04-12T14:54:14.042Z</time></trkpt><trkpt lat="43.0761719" lon="13.0550842"><ele>438.0</ele><time>2026-04-12T14:54:15.029Z</time></trkpt><trkpt lat="43.0762371" lon="13.0554418"><ele>437.5</ele><time>2026-04-12T14:54:16.039Z</time></trkpt><trkpt lat="43.0763055" lon="13.0557974"><ele>437.0</ele><time>2026-04-12T14:54:17.031Z</time></trkpt><trkpt lat="43.0763789" lon="13.0561482"><ele>437.0</ele><time>2026-04-12T14:54:18.037Z</time></trkpt><trkpt lat="43.0764565" lon="13.0564988"><ele>437.0</ele><time>2026-04-12T14:54:19.028Z</time></trkpt><trkpt lat="43.0765384" lon="13.0568466"><ele>437.0</ele><time>2026-04-12T14:54:20.036Z</time></trkpt><trkpt lat="43.0766224" lon="13.0571982"><ele>437.0</ele><time>2026-04-12T14:54:21.031Z</time></trkpt><trkpt lat="43.0767113" lon="13.0575519"><ele>439.0</ele><time>2026-04-12T14:54:22.037Z</time></trkpt><trkpt lat="43.0768038" lon="13.0579084"><ele>441.0</ele><time>2026-04-12T14:54:23.033Z</time></trkpt><trkpt lat="43.076901" lon="13.0582661"><ele>442.0</ele><time>2026-04-12T14:54:24.029Z</time></trkpt><trkpt lat="43.0770001" lon="13.0586246"><ele>443.0</ele><time>2026-04-12T14:54:25.032Z</time></trkpt><trkpt lat="43.0770992" lon="13.0589807"><ele>443.0</ele><time>2026-04-12T14:54:26.032Z</time></trkpt><trkpt lat="43.0771985" lon="13.0593306"><ele>443.0</ele><time>2026-04-12T14:54:27.032Z</time></trkpt><trkpt lat="43.0772985" lon="13.0596758"><ele>445.5</ele><time>2026-04-12T14:54:28.058Z</time></trkpt><trkpt lat="43.0773979" lon="13.0600161"><ele>448.0</ele><time>2026-04-12T14:54:29.031Z</time></trkpt><trkpt lat="43.0774958" lon="13.0603518"><ele>450.0</ele><time>2026-04-12T14:54:30.032Z</time></trkpt><trkpt lat="43.0775919" lon="13.0606845"><ele>452.0</ele><time>2026-04-12T14:54:31.026Z</time></trkpt><trkpt lat="43.0765063" lon="13.0584298"><ele>442.0</ele><time>2026-04-12T14:54:43.159Z</time></trkpt><trkpt lat="43.0794842" lon="13.070194"><ele>442.0</ele><time>2026-04-12T14:54:56.979Z</time></trkpt><trkpt lat="43.0795112" lon="13.0706358"><ele>442.0</ele><time>2026-04-12T14:54:58.038Z</time></trkpt><trkpt lat="43.0795252" lon="13.0710239"><ele>437.5</ele><time>2026-04-12T14:54:59.032Z</time></trkpt><trkpt lat="43.0795534" lon="13.0714096"><ele>433.0</ele><time>2026-04-12T14:55:00.041Z</time></trkpt><trkpt lat="43.0795791" lon="13.0717898"><ele>431.0</ele><time>2026-04-12T14:55:01.028Z</time></trkpt><trkpt lat="43.079603" lon="13.0721648"><ele>429.0</ele><time>2026-04-12T14:55:02.039Z</time></trkpt><trkpt lat="43.0796247" lon="13.0725355"><ele>427.0</ele><time>2026-04-12T14:55:03.034Z</time></trkpt><trkpt lat="43.0796457" lon="13.0729022"><ele>425.0</ele><time>2026-04-12T14:55:04.034Z</time></trkpt><trkpt lat="43.0796681" lon="13.0732686"><ele>423.0</ele><time>2026-04-12T14:55:05.026Z</time></trkpt><trkpt lat="43.0796928" lon="13.0736368"><ele>421.0</ele><time>2026-04-12T14:55:06.038Z</time></trkpt><trkpt lat="43.0797189" lon="13.0740068"><ele>420.0</ele><time>2026-04-12T14:55:07.028Z</time></trkpt><trkpt lat="43.079747" lon="13.074381"><ele>419.0</ele><time>2026-04-12T14:55:08.037Z</time></trkpt><trkpt lat="43.0797778" lon="13.0747589"><ele>417.5</ele><time>2026-04-12T14:55:09.028Z</time></trkpt><trkpt lat="43.0798146" lon="13.0751376"><ele>416.0</ele><time>2026-04-12T14:55:10.032Z</time></trkpt><trkpt lat="43.0798575" lon="13.0755173"><ele>415.0</ele><time>2026-04-12T14:55:11.032Z</time></trkpt><trkpt lat="43.0799091" lon="13.0758989"><ele>414.0</ele><time>2026-04-12T14:55:12.038Z</time></trkpt><trkpt lat="43.0799673" lon="13.0762819"><ele>417.0</ele><time>2026-04-12T14:55:13.031Z</time></trkpt><trkpt lat="43.0800268" lon="13.0766667"><ele>420.0</ele><time>2026-04-12T14:55:14.035Z</time></trkpt><trkpt lat="43.0800864" lon="13.0770524"><ele>418.5</ele><time>2026-04-12T14:55:15.032Z</time></trkpt><trkpt lat="43.0801469" lon="13.0774405"><ele>417.0</ele><time>2026-04-12T14:55:16.036Z</time></trkpt><trkpt lat="43.0802074" lon="13.0778282"><ele>417.0</ele><time>2026-04-12T14:55:17.031Z</time></trkpt><trkpt lat="43.0802655" lon="13.0782168"><ele>417.0</ele><time>2026-04-12T14:55:18.027Z</time></trkpt><trkpt lat="43.0803206" lon="13.0786064"><ele>418.0</ele><time>2026-04-12T14:55:19.027Z</time></trkpt><trkpt lat="43.0803739" lon="13.0789981"><ele>419.0</ele><time>2026-04-12T14:55:20.027Z</time></trkpt><trkpt lat="43.0804271" lon="13.0793992"><ele>416.0</ele><time>2026-04-12T14:55:21.026Z</time></trkpt><trkpt lat="43.0807339" lon="13.0848273"><ele>418.5</ele><time>2026-04-12T14:55:34.995Z</time></trkpt><trkpt lat="43.080777" lon="13.085222"><ele>421.0</ele><time>2026-04-12T14:55:36.037Z</time></trkpt><trkpt lat="43.0807859" lon="13.0856046"><ele>417.0</ele><time>2026-04-12T14:55:37.037Z</time></trkpt><trkpt lat="43.0808032" lon="13.0859894"><ele>413.0</ele><time>2026-04-12T14:55:38.04Z</time></trkpt><trkpt lat="43.0808326" lon="13.0863747"><ele>413.0</ele><time>2026-04-12T14:55:39.029Z</time></trkpt><trkpt lat="43.0808609" lon="13.0867648"><ele>413.0</ele><time>2026-04-12T14:55:40.041Z</time></trkpt><trkpt lat="43.080895" lon="13.0871538"><ele>414.0</ele><time>2026-04-12T14:55:41.032Z</time></trkpt><trkpt lat="43.0809344" lon="13.0875409"><ele>415.0</ele><time>2026-04-12T14:55:42.037Z</time></trkpt><trkpt lat="43.0809804" lon="13.0879274"><ele>414.0</ele><time>2026-04-12T14:55:43.033Z</time></trkpt><trkpt lat="43.0810323" lon="13.0883115"><ele>413.0</ele><time>2026-04-12T14:55:44.036Z</time></trkpt><trkpt lat="43.0810892" lon="13.0886902"><ele>413.0</ele><time>2026-04-12T14:55:45.03Z</time></trkpt><trkpt lat="43.0811491" lon="13.0890662"><ele>413.0</ele><time>2026-04-12T14:55:46.038Z</time></trkpt><trkpt lat="43.0812127" lon="13.0894391"><ele>412.0</ele><time>2026-04-12T14:55:47.036Z</time></trkpt><trkpt lat="43.0812817" lon="13.0898129"><ele>411.0</ele><time>2026-04-12T14:55:48.04Z</time></trkpt><trkpt lat="43.0813595" lon="13.0901803"><ele>410.0</ele><time>2026-04-12T14:55:49.031Z</time></trkpt><trkpt lat="43.0814441" lon="13.0905368"><ele>409.0</ele><time>2026-04-12T14:55:50.038Z</time></trkpt><trkpt lat="43.0815315" lon="13.0908886"><ele>413.5</ele><time>2026-04-12T14:55:51.031Z</time></trkpt><trkpt lat="43.0816128" lon="13.0912143"><ele>418.0</ele><time>2026-04-12T14:55:52.036Z</time></trkpt><trkpt lat="43.0817087" lon="13.091542"><ele>414.5</ele><time>2026-04-12T14:55:53.035Z</time></trkpt><trkpt lat="43.0817998" lon="13.0918545"><ele>411.0</ele><time>2026-04-12T14:55:54.033Z</time></trkpt><trkpt lat="43.0818978" lon="13.0921763"><ele>407.5</ele><time>2026-04-12T14:55:55.072Z</time></trkpt><trkpt lat="43.0819977" lon="13.0924937"><ele>404.0</ele><time>2026-04-12T14:55:56.033Z</time></trkpt><trkpt lat="43.0821033" lon="13.0928075"><ele>404.0</ele><time>2026-04-12T14:55:57.029Z</time></trkpt><trkpt lat="43.082213" lon="13.0931188"><ele>404.0</ele><time>2026-04-12T14:55:58.039Z</time></trkpt><trkpt lat="43.082327" lon="13.0934253"><ele>409.0</ele><time>2026-04-12T14:55:59.035Z</time></trkpt><trkpt lat="43.0824408" lon="13.0937219"><ele>414.0</ele><time>2026-04-12T14:56:00.05Z</time></trkpt><trkpt lat="43.0825582" lon="13.0940131"><ele>410.0</ele><time>2026-04-12T14:56:01.036Z</time></trkpt><trkpt lat="43.0826755" lon="13.0942899"><ele>406.0</ele><time>2026-04-12T14:56:02.032Z</time></trkpt><trkpt lat="43.082794" lon="13.094555"><ele>406.0</ele><time>2026-04-12T14:56:03.031Z</time></trkpt><trkpt lat="43.0829159" lon="13.0948179"><ele>406.0</ele><time>2026-04-12T14:56:04.04Z</time></trkpt><trkpt lat="43.0830392" lon="13.0950794"><ele>404.6666666666667</ele><time>2026-04-12T14:56:05.03Z</time></trkpt><trkpt lat="43.0831644" lon="13.0953344"><ele>403.33333333333337</ele><time>2026-04-12T14:56:06.028Z</time></trkpt><trkpt lat="43.083296" lon="13.0955801"><ele>402.0</ele><time>2026-04-12T14:56:07.035Z</time></trkpt><trkpt lat="43.0834326" lon="13.0958208"><ele>407.66666666666663</ele><time>2026-04-12T14:56:08.036Z</time></trkpt><trkpt lat="43.0835694" lon="13.0960561"><ele>413.3333333333333</ele><time>2026-04-12T14:56:09.051Z</time></trkpt><trkpt lat="43.0837017" lon="13.0962821"><ele>419.0</ele><time>2026-04-12T14:56:10.031Z</time></trkpt><trkpt lat="43.0838254" lon="13.0964987"><ele>420.66666666666663</ele><time>2026-04-12T14:56:11.03Z</time></trkpt><trkpt lat="43.0839446" lon="13.096706"><ele>422.33333333333337</ele><time>2026-04-12T14:56:12.03Z</time></trkpt><trkpt lat="43.0840627" lon="13.0969078"><ele>424.0</ele><time>2026-04-12T14:56:13.033Z</time></trkpt><trkpt lat="43.0841789" lon="13.0971133"><ele>424.0</ele><time>2026-04-12T14:56:14.052Z</time></trkpt><trkpt lat="43.0842938" lon="13.0973237"><ele>424.0</ele><time>2026-04-12T14:56:15.033Z</time></trkpt><trkpt lat="43.0844071" lon="13.097532"><ele>424.0</ele><time>2026-04-12T14:56:16.029Z</time></trkpt><trkpt lat="43.0845187" lon="13.0977382"><ele>417.6666666666667</ele><time>2026-04-12T14:56:17.03Z</time></trkpt><trkpt lat="43.0846272" lon="13.0979425"><ele>411.33333333333337</ele><time>2026-04-12T14:56:18.028Z</time></trkpt><trkpt lat="43.0847345" lon="13.0981503"><ele>405.0</ele><time>2026-04-12T14:56:19.027Z</time></trkpt><trkpt lat="43.0848498" lon="13.0983675"><ele>407.66666666666663</ele><time>2026-04-12T14:56:20.028Z</time></trkpt><trkpt lat="43.084975" lon="13.0985942"><ele>410.3333333333333</ele><time>2026-04-12T14:56:21.03Z</time></trkpt><trkpt lat="43.0851053" lon="13.0988261"><ele>413.0</ele><time>2026-04-12T14:56:22.032Z</time></trkpt><trkpt lat="43.0852389" lon="13.0990628"><ele>410.0</ele><time>2026-04-12T14:56:23.03Z</time></trkpt><trkpt lat="43.0853772" lon="13.0993043"><ele>407.0</ele><time>2026-04-12T14:56:24.031Z</time></trkpt><trkpt lat="43.0855205" lon="13.0995541"><ele>407.0</ele><time>2026-04-12T14:56:25.027Z</time></trkpt><trkpt lat="43.0856722" lon="13.0998114"><ele>407.0</ele><time>2026-04-12T14:56:26.037Z</time></trkpt><trkpt lat="43.0858332" lon="13.1000794"><ele>410.5</ele><time>2026-04-12T14:56:27.028Z</time></trkpt><trkpt lat="43.0860006" lon="13.1003571"><ele>414.0</ele><time>2026-04-12T14:56:28.031Z</time></trkpt><trkpt lat="43.0861694" lon="13.100648"><ele>408.5</ele><time>2026-04-12T14:56:29.033Z</time></trkpt><trkpt lat="43.086338" lon="13.1009486"><ele>403.0</ele><time>2026-04-12T14:56:30.037Z</time></trkpt><trkpt lat="43.0865009" lon="13.101261"><ele>404.0</ele><time>2026-04-12T14:56:31.029Z</time></trkpt><trkpt lat="43.0866616" lon="13.101573"><ele>405.0</ele><time>2026-04-12T14:56:32.043Z</time></trkpt><trkpt lat="43.0868217" lon="13.1018848"><ele>405.0</ele><time>2026-04-12T14:56:33.032Z</time></trkpt><trkpt lat="43.0869858" lon="13.1021933"><ele>405.0</ele><time>2026-04-12T14:56:34.026Z</time></trkpt><trkpt lat="43.0871484" lon="13.1025016"><ele>402.0</ele><time>2026-04-12T14:56:35.028Z</time></trkpt><trkpt lat="43.0873027" lon="13.1028165"><ele>399.0</ele><time>2026-04-12T14:56:36.035Z</time></trkpt><trkpt lat="43.0874492" lon="13.1031286"><ele>402.0</ele><time>2026-04-12T14:56:37.038Z</time></trkpt><trkpt lat="43.0875858" lon="13.1034385"><ele>405.0</ele><time>2026-04-12T14:56:38.029Z</time></trkpt><trkpt lat="43.0877135" lon="13.1037482"><ele>405.0</ele><time>2026-04-12T14:56:39.051Z</time></trkpt><trkpt lat="43.0878339" lon="13.1040546"><ele>405.0</ele><time>2026-04-12T14:56:40.029Z</time></trkpt><trkpt lat="43.0879485" lon="13.1043582"><ele>402.0</ele><time>2026-04-12T14:56:41.036Z</time></trkpt><trkpt lat="43.0880609" lon="13.1046607"><ele>399.0</ele><time>2026-04-12T14:56:42.034Z</time></trkpt><trkpt lat="43.0881716" lon="13.1049621"><ele>402.0</ele><time>2026-04-12T14:56:43.039Z</time></trkpt><trkpt lat="43.0882806" lon="13.1052656"><ele>405.0</ele><time>2026-04-12T14:56:44.028Z</time></trkpt><trkpt lat="43.0883917" lon="13.1055716"><ele>405.5</ele><time>2026-04-12T14:56:45.028Z</time></trkpt><trkpt lat="43.0885055" lon="13.1058811"><ele>406.0</ele><time>2026-04-12T14:56:46.034Z</time></trkpt><trkpt lat="43.0886207" lon="13.1061944"><ele>406.0</ele><time>2026-04-12T14:56:47.032Z</time></trkpt><trkpt lat="43.088736" lon="13.1065157"><ele>406.0</ele><time>2026-04-12T14:56:48.032Z</time></trkpt><trkpt lat="43.0888517" lon="13.1068415"><ele>405.0</ele><time>2026-04-12T14:56:49.051Z</time></trkpt><trkpt lat="43.0889707" lon="13.1071682"><ele>404.0</ele><time>2026-04-12T14:56:50.03Z</time></trkpt><trkpt lat="43.0890911" lon="13.1074938"><ele>404.5</ele><time>2026-04-12T14:56:51.031Z</time></trkpt><trkpt lat="43.0892104" lon="13.1078182"><ele>405.0</ele><time>2026-04-12T14:56:52.033Z</time></trkpt><trkpt lat="43.089329" lon="13.1081402"><ele>404.5</ele><time>2026-04-12T14:56:53.035Z</time></trkpt><trkpt lat="43.0894456" lon="13.1084585"><ele>404.0</ele><time>2026-04-12T14:56:54.03Z</time></trkpt><trkpt lat="43.0895611" lon="13.1087774"><ele>405.5</ele><time>2026-04-12T14:56:55.036Z</time></trkpt><trkpt lat="43.0896903" lon="13.1090899"><ele>407.0</ele><time>2026-04-12T14:56:56.029Z</time></trkpt><trkpt lat="43.0900415" lon="13.1100227"><ele>410.0</ele><time>2026-04-12T14:56:59.03Z</time></trkpt><trkpt lat="43.0901611" lon="13.110346"><ele>413.0</ele><time>2026-04-12T14:57:00.035Z</time></trkpt><trkpt lat="43.0902685" lon="13.1106751"><ele>404.0</ele><time>2026-04-12T14:57:01.032Z</time></trkpt><trkpt lat="43.0903891" lon="13.1109907"><ele>395.0</ele><time>2026-04-12T14:57:02.045Z</time></trkpt><trkpt lat="43.0905096" lon="13.1113078"><ele>390.0</ele><time>2026-04-12T14:57:03.031Z</time></trkpt><trkpt lat="43.0906274" lon="13.1116233"><ele>385.0</ele><time>2026-04-12T14:57:04.031Z</time></trkpt><trkpt lat="43.090748" lon="13.1119398"><ele>385.5</ele><time>2026-04-12T14:57:05.031Z</time></trkpt><trkpt lat="43.0908689" lon="13.112258"><ele>386.0</ele><time>2026-04-12T14:57:06.035Z</time></trkpt><trkpt lat="43.0909915" lon="13.1125819"><ele>386.0</ele><time>2026-04-12T14:57:07.036Z</time></trkpt><trkpt lat="43.0911159" lon="13.1129028"><ele>386.0</ele><time>2026-04-12T14:57:08.036Z</time></trkpt><trkpt lat="43.0912451" lon="13.1132222"><ele>385.5</ele><time>2026-04-12T14:57:09.034Z</time></trkpt><trkpt lat="43.0913781" lon="13.1135425"><ele>385.0</ele><time>2026-04-12T14:57:10.028Z</time></trkpt><trkpt lat="43.0915132" lon="13.1138612"><ele>392.0</ele><time>2026-04-12T14:57:11.029Z</time></trkpt><trkpt lat="43.0916529" lon="13.1141795"><ele>399.0</ele><time>2026-04-12T14:57:12.029Z</time></trkpt><trkpt lat="43.0917954" lon="13.1144985"><ele>399.0</ele><time>2026-04-12T14:57:13.028Z</time></trkpt><trkpt lat="43.0919411" lon="13.1148147"><ele>399.0</ele><time>2026-04-12T14:57:14.037Z</time></trkpt><trkpt lat="43.0957055" lon="13.1219659"><ele>399.5</ele><time>2026-04-12T14:57:36.992Z</time></trkpt><trkpt lat="43.09591" lon="13.1222682"><ele>400.0</ele><time>2026-04-12T14:57:38.041Z</time></trkpt><trkpt lat="43.0961366" lon="13.1224852"><ele>394.0</ele><time>2026-04-12T14:57:39.031Z</time></trkpt><trkpt lat="43.0963686" lon="13.1227049"><ele>388.0</ele><time>2026-04-12T14:57:40.044Z</time></trkpt><trkpt lat="43.096603" lon="13.1229004"><ele>388.0</ele><time>2026-04-12T14:57:41.035Z</time></trkpt><trkpt lat="43.0968418" lon="13.1230828"><ele>388.0</ele><time>2026-04-12T14:57:42.039Z</time></trkpt><trkpt lat="43.0970825" lon="13.1232532"><ele>383.0</ele><time>2026-04-12T14:57:43.031Z</time></trkpt><trkpt lat="43.0973269" lon="13.1234154"><ele>378.0</ele><time>2026-04-12T14:57:44.036Z</time></trkpt><trkpt lat="43.0975768" lon="13.1235794"><ele>378.0</ele><time>2026-04-12T14:57:45.038Z</time></trkpt><trkpt lat="43.0978144" lon="13.1237412"><ele>378.0</ele><time>2026-04-12T14:57:46.04Z</time></trkpt><trkpt lat="43.0980519" lon="13.1239142"><ele>377.5</ele><time>2026-04-12T14:57:47.031Z</time></trkpt><trkpt lat="43.0982879" lon="13.1240981"><ele>377.0</ele><time>2026-04-12T14:57:48.04Z</time></trkpt><trkpt lat="43.0985192" lon="13.1242971"><ele>377.0</ele><time>2026-04-12T14:57:49.031Z</time></trkpt><trkpt lat="43.0987402" lon="13.1245153"><ele>377.0</ele><time>2026-04-12T14:57:50.034Z</time></trkpt><trkpt lat="43.0989535" lon="13.1247463"><ele>376.5</ele><time>2026-04-12T14:57:51.038Z</time></trkpt><trkpt lat="43.0991593" lon="13.1249914"><ele>376.0</ele><time>2026-04-12T14:57:52.037Z</time></trkpt><trkpt lat="43.0993557" lon="13.1252505"><ele>376.0</ele><time>2026-04-12T14:57:53.032Z</time></trkpt><trkpt lat="43.0995434" lon="13.1255214"><ele>376.0</ele><time>2026-04-12T14:57:54.038Z</time></trkpt><trkpt lat="43.0997228" lon="13.1258035"><ele>376.5</ele><time>2026-04-12T14:57:55.038Z</time></trkpt><trkpt lat="43.0998978" lon="13.1260911"><ele>377.0</ele><time>2026-04-12T14:57:56.031Z</time></trkpt><trkpt lat="43.1000717" lon="13.1263826"><ele>372.0</ele><time>2026-04-12T14:57:57.032Z</time></trkpt><trkpt lat="43.1002465" lon="13.1266727"><ele>367.0</ele><time>2026-04-12T14:57:58.028Z</time></trkpt><trkpt lat="43.100424" lon="13.1269598"><ele>367.0</ele><time>2026-04-12T14:57:59.059Z</time></trkpt><trkpt lat="43.1006084" lon="13.1272369"><ele>367.0</ele><time>2026-04-12T14:58:00.031Z</time></trkpt><trkpt lat="43.1008045" lon="13.1274983"><ele>367.0</ele><time>2026-04-12T14:58:01.03Z</time></trkpt><trkpt lat="43.1010086" lon="13.1277477"><ele>367.0</ele><time>2026-04-12T14:58:02.032Z</time></trkpt><trkpt lat="43.1012207" lon="13.1279836"><ele>367.0</ele><time>2026-04-12T14:58:03.037Z</time></trkpt><trkpt lat="43.1014405" lon="13.1282024"><ele>367.0</ele><time>2026-04-12T14:58:04.044Z</time></trkpt><trkpt lat="43.1016673" lon="13.128413"><ele>365.0</ele><time>2026-04-12T14:58:05.036Z</time></trkpt><trkpt lat="43.1018984" lon="13.128608"><ele>363.0</ele><time>2026-04-12T14:58:06.04Z</time></trkpt><trkpt lat="43.1021342" lon="13.1287866"><ele>363.0</ele><time>2026-04-12T14:58:07.031Z</time></trkpt><trkpt lat="43.102376" lon="13.1289484"><ele>363.0</ele><time>2026-04-12T14:58:08.033Z</time></trkpt><trkpt lat="43.1026218" lon="13.1290935"><ele>362.0</ele><time>2026-04-12T14:58:09.028Z</time></trkpt><trkpt lat="43.1028718" lon="13.1292218"><ele>361.0</ele><time>2026-04-12T14:58:10.036Z</time></trkpt><trkpt lat="43.1031243" lon="13.1293353"><ele>360.0</ele><time>2026-04-12T14:58:11.033Z</time></trkpt><trkpt lat="43.1033767" lon="13.129434"><ele>359.0</ele><time>2026-04-12T14:58:12.038Z</time></trkpt><trkpt lat="43.1036288" lon="13.1295139"><ele>359.0</ele><time>2026-04-12T14:58:13.03Z</time></trkpt><trkpt lat="43.1038825" lon="13.1295856"><ele>359.0</ele><time>2026-04-12T14:58:14.04Z</time></trkpt><trkpt lat="43.1041289" lon="13.129656"><ele>358.0</ele><time>2026-04-12T14:58:15.029Z</time></trkpt><trkpt lat="43.1043692" lon="13.1297272"><ele>357.0</ele><time>2026-04-12T14:58:16.046Z</time></trkpt><trkpt lat="43.104597" lon="13.1297909"><ele>357.0</ele><time>2026-04-12T14:58:17.031Z</time></trkpt><trkpt lat="43.1048139" lon="13.1298467"><ele>357.0</ele><time>2026-04-12T14:58:18.033Z</time></trkpt><trkpt lat="43.1050146" lon="13.1299039"><ele>357.0</ele><time>2026-04-12T14:58:19.03Z</time></trkpt><trkpt lat="43.1052005" lon="13.1299528"><ele>356.75</ele><time>2026-04-12T14:58:20.031Z</time></trkpt><trkpt lat="43.1053683" lon="13.1299993"><ele>356.5</ele><time>2026-04-12T14:58:21.031Z</time></trkpt><trkpt lat="43.1055044" lon="13.1300317"><ele>356.25</ele><time>2026-04-12T14:58:22.032Z</time></trkpt><trkpt lat="43.1056098" lon="13.1300584"><ele>356.0</ele><time>2026-04-12T14:58:23.032Z</time></trkpt><trkpt lat="43.1057167" lon="13.1300754"><ele>355.25</ele><time>2026-04-12T14:58:24.032Z</time></trkpt><trkpt lat="43.1058405" lon="13.1300916"><ele>354.5</ele><time>2026-04-12T14:58:25.038Z</time></trkpt><trkpt lat="43.1059891" lon="13.130098"><ele>353.75</ele><time>2026-04-12T14:58:26.039Z</time></trkpt><trkpt lat="43.1061593" lon="13.1300908"><ele>353.0</ele><time>2026-04-12T14:58:27.032Z</time></trkpt><trkpt lat="43.1063361" lon="13.1300717"><ele>353.0</ele><time>2026-04-12T14:58:28.04Z</time></trkpt><trkpt lat="43.1065324" lon="13.1300453"><ele>353.0</ele><time>2026-04-12T14:58:29.042Z</time></trkpt><trkpt lat="43.1067423" lon="13.1300162"><ele>353.0</ele><time>2026-04-12T14:58:30.031Z</time></trkpt><trkpt lat="43.1069602" lon="13.1299857"><ele>352.33333333333337</ele><time>2026-04-12T14:58:31.037Z</time></trkpt><trkpt lat="43.1071799" lon="13.129959"><ele>351.6666666666667</ele><time>2026-04-12T14:58:32.038Z</time></trkpt><trkpt lat="43.107394" lon="13.1299326"><ele>351.0</ele><time>2026-04-12T14:58:33.04Z</time></trkpt><trkpt lat="43.1076142" lon="13.1299118"><ele>351.0</ele><time>2026-04-12T14:58:34.036Z</time></trkpt><trkpt lat="43.1078406" lon="13.1299025"><ele>351.0</ele><time>2026-04-12T14:58:35.046Z</time></trkpt><trkpt lat="43.1080769" lon="13.1298999"><ele>351.0</ele><time>2026-04-12T14:58:36.037Z</time></trkpt><trkpt lat="43.1083178" lon="13.1299015"><ele>351.0</ele><time>2026-04-12T14:58:37.033Z</time></trkpt><trkpt lat="43.1085567" lon="13.129914"><ele>351.0</ele><time>2026-04-12T14:58:38.033Z</time></trkpt><trkpt lat="43.1087942" lon="13.1299214"><ele>351.0</ele><time>2026-04-12T14:58:39.035Z</time></trkpt><trkpt lat="43.1090364" lon="13.1299318"><ele>354.0</ele><time>2026-04-12T14:58:40.033Z</time></trkpt><trkpt lat="43.1092814" lon="13.1299457"><ele>357.0</ele><time>2026-04-12T14:58:41.042Z</time></trkpt><trkpt lat="43.1095263" lon="13.1299595"><ele>357.0</ele><time>2026-04-12T14:58:42.031Z</time></trkpt><trkpt lat="43.1097707" lon="13.1299748"><ele>357.0</ele><time>2026-04-12T14:58:43.033Z</time></trkpt><trkpt lat="43.1100167" lon="13.1299902"><ele>355.5</ele><time>2026-04-12T14:58:44.032Z</time></trkpt><trkpt lat="43.1102634" lon="13.1300056"><ele>354.0</ele><time>2026-04-12T14:58:45.039Z</time></trkpt><trkpt lat="43.110512" lon="13.1300229"><ele>352.5</ele><time>2026-04-12T14:58:46.037Z</time></trkpt><trkpt lat="43.1107612" lon="13.1300403"><ele>351.0</ele><time>2026-04-12T14:58:47.048Z</time></trkpt><trkpt lat="43.1110116" lon="13.1300572"><ele>351.0</ele><time>2026-04-12T14:58:48.035Z</time></trkpt><trkpt lat="43.1112645" lon="13.1300733"><ele>351.0</ele><time>2026-04-12T14:58:49.033Z</time></trkpt><trkpt lat="43.1115174" lon="13.130088"><ele>349.0</ele><time>2026-04-12T14:58:50.036Z</time></trkpt><trkpt lat="43.1117681" lon="13.1300991"><ele>347.0</ele><time>2026-04-12T14:58:51.026Z</time></trkpt><trkpt lat="43.1120183" lon="13.1301069"><ele>347.0</ele><time>2026-04-12T14:58:52.053Z</time></trkpt><trkpt lat="43.1122679" lon="13.1301098"><ele>347.0</ele><time>2026-04-12T14:58:53.038Z</time></trkpt><trkpt lat="43.1125169" lon="13.1301053"><ele>346.0</ele><time>2026-04-12T14:58:54.031Z</time></trkpt><trkpt lat="43.1127668" lon="13.1300894"><ele>345.0</ele><time>2026-04-12T14:58:55.036Z</time></trkpt><trkpt lat="43.1130177" lon="13.1300656"><ele>344.0</ele><time>2026-04-12T14:58:56.04Z</time></trkpt><trkpt lat="43.1132724" lon="13.1300404"><ele>343.0</ele><time>2026-04-12T14:58:57.033Z</time></trkpt><trkpt lat="43.1135316" lon="13.1300196"><ele>343.0</ele><time>2026-04-12T14:58:58.037Z</time></trkpt><trkpt lat="43.1137961" lon="13.1300047"><ele>343.0</ele><time>2026-04-12T14:58:59.031Z</time></trkpt><trkpt lat="43.1140614" lon="13.1299993"><ele>342.5</ele><time>2026-04-12T14:59:00.044Z</time></trkpt><trkpt lat="43.114328" lon="13.130006"><ele>342.0</ele><time>2026-04-12T14:59:01.032Z</time></trkpt><trkpt lat="43.1145958" lon="13.1300257"><ele>342.0</ele><time>2026-04-12T14:59:02.037Z</time></trkpt><trkpt lat="43.1148638" lon="13.1300569"><ele>342.0</ele><time>2026-04-12T14:59:03.035Z</time></trkpt><trkpt lat="43.1151315" lon="13.1300985"><ele>341.0</ele><time>2026-04-12T14:59:04.046Z</time></trkpt><trkpt lat="43.1153984" lon="13.1301493"><ele>340.0</ele><time>2026-04-12T14:59:05.03Z</time></trkpt><trkpt lat="43.1156637" lon="13.1302129"><ele>339.5</ele><time>2026-04-12T14:59:06.031Z</time></trkpt><trkpt lat="43.1159272" lon="13.1302913"><ele>339.0</ele><time>2026-04-12T14:59:07.029Z</time></trkpt><trkpt lat="43.1161871" lon="13.1303842"><ele>339.0</ele><time>2026-04-12T14:59:08.032Z</time></trkpt><trkpt lat="43.1164447" lon="13.1304916"><ele>339.0</ele><time>2026-04-12T14:59:09.027Z</time></trkpt><trkpt lat="43.1166993" lon="13.1306127"><ele>346.5</ele><time>2026-04-12T14:59:10.037Z</time></trkpt><trkpt lat="43.1169495" lon="13.1307437"><ele>354.0</ele><time>2026-04-12T14:59:11.043Z</time></trkpt><trkpt lat="43.117198" lon="13.130882"><ele>346.5</ele><time>2026-04-12T14:59:12.031Z</time></trkpt><trkpt lat="43.1174453" lon="13.1310244"><ele>339.0</ele><time>2026-04-12T14:59:13.035Z</time></trkpt><trkpt lat="43.1176923" lon="13.1311676"><ele>339.0</ele><time>2026-04-12T14:59:14.037Z</time></trkpt><trkpt lat="43.1179391" lon="13.1313111"><ele>339.0</ele><time>2026-04-12T14:59:15.039Z</time></trkpt><trkpt lat="43.118186" lon="13.1314543"><ele>338.0</ele><time>2026-04-12T14:59:16.036Z</time></trkpt><trkpt lat="43.1184336" lon="13.1315986"><ele>337.0</ele><time>2026-04-12T14:59:17.031Z</time></trkpt><trkpt lat="43.1186807" lon="13.1317446"><ele>337.0</ele><time>2026-04-12T14:59:18.031Z</time></trkpt><trkpt lat="43.1189279" lon="13.131891"><ele>337.0</ele><time>2026-04-12T14:59:19.033Z</time></trkpt><trkpt lat="43.1191772" lon="13.1320375"><ele>338.0</ele><time>2026-04-12T14:59:20.037Z</time></trkpt><trkpt lat="43.1194286" lon="13.1321832"><ele>339.0</ele><time>2026-04-12T14:59:21.034Z</time></trkpt><trkpt lat="43.1196819" lon="13.1323287"><ele>338.0</ele><time>2026-04-12T14:59:22.049Z</time></trkpt><trkpt lat="43.1199373" lon="13.1324742"><ele>337.0</ele><time>2026-04-12T14:59:23.038Z</time></trkpt><trkpt lat="43.1201934" lon="13.1326188"><ele>337.0</ele><time>2026-04-12T14:59:24.032Z</time></trkpt><trkpt lat="43.120447" lon="13.132758"><ele>337.0</ele><time>2026-04-12T14:59:25.033Z</time></trkpt><trkpt lat="43.1206969" lon="13.1328972"><ele>353.0</ele><time>2026-04-12T14:59:26.035Z</time></trkpt><trkpt lat="43.1234493" lon="13.1345163"><ele>353.0</ele><time>2026-04-12T14:59:37.036Z</time></trkpt><trkpt lat="43.1236493" lon="13.134745"><ele>353.0</ele><time>2026-04-12T14:59:38.035Z</time></trkpt><trkpt lat="43.1238427" lon="13.134943"><ele>347.5</ele><time>2026-04-12T14:59:39.044Z</time></trkpt><trkpt lat="43.1240355" lon="13.1351292"><ele>342.0</ele><time>2026-04-12T14:59:40.034Z</time></trkpt><trkpt lat="43.1242378" lon="13.1353146"><ele>342.0</ele><time>2026-04-12T14:59:41.037Z</time></trkpt><trkpt lat="43.1244448" lon="13.135497"><ele>342.0</ele><time>2026-04-12T14:59:42.033Z</time></trkpt><trkpt lat="43.1246311" lon="13.1357237"><ele>339.5</ele><time>2026-04-12T14:59:43.041Z</time></trkpt><trkpt lat="43.1248674" lon="13.1358908"><ele>337.0</ele><time>2026-04-12T14:59:44.042Z</time></trkpt><trkpt lat="43.1250862" lon="13.1360844"><ele>335.0</ele><time>2026-04-12T14:59:45.037Z</time></trkpt><trkpt lat="43.1253174" lon="13.1363044"><ele>333.0</ele><time>2026-04-12T14:59:46.037Z</time></trkpt><trkpt lat="43.1255489" lon="13.1365123"><ele>338.0</ele><time>2026-04-12T14:59:47.033Z</time></trkpt><trkpt lat="43.1275316" lon="13.1382614"><ele>338.0</ele><time>2026-04-12T14:59:56.024Z</time></trkpt><trkpt lat="43.1277539" lon="13.1384872"><ele>338.0</ele><time>2026-04-12T14:59:57.027Z</time></trkpt><trkpt lat="43.1279536" lon="13.138701"><ele>338.0</ele><time>2026-04-12T14:59:58.033Z</time></trkpt><trkpt lat="43.1281812" lon="13.1389098"><ele>338.0</ele><time>2026-04-12T14:59:59.036Z</time></trkpt><trkpt lat="43.1284078" lon="13.1391118"><ele>332.5</ele><time>2026-04-12T15:00:00.03Z</time></trkpt><trkpt lat="43.1286378" lon="13.139305"><ele>327.0</ele><time>2026-04-12T15:00:01.035Z</time></trkpt><trkpt lat="43.1288606" lon="13.1394992"><ele>326.5</ele><time>2026-04-12T15:00:02.03Z</time></trkpt><trkpt lat="43.1290874" lon="13.1396958"><ele>326.0</ele><time>2026-04-12T15:00:03.034Z</time></trkpt><trkpt lat="43.1293161" lon="13.1398981"><ele>326.0</ele><time>2026-04-12T15:00:04.031Z</time></trkpt><trkpt lat="43.1295399" lon="13.1401037"><ele>326.0</ele><time>2026-04-12T15:00:05.034Z</time></trkpt><trkpt lat="43.1297579" lon="13.1403146"><ele>325.5</ele><time>2026-04-12T15:00:06.042Z</time></trkpt><trkpt lat="43.1299734" lon="13.1405244"><ele>325.0</ele><time>2026-04-12T15:00:07.033Z</time></trkpt><trkpt lat="43.1301872" lon="13.1407391"><ele>325.0</ele><time>2026-04-12T15:00:08.04Z</time></trkpt><trkpt lat="43.1304" lon="13.1409539"><ele>325.0</ele><time>2026-04-12T15:00:09.029Z</time></trkpt><trkpt lat="43.1306146" lon="13.1411696"><ele>326.5</ele><time>2026-04-12T15:00:10.036Z</time></trkpt><trkpt lat="43.1308305" lon="13.1413876"><ele>328.0</ele><time>2026-04-12T15:00:11.035Z</time></trkpt><trkpt lat="43.1310478" lon="13.1416061"><ele>328.5</ele><time>2026-04-12T15:00:12.031Z</time></trkpt><trkpt lat="43.1312655" lon="13.141825"><ele>329.0</ele><time>2026-04-12T15:00:13.035Z</time></trkpt><trkpt lat="43.1314834" lon="13.1420451"><ele>330.5</ele><time>2026-04-12T15:00:14.038Z</time></trkpt><trkpt lat="43.1317025" lon="13.1422668"><ele>332.0</ele><time>2026-04-12T15:00:15.034Z</time></trkpt><trkpt lat="43.131922" lon="13.142491"><ele>327.5</ele><time>2026-04-12T15:00:16.033Z</time></trkpt><trkpt lat="43.1321381" lon="13.1427238"><ele>323.0</ele><time>2026-04-12T15:00:17.029Z</time></trkpt><trkpt lat="43.1323476" lon="13.1429675"><ele>323.0</ele><time>2026-04-12T15:00:18.033Z</time></trkpt><trkpt lat="43.1325486" lon="13.1432223"><ele>323.0</ele><time>2026-04-12T15:00:19.034Z</time></trkpt><trkpt lat="43.13274" lon="13.1434903"><ele>323.0</ele><time>2026-04-12T15:00:20.035Z</time></trkpt><trkpt lat="43.1329207" lon="13.1437736"><ele>323.0</ele><time>2026-04-12T15:00:21.04Z</time></trkpt><trkpt lat="43.1330909" lon="13.1440689"><ele>324.5</ele><time>2026-04-12T15:00:22.035Z</time></trkpt><trkpt lat="43.1332531" lon="13.1443722"><ele>326.0</ele><time>2026-04-12T15:00:23.035Z</time></trkpt><trkpt lat="43.1334103" lon="13.1446785"><ele>323.0</ele><time>2026-04-12T15:00:24.035Z</time></trkpt><trkpt lat="43.1335637" lon="13.1449866"><ele>320.0</ele><time>2026-04-12T15:00:25.034Z</time></trkpt><trkpt lat="43.1337158" lon="13.1452958"><ele>320.0</ele><time>2026-04-12T15:00:26.041Z</time></trkpt><trkpt lat="43.1338674" lon="13.1456037"><ele>320.0</ele><time>2026-04-12T15:00:27.025Z</time></trkpt><trkpt lat="43.1340171" lon="13.1459138"><ele>319.0</ele><time>2026-04-12T15:00:28.027Z</time></trkpt><trkpt lat="43.1341605" lon="13.1462284"><ele>318.0</ele><time>2026-04-12T15:00:29.027Z</time></trkpt><trkpt lat="43.1342918" lon="13.1465534"><ele>317.5</ele><time>2026-04-12T15:00:30.03Z</time></trkpt><trkpt lat="43.1344082" lon="13.1468884"><ele>317.0</ele><time>2026-04-12T15:00:31.031Z</time></trkpt><trkpt lat="43.1345073" lon="13.1472332"><ele>317.5</ele><time>2026-04-12T15:00:32.045Z</time></trkpt><trkpt lat="43.1345897" lon="13.1475863"><ele>318.0</ele><time>2026-04-12T15:00:33.027Z</time></trkpt><trkpt lat="43.1346573" lon="13.1479439"><ele>319.0</ele><time>2026-04-12T15:00:34.029Z</time></trkpt><trkpt lat="43.1347111" lon="13.1483072"><ele>320.0</ele><time>2026-04-12T15:00:35.027Z</time></trkpt><trkpt lat="43.1347519" lon="13.1486756"><ele>320.5</ele><time>2026-04-12T15:00:36.028Z</time></trkpt><trkpt lat="43.1347832" lon="13.1490485"><ele>321.0</ele><time>2026-04-12T15:00:37.033Z</time></trkpt><trkpt lat="43.1348097" lon="13.1494232"><ele>321.0</ele><time>2026-04-12T15:00:38.033Z</time></trkpt><trkpt lat="43.1348317" lon="13.1498001"><ele>321.0</ele><time>2026-04-12T15:00:39.027Z</time></trkpt><trkpt lat="43.1348526" lon="13.1501769"><ele>319.5</ele><time>2026-04-12T15:00:40.058Z</time></trkpt><trkpt lat="43.1348797" lon="13.1505469"><ele>318.0</ele><time>2026-04-12T15:00:41.028Z</time></trkpt><trkpt lat="43.1349032" lon="13.1509202"><ele>318.0</ele><time>2026-04-12T15:00:42.032Z</time></trkpt><trkpt lat="43.1349259" lon="13.1512955"><ele>318.0</ele><time>2026-04-12T15:00:43.028Z</time></trkpt><trkpt lat="43.1349516" lon="13.1516706"><ele>318.0</ele><time>2026-04-12T15:00:44.028Z</time></trkpt><trkpt lat="43.1349794" lon="13.1520485"><ele>318.0</ele><time>2026-04-12T15:00:45.034Z</time></trkpt><trkpt lat="43.1350132" lon="13.1524272"><ele>317.5</ele><time>2026-04-12T15:00:46.033Z</time></trkpt><trkpt lat="43.1350588" lon="13.1528098"><ele>317.0</ele><time>2026-04-12T15:00:47.027Z</time></trkpt><trkpt lat="43.1351162" lon="13.1531902"><ele>316.0</ele><time>2026-04-12T15:00:48.041Z</time></trkpt><trkpt lat="43.1351933" lon="13.1535551"><ele>315.0</ele><time>2026-04-12T15:00:49.031Z</time></trkpt><trkpt lat="43.1352836" lon="13.1539195"><ele>314.5</ele><time>2026-04-12T15:00:50.033Z</time></trkpt><trkpt lat="43.1353827" lon="13.1542787"><ele>314.0</ele><time>2026-04-12T15:00:51.028Z</time></trkpt><trkpt lat="43.1354969" lon="13.1546357"><ele>314.0</ele><time>2026-04-12T15:00:52.03Z</time></trkpt><trkpt lat="43.1356139" lon="13.1549887"><ele>314.0</ele><time>2026-04-12T15:00:53.036Z</time></trkpt><trkpt lat="43.1357367" lon="13.1553421"><ele>314.0</ele><time>2026-04-12T15:00:54.038Z</time></trkpt><trkpt lat="43.1358609" lon="13.1556939"><ele>314.0</ele><time>2026-04-12T15:00:55.031Z</time></trkpt><trkpt lat="43.1359841" lon="13.1560506"><ele>312.5</ele><time>2026-04-12T15:00:56.057Z</time></trkpt><trkpt lat="43.1361036" lon="13.1564007"><ele>311.0</ele><time>2026-04-12T15:00:57.026Z</time></trkpt><trkpt lat="43.1362298" lon="13.156745"><ele>315.5</ele><time>2026-04-12T15:00:58.036Z</time></trkpt><trkpt lat="43.1363533" lon="13.1570874"><ele>320.0</ele><time>2026-04-12T15:00:59.028Z</time></trkpt><trkpt lat="43.1364761" lon="13.1574304"><ele>320.5</ele><time>2026-04-12T15:01:00.03Z</time></trkpt><trkpt lat="43.1365988" lon="13.157782"><ele>321.0</ele><time>2026-04-12T15:01:01.031Z</time></trkpt><trkpt lat="43.1369606" lon="13.1587858"><ele>317.0</ele><time>2026-04-12T15:01:04.031Z</time></trkpt><trkpt lat="43.1370903" lon="13.159129"><ele>313.0</ele><time>2026-04-12T15:01:05.029Z</time></trkpt><trkpt lat="43.1372148" lon="13.15948"><ele>313.0</ele><time>2026-04-12T15:01:06.027Z</time></trkpt><trkpt lat="43.1373349" lon="13.1598213"><ele>313.0</ele><time>2026-04-12T15:01:07.028Z</time></trkpt><trkpt lat="43.137471" lon="13.1601652"><ele>310.5</ele><time>2026-04-12T15:01:08.034Z</time></trkpt><trkpt lat="43.1375923" lon="13.1605184"><ele>308.0</ele><time>2026-04-12T15:01:09.025Z</time></trkpt><trkpt lat="43.1377226" lon="13.1608706"><ele>308.0</ele><time>2026-04-12T15:01:10.023Z</time></trkpt><trkpt lat="43.1374832" lon="13.1679152"><ele>308.5</ele><time>2026-04-12T15:01:27.979Z</time></trkpt><trkpt lat="43.1375003" lon="13.1683053"><ele>309.0</ele><time>2026-04-12T15:01:29.036Z</time></trkpt><trkpt lat="43.1375136" lon="13.1686957"><ele>309.5</ele><time>2026-04-12T15:01:30.028Z</time></trkpt><trkpt lat="43.1374823" lon="13.1690841"><ele>310.0</ele><time>2026-04-12T15:01:31.028Z</time></trkpt><trkpt lat="43.1374734" lon="13.1694606"><ele>310.0</ele><time>2026-04-12T15:01:32.038Z</time></trkpt><trkpt lat="43.1374762" lon="13.1698455"><ele>310.0</ele><time>2026-04-12T15:01:33.031Z</time></trkpt><trkpt lat="43.1374953" lon="13.1702297"><ele>310.5</ele><time>2026-04-12T15:01:34.041Z</time></trkpt><trkpt lat="43.13753" lon="13.1706131"><ele>311.0</ele><time>2026-04-12T15:01:35.032Z</time></trkpt><trkpt lat="43.1375796" lon="13.1709948"><ele>312.5</ele><time>2026-04-12T15:01:36.028Z</time></trkpt><trkpt lat="43.1376278" lon="13.1713721"><ele>314.0</ele><time>2026-04-12T15:01:37.028Z</time></trkpt><trkpt lat="43.137673" lon="13.1717464"><ele>315.0</ele><time>2026-04-12T15:01:38.029Z</time></trkpt><trkpt lat="43.1377209" lon="13.172116"><ele>316.0</ele><time>2026-04-12T15:01:39.032Z</time></trkpt><trkpt lat="43.1377701" lon="13.1724825"><ele>314.0</ele><time>2026-04-12T15:01:40.031Z</time></trkpt><trkpt lat="43.1378187" lon="13.1728451"><ele>312.0</ele><time>2026-04-12T15:01:41.03Z</time></trkpt><trkpt lat="43.1378706" lon="13.1731939"><ele>310.5</ele><time>2026-04-12T15:01:42.039Z</time></trkpt><trkpt lat="43.1379134" lon="13.1735399"><ele>309.0</ele><time>2026-04-12T15:01:43.025Z</time></trkpt><trkpt lat="43.1379566" lon="13.1738753"><ele>306.0</ele><time>2026-04-12T15:01:44.027Z</time></trkpt><trkpt lat="43.1379973" lon="13.174206"><ele>303.0</ele><time>2026-04-12T15:01:45.028Z</time></trkpt><trkpt lat="43.1380479" lon="13.1745461"><ele>300.0</ele><time>2026-04-12T15:01:46.034Z</time></trkpt><trkpt lat="43.1381059" lon="13.1748871"><ele>297.0</ele><time>2026-04-12T15:01:47.03Z</time></trkpt><trkpt lat="43.1381736" lon="13.1752328"><ele>299.0</ele><time>2026-04-12T15:01:48.032Z</time></trkpt><trkpt lat="43.138254" lon="13.1755749"><ele>301.0</ele><time>2026-04-12T15:01:49.023Z</time></trkpt><trkpt lat="43.1383479" lon="13.1759118"><ele>301.0</ele><time>2026-04-12T15:01:50.028Z</time></trkpt><trkpt lat="43.138454" lon="13.1762474"><ele>301.0</ele><time>2026-04-12T15:01:51.035Z</time></trkpt><trkpt lat="43.1385802" lon="13.1765803"><ele>300.0</ele><time>2026-04-12T15:01:52.033Z</time></trkpt><trkpt lat="43.1387241" lon="13.1769077"><ele>299.0</ele><time>2026-04-12T15:01:53.041Z</time></trkpt><trkpt lat="43.1388812" lon="13.1772311"><ele>298.0</ele><time>2026-04-12T15:01:54.034Z</time></trkpt><trkpt lat="43.1390444" lon="13.1775529"><ele>297.0</ele><time>2026-04-12T15:01:55.031Z</time></trkpt><trkpt lat="43.1392098" lon="13.1778736"><ele>298.5</ele><time>2026-04-12T15:01:56.034Z</time></trkpt><trkpt lat="43.1393739" lon="13.1781953"><ele>300.0</ele><time>2026-04-12T15:01:57.031Z</time></trkpt><trkpt lat="43.1395369" lon="13.1785172"><ele>300.0</ele><time>2026-04-12T15:01:58.066Z</time></trkpt><trkpt lat="43.1397025" lon="13.1788362"><ele>300.0</ele><time>2026-04-12T15:01:59.028Z</time></trkpt><trkpt lat="43.1398693" lon="13.1791539"><ele>304.5</ele><time>2026-04-12T15:02:00.038Z</time></trkpt><trkpt lat="43.140033" lon="13.1794755"><ele>309.0</ele><time>2026-04-12T15:02:01.03Z</time></trkpt><trkpt lat="43.1401873" lon="13.1798052"><ele>306.0</ele><time>2026-04-12T15:02:02.033Z</time></trkpt><trkpt lat="43.1403238" lon="13.1801468"><ele>303.0</ele><time>2026-04-12T15:02:03.027Z</time></trkpt><trkpt lat="43.1404449" lon="13.1804921"><ele>301.0</ele><time>2026-04-12T15:02:04.032Z</time></trkpt><trkpt lat="43.1405516" lon="13.1808489"><ele>299.0</ele><time>2026-04-12T15:02:05.031Z</time></trkpt><trkpt lat="43.1406427" lon="13.1812097"><ele>308.5</ele><time>2026-04-12T15:02:06.032Z</time></trkpt><trkpt lat="43.1407294" lon="13.1815742"><ele>318.0</ele><time>2026-04-12T15:02:07.028Z</time></trkpt><trkpt lat="43.1408114" lon="13.1819403"><ele>318.0</ele><time>2026-04-12T15:02:08.03Z</time></trkpt><trkpt lat="43.1408965" lon="13.1823086"><ele>318.0</ele><time>2026-04-12T15:02:09.028Z</time></trkpt><trkpt lat="43.1409876" lon="13.1826754"><ele>313.0</ele><time>2026-04-12T15:02:10.039Z</time></trkpt><trkpt lat="43.1410873" lon="13.1830404"><ele>308.0</ele><time>2026-04-12T15:02:11.026Z</time></trkpt><trkpt lat="43.1411849" lon="13.1834095"><ele>304.5</ele><time>2026-04-12T15:02:12.033Z</time></trkpt><trkpt lat="43.1412929" lon="13.1837756"><ele>301.0</ele><time>2026-04-12T15:02:13.027Z</time></trkpt><trkpt lat="43.1414083" lon="13.1841371"><ele>301.0</ele><time>2026-04-12T15:02:14.029Z</time></trkpt><trkpt lat="43.1415321" lon="13.1844924"><ele>301.0</ele><time>2026-04-12T15:02:15.026Z</time></trkpt><trkpt lat="43.1416641" lon="13.1848421"><ele>304.0</ele><time>2026-04-12T15:02:16.03Z</time></trkpt><trkpt lat="43.1418033" lon="13.1851847"><ele>307.0</ele><time>2026-04-12T15:02:17.027Z</time></trkpt><trkpt lat="43.1419491" lon="13.1855196"><ele>303.5</ele><time>2026-04-12T15:02:18.029Z</time></trkpt><trkpt lat="43.1421002" lon="13.185849"><ele>300.0</ele><time>2026-04-12T15:02:19.028Z</time></trkpt><trkpt lat="43.1422584" lon="13.1861695"><ele>302.5</ele><time>2026-04-12T15:02:20.031Z</time></trkpt><trkpt lat="43.1424186" lon="13.1864837"><ele>305.0</ele><time>2026-04-12T15:02:21.032Z</time></trkpt><trkpt lat="43.1425814" lon="13.1867897"><ele>305.0</ele><time>2026-04-12T15:02:22.025Z</time></trkpt><trkpt lat="43.1427466" lon="13.1870851"><ele>305.0</ele><time>2026-04-12T15:02:23.032Z</time></trkpt><trkpt lat="43.1429146" lon="13.1873712"><ele>305.0</ele><time>2026-04-12T15:02:24.023Z</time></trkpt><trkpt lat="43.143082" lon="13.1876486"><ele>305.0</ele><time>2026-04-12T15:02:25.031Z</time></trkpt><trkpt lat="43.1432464" lon="13.1879218"><ele>308.5</ele><time>2026-04-12T15:02:26.031Z</time></trkpt><trkpt lat="43.143404" lon="13.1881992"><ele>312.0</ele><time>2026-04-12T15:02:27.022Z</time></trkpt><trkpt lat="43.1435526" lon="13.1884799"><ele>312.0</ele><time>2026-04-12T15:02:28.029Z</time></trkpt><trkpt lat="43.1436904" lon="13.18877"><ele>312.0</ele><time>2026-04-12T15:02:29.027Z</time></trkpt><trkpt lat="43.1438175" lon="13.1890756"><ele>310.5</ele><time>2026-04-12T15:02:30.032Z</time></trkpt><trkpt lat="43.1439307" lon="13.1893962"><ele>309.0</ele><time>2026-04-12T15:02:31.028Z</time></trkpt><trkpt lat="43.1440251" lon="13.1897242"><ele>309.5</ele><time>2026-04-12T15:02:32.032Z</time></trkpt><trkpt lat="43.1441052" lon="13.1900585"><ele>310.0</ele><time>2026-04-12T15:02:33.03Z</time></trkpt><trkpt lat="43.1441711" lon="13.1903971"><ele>309.0</ele><time>2026-04-12T15:02:34.026Z</time></trkpt><trkpt lat="43.1442272" lon="13.1907366"><ele>308.0</ele><time>2026-04-12T15:02:35.061Z</time></trkpt><trkpt lat="43.144277" lon="13.1910765"><ele>308.0</ele><time>2026-04-12T15:02:36.037Z</time></trkpt><trkpt lat="43.1443246" lon="13.1914176"><ele>308.0</ele><time>2026-04-12T15:02:37.035Z</time></trkpt><trkpt lat="43.1443721" lon="13.1917589"><ele>308.0</ele><time>2026-04-12T15:02:38.031Z</time></trkpt><trkpt lat="43.144421" lon="13.1921046"><ele>308.0</ele><time>2026-04-12T15:02:39.026Z</time></trkpt><trkpt lat="43.1444704" lon="13.192453"><ele>308.0</ele><time>2026-04-12T15:02:40.031Z</time></trkpt><trkpt lat="43.1445203" lon="13.1928061"><ele>308.0</ele><time>2026-04-12T15:02:41.03Z</time></trkpt><trkpt lat="43.1445697" lon="13.1931601"><ele>306.0</ele><time>2026-04-12T15:02:42.034Z</time></trkpt><trkpt lat="43.1446188" lon="13.1935162"><ele>304.0</ele><time>2026-04-12T15:02:43.049Z</time></trkpt><trkpt lat="43.1446685" lon="13.1938686"><ele>301.0</ele><time>2026-04-12T15:02:44.03Z</time></trkpt><trkpt lat="43.1447166" lon="13.1942077"><ele>298.0</ele><time>2026-04-12T15:02:45.032Z</time></trkpt><trkpt lat="43.1447619" lon="13.1945358"><ele>298.0</ele><time>2026-04-12T15:02:46.035Z</time></trkpt><trkpt lat="43.1448062" lon="13.1948606"><ele>298.0</ele><time>2026-04-12T15:02:47.031Z</time></trkpt><trkpt lat="43.1448514" lon="13.1951845"><ele>301.0</ele><time>2026-04-12T15:02:48.03Z</time></trkpt><trkpt lat="43.1448958" lon="13.1955074"><ele>304.0</ele><time>2026-04-12T15:02:49.024Z</time></trkpt><trkpt lat="43.1449399" lon="13.1958292"><ele>304.0</ele><time>2026-04-12T15:02:50.048Z</time></trkpt><trkpt lat="43.1449839" lon="13.1961461"><ele>304.0</ele><time>2026-04-12T15:02:51.024Z</time></trkpt><trkpt lat="43.1450256" lon="13.1964526"><ele>302.66666666666663</ele><time>2026-04-12T15:02:52.031Z</time></trkpt><trkpt lat="43.145067" lon="13.1967386"><ele>301.3333333333333</ele><time>2026-04-12T15:02:53.031Z</time></trkpt><trkpt lat="43.1451156" lon="13.1970011"><ele>300.0</ele><time>2026-04-12T15:02:54.031Z</time></trkpt><trkpt lat="43.145175" lon="13.1972384"><ele>300.0</ele><time>2026-04-12T15:02:55.028Z</time></trkpt><trkpt lat="43.1452464" lon="13.1974499"><ele>300.0</ele><time>2026-04-12T15:02:56.036Z</time></trkpt><trkpt lat="43.1453217" lon="13.1976323"><ele>300.0</ele><time>2026-04-12T15:02:57.033Z</time></trkpt><trkpt lat="43.1453941" lon="13.1977922"><ele>300.0</ele><time>2026-04-12T15:02:58.029Z</time></trkpt><trkpt lat="43.1454556" lon="13.1979378"><ele>300.0</ele><time>2026-04-12T15:02:59.026Z</time></trkpt><trkpt lat="43.1454994" lon="13.1980692"><ele>300.0</ele><time>2026-04-12T15:03:00.031Z</time></trkpt><trkpt lat="43.1455215" lon="13.1981962"><ele>300.0</ele><time>2026-04-12T15:03:01.037Z</time></trkpt><trkpt lat="43.1455183" lon="13.1983221"><ele>300.0</ele><time>2026-04-12T15:03:02.031Z</time></trkpt><trkpt lat="43.1454854" lon="13.1984582"><ele>299.8</ele><time>2026-04-12T15:03:03.059Z</time></trkpt><trkpt lat="43.1454406" lon="13.1985861"><ele>299.6</ele><time>2026-04-12T15:03:04.035Z</time></trkpt><trkpt lat="43.1454279" lon="13.1987106"><ele>299.4</ele><time>2026-04-12T15:03:05.034Z</time></trkpt><trkpt lat="43.1454565" lon="13.1988232"><ele>299.2</ele><time>2026-04-12T15:03:06.027Z</time></trkpt><trkpt lat="43.1455045" lon="13.198924"><ele>299.0</ele><time>2026-04-12T15:03:07.032Z</time></trkpt><trkpt lat="43.1455808" lon="13.1990265"><ele>299.0</ele><time>2026-04-12T15:03:08.037Z</time></trkpt><trkpt lat="43.1456811" lon="13.1991486"><ele>299.0</ele><time>2026-04-12T15:03:09.031Z</time></trkpt><trkpt lat="43.145786" lon="13.1992855"><ele>299.0</ele><time>2026-04-12T15:03:10.034Z</time></trkpt><trkpt lat="43.1458991" lon="13.1994252"><ele>299.0</ele><time>2026-04-12T15:03:11.032Z</time></trkpt><trkpt lat="43.1460188" lon="13.1995657"><ele>300.33333333333337</ele><time>2026-04-12T15:03:12.025Z</time></trkpt><trkpt lat="43.1461429" lon="13.1997064"><ele>301.6666666666667</ele><time>2026-04-12T15:03:13.034Z</time></trkpt><trkpt lat="43.1462672" lon="13.1998596"><ele>303.0</ele><time>2026-04-12T15:03:14.036Z</time></trkpt><trkpt lat="43.1463781" lon="13.2000385"><ele>303.0</ele><time>2026-04-12T15:03:15.032Z</time></trkpt><trkpt lat="43.1464736" lon="13.2002407"><ele>303.0</ele><time>2026-04-12T15:03:16.032Z</time></trkpt><trkpt lat="43.146559" lon="13.2004577"><ele>303.0</ele><time>2026-04-12T15:03:17.035Z</time></trkpt><trkpt lat="43.1466327" lon="13.2006858"><ele>305.3333333333333</ele><time>2026-04-12T15:03:18.034Z</time></trkpt><trkpt lat="43.1466912" lon="13.2009261"><ele>307.66666666666663</ele><time>2026-04-12T15:03:19.045Z</time></trkpt><trkpt lat="43.1467325" lon="13.2011739"><ele>310.0</ele><time>2026-04-12T15:03:20.033Z</time></trkpt><trkpt lat="43.1467599" lon="13.2014243"><ele>308.3333333333333</ele><time>2026-04-12T15:03:21.032Z</time></trkpt><trkpt lat="43.1467783" lon="13.2016777"><ele>306.6666666666667</ele><time>2026-04-12T15:03:22.031Z</time></trkpt><trkpt lat="43.1467895" lon="13.2019367"><ele>305.0</ele><time>2026-04-12T15:03:23.032Z</time></trkpt><trkpt lat="43.1467929" lon="13.2021985"><ele>304.0</ele><time>2026-04-12T15:03:24.032Z</time></trkpt><trkpt lat="43.1467925" lon="13.2024626"><ele>303.0</ele><time>2026-04-12T15:03:25.031Z</time></trkpt><trkpt lat="43.1467964" lon="13.2027319"><ele>302.0</ele><time>2026-04-12T15:03:26.033Z</time></trkpt><trkpt lat="43.1468042" lon="13.2030127"><ele>301.33333333333337</ele><time>2026-04-12T15:03:27.032Z</time></trkpt><trkpt lat="43.1468124" lon="13.2032997"><ele>300.6666666666667</ele><time>2026-04-12T15:03:28.033Z</time></trkpt><trkpt lat="43.1468261" lon="13.2035808"><ele>300.0</ele><time>2026-04-12T15:03:29.034Z</time></trkpt><trkpt lat="43.1468443" lon="13.2038457"><ele>300.3333333333333</ele><time>2026-04-12T15:03:30.029Z</time></trkpt><trkpt lat="43.1468609" lon="13.2041098"><ele>300.66666666666663</ele><time>2026-04-12T15:03:31.033Z</time></trkpt><trkpt lat="43.1468701" lon="13.2043773"><ele>301.0</ele><time>2026-04-12T15:03:32.034Z</time></trkpt><trkpt lat="43.1468635" lon="13.2046331"><ele>299.66666666666663</ele><time>2026-04-12T15:03:33.036Z</time></trkpt><trkpt lat="43.1468392" lon="13.2048745"><ele>298.3333333333333</ele><time>2026-04-12T15:03:34.057Z</time></trkpt><trkpt lat="43.1467929" lon="13.2051056"><ele>297.0</ele><time>2026-04-12T15:03:35.039Z</time></trkpt><trkpt lat="43.1467237" lon="13.2053155"><ele>297.0</ele><time>2026-04-12T15:03:36.028Z</time></trkpt><trkpt lat="43.1466339" lon="13.2055084"><ele>297.0</ele><time>2026-04-12T15:03:37.031Z</time></trkpt><trkpt lat="43.1465433" lon="13.2056835"><ele>297.0</ele><time>2026-04-12T15:03:38.03Z</time></trkpt><trkpt lat="43.1464603" lon="13.2058474"><ele>295.25</ele><time>2026-04-12T15:03:39.034Z</time></trkpt><trkpt lat="43.1463868" lon="13.2060035"><ele>293.5</ele><time>2026-04-12T15:03:40.037Z</time></trkpt><trkpt lat="43.1463248" lon="13.2061595"><ele>291.75</ele><time>2026-04-12T15:03:41.027Z</time></trkpt><trkpt lat="43.1462768" lon="13.2063265"><ele>290.0</ele><time>2026-04-12T15:03:42.03Z</time></trkpt><trkpt lat="43.1462438" lon="13.2065085"><ele>290.0</ele><time>2026-04-12T15:03:43.03Z</time></trkpt><trkpt lat="43.1462264" lon="13.2066991"><ele>290.0</ele><time>2026-04-12T15:03:44.035Z</time></trkpt><trkpt lat="43.1462244" lon="13.2068829"><ele>290.0</ele><time>2026-04-12T15:03:45.036Z</time></trkpt><trkpt lat="43.1462385" lon="13.2070565"><ele>290.0</ele><time>2026-04-12T15:03:46.032Z</time></trkpt><trkpt lat="43.1462665" lon="13.2072128"><ele>290.0</ele><time>2026-04-12T15:03:47.028Z</time></trkpt><trkpt lat="43.1463035" lon="13.2073487"><ele>290.0</ele><time>2026-04-12T15:03:48.035Z</time></trkpt><trkpt lat="43.1463419" lon="13.2074621"><ele>290.0</ele><time>2026-04-12T15:03:49.027Z</time></trkpt><trkpt lat="43.1463715" lon="13.207546"><ele>290.0</ele><time>2026-04-12T15:03:50.032Z</time></trkpt><trkpt lat="43.1464147" lon="13.2076685"><ele>290.0</ele><time>2026-04-12T15:03:52.037Z</time></trkpt><trkpt lat="43.1464474" lon="13.2077504"><ele>290.0</ele><time>2026-04-12T15:03:54.035Z</time></trkpt><trkpt lat="43.1463772" lon="13.2078356"><ele>290.0</ele><time>2026-04-12T15:04:03.033Z</time></trkpt><trkpt lat="43.1463772" lon="13.2077227"><ele>290.0</ele><time>2026-04-12T15:08:51.066Z</time></trkpt><trkpt lat="43.1463777" lon="13.2076188"><ele>290.0</ele><time>2026-04-12T15:36:25.042Z</time></trkpt><trkpt lat="43.1464355" lon="13.2076619"><ele>290.0</ele><time>2026-04-12T15:36:28.042Z</time></trkpt><trkpt lat="43.1464793" lon="13.2077675"><ele>290.0</ele><time>2026-04-12T15:36:30.04Z</time></trkpt><trkpt lat="43.146524" lon="13.2079104"><ele>290.0</ele><time>2026-04-12T15:36:32.052Z</time></trkpt><trkpt lat="43.1465347" lon="13.2080541"><ele>290.0</ele><time>2026-04-12T15:36:34.039Z</time></trkpt><trkpt lat="43.1464757" lon="13.2081677"><ele>290.0</ele><time>2026-04-12T15:36:36.045Z</time></trkpt><trkpt lat="43.1463646" lon="13.2082205"><ele>290.0</ele><time>2026-04-12T15:36:38.04Z</time></trkpt><trkpt lat="43.1462988" lon="13.2082198"><ele>290.0</ele><time>2026-04-12T15:36:39.049Z</time></trkpt><trkpt lat="43.146232" lon="13.208197"><ele>290.0</ele><time>2026-04-12T15:36:40.036Z</time></trkpt><trkpt lat="43.1461635" lon="13.2081566"><ele>290.0</ele><time>2026-04-12T15:36:41.038Z</time></trkpt><trkpt lat="43.1460927" lon="13.2081022"><ele>290.0</ele><time>2026-04-12T15:36:42.038Z</time></trkpt><trkpt lat="43.1460198" lon="13.2080379"><ele>290.0</ele><time>2026-04-12T15:36:43.037Z</time></trkpt><trkpt lat="43.1459431" lon="13.207968"><ele>290.0</ele><time>2026-04-12T15:36:44.054Z</time></trkpt><trkpt lat="43.1458623" lon="13.2078948"><ele>290.0</ele><time>2026-04-12T15:36:45.036Z</time></trkpt><trkpt lat="43.1457818" lon="13.2078228"><ele>290.0</ele><time>2026-04-12T15:36:46.042Z</time></trkpt><trkpt lat="43.1457053" lon="13.2077561"><ele>288.2</ele><time>2026-04-12T15:36:47.037Z</time></trkpt><trkpt lat="43.14563" lon="13.2076918"><ele>286.4</ele><time>2026-04-12T15:36:48.044Z</time></trkpt><trkpt lat="43.1455545" lon="13.2076278"><ele>284.6</ele><time>2026-04-12T15:36:49.038Z</time></trkpt><trkpt lat="43.1454779" lon="13.2075649"><ele>282.8</ele><time>2026-04-12T15:36:50.049Z</time></trkpt><trkpt lat="43.1453998" lon="13.2075014"><ele>281.0</ele><time>2026-04-12T15:36:51.039Z</time></trkpt><trkpt lat="43.1453187" lon="13.2074376"><ele>281.0</ele><time>2026-04-12T15:36:52.04Z</time></trkpt><trkpt lat="43.1452347" lon="13.20737"><ele>281.0</ele><time>2026-04-12T15:36:53.043Z</time></trkpt><trkpt lat="43.145149" lon="13.2073005"><ele>281.0</ele><time>2026-04-12T15:36:54.035Z</time></trkpt><trkpt lat="43.1450638" lon="13.2072196"><ele>281.0</ele><time>2026-04-12T15:36:55.043Z</time></trkpt><trkpt lat="43.1449743" lon="13.2071365"><ele>281.0</ele><time>2026-04-12T15:36:56.036Z</time></trkpt><trkpt lat="43.1448829" lon="13.2070539"><ele>282.2</ele><time>2026-04-12T15:36:57.044Z</time></trkpt><trkpt lat="43.1447903" lon="13.2069701"><ele>283.40000000000003</ele><time>2026-04-12T15:36:58.044Z</time></trkpt><trkpt lat="43.1446999" lon="13.2068878"><ele>284.6</ele><time>2026-04-12T15:36:59.045Z</time></trkpt><trkpt lat="43.144615" lon="13.2068115"><ele>285.8</ele><time>2026-04-12T15:37:00.044Z</time></trkpt><trkpt lat="43.1445241" lon="13.2067853"><ele>287.0</ele><time>2026-04-12T15:37:01.042Z</time></trkpt><trkpt lat="43.1444252" lon="13.2067972"><ele>287.0</ele><time>2026-04-12T15:37:02.04Z</time></trkpt><trkpt lat="43.1443223" lon="13.2068417"><ele>287.0</ele><time>2026-04-12T15:37:03.049Z</time></trkpt><trkpt lat="43.1442176" lon="13.2069137"><ele>287.0</ele><time>2026-04-12T15:37:04.04Z</time></trkpt><trkpt lat="43.14411" lon="13.2069938"><ele>287.0</ele><time>2026-04-12T15:37:05.049Z</time></trkpt><trkpt lat="43.1439974" lon="13.2070757"><ele>287.5</ele><time>2026-04-12T15:37:06.048Z</time></trkpt><trkpt lat="43.143882" lon="13.2071609"><ele>288.0</ele><time>2026-04-12T15:37:07.039Z</time></trkpt><trkpt lat="43.1437647" lon="13.2072446"><ele>288.5</ele><time>2026-04-12T15:37:08.043Z</time></trkpt><trkpt lat="43.1436466" lon="13.2073307"><ele>289.0</ele><time>2026-04-12T15:37:09.045Z</time></trkpt><trkpt lat="43.1435287" lon="13.2074156"><ele>289.25</ele><time>2026-04-12T15:37:10.041Z</time></trkpt><trkpt lat="43.1434114" lon="13.2075003"><ele>289.5</ele><time>2026-04-12T15:37:11.047Z</time></trkpt><trkpt lat="43.1432962" lon="13.2075846"><ele>289.75</ele><time>2026-04-12T15:37:12.035Z</time></trkpt><trkpt lat="43.1431826" lon="13.2076679"><ele>290.0</ele><time>2026-04-12T15:37:13.041Z</time></trkpt><trkpt lat="43.143069" lon="13.2077469"><ele>290.0</ele><time>2026-04-12T15:37:14.044Z</time></trkpt><trkpt lat="43.1429527" lon="13.2078169"><ele>290.0</ele><time>2026-04-12T15:37:15.039Z</time></trkpt><trkpt lat="43.1428358" lon="13.2078752"><ele>290.0</ele><time>2026-04-12T15:37:16.041Z</time></trkpt><trkpt lat="43.1427148" lon="13.2079183"><ele>290.0</ele><time>2026-04-12T15:37:17.039Z</time></trkpt><trkpt lat="43.1425878" lon="13.2079498"><ele>290.0</ele><time>2026-04-12T15:37:18.036Z</time></trkpt><trkpt lat="43.1424565" lon="13.2079726"><ele>290.0</ele><time>2026-04-12T15:37:19.068Z</time></trkpt><trkpt lat="43.1423202" lon="13.2079965"><ele>290.0</ele><time>2026-04-12T15:37:20.046Z</time></trkpt><trkpt lat="43.1421778" lon="13.2080193"><ele>290.0</ele><time>2026-04-12T15:37:21.043Z</time></trkpt><trkpt lat="43.1420323" lon="13.2080416"><ele>291.25</ele><time>2026-04-12T15:37:22.047Z</time></trkpt><trkpt lat="43.1418839" lon="13.2080613"><ele>292.5</ele><time>2026-04-12T15:37:23.051Z</time></trkpt><trkpt lat="43.1417389" lon="13.2080807"><ele>293.75</ele><time>2026-04-12T15:37:24.043Z</time></trkpt><trkpt lat="43.1415987" lon="13.2080964"><ele>295.0</ele><time>2026-04-12T15:37:25.053Z</time></trkpt><trkpt lat="43.1414686" lon="13.2081107"><ele>296.6</ele><time>2026-04-12T15:37:26.042Z</time></trkpt><trkpt lat="43.141353" lon="13.208132"><ele>298.2</ele><time>2026-04-12T15:37:27.047Z</time></trkpt><trkpt lat="43.1412477" lon="13.2081735"><ele>299.8</ele><time>2026-04-12T15:37:28.045Z</time></trkpt><trkpt lat="43.1411567" lon="13.2082519"><ele>301.4</ele><time>2026-04-12T15:37:29.051Z</time></trkpt><trkpt lat="43.1410895" lon="13.2083732"><ele>303.0</ele><time>2026-04-12T15:37:30.045Z</time></trkpt><trkpt lat="43.1410546" lon="13.208526"><ele>303.0</ele><time>2026-04-12T15:37:31.045Z</time></trkpt><trkpt lat="43.141045" lon="13.2086961"><ele>303.0</ele><time>2026-04-12T15:37:32.043Z</time></trkpt><trkpt lat="43.1410513" lon="13.2088791"><ele>303.0</ele><time>2026-04-12T15:37:33.048Z</time></trkpt><trkpt lat="43.1410592" lon="13.2090788"><ele>303.0</ele><time>2026-04-12T15:37:34.046Z</time></trkpt><trkpt lat="43.1410581" lon="13.2092885"><ele>301.6666666666667</ele><time>2026-04-12T15:37:35.047Z</time></trkpt><trkpt lat="43.1410494" lon="13.2095048"><ele>300.33333333333337</ele><time>2026-04-12T15:37:36.046Z</time></trkpt><trkpt lat="43.1410371" lon="13.2097239"><ele>299.0</ele><time>2026-04-12T15:37:37.044Z</time></trkpt><trkpt lat="43.141023" lon="13.2099456"><ele>298.33333333333337</ele><time>2026-04-12T15:37:38.039Z</time></trkpt><trkpt lat="43.141007" lon="13.2101734"><ele>297.6666666666667</ele><time>2026-04-12T15:37:39.039Z</time></trkpt><trkpt lat="43.1409887" lon="13.2104094"><ele>297.0</ele><time>2026-04-12T15:37:40.042Z</time></trkpt><trkpt lat="43.1409683" lon="13.2106476"><ele>296.0</ele><time>2026-04-12T15:37:41.04Z</time></trkpt><trkpt lat="43.1409458" lon="13.2108907"><ele>295.0</ele><time>2026-04-12T15:37:42.04Z</time></trkpt><trkpt lat="43.140924" lon="13.2111368"><ele>294.0</ele><time>2026-04-12T15:37:43.043Z</time></trkpt><trkpt lat="43.1409022" lon="13.2113811"><ele>292.6666666666667</ele><time>2026-04-12T15:37:44.045Z</time></trkpt><trkpt lat="43.1408828" lon="13.2116065"><ele>291.33333333333337</ele><time>2026-04-12T15:37:45.056Z</time></trkpt><trkpt lat="43.1408897" lon="13.2118144"><ele>290.0</ele><time>2026-04-12T15:37:46.039Z</time></trkpt><trkpt lat="43.1409429" lon="13.2120085"><ele>290.0</ele><time>2026-04-12T15:37:47.04Z</time></trkpt><trkpt lat="43.14104" lon="13.212175"><ele>290.0</ele><time>2026-04-12T15:37:48.04Z</time></trkpt><trkpt lat="43.1411551" lon="13.2123409"><ele>290.0</ele><time>2026-04-12T15:37:49.045Z</time></trkpt><trkpt lat="43.1413015" lon="13.2124987"><ele>290.33333333333337</ele><time>2026-04-12T15:37:50.038Z</time></trkpt><trkpt lat="43.1414386" lon="13.2126671"><ele>290.6666666666667</ele><time>2026-04-12T15:37:51.053Z</time></trkpt><trkpt lat="43.1415738" lon="13.2128384"><ele>291.0</ele><time>2026-04-12T15:37:52.04Z</time></trkpt><trkpt lat="43.1417116" lon="13.2130074"><ele>291.6666666666667</ele><time>2026-04-12T15:37:53.039Z</time></trkpt><trkpt lat="43.141851" lon="13.2131789"><ele>292.33333333333337</ele><time>2026-04-12T15:37:54.043Z</time></trkpt><trkpt lat="43.1419935" lon="13.2133489"><ele>293.0</ele><time>2026-04-12T15:37:55.042Z</time></trkpt><trkpt lat="43.1421439" lon="13.2135194"><ele>293.0</ele><time>2026-04-12T15:37:56.04Z</time></trkpt><trkpt lat="43.1422911" lon="13.2136918"><ele>293.0</ele><time>2026-04-12T15:37:57.041Z</time></trkpt><trkpt lat="43.1424391" lon="13.2138676"><ele>293.0</ele><time>2026-04-12T15:37:58.04Z</time></trkpt><trkpt lat="43.1425791" lon="13.2140315"><ele>292.0</ele><time>2026-04-12T15:37:59.045Z</time></trkpt><trkpt lat="43.1427148" lon="13.2141921"><ele>291.0</ele><time>2026-04-12T15:38:00.043Z</time></trkpt><trkpt lat="43.1428434" lon="13.2143508"><ele>290.0</ele><time>2026-04-12T15:38:01.039Z</time></trkpt><trkpt lat="43.1429505" lon="13.2145175"><ele>290.0</ele><time>2026-04-12T15:38:02.043Z</time></trkpt><trkpt lat="43.1430433" lon="13.2146814"><ele>290.0</ele><time>2026-04-12T15:38:03.042Z</time></trkpt><trkpt lat="43.1430444" lon="13.2148853"><ele>290.0</ele><time>2026-04-12T15:38:04.063Z</time></trkpt><trkpt lat="43.1430134" lon="13.2151147"><ele>289.6666666666667</ele><time>2026-04-12T15:38:05.039Z</time></trkpt><trkpt lat="43.1429787" lon="13.2153534"><ele>289.3333333333333</ele><time>2026-04-12T15:38:06.036Z</time></trkpt><trkpt lat="43.1429415" lon="13.2156046"><ele>289.0</ele><time>2026-04-12T15:38:07.035Z</time></trkpt><trkpt lat="43.1429043" lon="13.2158627"><ele>288.66666666666663</ele><time>2026-04-12T15:38:08.044Z</time></trkpt><trkpt lat="43.142865" lon="13.2161294"><ele>288.3333333333333</ele><time>2026-04-12T15:38:09.039Z</time></trkpt><trkpt lat="43.1428221" lon="13.2164027"><ele>288.0</ele><time>2026-04-12T15:38:10.046Z</time></trkpt><trkpt lat="43.1427806" lon="13.216675"><ele>288.0</ele><time>2026-04-12T15:38:11.038Z</time></trkpt><trkpt lat="43.1427381" lon="13.2169514"><ele>288.0</ele><time>2026-04-12T15:38:12.045Z</time></trkpt><trkpt lat="43.1426977" lon="13.21723"><ele>288.0</ele><time>2026-04-12T15:38:13.039Z</time></trkpt><trkpt lat="43.1426544" lon="13.2175107"><ele>288.6666666666667</ele><time>2026-04-12T15:38:14.048Z</time></trkpt><trkpt lat="43.1426149" lon="13.2177943"><ele>289.33333333333337</ele><time>2026-04-12T15:38:15.041Z</time></trkpt><trkpt lat="43.1425747" lon="13.2180781"><ele>290.0</ele><time>2026-04-12T15:38:16.039Z</time></trkpt><trkpt lat="43.1425346" lon="13.2183604"><ele>291.0</ele><time>2026-04-12T15:38:17.043Z</time></trkpt><trkpt lat="43.142488" lon="13.2186443"><ele>292.0</ele><time>2026-04-12T15:38:18.043Z</time></trkpt><trkpt lat="43.1424445" lon="13.218912"><ele>293.0</ele><time>2026-04-12T15:38:19.042Z</time></trkpt><trkpt lat="43.1424056" lon="13.2191628"><ele>293.6666666666667</ele><time>2026-04-12T15:38:20.054Z</time></trkpt><trkpt lat="43.1423679" lon="13.2194106"><ele>294.3333333333333</ele><time>2026-04-12T15:38:21.046Z</time></trkpt><trkpt lat="43.142333" lon="13.2196503"><ele>295.0</ele><time>2026-04-12T15:38:22.041Z</time></trkpt><trkpt lat="43.142296" lon="13.2198927"><ele>295.66666666666663</ele><time>2026-04-12T15:38:23.038Z</time></trkpt><trkpt lat="43.1422632" lon="13.2201369"><ele>296.3333333333333</ele><time>2026-04-12T15:38:24.043Z</time></trkpt><trkpt lat="43.1422303" lon="13.2203914"><ele>297.0</ele><time>2026-04-12T15:38:25.041Z</time></trkpt><trkpt lat="43.1421916" lon="13.2206458"><ele>298.0</ele><time>2026-04-12T15:38:26.047Z</time></trkpt><trkpt lat="43.1421559" lon="13.2209092"><ele>299.0</ele><time>2026-04-12T15:38:27.045Z</time></trkpt><trkpt lat="43.1421193" lon="13.2211699"><ele>300.0</ele><time>2026-04-12T15:38:28.041Z</time></trkpt><trkpt lat="43.1420798" lon="13.2214328"><ele>300.6666666666667</ele><time>2026-04-12T15:38:29.039Z</time></trkpt><trkpt lat="43.1420406" lon="13.2216908"><ele>301.33333333333337</ele><time>2026-04-12T15:38:30.035Z</time></trkpt><trkpt lat="43.1420052" lon="13.221933"><ele>302.0</ele><time>2026-04-12T15:38:31.047Z</time></trkpt><trkpt lat="43.141973" lon="13.2221608"><ele>302.5</ele><time>2026-04-12T15:38:32.044Z</time></trkpt><trkpt lat="43.1419414" lon="13.2223769"><ele>303.0</ele><time>2026-04-12T15:38:33.043Z</time></trkpt><trkpt lat="43.1419115" lon="13.2225775"><ele>303.5</ele><time>2026-04-12T15:38:34.037Z</time></trkpt><trkpt lat="43.1418811" lon="13.2227616"><ele>304.0</ele><time>2026-04-12T15:38:35.041Z</time></trkpt><trkpt lat="43.1418446" lon="13.2229319"><ele>304.0</ele><time>2026-04-12T15:38:36.042Z</time></trkpt><trkpt lat="43.1417866" lon="13.2230904"><ele>304.0</ele><time>2026-04-12T15:38:37.036Z</time></trkpt><trkpt lat="43.1417051" lon="13.2232251"><ele>304.0</ele><time>2026-04-12T15:38:38.041Z</time></trkpt><trkpt lat="43.1416033" lon="13.2233421"><ele>304.0</ele><time>2026-04-12T15:38:39.045Z</time></trkpt><trkpt lat="43.1414875" lon="13.2234472"><ele>304.66666666666663</ele><time>2026-04-12T15:38:40.048Z</time></trkpt><trkpt lat="43.141361" lon="13.2235492"><ele>305.3333333333333</ele><time>2026-04-12T15:38:41.04Z</time></trkpt><trkpt lat="43.1412285" lon="13.2236564"><ele>306.0</ele><time>2026-04-12T15:38:42.043Z</time></trkpt><trkpt lat="43.1410928" lon="13.2237701"><ele>306.0</ele><time>2026-04-12T15:38:43.036Z</time></trkpt><trkpt lat="43.1409546" lon="13.2238873"><ele>306.0</ele><time>2026-04-12T15:38:44.043Z</time></trkpt><trkpt lat="43.1408115" lon="13.2240074"><ele>306.0</ele><time>2026-04-12T15:38:45.037Z</time></trkpt><trkpt lat="43.1406679" lon="13.2241315"><ele>306.3333333333333</ele><time>2026-04-12T15:38:46.04Z</time></trkpt><trkpt lat="43.1405235" lon="13.224256"><ele>306.66666666666663</ele><time>2026-04-12T15:38:47.043Z</time></trkpt><trkpt lat="43.1403782" lon="13.2243794"><ele>307.0</ele><time>2026-04-12T15:38:48.044Z</time></trkpt><trkpt lat="43.1402316" lon="13.2245009"><ele>307.0</ele><time>2026-04-12T15:38:49.052Z</time></trkpt><trkpt lat="43.1400851" lon="13.2246224"><ele>307.0</ele><time>2026-04-12T15:38:50.044Z</time></trkpt><trkpt lat="43.1399423" lon="13.2247451"><ele>307.0</ele><time>2026-04-12T15:38:51.069Z</time></trkpt><trkpt lat="43.1397995" lon="13.2248655"><ele>309.66666666666663</ele><time>2026-04-12T15:38:52.038Z</time></trkpt><trkpt lat="43.1396585" lon="13.2249852"><ele>312.3333333333333</ele><time>2026-04-12T15:38:53.044Z</time></trkpt><trkpt lat="43.1395194" lon="13.2251029"><ele>315.0</ele><time>2026-04-12T15:38:54.036Z</time></trkpt><trkpt lat="43.1393881" lon="13.225225"><ele>315.0</ele><time>2026-04-12T15:38:55.037Z</time></trkpt><trkpt lat="43.1392551" lon="13.2253461"><ele>315.0</ele><time>2026-04-12T15:38:56.034Z</time></trkpt><trkpt lat="43.1391207" lon="13.225458"><ele>315.0</ele><time>2026-04-12T15:38:57.039Z</time></trkpt><trkpt lat="43.1389928" lon="13.2255717"><ele>316.25</ele><time>2026-04-12T15:38:58.032Z</time></trkpt><trkpt lat="43.1388686" lon="13.225684"><ele>317.5</ele><time>2026-04-12T15:38:59.032Z</time></trkpt><trkpt lat="43.1387464" lon="13.2257801"><ele>318.75</ele><time>2026-04-12T15:39:00.039Z</time></trkpt><trkpt lat="43.1386172" lon="13.2258729"><ele>320.0</ele><time>2026-04-12T15:39:01.037Z</time></trkpt><trkpt lat="43.1384918" lon="13.2259694"><ele>320.0</ele><time>2026-04-12T15:39:02.037Z</time></trkpt><trkpt lat="43.1383381" lon="13.2260391"><ele>320.0</ele><time>2026-04-12T15:39:03.063Z</time></trkpt><trkpt lat="43.138199" lon="13.2261031"><ele>320.0</ele><time>2026-04-12T15:39:04.044Z</time></trkpt><trkpt lat="43.1380541" lon="13.2261734"><ele>320.5</ele><time>2026-04-12T15:39:05.043Z</time></trkpt><trkpt lat="43.1379062" lon="13.2262066"><ele>321.0</ele><time>2026-04-12T15:39:06.036Z</time></trkpt><trkpt lat="43.1377664" lon="13.2262549"><ele>321.5</ele><time>2026-04-12T15:39:07.043Z</time></trkpt><trkpt lat="43.1376255" lon="13.2262486"><ele>322.0</ele><time>2026-04-12T15:39:08.044Z</time></trkpt><trkpt lat="43.1374921" lon="13.2261741"><ele>322.0</ele><time>2026-04-12T15:39:09.042Z</time></trkpt><trkpt lat="43.1373491" lon="13.2261068"><ele>322.0</ele><time>2026-04-12T15:39:10.044Z</time></trkpt><trkpt lat="43.1371984" lon="13.226069"><ele>322.0</ele><time>2026-04-12T15:39:11.04Z</time></trkpt><trkpt lat="43.1370426" lon="13.2260553"><ele>322.0</ele><time>2026-04-12T15:39:12.043Z</time></trkpt><trkpt lat="43.1368966" lon="13.2260541"><ele>322.0</ele><time>2026-04-12T15:39:13.036Z</time></trkpt><trkpt lat="43.1367463" lon="13.2260606"><ele>322.0</ele><time>2026-04-12T15:39:14.04Z</time></trkpt><trkpt lat="43.1365936" lon="13.2260782"><ele>323.3333333333333</ele><time>2026-04-12T15:39:15.039Z</time></trkpt><trkpt lat="43.1364404" lon="13.2260963"><ele>324.6666666666667</ele><time>2026-04-12T15:39:16.041Z</time></trkpt><trkpt lat="43.1362735" lon="13.2260989"><ele>326.0</ele><time>2026-04-12T15:39:17.044Z</time></trkpt><trkpt lat="43.1361008" lon="13.2260999"><ele>326.0</ele><time>2026-04-12T15:39:18.044Z</time></trkpt><trkpt lat="43.1359183" lon="13.2261018"><ele>326.0</ele><time>2026-04-12T15:39:19.048Z</time></trkpt><trkpt lat="43.1357264" lon="13.2261153"><ele>326.0</ele><time>2026-04-12T15:39:20.039Z</time></trkpt><trkpt lat="43.1355238" lon="13.226128"><ele>325.6666666666667</ele><time>2026-04-12T15:39:21.037Z</time></trkpt><trkpt lat="43.1353125" lon="13.2261423"><ele>325.3333333333333</ele><time>2026-04-12T15:39:22.036Z</time></trkpt><trkpt lat="43.1350964" lon="13.2261547"><ele>325.0</ele><time>2026-04-12T15:39:23.042Z</time></trkpt><trkpt lat="43.1348787" lon="13.2261632"><ele>325.0</ele><time>2026-04-12T15:39:24.043Z</time></trkpt><trkpt lat="43.1346612" lon="13.2261679"><ele>325.0</ele><time>2026-04-12T15:39:25.041Z</time></trkpt><trkpt lat="43.1344451" lon="13.2261654"><ele>325.0</ele><time>2026-04-12T15:39:26.063Z</time></trkpt><trkpt lat="43.1342315" lon="13.2261542"><ele>323.66666666666663</ele><time>2026-04-12T15:39:27.045Z</time></trkpt><trkpt lat="43.1340275" lon="13.2261433"><ele>322.3333333333333</ele><time>2026-04-12T15:39:28.046Z</time></trkpt><trkpt lat="43.1338394" lon="13.2261339"><ele>321.0</ele><time>2026-04-12T15:39:29.04Z</time></trkpt><trkpt lat="43.1336688" lon="13.2261219"><ele>321.0</ele><time>2026-04-12T15:39:30.042Z</time></trkpt><trkpt lat="43.1335113" lon="13.2261109"><ele>321.0</ele><time>2026-04-12T15:39:31.045Z</time></trkpt><trkpt lat="43.1333658" lon="13.2261142"><ele>321.0</ele><time>2026-04-12T15:39:32.047Z</time></trkpt><trkpt lat="43.1332272" lon="13.2261245"><ele>321.0</ele><time>2026-04-12T15:39:33.045Z</time></trkpt><trkpt lat="43.1331043" lon="13.2262342"><ele>321.3333333333333</ele><time>2026-04-12T15:39:34.047Z</time></trkpt><trkpt lat="43.1330158" lon="13.2264136"><ele>321.66666666666663</ele><time>2026-04-12T15:39:35.041Z</time></trkpt><trkpt lat="43.132919" lon="13.2265896"><ele>322.0</ele><time>2026-04-12T15:39:36.041Z</time></trkpt><trkpt lat="43.1328396" lon="13.2268107"><ele>322.0</ele><time>2026-04-12T15:39:37.038Z</time></trkpt><trkpt lat="43.1327971" lon="13.227048"><ele>322.0</ele><time>2026-04-12T15:39:38.047Z</time></trkpt><trkpt lat="43.1327907" lon="13.227298"><ele>322.0</ele><time>2026-04-12T15:39:39.04Z</time></trkpt><trkpt lat="43.1327905" lon="13.2275488"><ele>323.3333333333333</ele><time>2026-04-12T15:39:40.041Z</time></trkpt><trkpt lat="43.1327893" lon="13.2277777"><ele>324.6666666666667</ele><time>2026-04-12T15:39:41.038Z</time></trkpt><trkpt lat="43.1327882" lon="13.2279962"><ele>326.0</ele><time>2026-04-12T15:39:42.039Z</time></trkpt><trkpt lat="43.1327652" lon="13.2281852"><ele>326.5</ele><time>2026-04-12T15:39:43.039Z</time></trkpt><trkpt lat="43.1327005" lon="13.2283312"><ele>327.0</ele><time>2026-04-12T15:39:44.044Z</time></trkpt><trkpt lat="43.1325934" lon="13.2284097"><ele>327.5</ele><time>2026-04-12T15:39:45.038Z</time></trkpt><trkpt lat="43.1324559" lon="13.2284096"><ele>328.0</ele><time>2026-04-12T15:39:46.041Z</time></trkpt><trkpt lat="43.132303" lon="13.2283544"><ele>329.66666666666663</ele><time>2026-04-12T15:39:47.04Z</time></trkpt><trkpt lat="43.1321354" lon="13.2282986"><ele>331.3333333333333</ele><time>2026-04-12T15:39:48.04Z</time></trkpt><trkpt lat="43.1319709" lon="13.228285"><ele>333.0</ele><time>2026-04-12T15:39:49.044Z</time></trkpt><trkpt lat="43.1318219" lon="13.2283444"><ele>333.0</ele><time>2026-04-12T15:39:50.047Z</time></trkpt><trkpt lat="43.1317049" lon="13.2284744"><ele>333.0</ele><time>2026-04-12T15:39:51.047Z</time></trkpt><trkpt lat="43.1315986" lon="13.2286365"><ele>333.0</ele><time>2026-04-12T15:39:52.049Z</time></trkpt><trkpt lat="43.1315267" lon="13.2288653"><ele>335.0</ele><time>2026-04-12T15:39:53.044Z</time></trkpt><trkpt lat="43.1314534" lon="13.2291102"><ele>337.0</ele><time>2026-04-12T15:39:54.048Z</time></trkpt><trkpt lat="43.1313733" lon="13.229374"><ele>339.0</ele><time>2026-04-12T15:39:55.045Z</time></trkpt><trkpt lat="43.1312725" lon="13.2296297"><ele>339.6666666666667</ele><time>2026-04-12T15:39:56.039Z</time></trkpt><trkpt lat="43.1311402" lon="13.2298668"><ele>340.33333333333337</ele><time>2026-04-12T15:39:57.042Z</time></trkpt><trkpt lat="43.1309948" lon="13.2300849"><ele>341.0</ele><time>2026-04-12T15:39:58.042Z</time></trkpt><trkpt lat="43.1308396" lon="13.2303084"><ele>341.5</ele><time>2026-04-12T15:39:59.068Z</time></trkpt><trkpt lat="43.1306855" lon="13.2305388"><ele>342.0</ele><time>2026-04-12T15:40:00.04Z</time></trkpt><trkpt lat="43.1305369" lon="13.2307699"><ele>344.5</ele><time>2026-04-12T15:40:01.047Z</time></trkpt><trkpt lat="43.1303957" lon="13.2310099"><ele>347.0</ele><time>2026-04-12T15:40:02.046Z</time></trkpt><trkpt lat="43.1302509" lon="13.2312472"><ele>347.33333333333337</ele><time>2026-04-12T15:40:03.04Z</time></trkpt><trkpt lat="43.130107" lon="13.231483"><ele>347.6666666666667</ele><time>2026-04-12T15:40:04.04Z</time></trkpt><trkpt lat="43.1299499" lon="13.2316879"><ele>348.0</ele><time>2026-04-12T15:40:05.045Z</time></trkpt><trkpt lat="43.1297599" lon="13.2318557"><ele>348.0</ele><time>2026-04-12T15:40:06.036Z</time></trkpt><trkpt lat="43.129567" lon="13.2320064"><ele>348.0</ele><time>2026-04-12T15:40:07.058Z</time></trkpt><trkpt lat="43.1293662" lon="13.2321436"><ele>348.0</ele><time>2026-04-12T15:40:08.043Z</time></trkpt><trkpt lat="43.129163" lon="13.2322681"><ele>350.3333333333333</ele><time>2026-04-12T15:40:09.046Z</time></trkpt><trkpt lat="43.1289575" lon="13.2323867"><ele>352.66666666666663</ele><time>2026-04-12T15:40:10.044Z</time></trkpt><trkpt lat="43.1287516" lon="13.2325029"><ele>355.0</ele><time>2026-04-12T15:40:11.043Z</time></trkpt><trkpt lat="43.1285472" lon="13.232616"><ele>355.0</ele><time>2026-04-12T15:40:12.047Z</time></trkpt><trkpt lat="43.1283403" lon="13.2327278"><ele>355.0</ele><time>2026-04-12T15:40:13.043Z</time></trkpt><trkpt lat="43.1281359" lon="13.2328397"><ele>355.0</ele><time>2026-04-12T15:40:14.042Z</time></trkpt><trkpt lat="43.1279265" lon="13.2329501"><ele>356.5</ele><time>2026-04-12T15:40:15.045Z</time></trkpt><trkpt lat="43.1277164" lon="13.2330657"><ele>358.0</ele><time>2026-04-12T15:40:16.04Z</time></trkpt><trkpt lat="43.1275078" lon="13.2331807"><ele>355.0</ele><time>2026-04-12T15:40:17.047Z</time></trkpt><trkpt lat="43.127314" lon="13.2333064"><ele>352.0</ele><time>2026-04-12T15:40:18.043Z</time></trkpt><trkpt lat="43.1271313" lon="13.2334378"><ele>349.0</ele><time>2026-04-12T15:40:19.044Z</time></trkpt><trkpt lat="43.1269884" lon="13.233625"><ele>349.0</ele><time>2026-04-12T15:40:20.043Z</time></trkpt><trkpt lat="43.1268888" lon="13.2338733"><ele>349.0</ele><time>2026-04-12T15:40:21.042Z</time></trkpt><trkpt lat="43.126764" lon="13.2341134"><ele>349.0</ele><time>2026-04-12T15:40:22.044Z</time></trkpt><trkpt lat="43.1266052" lon="13.2343335"><ele>350.0</ele><time>2026-04-12T15:40:23.041Z</time></trkpt><trkpt lat="43.1264207" lon="13.234527"><ele>351.0</ele><time>2026-04-12T15:40:24.044Z</time></trkpt><trkpt lat="43.1262241" lon="13.2346849"><ele>356.0</ele><time>2026-04-12T15:40:25.048Z</time></trkpt><trkpt lat="43.1260199" lon="13.2348338"><ele>361.0</ele><time>2026-04-12T15:40:26.043Z</time></trkpt><trkpt lat="43.1258142" lon="13.2349773"><ele>358.5</ele><time>2026-04-12T15:40:27.047Z</time></trkpt><trkpt lat="43.1256097" lon="13.2351309"><ele>356.0</ele><time>2026-04-12T15:40:28.044Z</time></trkpt><trkpt lat="43.1254258" lon="13.2353011"><ele>356.0</ele><time>2026-04-12T15:40:29.079Z</time></trkpt><trkpt lat="43.1252723" lon="13.2354894"><ele>356.0</ele><time>2026-04-12T15:40:30.048Z</time></trkpt><trkpt lat="43.1251332" lon="13.23566"><ele>356.0</ele><time>2026-04-12T15:40:31.047Z</time></trkpt><trkpt lat="43.1249845" lon="13.2357604"><ele>361.0</ele><time>2026-04-12T15:40:32.052Z</time></trkpt><trkpt lat="43.1248248" lon="13.2357807"><ele>366.0</ele><time>2026-04-12T15:40:33.043Z</time></trkpt><trkpt lat="43.1246635" lon="13.2357746"><ele>371.0</ele><time>2026-04-12T15:40:34.049Z</time></trkpt><trkpt lat="43.1245053" lon="13.2357523"><ele>371.0</ele><time>2026-04-12T15:40:35.044Z</time></trkpt><trkpt lat="43.1243699" lon="13.2358295"><ele>371.0</ele><time>2026-04-12T15:40:36.042Z</time></trkpt><trkpt lat="43.1242707" lon="13.2360045"><ele>371.0</ele><time>2026-04-12T15:40:37.045Z</time></trkpt><trkpt lat="43.1241709" lon="13.236201"><ele>369.6666666666667</ele><time>2026-04-12T15:40:38.044Z</time></trkpt><trkpt lat="43.1240456" lon="13.2363803"><ele>368.3333333333333</ele><time>2026-04-12T15:40:39.069Z</time></trkpt><trkpt lat="43.123884" lon="13.2365027"><ele>367.0</ele><time>2026-04-12T15:40:40.043Z</time></trkpt><trkpt lat="43.1237071" lon="13.2365626"><ele>371.3333333333333</ele><time>2026-04-12T15:40:41.043Z</time></trkpt><trkpt lat="43.1234994" lon="13.2366106"><ele>375.6666666666667</ele><time>2026-04-12T15:40:42.051Z</time></trkpt><trkpt lat="43.1232961" lon="13.2366696"><ele>380.0</ele><time>2026-04-12T15:40:43.049Z</time></trkpt><trkpt lat="43.1231079" lon="13.2368364"><ele>380.0</ele><time>2026-04-12T15:40:44.049Z</time></trkpt><trkpt lat="43.122906" lon="13.2369434"><ele>380.0</ele><time>2026-04-12T15:40:45.043Z</time></trkpt><trkpt lat="43.1226927" lon="13.2370407"><ele>380.0</ele><time>2026-04-12T15:40:46.045Z</time></trkpt><trkpt lat="43.1224725" lon="13.2371356"><ele>381.0</ele><time>2026-04-12T15:40:47.042Z</time></trkpt><trkpt lat="43.1222607" lon="13.2372222"><ele>382.0</ele><time>2026-04-12T15:40:48.047Z</time></trkpt><trkpt lat="43.122042" lon="13.2372872"><ele>383.0</ele><time>2026-04-12T15:40:49.042Z</time></trkpt><trkpt lat="43.121824" lon="13.2373243"><ele>382.6666666666667</ele><time>2026-04-12T15:40:50.049Z</time></trkpt><trkpt lat="43.1216071" lon="13.2373235"><ele>382.3333333333333</ele><time>2026-04-12T15:40:51.047Z</time></trkpt><trkpt lat="43.1213976" lon="13.23729"><ele>382.0</ele><time>2026-04-12T15:40:52.043Z</time></trkpt><trkpt lat="43.1211989" lon="13.2372276"><ele>382.0</ele><time>2026-04-12T15:40:53.04Z</time></trkpt><trkpt lat="43.121011" lon="13.2371702"><ele>382.0</ele><time>2026-04-12T15:40:54.042Z</time></trkpt><trkpt lat="43.1208155" lon="13.2371375"><ele>382.0</ele><time>2026-04-12T15:40:55.045Z</time></trkpt><trkpt lat="43.1206344" lon="13.2372032"><ele>386.3333333333333</ele><time>2026-04-12T15:40:56.044Z</time></trkpt><trkpt lat="43.1204686" lon="13.237311"><ele>390.66666666666663</ele><time>2026-04-12T15:40:57.045Z</time></trkpt><trkpt lat="43.1203359" lon="13.237485"><ele>395.0</ele><time>2026-04-12T15:40:58.04Z</time></trkpt><trkpt lat="43.1202375" lon="13.2377163"><ele>395.0</ele><time>2026-04-12T15:40:59.04Z</time></trkpt><trkpt lat="43.1201622" lon="13.2379813"><ele>395.0</ele><time>2026-04-12T15:41:00.038Z</time></trkpt><trkpt lat="43.120079" lon="13.2382563"><ele>395.0</ele><time>2026-04-12T15:41:01.043Z</time></trkpt><trkpt lat="43.119986" lon="13.2385364"><ele>395.0</ele><time>2026-04-12T15:41:02.042Z</time></trkpt><trkpt lat="43.119876" lon="13.2388178"><ele>395.0</ele><time>2026-04-12T15:41:03.037Z</time></trkpt><trkpt lat="43.1197477" lon="13.239075"><ele>395.66666666666663</ele><time>2026-04-12T15:41:04.044Z</time></trkpt><trkpt lat="43.1196203" lon="13.2393072"><ele>396.33333333333337</ele><time>2026-04-12T15:41:05.042Z</time></trkpt><trkpt lat="43.1195089" lon="13.2395358"><ele>397.0</ele><time>2026-04-12T15:41:06.047Z</time></trkpt><trkpt lat="43.1194384" lon="13.2397857"><ele>397.33333333333337</ele><time>2026-04-12T15:41:07.044Z</time></trkpt><trkpt lat="43.1194128" lon="13.2400672"><ele>397.66666666666663</ele><time>2026-04-12T15:41:08.042Z</time></trkpt><trkpt lat="43.1194347" lon="13.2403669"><ele>398.0</ele><time>2026-04-12T15:41:09.041Z</time></trkpt><trkpt lat="43.1194848" lon="13.2406785"><ele>397.0</ele><time>2026-04-12T15:41:10.046Z</time></trkpt><trkpt lat="43.1195418" lon="13.2409927"><ele>396.0</ele><time>2026-04-12T15:41:11.045Z</time></trkpt><trkpt lat="43.1195944" lon="13.241318"><ele>395.0</ele><time>2026-04-12T15:41:12.048Z</time></trkpt><trkpt lat="43.1196488" lon="13.2416472"><ele>394.0</ele><time>2026-04-12T15:41:13.047Z</time></trkpt><trkpt lat="43.1197039" lon="13.2419788"><ele>392.5</ele><time>2026-04-12T15:41:14.049Z</time></trkpt><trkpt lat="43.1197536" lon="13.2423173"><ele>391.0</ele><time>2026-04-12T15:41:15.04Z</time></trkpt><trkpt lat="43.1197902" lon="13.2426608"><ele>391.0</ele><time>2026-04-12T15:41:16.04Z</time></trkpt><trkpt lat="43.1198103" lon="13.2430064"><ele>391.0</ele><time>2026-04-12T15:41:17.048Z</time></trkpt><trkpt lat="43.1198202" lon="13.2433505"><ele>389.0</ele><time>2026-04-12T15:41:18.037Z</time></trkpt><trkpt lat="43.1198244" lon="13.2436814"><ele>387.0</ele><time>2026-04-12T15:41:19.044Z</time></trkpt><trkpt lat="43.119832" lon="13.2440021"><ele>386.0</ele><time>2026-04-12T15:41:20.048Z</time></trkpt><trkpt lat="43.1198608" lon="13.2443161"><ele>385.0</ele><time>2026-04-12T15:41:21.047Z</time></trkpt><trkpt lat="43.1199216" lon="13.2446231"><ele>382.0</ele><time>2026-04-12T15:41:22.046Z</time></trkpt><trkpt lat="43.1199991" lon="13.2449248"><ele>379.0</ele><time>2026-04-12T15:41:23.044Z</time></trkpt><trkpt lat="43.12008" lon="13.2452276"><ele>379.0</ele><time>2026-04-12T15:41:24.046Z</time></trkpt><trkpt lat="43.1201623" lon="13.245533"><ele>379.0</ele><time>2026-04-12T15:41:25.048Z</time></trkpt><trkpt lat="43.1202444" lon="13.2458444"><ele>377.0</ele><time>2026-04-12T15:41:26.047Z</time></trkpt><trkpt lat="43.1203256" lon="13.2461589"><ele>375.0</ele><time>2026-04-12T15:41:27.044Z</time></trkpt><trkpt lat="43.1204044" lon="13.2464656"><ele>372.6666666666667</ele><time>2026-04-12T15:41:28.044Z</time></trkpt><trkpt lat="43.1204807" lon="13.2467574"><ele>370.33333333333337</ele><time>2026-04-12T15:41:29.047Z</time></trkpt><trkpt lat="43.1205554" lon="13.2470332"><ele>368.0</ele><time>2026-04-12T15:41:30.044Z</time></trkpt><trkpt lat="43.1206226" lon="13.2472994"><ele>367.6666666666667</ele><time>2026-04-12T15:41:31.046Z</time></trkpt><trkpt lat="43.1206634" lon="13.2475591"><ele>367.3333333333333</ele><time>2026-04-12T15:41:32.047Z</time></trkpt><trkpt lat="43.120651" lon="13.2478053"><ele>367.0</ele><time>2026-04-12T15:41:33.041Z</time></trkpt><trkpt lat="43.1205789" lon="13.2480407"><ele>365.66666666666663</ele><time>2026-04-12T15:41:34.037Z</time></trkpt><trkpt lat="43.1204769" lon="13.2482756"><ele>364.3333333333333</ele><time>2026-04-12T15:41:35.044Z</time></trkpt><trkpt lat="43.1203909" lon="13.2485211"><ele>363.0</ele><time>2026-04-12T15:41:36.043Z</time></trkpt><trkpt lat="43.1203092" lon="13.248773"><ele>362.0</ele><time>2026-04-12T15:41:37.05Z</time></trkpt><trkpt lat="43.1203277" lon="13.2490582"><ele>361.0</ele><time>2026-04-12T15:41:38.036Z</time></trkpt><trkpt lat="43.1203629" lon="13.2493518"><ele>360.0</ele><time>2026-04-12T15:41:39.043Z</time></trkpt><trkpt lat="43.1203888" lon="13.2496605"><ele>359.0</ele><time>2026-04-12T15:41:40.035Z</time></trkpt><trkpt lat="43.1203837" lon="13.2499783"><ele>358.0</ele><time>2026-04-12T15:41:41.039Z</time></trkpt><trkpt lat="43.1203645" lon="13.2502946"><ele>358.0</ele><time>2026-04-12T15:41:42.038Z</time></trkpt><trkpt lat="43.1203346" lon="13.2506155"><ele>358.0</ele><time>2026-04-12T15:41:43.039Z</time></trkpt><trkpt lat="43.1203018" lon="13.2509267"><ele>358.3333333333333</ele><time>2026-04-12T15:41:44.042Z</time></trkpt><trkpt lat="43.1201995" lon="13.2512042"><ele>358.6666666666667</ele><time>2026-04-12T15:41:45.039Z</time></trkpt><trkpt lat="43.1200714" lon="13.2514402"><ele>359.0</ele><time>2026-04-12T15:41:46.063Z</time></trkpt><trkpt lat="43.1199284" lon="13.2516511"><ele>359.6666666666667</ele><time>2026-04-12T15:41:47.04Z</time></trkpt><trkpt lat="43.1198113" lon="13.2518778"><ele>360.3333333333333</ele><time>2026-04-12T15:41:48.04Z</time></trkpt><trkpt lat="43.1197257" lon="13.2521413"><ele>361.0</ele><time>2026-04-12T15:41:49.047Z</time></trkpt><trkpt lat="43.1196784" lon="13.2524348"><ele>361.0</ele><time>2026-04-12T15:41:50.044Z</time></trkpt><trkpt lat="43.1196543" lon="13.2527447"><ele>361.0</ele><time>2026-04-12T15:41:51.06Z</time></trkpt><trkpt lat="43.1196658" lon="13.2530554"><ele>358.0</ele><time>2026-04-12T15:41:52.036Z</time></trkpt><trkpt lat="43.1197206" lon="13.2533586"><ele>355.0</ele><time>2026-04-12T15:41:53.039Z</time></trkpt><trkpt lat="43.1197963" lon="13.2536537"><ele>355.0</ele><time>2026-04-12T15:41:54.041Z</time></trkpt><trkpt lat="43.1198774" lon="13.2539441"><ele>355.0</ele><time>2026-04-12T15:41:55.045Z</time></trkpt><trkpt lat="43.1199566" lon="13.254234"><ele>356.5</ele><time>2026-04-12T15:41:56.038Z</time></trkpt><trkpt lat="43.1200329" lon="13.254524"><ele>358.0</ele><time>2026-04-12T15:41:57.048Z</time></trkpt><trkpt lat="43.1201151" lon="13.2548129"><ele>353.0</ele><time>2026-04-12T15:41:58.039Z</time></trkpt><trkpt lat="43.1202167" lon="13.2550878"><ele>348.0</ele><time>2026-04-12T15:41:59.043Z</time></trkpt><trkpt lat="43.1203356" lon="13.2553526"><ele>348.0</ele><time>2026-04-12T15:42:00.041Z</time></trkpt><trkpt lat="43.1204626" lon="13.2556105"><ele>348.0</ele><time>2026-04-12T15:42:01.046Z</time></trkpt><trkpt lat="43.1205899" lon="13.2558649"><ele>348.0</ele><time>2026-04-12T15:42:02.049Z</time></trkpt><trkpt lat="43.1207112" lon="13.2561094"><ele>348.0</ele><time>2026-04-12T15:42:03.043Z</time></trkpt><trkpt lat="43.1208295" lon="13.2563327"><ele>348.0</ele><time>2026-04-12T15:42:04.041Z</time></trkpt><trkpt lat="43.1209584" lon="13.2565197"><ele>348.0</ele><time>2026-04-12T15:42:05.04Z</time></trkpt><trkpt lat="43.1211144" lon="13.2566485"><ele>348.0</ele><time>2026-04-12T15:42:06.041Z</time></trkpt><trkpt lat="43.1213014" lon="13.2567131"><ele>348.0</ele><time>2026-04-12T15:42:07.04Z</time></trkpt><trkpt lat="43.1214972" lon="13.2567601"><ele>349.0</ele><time>2026-04-12T15:42:08.032Z</time></trkpt><trkpt lat="43.1216867" lon="13.2567996"><ele>350.0</ele><time>2026-04-12T15:42:09.058Z</time></trkpt><trkpt lat="43.1218614" lon="13.2568466"><ele>351.0</ele><time>2026-04-12T15:42:10.036Z</time></trkpt><trkpt lat="43.1220237" lon="13.2568928"><ele>351.0</ele><time>2026-04-12T15:42:11.037Z</time></trkpt><trkpt lat="43.122174" lon="13.2569336"><ele>351.0</ele><time>2026-04-12T15:42:12.04Z</time></trkpt><trkpt lat="43.1223139" lon="13.2569571"><ele>351.0</ele><time>2026-04-12T15:42:13.043Z</time></trkpt><trkpt lat="43.1224486" lon="13.256933"><ele>351.0</ele><time>2026-04-12T15:42:14.045Z</time></trkpt><trkpt lat="43.1225932" lon="13.2568909"><ele>349.0</ele><time>2026-04-12T15:42:15.041Z</time></trkpt><trkpt lat="43.122763" lon="13.2567639"><ele>347.0</ele><time>2026-04-12T15:42:16.048Z</time></trkpt><trkpt lat="43.1229508" lon="13.2566691"><ele>345.0</ele><time>2026-04-12T15:42:17.034Z</time></trkpt><trkpt lat="43.1231519" lon="13.2566285"><ele>342.0</ele><time>2026-04-12T15:42:18.042Z</time></trkpt><trkpt lat="43.1233394" lon="13.2566252"><ele>339.0</ele><time>2026-04-12T15:42:19.045Z</time></trkpt><trkpt lat="43.1235077" lon="13.2566172"><ele>336.0</ele><time>2026-04-12T15:42:20.041Z</time></trkpt><trkpt lat="43.1236581" lon="13.2566128"><ele>336.0</ele><time>2026-04-12T15:42:21.043Z</time></trkpt><trkpt lat="43.1237832" lon="13.2566314"><ele>336.0</ele><time>2026-04-12T15:42:22.041Z</time></trkpt><trkpt lat="43.1238751" lon="13.2566992"><ele>336.0</ele><time>2026-04-12T15:42:23.043Z</time></trkpt><trkpt lat="43.123911" lon="13.2568114"><ele>336.0</ele><time>2026-04-12T15:42:24.04Z</time></trkpt><trkpt lat="43.1238733" lon="13.2569244"><ele>336.0</ele><time>2026-04-12T15:42:25.045Z</time></trkpt><trkpt lat="43.1237783" lon="13.2570035"><ele>336.0</ele><time>2026-04-12T15:42:26.044Z</time></trkpt><trkpt lat="43.1236403" lon="13.2570565"><ele>336.0</ele><time>2026-04-12T15:42:27.045Z</time></trkpt><trkpt lat="43.1234792" lon="13.2571322"><ele>336.0</ele><time>2026-04-12T15:42:28.058Z</time></trkpt><trkpt lat="43.1233185" lon="13.2572556"><ele>335.6666666666667</ele><time>2026-04-12T15:42:29.045Z</time></trkpt><trkpt lat="43.1231705" lon="13.2574298"><ele>335.33333333333337</ele><time>2026-04-12T15:42:30.046Z</time></trkpt><trkpt lat="43.1230397" lon="13.2576477"><ele>335.0</ele><time>2026-04-12T15:42:31.046Z</time></trkpt><trkpt lat="43.1229217" lon="13.2578774"><ele>335.0</ele><time>2026-04-12T15:42:32.039Z</time></trkpt><trkpt lat="43.1228101" lon="13.2580981"><ele>335.0</ele><time>2026-04-12T15:42:33.043Z</time></trkpt><trkpt lat="43.1226952" lon="13.2583028"><ele>335.0</ele><time>2026-04-12T15:42:34.044Z</time></trkpt><trkpt lat="43.1225581" lon="13.2584483"><ele>332.6666666666667</ele><time>2026-04-12T15:42:35.043Z</time></trkpt><trkpt lat="43.1224065" lon="13.2585219"><ele>330.3333333333333</ele><time>2026-04-12T15:42:36.063Z</time></trkpt><trkpt lat="43.1222617" lon="13.2585902"><ele>328.0</ele><time>2026-04-12T15:42:37.043Z</time></trkpt><trkpt lat="43.1221511" lon="13.2587483"><ele>322.3333333333333</ele><time>2026-04-12T15:42:38.046Z</time></trkpt><trkpt lat="43.1220625" lon="13.2589651"><ele>316.6666666666667</ele><time>2026-04-12T15:42:39.043Z</time></trkpt><trkpt lat="43.1219722" lon="13.2591912"><ele>311.0</ele><time>2026-04-12T15:42:40.04Z</time></trkpt><trkpt lat="43.12188" lon="13.2594543"><ele>311.0</ele><time>2026-04-12T15:42:41.042Z</time></trkpt><trkpt lat="43.1217908" lon="13.2597016"><ele>311.0</ele><time>2026-04-12T15:42:42.046Z</time></trkpt><trkpt lat="43.1217072" lon="13.2599256"><ele>311.0</ele><time>2026-04-12T15:42:43.044Z</time></trkpt><trkpt lat="43.1215593" lon="13.2600347"><ele>314.6666666666667</ele><time>2026-04-12T15:42:44.043Z</time></trkpt><trkpt lat="43.1213913" lon="13.2600933"><ele>318.3333333333333</ele><time>2026-04-12T15:42:45.052Z</time></trkpt><trkpt lat="43.1211972" lon="13.2601386"><ele>322.0</ele><time>2026-04-12T15:42:46.046Z</time></trkpt><trkpt lat="43.1209931" lon="13.2601799"><ele>322.0</ele><time>2026-04-12T15:42:47.052Z</time></trkpt><trkpt lat="43.1207891" lon="13.2602443"><ele>322.0</ele><time>2026-04-12T15:42:48.049Z</time></trkpt><trkpt lat="43.1205846" lon="13.2603401"><ele>322.0</ele><time>2026-04-12T15:42:49.048Z</time></trkpt><trkpt lat="43.1203905" lon="13.2604854"><ele>325.0</ele><time>2026-04-12T15:42:50.05Z</time></trkpt><trkpt lat="43.120212" lon="13.2606744"><ele>328.0</ele><time>2026-04-12T15:42:51.043Z</time></trkpt><trkpt lat="43.120051" lon="13.2608918"><ele>327.0</ele><time>2026-04-12T15:42:52.052Z</time></trkpt><trkpt lat="43.1198853" lon="13.2611058"><ele>326.0</ele><time>2026-04-12T15:42:53.046Z</time></trkpt><trkpt lat="43.1197001" lon="13.2612765"><ele>326.0</ele><time>2026-04-12T15:42:54.047Z</time></trkpt><trkpt lat="43.1194952" lon="13.2613658"><ele>326.0</ele><time>2026-04-12T15:42:55.046Z</time></trkpt><trkpt lat="43.1192823" lon="13.2613881"><ele>326.0</ele><time>2026-04-12T15:42:56.044Z</time></trkpt><trkpt lat="43.1190769" lon="13.2613876"><ele>324.33333333333337</ele><time>2026-04-12T15:42:57.041Z</time></trkpt><trkpt lat="43.1189048" lon="13.2613919"><ele>322.6666666666667</ele><time>2026-04-12T15:42:58.048Z</time></trkpt><trkpt lat="43.1187638" lon="13.2614346"><ele>321.0</ele><time>2026-04-12T15:42:59.049Z</time></trkpt><trkpt lat="43.1186365" lon="13.2614937"><ele>324.6666666666667</ele><time>2026-04-12T15:43:00.048Z</time></trkpt><trkpt lat="43.1185913" lon="13.2616833"><ele>328.33333333333337</ele><time>2026-04-12T15:43:01.043Z</time></trkpt><trkpt lat="43.1185772" lon="13.2618965"><ele>332.0</ele><time>2026-04-12T15:43:02.042Z</time></trkpt><trkpt lat="43.1185529" lon="13.2621129"><ele>335.0</ele><time>2026-04-12T15:43:03.049Z</time></trkpt><trkpt lat="43.1185212" lon="13.2623364"><ele>338.0</ele><time>2026-04-12T15:43:04.049Z</time></trkpt><trkpt lat="43.1184879" lon="13.262556"><ele>341.0</ele><time>2026-04-12T15:43:05.051Z</time></trkpt><trkpt lat="43.1184515" lon="13.2627805"><ele>341.0</ele><time>2026-04-12T15:43:06.065Z</time></trkpt><trkpt lat="43.1184143" lon="13.2630073"><ele>341.0</ele><time>2026-04-12T15:43:07.049Z</time></trkpt><trkpt lat="43.1183756" lon="13.2632328"><ele>341.0</ele><time>2026-04-12T15:43:08.039Z</time></trkpt><trkpt lat="43.1183305" lon="13.2634636"><ele>343.0</ele><time>2026-04-12T15:43:09.044Z</time></trkpt><trkpt lat="43.1182842" lon="13.2636996"><ele>345.0</ele><time>2026-04-12T15:43:10.046Z</time></trkpt><trkpt lat="43.1182344" lon="13.2639306"><ele>347.0</ele><time>2026-04-12T15:43:11.043Z</time></trkpt><trkpt lat="43.1181806" lon="13.2641539"><ele>347.0</ele><time>2026-04-12T15:43:12.038Z</time></trkpt><trkpt lat="43.1181267" lon="13.2643632"><ele>347.0</ele><time>2026-04-12T15:43:13.062Z</time></trkpt><trkpt lat="43.1180745" lon="13.2645684"><ele>347.0</ele><time>2026-04-12T15:43:14.04Z</time></trkpt><trkpt lat="43.1180161" lon="13.2647768"><ele>349.6666666666667</ele><time>2026-04-12T15:43:15.04Z</time></trkpt><trkpt lat="43.1179523" lon="13.2649756"><ele>352.3333333333333</ele><time>2026-04-12T15:43:16.052Z</time></trkpt><trkpt lat="43.117878" lon="13.2651672"><ele>355.0</ele><time>2026-04-12T15:43:17.047Z</time></trkpt><trkpt lat="43.1177974" lon="13.2653532"><ele>355.0</ele><time>2026-04-12T15:43:18.049Z</time></trkpt><trkpt lat="43.1177214" lon="13.2655247"><ele>355.0</ele><time>2026-04-12T15:43:19.048Z</time></trkpt><trkpt lat="43.1176476" lon="13.2656885"><ele>355.0</ele><time>2026-04-12T15:43:20.051Z</time></trkpt><trkpt lat="43.1175751" lon="13.265859"><ele>355.0</ele><time>2026-04-12T15:43:21.044Z</time></trkpt><trkpt lat="43.1174995" lon="13.2660144"><ele>356.3333333333333</ele><time>2026-04-12T15:43:22.051Z</time></trkpt><trkpt lat="43.1174145" lon="13.2661834"><ele>357.6666666666667</ele><time>2026-04-12T15:43:23.042Z</time></trkpt><trkpt lat="43.1172918" lon="13.2663612"><ele>359.0</ele><time>2026-04-12T15:43:24.039Z</time></trkpt><trkpt lat="43.1171275" lon="13.2665285"><ele>359.0</ele><time>2026-04-12T15:43:25.045Z</time></trkpt><trkpt lat="43.1169512" lon="13.2666602"><ele>359.0</ele><time>2026-04-12T15:43:26.055Z</time></trkpt><trkpt lat="43.1167951" lon="13.2667781"><ele>359.0</ele><time>2026-04-12T15:43:27.035Z</time></trkpt><trkpt lat="43.1166553" lon="13.2668795"><ele>359.0</ele><time>2026-04-12T15:43:28.049Z</time></trkpt><trkpt lat="43.1166139" lon="13.2670686"><ele>359.0</ele><time>2026-04-12T15:43:29.034Z</time></trkpt><trkpt lat="43.116609" lon="13.2672818"><ele>359.0</ele><time>2026-04-12T15:43:30.042Z</time></trkpt><trkpt lat="43.1166458" lon="13.267524"><ele>360.0</ele><time>2026-04-12T15:43:31.044Z</time></trkpt><trkpt lat="43.1166724" lon="13.2677722"><ele>361.0</ele><time>2026-04-12T15:43:32.041Z</time></trkpt><trkpt lat="43.1166994" lon="13.2680097"><ele>362.0</ele><time>2026-04-12T15:43:33.051Z</time></trkpt><trkpt lat="43.1167113" lon="13.2681972"><ele>362.20000000000005</ele><time>2026-04-12T15:43:34.043Z</time></trkpt><trkpt lat="43.1166844" lon="13.2683422"><ele>362.4</ele><time>2026-04-12T15:43:35.036Z</time></trkpt><trkpt lat="43.116624" lon="13.2684257"><ele>362.6</ele><time>2026-04-12T15:43:36.04Z</time></trkpt><trkpt lat="43.1165299" lon="13.2684403"><ele>362.79999999999995</ele><time>2026-04-12T15:43:37.042Z</time></trkpt><trkpt lat="43.1164315" lon="13.2683655"><ele>363.0</ele><time>2026-04-12T15:43:38.038Z</time></trkpt><trkpt lat="43.1163223" lon="13.2682381"><ele>365.0</ele><time>2026-04-12T15:43:39.059Z</time></trkpt><trkpt lat="43.1162197" lon="13.2680542"><ele>367.0</ele><time>2026-04-12T15:43:40.035Z</time></trkpt><trkpt lat="43.1160946" lon="13.2678827"><ele>369.0</ele><time>2026-04-12T15:43:41.048Z</time></trkpt><trkpt lat="43.1159535" lon="13.2677355"><ele>369.0</ele><time>2026-04-12T15:43:42.039Z</time></trkpt><trkpt lat="43.1158007" lon="13.2676076"><ele>369.0</ele><time>2026-04-12T15:43:43.045Z</time></trkpt><trkpt lat="43.115636" lon="13.2674886"><ele>369.0</ele><time>2026-04-12T15:43:44.048Z</time></trkpt><trkpt lat="43.1154659" lon="13.2673627"><ele>369.3333333333333</ele><time>2026-04-12T15:43:45.044Z</time></trkpt><trkpt lat="43.1152954" lon="13.2672346"><ele>369.66666666666663</ele><time>2026-04-12T15:43:46.061Z</time></trkpt><trkpt lat="43.1151264" lon="13.2671065"><ele>370.0</ele><time>2026-04-12T15:43:47.05Z</time></trkpt><trkpt lat="43.1149622" lon="13.2669711"><ele>373.0</ele><time>2026-04-12T15:43:48.052Z</time></trkpt><trkpt lat="43.1148" lon="13.266837"><ele>376.0</ele><time>2026-04-12T15:43:49.044Z</time></trkpt><trkpt lat="43.114631" lon="13.2667347"><ele>379.0</ele><time>2026-04-12T15:43:50.053Z</time></trkpt><trkpt lat="43.1144504" lon="13.2666893"><ele>379.0</ele><time>2026-04-12T15:43:51.046Z</time></trkpt><trkpt lat="43.1142626" lon="13.2666954"><ele>379.0</ele><time>2026-04-12T15:43:52.05Z</time></trkpt><trkpt lat="43.1140708" lon="13.2667265"><ele>379.0</ele><time>2026-04-12T15:43:53.043Z</time></trkpt><trkpt lat="43.1138744" lon="13.2667632"><ele>378.66666666666663</ele><time>2026-04-12T15:43:54.051Z</time></trkpt><trkpt lat="43.1136766" lon="13.2668034"><ele>378.3333333333333</ele><time>2026-04-12T15:43:55.044Z</time></trkpt><trkpt lat="43.1134744" lon="13.2668366"><ele>378.0</ele><time>2026-04-12T15:43:56.052Z</time></trkpt><trkpt lat="43.1132664" lon="13.2668664"><ele>377.6666666666667</ele><time>2026-04-12T15:43:57.045Z</time></trkpt><trkpt lat="43.1130509" lon="13.2668936"><ele>377.33333333333337</ele><time>2026-04-12T15:43:58.049Z</time></trkpt><trkpt lat="43.1128285" lon="13.2669163"><ele>377.0</ele><time>2026-04-12T15:43:59.046Z</time></trkpt><trkpt lat="43.1125993" lon="13.2669384"><ele>376.0</ele><time>2026-04-12T15:44:00.051Z</time></trkpt><trkpt lat="43.1123643" lon="13.2669646"><ele>375.0</ele><time>2026-04-12T15:44:01.05Z</time></trkpt><trkpt lat="43.1121254" lon="13.2669995"><ele>375.0</ele><time>2026-04-12T15:44:02.047Z</time></trkpt><trkpt lat="43.1118855" lon="13.2670419"><ele>375.0</ele><time>2026-04-12T15:44:03.039Z</time></trkpt><trkpt lat="43.1116404" lon="13.2670879"><ele>375.0</ele><time>2026-04-12T15:44:04.054Z</time></trkpt><trkpt lat="43.1113957" lon="13.2671323"><ele>375.0</ele><time>2026-04-12T15:44:05.037Z</time></trkpt><trkpt lat="43.1111506" lon="13.2671731"><ele>375.0</ele><time>2026-04-12T15:44:06.072Z</time></trkpt><trkpt lat="43.1109046" lon="13.2672064"><ele>375.0</ele><time>2026-04-12T15:44:07.041Z</time></trkpt><trkpt lat="43.1106587" lon="13.2672266"><ele>375.5</ele><time>2026-04-12T15:44:08.04Z</time></trkpt><trkpt lat="43.1104146" lon="13.2672325"><ele>376.0</ele><time>2026-04-12T15:44:09.044Z</time></trkpt><trkpt lat="43.1101761" lon="13.2672248"><ele>376.0</ele><time>2026-04-12T15:44:10.043Z</time></trkpt><trkpt lat="43.1099478" lon="13.267209"><ele>376.0</ele><time>2026-04-12T15:44:11.045Z</time></trkpt><trkpt lat="43.1097312" lon="13.2671902"><ele>376.0</ele><time>2026-04-12T15:44:12.041Z</time></trkpt><trkpt lat="43.1095276" lon="13.2671694"><ele>375.0</ele><time>2026-04-12T15:44:13.045Z</time></trkpt><trkpt lat="43.1093336" lon="13.2671642"><ele>374.0</ele><time>2026-04-12T15:44:14.041Z</time></trkpt><trkpt lat="43.109139" lon="13.2672065"><ele>373.0</ele><time>2026-04-12T15:44:15.042Z</time></trkpt><trkpt lat="43.108946" lon="13.2673073"><ele>372.3333333333333</ele><time>2026-04-12T15:44:16.04Z</time></trkpt><trkpt lat="43.1087599" lon="13.2674537"><ele>371.6666666666667</ele><time>2026-04-12T15:44:17.044Z</time></trkpt><trkpt lat="43.1085771" lon="13.2676205"><ele>371.0</ele><time>2026-04-12T15:44:18.045Z</time></trkpt><trkpt lat="43.1083884" lon="13.2677916"><ele>368.5</ele><time>2026-04-12T15:44:19.07Z</time></trkpt><trkpt lat="43.1081946" lon="13.2679637"><ele>366.0</ele><time>2026-04-12T15:44:20.042Z</time></trkpt><trkpt lat="43.1079961" lon="13.268132"><ele>366.0</ele><time>2026-04-12T15:44:21.047Z</time></trkpt><trkpt lat="43.1078004" lon="13.2683021"><ele>366.0</ele><time>2026-04-12T15:44:22.051Z</time></trkpt><trkpt lat="43.1076037" lon="13.2684812"><ele>366.0</ele><time>2026-04-12T15:44:23.043Z</time></trkpt><trkpt lat="43.1074233" lon="13.2686833"><ele>366.0</ele><time>2026-04-12T15:44:24.046Z</time></trkpt><trkpt lat="43.1072582" lon="13.2689131"><ele>361.0</ele><time>2026-04-12T15:44:25.05Z</time></trkpt><trkpt lat="43.1071096" lon="13.2691562"><ele>356.0</ele><time>2026-04-12T15:44:26.043Z</time></trkpt><trkpt lat="43.1069715" lon="13.2694127"><ele>356.0</ele><time>2026-04-12T15:44:27.043Z</time></trkpt><trkpt lat="43.106843" lon="13.2696587"><ele>356.0</ele><time>2026-04-12T15:44:28.038Z</time></trkpt><trkpt lat="43.1067203" lon="13.2698929"><ele>356.0</ele><time>2026-04-12T15:44:29.067Z</time></trkpt><trkpt lat="43.1066056" lon="13.2701123"><ele>357.0</ele><time>2026-04-12T15:44:30.045Z</time></trkpt><trkpt lat="43.1065006" lon="13.2703162"><ele>358.0</ele><time>2026-04-12T15:44:31.04Z</time></trkpt><trkpt lat="43.1064047" lon="13.2704969"><ele>359.0</ele><time>2026-04-12T15:44:32.038Z</time></trkpt><trkpt lat="43.1063193" lon="13.2706527"><ele>361.25</ele><time>2026-04-12T15:44:33.039Z</time></trkpt><trkpt lat="43.1062224" lon="13.2707687"><ele>363.5</ele><time>2026-04-12T15:44:34.04Z</time></trkpt><trkpt lat="43.1060924" lon="13.270824"><ele>365.75</ele><time>2026-04-12T15:44:35.044Z</time></trkpt><trkpt lat="43.1059516" lon="13.270875"><ele>368.0</ele><time>2026-04-12T15:44:36.035Z</time></trkpt><trkpt lat="43.1058147" lon="13.2708729"><ele>370.5</ele><time>2026-04-12T15:44:37.045Z</time></trkpt><trkpt lat="43.1056878" lon="13.2708464"><ele>373.0</ele><time>2026-04-12T15:44:38.039Z</time></trkpt><trkpt lat="43.1055808" lon="13.2707374"><ele>375.5</ele><time>2026-04-12T15:44:39.04Z</time></trkpt><trkpt lat="43.1055229" lon="13.2705241"><ele>378.0</ele><time>2026-04-12T15:44:40.04Z</time></trkpt><trkpt lat="43.1055169" lon="13.2702929"><ele>378.0</ele><time>2026-04-12T15:44:41.045Z</time></trkpt><trkpt lat="43.1054942" lon="13.2700359"><ele>378.0</ele><time>2026-04-12T15:44:42.043Z</time></trkpt><trkpt lat="43.1054586" lon="13.2697646"><ele>378.0</ele><time>2026-04-12T15:44:43.038Z</time></trkpt><trkpt lat="43.1054212" lon="13.2694952"><ele>377.0</ele><time>2026-04-12T15:44:44.055Z</time></trkpt><trkpt lat="43.1053852" lon="13.2692354"><ele>376.0</ele><time>2026-04-12T15:44:45.044Z</time></trkpt><trkpt lat="43.1053374" lon="13.269011"><ele>375.0</ele><time>2026-04-12T15:44:46.042Z</time></trkpt><trkpt lat="43.1052696" lon="13.2688265"><ele>372.0</ele><time>2026-04-12T15:44:47.049Z</time></trkpt><trkpt lat="43.1051645" lon="13.2686919"><ele>369.0</ele><time>2026-04-12T15:44:48.047Z</time></trkpt><trkpt lat="43.1050177" lon="13.2686232"><ele>366.0</ele><time>2026-04-12T15:44:49.044Z</time></trkpt><trkpt lat="43.1048457" lon="13.2686315"><ele>366.0</ele><time>2026-04-12T15:44:50.051Z</time></trkpt><trkpt lat="43.1046703" lon="13.268665"><ele>366.0</ele><time>2026-04-12T15:44:51.044Z</time></trkpt><trkpt lat="43.1044856" lon="13.2688238"><ele>366.0</ele><time>2026-04-12T15:44:52.042Z</time></trkpt><trkpt lat="43.1042935" lon="13.2689978"><ele>371.0</ele><time>2026-04-12T15:44:53.043Z</time></trkpt><trkpt lat="43.1040878" lon="13.2691937"><ele>376.0</ele><time>2026-04-12T15:44:54.044Z</time></trkpt><trkpt lat="43.1038618" lon="13.2693083"><ele>378.5</ele><time>2026-04-12T15:44:55.047Z</time></trkpt><trkpt lat="43.1036276" lon="13.2693499"><ele>381.0</ele><time>2026-04-12T15:44:56.042Z</time></trkpt><trkpt lat="43.1033981" lon="13.2693224"><ele>382.5</ele><time>2026-04-12T15:44:57.044Z</time></trkpt><trkpt lat="43.103165" lon="13.2692778"><ele>384.0</ele><time>2026-04-12T15:44:58.041Z</time></trkpt><trkpt lat="43.1029495" lon="13.2692341"><ele>384.0</ele><time>2026-04-12T15:44:59.04Z</time></trkpt><trkpt lat="43.1027415" lon="13.2692073"><ele>384.0</ele><time>2026-04-12T15:45:00.045Z</time></trkpt><trkpt lat="43.1025384" lon="13.2692361"><ele>384.0</ele><time>2026-04-12T15:45:01.048Z</time></trkpt><trkpt lat="43.1023376" lon="13.2693158"><ele>385.5</ele><time>2026-04-12T15:45:02.051Z</time></trkpt><trkpt lat="43.1021353" lon="13.2694367"><ele>387.0</ele><time>2026-04-12T15:45:03.05Z</time></trkpt><trkpt lat="43.1019232" lon="13.2695639"><ele>387.0</ele><time>2026-04-12T15:45:04.046Z</time></trkpt><trkpt lat="43.1016956" lon="13.2696974"><ele>387.0</ele><time>2026-04-12T15:45:05.049Z</time></trkpt><trkpt lat="43.1014554" lon="13.2698452"><ele>388.5</ele><time>2026-04-12T15:45:06.049Z</time></trkpt><trkpt lat="43.1012082" lon="13.2700057"><ele>390.0</ele><time>2026-04-12T15:45:07.047Z</time></trkpt><trkpt lat="43.1009554" lon="13.2701717"><ele>388.0</ele><time>2026-04-12T15:45:08.064Z</time></trkpt><trkpt lat="43.1006948" lon="13.2703375"><ele>386.0</ele><time>2026-04-12T15:45:09.047Z</time></trkpt><trkpt lat="43.1004277" lon="13.2704927"><ele>390.0</ele><time>2026-04-12T15:45:10.047Z</time></trkpt><trkpt lat="43.1001619" lon="13.2706382"><ele>394.0</ele><time>2026-04-12T15:45:11.051Z</time></trkpt><trkpt lat="43.099911" lon="13.2707772"><ele>394.0</ele><time>2026-04-12T15:45:12.047Z</time></trkpt><trkpt lat="43.0996701" lon="13.270917"><ele>394.0</ele><time>2026-04-12T15:45:13.053Z</time></trkpt><trkpt lat="43.0994515" lon="13.271059"><ele>394.0</ele><time>2026-04-12T15:45:14.045Z</time></trkpt><trkpt lat="43.0992379" lon="13.2712039"><ele>394.0</ele><time>2026-04-12T15:45:15.048Z</time></trkpt><trkpt lat="43.0990173" lon="13.2713292"><ele>397.0</ele><time>2026-04-12T15:45:16.046Z</time></trkpt><trkpt lat="43.0987961" lon="13.271409"><ele>400.0</ele><time>2026-04-12T15:45:17.045Z</time></trkpt><trkpt lat="43.0985726" lon="13.2714276"><ele>400.0</ele><time>2026-04-12T15:45:18.045Z</time></trkpt><trkpt lat="43.0983539" lon="13.2714168"><ele>400.0</ele><time>2026-04-12T15:45:19.047Z</time></trkpt><trkpt lat="43.0981329" lon="13.2713426"><ele>400.0</ele><time>2026-04-12T15:45:20.071Z</time></trkpt><trkpt lat="43.0979314" lon="13.2712678"><ele>399.33333333333337</ele><time>2026-04-12T15:45:21.049Z</time></trkpt><trkpt lat="43.0977435" lon="13.2712393"><ele>398.66666666666663</ele><time>2026-04-12T15:45:22.047Z</time></trkpt><trkpt lat="43.097568" lon="13.2712742"><ele>398.0</ele><time>2026-04-12T15:45:23.045Z</time></trkpt><trkpt lat="43.097403" lon="13.2713867"><ele>399.3333333333333</ele><time>2026-04-12T15:45:24.048Z</time></trkpt><trkpt lat="43.09726" lon="13.2715766"><ele>400.66666666666663</ele><time>2026-04-12T15:45:25.049Z</time></trkpt><trkpt lat="43.0971136" lon="13.2717808"><ele>402.0</ele><time>2026-04-12T15:45:26.044Z</time></trkpt><trkpt lat="43.0969316" lon="13.2719448"><ele>402.0</ele><time>2026-04-12T15:45:27.045Z</time></trkpt><trkpt lat="43.0967172" lon="13.2720341"><ele>402.0</ele><time>2026-04-12T15:45:28.045Z</time></trkpt><trkpt lat="43.0964828" lon="13.272072"><ele>401.5</ele><time>2026-04-12T15:45:29.044Z</time></trkpt><trkpt lat="43.0962385" lon="13.2721245"><ele>401.0</ele><time>2026-04-12T15:45:30.044Z</time></trkpt><trkpt lat="43.0959974" lon="13.2722386"><ele>407.5</ele><time>2026-04-12T15:45:31.044Z</time></trkpt><trkpt lat="43.0957752" lon="13.2723909"><ele>414.0</ele><time>2026-04-12T15:45:32.04Z</time></trkpt><trkpt lat="43.0955661" lon="13.2725383"><ele>414.0</ele><time>2026-04-12T15:45:33.045Z</time></trkpt><trkpt lat="43.0953434" lon="13.2726343"><ele>414.0</ele><time>2026-04-12T15:45:34.047Z</time></trkpt><trkpt lat="43.0951178" lon="13.2727213"><ele>413.5</ele><time>2026-04-12T15:45:35.049Z</time></trkpt><trkpt lat="43.0948641" lon="13.2726883"><ele>413.0</ele><time>2026-04-12T15:45:36.048Z</time></trkpt><trkpt lat="43.094599" lon="13.272679"><ele>413.0</ele><time>2026-04-12T15:45:37.051Z</time></trkpt><trkpt lat="43.0943281" lon="13.2727138"><ele>413.0</ele><time>2026-04-12T15:45:38.042Z</time></trkpt><trkpt lat="43.0940581" lon="13.2727668"><ele>415.0</ele><time>2026-04-12T15:45:39.047Z</time></trkpt><trkpt lat="43.0937856" lon="13.2727962"><ele>417.0</ele><time>2026-04-12T15:45:40.044Z</time></trkpt><trkpt lat="43.0935097" lon="13.2727952"><ele>417.5</ele><time>2026-04-12T15:45:41.047Z</time></trkpt><trkpt lat="43.0932462" lon="13.2727788"><ele>418.0</ele><time>2026-04-12T15:45:42.043Z</time></trkpt><trkpt lat="43.0930085" lon="13.2727545"><ele>418.0</ele><time>2026-04-12T15:45:43.05Z</time></trkpt><trkpt lat="43.0927905" lon="13.2727484"><ele>418.0</ele><time>2026-04-12T15:45:44.049Z</time></trkpt><trkpt lat="43.0925974" lon="13.2727803"><ele>418.0</ele><time>2026-04-12T15:45:45.039Z</time></trkpt><trkpt lat="43.092422" lon="13.2728865"><ele>415.6666666666667</ele><time>2026-04-12T15:45:46.045Z</time></trkpt><trkpt lat="43.0922503" lon="13.2730231"><ele>413.33333333333337</ele><time>2026-04-12T15:45:47.043Z</time></trkpt><trkpt lat="43.0921202" lon="13.2732605"><ele>411.0</ele><time>2026-04-12T15:45:48.049Z</time></trkpt><trkpt lat="43.0920047" lon="13.2734721"><ele>416.0</ele><time>2026-04-12T15:45:49.044Z</time></trkpt><trkpt lat="43.0918932" lon="13.2736698"><ele>421.0</ele><time>2026-04-12T15:45:50.044Z</time></trkpt><trkpt lat="43.0917207" lon="13.2737342"><ele>426.0</ele><time>2026-04-12T15:45:51.057Z</time></trkpt><trkpt lat="43.0915315" lon="13.2737339"><ele>426.66666666666663</ele><time>2026-04-12T15:45:52.04Z</time></trkpt><trkpt lat="43.0913269" lon="13.2737259"><ele>427.3333333333333</ele><time>2026-04-12T15:45:53.042Z</time></trkpt><trkpt lat="43.0911093" lon="13.2736972"><ele>428.0</ele><time>2026-04-12T15:45:54.04Z</time></trkpt><trkpt lat="43.0908862" lon="13.2736829"><ele>425.5</ele><time>2026-04-12T15:45:55.047Z</time></trkpt><trkpt lat="43.0906629" lon="13.2736993"><ele>423.0</ele><time>2026-04-12T15:45:56.042Z</time></trkpt><trkpt lat="43.090433" lon="13.2737513"><ele>423.0</ele><time>2026-04-12T15:45:57.043Z</time></trkpt><trkpt lat="43.0902224" lon="13.2738578"><ele>423.0</ele><time>2026-04-12T15:45:58.051Z</time></trkpt><trkpt lat="43.0900555" lon="13.2740203"><ele>423.0</ele><time>2026-04-12T15:45:59.038Z</time></trkpt><trkpt lat="43.0899106" lon="13.2741836"><ele>429.66666666666663</ele><time>2026-04-12T15:46:00.04Z</time></trkpt><trkpt lat="43.0897744" lon="13.2743392"><ele>436.3333333333333</ele><time>2026-04-12T15:46:01.047Z</time></trkpt><trkpt lat="43.0896053" lon="13.2743922"><ele>443.0</ele><time>2026-04-12T15:46:02.039Z</time></trkpt><trkpt lat="43.089438" lon="13.2744055"><ele>443.0</ele><time>2026-04-12T15:46:03.042Z</time></trkpt><trkpt lat="43.0892953" lon="13.2742767"><ele>443.0</ele><time>2026-04-12T15:46:04.044Z</time></trkpt><trkpt lat="43.0891392" lon="13.2741416"><ele>443.0</ele><time>2026-04-12T15:46:05.043Z</time></trkpt><trkpt lat="43.0889705" lon="13.2740862"><ele>441.0</ele><time>2026-04-12T15:46:06.04Z</time></trkpt><trkpt lat="43.0888013" lon="13.2741406"><ele>439.0</ele><time>2026-04-12T15:46:07.062Z</time></trkpt><trkpt lat="43.0886549" lon="13.2743095"><ele>437.0</ele><time>2026-04-12T15:46:08.04Z</time></trkpt><trkpt lat="43.0884858" lon="13.2745185"><ele>437.0</ele><time>2026-04-12T15:46:09.041Z</time></trkpt><trkpt lat="43.0883377" lon="13.2747561"><ele>437.0</ele><time>2026-04-12T15:46:10.04Z</time></trkpt><trkpt lat="43.0881595" lon="13.2749617"><ele>447.3333333333333</ele><time>2026-04-12T15:46:11.042Z</time></trkpt><trkpt lat="43.0879535" lon="13.2750346"><ele>457.66666666666663</ele><time>2026-04-12T15:46:12.041Z</time></trkpt><trkpt lat="43.0877378" lon="13.2750191"><ele>468.0</ele><time>2026-04-12T15:46:13.042Z</time></trkpt><trkpt lat="43.087527" lon="13.2749956"><ele>474.0</ele><time>2026-04-12T15:46:14.036Z</time></trkpt><trkpt lat="43.0873362" lon="13.2748189"><ele>480.0</ele><time>2026-04-12T15:46:15.035Z</time></trkpt><trkpt lat="43.0871622" lon="13.2745891"><ele>471.33333333333337</ele><time>2026-04-12T15:46:16.042Z</time></trkpt><trkpt lat="43.087002" lon="13.2743957"><ele>462.6666666666667</ele><time>2026-04-12T15:46:17.041Z</time></trkpt><trkpt lat="43.0868417" lon="13.2742379"><ele>454.0</ele><time>2026-04-12T15:46:18.034Z</time></trkpt><trkpt lat="43.0866473" lon="13.2741608"><ele>455.6666666666667</ele><time>2026-04-12T15:46:19.042Z</time></trkpt><trkpt lat="43.0864306" lon="13.2741892"><ele>457.33333333333337</ele><time>2026-04-12T15:46:20.042Z</time></trkpt><trkpt lat="43.0862098" lon="13.2742713"><ele>459.0</ele><time>2026-04-12T15:46:21.036Z</time></trkpt><trkpt lat="43.0859799" lon="13.2742163"><ele>463.5</ele><time>2026-04-12T15:46:22.046Z</time></trkpt><trkpt lat="43.0857388" lon="13.274113"><ele>468.0</ele><time>2026-04-12T15:46:23.044Z</time></trkpt><trkpt lat="43.0855046" lon="13.27401"><ele>460.0</ele><time>2026-04-12T15:46:24.047Z</time></trkpt><trkpt lat="43.0852704" lon="13.2739076"><ele>452.0</ele><time>2026-04-12T15:46:25.042Z</time></trkpt><trkpt lat="43.0850546" lon="13.2738178"><ele>453.66666666666663</ele><time>2026-04-12T15:46:26.043Z</time></trkpt><trkpt lat="43.0848562" lon="13.2737307"><ele>455.33333333333337</ele><time>2026-04-12T15:46:27.044Z</time></trkpt><trkpt lat="43.0846625" lon="13.2736699"><ele>457.0</ele><time>2026-04-12T15:46:28.039Z</time></trkpt><trkpt lat="43.0844648" lon="13.273654"><ele>457.0</ele><time>2026-04-12T15:46:29.04Z</time></trkpt><trkpt lat="43.0842706" lon="13.2737085"><ele>457.0</ele><time>2026-04-12T15:46:30.036Z</time></trkpt><trkpt lat="43.0840796" lon="13.2738124"><ele>457.0</ele><time>2026-04-12T15:46:31.049Z</time></trkpt><trkpt lat="43.0838857" lon="13.2739221"><ele>465.33333333333337</ele><time>2026-04-12T15:46:32.047Z</time></trkpt><trkpt lat="43.0836824" lon="13.2740323"><ele>473.66666666666663</ele><time>2026-04-12T15:46:33.039Z</time></trkpt><trkpt lat="43.0834768" lon="13.2740332"><ele>482.0</ele><time>2026-04-12T15:46:34.069Z</time></trkpt><trkpt lat="43.0832874" lon="13.2739814"><ele>479.66666666666663</ele><time>2026-04-12T15:46:35.043Z</time></trkpt><trkpt lat="43.0831239" lon="13.2738986"><ele>477.33333333333337</ele><time>2026-04-12T15:46:36.044Z</time></trkpt><trkpt lat="43.0829526" lon="13.2737985"><ele>475.0</ele><time>2026-04-12T15:46:37.045Z</time></trkpt><trkpt lat="43.0827824" lon="13.2736956"><ele>475.0</ele><time>2026-04-12T15:46:38.042Z</time></trkpt><trkpt lat="43.0826007" lon="13.2735947"><ele>475.0</ele><time>2026-04-12T15:46:39.046Z</time></trkpt><trkpt lat="43.0824012" lon="13.2734834"><ele>475.0</ele><time>2026-04-12T15:46:40.038Z</time></trkpt><trkpt lat="43.0821938" lon="13.2733446"><ele>476.6666666666667</ele><time>2026-04-12T15:46:41.04Z</time></trkpt><trkpt lat="43.0819912" lon="13.2731953"><ele>478.33333333333337</ele><time>2026-04-12T15:46:42.038Z</time></trkpt><trkpt lat="43.0817991" lon="13.2730629"><ele>480.0</ele><time>2026-04-12T15:46:43.038Z</time></trkpt><trkpt lat="43.0816098" lon="13.2729667"><ele>479.33333333333337</ele><time>2026-04-12T15:46:44.046Z</time></trkpt><trkpt lat="43.0814163" lon="13.2729169"><ele>478.6666666666667</ele><time>2026-04-12T15:46:45.045Z</time></trkpt><trkpt lat="43.0812188" lon="13.2729161"><ele>478.0</ele><time>2026-04-12T15:46:46.075Z</time></trkpt><trkpt lat="43.0810242" lon="13.2729689"><ele>478.0</ele><time>2026-04-12T15:46:47.047Z</time></trkpt><trkpt lat="43.0808388" lon="13.2730764"><ele>478.0</ele><time>2026-04-12T15:46:48.039Z</time></trkpt><trkpt lat="43.0806709" lon="13.2732294"><ele>478.0</ele><time>2026-04-12T15:46:49.038Z</time></trkpt><trkpt lat="43.0805204" lon="13.273418"><ele>477.6666666666667</ele><time>2026-04-12T15:46:50.04Z</time></trkpt><trkpt lat="43.080379" lon="13.2736257"><ele>477.33333333333337</ele><time>2026-04-12T15:46:51.036Z</time></trkpt><trkpt lat="43.080241" lon="13.2738305"><ele>477.0</ele><time>2026-04-12T15:46:52.048Z</time></trkpt><trkpt lat="43.0801116" lon="13.2740267"><ele>476.66666666666663</ele><time>2026-04-12T15:46:53.043Z</time></trkpt><trkpt lat="43.0799887" lon="13.2742096"><ele>476.3333333333333</ele><time>2026-04-12T15:46:54.036Z</time></trkpt><trkpt lat="43.0798723" lon="13.2743856"><ele>476.0</ele><time>2026-04-12T15:46:55.04Z</time></trkpt><trkpt lat="43.0797585" lon="13.2745621"><ele>475.0</ele><time>2026-04-12T15:46:56.038Z</time></trkpt><trkpt lat="43.0796451" lon="13.2747489"><ele>474.0</ele><time>2026-04-12T15:46:57.046Z</time></trkpt><trkpt lat="43.0795253" lon="13.2749454"><ele>473.0</ele><time>2026-04-12T15:46:58.041Z</time></trkpt><trkpt lat="43.0793937" lon="13.2751456"><ele>473.0</ele><time>2026-04-12T15:46:59.046Z</time></trkpt><trkpt lat="43.0792494" lon="13.2753452"><ele>473.0</ele><time>2026-04-12T15:47:00.044Z</time></trkpt><trkpt lat="43.0791002" lon="13.2755516"><ele>473.0</ele><time>2026-04-12T15:47:01.044Z</time></trkpt><trkpt lat="43.0789501" lon="13.2757689"><ele>471.3333333333333</ele><time>2026-04-12T15:47:02.051Z</time></trkpt><trkpt lat="43.078801" lon="13.2759913"><ele>469.66666666666663</ele><time>2026-04-12T15:47:03.038Z</time></trkpt><trkpt lat="43.078651" lon="13.2762167"><ele>468.0</ele><time>2026-04-12T15:47:04.041Z</time></trkpt><trkpt lat="43.0784978" lon="13.2764447"><ele>468.0</ele><time>2026-04-12T15:47:05.04Z</time></trkpt><trkpt lat="43.0783424" lon="13.2766753"><ele>468.0</ele><time>2026-04-12T15:47:06.046Z</time></trkpt><trkpt lat="43.0781863" lon="13.2769088"><ele>468.0</ele><time>2026-04-12T15:47:07.04Z</time></trkpt><trkpt lat="43.0780295" lon="13.2771444"><ele>468.0</ele><time>2026-04-12T15:47:08.042Z</time></trkpt><trkpt lat="43.077871" lon="13.2773793"><ele>467.5</ele><time>2026-04-12T15:47:09.043Z</time></trkpt><trkpt lat="43.0777125" lon="13.2776141"><ele>467.0</ele><time>2026-04-12T15:47:10.042Z</time></trkpt><trkpt lat="43.0775595" lon="13.2778399"><ele>468.0</ele><time>2026-04-12T15:47:11.036Z</time></trkpt><trkpt lat="43.077413" lon="13.278055"><ele>469.0</ele><time>2026-04-12T15:47:12.044Z</time></trkpt><trkpt lat="43.0772728" lon="13.2782627"><ele>470.0</ele><time>2026-04-12T15:47:13.047Z</time></trkpt><trkpt lat="43.0771415" lon="13.2784614"><ele>470.0</ele><time>2026-04-12T15:47:14.044Z</time></trkpt><trkpt lat="43.0770152" lon="13.2786533"><ele>470.0</ele><time>2026-04-12T15:47:15.046Z</time></trkpt><trkpt lat="43.0768946" lon="13.2788348"><ele>470.0</ele><time>2026-04-12T15:47:16.043Z</time></trkpt><trkpt lat="43.0767816" lon="13.2790057"><ele>469.25</ele><time>2026-04-12T15:47:17.04Z</time></trkpt><trkpt lat="43.0766796" lon="13.2791602"><ele>468.5</ele><time>2026-04-12T15:47:18.047Z</time></trkpt><trkpt lat="43.0765874" lon="13.2792979"><ele>467.75</ele><time>2026-04-12T15:47:19.039Z</time></trkpt><trkpt lat="43.0765063" lon="13.2794138"><ele>467.0</ele><time>2026-04-12T15:47:20.068Z</time></trkpt><trkpt lat="43.0764394" lon="13.279506"><ele>466.8333333333333</ele><time>2026-04-12T15:47:21.041Z</time></trkpt><trkpt lat="43.0763882" lon="13.2795698"><ele>466.66666666666663</ele><time>2026-04-12T15:47:22.044Z</time></trkpt><trkpt lat="43.0763278" lon="13.279649"><ele>466.5</ele><time>2026-04-12T15:47:24.043Z</time></trkpt><trkpt lat="43.0762938" lon="13.2797361"><ele>466.33333333333337</ele><time>2026-04-12T15:47:35.041Z</time></trkpt><trkpt lat="43.0762991" lon="13.2798483"><ele>466.1666666666667</ele><time>2026-04-12T15:47:37.052Z</time></trkpt><trkpt lat="43.0763671" lon="13.2799646"><ele>466.0</ele><time>2026-04-12T15:47:39.047Z</time></trkpt><trkpt lat="43.0764183" lon="13.2800262"><ele>466.0</ele><time>2026-04-12T15:47:40.047Z</time></trkpt><trkpt lat="43.0764705" lon="13.2800993"><ele>466.0</ele><time>2026-04-12T15:47:41.049Z</time></trkpt><trkpt lat="43.076528" lon="13.2801883"><ele>466.0</ele><time>2026-04-12T15:47:42.044Z</time></trkpt><trkpt lat="43.0765814" lon="13.2802879"><ele>466.0</ele><time>2026-04-12T15:47:43.07Z</time></trkpt><trkpt lat="43.076636" lon="13.2804027"><ele>466.0</ele><time>2026-04-12T15:47:44.041Z</time></trkpt><trkpt lat="43.0767" lon="13.2805393"><ele>465.6666666666667</ele><time>2026-04-12T15:47:45.046Z</time></trkpt><trkpt lat="43.0767825" lon="13.2807092"><ele>465.33333333333337</ele><time>2026-04-12T15:47:46.043Z</time></trkpt><trkpt lat="43.0768756" lon="13.2808978"><ele>465.0</ele><time>2026-04-12T15:47:47.052Z</time></trkpt><trkpt lat="43.0769638" lon="13.2811293"><ele>465.0</ele><time>2026-04-12T15:47:48.043Z</time></trkpt><trkpt lat="43.0770529" lon="13.2813743"><ele>465.0</ele><time>2026-04-12T15:47:49.044Z</time></trkpt><trkpt lat="43.0771506" lon="13.2816288"><ele>465.0</ele><time>2026-04-12T15:47:50.047Z</time></trkpt><trkpt lat="43.0772567" lon="13.2818889"><ele>464.5</ele><time>2026-04-12T15:47:51.043Z</time></trkpt><trkpt lat="43.0773669" lon="13.2821602"><ele>464.0</ele><time>2026-04-12T15:47:52.06Z</time></trkpt><trkpt lat="43.0774818" lon="13.2824366"><ele>462.5</ele><time>2026-04-12T15:47:53.05Z</time></trkpt><trkpt lat="43.0775981" lon="13.2827187"><ele>461.0</ele><time>2026-04-12T15:47:54.044Z</time></trkpt><trkpt lat="43.0777156" lon="13.2830046"><ele>462.0</ele><time>2026-04-12T15:47:55.043Z</time></trkpt><trkpt lat="43.0778345" lon="13.2832895"><ele>463.0</ele><time>2026-04-12T15:47:56.049Z</time></trkpt><trkpt lat="43.0779524" lon="13.2835765"><ele>463.0</ele><time>2026-04-12T15:47:57.05Z</time></trkpt><trkpt lat="43.0780696" lon="13.2838611"><ele>463.0</ele><time>2026-04-12T15:47:58.039Z</time></trkpt><trkpt lat="43.0781857" lon="13.2841411"><ele>460.5</ele><time>2026-04-12T15:47:59.046Z</time></trkpt><trkpt lat="43.0783014" lon="13.2844185"><ele>458.0</ele><time>2026-04-12T15:48:00.043Z</time></trkpt><trkpt lat="43.0784157" lon="13.2846931"><ele>458.0</ele><time>2026-04-12T15:48:01.042Z</time></trkpt><trkpt lat="43.0785301" lon="13.2849673"><ele>458.0</ele><time>2026-04-12T15:48:02.043Z</time></trkpt><trkpt lat="43.0786442" lon="13.2852407"><ele>458.0</ele><time>2026-04-12T15:48:03.042Z</time></trkpt><trkpt lat="43.0787567" lon="13.2855143"><ele>458.0</ele><time>2026-04-12T15:48:04.047Z</time></trkpt><trkpt lat="43.0788701" lon="13.2857871"><ele>457.5</ele><time>2026-04-12T15:48:05.044Z</time></trkpt><trkpt lat="43.0789833" lon="13.2860594"><ele>457.0</ele><time>2026-04-12T15:48:06.046Z</time></trkpt><trkpt lat="43.0790947" lon="13.2863316"><ele>456.5</ele><time>2026-04-12T15:48:07.052Z</time></trkpt><trkpt lat="43.0792062" lon="13.2866054"><ele>456.0</ele><time>2026-04-12T15:48:08.046Z</time></trkpt><trkpt lat="43.0793196" lon="13.2868805"><ele>456.0</ele><time>2026-04-12T15:48:09.047Z</time></trkpt><trkpt lat="43.0794345" lon="13.2871589"><ele>456.0</ele><time>2026-04-12T15:48:10.047Z</time></trkpt><trkpt lat="43.0795501" lon="13.2874395"><ele>454.0</ele><time>2026-04-12T15:48:11.045Z</time></trkpt><trkpt lat="43.0796679" lon="13.2877239"><ele>452.0</ele><time>2026-04-12T15:48:12.045Z</time></trkpt><trkpt lat="43.0797868" lon="13.2880125"><ele>451.5</ele><time>2026-04-12T15:48:13.047Z</time></trkpt><trkpt lat="43.0799071" lon="13.2883049"><ele>451.0</ele><time>2026-04-12T15:48:14.044Z</time></trkpt><trkpt lat="43.0800277" lon="13.2886002"><ele>451.0</ele><time>2026-04-12T15:48:15.047Z</time></trkpt><trkpt lat="43.0801495" lon="13.2888973"><ele>451.0</ele><time>2026-04-12T15:48:16.041Z</time></trkpt><trkpt lat="43.0802724" lon="13.2891954"><ele>450.0</ele><time>2026-04-12T15:48:17.049Z</time></trkpt><trkpt lat="43.0803957" lon="13.2894937"><ele>449.0</ele><time>2026-04-12T15:48:18.046Z</time></trkpt><trkpt lat="43.0805193" lon="13.2897927"><ele>448.5</ele><time>2026-04-12T15:48:19.046Z</time></trkpt><trkpt lat="43.0806431" lon="13.2900923"><ele>448.0</ele><time>2026-04-12T15:48:20.052Z</time></trkpt><trkpt lat="43.0807662" lon="13.2903916"><ele>448.0</ele><time>2026-04-12T15:48:21.045Z</time></trkpt><trkpt lat="43.0808889" lon="13.2906919"><ele>448.0</ele><time>2026-04-12T15:48:22.043Z</time></trkpt><trkpt lat="43.0810126" lon="13.2909925"><ele>448.0</ele><time>2026-04-12T15:48:23.046Z</time></trkpt><trkpt lat="43.0811376" lon="13.2912935"><ele>448.0</ele><time>2026-04-12T15:48:24.053Z</time></trkpt><trkpt lat="43.0812616" lon="13.2915954"><ele>447.5</ele><time>2026-04-12T15:48:25.048Z</time></trkpt><trkpt lat="43.0813861" lon="13.2918981"><ele>447.0</ele><time>2026-04-12T15:48:26.05Z</time></trkpt><trkpt lat="43.0815108" lon="13.2922017"><ele>446.5</ele><time>2026-04-12T15:48:27.046Z</time></trkpt><trkpt lat="43.0816353" lon="13.292504"><ele>446.0</ele><time>2026-04-12T15:48:28.046Z</time></trkpt><trkpt lat="43.0817605" lon="13.292805"><ele>445.0</ele><time>2026-04-12T15:48:29.041Z</time></trkpt><trkpt lat="43.0818851" lon="13.2931071"><ele>444.0</ele><time>2026-04-12T15:48:30.071Z</time></trkpt><trkpt lat="43.0820101" lon="13.2934103"><ele>444.0</ele><time>2026-04-12T15:48:31.044Z</time></trkpt><trkpt lat="43.0821354" lon="13.2937136"><ele>444.0</ele><time>2026-04-12T15:48:32.049Z</time></trkpt><trkpt lat="43.0822604" lon="13.2940161"><ele>443.0</ele><time>2026-04-12T15:48:33.046Z</time></trkpt><trkpt lat="43.0823855" lon="13.2943183"><ele>442.0</ele><time>2026-04-12T15:48:34.044Z</time></trkpt><trkpt lat="43.0825093" lon="13.2946217"><ele>443.5</ele><time>2026-04-12T15:48:35.048Z</time></trkpt><trkpt lat="43.0826341" lon="13.2949259"><ele>445.0</ele><time>2026-04-12T15:48:36.049Z</time></trkpt><trkpt lat="43.0827599" lon="13.2952306"><ele>445.0</ele><time>2026-04-12T15:48:37.047Z</time></trkpt><trkpt lat="43.0828858" lon="13.2955369"><ele>445.0</ele><time>2026-04-12T15:48:38.049Z</time></trkpt><trkpt lat="43.0830126" lon="13.2958441"><ele>443.5</ele><time>2026-04-12T15:48:39.049Z</time></trkpt><trkpt lat="43.08314" lon="13.2961527"><ele>442.0</ele><time>2026-04-12T15:48:40.045Z</time></trkpt><trkpt lat="43.083267" lon="13.2964618"><ele>439.5</ele><time>2026-04-12T15:48:41.07Z</time></trkpt><trkpt lat="43.0833938" lon="13.2967718"><ele>437.0</ele><time>2026-04-12T15:48:42.048Z</time></trkpt><trkpt lat="43.0835211" lon="13.2970812"><ele>437.0</ele><time>2026-04-12T15:48:43.044Z</time></trkpt><trkpt lat="43.0836489" lon="13.2973904"><ele>437.0</ele><time>2026-04-12T15:48:44.05Z</time></trkpt><trkpt lat="43.0837773" lon="13.2976998"><ele>437.0</ele><time>2026-04-12T15:48:45.049Z</time></trkpt><trkpt lat="43.083906" lon="13.29801"><ele>437.0</ele><time>2026-04-12T15:48:46.053Z</time></trkpt><trkpt lat="43.0840347" lon="13.29832"><ele>436.5</ele><time>2026-04-12T15:48:47.044Z</time></trkpt><trkpt lat="43.084162" lon="13.2986309"><ele>436.0</ele><time>2026-04-12T15:48:48.049Z</time></trkpt><trkpt lat="43.0842888" lon="13.2989423"><ele>436.0</ele><time>2026-04-12T15:48:49.049Z</time></trkpt><trkpt lat="43.0844163" lon="13.2992534"><ele>436.0</ele><time>2026-04-12T15:48:50.047Z</time></trkpt><trkpt lat="43.0845436" lon="13.299564"><ele>434.0</ele><time>2026-04-12T15:48:51.042Z</time></trkpt><trkpt lat="43.0846706" lon="13.2998741"><ele>432.0</ele><time>2026-04-12T15:48:52.045Z</time></trkpt><trkpt lat="43.0847972" lon="13.300184"><ele>432.0</ele><time>2026-04-12T15:48:53.044Z</time></trkpt><trkpt lat="43.0849241" lon="13.3004935"><ele>432.0</ele><time>2026-04-12T15:48:54.044Z</time></trkpt><trkpt lat="43.0850511" lon="13.3008032"><ele>432.0</ele><time>2026-04-12T15:48:55.05Z</time></trkpt><trkpt lat="43.0851786" lon="13.3011119"><ele>432.0</ele><time>2026-04-12T15:48:56.046Z</time></trkpt><trkpt lat="43.0853051" lon="13.3014205"><ele>432.0</ele><time>2026-04-12T15:48:57.078Z</time></trkpt><trkpt lat="43.0854324" lon="13.3017289"><ele>432.0</ele><time>2026-04-12T15:48:58.045Z</time></trkpt><trkpt lat="43.0855583" lon="13.3020372"><ele>432.5</ele><time>2026-04-12T15:48:59.045Z</time></trkpt><trkpt lat="43.0856848" lon="13.3023461"><ele>433.0</ele><time>2026-04-12T15:49:00.045Z</time></trkpt><trkpt lat="43.0858118" lon="13.3026547"><ele>433.0</ele><time>2026-04-12T15:49:01.042Z</time></trkpt><trkpt lat="43.0859392" lon="13.3029633"><ele>433.0</ele><time>2026-04-12T15:49:02.04Z</time></trkpt><trkpt lat="43.0860667" lon="13.3032722"><ele>430.5</ele><time>2026-04-12T15:49:03.039Z</time></trkpt><trkpt lat="43.0861936" lon="13.3035806"><ele>428.0</ele><time>2026-04-12T15:49:04.042Z</time></trkpt><trkpt lat="43.0863207" lon="13.3038888"><ele>426.5</ele><time>2026-04-12T15:49:05.041Z</time></trkpt><trkpt lat="43.0864478" lon="13.3041971"><ele>425.0</ele><time>2026-04-12T15:49:06.043Z</time></trkpt><trkpt lat="43.0865752" lon="13.3045071"><ele>426.0</ele><time>2026-04-12T15:49:07.044Z</time></trkpt><trkpt lat="43.0867029" lon="13.3048186"><ele>427.0</ele><time>2026-04-12T15:49:08.05Z</time></trkpt><trkpt lat="43.0868306" lon="13.3051302"><ele>427.0</ele><time>2026-04-12T15:49:09.044Z</time></trkpt><trkpt lat="43.0869596" lon="13.3054417"><ele>427.0</ele><time>2026-04-12T15:49:10.044Z</time></trkpt><trkpt lat="43.0870905" lon="13.3057537"><ele>425.0</ele><time>2026-04-12T15:49:11.044Z</time></trkpt><trkpt lat="43.0872206" lon="13.3060669"><ele>423.0</ele><time>2026-04-12T15:49:12.044Z</time></trkpt><trkpt lat="43.087351" lon="13.3063812"><ele>424.0</ele><time>2026-04-12T15:49:13.05Z</time></trkpt><trkpt lat="43.087481" lon="13.3066958"><ele>425.0</ele><time>2026-04-12T15:49:14.04Z</time></trkpt><trkpt lat="43.0876102" lon="13.3070114"><ele>424.5</ele><time>2026-04-12T15:49:15.049Z</time></trkpt><trkpt lat="43.0877389" lon="13.3073262"><ele>424.0</ele><time>2026-04-12T15:49:16.04Z</time></trkpt><trkpt lat="43.0878683" lon="13.30764"><ele>424.0</ele><time>2026-04-12T15:49:17.044Z</time></trkpt><trkpt lat="43.0879973" lon="13.3079529"><ele>424.0</ele><time>2026-04-12T15:49:18.047Z</time></trkpt><trkpt lat="43.0881261" lon="13.3082656"><ele>424.0</ele><time>2026-04-12T15:49:19.051Z</time></trkpt><trkpt lat="43.0882543" lon="13.3085781"><ele>424.0</ele><time>2026-04-12T15:49:20.045Z</time></trkpt><trkpt lat="43.0883819" lon="13.3088906"><ele>423.5</ele><time>2026-04-12T15:49:21.068Z</time></trkpt><trkpt lat="43.0885101" lon="13.3092027"><ele>423.0</ele><time>2026-04-12T15:49:22.05Z</time></trkpt><trkpt lat="43.0886377" lon="13.3095155"><ele>422.0</ele><time>2026-04-12T15:49:23.048Z</time></trkpt><trkpt lat="43.0887656" lon="13.3098286"><ele>421.0</ele><time>2026-04-12T15:49:24.043Z</time></trkpt><trkpt lat="43.088894" lon="13.3101412"><ele>421.0</ele><time>2026-04-12T15:49:25.047Z</time></trkpt><trkpt lat="43.0890222" lon="13.3104547"><ele>421.0</ele><time>2026-04-12T15:49:26.052Z</time></trkpt><trkpt lat="43.0891505" lon="13.310769"><ele>419.5</ele><time>2026-04-12T15:49:27.044Z</time></trkpt><trkpt lat="43.0892798" lon="13.3110822"><ele>418.0</ele><time>2026-04-12T15:49:28.047Z</time></trkpt><trkpt lat="43.0894101" lon="13.3113955"><ele>417.5</ele><time>2026-04-12T15:49:29.044Z</time></trkpt><trkpt lat="43.0895402" lon="13.311709"><ele>417.0</ele><time>2026-04-12T15:49:30.049Z</time></trkpt><trkpt lat="43.08967" lon="13.3120231"><ele>416.5</ele><time>2026-04-12T15:49:31.046Z</time></trkpt><trkpt lat="43.0897993" lon="13.312337"><ele>416.0</ele><time>2026-04-12T15:49:32.047Z</time></trkpt><trkpt lat="43.0899288" lon="13.3126507"><ele>416.0</ele><time>2026-04-12T15:49:33.05Z</time></trkpt><trkpt lat="43.0900581" lon="13.312964"><ele>416.0</ele><time>2026-04-12T15:49:34.048Z</time></trkpt><trkpt lat="43.0901873" lon="13.3132768"><ele>415.5</ele><time>2026-04-12T15:49:35.05Z</time></trkpt><trkpt lat="43.0903155" lon="13.3135892"><ele>415.0</ele><time>2026-04-12T15:49:36.046Z</time></trkpt><trkpt lat="43.0904437" lon="13.3139014"><ele>414.0</ele><time>2026-04-12T15:49:37.048Z</time></trkpt><trkpt lat="43.0905709" lon="13.3142125"><ele>413.0</ele><time>2026-04-12T15:49:38.047Z</time></trkpt><trkpt lat="43.090698" lon="13.3145228"><ele>413.5</ele><time>2026-04-12T15:49:39.047Z</time></trkpt><trkpt lat="43.0908245" lon="13.3148318"><ele>414.0</ele><time>2026-04-12T15:49:40.05Z</time></trkpt><trkpt lat="43.090952" lon="13.3151397"><ele>414.0</ele><time>2026-04-12T15:49:41.053Z</time></trkpt><trkpt lat="43.0910793" lon="13.3154481"><ele>414.0</ele><time>2026-04-12T15:49:42.051Z</time></trkpt><trkpt lat="43.0912071" lon="13.3157564"><ele>413.0</ele><time>2026-04-12T15:49:43.047Z</time></trkpt><trkpt lat="43.0913353" lon="13.3160652"><ele>412.0</ele><time>2026-04-12T15:49:44.049Z</time></trkpt><trkpt lat="43.0914632" lon="13.3163746"><ele>413.0</ele><time>2026-04-12T15:49:45.045Z</time></trkpt><trkpt lat="43.0915909" lon="13.3166838"><ele>414.0</ele><time>2026-04-12T15:49:46.047Z</time></trkpt><trkpt lat="43.0917178" lon="13.3169941"><ele>413.0</ele><time>2026-04-12T15:49:47.044Z</time></trkpt><trkpt lat="43.0918446" lon="13.317305"><ele>412.0</ele><time>2026-04-12T15:49:48.045Z</time></trkpt><trkpt lat="43.0919719" lon="13.3176152"><ele>412.0</ele><time>2026-04-12T15:49:49.045Z</time></trkpt><trkpt lat="43.0920992" lon="13.3179261"><ele>412.0</ele><time>2026-04-12T15:49:50.058Z</time></trkpt><trkpt lat="43.0922258" lon="13.3182378"><ele>411.5</ele><time>2026-04-12T15:49:51.039Z</time></trkpt><trkpt lat="43.09235" lon="13.3185505"><ele>411.0</ele><time>2026-04-12T15:49:52.045Z</time></trkpt><trkpt lat="43.0924728" lon="13.3188645"><ele>410.5</ele><time>2026-04-12T15:49:53.043Z</time></trkpt><trkpt lat="43.0925958" lon="13.3191794"><ele>410.0</ele><time>2026-04-12T15:49:54.044Z</time></trkpt><trkpt lat="43.0927196" lon="13.3194947"><ele>408.5</ele><time>2026-04-12T15:49:55.048Z</time></trkpt><trkpt lat="43.0928454" lon="13.3198105"><ele>407.0</ele><time>2026-04-12T15:49:56.043Z</time></trkpt><trkpt lat="43.0929724" lon="13.3201273"><ele>407.0</ele><time>2026-04-12T15:49:57.05Z</time></trkpt><trkpt lat="43.0931009" lon="13.3204446"><ele>407.0</ele><time>2026-04-12T15:49:58.042Z</time></trkpt><trkpt lat="43.0932315" lon="13.3207618"><ele>404.5</ele><time>2026-04-12T15:49:59.039Z</time></trkpt><trkpt lat="43.0933649" lon="13.3210788"><ele>402.0</ele><time>2026-04-12T15:50:00.044Z</time></trkpt><trkpt lat="43.0935002" lon="13.3213951"><ele>401.5</ele><time>2026-04-12T15:50:01.044Z</time></trkpt><trkpt lat="43.0936373" lon="13.3217107"><ele>401.0</ele><time>2026-04-12T15:50:02.044Z</time></trkpt><trkpt lat="43.0937755" lon="13.3220236"><ele>399.5</ele><time>2026-04-12T15:50:03.049Z</time></trkpt><trkpt lat="43.0939138" lon="13.3223344"><ele>398.0</ele><time>2026-04-12T15:50:04.036Z</time></trkpt><trkpt lat="43.0940513" lon="13.3226431"><ele>399.0</ele><time>2026-04-12T15:50:05.044Z</time></trkpt><trkpt lat="43.0941891" lon="13.3229514"><ele>400.0</ele><time>2026-04-12T15:50:06.042Z</time></trkpt><trkpt lat="43.0943256" lon="13.3232598"><ele>400.0</ele><time>2026-04-12T15:50:07.039Z</time></trkpt><trkpt lat="43.094462" lon="13.3235675"><ele>400.0</ele><time>2026-04-12T15:50:08.042Z</time></trkpt><trkpt lat="43.0946021" lon="13.3238357"><ele>399.5</ele><time>2026-04-12T15:50:09.043Z</time></trkpt><trkpt lat="43.0947424" lon="13.3241242"><ele>399.0</ele><time>2026-04-12T15:50:10.042Z</time></trkpt><trkpt lat="43.0948724" lon="13.3244225"><ele>399.5</ele><time>2026-04-12T15:50:11.066Z</time></trkpt><trkpt lat="43.0949998" lon="13.3247316"><ele>400.0</ele><time>2026-04-12T15:50:12.042Z</time></trkpt><trkpt lat="43.0951112" lon="13.325044"><ele>400.0</ele><time>2026-04-12T15:50:13.046Z</time></trkpt><trkpt lat="43.0952068" lon="13.3253703"><ele>400.0</ele><time>2026-04-12T15:50:14.043Z</time></trkpt><trkpt lat="43.0952914" lon="13.3257072"><ele>399.5</ele><time>2026-04-12T15:50:15.042Z</time></trkpt><trkpt lat="43.0953699" lon="13.3260504"><ele>399.0</ele><time>2026-04-12T15:50:16.042Z</time></trkpt><trkpt lat="43.0954495" lon="13.3263973"><ele>399.0</ele><time>2026-04-12T15:50:17.04Z</time></trkpt><trkpt lat="43.0955333" lon="13.3267428"><ele>399.0</ele><time>2026-04-12T15:50:18.053Z</time></trkpt><trkpt lat="43.0956154" lon="13.3270876"><ele>399.5</ele><time>2026-04-12T15:50:19.04Z</time></trkpt><trkpt lat="43.0956973" lon="13.3274346"><ele>400.0</ele><time>2026-04-12T15:50:20.047Z</time></trkpt><trkpt lat="43.095778" lon="13.3277813"><ele>397.5</ele><time>2026-04-12T15:50:21.04Z</time></trkpt><trkpt lat="43.0958565" lon="13.3281297"><ele>395.0</ele><time>2026-04-12T15:50:22.04Z</time></trkpt><trkpt lat="43.0959371" lon="13.3284766"><ele>395.0</ele><time>2026-04-12T15:50:23.04Z</time></trkpt><trkpt lat="43.0960174" lon="13.3288234"><ele>395.0</ele><time>2026-04-12T15:50:24.041Z</time></trkpt><trkpt lat="43.0960966" lon="13.3291674"><ele>394.0</ele><time>2026-04-12T15:50:25.04Z</time></trkpt><trkpt lat="43.0961774" lon="13.3295103"><ele>393.0</ele><time>2026-04-12T15:50:26.042Z</time></trkpt><trkpt lat="43.0962557" lon="13.3298519"><ele>393.0</ele><time>2026-04-12T15:50:27.045Z</time></trkpt><trkpt lat="43.0963323" lon="13.3301915"><ele>393.0</ele><time>2026-04-12T15:50:28.039Z</time></trkpt><trkpt lat="43.0964089" lon="13.3305299"><ele>394.0</ele><time>2026-04-12T15:50:29.036Z</time></trkpt><trkpt lat="43.0964857" lon="13.3308658"><ele>395.0</ele><time>2026-04-12T15:50:30.047Z</time></trkpt><trkpt lat="43.0965618" lon="13.3312025"><ele>393.5</ele><time>2026-04-12T15:50:31.038Z</time></trkpt><trkpt lat="43.0966362" lon="13.3315387"><ele>392.0</ele><time>2026-04-12T15:50:32.043Z</time></trkpt><trkpt lat="43.0967118" lon="13.3318748"><ele>392.0</ele><time>2026-04-12T15:50:33.034Z</time></trkpt><trkpt lat="43.0967875" lon="13.3322117"><ele>392.0</ele><time>2026-04-12T15:50:34.04Z</time></trkpt><trkpt lat="43.096865" lon="13.3325483"><ele>391.0</ele><time>2026-04-12T15:50:35.043Z</time></trkpt><trkpt lat="43.0969549" lon="13.3328787"><ele>390.0</ele><time>2026-04-12T15:50:36.039Z</time></trkpt><trkpt lat="43.0970683" lon="13.3331962"><ele>389.0</ele><time>2026-04-12T15:50:37.043Z</time></trkpt><trkpt lat="43.0972087" lon="13.3334861"><ele>388.0</ele><time>2026-04-12T15:50:38.037Z</time></trkpt><trkpt lat="43.0973686" lon="13.3337398"><ele>390.0</ele><time>2026-04-12T15:50:39.044Z</time></trkpt><trkpt lat="43.097525" lon="13.3339731"><ele>392.0</ele><time>2026-04-12T15:50:40.04Z</time></trkpt><trkpt lat="43.0976506" lon="13.3342313"><ele>392.0</ele><time>2026-04-12T15:50:41.041Z</time></trkpt><trkpt lat="43.0977307" lon="13.3345304"><ele>392.0</ele><time>2026-04-12T15:50:42.034Z</time></trkpt><trkpt lat="43.0977673" lon="13.3348584"><ele>390.0</ele><time>2026-04-12T15:50:43.041Z</time></trkpt><trkpt lat="43.0977667" lon="13.3352016"><ele>388.0</ele><time>2026-04-12T15:50:44.041Z</time></trkpt><trkpt lat="43.0977719" lon="13.3355295"><ele>388.0</ele><time>2026-04-12T15:50:45.041Z</time></trkpt><trkpt lat="43.0977702" lon="13.3358796"><ele>388.0</ele><time>2026-04-12T15:50:46.043Z</time></trkpt><trkpt lat="43.0978042" lon="13.336228"><ele>387.0</ele><time>2026-04-12T15:50:47.051Z</time></trkpt><trkpt lat="43.0978672" lon="13.3365648"><ele>386.0</ele><time>2026-04-12T15:50:48.041Z</time></trkpt><trkpt lat="43.0979798" lon="13.3368879"><ele>386.0</ele><time>2026-04-12T15:50:49.046Z</time></trkpt><trkpt lat="43.0981222" lon="13.3371895"><ele>386.0</ele><time>2026-04-12T15:50:50.04Z</time></trkpt><trkpt lat="43.0982727" lon="13.3374822"><ele>386.5</ele><time>2026-04-12T15:50:51.044Z</time></trkpt><trkpt lat="43.0984002" lon="13.3377898"><ele>387.0</ele><time>2026-04-12T15:50:52.042Z</time></trkpt><trkpt lat="43.0984997" lon="13.338116"><ele>387.0</ele><time>2026-04-12T15:50:53.042Z</time></trkpt><trkpt lat="43.0985712" lon="13.3384579"><ele>387.0</ele><time>2026-04-12T15:50:54.039Z</time></trkpt><trkpt lat="43.0986133" lon="13.3388093"><ele>385.5</ele><time>2026-04-12T15:50:55.042Z</time></trkpt><trkpt lat="43.0986247" lon="13.339167"><ele>384.0</ele><time>2026-04-12T15:50:56.04Z</time></trkpt><trkpt lat="43.0986187" lon="13.3395274"><ele>384.0</ele><time>2026-04-12T15:50:57.032Z</time></trkpt><trkpt lat="43.0986097" lon="13.339887"><ele>384.0</ele><time>2026-04-12T15:50:58.045Z</time></trkpt><trkpt lat="43.0986114" lon="13.3402474"><ele>383.5</ele><time>2026-04-12T15:50:59.039Z</time></trkpt><trkpt lat="43.0986401" lon="13.3406042"><ele>383.0</ele><time>2026-04-12T15:51:00.039Z</time></trkpt><trkpt lat="43.0986966" lon="13.3409549"><ele>383.0</ele><time>2026-04-12T15:51:01.04Z</time></trkpt><trkpt lat="43.0987648" lon="13.3412991"><ele>383.0</ele><time>2026-04-12T15:51:02.041Z</time></trkpt><trkpt lat="43.0988344" lon="13.3416432"><ele>383.5</ele><time>2026-04-12T15:51:03.043Z</time></trkpt><trkpt lat="43.0989013" lon="13.3419802"><ele>384.0</ele><time>2026-04-12T15:51:04.046Z</time></trkpt><trkpt lat="43.0989641" lon="13.3422956"><ele>384.0</ele><time>2026-04-12T15:51:05.046Z</time></trkpt><trkpt lat="43.0990264" lon="13.3425878"><ele>384.0</ele><time>2026-04-12T15:51:06.05Z</time></trkpt><trkpt lat="43.0991023" lon="13.3428627"><ele>384.0</ele><time>2026-04-12T15:51:07.043Z</time></trkpt><trkpt lat="43.0992128" lon="13.3431127"><ele>383.3333333333333</ele><time>2026-04-12T15:51:08.053Z</time></trkpt><trkpt lat="43.0993669" lon="13.343322"><ele>382.66666666666663</ele><time>2026-04-12T15:51:09.045Z</time></trkpt><trkpt lat="43.0995584" lon="13.3434918"><ele>382.0</ele><time>2026-04-12T15:51:10.04Z</time></trkpt><trkpt lat="43.0997716" lon="13.3436345"><ele>382.0</ele><time>2026-04-12T15:51:11.04Z</time></trkpt><trkpt lat="43.09999" lon="13.3437738"><ele>382.0</ele><time>2026-04-12T15:51:12.044Z</time></trkpt><trkpt lat="43.1001959" lon="13.343915"><ele>382.0</ele><time>2026-04-12T15:51:13.044Z</time></trkpt><trkpt lat="43.1003572" lon="13.3441418"><ele>382.0</ele><time>2026-04-12T15:51:14.042Z</time></trkpt><trkpt lat="43.1004758" lon="13.3444184"><ele>379.0</ele><time>2026-04-12T15:51:15.043Z</time></trkpt><trkpt lat="43.1005679" lon="13.3447335"><ele>376.0</ele><time>2026-04-12T15:51:16.046Z</time></trkpt><trkpt lat="43.1006613" lon="13.3450568"><ele>378.0</ele><time>2026-04-12T15:51:17.034Z</time></trkpt><trkpt lat="43.1007549" lon="13.3453872"><ele>380.0</ele><time>2026-04-12T15:51:18.048Z</time></trkpt><trkpt lat="43.1008593" lon="13.345718"><ele>380.0</ele><time>2026-04-12T15:51:19.045Z</time></trkpt><trkpt lat="43.100968" lon="13.3460426"><ele>380.0</ele><time>2026-04-12T15:51:20.043Z</time></trkpt><trkpt lat="43.1011114" lon="13.3463524"><ele>376.0</ele><time>2026-04-12T15:51:21.043Z</time></trkpt><trkpt lat="43.1012577" lon="13.3466517"><ele>372.0</ele><time>2026-04-12T15:51:22.044Z</time></trkpt><trkpt lat="43.1014078" lon="13.3469534"><ele>371.5</ele><time>2026-04-12T15:51:23.041Z</time></trkpt><trkpt lat="43.1015538" lon="13.3472584"><ele>371.0</ele><time>2026-04-12T15:51:24.045Z</time></trkpt><trkpt lat="43.1016988" lon="13.3475655"><ele>371.0</ele><time>2026-04-12T15:51:25.043Z</time></trkpt><trkpt lat="43.1018417" lon="13.3478754"><ele>371.0</ele><time>2026-04-12T15:51:26.043Z</time></trkpt><trkpt lat="43.1019804" lon="13.3481831"><ele>371.0</ele><time>2026-04-12T15:51:27.05Z</time></trkpt><trkpt lat="43.1021103" lon="13.3484989"><ele>371.0</ele><time>2026-04-12T15:51:28.041Z</time></trkpt><trkpt lat="43.1022295" lon="13.3488259"><ele>371.0</ele><time>2026-04-12T15:51:29.051Z</time></trkpt><trkpt lat="43.1023402" lon="13.3491566"><ele>371.0</ele><time>2026-04-12T15:51:30.042Z</time></trkpt><trkpt lat="43.1024444" lon="13.3494916"><ele>372.0</ele><time>2026-04-12T15:51:31.041Z</time></trkpt><trkpt lat="43.1025491" lon="13.349828"><ele>373.0</ele><time>2026-04-12T15:51:32.046Z</time></trkpt><trkpt lat="43.1026546" lon="13.3501622"><ele>373.0</ele><time>2026-04-12T15:51:33.045Z</time></trkpt><trkpt lat="43.1027596" lon="13.3504983"><ele>373.0</ele><time>2026-04-12T15:51:34.052Z</time></trkpt><trkpt lat="43.1028636" lon="13.3508338"><ele>372.5</ele><time>2026-04-12T15:51:35.04Z</time></trkpt><trkpt lat="43.1029679" lon="13.3511727"><ele>372.0</ele><time>2026-04-12T15:51:36.061Z</time></trkpt><trkpt lat="43.1030787" lon="13.3515051"><ele>371.0</ele><time>2026-04-12T15:51:37.05Z</time></trkpt><trkpt lat="43.1031989" lon="13.3518311"><ele>370.0</ele><time>2026-04-12T15:51:38.039Z</time></trkpt><trkpt lat="43.103332" lon="13.352147"><ele>371.5</ele><time>2026-04-12T15:51:39.041Z</time></trkpt><trkpt lat="43.1034739" lon="13.3524574"><ele>373.0</ele><time>2026-04-12T15:51:40.045Z</time></trkpt><trkpt lat="43.1036169" lon="13.3527669"><ele>371.5</ele><time>2026-04-12T15:51:41.038Z</time></trkpt><trkpt lat="43.1037494" lon="13.3530849"><ele>370.0</ele><time>2026-04-12T15:51:42.056Z</time></trkpt><trkpt lat="43.103868" lon="13.3534148"><ele>370.0</ele><time>2026-04-12T15:51:43.037Z</time></trkpt><trkpt lat="43.1039738" lon="13.3537523"><ele>370.0</ele><time>2026-04-12T15:51:44.039Z</time></trkpt><trkpt lat="43.1040729" lon="13.3540954"><ele>371.5</ele><time>2026-04-12T15:51:45.042Z</time></trkpt><trkpt lat="43.10417" lon="13.3544399"><ele>373.0</ele><time>2026-04-12T15:51:46.04Z</time></trkpt><trkpt lat="43.1042674" lon="13.3547837"><ele>370.0</ele><time>2026-04-12T15:51:47.047Z</time></trkpt><trkpt lat="43.1043637" lon="13.3551285"><ele>367.0</ele><time>2026-04-12T15:51:48.041Z</time></trkpt><trkpt lat="43.1044558" lon="13.3554752"><ele>365.0</ele><time>2026-04-12T15:51:49.048Z</time></trkpt><trkpt lat="43.1045345" lon="13.3558233"><ele>363.0</ele><time>2026-04-12T15:51:50.046Z</time></trkpt><trkpt lat="43.1045921" lon="13.3561716"><ele>362.0</ele><time>2026-04-12T15:51:51.043Z</time></trkpt><trkpt lat="43.1046269" lon="13.3565166"><ele>361.0</ele><time>2026-04-12T15:51:52.041Z</time></trkpt><trkpt lat="43.1046447" lon="13.3568546"><ele>361.0</ele><time>2026-04-12T15:51:53.046Z</time></trkpt><trkpt lat="43.104657" lon="13.3571871"><ele>361.0</ele><time>2026-04-12T15:51:54.043Z</time></trkpt><trkpt lat="43.1046815" lon="13.3575135"><ele>361.0</ele><time>2026-04-12T15:51:55.041Z</time></trkpt><trkpt lat="43.1047342" lon="13.357831"><ele>361.0</ele><time>2026-04-12T15:51:56.042Z</time></trkpt><trkpt lat="43.1048187" lon="13.3581434"><ele>363.0</ele><time>2026-04-12T15:51:57.046Z</time></trkpt><trkpt lat="43.1049246" lon="13.3584522"><ele>365.0</ele><time>2026-04-12T15:51:58.042Z</time></trkpt><trkpt lat="43.1050409" lon="13.3587619"><ele>363.5</ele><time>2026-04-12T15:51:59.076Z</time></trkpt><trkpt lat="43.1051587" lon="13.3590744"><ele>362.0</ele><time>2026-04-12T15:52:00.048Z</time></trkpt><trkpt lat="43.1052749" lon="13.3593891"><ele>360.5</ele><time>2026-04-12T15:52:01.04Z</time></trkpt><trkpt lat="43.1053926" lon="13.359701"><ele>359.0</ele><time>2026-04-12T15:52:02.049Z</time></trkpt><trkpt lat="43.1055192" lon="13.3600036"><ele>359.0</ele><time>2026-04-12T15:52:03.047Z</time></trkpt><trkpt lat="43.1056686" lon="13.3602859"><ele>359.0</ele><time>2026-04-12T15:52:04.048Z</time></trkpt><trkpt lat="43.1058397" lon="13.3605474"><ele>358.5</ele><time>2026-04-12T15:52:05.048Z</time></trkpt><trkpt lat="43.1060238" lon="13.3607952"><ele>358.0</ele><time>2026-04-12T15:52:06.043Z</time></trkpt><trkpt lat="43.1062124" lon="13.3610353"><ele>358.0</ele><time>2026-04-12T15:52:07.05Z</time></trkpt><trkpt lat="43.1064005" lon="13.3612738"><ele>358.0</ele><time>2026-04-12T15:52:08.05Z</time></trkpt><trkpt lat="43.1065859" lon="13.3615123"><ele>358.0</ele><time>2026-04-12T15:52:09.046Z</time></trkpt><trkpt lat="43.1067711" lon="13.3617497"><ele>358.0</ele><time>2026-04-12T15:52:10.045Z</time></trkpt><trkpt lat="43.1069571" lon="13.3619856"><ele>356.5</ele><time>2026-04-12T15:52:11.046Z</time></trkpt><trkpt lat="43.1071408" lon="13.362219"><ele>355.0</ele><time>2026-04-12T15:52:12.046Z</time></trkpt><trkpt lat="43.1073174" lon="13.362445"><ele>354.5</ele><time>2026-04-12T15:52:13.045Z</time></trkpt><trkpt lat="43.1074886" lon="13.3626627"><ele>354.0</ele><time>2026-04-12T15:52:14.043Z</time></trkpt><trkpt lat="43.1076523" lon="13.3628681"><ele>353.6666666666667</ele><time>2026-04-12T15:52:15.044Z</time></trkpt><trkpt lat="43.1078163" lon="13.3630729"><ele>353.33333333333337</ele><time>2026-04-12T15:52:16.045Z</time></trkpt><trkpt lat="43.1079839" lon="13.3632829"><ele>353.0</ele><time>2026-04-12T15:52:17.043Z</time></trkpt><trkpt lat="43.1081527" lon="13.3634955"><ele>353.33333333333337</ele><time>2026-04-12T15:52:18.042Z</time></trkpt><trkpt lat="43.1083169" lon="13.3637034"><ele>353.6666666666667</ele><time>2026-04-12T15:52:19.044Z</time></trkpt><trkpt lat="43.1084725" lon="13.3639019"><ele>354.0</ele><time>2026-04-12T15:52:20.045Z</time></trkpt><trkpt lat="43.108618" lon="13.3640895"><ele>353.3333333333333</ele><time>2026-04-12T15:52:21.047Z</time></trkpt><trkpt lat="43.1087607" lon="13.3642733"><ele>352.66666666666663</ele><time>2026-04-12T15:52:22.042Z</time></trkpt><trkpt lat="43.1089066" lon="13.3644606"><ele>352.0</ele><time>2026-04-12T15:52:23.047Z</time></trkpt><trkpt lat="43.1090577" lon="13.3646555"><ele>351.66666666666663</ele><time>2026-04-12T15:52:24.048Z</time></trkpt><trkpt lat="43.1092166" lon="13.3648595"><ele>351.3333333333333</ele><time>2026-04-12T15:52:25.043Z</time></trkpt><trkpt lat="43.1093825" lon="13.3650693"><ele>351.0</ele><time>2026-04-12T15:52:26.053Z</time></trkpt><trkpt lat="43.1095581" lon="13.3652842"><ele>351.0</ele><time>2026-04-12T15:52:27.047Z</time></trkpt><trkpt lat="43.1097432" lon="13.3655057"><ele>351.0</ele><time>2026-04-12T15:52:28.045Z</time></trkpt><trkpt lat="43.1099336" lon="13.3657378"><ele>350.5</ele><time>2026-04-12T15:52:29.045Z</time></trkpt><trkpt lat="43.1101294" lon="13.3659833"><ele>350.0</ele><time>2026-04-12T15:52:30.046Z</time></trkpt><trkpt lat="43.1103307" lon="13.3662442"><ele>349.5</ele><time>2026-04-12T15:52:31.045Z</time></trkpt><trkpt lat="43.1105361" lon="13.3665194"><ele>349.0</ele><time>2026-04-12T15:52:32.041Z</time></trkpt><trkpt lat="43.1107437" lon="13.3667967"><ele>349.0</ele><time>2026-04-12T15:52:33.042Z</time></trkpt><trkpt lat="43.1109431" lon="13.3670567"><ele>349.0</ele><time>2026-04-12T15:52:34.045Z</time></trkpt><trkpt lat="43.1111316" lon="13.3672991"><ele>347.5</ele><time>2026-04-12T15:52:35.048Z</time></trkpt><trkpt lat="43.1113118" lon="13.367531"><ele>346.0</ele><time>2026-04-12T15:52:36.045Z</time></trkpt><trkpt lat="43.1114873" lon="13.367756"><ele>346.0</ele><time>2026-04-12T15:52:37.048Z</time></trkpt><trkpt lat="43.1116606" lon="13.3679766"><ele>346.0</ele><time>2026-04-12T15:52:38.042Z</time></trkpt><trkpt lat="43.1118328" lon="13.3681968"><ele>346.0</ele><time>2026-04-12T15:52:39.041Z</time></trkpt><trkpt lat="43.1120036" lon="13.3684164"><ele>346.0</ele><time>2026-04-12T15:52:40.052Z</time></trkpt><trkpt lat="43.1121751" lon="13.3686349"><ele>346.0</ele><time>2026-04-12T15:52:41.042Z</time></trkpt><trkpt lat="43.112348" lon="13.3688535"><ele>346.0</ele><time>2026-04-12T15:52:42.043Z</time></trkpt><trkpt lat="43.1125215" lon="13.3690733"><ele>345.5</ele><time>2026-04-12T15:52:43.042Z</time></trkpt><trkpt lat="43.1126954" lon="13.3692938"><ele>345.0</ele><time>2026-04-12T15:52:44.043Z</time></trkpt><trkpt lat="43.1128711" lon="13.3695125"><ele>344.5</ele><time>2026-04-12T15:52:45.042Z</time></trkpt><trkpt lat="43.1130512" lon="13.369721"><ele>344.0</ele><time>2026-04-12T15:52:46.043Z</time></trkpt><trkpt lat="43.1132391" lon="13.3699077"><ele>344.0</ele><time>2026-04-12T15:52:47.044Z</time></trkpt><trkpt lat="43.1134293" lon="13.3700882"><ele>344.0</ele><time>2026-04-12T15:52:48.059Z</time></trkpt><trkpt lat="43.1136255" lon="13.3702562"><ele>344.0</ele><time>2026-04-12T15:52:49.046Z</time></trkpt><trkpt lat="43.113817" lon="13.3704018"><ele>344.0</ele><time>2026-04-12T15:52:50.049Z</time></trkpt><trkpt lat="43.1140042" lon="13.3705477"><ele>344.0</ele><time>2026-04-12T15:52:51.049Z</time></trkpt><trkpt lat="43.1141747" lon="13.3706846"><ele>343.6666666666667</ele><time>2026-04-12T15:52:52.043Z</time></trkpt><trkpt lat="43.1143285" lon="13.3708077"><ele>343.3333333333333</ele><time>2026-04-12T15:52:53.042Z</time></trkpt><trkpt lat="43.1144697" lon="13.3709176"><ele>343.0</ele><time>2026-04-12T15:52:54.044Z</time></trkpt><trkpt lat="43.1145963" lon="13.3710186"><ele>343.0</ele><time>2026-04-12T15:52:55.044Z</time></trkpt><trkpt lat="43.114705" lon="13.3711084"><ele>343.0</ele><time>2026-04-12T15:52:56.047Z</time></trkpt><trkpt lat="43.1148002" lon="13.3711836"><ele>343.0</ele><time>2026-04-12T15:52:57.048Z</time></trkpt><trkpt lat="43.1148715" lon="13.3712476"><ele>343.0</ele><time>2026-04-12T15:52:58.043Z</time></trkpt><trkpt lat="43.1149267" lon="13.371295"><ele>343.0</ele><time>2026-04-12T15:52:59.044Z</time></trkpt><trkpt lat="43.115023" lon="13.3713714"><ele>342.4</ele><time>2026-04-12T15:53:33.05Z</time></trkpt><trkpt lat="43.1150968" lon="13.371461"><ele>341.79999999999995</ele><time>2026-04-12T15:53:35.041Z</time></trkpt><trkpt lat="43.1150511" lon="13.371603"><ele>341.2</ele><time>2026-04-12T15:53:37.045Z</time></trkpt><trkpt lat="43.1149965" lon="13.3717027"><ele>340.6</ele><time>2026-04-12T15:53:38.044Z</time></trkpt><trkpt lat="43.1149435" lon="13.3718013"><ele>340.0</ele><time>2026-04-12T15:53:39.041Z</time></trkpt><trkpt lat="43.114866" lon="13.3719359"><ele>339.3333333333333</ele><time>2026-04-12T15:53:40.043Z</time></trkpt><trkpt lat="43.1147738" lon="13.3720953"><ele>338.6666666666667</ele><time>2026-04-12T15:53:41.043Z</time></trkpt><trkpt lat="43.1146665" lon="13.3722859"><ele>338.0</ele><time>2026-04-12T15:53:42.044Z</time></trkpt><trkpt lat="43.1145518" lon="13.3724904"><ele>336.0</ele><time>2026-04-12T15:53:43.042Z</time></trkpt><trkpt lat="43.11443" lon="13.3727101"><ele>334.0</ele><time>2026-04-12T15:53:44.05Z</time></trkpt><trkpt lat="43.114303" lon="13.3729368"><ele>332.0</ele><time>2026-04-12T15:53:45.047Z</time></trkpt><trkpt lat="43.1141683" lon="13.3731754"><ele>328.5</ele><time>2026-04-12T15:53:46.046Z</time></trkpt><trkpt lat="43.1140326" lon="13.3734212"><ele>325.0</ele><time>2026-04-12T15:53:47.05Z</time></trkpt><trkpt lat="43.1138967" lon="13.3736707"><ele>326.0</ele><time>2026-04-12T15:53:48.048Z</time></trkpt><trkpt lat="43.113756" lon="13.3739185"><ele>327.0</ele><time>2026-04-12T15:53:49.047Z</time></trkpt><trkpt lat="43.113614" lon="13.3741688"><ele>327.0</ele><time>2026-04-12T15:53:50.05Z</time></trkpt><trkpt lat="43.113473" lon="13.3744199"><ele>327.0</ele><time>2026-04-12T15:53:51.048Z</time></trkpt><trkpt lat="43.1133305" lon="13.3746708"><ele>328.5</ele><time>2026-04-12T15:53:52.043Z</time></trkpt><trkpt lat="43.1131898" lon="13.3749206"><ele>330.0</ele><time>2026-04-12T15:53:53.048Z</time></trkpt><trkpt lat="43.11305" lon="13.3751674"><ele>330.0</ele><time>2026-04-12T15:53:54.047Z</time></trkpt><trkpt lat="43.1129097" lon="13.3754099"><ele>330.0</ele><time>2026-04-12T15:53:55.051Z</time></trkpt><trkpt lat="43.112771" lon="13.3756525"><ele>331.0</ele><time>2026-04-12T15:53:56.053Z</time></trkpt><trkpt lat="43.1126359" lon="13.375894"><ele>332.0</ele><time>2026-04-12T15:53:57.048Z</time></trkpt><trkpt lat="43.1125011" lon="13.3761364"><ele>333.0</ele><time>2026-04-12T15:53:58.048Z</time></trkpt><trkpt lat="43.1123669" lon="13.3763807"><ele>337.0</ele><time>2026-04-12T15:53:59.046Z</time></trkpt><trkpt lat="43.1122308" lon="13.3766272"><ele>341.0</ele><time>2026-04-12T15:54:00.047Z</time></trkpt><trkpt lat="43.1120941" lon="13.376872"><ele>341.0</ele><time>2026-04-12T15:54:01.047Z</time></trkpt><trkpt lat="43.1119579" lon="13.3771164"><ele>341.0</ele><time>2026-04-12T15:54:02.05Z</time></trkpt><trkpt lat="43.1118227" lon="13.3773594"><ele>341.0</ele><time>2026-04-12T15:54:03.051Z</time></trkpt><trkpt lat="43.1116962" lon="13.3775881"><ele>341.33333333333337</ele><time>2026-04-12T15:54:04.046Z</time></trkpt><trkpt lat="43.1115834" lon="13.3777999"><ele>341.6666666666667</ele><time>2026-04-12T15:54:05.049Z</time></trkpt><trkpt lat="43.1114756" lon="13.3779875"><ele>342.0</ele><time>2026-04-12T15:54:06.044Z</time></trkpt><trkpt lat="43.1113542" lon="13.3781224"><ele>345.3333333333333</ele><time>2026-04-12T15:54:07.041Z</time></trkpt><trkpt lat="43.1112135" lon="13.3781745"><ele>348.66666666666663</ele><time>2026-04-12T15:54:08.044Z</time></trkpt><trkpt lat="43.1110652" lon="13.3781357"><ele>352.0</ele><time>2026-04-12T15:54:09.045Z</time></trkpt><trkpt lat="43.1109183" lon="13.378031"><ele>352.66666666666663</ele><time>2026-04-12T15:54:10.045Z</time></trkpt><trkpt lat="43.1107675" lon="13.3778962"><ele>353.3333333333333</ele><time>2026-04-12T15:54:11.041Z</time></trkpt><trkpt lat="43.1106074" lon="13.3777547"><ele>354.0</ele><time>2026-04-12T15:54:12.041Z</time></trkpt><trkpt lat="43.1104437" lon="13.3776075"><ele>354.0</ele><time>2026-04-12T15:54:13.046Z</time></trkpt><trkpt lat="43.1102883" lon="13.3774732"><ele>354.0</ele><time>2026-04-12T15:54:14.046Z</time></trkpt><trkpt lat="43.1101359" lon="13.3773828"><ele>354.0</ele><time>2026-04-12T15:54:15.049Z</time></trkpt><trkpt lat="43.1099687" lon="13.377362"><ele>354.3333333333333</ele><time>2026-04-12T15:54:16.044Z</time></trkpt><trkpt lat="43.1097881" lon="13.3774031"><ele>354.66666666666663</ele><time>2026-04-12T15:54:17.043Z</time></trkpt><trkpt lat="43.1096023" lon="13.3774869"><ele>355.0</ele><time>2026-04-12T15:54:18.043Z</time></trkpt><trkpt lat="43.109423" lon="13.3776191"><ele>355.0</ele><time>2026-04-12T15:54:19.05Z</time></trkpt><trkpt lat="43.1092581" lon="13.3777902"><ele>355.0</ele><time>2026-04-12T15:54:20.043Z</time></trkpt><trkpt lat="43.1091129" lon="13.3779998"><ele>355.0</ele><time>2026-04-12T15:54:21.052Z</time></trkpt><trkpt lat="43.1089954" lon="13.3782492"><ele>355.5</ele><time>2026-04-12T15:54:22.05Z</time></trkpt><trkpt lat="43.1089103" lon="13.3785331"><ele>356.0</ele><time>2026-04-12T15:54:23.047Z</time></trkpt><trkpt lat="43.1088421" lon="13.3788315"><ele>358.5</ele><time>2026-04-12T15:54:24.043Z</time></trkpt><trkpt lat="43.1087728" lon="13.3791328"><ele>361.0</ele><time>2026-04-12T15:54:25.051Z</time></trkpt><trkpt lat="43.1087054" lon="13.3794343"><ele>364.0</ele><time>2026-04-12T15:54:26.049Z</time></trkpt><trkpt lat="43.1086551" lon="13.379735"><ele>367.0</ele><time>2026-04-12T15:54:27.046Z</time></trkpt><trkpt lat="43.108628" lon="13.3800336"><ele>370.0</ele><time>2026-04-12T15:54:28.052Z</time></trkpt><trkpt lat="43.1086164" lon="13.3803134"><ele>373.0</ele><time>2026-04-12T15:54:29.045Z</time></trkpt><trkpt lat="43.1086041" lon="13.3805604"><ele>376.0</ele><time>2026-04-12T15:54:30.047Z</time></trkpt><trkpt lat="43.1085902" lon="13.3807799"><ele>379.0</ele><time>2026-04-12T15:54:31.04Z</time></trkpt><trkpt lat="43.1085494" lon="13.3809566"><ele>379.0</ele><time>2026-04-12T15:54:32.046Z</time></trkpt><trkpt lat="43.1084723" lon="13.381075"><ele>379.0</ele><time>2026-04-12T15:54:33.041Z</time></trkpt><trkpt lat="43.1083742" lon="13.3811087"><ele>379.0</ele><time>2026-04-12T15:54:34.041Z</time></trkpt><trkpt lat="43.1082689" lon="13.3811147"><ele>379.0</ele><time>2026-04-12T15:54:35.04Z</time></trkpt><trkpt lat="43.1081795" lon="13.3809548"><ele>378.75</ele><time>2026-04-12T15:54:36.039Z</time></trkpt><trkpt lat="43.1080868" lon="13.3807745"><ele>378.5</ele><time>2026-04-12T15:54:37.044Z</time></trkpt><trkpt lat="43.1079809" lon="13.380673"><ele>378.25</ele><time>2026-04-12T15:54:38.044Z</time></trkpt><trkpt lat="43.1078634" lon="13.3806429"><ele>378.0</ele><time>2026-04-12T15:54:39.045Z</time></trkpt><trkpt lat="43.1077581" lon="13.3807179"><ele>378.0</ele><time>2026-04-12T15:54:40.041Z</time></trkpt><trkpt lat="43.1076623" lon="13.3808469"><ele>378.0</ele><time>2026-04-12T15:54:41.046Z</time></trkpt><trkpt lat="43.1075776" lon="13.3810321"><ele>378.0</ele><time>2026-04-12T15:54:42.042Z</time></trkpt><trkpt lat="43.1074955" lon="13.3812493"><ele>380.66666666666663</ele><time>2026-04-12T15:54:43.044Z</time></trkpt><trkpt lat="43.1074072" lon="13.3814858"><ele>383.3333333333333</ele><time>2026-04-12T15:54:44.037Z</time></trkpt><trkpt lat="43.1073159" lon="13.3817357"><ele>386.0</ele><time>2026-04-12T15:54:45.049Z</time></trkpt><trkpt lat="43.1072247" lon="13.3819745"><ele>386.0</ele><time>2026-04-12T15:54:46.042Z</time></trkpt><trkpt lat="43.1071115" lon="13.3821531"><ele>386.0</ele><time>2026-04-12T15:54:47.039Z</time></trkpt><trkpt lat="43.1069755" lon="13.3822456"><ele>386.0</ele><time>2026-04-12T15:54:48.037Z</time></trkpt><trkpt lat="43.106828" lon="13.3822483"><ele>386.0</ele><time>2026-04-12T15:54:49.038Z</time></trkpt><trkpt lat="43.1066836" lon="13.3821813"><ele>386.0</ele><time>2026-04-12T15:54:50.046Z</time></trkpt><trkpt lat="43.1065518" lon="13.3821302"><ele>386.0</ele><time>2026-04-12T15:54:51.05Z</time></trkpt><trkpt lat="43.1064171" lon="13.3821523"><ele>386.0</ele><time>2026-04-12T15:54:52.046Z</time></trkpt><trkpt lat="43.1062982" lon="13.3822648"><ele>389.66666666666663</ele><time>2026-04-12T15:54:53.047Z</time></trkpt><trkpt lat="43.1062049" lon="13.3823916"><ele>393.33333333333337</ele><time>2026-04-12T15:54:54.042Z</time></trkpt><trkpt lat="43.1060885" lon="13.3825958"><ele>397.0</ele><time>2026-04-12T15:54:55.049Z</time></trkpt><trkpt lat="43.1059215" lon="13.3827531"><ele>400.33333333333337</ele><time>2026-04-12T15:54:56.039Z</time></trkpt><trkpt lat="43.1057233" lon="13.3828724"><ele>403.66666666666663</ele><time>2026-04-12T15:54:57.044Z</time></trkpt><trkpt lat="43.1055162" lon="13.3830026"><ele>407.0</ele><time>2026-04-12T15:54:58.044Z</time></trkpt><trkpt lat="43.1053076" lon="13.3831551"><ele>407.0</ele><time>2026-04-12T15:54:59.038Z</time></trkpt><trkpt lat="43.1050874" lon="13.3833202"><ele>407.0</ele><time>2026-04-12T15:55:00.061Z</time></trkpt><trkpt lat="43.1048576" lon="13.3834487"><ele>406.0</ele><time>2026-04-12T15:55:01.05Z</time></trkpt><trkpt lat="43.104637" lon="13.3835405"><ele>405.0</ele><time>2026-04-12T15:55:02.052Z</time></trkpt><trkpt lat="43.1044122" lon="13.3835907"><ele>405.0</ele><time>2026-04-12T15:55:03.042Z</time></trkpt><trkpt lat="43.1041831" lon="13.3835962"><ele>405.0</ele><time>2026-04-12T15:55:04.046Z</time></trkpt><trkpt lat="43.1039693" lon="13.3836107"><ele>405.0</ele><time>2026-04-12T15:55:05.052Z</time></trkpt><trkpt lat="43.103779" lon="13.3836383"><ele>404.75</ele><time>2026-04-12T15:55:06.05Z</time></trkpt><trkpt lat="43.1036274" lon="13.3836993"><ele>404.5</ele><time>2026-04-12T15:55:07.047Z</time></trkpt><trkpt lat="43.1035216" lon="13.3838282"><ele>404.25</ele><time>2026-04-12T15:55:08.04Z</time></trkpt><trkpt lat="43.1034361" lon="13.3839535"><ele>404.0</ele><time>2026-04-12T15:55:09.04Z</time></trkpt><trkpt lat="43.1034441" lon="13.3841909"><ele>408.3333333333333</ele><time>2026-04-12T15:55:10.043Z</time></trkpt><trkpt lat="43.1034392" lon="13.3844691"><ele>412.66666666666663</ele><time>2026-04-12T15:55:11.041Z</time></trkpt><trkpt lat="43.1033546" lon="13.3847019"><ele>417.0</ele><time>2026-04-12T15:55:12.051Z</time></trkpt><trkpt lat="43.1032235" lon="13.3848871"><ele>419.66666666666663</ele><time>2026-04-12T15:55:13.04Z</time></trkpt><trkpt lat="43.103097" lon="13.3850324"><ele>422.3333333333333</ele><time>2026-04-12T15:55:14.047Z</time></trkpt><trkpt lat="43.1030012" lon="13.3852148"><ele>425.0</ele><time>2026-04-12T15:55:15.049Z</time></trkpt><trkpt lat="43.1029663" lon="13.385446"><ele>428.0</ele><time>2026-04-12T15:55:16.039Z</time></trkpt><trkpt lat="43.1029799" lon="13.3856978"><ele>431.0</ele><time>2026-04-12T15:55:17.049Z</time></trkpt><trkpt lat="43.1029966" lon="13.3859396"><ele>434.0</ele><time>2026-04-12T15:55:18.044Z</time></trkpt><trkpt lat="43.1030033" lon="13.3861671"><ele>434.25</ele><time>2026-04-12T15:55:19.04Z</time></trkpt><trkpt lat="43.1029661" lon="13.3863619"><ele>434.5</ele><time>2026-04-12T15:55:20.045Z</time></trkpt><trkpt lat="43.1028664" lon="13.3864903"><ele>434.75</ele><time>2026-04-12T15:55:21.047Z</time></trkpt><trkpt lat="43.1027243" lon="13.3865425"><ele>435.0</ele><time>2026-04-12T15:55:22.039Z</time></trkpt><trkpt lat="43.1025569" lon="13.3865336"><ele>438.33333333333337</ele><time>2026-04-12T15:55:23.054Z</time></trkpt><trkpt lat="43.1023701" lon="13.3865116"><ele>441.6666666666667</ele><time>2026-04-12T15:55:24.042Z</time></trkpt><trkpt lat="43.1021737" lon="13.3864867"><ele>445.0</ele><time>2026-04-12T15:55:25.047Z</time></trkpt><trkpt lat="43.1019726" lon="13.3864635"><ele>445.0</ele><time>2026-04-12T15:55:26.05Z</time></trkpt><trkpt lat="43.1017754" lon="13.386463"><ele>445.0</ele><time>2026-04-12T15:55:27.047Z</time></trkpt><trkpt lat="43.1015812" lon="13.3864822"><ele>445.0</ele><time>2026-04-12T15:55:28.05Z</time></trkpt><trkpt lat="43.101395" lon="13.38655"><ele>449.33333333333337</ele><time>2026-04-12T15:55:29.047Z</time></trkpt><trkpt lat="43.1012357" lon="13.3866856"><ele>453.66666666666663</ele><time>2026-04-12T15:55:30.049Z</time></trkpt><trkpt lat="43.1011067" lon="13.3868422"><ele>458.0</ele><time>2026-04-12T15:55:31.039Z</time></trkpt><trkpt lat="43.1009726" lon="13.3869595"><ele>458.0</ele><time>2026-04-12T15:55:32.056Z</time></trkpt><trkpt lat="43.1008117" lon="13.3869955"><ele>458.0</ele><time>2026-04-12T15:55:33.037Z</time></trkpt><trkpt lat="43.1006442" lon="13.386942"><ele>458.0</ele><time>2026-04-12T15:55:34.038Z</time></trkpt><trkpt lat="43.1004857" lon="13.3868051"><ele>457.66666666666663</ele><time>2026-04-12T15:55:35.041Z</time></trkpt><trkpt lat="43.1003286" lon="13.3866511"><ele>457.33333333333337</ele><time>2026-04-12T15:55:36.043Z</time></trkpt><trkpt lat="43.1001874" lon="13.3864349"><ele>457.0</ele><time>2026-04-12T15:55:37.038Z</time></trkpt><trkpt lat="43.0999987" lon="13.3862815"><ele>462.0</ele><time>2026-04-12T15:55:38.046Z</time></trkpt><trkpt lat="43.0997921" lon="13.3861534"><ele>467.0</ele><time>2026-04-12T15:55:39.041Z</time></trkpt><trkpt lat="43.099568" lon="13.3860523"><ele>467.0</ele><time>2026-04-12T15:55:40.042Z</time></trkpt><trkpt lat="43.0993582" lon="13.3859417"><ele>467.0</ele><time>2026-04-12T15:55:41.038Z</time></trkpt><trkpt lat="43.0991738" lon="13.3858343"><ele>467.0</ele><time>2026-04-12T15:55:42.047Z</time></trkpt><trkpt lat="43.0990155" lon="13.3857428"><ele>472.5</ele><time>2026-04-12T15:55:43.041Z</time></trkpt><trkpt lat="43.0988788" lon="13.3856819"><ele>478.0</ele><time>2026-04-12T15:55:44.041Z</time></trkpt><trkpt lat="43.0987639" lon="13.3856466"><ele>483.5</ele><time>2026-04-12T15:55:45.041Z</time></trkpt><trkpt lat="43.0986852" lon="13.3857252"><ele>489.0</ele><time>2026-04-12T15:55:46.041Z</time></trkpt><trkpt lat="43.098642" lon="13.3858662"><ele>489.0</ele><time>2026-04-12T15:55:47.044Z</time></trkpt><trkpt lat="43.0986113" lon="13.3860539"><ele>489.0</ele><time>2026-04-12T15:55:48.047Z</time></trkpt><trkpt lat="43.0986181" lon="13.3862837"><ele>489.0</ele><time>2026-04-12T15:55:49.045Z</time></trkpt><trkpt lat="43.0985975" lon="13.3865455"><ele>489.66666666666663</ele><time>2026-04-12T15:55:50.04Z</time></trkpt><trkpt lat="43.0985452" lon="13.386796"><ele>490.3333333333333</ele><time>2026-04-12T15:55:51.046Z</time></trkpt><trkpt lat="43.0984941" lon="13.3870596"><ele>491.0</ele><time>2026-04-12T15:55:52.045Z</time></trkpt><trkpt lat="43.0984938" lon="13.3873298"><ele>489.0</ele><time>2026-04-12T15:55:53.05Z</time></trkpt><trkpt lat="43.098532" lon="13.3876015"><ele>487.0</ele><time>2026-04-12T15:55:54.051Z</time></trkpt><trkpt lat="43.0985754" lon="13.387876"><ele>485.0</ele><time>2026-04-12T15:55:55.04Z</time></trkpt><trkpt lat="43.0986173" lon="13.3881608"><ele>482.66666666666663</ele><time>2026-04-12T15:55:56.052Z</time></trkpt><trkpt lat="43.0986427" lon="13.3884503"><ele>480.33333333333337</ele><time>2026-04-12T15:55:57.045Z</time></trkpt><trkpt lat="43.0986394" lon="13.3887351"><ele>478.0</ele><time>2026-04-12T15:55:58.052Z</time></trkpt><trkpt lat="43.0985996" lon="13.3890087"><ele>478.0</ele><time>2026-04-12T15:55:59.049Z</time></trkpt><trkpt lat="43.0985189" lon="13.3892617"><ele>478.0</ele><time>2026-04-12T15:56:00.047Z</time></trkpt><trkpt lat="43.0983971" lon="13.3894813"><ele>478.0</ele><time>2026-04-12T15:56:01.05Z</time></trkpt><trkpt lat="43.0982349" lon="13.3896378"><ele>478.6666666666667</ele><time>2026-04-12T15:56:02.048Z</time></trkpt><trkpt lat="43.098043" lon="13.3897195"><ele>479.33333333333337</ele><time>2026-04-12T15:56:03.046Z</time></trkpt><trkpt lat="43.097842" lon="13.389734"><ele>480.0</ele><time>2026-04-12T15:56:04.051Z</time></trkpt><trkpt lat="43.0976522" lon="13.3897432"><ele>480.0</ele><time>2026-04-12T15:56:05.039Z</time></trkpt><trkpt lat="43.0974713" lon="13.3898053"><ele>480.0</ele><time>2026-04-12T15:56:06.049Z</time></trkpt><trkpt lat="43.0973053" lon="13.3899102"><ele>480.0</ele><time>2026-04-12T15:56:07.047Z</time></trkpt><trkpt lat="43.0971635" lon="13.3900583"><ele>475.0</ele><time>2026-04-12T15:56:08.047Z</time></trkpt><trkpt lat="43.0970502" lon="13.3902378"><ele>470.0</ele><time>2026-04-12T15:56:09.051Z</time></trkpt><trkpt lat="43.0969583" lon="13.3904078"><ele>465.0</ele><time>2026-04-12T15:56:10.053Z</time></trkpt><trkpt lat="43.0969481" lon="13.3906245"><ele>465.0</ele><time>2026-04-12T15:56:11.065Z</time></trkpt><trkpt lat="43.0969935" lon="13.3908522"><ele>465.0</ele><time>2026-04-12T15:56:12.043Z</time></trkpt><trkpt lat="43.0970853" lon="13.3910728"><ele>465.0</ele><time>2026-04-12T15:56:13.046Z</time></trkpt><trkpt lat="43.0971994" lon="13.3912924"><ele>468.0</ele><time>2026-04-12T15:56:14.047Z</time></trkpt><trkpt lat="43.0973649" lon="13.3914591"><ele>471.0</ele><time>2026-04-12T15:56:15.043Z</time></trkpt><trkpt lat="43.0975775" lon="13.3914885"><ele>474.0</ele><time>2026-04-12T15:56:16.043Z</time></trkpt><trkpt lat="43.097769" lon="13.3915113"><ele>474.0</ele><time>2026-04-12T15:56:17.044Z</time></trkpt><trkpt lat="43.0979299" lon="13.3915892"><ele>474.0</ele><time>2026-04-12T15:56:18.039Z</time></trkpt><trkpt lat="43.098048" lon="13.3917396"><ele>474.0</ele><time>2026-04-12T15:56:19.042Z</time></trkpt><trkpt lat="43.0981141" lon="13.3919319"><ele>474.0</ele><time>2026-04-12T15:56:20.034Z</time></trkpt><trkpt lat="43.0981215" lon="13.392153"><ele>474.0</ele><time>2026-04-12T15:56:21.042Z</time></trkpt><trkpt lat="43.0980589" lon="13.3923703"><ele>474.0</ele><time>2026-04-12T15:56:22.045Z</time></trkpt><trkpt lat="43.0979415" lon="13.3925598"><ele>473.0</ele><time>2026-04-12T15:56:23.042Z</time></trkpt><trkpt lat="43.0977775" lon="13.3926908"><ele>472.0</ele><time>2026-04-12T15:56:24.047Z</time></trkpt><trkpt lat="43.0975966" lon="13.3927965"><ele>471.0</ele><time>2026-04-12T15:56:25.044Z</time></trkpt><trkpt lat="43.097431" lon="13.3929318"><ele>467.66666666666663</ele><time>2026-04-12T15:56:26.052Z</time></trkpt><trkpt lat="43.0972905" lon="13.3930775"><ele>464.3333333333333</ele><time>2026-04-12T15:56:27.047Z</time></trkpt><trkpt lat="43.0971838" lon="13.3932522"><ele>461.0</ele><time>2026-04-12T15:56:28.04Z</time></trkpt><trkpt lat="43.0971394" lon="13.3934601"><ele>461.0</ele><time>2026-04-12T15:56:29.047Z</time></trkpt><trkpt lat="43.0971219" lon="13.3936662"><ele>461.0</ele><time>2026-04-12T15:56:30.043Z</time></trkpt><trkpt lat="43.0971819" lon="13.3938399"><ele>461.0</ele><time>2026-04-12T15:56:31.053Z</time></trkpt><trkpt lat="43.097344" lon="13.3940064"><ele>464.0</ele><time>2026-04-12T15:56:32.047Z</time></trkpt><trkpt lat="43.0975238" lon="13.3941435"><ele>467.0</ele><time>2026-04-12T15:56:33.044Z</time></trkpt><trkpt lat="43.0977124" lon="13.3942514"><ele>470.0</ele><time>2026-04-12T15:56:34.038Z</time></trkpt><trkpt lat="43.097906" lon="13.394326"><ele>470.0</ele><time>2026-04-12T15:56:35.046Z</time></trkpt><trkpt lat="43.0980929" lon="13.3943871"><ele>470.0</ele><time>2026-04-12T15:56:36.048Z</time></trkpt><trkpt lat="43.0982694" lon="13.3944336"><ele>470.0</ele><time>2026-04-12T15:56:37.052Z</time></trkpt><trkpt lat="43.09844" lon="13.3945133"><ele>468.3333333333333</ele><time>2026-04-12T15:56:38.045Z</time></trkpt><trkpt lat="43.0985893" lon="13.3945955"><ele>466.66666666666663</ele><time>2026-04-12T15:56:39.049Z</time></trkpt><trkpt lat="43.0987164" lon="13.3947125"><ele>465.0</ele><time>2026-04-12T15:56:40.048Z</time></trkpt><trkpt lat="43.0988087" lon="13.3948568"><ele>465.0</ele><time>2026-04-12T15:56:41.041Z</time></trkpt><trkpt lat="43.0988734" lon="13.3950273"><ele>465.0</ele><time>2026-04-12T15:56:42.041Z</time></trkpt><trkpt lat="43.0989249" lon="13.3952104"><ele>465.0</ele><time>2026-04-12T15:56:43.043Z</time></trkpt><trkpt lat="43.0989697" lon="13.3953898"><ele>465.0</ele><time>2026-04-12T15:56:44.045Z</time></trkpt><trkpt lat="43.0990118" lon="13.3955626"><ele>462.75</ele><time>2026-04-12T15:56:45.037Z</time></trkpt><trkpt lat="43.0990517" lon="13.3957288"><ele>460.5</ele><time>2026-04-12T15:56:46.061Z</time></trkpt><trkpt lat="43.0990951" lon="13.3958907"><ele>458.25</ele><time>2026-04-12T15:56:47.045Z</time></trkpt><trkpt lat="43.0991226" lon="13.396048"><ele>456.0</ele><time>2026-04-12T15:56:48.047Z</time></trkpt><trkpt lat="43.0991527" lon="13.3962013"><ele>461.0</ele><time>2026-04-12T15:56:49.045Z</time></trkpt><trkpt lat="43.0991835" lon="13.3963559"><ele>466.0</ele><time>2026-04-12T15:56:50.05Z</time></trkpt><trkpt lat="43.0992027" lon="13.3965118"><ele>471.0</ele><time>2026-04-12T15:56:51.046Z</time></trkpt><trkpt lat="43.0992106" lon="13.3966725"><ele>476.0</ele><time>2026-04-12T15:56:52.043Z</time></trkpt><trkpt lat="43.0992093" lon="13.3968365"><ele>476.0</ele><time>2026-04-12T15:56:53.045Z</time></trkpt><trkpt lat="43.099208" lon="13.3969993"><ele>476.0</ele><time>2026-04-12T15:56:54.047Z</time></trkpt><trkpt lat="43.0991717" lon="13.3971655"><ele>476.0</ele><time>2026-04-12T15:56:55.035Z</time></trkpt><trkpt lat="43.0991328" lon="13.3973494"><ele>476.0</ele><time>2026-04-12T15:56:56.044Z</time></trkpt><trkpt lat="43.0990831" lon="13.3975378"><ele>476.3333333333333</ele><time>2026-04-12T15:56:57.044Z</time></trkpt><trkpt lat="43.0990363" lon="13.3977325"><ele>476.66666666666663</ele><time>2026-04-12T15:56:58.044Z</time></trkpt><trkpt lat="43.0989871" lon="13.3979339"><ele>477.0</ele><time>2026-04-12T15:56:59.049Z</time></trkpt><trkpt lat="43.0989239" lon="13.3981312"><ele>479.66666666666663</ele><time>2026-04-12T15:57:00.047Z</time></trkpt><trkpt lat="43.0988446" lon="13.3983195"><ele>482.3333333333333</ele><time>2026-04-12T15:57:01.049Z</time></trkpt><trkpt lat="43.098758" lon="13.3985119"><ele>485.0</ele><time>2026-04-12T15:57:02.046Z</time></trkpt><trkpt lat="43.0986545" lon="13.3987081"><ele>480.0</ele><time>2026-04-12T15:57:03.046Z</time></trkpt><trkpt lat="43.0985357" lon="13.3988989"><ele>475.0</ele><time>2026-04-12T15:57:04.053Z</time></trkpt><trkpt lat="43.098403" lon="13.3990811"><ele>470.0</ele><time>2026-04-12T15:57:05.044Z</time></trkpt><trkpt lat="43.0982668" lon="13.3992503"><ele>467.0</ele><time>2026-04-12T15:57:06.05Z</time></trkpt><trkpt lat="43.0981252" lon="13.3994132"><ele>464.0</ele><time>2026-04-12T15:57:07.048Z</time></trkpt><trkpt lat="43.0979839" lon="13.3995644"><ele>461.0</ele><time>2026-04-12T15:57:08.044Z</time></trkpt><trkpt lat="43.0978399" lon="13.3997015"><ele>461.0</ele><time>2026-04-12T15:57:09.043Z</time></trkpt><trkpt lat="43.0976858" lon="13.3998017"><ele>461.0</ele><time>2026-04-12T15:57:10.042Z</time></trkpt><trkpt lat="43.0975245" lon="13.3998738"><ele>461.0</ele><time>2026-04-12T15:57:11.064Z</time></trkpt><trkpt lat="43.0973647" lon="13.3999445"><ele>460.3333333333333</ele><time>2026-04-12T15:57:12.052Z</time></trkpt><trkpt lat="43.0972248" lon="13.4000443"><ele>459.66666666666663</ele><time>2026-04-12T15:57:13.041Z</time></trkpt><trkpt lat="43.0970866" lon="13.4001708"><ele>459.0</ele><time>2026-04-12T15:57:14.046Z</time></trkpt><trkpt lat="43.0969583" lon="13.4003113"><ele>459.0</ele><time>2026-04-12T15:57:15.045Z</time></trkpt><trkpt lat="43.0968378" lon="13.4004586"><ele>459.0</ele><time>2026-04-12T15:57:16.048Z</time></trkpt><trkpt lat="43.0967257" lon="13.4006111"><ele>459.0</ele><time>2026-04-12T15:57:17.045Z</time></trkpt><trkpt lat="43.0966189" lon="13.400765"><ele>454.0</ele><time>2026-04-12T15:57:18.044Z</time></trkpt><trkpt lat="43.0965125" lon="13.4009232"><ele>449.0</ele><time>2026-04-12T15:57:19.066Z</time></trkpt><trkpt lat="43.096408" lon="13.4010925"><ele>444.0</ele><time>2026-04-12T15:57:20.051Z</time></trkpt><trkpt lat="43.0962958" lon="13.4012531"><ele>443.66666666666663</ele><time>2026-04-12T15:57:21.05Z</time></trkpt><trkpt lat="43.0961702" lon="13.4013823"><ele>443.3333333333333</ele><time>2026-04-12T15:57:22.044Z</time></trkpt><trkpt lat="43.0960355" lon="13.4014752"><ele>443.0</ele><time>2026-04-12T15:57:23.043Z</time></trkpt><trkpt lat="43.0958927" lon="13.4015397"><ele>443.66666666666663</ele><time>2026-04-12T15:57:24.048Z</time></trkpt><trkpt lat="43.0957412" lon="13.4015975"><ele>444.33333333333337</ele><time>2026-04-12T15:57:25.044Z</time></trkpt><trkpt lat="43.095591" lon="13.4016673"><ele>445.0</ele><time>2026-04-12T15:57:26.044Z</time></trkpt><trkpt lat="43.095448" lon="13.4017533"><ele>445.0</ele><time>2026-04-12T15:57:27.045Z</time></trkpt><trkpt lat="43.0953213" lon="13.40186"><ele>445.0</ele><time>2026-04-12T15:57:28.047Z</time></trkpt><trkpt lat="43.0952076" lon="13.4019928"><ele>445.0</ele><time>2026-04-12T15:57:29.044Z</time></trkpt><trkpt lat="43.0950994" lon="13.4021609"><ele>446.33333333333337</ele><time>2026-04-12T15:57:30.041Z</time></trkpt><trkpt lat="43.0950016" lon="13.4023765"><ele>447.66666666666663</ele><time>2026-04-12T15:57:31.047Z</time></trkpt><trkpt lat="43.0949071" lon="13.4026313"><ele>449.0</ele><time>2026-04-12T15:57:32.047Z</time></trkpt><trkpt lat="43.0948129" lon="13.402897"><ele>448.0</ele><time>2026-04-12T15:57:33.044Z</time></trkpt><trkpt lat="43.0947173" lon="13.4031493"><ele>447.0</ele><time>2026-04-12T15:57:34.045Z</time></trkpt><trkpt lat="43.0946157" lon="13.403394"><ele>446.0</ele><time>2026-04-12T15:57:35.052Z</time></trkpt><trkpt lat="43.0945098" lon="13.403618"><ele>446.0</ele><time>2026-04-12T15:57:36.042Z</time></trkpt><trkpt lat="43.0943995" lon="13.4038206"><ele>446.0</ele><time>2026-04-12T15:57:37.045Z</time></trkpt><trkpt lat="43.0942854" lon="13.4040061"><ele>446.0</ele><time>2026-04-12T15:57:38.043Z</time></trkpt><trkpt lat="43.0941651" lon="13.4041809"><ele>443.66666666666663</ele><time>2026-04-12T15:57:39.049Z</time></trkpt><trkpt lat="43.094039" lon="13.404335"><ele>441.33333333333337</ele><time>2026-04-12T15:57:40.042Z</time></trkpt><trkpt lat="43.0939082" lon="13.404465"><ele>439.0</ele><time>2026-04-12T15:57:41.044Z</time></trkpt><trkpt lat="43.0937729" lon="13.4045822"><ele>436.33333333333337</ele><time>2026-04-12T15:57:42.047Z</time></trkpt><trkpt lat="43.0936372" lon="13.4047039"><ele>433.66666666666663</ele><time>2026-04-12T15:57:43.042Z</time></trkpt><trkpt lat="43.0935089" lon="13.404845"><ele>431.0</ele><time>2026-04-12T15:57:44.046Z</time></trkpt><trkpt lat="43.0933937" lon="13.4050126"><ele>431.0</ele><time>2026-04-12T15:57:45.042Z</time></trkpt><trkpt lat="43.0932909" lon="13.4052191"><ele>431.0</ele><time>2026-04-12T15:57:46.045Z</time></trkpt><trkpt lat="43.0931912" lon="13.4054602"><ele>431.0</ele><time>2026-04-12T15:57:47.044Z</time></trkpt><trkpt lat="43.093081" lon="13.4057166"><ele>427.0</ele><time>2026-04-12T15:57:48.042Z</time></trkpt><trkpt lat="43.0929567" lon="13.4059822"><ele>423.0</ele><time>2026-04-12T15:57:49.045Z</time></trkpt><trkpt lat="43.0928236" lon="13.4062573"><ele>422.0</ele><time>2026-04-12T15:57:50.048Z</time></trkpt><trkpt lat="43.0926893" lon="13.4065409"><ele>421.0</ele><time>2026-04-12T15:57:51.043Z</time></trkpt><trkpt lat="43.0925575" lon="13.4068303"><ele>421.0</ele><time>2026-04-12T15:57:52.043Z</time></trkpt><trkpt lat="43.0924266" lon="13.4071231"><ele>421.0</ele><time>2026-04-12T15:57:53.044Z</time></trkpt><trkpt lat="43.0922944" lon="13.4074191"><ele>418.0</ele><time>2026-04-12T15:57:54.041Z</time></trkpt><trkpt lat="43.092162" lon="13.4077164"><ele>415.0</ele><time>2026-04-12T15:57:55.047Z</time></trkpt><trkpt lat="43.0920292" lon="13.4080143"><ele>415.0</ele><time>2026-04-12T15:57:56.038Z</time></trkpt><trkpt lat="43.0918966" lon="13.4083086"><ele>415.0</ele><time>2026-04-12T15:57:57.056Z</time></trkpt><trkpt lat="43.0917651" lon="13.4085967"><ele>416.5</ele><time>2026-04-12T15:57:58.039Z</time></trkpt><trkpt lat="43.0916386" lon="13.4088727"><ele>418.0</ele><time>2026-04-12T15:57:59.043Z</time></trkpt><trkpt lat="43.091522" lon="13.4091444"><ele>420.0</ele><time>2026-04-12T15:58:00.042Z</time></trkpt><trkpt lat="43.0914272" lon="13.4094296"><ele>422.0</ele><time>2026-04-12T15:58:01.043Z</time></trkpt><trkpt lat="43.0913609" lon="13.4097289"><ele>425.0</ele><time>2026-04-12T15:58:02.046Z</time></trkpt><trkpt lat="43.0913195" lon="13.4100396"><ele>428.0</ele><time>2026-04-12T15:58:03.043Z</time></trkpt><trkpt lat="43.0912969" lon="13.410358"><ele>429.0</ele><time>2026-04-12T15:58:04.07Z</time></trkpt><trkpt lat="43.0912903" lon="13.410681"><ele>430.0</ele><time>2026-04-12T15:58:05.043Z</time></trkpt><trkpt lat="43.0913044" lon="13.4110077"><ele>432.0</ele><time>2026-04-12T15:58:06.045Z</time></trkpt><trkpt lat="43.0913406" lon="13.4113346"><ele>434.0</ele><time>2026-04-12T15:58:07.043Z</time></trkpt><trkpt lat="43.0913947" lon="13.4116558"><ele>434.0</ele><time>2026-04-12T15:58:08.04Z</time></trkpt><trkpt lat="43.0914573" lon="13.4119678"><ele>434.0</ele><time>2026-04-12T15:58:09.048Z</time></trkpt><trkpt lat="43.0915127" lon="13.4122597"><ele>435.0</ele><time>2026-04-12T15:58:10.042Z</time></trkpt><trkpt lat="43.0915355" lon="13.4125375"><ele>436.0</ele><time>2026-04-12T15:58:11.075Z</time></trkpt><trkpt lat="43.0915098" lon="13.4128144"><ele>437.0</ele><time>2026-04-12T15:58:12.04Z</time></trkpt><trkpt lat="43.0914552" lon="13.4130708"><ele>437.0</ele><time>2026-04-12T15:58:13.042Z</time></trkpt><trkpt lat="43.0914262" lon="13.4133213"><ele>437.0</ele><time>2026-04-12T15:58:14.038Z</time></trkpt><trkpt lat="43.0914458" lon="13.4135784"><ele>437.0</ele><time>2026-04-12T15:58:15.042Z</time></trkpt><trkpt lat="43.0915232" lon="13.4138209"><ele>433.0</ele><time>2026-04-12T15:58:16.04Z</time></trkpt><trkpt lat="43.0916403" lon="13.4140238"><ele>429.0</ele><time>2026-04-12T15:58:17.04Z</time></trkpt><trkpt lat="43.0917448" lon="13.4142101"><ele>425.0</ele><time>2026-04-12T15:58:18.046Z</time></trkpt><trkpt lat="43.0917987" lon="13.4144046"><ele>425.0</ele><time>2026-04-12T15:58:19.039Z</time></trkpt><trkpt lat="43.0917834" lon="13.4146125"><ele>425.0</ele><time>2026-04-12T15:58:20.04Z</time></trkpt><trkpt lat="43.0917029" lon="13.4148178"><ele>425.0</ele><time>2026-04-12T15:58:21.044Z</time></trkpt><trkpt lat="43.0915887" lon="13.4150303"><ele>429.3333333333333</ele><time>2026-04-12T15:58:22.048Z</time></trkpt><trkpt lat="43.0914846" lon="13.4152743"><ele>433.66666666666663</ele><time>2026-04-12T15:58:23.041Z</time></trkpt><trkpt lat="43.0914029" lon="13.4155555"><ele>438.0</ele><time>2026-04-12T15:58:24.047Z</time></trkpt><trkpt lat="43.0913389" lon="13.4158595"><ele>438.0</ele><time>2026-04-12T15:58:25.044Z</time></trkpt><trkpt lat="43.0912992" lon="13.416172"><ele>438.0</ele><time>2026-04-12T15:58:26.044Z</time></trkpt><trkpt lat="43.0913013" lon="13.4164632"><ele>438.0</ele><time>2026-04-12T15:58:27.045Z</time></trkpt><trkpt lat="43.0913572" lon="13.4167374"><ele>438.0</ele><time>2026-04-12T15:58:28.039Z</time></trkpt><trkpt lat="43.0914703" lon="13.416987"><ele>438.0</ele><time>2026-04-12T15:58:29.042Z</time></trkpt><trkpt lat="43.0916353" lon="13.417201"><ele>438.0</ele><time>2026-04-12T15:58:30.039Z</time></trkpt><trkpt lat="43.0918216" lon="13.4173761"><ele>436.33333333333337</ele><time>2026-04-12T15:58:31.041Z</time></trkpt><trkpt lat="43.0919889" lon="13.4175328"><ele>434.6666666666667</ele><time>2026-04-12T15:58:32.066Z</time></trkpt><trkpt lat="43.0921233" lon="13.4176888"><ele>433.0</ele><time>2026-04-12T15:58:33.043Z</time></trkpt><trkpt lat="43.0922117" lon="13.4178654"><ele>433.6666666666667</ele><time>2026-04-12T15:58:34.041Z</time></trkpt><trkpt lat="43.0922298" lon="13.4180757"><ele>434.33333333333337</ele><time>2026-04-12T15:58:35.041Z</time></trkpt><trkpt lat="43.0921818" lon="13.4183077"><ele>435.0</ele><time>2026-04-12T15:58:36.042Z</time></trkpt><trkpt lat="43.0920933" lon="13.4185498"><ele>435.0</ele><time>2026-04-12T15:58:37.042Z</time></trkpt><trkpt lat="43.0919866" lon="13.4188028"><ele>435.0</ele><time>2026-04-12T15:58:38.044Z</time></trkpt><trkpt lat="43.0918784" lon="13.4190644"><ele>435.0</ele><time>2026-04-12T15:58:39.043Z</time></trkpt><trkpt lat="43.0917954" lon="13.4193418"><ele>433.0</ele><time>2026-04-12T15:58:40.064Z</time></trkpt><trkpt lat="43.091749" lon="13.4196455"><ele>431.0</ele><time>2026-04-12T15:58:41.041Z</time></trkpt><trkpt lat="43.0917403" lon="13.4199566"><ele>431.0</ele><time>2026-04-12T15:58:42.041Z</time></trkpt><trkpt lat="43.091773" lon="13.4202501"><ele>431.0</ele><time>2026-04-12T15:58:43.044Z</time></trkpt><trkpt lat="43.0918461" lon="13.420505"><ele>431.0</ele><time>2026-04-12T15:58:44.04Z</time></trkpt><trkpt lat="43.0919535" lon="13.4207111"><ele>431.66666666666663</ele><time>2026-04-12T15:58:45.043Z</time></trkpt><trkpt lat="43.0920938" lon="13.4208658"><ele>432.33333333333337</ele><time>2026-04-12T15:58:46.047Z</time></trkpt><trkpt lat="43.0922441" lon="13.4209634"><ele>433.0</ele><time>2026-04-12T15:58:47.041Z</time></trkpt><trkpt lat="43.0924251" lon="13.4209793"><ele>433.0</ele><time>2026-04-12T15:58:48.045Z</time></trkpt><trkpt lat="43.0925787" lon="13.4210662"><ele>433.0</ele><time>2026-04-12T15:58:49.044Z</time></trkpt><trkpt lat="43.0927055" lon="13.4212037"><ele>433.0</ele><time>2026-04-12T15:58:50.04Z</time></trkpt><trkpt lat="43.0927713" lon="13.4214151"><ele>432.6666666666667</ele><time>2026-04-12T15:58:51.041Z</time></trkpt><trkpt lat="43.0928093" lon="13.4216781"><ele>432.33333333333337</ele><time>2026-04-12T15:58:52.041Z</time></trkpt><trkpt lat="43.092844" lon="13.4219636"><ele>432.0</ele><time>2026-04-12T15:58:53.048Z</time></trkpt><trkpt lat="43.092892" lon="13.422265"><ele>432.0</ele><time>2026-04-12T15:58:54.042Z</time></trkpt><trkpt lat="43.0929487" lon="13.4225757"><ele>432.0</ele><time>2026-04-12T15:58:55.045Z</time></trkpt><trkpt lat="43.0930425" lon="13.4228796"><ele>432.5</ele><time>2026-04-12T15:58:56.04Z</time></trkpt><trkpt lat="43.0931721" lon="13.4231577"><ele>433.0</ele><time>2026-04-12T15:58:57.036Z</time></trkpt><trkpt lat="43.0933167" lon="13.4234274"><ele>436.5</ele><time>2026-04-12T15:58:58.041Z</time></trkpt><trkpt lat="43.0934615" lon="13.4236955"><ele>440.0</ele><time>2026-04-12T15:58:59.039Z</time></trkpt><trkpt lat="43.0936049" lon="13.4239635"><ele>442.0</ele><time>2026-04-12T15:59:00.042Z</time></trkpt><trkpt lat="43.0937418" lon="13.4242344"><ele>444.0</ele><time>2026-04-12T15:59:01.041Z</time></trkpt><trkpt lat="43.0938652" lon="13.4245167"><ele>445.5</ele><time>2026-04-12T15:59:02.041Z</time></trkpt><trkpt lat="43.0939671" lon="13.4248089"><ele>447.0</ele><time>2026-04-12T15:59:03.044Z</time></trkpt><trkpt lat="43.0940473" lon="13.4251096"><ele>448.5</ele><time>2026-04-12T15:59:04.044Z</time></trkpt><trkpt lat="43.0941253" lon="13.4254044"><ele>450.0</ele><time>2026-04-12T15:59:05.072Z</time></trkpt><trkpt lat="43.094202" lon="13.4256945"><ele>450.0</ele><time>2026-04-12T15:59:06.046Z</time></trkpt><trkpt lat="43.0942778" lon="13.4259818"><ele>450.0</ele><time>2026-04-12T15:59:07.04Z</time></trkpt><trkpt lat="43.0943516" lon="13.4262594"><ele>450.0</ele><time>2026-04-12T15:59:08.043Z</time></trkpt><trkpt lat="43.09442" lon="13.4265125"><ele>452.0</ele><time>2026-04-12T15:59:09.045Z</time></trkpt><trkpt lat="43.0944785" lon="13.4267419"><ele>454.0</ele><time>2026-04-12T15:59:10.047Z</time></trkpt><trkpt lat="43.0945015" lon="13.4269588"><ele>456.0</ele><time>2026-04-12T15:59:11.041Z</time></trkpt><trkpt lat="43.0944723" lon="13.4271881"><ele>456.0</ele><time>2026-04-12T15:59:12.04Z</time></trkpt><trkpt lat="43.0944003" lon="13.4274478"><ele>456.0</ele><time>2026-04-12T15:59:13.04Z</time></trkpt><trkpt lat="43.094326" lon="13.4277176"><ele>456.0</ele><time>2026-04-12T15:59:14.039Z</time></trkpt><trkpt lat="43.094253" lon="13.4280159"><ele>451.0</ele><time>2026-04-12T15:59:15.046Z</time></trkpt><trkpt lat="43.094183" lon="13.4283168"><ele>446.0</ele><time>2026-04-12T15:59:16.04Z</time></trkpt><trkpt lat="43.0940979" lon="13.4286294"><ele>451.0</ele><time>2026-04-12T15:59:17.036Z</time></trkpt><trkpt lat="43.0940131" lon="13.4289408"><ele>456.0</ele><time>2026-04-12T15:59:18.039Z</time></trkpt><trkpt lat="43.0939285" lon="13.4292554"><ele>456.0</ele><time>2026-04-12T15:59:19.047Z</time></trkpt><trkpt lat="43.0938422" lon="13.4295713"><ele>456.0</ele><time>2026-04-12T15:59:20.04Z</time></trkpt><trkpt lat="43.0937592" lon="13.4298911"><ele>452.5</ele><time>2026-04-12T15:59:21.047Z</time></trkpt><trkpt lat="43.0936774" lon="13.4302149"><ele>449.0</ele><time>2026-04-12T15:59:22.041Z</time></trkpt><trkpt lat="43.0935947" lon="13.4305348"><ele>447.0</ele><time>2026-04-12T15:59:23.044Z</time></trkpt><trkpt lat="43.0935194" lon="13.4308405"><ele>445.0</ele><time>2026-04-12T15:59:24.041Z</time></trkpt><trkpt lat="43.0934606" lon="13.4311401"><ele>443.33333333333337</ele><time>2026-04-12T15:59:25.043Z</time></trkpt><trkpt lat="43.0934301" lon="13.4314457"><ele>441.66666666666663</ele><time>2026-04-12T15:59:26.039Z</time></trkpt><trkpt lat="43.0934224" lon="13.4317454"><ele>440.0</ele><time>2026-04-12T15:59:27.039Z</time></trkpt><trkpt lat="43.0934188" lon="13.432035"><ele>438.66666666666663</ele><time>2026-04-12T15:59:28.039Z</time></trkpt><trkpt lat="43.0934163" lon="13.4323289"><ele>437.33333333333337</ele><time>2026-04-12T15:59:29.043Z</time></trkpt><trkpt lat="43.0934187" lon="13.4326257"><ele>436.0</ele><time>2026-04-12T15:59:30.04Z</time></trkpt><trkpt lat="43.0934317" lon="13.4329127"><ele>434.0</ele><time>2026-04-12T15:59:31.037Z</time></trkpt><trkpt lat="43.0934661" lon="13.4331895"><ele>432.0</ele><time>2026-04-12T15:59:32.046Z</time></trkpt><trkpt lat="43.093508" lon="13.4334646"><ele>430.0</ele><time>2026-04-12T15:59:33.044Z</time></trkpt><trkpt lat="43.093611" lon="13.4337155"><ele>428.6666666666667</ele><time>2026-04-12T15:59:34.042Z</time></trkpt><trkpt lat="43.0937385" lon="13.4339448"><ele>427.33333333333337</ele><time>2026-04-12T15:59:35.041Z</time></trkpt><trkpt lat="43.0938635" lon="13.4341557"><ele>426.0</ele><time>2026-04-12T15:59:36.05Z</time></trkpt><trkpt lat="43.0939796" lon="13.4343577"><ele>424.33333333333337</ele><time>2026-04-12T15:59:37.041Z</time></trkpt><trkpt lat="43.0940903" lon="13.4345506"><ele>422.6666666666667</ele><time>2026-04-12T15:59:38.042Z</time></trkpt><trkpt lat="43.0941969" lon="13.4347398"><ele>421.0</ele><time>2026-04-12T15:59:39.043Z</time></trkpt><trkpt lat="43.0943029" lon="13.4349216"><ele>421.0</ele><time>2026-04-12T15:59:40.044Z</time></trkpt><trkpt lat="43.0944079" lon="13.435108"><ele>421.0</ele><time>2026-04-12T15:59:41.039Z</time></trkpt><trkpt lat="43.0945106" lon="13.435291"><ele>421.0</ele><time>2026-04-12T15:59:42.066Z</time></trkpt><trkpt lat="43.0946091" lon="13.435472"><ele>419.6666666666667</ele><time>2026-04-12T15:59:43.039Z</time></trkpt><trkpt lat="43.094708" lon="13.4356568"><ele>418.33333333333337</ele><time>2026-04-12T15:59:44.04Z</time></trkpt><trkpt lat="43.0948057" lon="13.4358485"><ele>417.0</ele><time>2026-04-12T15:59:45.037Z</time></trkpt><trkpt lat="43.0948958" lon="13.4360572"><ele>416.33333333333337</ele><time>2026-04-12T15:59:46.036Z</time></trkpt><trkpt lat="43.0949773" lon="13.4362802"><ele>415.6666666666667</ele><time>2026-04-12T15:59:47.038Z</time></trkpt><trkpt lat="43.0950462" lon="13.43651"><ele>415.0</ele><time>2026-04-12T15:59:48.036Z</time></trkpt><trkpt lat="43.0950996" lon="13.4367366"><ele>413.6666666666667</ele><time>2026-04-12T15:59:49.039Z</time></trkpt><trkpt lat="43.0951486" lon="13.4369619"><ele>412.33333333333337</ele><time>2026-04-12T15:59:50.042Z</time></trkpt><trkpt lat="43.0952083" lon="13.4371855"><ele>411.0</ele><time>2026-04-12T15:59:51.04Z</time></trkpt><trkpt lat="43.0952928" lon="13.4374032"><ele>409.33333333333337</ele><time>2026-04-12T15:59:52.049Z</time></trkpt><trkpt lat="43.0953992" lon="13.4376126"><ele>407.6666666666667</ele><time>2026-04-12T15:59:53.038Z</time></trkpt><trkpt lat="43.0955179" lon="13.437814"><ele>406.0</ele><time>2026-04-12T15:59:54.043Z</time></trkpt><trkpt lat="43.0956342" lon="13.4380019"><ele>405.0</ele><time>2026-04-12T15:59:55.039Z</time></trkpt><trkpt lat="43.0957458" lon="13.4381844"><ele>404.0</ele><time>2026-04-12T15:59:56.04Z</time></trkpt><trkpt lat="43.0958556" lon="13.4383664"><ele>403.0</ele><time>2026-04-12T15:59:57.04Z</time></trkpt><trkpt lat="43.0959632" lon="13.4385477"><ele>403.0</ele><time>2026-04-12T15:59:58.04Z</time></trkpt><trkpt lat="43.0960641" lon="13.4387356"><ele>403.0</ele><time>2026-04-12T15:59:59.042Z</time></trkpt><trkpt lat="43.0961557" lon="13.4389328"><ele>403.0</ele><time>2026-04-12T16:00:00.042Z</time></trkpt><trkpt lat="43.0962362" lon="13.4391365"><ele>402.6666666666667</ele><time>2026-04-12T16:00:01.044Z</time></trkpt><trkpt lat="43.096306" lon="13.4393392"><ele>402.33333333333337</ele><time>2026-04-12T16:00:02.042Z</time></trkpt><trkpt lat="43.0963715" lon="13.4395457"><ele>402.0</ele><time>2026-04-12T16:00:03.036Z</time></trkpt><trkpt lat="43.0964369" lon="13.4397494"><ele>400.66666666666663</ele><time>2026-04-12T16:00:04.039Z</time></trkpt><trkpt lat="43.0965028" lon="13.4399513"><ele>399.3333333333333</ele><time>2026-04-12T16:00:05.042Z</time></trkpt><trkpt lat="43.0965679" lon="13.4401552"><ele>398.0</ele><time>2026-04-12T16:00:06.04Z</time></trkpt><trkpt lat="43.0966306" lon="13.4403548"><ele>396.66666666666663</ele><time>2026-04-12T16:00:07.055Z</time></trkpt><trkpt lat="43.0966931" lon="13.440554"><ele>395.33333333333337</ele><time>2026-04-12T16:00:08.042Z</time></trkpt><trkpt lat="43.0967846" lon="13.440729"><ele>394.0</ele><time>2026-04-12T16:00:09.044Z</time></trkpt><trkpt lat="43.0968871" lon="13.4408964"><ele>394.0</ele><time>2026-04-12T16:00:10.039Z</time></trkpt><trkpt lat="43.0970234" lon="13.4410395"><ele>394.0</ele><time>2026-04-12T16:00:11.04Z</time></trkpt><trkpt lat="43.0972002" lon="13.4411714"><ele>394.0</ele><time>2026-04-12T16:00:12.043Z</time></trkpt><trkpt lat="43.0974035" lon="13.4413102"><ele>388.0</ele><time>2026-04-12T16:00:13.037Z</time></trkpt><trkpt lat="43.0976236" lon="13.4414713"><ele>382.0</ele><time>2026-04-12T16:00:14.051Z</time></trkpt><trkpt lat="43.097839" lon="13.4416419"><ele>382.0</ele><time>2026-04-12T16:00:15.043Z</time></trkpt><trkpt lat="43.0980416" lon="13.4418225"><ele>382.0</ele><time>2026-04-12T16:00:16.039Z</time></trkpt><trkpt lat="43.0982284" lon="13.4420202"><ele>376.0</ele><time>2026-04-12T16:00:17.038Z</time></trkpt><trkpt lat="43.0984093" lon="13.4422305"><ele>370.0</ele><time>2026-04-12T16:00:18.044Z</time></trkpt><trkpt lat="43.0985902" lon="13.4424438"><ele>370.0</ele><time>2026-04-12T16:00:19.039Z</time></trkpt><trkpt lat="43.0987737" lon="13.4426586"><ele>370.0</ele><time>2026-04-12T16:00:20.067Z</time></trkpt><trkpt lat="43.0989542" lon="13.4428716"><ele>367.0</ele><time>2026-04-12T16:00:21.039Z</time></trkpt><trkpt lat="43.0991314" lon="13.4430795"><ele>364.0</ele><time>2026-04-12T16:00:22.039Z</time></trkpt><trkpt lat="43.0993097" lon="13.4432909"><ele>364.0</ele><time>2026-04-12T16:00:23.043Z</time></trkpt><trkpt lat="43.0994884" lon="13.4435011"><ele>364.0</ele><time>2026-04-12T16:00:24.041Z</time></trkpt><trkpt lat="43.0996707" lon="13.4437091"><ele>362.0</ele><time>2026-04-12T16:00:25.042Z</time></trkpt><trkpt lat="43.0998539" lon="13.4439147"><ele>360.0</ele><time>2026-04-12T16:00:26.044Z</time></trkpt><trkpt lat="43.1000393" lon="13.4441162"><ele>360.0</ele><time>2026-04-12T16:00:27.041Z</time></trkpt><trkpt lat="43.1002298" lon="13.4443111"><ele>360.0</ele><time>2026-04-12T16:00:28.043Z</time></trkpt><trkpt lat="43.1004312" lon="13.4444851"><ele>358.5</ele><time>2026-04-12T16:00:29.039Z</time></trkpt><trkpt lat="43.1006458" lon="13.4446344"><ele>357.0</ele><time>2026-04-12T16:00:30.042Z</time></trkpt><trkpt lat="43.100867" lon="13.4447691"><ele>357.0</ele><time>2026-04-12T16:00:31.042Z</time></trkpt><trkpt lat="43.1010923" lon="13.4448897"><ele>357.0</ele><time>2026-04-12T16:00:32.041Z</time></trkpt><trkpt lat="43.1013201" lon="13.4449995"><ele>357.0</ele><time>2026-04-12T16:00:33.066Z</time></trkpt><trkpt lat="43.101545" lon="13.4451173"><ele>357.0</ele><time>2026-04-12T16:00:34.043Z</time></trkpt><trkpt lat="43.101759" lon="13.4452575"><ele>356.5</ele><time>2026-04-12T16:00:35.041Z</time></trkpt><trkpt lat="43.1019531" lon="13.4454331"><ele>356.0</ele><time>2026-04-12T16:00:36.039Z</time></trkpt><trkpt lat="43.1021177" lon="13.4456497"><ele>354.5</ele><time>2026-04-12T16:00:37.041Z</time></trkpt><trkpt lat="43.1022703" lon="13.4458711"><ele>353.0</ele><time>2026-04-12T16:00:38.051Z</time></trkpt><trkpt lat="43.1023897" lon="13.4461432"><ele>355.0</ele><time>2026-04-12T16:00:39.046Z</time></trkpt><trkpt lat="43.1025016" lon="13.4464202"><ele>357.0</ele><time>2026-04-12T16:00:40.042Z</time></trkpt><trkpt lat="43.1026191" lon="13.446703"><ele>357.0</ele><time>2026-04-12T16:00:41.038Z</time></trkpt><trkpt lat="43.1027444" lon="13.4469827"><ele>357.0</ele><time>2026-04-12T16:00:42.038Z</time></trkpt><trkpt lat="43.1028686" lon="13.4472653"><ele>357.5</ele><time>2026-04-12T16:00:43.062Z</time></trkpt><trkpt lat="43.1029923" lon="13.4475472"><ele>358.0</ele><time>2026-04-12T16:00:44.041Z</time></trkpt><trkpt lat="43.1031177" lon="13.4478291"><ele>356.5</ele><time>2026-04-12T16:00:45.042Z</time></trkpt><trkpt lat="43.1032432" lon="13.4481108"><ele>355.0</ele><time>2026-04-12T16:00:46.041Z</time></trkpt><trkpt lat="43.1033685" lon="13.4483937"><ele>357.0</ele><time>2026-04-12T16:00:47.042Z</time></trkpt><trkpt lat="43.1034924" lon="13.4486764"><ele>359.0</ele><time>2026-04-12T16:00:48.042Z</time></trkpt><trkpt lat="43.103617" lon="13.448957"><ele>359.0</ele><time>2026-04-12T16:00:49.041Z</time></trkpt><trkpt lat="43.103742" lon="13.449234"><ele>359.0</ele><time>2026-04-12T16:00:50.046Z</time></trkpt><trkpt lat="43.103867" lon="13.4495033"><ele>360.6666666666667</ele><time>2026-04-12T16:00:51.042Z</time></trkpt><trkpt lat="43.1039813" lon="13.4497555"><ele>362.3333333333333</ele><time>2026-04-12T16:00:52.041Z</time></trkpt><trkpt lat="43.1040891" lon="13.4499959"><ele>364.0</ele><time>2026-04-12T16:00:53.04Z</time></trkpt><trkpt lat="43.104195" lon="13.4502357"><ele>364.0</ele><time>2026-04-12T16:00:54.037Z</time></trkpt><trkpt lat="43.1042958" lon="13.4504846"><ele>364.0</ele><time>2026-04-12T16:00:55.041Z</time></trkpt><trkpt lat="43.1043825" lon="13.4507554"><ele>364.0</ele><time>2026-04-12T16:00:56.039Z</time></trkpt><trkpt lat="43.1044554" lon="13.4510396"><ele>361.5</ele><time>2026-04-12T16:00:57.04Z</time></trkpt><trkpt lat="43.104524" lon="13.4513342"><ele>359.0</ele><time>2026-04-12T16:00:58.046Z</time></trkpt><trkpt lat="43.1045938" lon="13.4516342"><ele>359.0</ele><time>2026-04-12T16:00:59.043Z</time></trkpt><trkpt lat="43.1046648" lon="13.4519364"><ele>359.0</ele><time>2026-04-12T16:01:00.043Z</time></trkpt><trkpt lat="43.104735" lon="13.4522406"><ele>357.5</ele><time>2026-04-12T16:01:01.041Z</time></trkpt><trkpt lat="43.1048073" lon="13.4525428"><ele>356.0</ele><time>2026-04-12T16:01:02.037Z</time></trkpt><trkpt lat="43.1048816" lon="13.4528434"><ele>358.0</ele><time>2026-04-12T16:01:03.038Z</time></trkpt><trkpt lat="43.1049529" lon="13.4531301"><ele>360.0</ele><time>2026-04-12T16:01:04.038Z</time></trkpt><trkpt lat="43.1050175" lon="13.4534007"><ele>362.0</ele><time>2026-04-12T16:01:05.039Z</time></trkpt><trkpt lat="43.105061" lon="13.4536751"><ele>362.0</ele><time>2026-04-12T16:01:06.039Z</time></trkpt><trkpt lat="43.1050625" lon="13.453959"><ele>362.0</ele><time>2026-04-12T16:01:07.038Z</time></trkpt><trkpt lat="43.1050559" lon="13.454239"><ele>362.0</ele><time>2026-04-12T16:01:08.039Z</time></trkpt><trkpt lat="43.1049776" lon="13.4545305"><ele>357.0</ele><time>2026-04-12T16:01:09.05Z</time></trkpt><trkpt lat="43.104899" lon="13.4548364"><ele>352.0</ele><time>2026-04-12T16:01:10.039Z</time></trkpt><trkpt lat="43.1048242" lon="13.4551523"><ele>353.5</ele><time>2026-04-12T16:01:11.043Z</time></trkpt><trkpt lat="43.1047446" lon="13.455478"><ele>355.0</ele><time>2026-04-12T16:01:12.04Z</time></trkpt><trkpt lat="43.1046648" lon="13.4558029"><ele>355.0</ele><time>2026-04-12T16:01:13.039Z</time></trkpt><trkpt lat="43.104583" lon="13.4561312"><ele>355.0</ele><time>2026-04-12T16:01:14.075Z</time></trkpt><trkpt lat="43.1045046" lon="13.4564582"><ele>356.0</ele><time>2026-04-12T16:01:15.043Z</time></trkpt><trkpt lat="43.1044333" lon="13.4567908"><ele>357.0</ele><time>2026-04-12T16:01:16.039Z</time></trkpt><trkpt lat="43.1043848" lon="13.4571269"><ele>357.5</ele><time>2026-04-12T16:01:17.039Z</time></trkpt><trkpt lat="43.1043529" lon="13.4574663"><ele>358.0</ele><time>2026-04-12T16:01:18.042Z</time></trkpt><trkpt lat="43.1043318" lon="13.4578038"><ele>359.5</ele><time>2026-04-12T16:01:19.045Z</time></trkpt><trkpt lat="43.1043111" lon="13.4581226"><ele>361.0</ele><time>2026-04-12T16:01:20.041Z</time></trkpt><trkpt lat="43.1043007" lon="13.4584272"><ele>361.0</ele><time>2026-04-12T16:01:21.046Z</time></trkpt><trkpt lat="43.1043166" lon="13.4587205"><ele>361.0</ele><time>2026-04-12T16:01:22.039Z</time></trkpt><trkpt lat="43.1043676" lon="13.4590115"><ele>361.0</ele><time>2026-04-12T16:01:23.043Z</time></trkpt><trkpt lat="43.1044396" lon="13.4592997"><ele>363.5</ele><time>2026-04-12T16:01:24.041Z</time></trkpt><trkpt lat="43.1045242" lon="13.4595868"><ele>366.0</ele><time>2026-04-12T16:01:25.041Z</time></trkpt><trkpt lat="43.1046098" lon="13.4598822"><ele>367.5</ele><time>2026-04-12T16:01:26.041Z</time></trkpt><trkpt lat="43.1046848" lon="13.4601846"><ele>369.0</ele><time>2026-04-12T16:01:27.044Z</time></trkpt><trkpt lat="43.1047355" lon="13.4604961"><ele>369.0</ele><time>2026-04-12T16:01:28.043Z</time></trkpt><trkpt lat="43.1047596" lon="13.4608156"><ele>369.0</ele><time>2026-04-12T16:01:29.037Z</time></trkpt><trkpt lat="43.1047635" lon="13.4611432"><ele>366.0</ele><time>2026-04-12T16:01:30.036Z</time></trkpt><trkpt lat="43.1047551" lon="13.4614754"><ele>363.0</ele><time>2026-04-12T16:01:31.043Z</time></trkpt><trkpt lat="43.1047415" lon="13.461813"><ele>360.0</ele><time>2026-04-12T16:01:32.04Z</time></trkpt><trkpt lat="43.1047318" lon="13.4621534"><ele>357.0</ele><time>2026-04-12T16:01:33.049Z</time></trkpt><trkpt lat="43.1047362" lon="13.4624948"><ele>357.0</ele><time>2026-04-12T16:01:34.041Z</time></trkpt><trkpt lat="43.1047598" lon="13.4628363"><ele>357.0</ele><time>2026-04-12T16:01:35.04Z</time></trkpt><trkpt lat="43.1047962" lon="13.4631769"><ele>358.5</ele><time>2026-04-12T16:01:36.038Z</time></trkpt><trkpt lat="43.1048324" lon="13.4635122"><ele>360.0</ele><time>2026-04-12T16:01:37.042Z</time></trkpt><trkpt lat="43.1048662" lon="13.4638562"><ele>361.5</ele><time>2026-04-12T16:01:38.038Z</time></trkpt><trkpt lat="43.1049041" lon="13.4641984"><ele>363.0</ele><time>2026-04-12T16:01:39.047Z</time></trkpt><trkpt lat="43.1049432" lon="13.4645342"><ele>372.5</ele><time>2026-04-12T16:01:40.038Z</time></trkpt><trkpt lat="43.104982" lon="13.4648683"><ele>382.0</ele><time>2026-04-12T16:01:41.042Z</time></trkpt><trkpt lat="43.1050141" lon="13.4651833"><ele>382.3333333333333</ele><time>2026-04-12T16:01:42.042Z</time></trkpt><trkpt lat="43.1050413" lon="13.4654821"><ele>382.6666666666667</ele><time>2026-04-12T16:01:43.042Z</time></trkpt><trkpt lat="43.1050672" lon="13.4657717"><ele>383.0</ele><time>2026-04-12T16:01:44.038Z</time></trkpt><trkpt lat="43.1050874" lon="13.4660524"><ele>382.6666666666667</ele><time>2026-04-12T16:01:45.04Z</time></trkpt><trkpt lat="43.1051045" lon="13.4663261"><ele>382.3333333333333</ele><time>2026-04-12T16:01:46.039Z</time></trkpt><trkpt lat="43.1051189" lon="13.4665954"><ele>382.0</ele><time>2026-04-12T16:01:47.04Z</time></trkpt><trkpt lat="43.1051294" lon="13.4668551"><ele>382.0</ele><time>2026-04-12T16:01:48.043Z</time></trkpt><trkpt lat="43.1051372" lon="13.4671093"><ele>382.0</ele><time>2026-04-12T16:01:49.039Z</time></trkpt><trkpt lat="43.1051426" lon="13.4673505"><ele>382.0</ele><time>2026-04-12T16:01:50.068Z</time></trkpt><trkpt lat="43.1051475" lon="13.4675899"><ele>382.3333333333333</ele><time>2026-04-12T16:01:51.045Z</time></trkpt><trkpt lat="43.1051499" lon="13.4678376"><ele>382.6666666666667</ele><time>2026-04-12T16:01:52.041Z</time></trkpt><trkpt lat="43.1051517" lon="13.4680934"><ele>383.0</ele><time>2026-04-12T16:01:53.037Z</time></trkpt><trkpt lat="43.1051529" lon="13.4683552"><ele>381.6666666666667</ele><time>2026-04-12T16:01:54.045Z</time></trkpt><trkpt lat="43.1051556" lon="13.4686203"><ele>380.3333333333333</ele><time>2026-04-12T16:01:55.043Z</time></trkpt><trkpt lat="43.1051572" lon="13.4688767"><ele>379.0</ele><time>2026-04-12T16:01:56.042Z</time></trkpt><trkpt lat="43.1051601" lon="13.4691179"><ele>379.3333333333333</ele><time>2026-04-12T16:01:57.041Z</time></trkpt><trkpt lat="43.1051637" lon="13.4693452"><ele>379.6666666666667</ele><time>2026-04-12T16:01:58.042Z</time></trkpt><trkpt lat="43.1051806" lon="13.4695515"><ele>380.0</ele><time>2026-04-12T16:01:59.072Z</time></trkpt><trkpt lat="43.1052115" lon="13.4697461"><ele>380.0</ele><time>2026-04-12T16:02:00.044Z</time></trkpt><trkpt lat="43.105287" lon="13.4698968"><ele>380.0</ele><time>2026-04-12T16:02:01.039Z</time></trkpt><trkpt lat="43.1053786" lon="13.470019"><ele>380.0</ele><time>2026-04-12T16:02:02.042Z</time></trkpt><trkpt lat="43.1054387" lon="13.4701493"><ele>380.0</ele><time>2026-04-12T16:02:03.038Z</time></trkpt><trkpt lat="43.1054642" lon="13.4702899"><ele>380.0</ele><time>2026-04-12T16:02:04.044Z</time></trkpt><trkpt lat="43.1054461" lon="13.4704088"><ele>380.0</ele><time>2026-04-12T16:02:05.046Z</time></trkpt><trkpt lat="43.1053794" lon="13.4705046"><ele>380.0</ele><time>2026-04-12T16:02:06.04Z</time></trkpt><trkpt lat="43.1052908" lon="13.4706054"><ele>380.0</ele><time>2026-04-12T16:02:07.067Z</time></trkpt><trkpt lat="43.105192" lon="13.4707316"><ele>380.0</ele><time>2026-04-12T16:02:08.041Z</time></trkpt><trkpt lat="43.1050888" lon="13.4708632"><ele>380.0</ele><time>2026-04-12T16:02:09.043Z</time></trkpt><trkpt lat="43.1049791" lon="13.4710202"><ele>380.0</ele><time>2026-04-12T16:02:10.042Z</time></trkpt><trkpt lat="43.1048731" lon="13.4711821"><ele>380.0</ele><time>2026-04-12T16:02:11.044Z</time></trkpt><trkpt lat="43.1047296" lon="13.4713108"><ele>378.0</ele><time>2026-04-12T16:02:12.041Z</time></trkpt><trkpt lat="43.1045733" lon="13.4714192"><ele>376.0</ele><time>2026-04-12T16:02:13.044Z</time></trkpt><trkpt lat="43.1043978" lon="13.471499"><ele>374.0</ele><time>2026-04-12T16:02:14.046Z</time></trkpt><trkpt lat="43.1042156" lon="13.4715648"><ele>372.33333333333337</ele><time>2026-04-12T16:02:15.041Z</time></trkpt><trkpt lat="43.1040299" lon="13.4716258"><ele>370.6666666666667</ele><time>2026-04-12T16:02:16.047Z</time></trkpt><trkpt lat="43.1038563" lon="13.471693"><ele>369.0</ele><time>2026-04-12T16:02:17.045Z</time></trkpt><trkpt lat="43.1036725" lon="13.4717658"><ele>369.0</ele><time>2026-04-12T16:02:18.046Z</time></trkpt><trkpt lat="43.1034897" lon="13.4718662"><ele>369.0</ele><time>2026-04-12T16:02:19.044Z</time></trkpt><trkpt lat="43.1033049" lon="13.4719708"><ele>369.0</ele><time>2026-04-12T16:02:20.044Z</time></trkpt><trkpt lat="43.103152" lon="13.4721408"><ele>368.3333333333333</ele><time>2026-04-12T16:02:21.048Z</time></trkpt><trkpt lat="43.1030017" lon="13.4723259"><ele>367.66666666666663</ele><time>2026-04-12T16:02:22.067Z</time></trkpt><trkpt lat="43.1028474" lon="13.472482"><ele>367.0</ele><time>2026-04-12T16:02:23.045Z</time></trkpt><trkpt lat="43.102689" lon="13.4726341"><ele>367.0</ele><time>2026-04-12T16:02:24.048Z</time></trkpt><trkpt lat="43.1025309" lon="13.4727627"><ele>367.0</ele><time>2026-04-12T16:02:25.043Z</time></trkpt><trkpt lat="43.102355" lon="13.4728452"><ele>367.0</ele><time>2026-04-12T16:02:26.044Z</time></trkpt><trkpt lat="43.1021678" lon="13.4728877"><ele>367.66666666666663</ele><time>2026-04-12T16:02:27.04Z</time></trkpt><trkpt lat="43.1019846" lon="13.4728907"><ele>368.3333333333333</ele><time>2026-04-12T16:02:28.04Z</time></trkpt><trkpt lat="43.1018109" lon="13.4728579"><ele>369.0</ele><time>2026-04-12T16:02:29.04Z</time></trkpt><trkpt lat="43.1016494" lon="13.4728255"><ele>367.6666666666667</ele><time>2026-04-12T16:02:30.04Z</time></trkpt><trkpt lat="43.1014967" lon="13.4728307"><ele>366.33333333333337</ele><time>2026-04-12T16:02:31.043Z</time></trkpt><trkpt lat="43.1013482" lon="13.472862"><ele>365.0</ele><time>2026-04-12T16:02:32.044Z</time></trkpt><trkpt lat="43.101209" lon="13.4730086"><ele>365.0</ele><time>2026-04-12T16:02:33.041Z</time></trkpt><trkpt lat="43.1010673" lon="13.4731948"><ele>365.0</ele><time>2026-04-12T16:02:34.059Z</time></trkpt><trkpt lat="43.1009123" lon="13.4733615"><ele>365.0</ele><time>2026-04-12T16:02:35.045Z</time></trkpt><trkpt lat="43.1007463" lon="13.473515"><ele>366.0</ele><time>2026-04-12T16:02:36.041Z</time></trkpt><trkpt lat="43.1005725" lon="13.4736767"><ele>367.0</ele><time>2026-04-12T16:02:37.045Z</time></trkpt><trkpt lat="43.1004016" lon="13.4738539"><ele>368.0</ele><time>2026-04-12T16:02:38.048Z</time></trkpt><trkpt lat="43.1002333" lon="13.4740346"><ele>365.0</ele><time>2026-04-12T16:02:39.043Z</time></trkpt><trkpt lat="43.1000659" lon="13.4742155"><ele>362.0</ele><time>2026-04-12T16:02:40.045Z</time></trkpt><trkpt lat="43.0999002" lon="13.4743931"><ele>359.0</ele><time>2026-04-12T16:02:41.044Z</time></trkpt><trkpt lat="43.0997441" lon="13.4745611"><ele>356.33333333333337</ele><time>2026-04-12T16:02:42.042Z</time></trkpt><trkpt lat="43.0995891" lon="13.4747211"><ele>353.6666666666667</ele><time>2026-04-12T16:02:43.044Z</time></trkpt><trkpt lat="43.0994375" lon="13.4748783"><ele>351.0</ele><time>2026-04-12T16:02:44.045Z</time></trkpt><trkpt lat="43.0992952" lon="13.4750291"><ele>351.0</ele><time>2026-04-12T16:02:45.046Z</time></trkpt><trkpt lat="43.0991583" lon="13.475171"><ele>351.0</ele><time>2026-04-12T16:02:46.047Z</time></trkpt><trkpt lat="43.099027" lon="13.4753054"><ele>351.0</ele><time>2026-04-12T16:02:47.053Z</time></trkpt><trkpt lat="43.0989044" lon="13.4754277"><ele>349.25</ele><time>2026-04-12T16:02:48.042Z</time></trkpt><trkpt lat="43.0987964" lon="13.4755413"><ele>347.5</ele><time>2026-04-12T16:02:49.043Z</time></trkpt><trkpt lat="43.0986981" lon="13.4756399"><ele>345.75</ele><time>2026-04-12T16:02:50.044Z</time></trkpt><trkpt lat="43.0986049" lon="13.475738"><ele>344.0</ele><time>2026-04-12T16:02:51.042Z</time></trkpt><trkpt lat="43.0985373" lon="13.4758764"><ele>344.0</ele><time>2026-04-12T16:02:52.049Z</time></trkpt><trkpt lat="43.0984685" lon="13.4760244"><ele>344.0</ele><time>2026-04-12T16:02:53.041Z</time></trkpt><trkpt lat="43.0983913" lon="13.4761709"><ele>344.0</ele><time>2026-04-12T16:02:54.044Z</time></trkpt><trkpt lat="43.098312" lon="13.4763025"><ele>344.0</ele><time>2026-04-12T16:02:55.045Z</time></trkpt><trkpt lat="43.0982403" lon="13.4764192"><ele>341.83333333333337</ele><time>2026-04-12T16:02:56.043Z</time></trkpt><trkpt lat="43.0981787" lon="13.4765087"><ele>339.6666666666667</ele><time>2026-04-12T16:02:57.041Z</time></trkpt><trkpt lat="43.0981237" lon="13.4765633"><ele>337.5</ele><time>2026-04-12T16:02:58.041Z</time></trkpt><trkpt lat="43.098032" lon="13.4765813"><ele>335.3333333333333</ele><time>2026-04-12T16:03:00.043Z</time></trkpt><trkpt lat="43.0979873" lon="13.4766614"><ele>333.16666666666663</ele><time>2026-04-12T16:03:48.051Z</time></trkpt><trkpt lat="43.0980268" lon="13.4767451"><ele>331.0</ele><time>2026-04-12T16:03:52.04Z</time></trkpt><trkpt lat="43.0981007" lon="13.4766579"><ele>331.0</ele><time>2026-04-12T16:03:54.044Z</time></trkpt><trkpt lat="43.0981547" lon="13.4765731"><ele>331.0</ele><time>2026-04-12T16:03:55.041Z</time></trkpt><trkpt lat="43.098222" lon="13.4764785"><ele>331.0</ele><time>2026-04-12T16:03:56.068Z</time></trkpt><trkpt lat="43.0982995" lon="13.4763555"><ele>331.0</ele><time>2026-04-12T16:03:57.044Z</time></trkpt><trkpt lat="43.0983823" lon="13.4762261"><ele>331.0</ele><time>2026-04-12T16:03:58.046Z</time></trkpt><trkpt lat="43.0984516" lon="13.4761156"><ele>333.16666666666663</ele><time>2026-04-12T16:03:59.043Z</time></trkpt><trkpt lat="43.0985086" lon="13.4760264"><ele>335.3333333333333</ele><time>2026-04-12T16:04:00.044Z</time></trkpt><trkpt lat="43.0985588" lon="13.4759553"><ele>337.5</ele><time>2026-04-12T16:04:01.048Z</time></trkpt><trkpt lat="43.0986172" lon="13.4758494"><ele>339.6666666666667</ele><time>2026-04-12T16:04:03.047Z</time></trkpt><trkpt lat="43.0985955" lon="13.4757603"><ele>341.83333333333337</ele><time>2026-04-12T16:04:06.071Z</time></trkpt><trkpt lat="43.0984984" lon="13.4758028"><ele>344.0</ele><time>2026-04-12T16:04:08.045Z</time></trkpt><trkpt lat="43.098423" lon="13.4758554"><ele>344.0</ele><time>2026-04-12T16:04:09.044Z</time></trkpt><trkpt lat="43.0983197" lon="13.4759141"><ele>344.0</ele><time>2026-04-12T16:04:10.043Z</time></trkpt><trkpt lat="43.0982069" lon="13.4759467"><ele>344.0</ele><time>2026-04-12T16:04:11.041Z</time></trkpt><trkpt lat="43.0980904" lon="13.4759529"><ele>344.0</ele><time>2026-04-12T16:04:12.044Z</time></trkpt><trkpt lat="43.0979685" lon="13.4759247"><ele>341.0</ele><time>2026-04-12T16:04:13.043Z</time></trkpt><trkpt lat="43.0978459" lon="13.4758598"><ele>338.0</ele><time>2026-04-12T16:04:14.049Z</time></trkpt><trkpt lat="43.0977408" lon="13.4757696"><ele>335.0</ele><time>2026-04-12T16:04:15.05Z</time></trkpt><trkpt lat="43.0976552" lon="13.4756521"><ele>332.0</ele><time>2026-04-12T16:04:16.044Z</time></trkpt><trkpt lat="43.0975764" lon="13.4755212"><ele>334.0</ele><time>2026-04-12T16:04:17.043Z</time></trkpt><trkpt lat="43.0975335" lon="13.4753288"><ele>336.0</ele><time>2026-04-12T16:04:18.045Z</time></trkpt><trkpt lat="43.0974974" lon="13.4751285"><ele>338.0</ele><time>2026-04-12T16:04:19.044Z</time></trkpt><trkpt lat="43.0974539" lon="13.4749408"><ele>340.0</ele><time>2026-04-12T16:04:20.044Z</time></trkpt><trkpt lat="43.0974093" lon="13.4747308"><ele>332.3333333333333</ele><time>2026-04-12T16:04:21.044Z</time></trkpt><trkpt lat="43.097356" lon="13.4745115"><ele>324.6666666666667</ele><time>2026-04-12T16:04:22.038Z</time></trkpt><trkpt lat="43.0973023" lon="13.4742993"><ele>317.0</ele><time>2026-04-12T16:04:23.036Z</time></trkpt><trkpt lat="43.0972491" lon="13.4740838"><ele>317.0</ele><time>2026-04-12T16:04:24.043Z</time></trkpt><trkpt lat="43.0971971" lon="13.4738814"><ele>317.0</ele><time>2026-04-12T16:04:25.038Z</time></trkpt><trkpt lat="43.0971484" lon="13.4736864"><ele>317.0</ele><time>2026-04-12T16:04:26.043Z</time></trkpt><trkpt lat="43.0971009" lon="13.4735017"><ele>318.25</ele><time>2026-04-12T16:04:27.039Z</time></trkpt><trkpt lat="43.0970584" lon="13.4733207"><ele>319.5</ele><time>2026-04-12T16:04:28.04Z</time></trkpt><trkpt lat="43.0970332" lon="13.4731349"><ele>320.75</ele><time>2026-04-12T16:04:29.041Z</time></trkpt><trkpt lat="43.0970248" lon="13.4729357"><ele>322.0</ele><time>2026-04-12T16:04:30.043Z</time></trkpt><trkpt lat="43.0970232" lon="13.4727315"><ele>322.0</ele><time>2026-04-12T16:04:31.049Z</time></trkpt><trkpt lat="43.0970412" lon="13.4725206"><ele>322.0</ele><time>2026-04-12T16:04:32.041Z</time></trkpt><trkpt lat="43.0970183" lon="13.4723143"><ele>322.0</ele><time>2026-04-12T16:04:33.046Z</time></trkpt><trkpt lat="43.0969736" lon="13.4721093"><ele>323.5</ele><time>2026-04-12T16:04:34.043Z</time></trkpt><trkpt lat="43.0969043" lon="13.4719171"><ele>325.0</ele><time>2026-04-12T16:04:35.041Z</time></trkpt><trkpt lat="43.0968202" lon="13.4717466"><ele>326.5</ele><time>2026-04-12T16:04:36.039Z</time></trkpt><trkpt lat="43.096742" lon="13.4715934"><ele>328.0</ele><time>2026-04-12T16:04:37.041Z</time></trkpt><trkpt lat="43.0966684" lon="13.4714551"><ele>328.0</ele><time>2026-04-12T16:04:38.045Z</time></trkpt><trkpt lat="43.0965921" lon="13.4713448"><ele>328.0</ele><time>2026-04-12T16:04:39.04Z</time></trkpt><trkpt lat="43.0964985" lon="13.4712961"><ele>328.0</ele><time>2026-04-12T16:04:40.049Z</time></trkpt><trkpt lat="43.0963934" lon="13.4713138"><ele>328.0</ele><time>2026-04-12T16:04:41.044Z</time></trkpt><trkpt lat="43.0962793" lon="13.4713974"><ele>328.0</ele><time>2026-04-12T16:04:42.041Z</time></trkpt><trkpt lat="43.0961603" lon="13.4715274"><ele>327.0</ele><time>2026-04-12T16:04:43.044Z</time></trkpt><trkpt lat="43.0960413" lon="13.4716714"><ele>326.0</ele><time>2026-04-12T16:04:44.044Z</time></trkpt><trkpt lat="43.0959258" lon="13.4718144"><ele>325.0</ele><time>2026-04-12T16:04:45.061Z</time></trkpt><trkpt lat="43.0958139" lon="13.4719377"><ele>324.75</ele><time>2026-04-12T16:04:46.04Z</time></trkpt><trkpt lat="43.0956916" lon="13.4720189"><ele>324.5</ele><time>2026-04-12T16:04:47.044Z</time></trkpt><trkpt lat="43.0955504" lon="13.4720457"><ele>324.25</ele><time>2026-04-12T16:04:48.047Z</time></trkpt><trkpt lat="43.0953967" lon="13.4720507"><ele>324.0</ele><time>2026-04-12T16:04:49.046Z</time></trkpt><trkpt lat="43.095245" lon="13.4720076"><ele>324.0</ele><time>2026-04-12T16:04:50.046Z</time></trkpt><trkpt lat="43.0950792" lon="13.4719893"><ele>324.0</ele><time>2026-04-12T16:04:51.041Z</time></trkpt><trkpt lat="43.0949226" lon="13.472003"><ele>324.0</ele><time>2026-04-12T16:04:52.043Z</time></trkpt><trkpt lat="43.0947775" lon="13.4720587"><ele>319.25</ele><time>2026-04-12T16:04:53.044Z</time></trkpt><trkpt lat="43.0946445" lon="13.4721334"><ele>314.5</ele><time>2026-04-12T16:04:54.041Z</time></trkpt><trkpt lat="43.0945114" lon="13.4721803"><ele>309.75</ele><time>2026-04-12T16:04:55.073Z</time></trkpt><trkpt lat="43.0943715" lon="13.4721733"><ele>305.0</ele><time>2026-04-12T16:04:56.039Z</time></trkpt><trkpt lat="43.094229" lon="13.4721075"><ele>304.0</ele><time>2026-04-12T16:04:57.041Z</time></trkpt><trkpt lat="43.0940985" lon="13.4720098"><ele>303.0</ele><time>2026-04-12T16:04:58.037Z</time></trkpt><trkpt lat="43.0939728" lon="13.4718821"><ele>302.0</ele><time>2026-04-12T16:04:59.038Z</time></trkpt><trkpt lat="43.0938525" lon="13.4717359"><ele>302.0</ele><time>2026-04-12T16:05:00.043Z</time></trkpt><trkpt lat="43.0937437" lon="13.4715693"><ele>302.0</ele><time>2026-04-12T16:05:01.043Z</time></trkpt><trkpt lat="43.0936514" lon="13.4713936"><ele>302.0</ele><time>2026-04-12T16:05:02.041Z</time></trkpt><trkpt lat="43.0935706" lon="13.4712142"><ele>303.5</ele><time>2026-04-12T16:05:03.038Z</time></trkpt><trkpt lat="43.0935033" lon="13.4710374"><ele>305.0</ele><time>2026-04-12T16:05:04.04Z</time></trkpt><trkpt lat="43.0934407" lon="13.4708705"><ele>306.5</ele><time>2026-04-12T16:05:05.047Z</time></trkpt><trkpt lat="43.0933807" lon="13.470722"><ele>308.0</ele><time>2026-04-12T16:05:06.044Z</time></trkpt><trkpt lat="43.093321" lon="13.4706008"><ele>306.1666666666667</ele><time>2026-04-12T16:05:07.046Z</time></trkpt><trkpt lat="43.0932547" lon="13.47053"><ele>304.33333333333337</ele><time>2026-04-12T16:05:08.041Z</time></trkpt><trkpt lat="43.0931845" lon="13.4705154"><ele>302.5</ele><time>2026-04-12T16:05:09.043Z</time></trkpt><trkpt lat="43.0931083" lon="13.4706307"><ele>300.6666666666667</ele><time>2026-04-12T16:05:11.04Z</time></trkpt><trkpt lat="43.0931188" lon="13.4707326"><ele>298.8333333333333</ele><time>2026-04-12T16:05:12.078Z</time></trkpt><trkpt lat="43.0931497" lon="13.4708567"><ele>297.0</ele><time>2026-04-12T16:05:13.043Z</time></trkpt><trkpt lat="43.09319" lon="13.4709951"><ele>297.0</ele><time>2026-04-12T16:05:14.045Z</time></trkpt><trkpt lat="43.0932364" lon="13.4711463"><ele>297.0</ele><time>2026-04-12T16:05:15.045Z</time></trkpt><trkpt lat="43.0932847" lon="13.4713008"><ele>297.0</ele><time>2026-04-12T16:05:16.043Z</time></trkpt><trkpt lat="43.0933378" lon="13.4714618"><ele>297.0</ele><time>2026-04-12T16:05:17.042Z</time></trkpt><trkpt lat="43.0933963" lon="13.4716278"><ele>296.0</ele><time>2026-04-12T16:05:18.041Z</time></trkpt><trkpt lat="43.0934639" lon="13.471794"><ele>295.0</ele><time>2026-04-12T16:05:19.046Z</time></trkpt><trkpt lat="43.0935364" lon="13.4719601"><ele>294.0</ele><time>2026-04-12T16:05:20.044Z</time></trkpt><trkpt lat="43.0936126" lon="13.4721255"><ele>293.0</ele><time>2026-04-12T16:05:21.047Z</time></trkpt><trkpt lat="43.09369" lon="13.4722857"><ele>293.0</ele><time>2026-04-12T16:05:22.043Z</time></trkpt><trkpt lat="43.0937678" lon="13.4724398"><ele>293.0</ele><time>2026-04-12T16:05:23.043Z</time></trkpt><trkpt lat="43.0938455" lon="13.4725882"><ele>293.0</ele><time>2026-04-12T16:05:24.043Z</time></trkpt><trkpt lat="43.0939224" lon="13.4727299"><ele>293.0</ele><time>2026-04-12T16:05:25.043Z</time></trkpt><trkpt lat="43.0939946" lon="13.4728655"><ele>293.25</ele><time>2026-04-12T16:05:26.045Z</time></trkpt><trkpt lat="43.094065" lon="13.4729977"><ele>293.5</ele><time>2026-04-12T16:05:27.039Z</time></trkpt><trkpt lat="43.0941377" lon="13.4731296"><ele>293.75</ele><time>2026-04-12T16:05:28.043Z</time></trkpt><trkpt lat="43.0942103" lon="13.4732624"><ele>294.0</ele><time>2026-04-12T16:05:29.045Z</time></trkpt><trkpt lat="43.0942918" lon="13.4733905"><ele>294.0</ele><time>2026-04-12T16:05:30.044Z</time></trkpt><trkpt lat="43.0943861" lon="13.4735179"><ele>294.0</ele><time>2026-04-12T16:05:31.041Z</time></trkpt><trkpt lat="43.0944702" lon="13.4736413"><ele>294.0</ele><time>2026-04-12T16:05:32.042Z</time></trkpt><trkpt lat="43.0945506" lon="13.4737579"><ele>294.0</ele><time>2026-04-12T16:05:33.042Z</time></trkpt><trkpt lat="43.094632" lon="13.4738602"><ele>293.0</ele><time>2026-04-12T16:05:34.041Z</time></trkpt><trkpt lat="43.0947133" lon="13.4739503"><ele>292.0</ele><time>2026-04-12T16:05:35.041Z</time></trkpt><trkpt lat="43.0948067" lon="13.4740121"><ele>291.0</ele><time>2026-04-12T16:05:36.039Z</time></trkpt><trkpt lat="43.0949104" lon="13.4740276"><ele>290.0</ele><time>2026-04-12T16:05:37.042Z</time></trkpt><trkpt lat="43.0950167" lon="13.4739891"><ele>289.0</ele><time>2026-04-12T16:05:38.041Z</time></trkpt><trkpt lat="43.0951184" lon="13.4739024"><ele>288.75</ele><time>2026-04-12T16:05:39.04Z</time></trkpt><trkpt lat="43.0952215" lon="13.4737926"><ele>288.5</ele><time>2026-04-12T16:05:40.041Z</time></trkpt><trkpt lat="43.0953299" lon="13.4736784"><ele>288.25</ele><time>2026-04-12T16:05:41.039Z</time></trkpt><trkpt lat="43.0954339" lon="13.4735731"><ele>288.0</ele><time>2026-04-12T16:05:42.043Z</time></trkpt><trkpt lat="43.0955262" lon="13.4734768"><ele>289.6666666666667</ele><time>2026-04-12T16:05:43.039Z</time></trkpt><trkpt lat="43.0956114" lon="13.4733957"><ele>291.3333333333333</ele><time>2026-04-12T16:05:44.042Z</time></trkpt><trkpt lat="43.0956952" lon="13.4733411"><ele>293.0</ele><time>2026-04-12T16:05:45.039Z</time></trkpt><trkpt lat="43.0957777" lon="13.4733334"><ele>294.66666666666663</ele><time>2026-04-12T16:05:46.04Z</time></trkpt><trkpt lat="43.0958437" lon="13.4733731"><ele>296.3333333333333</ele><time>2026-04-12T16:05:47.041Z</time></trkpt><trkpt lat="43.0958792" lon="13.4734552"><ele>298.0</ele><time>2026-04-12T16:05:48.039Z</time></trkpt><trkpt lat="43.0958853" lon="13.473572"><ele>298.75</ele><time>2026-04-12T16:05:49.044Z</time></trkpt><trkpt lat="43.0958747" lon="13.4737165"><ele>299.5</ele><time>2026-04-12T16:05:50.042Z</time></trkpt><trkpt lat="43.0958582" lon="13.4738848"><ele>300.25</ele><time>2026-04-12T16:05:51.038Z</time></trkpt><trkpt lat="43.0958408" lon="13.4740698"><ele>301.0</ele><time>2026-04-12T16:05:52.037Z</time></trkpt><trkpt lat="43.0958221" lon="13.4742734"><ele>297.3333333333333</ele><time>2026-04-12T16:05:53.043Z</time></trkpt><trkpt lat="43.0958009" lon="13.4744924"><ele>293.6666666666667</ele><time>2026-04-12T16:05:54.039Z</time></trkpt><trkpt lat="43.0957766" lon="13.4747161"><ele>290.0</ele><time>2026-04-12T16:05:55.064Z</time></trkpt><trkpt lat="43.0957472" lon="13.4749384"><ele>286.33333333333337</ele><time>2026-04-12T16:05:56.046Z</time></trkpt><trkpt lat="43.095716" lon="13.4751481"><ele>282.6666666666667</ele><time>2026-04-12T16:05:57.044Z</time></trkpt><trkpt lat="43.0956959" lon="13.4753498"><ele>279.0</ele><time>2026-04-12T16:05:58.045Z</time></trkpt><trkpt lat="43.0957043" lon="13.475556"><ele>277.3333333333333</ele><time>2026-04-12T16:05:59.048Z</time></trkpt><trkpt lat="43.0957395" lon="13.47577"><ele>275.66666666666663</ele><time>2026-04-12T16:06:00.049Z</time></trkpt><trkpt lat="43.0957796" lon="13.4759949"><ele>274.0</ele><time>2026-04-12T16:06:01.048Z</time></trkpt><trkpt lat="43.0957986" lon="13.4762304"><ele>272.66666666666663</ele><time>2026-04-12T16:06:02.045Z</time></trkpt><trkpt lat="43.0957866" lon="13.4764686"><ele>271.3333333333333</ele><time>2026-04-12T16:06:03.052Z</time></trkpt><trkpt lat="43.095744" lon="13.4766946"><ele>270.0</ele><time>2026-04-12T16:06:04.044Z</time></trkpt><trkpt lat="43.095683" lon="13.476901"><ele>270.0</ele><time>2026-04-12T16:06:05.045Z</time></trkpt><trkpt lat="43.0956163" lon="13.4770908"><ele>270.0</ele><time>2026-04-12T16:06:06.048Z</time></trkpt><trkpt lat="43.0955616" lon="13.4772755"><ele>270.0</ele><time>2026-04-12T16:06:07.046Z</time></trkpt><trkpt lat="43.0955205" lon="13.4774515"><ele>270.0</ele><time>2026-04-12T16:06:08.044Z</time></trkpt><trkpt lat="43.0955462" lon="13.4776382"><ele>269.6666666666667</ele><time>2026-04-12T16:06:09.042Z</time></trkpt><trkpt lat="43.0956058" lon="13.4778276"><ele>269.33333333333337</ele><time>2026-04-12T16:06:10.042Z</time></trkpt><trkpt lat="43.0956602" lon="13.4780231"><ele>269.0</ele><time>2026-04-12T16:06:11.04Z</time></trkpt><trkpt lat="43.0956991" lon="13.4782467"><ele>268.6666666666667</ele><time>2026-04-12T16:06:12.044Z</time></trkpt><trkpt lat="43.0957413" lon="13.4784804"><ele>268.3333333333333</ele><time>2026-04-12T16:06:13.041Z</time></trkpt><trkpt lat="43.0957691" lon="13.4787388"><ele>268.0</ele><time>2026-04-12T16:06:14.04Z</time></trkpt><trkpt lat="43.0958032" lon="13.4790036"><ele>268.0</ele><time>2026-04-12T16:06:15.042Z</time></trkpt><trkpt lat="43.0958456" lon="13.4792677"><ele>268.0</ele><time>2026-04-12T16:06:16.044Z</time></trkpt><trkpt lat="43.0958935" lon="13.4795374"><ele>268.0</ele><time>2026-04-12T16:06:17.049Z</time></trkpt><trkpt lat="43.0959429" lon="13.479808"><ele>266.66666666666663</ele><time>2026-04-12T16:06:18.039Z</time></trkpt><trkpt lat="43.0959821" lon="13.4800818"><ele>265.3333333333333</ele><time>2026-04-12T16:06:19.045Z</time></trkpt><trkpt lat="43.0960083" lon="13.480356"><ele>264.0</ele><time>2026-04-12T16:06:20.038Z</time></trkpt><trkpt lat="43.0960228" lon="13.4806349"><ele>262.6666666666667</ele><time>2026-04-12T16:06:21.039Z</time></trkpt><trkpt lat="43.0960266" lon="13.4809142"><ele>261.33333333333337</ele><time>2026-04-12T16:06:22.045Z</time></trkpt><trkpt lat="43.0960247" lon="13.481194"><ele>260.0</ele><time>2026-04-12T16:06:23.042Z</time></trkpt><trkpt lat="43.0960205" lon="13.4814669"><ele>258.33333333333337</ele><time>2026-04-12T16:06:24.056Z</time></trkpt><trkpt lat="43.0960152" lon="13.481726"><ele>256.6666666666667</ele><time>2026-04-12T16:06:25.046Z</time></trkpt><trkpt lat="43.0960198" lon="13.4819874"><ele>255.0</ele><time>2026-04-12T16:06:26.046Z</time></trkpt><trkpt lat="43.0960395" lon="13.4822502"><ele>253.33333333333331</ele><time>2026-04-12T16:06:27.04Z</time></trkpt><trkpt lat="43.0960759" lon="13.4825128"><ele>251.66666666666666</ele><time>2026-04-12T16:06:28.04Z</time></trkpt><trkpt lat="43.096133" lon="13.4827712"><ele>250.0</ele><time>2026-04-12T16:06:29.039Z</time></trkpt><trkpt lat="43.096205" lon="13.4830234"><ele>248.33333333333331</ele><time>2026-04-12T16:06:30.038Z</time></trkpt><trkpt lat="43.096276" lon="13.4832803"><ele>246.66666666666669</ele><time>2026-04-12T16:06:31.049Z</time></trkpt><trkpt lat="43.0963552" lon="13.4835387"><ele>245.0</ele><time>2026-04-12T16:06:32.041Z</time></trkpt><trkpt lat="43.0964339" lon="13.483805"><ele>244.0</ele><time>2026-04-12T16:06:33.063Z</time></trkpt><trkpt lat="43.0965056" lon="13.4840743"><ele>243.0</ele><time>2026-04-12T16:06:34.044Z</time></trkpt><trkpt lat="43.0965679" lon="13.4843427"><ele>242.0</ele><time>2026-04-12T16:06:35.042Z</time></trkpt><trkpt lat="43.0966292" lon="13.4846126"><ele>242.0</ele><time>2026-04-12T16:06:36.043Z</time></trkpt><trkpt lat="43.0966846" lon="13.4848846"><ele>242.0</ele><time>2026-04-12T16:06:37.048Z</time></trkpt><trkpt lat="43.0967367" lon="13.4851581"><ele>242.0</ele><time>2026-04-12T16:06:38.046Z</time></trkpt><trkpt lat="43.0967893" lon="13.4854321"><ele>241.0</ele><time>2026-04-12T16:06:39.067Z</time></trkpt><trkpt lat="43.0968447" lon="13.4857031"><ele>240.0</ele><time>2026-04-12T16:06:40.045Z</time></trkpt><trkpt lat="43.0968985" lon="13.4859744"><ele>239.0</ele><time>2026-04-12T16:06:41.043Z</time></trkpt><trkpt lat="43.096951" lon="13.4862408"><ele>238.0</ele><time>2026-04-12T16:06:42.04Z</time></trkpt><trkpt lat="43.0969995" lon="13.4864988"><ele>237.0</ele><time>2026-04-12T16:06:43.048Z</time></trkpt><trkpt lat="43.0970431" lon="13.4867565"><ele>236.0</ele><time>2026-04-12T16:06:44.045Z</time></trkpt><trkpt lat="43.0970791" lon="13.4870146"><ele>236.33333333333334</ele><time>2026-04-12T16:06:45.048Z</time></trkpt><trkpt lat="43.0971166" lon="13.4872648"><ele>236.66666666666669</ele><time>2026-04-12T16:06:46.063Z</time></trkpt><trkpt lat="43.0971416" lon="13.4875322"><ele>237.0</ele><time>2026-04-12T16:06:47.04Z</time></trkpt><trkpt lat="43.0971695" lon="13.4878079"><ele>234.66666666666669</ele><time>2026-04-12T16:06:48.046Z</time></trkpt><trkpt lat="43.0971929" lon="13.4880773"><ele>232.33333333333334</ele><time>2026-04-12T16:06:49.046Z</time></trkpt><trkpt lat="43.0972106" lon="13.4883511"><ele>230.0</ele><time>2026-04-12T16:06:50.041Z</time></trkpt><trkpt lat="43.0972325" lon="13.4886196"><ele>228.33333333333334</ele><time>2026-04-12T16:06:51.049Z</time></trkpt><trkpt lat="43.0972524" lon="13.4888902"><ele>226.66666666666669</ele><time>2026-04-12T16:06:52.037Z</time></trkpt><trkpt lat="43.0972799" lon="13.4891541"><ele>225.0</ele><time>2026-04-12T16:06:53.046Z</time></trkpt><trkpt lat="43.0973263" lon="13.4894054"><ele>224.66666666666669</ele><time>2026-04-12T16:06:54.038Z</time></trkpt><trkpt lat="43.0973836" lon="13.4896518"><ele>224.33333333333334</ele><time>2026-04-12T16:06:55.044Z</time></trkpt><trkpt lat="43.0974509" lon="13.4898919"><ele>224.0</ele><time>2026-04-12T16:06:56.044Z</time></trkpt><trkpt lat="43.0975231" lon="13.4901302"><ele>225.66666666666669</ele><time>2026-04-12T16:06:57.04Z</time></trkpt><trkpt lat="43.0975961" lon="13.4903702"><ele>227.33333333333331</ele><time>2026-04-12T16:06:58.041Z</time></trkpt><trkpt lat="43.0976741" lon="13.4906129"><ele>229.0</ele><time>2026-04-12T16:06:59.043Z</time></trkpt><trkpt lat="43.0977468" lon="13.4908498"><ele>229.0</ele><time>2026-04-12T16:07:00.035Z</time></trkpt><trkpt lat="43.0978155" lon="13.4910801"><ele>229.0</ele><time>2026-04-12T16:07:01.045Z</time></trkpt><trkpt lat="43.0978746" lon="13.4913077"><ele>229.0</ele><time>2026-04-12T16:07:02.043Z</time></trkpt><trkpt lat="43.0979414" lon="13.4915385"><ele>227.66666666666666</ele><time>2026-04-12T16:07:03.049Z</time></trkpt><trkpt lat="43.0980169" lon="13.4917682"><ele>226.33333333333331</ele><time>2026-04-12T16:07:04.043Z</time></trkpt><trkpt lat="43.0981089" lon="13.4919885"><ele>225.0</ele><time>2026-04-12T16:07:05.039Z</time></trkpt><trkpt lat="43.0982219" lon="13.4921885"><ele>224.33333333333331</ele><time>2026-04-12T16:07:06.045Z</time></trkpt><trkpt lat="43.0983369" lon="13.4923809"><ele>223.66666666666666</ele><time>2026-04-12T16:07:07.042Z</time></trkpt><trkpt lat="43.0984614" lon="13.4925618"><ele>223.0</ele><time>2026-04-12T16:07:08.045Z</time></trkpt><trkpt lat="43.0985789" lon="13.4927425"><ele>221.66666666666666</ele><time>2026-04-12T16:07:09.04Z</time></trkpt><trkpt lat="43.0987006" lon="13.4929272"><ele>220.33333333333331</ele><time>2026-04-12T16:07:10.035Z</time></trkpt><trkpt lat="43.0988184" lon="13.4931126"><ele>219.0</ele><time>2026-04-12T16:07:11.041Z</time></trkpt><trkpt lat="43.0989328" lon="13.4932908"><ele>219.0</ele><time>2026-04-12T16:07:12.043Z</time></trkpt><trkpt lat="43.099035" lon="13.4934704"><ele>219.0</ele><time>2026-04-12T16:07:13.037Z</time></trkpt><trkpt lat="43.0991264" lon="13.4936321"><ele>219.0</ele><time>2026-04-12T16:07:14.035Z</time></trkpt><trkpt lat="43.0992157" lon="13.4937872"><ele>218.0</ele><time>2026-04-12T16:07:15.045Z</time></trkpt><trkpt lat="43.09929" lon="13.493927"><ele>217.0</ele><time>2026-04-12T16:07:16.042Z</time></trkpt><trkpt lat="43.0993612" lon="13.4940518"><ele>216.0</ele><time>2026-04-12T16:07:17.047Z</time></trkpt><trkpt lat="43.0994388" lon="13.494169"><ele>215.0</ele><time>2026-04-12T16:07:18.043Z</time></trkpt><trkpt lat="43.0995212" lon="13.4943023"><ele>215.0</ele><time>2026-04-12T16:07:19.034Z</time></trkpt><trkpt lat="43.0995955" lon="13.4944573"><ele>215.0</ele><time>2026-04-12T16:07:20.068Z</time></trkpt><trkpt lat="43.0996754" lon="13.4946196"><ele>215.0</ele><time>2026-04-12T16:07:21.043Z</time></trkpt><trkpt lat="43.0997613" lon="13.494781"><ele>215.0</ele><time>2026-04-12T16:07:22.042Z</time></trkpt><trkpt lat="43.0998364" lon="13.4949391"><ele>214.75</ele><time>2026-04-12T16:07:23.044Z</time></trkpt><trkpt lat="43.0998877" lon="13.4951039"><ele>214.5</ele><time>2026-04-12T16:07:24.037Z</time></trkpt><trkpt lat="43.0999143" lon="13.4952665"><ele>214.25</ele><time>2026-04-12T16:07:25.048Z</time></trkpt><trkpt lat="43.0999154" lon="13.4954325"><ele>214.0</ele><time>2026-04-12T16:07:26.039Z</time></trkpt><trkpt lat="43.099905" lon="13.4956055"><ele>213.25</ele><time>2026-04-12T16:07:27.039Z</time></trkpt><trkpt lat="43.0998971" lon="13.4957906"><ele>212.5</ele><time>2026-04-12T16:07:28.041Z</time></trkpt><trkpt lat="43.099882" lon="13.4959805"><ele>211.75</ele><time>2026-04-12T16:07:29.04Z</time></trkpt><trkpt lat="43.0998682" lon="13.4961711"><ele>211.0</ele><time>2026-04-12T16:07:30.043Z</time></trkpt><trkpt lat="43.0998588" lon="13.4963638"><ele>210.75</ele><time>2026-04-12T16:07:31.037Z</time></trkpt><trkpt lat="43.0998614" lon="13.4965571"><ele>210.5</ele><time>2026-04-12T16:07:32.041Z</time></trkpt><trkpt lat="43.099882" lon="13.4967491"><ele>210.25</ele><time>2026-04-12T16:07:33.046Z</time></trkpt><trkpt lat="43.0999194" lon="13.4969326"><ele>210.0</ele><time>2026-04-12T16:07:34.044Z</time></trkpt><trkpt lat="43.0999603" lon="13.497103"><ele>210.6</ele><time>2026-04-12T16:07:35.046Z</time></trkpt><trkpt lat="43.0999968" lon="13.4972606"><ele>211.2</ele><time>2026-04-12T16:07:36.043Z</time></trkpt><trkpt lat="43.1000176" lon="13.4973994"><ele>211.8</ele><time>2026-04-12T16:07:37.048Z</time></trkpt><trkpt lat="43.1000402" lon="13.4975141"><ele>212.4</ele><time>2026-04-12T16:07:38.038Z</time></trkpt><trkpt lat="43.1000583" lon="13.4976083"><ele>213.0</ele><time>2026-04-12T16:07:39.057Z</time></trkpt><trkpt lat="43.1000704" lon="13.4977189"><ele>213.0</ele><time>2026-04-12T16:07:41.039Z</time></trkpt><trkpt lat="43.1000561" lon="13.4978176"><ele>213.0</ele><time>2026-04-12T16:07:45.038Z</time></trkpt><trkpt lat="43.1000828" lon="13.4979089"><ele>213.0</ele><time>2026-04-12T16:07:46.041Z</time></trkpt><trkpt lat="43.1001252" lon="13.4980185"><ele>213.0</ele><time>2026-04-12T16:07:47.045Z</time></trkpt><trkpt lat="43.1001745" lon="13.4981471"><ele>213.0</ele><time>2026-04-12T16:07:48.042Z</time></trkpt><trkpt lat="43.1002239" lon="13.4982981"><ele>213.0</ele><time>2026-04-12T16:07:49.04Z</time></trkpt><trkpt lat="43.1002783" lon="13.4984643"><ele>213.0</ele><time>2026-04-12T16:07:50.044Z</time></trkpt><trkpt lat="43.1003323" lon="13.4986463"><ele>213.0</ele><time>2026-04-12T16:07:51.044Z</time></trkpt><trkpt lat="43.1003864" lon="13.4988406"><ele>213.0</ele><time>2026-04-12T16:07:52.037Z</time></trkpt><trkpt lat="43.1004395" lon="13.4990418"><ele>213.0</ele><time>2026-04-12T16:07:53.06Z</time></trkpt><trkpt lat="43.1005015" lon="13.4992501"><ele>213.0</ele><time>2026-04-12T16:07:54.04Z</time></trkpt><trkpt lat="43.1005709" lon="13.4994619"><ele>213.0</ele><time>2026-04-12T16:07:55.043Z</time></trkpt><trkpt lat="43.1006447" lon="13.499676"><ele>212.66666666666669</ele><time>2026-04-12T16:07:56.043Z</time></trkpt><trkpt lat="43.1007213" lon="13.4998955"><ele>212.33333333333334</ele><time>2026-04-12T16:07:57.042Z</time></trkpt><trkpt lat="43.1008013" lon="13.5001185"><ele>212.0</ele><time>2026-04-12T16:07:58.046Z</time></trkpt><trkpt lat="43.1008817" lon="13.5003423"><ele>210.0</ele><time>2026-04-12T16:07:59.047Z</time></trkpt><trkpt lat="43.1009608" lon="13.5005701"><ele>208.0</ele><time>2026-04-12T16:08:00.042Z</time></trkpt><trkpt lat="43.1010362" lon="13.5008014"><ele>206.0</ele><time>2026-04-12T16:08:01.043Z</time></trkpt><trkpt lat="43.101106" lon="13.5010364"><ele>205.0</ele><time>2026-04-12T16:08:02.041Z</time></trkpt><trkpt lat="43.10117" lon="13.5012765"><ele>204.0</ele><time>2026-04-12T16:08:03.045Z</time></trkpt><trkpt lat="43.1012258" lon="13.5015202"><ele>203.0</ele><time>2026-04-12T16:08:04.037Z</time></trkpt><trkpt lat="43.1012736" lon="13.5017659"><ele>203.0</ele><time>2026-04-12T16:08:05.039Z</time></trkpt><trkpt lat="43.1013152" lon="13.5020135"><ele>203.0</ele><time>2026-04-12T16:08:06.037Z</time></trkpt><trkpt lat="43.1013489" lon="13.5022624"><ele>203.0</ele><time>2026-04-12T16:08:07.039Z</time></trkpt><trkpt lat="43.1013753" lon="13.5025117"><ele>204.0</ele><time>2026-04-12T16:08:08.037Z</time></trkpt><trkpt lat="43.1013978" lon="13.5027611"><ele>205.0</ele><time>2026-04-12T16:08:09.037Z</time></trkpt><trkpt lat="43.1014211" lon="13.5030104"><ele>206.0</ele><time>2026-04-12T16:08:10.041Z</time></trkpt><trkpt lat="43.1014436" lon="13.5032603"><ele>206.0</ele><time>2026-04-12T16:08:11.041Z</time></trkpt><trkpt lat="43.1014659" lon="13.5035109"><ele>206.0</ele><time>2026-04-12T16:08:12.058Z</time></trkpt><trkpt lat="43.1014867" lon="13.5037626"><ele>206.0</ele><time>2026-04-12T16:08:13.036Z</time></trkpt><trkpt lat="43.1015031" lon="13.5040152"><ele>205.33333333333334</ele><time>2026-04-12T16:08:14.038Z</time></trkpt><trkpt lat="43.1015164" lon="13.5042699"><ele>204.66666666666669</ele><time>2026-04-12T16:08:15.04Z</time></trkpt><trkpt lat="43.1015248" lon="13.5045221"><ele>204.0</ele><time>2026-04-12T16:08:16.04Z</time></trkpt><trkpt lat="43.1015268" lon="13.5047596"><ele>204.0</ele><time>2026-04-12T16:08:17.044Z</time></trkpt><trkpt lat="43.1015255" lon="13.5049729"><ele>204.0</ele><time>2026-04-12T16:08:18.039Z</time></trkpt><trkpt lat="43.1015213" lon="13.5051569"><ele>204.0</ele><time>2026-04-12T16:08:19.038Z</time></trkpt><trkpt lat="43.101515" lon="13.5053106"><ele>204.0</ele><time>2026-04-12T16:08:20.038Z</time></trkpt><trkpt lat="43.1015086" lon="13.505434"><ele>204.0</ele><time>2026-04-12T16:08:21.039Z</time></trkpt><trkpt lat="43.1015032" lon="13.5055308"><ele>204.0</ele><time>2026-04-12T16:08:22.044Z</time></trkpt><trkpt lat="43.1014909" lon="13.5056969"><ele>204.0</ele><time>2026-04-12T16:08:24.064Z</time></trkpt><trkpt lat="43.1014838" lon="13.5057954"><ele>204.0</ele><time>2026-04-12T16:08:25.04Z</time></trkpt><trkpt lat="43.1014742" lon="13.5059127"><ele>204.0</ele><time>2026-04-12T16:08:26.047Z</time></trkpt><trkpt lat="43.1014613" lon="13.5060518"><ele>204.0</ele><time>2026-04-12T16:08:27.039Z</time></trkpt><trkpt lat="43.1014454" lon="13.5062057"><ele>204.0</ele><time>2026-04-12T16:08:28.043Z</time></trkpt><trkpt lat="43.1014273" lon="13.5063789"><ele>204.0</ele><time>2026-04-12T16:08:29.041Z</time></trkpt><trkpt lat="43.1014097" lon="13.5065676"><ele>204.0</ele><time>2026-04-12T16:08:30.038Z</time></trkpt><trkpt lat="43.1013909" lon="13.5067682"><ele>203.66666666666669</ele><time>2026-04-12T16:08:31.037Z</time></trkpt><trkpt lat="43.1013711" lon="13.5069846"><ele>203.33333333333334</ele><time>2026-04-12T16:08:32.04Z</time></trkpt><trkpt lat="43.1013507" lon="13.5072092"><ele>203.0</ele><time>2026-04-12T16:08:33.041Z</time></trkpt><trkpt lat="43.1013293" lon="13.5074419"><ele>202.66666666666669</ele><time>2026-04-12T16:08:34.038Z</time></trkpt><trkpt lat="43.1013065" lon="13.5076812"><ele>202.33333333333331</ele><time>2026-04-12T16:08:35.053Z</time></trkpt><trkpt lat="43.1012832" lon="13.5079253"><ele>202.0</ele><time>2026-04-12T16:08:36.045Z</time></trkpt><trkpt lat="43.101261" lon="13.5081725"><ele>202.0</ele><time>2026-04-12T16:08:37.039Z</time></trkpt><trkpt lat="43.1012398" lon="13.5084228"><ele>202.0</ele><time>2026-04-12T16:08:38.039Z</time></trkpt><trkpt lat="43.101222" lon="13.5086748"><ele>202.0</ele><time>2026-04-12T16:08:39.04Z</time></trkpt><trkpt lat="43.1012116" lon="13.5089293"><ele>201.66666666666666</ele><time>2026-04-12T16:08:40.048Z</time></trkpt><trkpt lat="43.1012109" lon="13.509184"><ele>201.33333333333331</ele><time>2026-04-12T16:08:41.043Z</time></trkpt><trkpt lat="43.1012214" lon="13.5094367"><ele>201.0</ele><time>2026-04-12T16:08:42.036Z</time></trkpt><trkpt lat="43.1012435" lon="13.5096902"><ele>200.0</ele><time>2026-04-12T16:08:43.046Z</time></trkpt><trkpt lat="43.1012767" lon="13.5099452"><ele>199.0</ele><time>2026-04-12T16:08:44.038Z</time></trkpt><trkpt lat="43.1013188" lon="13.5102019"><ele>198.0</ele><time>2026-04-12T16:08:45.057Z</time></trkpt><trkpt lat="43.1013701" lon="13.5104616"><ele>196.66666666666669</ele><time>2026-04-12T16:08:46.036Z</time></trkpt><trkpt lat="43.1014279" lon="13.5107245"><ele>195.33333333333334</ele><time>2026-04-12T16:08:47.041Z</time></trkpt><trkpt lat="43.1014893" lon="13.5109905"><ele>194.0</ele><time>2026-04-12T16:08:48.038Z</time></trkpt><trkpt lat="43.1015519" lon="13.511261"><ele>195.33333333333334</ele><time>2026-04-12T16:08:49.037Z</time></trkpt><trkpt lat="43.1016144" lon="13.5115356"><ele>196.66666666666669</ele><time>2026-04-12T16:08:50.043Z</time></trkpt><trkpt lat="43.1016771" lon="13.5118144"><ele>198.0</ele><time>2026-04-12T16:08:51.044Z</time></trkpt><trkpt lat="43.1017396" lon="13.5120958"><ele>198.0</ele><time>2026-04-12T16:08:52.038Z</time></trkpt><trkpt lat="43.1018008" lon="13.5123803"><ele>198.0</ele><time>2026-04-12T16:08:53.044Z</time></trkpt><trkpt lat="43.101861" lon="13.5126656"><ele>198.0</ele><time>2026-04-12T16:08:54.037Z</time></trkpt><trkpt lat="43.1019187" lon="13.51295"><ele>196.33333333333331</ele><time>2026-04-12T16:08:55.041Z</time></trkpt><trkpt lat="43.1019743" lon="13.5132349"><ele>194.66666666666666</ele><time>2026-04-12T16:08:56.044Z</time></trkpt><trkpt lat="43.102028" lon="13.5135198"><ele>193.0</ele><time>2026-04-12T16:08:57.035Z</time></trkpt><trkpt lat="43.1020789" lon="13.5138052"><ele>192.66666666666666</ele><time>2026-04-12T16:08:58.04Z</time></trkpt><trkpt lat="43.102128" lon="13.5140914"><ele>192.33333333333331</ele><time>2026-04-12T16:08:59.039Z</time></trkpt><trkpt lat="43.1021763" lon="13.5143782"><ele>192.0</ele><time>2026-04-12T16:09:00.037Z</time></trkpt><trkpt lat="43.1022247" lon="13.5146644"><ele>191.33333333333334</ele><time>2026-04-12T16:09:01.039Z</time></trkpt><trkpt lat="43.1022717" lon="13.5149463"><ele>190.66666666666669</ele><time>2026-04-12T16:09:02.038Z</time></trkpt><trkpt lat="43.1023179" lon="13.5152236"><ele>190.0</ele><time>2026-04-12T16:09:03.039Z</time></trkpt><trkpt lat="43.1023629" lon="13.5154955"><ele>189.66666666666669</ele><time>2026-04-12T16:09:04.041Z</time></trkpt><trkpt lat="43.1024063" lon="13.5157611"><ele>189.33333333333334</ele><time>2026-04-12T16:09:05.035Z</time></trkpt><trkpt lat="43.1024513" lon="13.5160219"><ele>189.0</ele><time>2026-04-12T16:09:06.037Z</time></trkpt><trkpt lat="43.1024955" lon="13.5162792"><ele>189.66666666666666</ele><time>2026-04-12T16:09:07.041Z</time></trkpt><trkpt lat="43.1025391" lon="13.5165325"><ele>190.33333333333331</ele><time>2026-04-12T16:09:08.034Z</time></trkpt><trkpt lat="43.1025826" lon="13.5167834"><ele>191.0</ele><time>2026-04-12T16:09:09.058Z</time></trkpt><trkpt lat="43.1026257" lon="13.5170329"><ele>190.66666666666666</ele><time>2026-04-12T16:09:10.036Z</time></trkpt><trkpt lat="43.1026679" lon="13.5172809"><ele>190.33333333333334</ele><time>2026-04-12T16:09:11.036Z</time></trkpt><trkpt lat="43.1027112" lon="13.5175306"><ele>190.0</ele><time>2026-04-12T16:09:12.05Z</time></trkpt><trkpt lat="43.1027548" lon="13.517783"><ele>189.66666666666669</ele><time>2026-04-12T16:09:13.04Z</time></trkpt><trkpt lat="43.1027989" lon="13.5180391"><ele>189.33333333333334</ele><time>2026-04-12T16:09:14.05Z</time></trkpt><trkpt lat="43.1028441" lon="13.5183001"><ele>189.0</ele><time>2026-04-12T16:09:15.036Z</time></trkpt><trkpt lat="43.1028905" lon="13.5185671"><ele>188.66666666666666</ele><time>2026-04-12T16:09:16.038Z</time></trkpt><trkpt lat="43.1029378" lon="13.5188387"><ele>188.33333333333331</ele><time>2026-04-12T16:09:17.04Z</time></trkpt><trkpt lat="43.1029849" lon="13.519114"><ele>188.0</ele><time>2026-04-12T16:09:18.041Z</time></trkpt><trkpt lat="43.1030305" lon="13.5193901"><ele>187.33333333333331</ele><time>2026-04-12T16:09:19.069Z</time></trkpt><trkpt lat="43.1030736" lon="13.5196658"><ele>186.66666666666666</ele><time>2026-04-12T16:09:20.041Z</time></trkpt><trkpt lat="43.1031127" lon="13.5199401"><ele>186.0</ele><time>2026-04-12T16:09:21.044Z</time></trkpt><trkpt lat="43.1031457" lon="13.5202135"><ele>185.0</ele><time>2026-04-12T16:09:22.041Z</time></trkpt><trkpt lat="43.1031713" lon="13.5204857"><ele>184.0</ele><time>2026-04-12T16:09:23.043Z</time></trkpt><trkpt lat="43.1031888" lon="13.5207513"><ele>183.0</ele><time>2026-04-12T16:09:24.049Z</time></trkpt><trkpt lat="43.1031985" lon="13.5210044"><ele>182.0</ele><time>2026-04-12T16:09:25.047Z</time></trkpt><trkpt lat="43.1032012" lon="13.5212453"><ele>181.0</ele><time>2026-04-12T16:09:26.041Z</time></trkpt><trkpt lat="43.1031991" lon="13.5214719"><ele>180.0</ele><time>2026-04-12T16:09:27.046Z</time></trkpt><trkpt lat="43.103193" lon="13.5216967"><ele>180.0</ele><time>2026-04-12T16:09:28.039Z</time></trkpt><trkpt lat="43.1031835" lon="13.5219181"><ele>180.0</ele><time>2026-04-12T16:09:29.043Z</time></trkpt><trkpt lat="43.1031728" lon="13.5221234"><ele>180.0</ele><time>2026-04-12T16:09:30.043Z</time></trkpt><trkpt lat="43.103162" lon="13.5223221"><ele>180.5</ele><time>2026-04-12T16:09:31.047Z</time></trkpt><trkpt lat="43.1031511" lon="13.5225174"><ele>181.0</ele><time>2026-04-12T16:09:32.04Z</time></trkpt><trkpt lat="43.1031397" lon="13.5227098"><ele>181.5</ele><time>2026-04-12T16:09:33.052Z</time></trkpt><trkpt lat="43.1031279" lon="13.522899"><ele>182.0</ele><time>2026-04-12T16:09:34.046Z</time></trkpt><trkpt lat="43.1031158" lon="13.5230859"><ele>182.5</ele><time>2026-04-12T16:09:35.043Z</time></trkpt><trkpt lat="43.1031033" lon="13.5232722"><ele>183.0</ele><time>2026-04-12T16:09:36.047Z</time></trkpt><trkpt lat="43.1030906" lon="13.5234617"><ele>183.5</ele><time>2026-04-12T16:09:37.048Z</time></trkpt><trkpt lat="43.1030778" lon="13.5236551"><ele>184.0</ele><time>2026-04-12T16:09:38.041Z</time></trkpt><trkpt lat="43.1030646" lon="13.523849"><ele>184.0</ele><time>2026-04-12T16:09:39.045Z</time></trkpt><trkpt lat="43.1030513" lon="13.5240394"><ele>184.0</ele><time>2026-04-12T16:09:40.037Z</time></trkpt><trkpt lat="43.1030383" lon="13.5242268"><ele>184.0</ele><time>2026-04-12T16:09:41.044Z</time></trkpt><trkpt lat="43.103026" lon="13.5244117"><ele>184.0</ele><time>2026-04-12T16:09:42.04Z</time></trkpt><trkpt lat="43.1030136" lon="13.5245974"><ele>184.0</ele><time>2026-04-12T16:09:43.039Z</time></trkpt><trkpt lat="43.1030012" lon="13.5247873"><ele>184.0</ele><time>2026-04-12T16:09:44.072Z</time></trkpt><trkpt lat="43.1029886" lon="13.524982"><ele>184.0</ele><time>2026-04-12T16:09:45.039Z</time></trkpt><trkpt lat="43.1029747" lon="13.5251832"><ele>184.0</ele><time>2026-04-12T16:09:46.045Z</time></trkpt><trkpt lat="43.1029599" lon="13.5253889"><ele>183.66666666666669</ele><time>2026-04-12T16:09:47.045Z</time></trkpt><trkpt lat="43.1029449" lon="13.525596"><ele>183.33333333333334</ele><time>2026-04-12T16:09:48.04Z</time></trkpt><trkpt lat="43.1029309" lon="13.5258063"><ele>183.0</ele><time>2026-04-12T16:09:49.051Z</time></trkpt><trkpt lat="43.1029173" lon="13.526013"><ele>183.0</ele><time>2026-04-12T16:09:50.04Z</time></trkpt><trkpt lat="43.1029043" lon="13.5262084"><ele>183.0</ele><time>2026-04-12T16:09:51.039Z</time></trkpt><trkpt lat="43.1028919" lon="13.526397"><ele>183.0</ele><time>2026-04-12T16:09:52.041Z</time></trkpt><trkpt lat="43.102879" lon="13.5265834"><ele>183.0</ele><time>2026-04-12T16:09:53.044Z</time></trkpt><trkpt lat="43.1028667" lon="13.526771"><ele>182.25</ele><time>2026-04-12T16:09:54.043Z</time></trkpt><trkpt lat="43.1028554" lon="13.5269591"><ele>181.5</ele><time>2026-04-12T16:09:55.036Z</time></trkpt><trkpt lat="43.1028436" lon="13.527148"><ele>180.75</ele><time>2026-04-12T16:09:56.054Z</time></trkpt><trkpt lat="43.1028309" lon="13.5273383"><ele>180.0</ele><time>2026-04-12T16:09:57.042Z</time></trkpt><trkpt lat="43.1028178" lon="13.5275323"><ele>179.66666666666666</ele><time>2026-04-12T16:09:58.042Z</time></trkpt><trkpt lat="43.1028041" lon="13.5277339"><ele>179.33333333333331</ele><time>2026-04-12T16:09:59.045Z</time></trkpt><trkpt lat="43.1027897" lon="13.5279451"><ele>179.0</ele><time>2026-04-12T16:10:00.049Z</time></trkpt><trkpt lat="43.1027753" lon="13.5281651"><ele>179.0</ele><time>2026-04-12T16:10:01.04Z</time></trkpt><trkpt lat="43.1027612" lon="13.528393"><ele>179.0</ele><time>2026-04-12T16:10:02.053Z</time></trkpt><trkpt lat="43.1027473" lon="13.528628"><ele>179.0</ele><time>2026-04-12T16:10:03.043Z</time></trkpt><trkpt lat="43.1027329" lon="13.5288686"><ele>178.66666666666666</ele><time>2026-04-12T16:10:04.039Z</time></trkpt><trkpt lat="43.1027168" lon="13.5291133"><ele>178.33333333333334</ele><time>2026-04-12T16:10:05.041Z</time></trkpt><trkpt lat="43.1026996" lon="13.5293592"><ele>178.0</ele><time>2026-04-12T16:10:06.047Z</time></trkpt><trkpt lat="43.1026792" lon="13.5295992"><ele>176.66666666666669</ele><time>2026-04-12T16:10:07.046Z</time></trkpt><trkpt lat="43.1026479" lon="13.5298385"><ele>175.33333333333334</ele><time>2026-04-12T16:10:08.049Z</time></trkpt><trkpt lat="43.102603" lon="13.5300782"><ele>174.0</ele><time>2026-04-12T16:10:09.048Z</time></trkpt><trkpt lat="43.1025443" lon="13.5303079"><ele>173.33333333333334</ele><time>2026-04-12T16:10:10.04Z</time></trkpt><trkpt lat="43.1024753" lon="13.5305219"><ele>172.66666666666669</ele><time>2026-04-12T16:10:11.05Z</time></trkpt><trkpt lat="43.1023979" lon="13.5307246"><ele>172.0</ele><time>2026-04-12T16:10:12.043Z</time></trkpt><trkpt lat="43.1023154" lon="13.5309204"><ele>171.75</ele><time>2026-04-12T16:10:13.064Z</time></trkpt><trkpt lat="43.102233" lon="13.5311055"><ele>171.5</ele><time>2026-04-12T16:10:14.038Z</time></trkpt><trkpt lat="43.1021567" lon="13.5312778"><ele>171.25</ele><time>2026-04-12T16:10:15.043Z</time></trkpt><trkpt lat="43.1020852" lon="13.5314381"><ele>171.0</ele><time>2026-04-12T16:10:16.042Z</time></trkpt><trkpt lat="43.1020184" lon="13.5315878"><ele>171.0</ele><time>2026-04-12T16:10:17.043Z</time></trkpt><trkpt lat="43.1019566" lon="13.5317291"><ele>171.0</ele><time>2026-04-12T16:10:18.039Z</time></trkpt><trkpt lat="43.1019007" lon="13.5318625"><ele>171.0</ele><time>2026-04-12T16:10:19.046Z</time></trkpt><trkpt lat="43.1018518" lon="13.53199"><ele>171.0</ele><time>2026-04-12T16:10:20.044Z</time></trkpt><trkpt lat="43.1018079" lon="13.5321192"><ele>171.0</ele><time>2026-04-12T16:10:21.045Z</time></trkpt><trkpt lat="43.1017692" lon="13.5322556"><ele>170.8</ele><time>2026-04-12T16:10:22.045Z</time></trkpt><trkpt lat="43.1017367" lon="13.5323982"><ele>170.60000000000002</ele><time>2026-04-12T16:10:23.039Z</time></trkpt><trkpt lat="43.101711" lon="13.532545"><ele>170.4</ele><time>2026-04-12T16:10:24.043Z</time></trkpt><trkpt lat="43.1016927" lon="13.5326961"><ele>170.2</ele><time>2026-04-12T16:10:25.047Z</time></trkpt><trkpt lat="43.1016808" lon="13.5328556"><ele>170.0</ele><time>2026-04-12T16:10:26.039Z</time></trkpt><trkpt lat="43.1016775" lon="13.5330261"><ele>169.5</ele><time>2026-04-12T16:10:27.044Z</time></trkpt><trkpt lat="43.1016854" lon="13.5332068"><ele>169.0</ele><time>2026-04-12T16:10:28.044Z</time></trkpt><trkpt lat="43.1017048" lon="13.5333988"><ele>168.5</ele><time>2026-04-12T16:10:29.037Z</time></trkpt><trkpt lat="43.1017348" lon="13.5336021"><ele>168.0</ele><time>2026-04-12T16:10:30.04Z</time></trkpt><trkpt lat="43.101772" lon="13.5338112"><ele>167.33333333333334</ele><time>2026-04-12T16:10:31.036Z</time></trkpt><trkpt lat="43.1018143" lon="13.5340312"><ele>166.66666666666669</ele><time>2026-04-12T16:10:32.042Z</time></trkpt><trkpt lat="43.1018598" lon="13.5342634"><ele>166.0</ele><time>2026-04-12T16:10:33.044Z</time></trkpt><trkpt lat="43.101906" lon="13.534498"><ele>165.33333333333334</ele><time>2026-04-12T16:10:34.044Z</time></trkpt><trkpt lat="43.1019523" lon="13.5347305"><ele>164.66666666666666</ele><time>2026-04-12T16:10:35.065Z</time></trkpt><trkpt lat="43.101998" lon="13.5349617"><ele>164.0</ele><time>2026-04-12T16:10:36.041Z</time></trkpt><trkpt lat="43.1020433" lon="13.5351909"><ele>164.33333333333331</ele><time>2026-04-12T16:10:37.04Z</time></trkpt><trkpt lat="43.1020883" lon="13.5354184"><ele>164.66666666666666</ele><time>2026-04-12T16:10:38.047Z</time></trkpt><trkpt lat="43.1021339" lon="13.5356457"><ele>165.0</ele><time>2026-04-12T16:10:39.039Z</time></trkpt><trkpt lat="43.1021802" lon="13.5358738"><ele>165.0</ele><time>2026-04-12T16:10:40.05Z</time></trkpt><trkpt lat="43.1022272" lon="13.5361038"><ele>165.0</ele><time>2026-04-12T16:10:41.041Z</time></trkpt><trkpt lat="43.1022748" lon="13.5363364"><ele>165.0</ele><time>2026-04-12T16:10:42.041Z</time></trkpt><trkpt lat="43.102323" lon="13.5365713"><ele>165.0</ele><time>2026-04-12T16:10:43.04Z</time></trkpt><trkpt lat="43.1023716" lon="13.5368086"><ele>165.0</ele><time>2026-04-12T16:10:44.041Z</time></trkpt><trkpt lat="43.102421" lon="13.5370469"><ele>165.0</ele><time>2026-04-12T16:10:45.039Z</time></trkpt><trkpt lat="43.102471" lon="13.5372845"><ele>165.66666666666666</ele><time>2026-04-12T16:10:46.042Z</time></trkpt><trkpt lat="43.1025215" lon="13.53752"><ele>166.33333333333331</ele><time>2026-04-12T16:10:47.041Z</time></trkpt><trkpt lat="43.1025728" lon="13.5377528"><ele>167.0</ele><time>2026-04-12T16:10:48.044Z</time></trkpt><trkpt lat="43.1026242" lon="13.5379798"><ele>167.0</ele><time>2026-04-12T16:10:49.04Z</time></trkpt><trkpt lat="43.1026756" lon="13.5382025"><ele>167.0</ele><time>2026-04-12T16:10:50.039Z</time></trkpt><trkpt lat="43.1027278" lon="13.5384224"><ele>167.0</ele><time>2026-04-12T16:10:51.044Z</time></trkpt><trkpt lat="43.1027808" lon="13.5386409"><ele>167.33333333333331</ele><time>2026-04-12T16:10:52.041Z</time></trkpt><trkpt lat="43.1028334" lon="13.5388549"><ele>167.66666666666666</ele><time>2026-04-12T16:10:53.067Z</time></trkpt><trkpt lat="43.1028828" lon="13.5390557"><ele>168.0</ele><time>2026-04-12T16:10:54.042Z</time></trkpt><trkpt lat="43.1029315" lon="13.5392493"><ele>168.0</ele><time>2026-04-12T16:10:55.043Z</time></trkpt><trkpt lat="43.1029812" lon="13.539442"><ele>168.0</ele><time>2026-04-12T16:10:56.043Z</time></trkpt><trkpt lat="43.1030285" lon="13.5396217"><ele>168.0</ele><time>2026-04-12T16:10:57.042Z</time></trkpt><trkpt lat="43.103072" lon="13.539787"><ele>168.0</ele><time>2026-04-12T16:10:58.071Z</time></trkpt><trkpt lat="43.1031123" lon="13.539937"><ele>167.8</ele><time>2026-04-12T16:10:59.041Z</time></trkpt><trkpt lat="43.1031502" lon="13.5400788"><ele>167.60000000000002</ele><time>2026-04-12T16:11:00.046Z</time></trkpt><trkpt lat="43.103182" lon="13.5402061"><ele>167.39999999999998</ele><time>2026-04-12T16:11:01.045Z</time></trkpt><trkpt lat="43.1032062" lon="13.5403251"><ele>167.2</ele><time>2026-04-12T16:11:02.041Z</time></trkpt><trkpt lat="43.1032175" lon="13.540438"><ele>167.0</ele><time>2026-04-12T16:11:03.045Z</time></trkpt><trkpt lat="43.103218" lon="13.5405437"><ele>166.66666666666666</ele><time>2026-04-12T16:11:04.044Z</time></trkpt><trkpt lat="43.1032275" lon="13.5406501"><ele>166.33333333333331</ele><time>2026-04-12T16:11:05.046Z</time></trkpt><trkpt lat="43.1032583" lon="13.540755"><ele>166.0</ele><time>2026-04-12T16:11:06.046Z</time></trkpt><trkpt lat="43.103311" lon="13.5408514"><ele>165.66666666666666</ele><time>2026-04-12T16:11:07.045Z</time></trkpt><trkpt lat="43.103373" lon="13.5409472"><ele>165.33333333333334</ele><time>2026-04-12T16:11:08.041Z</time></trkpt><trkpt lat="43.1034324" lon="13.5410549"><ele>165.0</ele><time>2026-04-12T16:11:09.044Z</time></trkpt><trkpt lat="43.1034852" lon="13.5411755"><ele>166.0</ele><time>2026-04-12T16:11:10.047Z</time></trkpt><trkpt lat="43.1035365" lon="13.5413036"><ele>167.0</ele><time>2026-04-12T16:11:11.043Z</time></trkpt><trkpt lat="43.1035891" lon="13.5414368"><ele>168.0</ele><time>2026-04-12T16:11:12.066Z</time></trkpt><trkpt lat="43.1036429" lon="13.5415742"><ele>169.0</ele><time>2026-04-12T16:11:13.045Z</time></trkpt><trkpt lat="43.1036962" lon="13.5417097"><ele>170.0</ele><time>2026-04-12T16:11:14.048Z</time></trkpt><trkpt lat="43.1037523" lon="13.5418505"><ele>170.0</ele><time>2026-04-12T16:11:15.044Z</time></trkpt><trkpt lat="43.1038115" lon="13.5419974"><ele>170.0</ele><time>2026-04-12T16:11:16.043Z</time></trkpt><trkpt lat="43.1038725" lon="13.5421472"><ele>170.0</ele><time>2026-04-12T16:11:17.045Z</time></trkpt><trkpt lat="43.1039352" lon="13.5422981"><ele>170.0</ele><time>2026-04-12T16:11:18.043Z</time></trkpt><trkpt lat="43.1039981" lon="13.5424478"><ele>170.0</ele><time>2026-04-12T16:11:19.059Z</time></trkpt><trkpt lat="43.1040606" lon="13.5425968"><ele>170.0</ele><time>2026-04-12T16:11:20.048Z</time></trkpt><trkpt lat="43.1041222" lon="13.5427462"><ele>170.0</ele><time>2026-04-12T16:11:21.048Z</time></trkpt><trkpt lat="43.1041836" lon="13.5428957"><ele>170.0</ele><time>2026-04-12T16:11:22.045Z</time></trkpt><trkpt lat="43.1042454" lon="13.5430452"><ele>170.0</ele><time>2026-04-12T16:11:23.047Z</time></trkpt><trkpt lat="43.1043075" lon="13.5431942"><ele>170.0</ele><time>2026-04-12T16:11:24.042Z</time></trkpt><trkpt lat="43.1043687" lon="13.5433399"><ele>170.0</ele><time>2026-04-12T16:11:25.046Z</time></trkpt><trkpt lat="43.1044302" lon="13.5434898"><ele>170.0</ele><time>2026-04-12T16:11:26.039Z</time></trkpt><trkpt lat="43.1044925" lon="13.5436405"><ele>169.5</ele><time>2026-04-12T16:11:27.036Z</time></trkpt><trkpt lat="43.104554" lon="13.5437905"><ele>169.0</ele><time>2026-04-12T16:11:28.035Z</time></trkpt><trkpt lat="43.1046151" lon="13.5439403"><ele>168.5</ele><time>2026-04-12T16:11:29.042Z</time></trkpt><trkpt lat="43.1046775" lon="13.5440902"><ele>168.0</ele><time>2026-04-12T16:11:30.045Z</time></trkpt><trkpt lat="43.10474" lon="13.5442399"><ele>168.0</ele><time>2026-04-12T16:11:31.035Z</time></trkpt><trkpt lat="43.1048035" lon="13.5443888"><ele>168.0</ele><time>2026-04-12T16:11:32.073Z</time></trkpt><trkpt lat="43.1048683" lon="13.5445391"><ele>168.0</ele><time>2026-04-12T16:11:33.038Z</time></trkpt><trkpt lat="43.104932" lon="13.5446911"><ele>168.0</ele><time>2026-04-12T16:11:34.035Z</time></trkpt><trkpt lat="43.104995" lon="13.5448454"><ele>168.0</ele><time>2026-04-12T16:11:35.037Z</time></trkpt><trkpt lat="43.1050587" lon="13.5450009"><ele>168.0</ele><time>2026-04-12T16:11:36.039Z</time></trkpt><trkpt lat="43.1051242" lon="13.5451569"><ele>168.0</ele><time>2026-04-12T16:11:37.04Z</time></trkpt><trkpt lat="43.1051912" lon="13.5453147"><ele>168.0</ele><time>2026-04-12T16:11:38.042Z</time></trkpt><trkpt lat="43.105259" lon="13.5454732"><ele>168.0</ele><time>2026-04-12T16:11:39.035Z</time></trkpt><trkpt lat="43.1053283" lon="13.5456338"><ele>168.0</ele><time>2026-04-12T16:11:40.036Z</time></trkpt><trkpt lat="43.1053966" lon="13.5457967"><ele>168.0</ele><time>2026-04-12T16:11:41.037Z</time></trkpt><trkpt lat="43.1054649" lon="13.5459622"><ele>168.0</ele><time>2026-04-12T16:11:42.038Z</time></trkpt><trkpt lat="43.105533" lon="13.546129"><ele>167.5</ele><time>2026-04-12T16:11:43.047Z</time></trkpt><trkpt lat="43.105601" lon="13.5462963"><ele>167.0</ele><time>2026-04-12T16:11:44.04Z</time></trkpt><trkpt lat="43.1056693" lon="13.5464627"><ele>166.5</ele><time>2026-04-12T16:11:45.044Z</time></trkpt><trkpt lat="43.1057387" lon="13.5466279"><ele>166.0</ele><time>2026-04-12T16:11:46.04Z</time></trkpt><trkpt lat="43.1058084" lon="13.5467912"><ele>165.75</ele><time>2026-04-12T16:11:47.046Z</time></trkpt><trkpt lat="43.1058772" lon="13.5469536"><ele>165.5</ele><time>2026-04-12T16:11:48.044Z</time></trkpt><trkpt lat="43.1059446" lon="13.5471156"><ele>165.25</ele><time>2026-04-12T16:11:49.035Z</time></trkpt><trkpt lat="43.1060113" lon="13.5472779"><ele>165.0</ele><time>2026-04-12T16:11:50.044Z</time></trkpt><trkpt lat="43.1060775" lon="13.5474401"><ele>165.0</ele><time>2026-04-12T16:11:51.038Z</time></trkpt><trkpt lat="43.1061446" lon="13.5476022"><ele>165.0</ele><time>2026-04-12T16:11:52.043Z</time></trkpt><trkpt lat="43.1062121" lon="13.5477637"><ele>165.0</ele><time>2026-04-12T16:11:53.037Z</time></trkpt><trkpt lat="43.1062787" lon="13.5479254"><ele>165.0</ele><time>2026-04-12T16:11:54.045Z</time></trkpt><trkpt lat="43.1063445" lon="13.5480872"><ele>165.25</ele><time>2026-04-12T16:11:55.042Z</time></trkpt><trkpt lat="43.1064105" lon="13.5482467"><ele>165.5</ele><time>2026-04-12T16:11:56.043Z</time></trkpt><trkpt lat="43.1064774" lon="13.548405"><ele>165.75</ele><time>2026-04-12T16:11:57.04Z</time></trkpt><trkpt lat="43.1065447" lon="13.5485638"><ele>166.0</ele><time>2026-04-12T16:11:58.044Z</time></trkpt><trkpt lat="43.1066115" lon="13.5487246"><ele>166.5</ele><time>2026-04-12T16:11:59.052Z</time></trkpt><trkpt lat="43.106678" lon="13.5488874"><ele>167.0</ele><time>2026-04-12T16:12:00.046Z</time></trkpt><trkpt lat="43.1067448" lon="13.5490515"><ele>167.5</ele><time>2026-04-12T16:12:01.046Z</time></trkpt><trkpt lat="43.1068119" lon="13.5492165"><ele>168.0</ele><time>2026-04-12T16:12:02.035Z</time></trkpt><trkpt lat="43.1068798" lon="13.5493817"><ele>168.0</ele><time>2026-04-12T16:12:03.043Z</time></trkpt><trkpt lat="43.1069453" lon="13.5495411"><ele>168.0</ele><time>2026-04-12T16:12:04.039Z</time></trkpt><trkpt lat="43.1070091" lon="13.5496988"><ele>168.0</ele><time>2026-04-12T16:12:05.034Z</time></trkpt><trkpt lat="43.1070729" lon="13.5498575"><ele>168.0</ele><time>2026-04-12T16:12:06.039Z</time></trkpt><trkpt lat="43.1071377" lon="13.5500144"><ele>167.75</ele><time>2026-04-12T16:12:07.042Z</time></trkpt><trkpt lat="43.1072021" lon="13.5501681"><ele>167.5</ele><time>2026-04-12T16:12:08.042Z</time></trkpt><trkpt lat="43.1072657" lon="13.5503225"><ele>167.25</ele><time>2026-04-12T16:12:09.051Z</time></trkpt><trkpt lat="43.107329" lon="13.5504761"><ele>167.0</ele><time>2026-04-12T16:12:10.038Z</time></trkpt><trkpt lat="43.1073948" lon="13.5506331"><ele>166.75</ele><time>2026-04-12T16:12:11.044Z</time></trkpt><trkpt lat="43.1074624" lon="13.5507927"><ele>166.5</ele><time>2026-04-12T16:12:12.037Z</time></trkpt><trkpt lat="43.1075298" lon="13.5509529"><ele>166.25</ele><time>2026-04-12T16:12:13.045Z</time></trkpt><trkpt lat="43.1075938" lon="13.5511116"><ele>166.0</ele><time>2026-04-12T16:12:14.037Z</time></trkpt><trkpt lat="43.1076559" lon="13.551269"><ele>165.5</ele><time>2026-04-12T16:12:15.04Z</time></trkpt><trkpt lat="43.1077186" lon="13.551427"><ele>165.0</ele><time>2026-04-12T16:12:16.041Z</time></trkpt><trkpt lat="43.1077828" lon="13.5515863"><ele>164.5</ele><time>2026-04-12T16:12:17.041Z</time></trkpt><trkpt lat="43.1078473" lon="13.5517485"><ele>164.0</ele><time>2026-04-12T16:12:18.045Z</time></trkpt><trkpt lat="43.1079104" lon="13.5519124"><ele>163.75</ele><time>2026-04-12T16:12:19.044Z</time></trkpt><trkpt lat="43.1079718" lon="13.5520768"><ele>163.5</ele><time>2026-04-12T16:12:20.036Z</time></trkpt><trkpt lat="43.108033" lon="13.5522401"><ele>163.25</ele><time>2026-04-12T16:12:21.04Z</time></trkpt><trkpt lat="43.1080941" lon="13.5524025"><ele>163.0</ele><time>2026-04-12T16:12:22.043Z</time></trkpt><trkpt lat="43.1081551" lon="13.552563"><ele>163.0</ele><time>2026-04-12T16:12:23.046Z</time></trkpt><trkpt lat="43.1082155" lon="13.5527219"><ele>163.0</ele><time>2026-04-12T16:12:24.04Z</time></trkpt><trkpt lat="43.1082747" lon="13.5528784"><ele>163.0</ele><time>2026-04-12T16:12:25.058Z</time></trkpt><trkpt lat="43.1083323" lon="13.5530298"><ele>163.0</ele><time>2026-04-12T16:12:26.04Z</time></trkpt><trkpt lat="43.1083874" lon="13.553175"><ele>163.0</ele><time>2026-04-12T16:12:27.042Z</time></trkpt><trkpt lat="43.1084391" lon="13.5533103"><ele>163.0</ele><time>2026-04-12T16:12:28.039Z</time></trkpt><trkpt lat="43.1084859" lon="13.5534323"><ele>163.0</ele><time>2026-04-12T16:12:29.045Z</time></trkpt><trkpt lat="43.1085311" lon="13.55355"><ele>163.0</ele><time>2026-04-12T16:12:30.041Z</time></trkpt><trkpt lat="43.1085775" lon="13.5536698"><ele>163.0</ele><time>2026-04-12T16:12:31.051Z</time></trkpt><trkpt lat="43.1086264" lon="13.5537934"><ele>162.75</ele><time>2026-04-12T16:12:32.044Z</time></trkpt><trkpt lat="43.1086785" lon="13.5539251"><ele>162.5</ele><time>2026-04-12T16:12:33.044Z</time></trkpt><trkpt lat="43.1087336" lon="13.5540663"><ele>162.25</ele><time>2026-04-12T16:12:34.04Z</time></trkpt><trkpt lat="43.1087899" lon="13.5542102"><ele>162.0</ele><time>2026-04-12T16:12:35.045Z</time></trkpt><trkpt lat="43.1088478" lon="13.5543519"><ele>162.0</ele><time>2026-04-12T16:12:36.039Z</time></trkpt><trkpt lat="43.1089082" lon="13.5544979"><ele>162.0</ele><time>2026-04-12T16:12:37.044Z</time></trkpt><trkpt lat="43.1089709" lon="13.5546481"><ele>162.0</ele><time>2026-04-12T16:12:38.04Z</time></trkpt><trkpt lat="43.1090354" lon="13.5548014"><ele>162.0</ele><time>2026-04-12T16:12:39.048Z</time></trkpt><trkpt lat="43.1091028" lon="13.5549565"><ele>162.25</ele><time>2026-04-12T16:12:40.044Z</time></trkpt><trkpt lat="43.1091732" lon="13.5551143"><ele>162.5</ele><time>2026-04-12T16:12:41.043Z</time></trkpt><trkpt lat="43.1092473" lon="13.5552772"><ele>162.75</ele><time>2026-04-12T16:12:42.04Z</time></trkpt><trkpt lat="43.1093253" lon="13.5554484"><ele>163.0</ele><time>2026-04-12T16:12:43.039Z</time></trkpt><trkpt lat="43.1094062" lon="13.5556273"><ele>163.0</ele><time>2026-04-12T16:12:44.06Z</time></trkpt><trkpt lat="43.1094881" lon="13.5558086"><ele>163.0</ele><time>2026-04-12T16:12:45.037Z</time></trkpt><trkpt lat="43.10957" lon="13.5559881"><ele>163.0</ele><time>2026-04-12T16:12:46.041Z</time></trkpt><trkpt lat="43.1096506" lon="13.556166"><ele>162.75</ele><time>2026-04-12T16:12:47.041Z</time></trkpt><trkpt lat="43.1097298" lon="13.5563413"><ele>162.5</ele><time>2026-04-12T16:12:48.045Z</time></trkpt><trkpt lat="43.1098068" lon="13.5565107"><ele>162.25</ele><time>2026-04-12T16:12:49.042Z</time></trkpt><trkpt lat="43.1098817" lon="13.5566744"><ele>162.0</ele><time>2026-04-12T16:12:50.043Z</time></trkpt><trkpt lat="43.1099549" lon="13.5568354"><ele>162.0</ele><time>2026-04-12T16:12:51.043Z</time></trkpt><trkpt lat="43.1100279" lon="13.5569951"><ele>162.0</ele><time>2026-04-12T16:12:52.05Z</time></trkpt><trkpt lat="43.110101" lon="13.5571564"><ele>162.0</ele><time>2026-04-12T16:12:53.042Z</time></trkpt><trkpt lat="43.1101747" lon="13.5573194"><ele>162.0</ele><time>2026-04-12T16:12:54.047Z</time></trkpt><trkpt lat="43.1102491" lon="13.5574831"><ele>161.75</ele><time>2026-04-12T16:12:55.043Z</time></trkpt><trkpt lat="43.1103213" lon="13.5576419"><ele>161.5</ele><time>2026-04-12T16:12:56.039Z</time></trkpt><trkpt lat="43.1103916" lon="13.5577943"><ele>161.25</ele><time>2026-04-12T16:12:57.038Z</time></trkpt><trkpt lat="43.110461" lon="13.5579446"><ele>161.0</ele><time>2026-04-12T16:12:58.04Z</time></trkpt><trkpt lat="43.1105292" lon="13.5580954"><ele>161.0</ele><time>2026-04-12T16:12:59.041Z</time></trkpt><trkpt lat="43.1105966" lon="13.5582466"><ele>161.0</ele><time>2026-04-12T16:13:00.042Z</time></trkpt><trkpt lat="43.1106634" lon="13.5583967"><ele>161.0</ele><time>2026-04-12T16:13:01.048Z</time></trkpt><trkpt lat="43.1107299" lon="13.5585458"><ele>161.0</ele><time>2026-04-12T16:13:02.043Z</time></trkpt><trkpt lat="43.1107969" lon="13.5586927"><ele>161.25</ele><time>2026-04-12T16:13:03.049Z</time></trkpt><trkpt lat="43.1108644" lon="13.5588386"><ele>161.5</ele><time>2026-04-12T16:13:04.042Z</time></trkpt><trkpt lat="43.1109302" lon="13.558984"><ele>161.75</ele><time>2026-04-12T16:13:05.042Z</time></trkpt><trkpt lat="43.1109949" lon="13.5591285"><ele>162.0</ele><time>2026-04-12T16:13:06.043Z</time></trkpt><trkpt lat="43.1110587" lon="13.5592723"><ele>162.0</ele><time>2026-04-12T16:13:07.04Z</time></trkpt><trkpt lat="43.1111219" lon="13.5594155"><ele>162.0</ele><time>2026-04-12T16:13:08.043Z</time></trkpt><trkpt lat="43.1111849" lon="13.5595582"><ele>162.0</ele><time>2026-04-12T16:13:09.042Z</time></trkpt><trkpt lat="43.1112488" lon="13.5597004"><ele>162.0</ele><time>2026-04-12T16:13:10.063Z</time></trkpt><trkpt lat="43.1113132" lon="13.5598421"><ele>161.75</ele><time>2026-04-12T16:13:11.04Z</time></trkpt><trkpt lat="43.1113788" lon="13.559984"><ele>161.5</ele><time>2026-04-12T16:13:12.047Z</time></trkpt><trkpt lat="43.1114456" lon="13.5601244"><ele>161.25</ele><time>2026-04-12T16:13:13.041Z</time></trkpt><trkpt lat="43.1115133" lon="13.5602613"><ele>161.0</ele><time>2026-04-12T16:13:14.04Z</time></trkpt><trkpt lat="43.1115777" lon="13.5603877"><ele>161.4</ele><time>2026-04-12T16:13:15.041Z</time></trkpt><trkpt lat="43.1116383" lon="13.5605066"><ele>161.8</ele><time>2026-04-12T16:13:16.044Z</time></trkpt><trkpt lat="43.1116995" lon="13.5606254"><ele>162.20000000000002</ele><time>2026-04-12T16:13:17.04Z</time></trkpt><trkpt lat="43.1117611" lon="13.5607438"><ele>162.60000000000002</ele><time>2026-04-12T16:13:18.046Z</time></trkpt><trkpt lat="43.1118222" lon="13.5608631"><ele>163.0</ele><time>2026-04-12T16:13:19.038Z</time></trkpt><trkpt lat="43.1118809" lon="13.560979"><ele>163.0</ele><time>2026-04-12T16:13:20.039Z</time></trkpt><trkpt lat="43.1119398" lon="13.5610944"><ele>163.0</ele><time>2026-04-12T16:13:21.045Z</time></trkpt><trkpt lat="43.1120002" lon="13.5612118"><ele>163.0</ele><time>2026-04-12T16:13:22.04Z</time></trkpt><trkpt lat="43.112061" lon="13.5613287"><ele>163.0</ele><time>2026-04-12T16:13:23.06Z</time></trkpt><trkpt lat="43.1121207" lon="13.5614431"><ele>163.0</ele><time>2026-04-12T16:13:24.042Z</time></trkpt><trkpt lat="43.1121784" lon="13.5615527"><ele>162.83333333333334</ele><time>2026-04-12T16:13:25.046Z</time></trkpt><trkpt lat="43.1122355" lon="13.5616615"><ele>162.66666666666669</ele><time>2026-04-12T16:13:26.042Z</time></trkpt><trkpt lat="43.1122934" lon="13.5617737"><ele>162.5</ele><time>2026-04-12T16:13:27.047Z</time></trkpt><trkpt lat="43.1123539" lon="13.5618418"><ele>162.33333333333334</ele><time>2026-04-12T16:13:28.048Z</time></trkpt><trkpt lat="43.1124033" lon="13.5619467"><ele>162.16666666666666</ele><time>2026-04-12T16:13:29.04Z</time></trkpt><trkpt lat="43.1124593" lon="13.5620275"><ele>162.0</ele><time>2026-04-12T16:13:30.049Z</time></trkpt><trkpt lat="43.112513" lon="13.5621221"><ele>161.66666666666666</ele><time>2026-04-12T16:13:31.038Z</time></trkpt><trkpt lat="43.1125679" lon="13.562218"><ele>161.33333333333334</ele><time>2026-04-12T16:13:32.049Z</time></trkpt><trkpt lat="43.1126203" lon="13.5623177"><ele>161.0</ele><time>2026-04-12T16:13:33.042Z</time></trkpt><trkpt lat="43.1126725" lon="13.5624144"><ele>160.66666666666669</ele><time>2026-04-12T16:13:34.043Z</time></trkpt><trkpt lat="43.1127237" lon="13.5625115"><ele>160.33333333333334</ele><time>2026-04-12T16:13:35.05Z</time></trkpt><trkpt lat="43.1127749" lon="13.5626093"><ele>160.0</ele><time>2026-04-12T16:13:36.043Z</time></trkpt><trkpt lat="43.1128236" lon="13.5627053"><ele>160.0</ele><time>2026-04-12T16:13:37.048Z</time></trkpt><trkpt lat="43.1128721" lon="13.562797"><ele>160.0</ele><time>2026-04-12T16:13:38.05Z</time></trkpt><trkpt lat="43.1129169" lon="13.5628783"><ele>160.0</ele><time>2026-04-12T16:13:39.044Z</time></trkpt><trkpt lat="43.1129596" lon="13.5629547"><ele>160.0</ele><time>2026-04-12T16:13:40.039Z</time></trkpt><trkpt lat="43.1130023" lon="13.5630312"><ele>160.0</ele><time>2026-04-12T16:13:41.045Z</time></trkpt><trkpt lat="43.1130456" lon="13.563103"><ele>160.0</ele><time>2026-04-12T16:13:42.043Z</time></trkpt><trkpt lat="43.1131062" lon="13.5632051"><ele>160.0</ele><time>2026-04-12T16:13:44.049Z</time></trkpt><trkpt lat="43.1131607" lon="13.5633104"><ele>160.0</ele><time>2026-04-12T16:13:55.046Z</time></trkpt><trkpt lat="43.1132129" lon="13.5634098"><ele>160.0</ele><time>2026-04-12T16:13:57.044Z</time></trkpt><trkpt lat="43.1132707" lon="13.5635297"><ele>160.0</ele><time>2026-04-12T16:13:59.046Z</time></trkpt><trkpt lat="43.1133062" lon="13.5636019"><ele>160.0</ele><time>2026-04-12T16:14:00.05Z</time></trkpt><trkpt lat="43.1133435" lon="13.5636766"><ele>160.0</ele><time>2026-04-12T16:14:01.049Z</time></trkpt><trkpt lat="43.1133807" lon="13.5637489"><ele>159.66666666666669</ele><time>2026-04-12T16:14:02.04Z</time></trkpt><trkpt lat="43.1134185" lon="13.5638202"><ele>159.33333333333334</ele><time>2026-04-12T16:14:03.046Z</time></trkpt><trkpt lat="43.1134609" lon="13.5638974"><ele>159.0</ele><time>2026-04-12T16:14:04.038Z</time></trkpt><trkpt lat="43.1135071" lon="13.5639843"><ele>158.66666666666666</ele><time>2026-04-12T16:14:05.045Z</time></trkpt><trkpt lat="43.1135586" lon="13.5640776"><ele>158.33333333333331</ele><time>2026-04-12T16:14:06.036Z</time></trkpt><trkpt lat="43.113614" lon="13.5641785"><ele>158.0</ele><time>2026-04-12T16:14:07.044Z</time></trkpt><trkpt lat="43.1136722" lon="13.564287"><ele>158.0</ele><time>2026-04-12T16:14:08.04Z</time></trkpt><trkpt lat="43.11373" lon="13.564398"><ele>158.0</ele><time>2026-04-12T16:14:09.042Z</time></trkpt><trkpt lat="43.1137836" lon="13.5644978"><ele>158.0</ele><time>2026-04-12T16:14:10.042Z</time></trkpt><trkpt lat="43.113826" lon="13.5645808"><ele>158.0</ele><time>2026-04-12T16:14:11.051Z</time></trkpt><trkpt lat="43.1138574" lon="13.5647041"><ele>158.0</ele><time>2026-04-12T16:14:13.045Z</time></trkpt><trkpt lat="43.1137893" lon="13.5648055"><ele>158.0</ele><time>2026-04-12T16:14:16.064Z</time></trkpt><trkpt lat="43.1136999" lon="13.5648946"><ele>158.0</ele><time>2026-04-12T16:14:18.046Z</time></trkpt><trkpt lat="43.1136481" lon="13.5649765"><ele>158.0</ele><time>2026-04-12T16:14:20.044Z</time></trkpt><trkpt lat="43.113697" lon="13.5651066"><ele>158.0</ele><time>2026-04-12T16:14:25.043Z</time></trkpt></trkseg></trk></gpx>